<?xml version="1.0" encoding="UTF-8"?>
<gpx xmlns="http://www.topografix.com/GPX/1/1"
     creator="GpsDump 4.74"
     version="1.1"
     xmlns:xsi="http://www.w3.org/2001/XMLSchema-instance"
     xsi:schemaLocation="http://www.topografix.com/GPX/1/1 http://www.topografix.com/GPX/1/1/gpx.xsd">
  <metadata>
    <link href="http://www.gethome.no/stein.sorensen/">
      <text>GPS dump for www.flightlog.org</text>
    </link>
    <time>2013-05-13T18:05:32Z</time>
    <bounds minlat="40.421583" minlon="-5.301683" maxlat="40.557367" maxlon="-4.817650"/>
  </metadata>
  <trk>
    <name>Track 001</name>
    <trkseg>
      <trkpt lat="40.421583" lon="-5.301533">
        <ele>1923.0</ele>
        <time>2013-05-11T12:02:11Z</time>
      </trkpt>
      <trkpt lat="40.421617" lon="-5.301567">
        <ele>1924.0</ele>
        <time>2013-05-11T12:02:12Z</time>
      </trkpt>
      <trkpt lat="40.421633" lon="-5.301600">
        <ele>1924.0</ele>
        <time>2013-05-11T12:02:13Z</time>
      </trkpt>
      <trkpt lat="40.421683" lon="-5.301617">
        <ele>1923.0</ele>
        <time>2013-05-11T12:02:14Z</time>
      </trkpt>
      <trkpt lat="40.421717" lon="-5.301633">
        <ele>1922.0</ele>
        <time>2013-05-11T12:02:15Z</time>
      </trkpt>
      <trkpt lat="40.421767" lon="-5.301650">
        <ele>1921.0</ele>
        <time>2013-05-11T12:02:16Z</time>
      </trkpt>
      <trkpt lat="40.421800" lon="-5.301650">
        <ele>1922.0</ele>
        <time>2013-05-11T12:02:17Z</time>
      </trkpt>
      <trkpt lat="40.421833" lon="-5.301667">
        <ele>1923.0</ele>
        <time>2013-05-11T12:02:18Z</time>
      </trkpt>
      <trkpt lat="40.421867" lon="-5.301667">
        <ele>1924.0</ele>
        <time>2013-05-11T12:02:19Z</time>
      </trkpt>
      <trkpt lat="40.421883" lon="-5.301650">
        <ele>1924.0</ele>
        <time>2013-05-11T12:02:20Z</time>
      </trkpt>
      <trkpt lat="40.421917" lon="-5.301617">
        <ele>1923.0</ele>
        <time>2013-05-11T12:02:21Z</time>
      </trkpt>
      <trkpt lat="40.421967" lon="-5.301600">
        <ele>1921.0</ele>
        <time>2013-05-11T12:02:22Z</time>
      </trkpt>
      <trkpt lat="40.422017" lon="-5.301600">
        <ele>1921.0</ele>
        <time>2013-05-11T12:02:23Z</time>
      </trkpt>
      <trkpt lat="40.422067" lon="-5.301600">
        <ele>1920.0</ele>
        <time>2013-05-11T12:02:24Z</time>
      </trkpt>
      <trkpt lat="40.422117" lon="-5.301617">
        <ele>1920.0</ele>
        <time>2013-05-11T12:02:25Z</time>
      </trkpt>
      <trkpt lat="40.422150" lon="-5.301617">
        <ele>1920.0</ele>
        <time>2013-05-11T12:02:26Z</time>
      </trkpt>
      <trkpt lat="40.422200" lon="-5.301633">
        <ele>1920.0</ele>
        <time>2013-05-11T12:02:27Z</time>
      </trkpt>
      <trkpt lat="40.422267" lon="-5.301633">
        <ele>1919.0</ele>
        <time>2013-05-11T12:02:28Z</time>
      </trkpt>
      <trkpt lat="40.422317" lon="-5.301633">
        <ele>1918.0</ele>
        <time>2013-05-11T12:02:29Z</time>
      </trkpt>
      <trkpt lat="40.422367" lon="-5.301650">
        <ele>1917.0</ele>
        <time>2013-05-11T12:02:30Z</time>
      </trkpt>
      <trkpt lat="40.422417" lon="-5.301667">
        <ele>1916.0</ele>
        <time>2013-05-11T12:02:31Z</time>
      </trkpt>
      <trkpt lat="40.422483" lon="-5.301683">
        <ele>1916.0</ele>
        <time>2013-05-11T12:02:32Z</time>
      </trkpt>
      <trkpt lat="40.422533" lon="-5.301683">
        <ele>1917.0</ele>
        <time>2013-05-11T12:02:33Z</time>
      </trkpt>
      <trkpt lat="40.422583" lon="-5.301667">
        <ele>1918.0</ele>
        <time>2013-05-11T12:02:34Z</time>
      </trkpt>
      <trkpt lat="40.422617" lon="-5.301633">
        <ele>1919.0</ele>
        <time>2013-05-11T12:02:35Z</time>
      </trkpt>
      <trkpt lat="40.422667" lon="-5.301600">
        <ele>1919.0</ele>
        <time>2013-05-11T12:02:36Z</time>
      </trkpt>
      <trkpt lat="40.422700" lon="-5.301567">
        <ele>1918.0</ele>
        <time>2013-05-11T12:02:37Z</time>
      </trkpt>
      <trkpt lat="40.422750" lon="-5.301533">
        <ele>1917.0</ele>
        <time>2013-05-11T12:02:38Z</time>
      </trkpt>
      <trkpt lat="40.422800" lon="-5.301500">
        <ele>1916.0</ele>
        <time>2013-05-11T12:02:39Z</time>
      </trkpt>
      <trkpt lat="40.422867" lon="-5.301450">
        <ele>1916.0</ele>
        <time>2013-05-11T12:02:40Z</time>
      </trkpt>
      <trkpt lat="40.422950" lon="-5.301417">
        <ele>1916.0</ele>
        <time>2013-05-11T12:02:41Z</time>
      </trkpt>
      <trkpt lat="40.423017" lon="-5.301417">
        <ele>1918.0</ele>
        <time>2013-05-11T12:02:42Z</time>
      </trkpt>
      <trkpt lat="40.423067" lon="-5.301417">
        <ele>1921.0</ele>
        <time>2013-05-11T12:02:43Z</time>
      </trkpt>
      <trkpt lat="40.423100" lon="-5.301417">
        <ele>1923.0</ele>
        <time>2013-05-11T12:02:44Z</time>
      </trkpt>
      <trkpt lat="40.423133" lon="-5.301417">
        <ele>1923.0</ele>
        <time>2013-05-11T12:02:45Z</time>
      </trkpt>
      <trkpt lat="40.423167" lon="-5.301383">
        <ele>1922.0</ele>
        <time>2013-05-11T12:02:46Z</time>
      </trkpt>
      <trkpt lat="40.423200" lon="-5.301367">
        <ele>1921.0</ele>
        <time>2013-05-11T12:02:47Z</time>
      </trkpt>
      <trkpt lat="40.423250" lon="-5.301333">
        <ele>1920.0</ele>
        <time>2013-05-11T12:02:48Z</time>
      </trkpt>
      <trkpt lat="40.423300" lon="-5.301283">
        <ele>1920.0</ele>
        <time>2013-05-11T12:02:49Z</time>
      </trkpt>
      <trkpt lat="40.423333" lon="-5.301250">
        <ele>1921.0</ele>
        <time>2013-05-11T12:02:50Z</time>
      </trkpt>
      <trkpt lat="40.423383" lon="-5.301217">
        <ele>1920.0</ele>
        <time>2013-05-11T12:02:51Z</time>
      </trkpt>
      <trkpt lat="40.423433" lon="-5.301200">
        <ele>1919.0</ele>
        <time>2013-05-11T12:02:52Z</time>
      </trkpt>
      <trkpt lat="40.423483" lon="-5.301167">
        <ele>1918.0</ele>
        <time>2013-05-11T12:02:53Z</time>
      </trkpt>
      <trkpt lat="40.423550" lon="-5.301150">
        <ele>1918.0</ele>
        <time>2013-05-11T12:02:54Z</time>
      </trkpt>
      <trkpt lat="40.423583" lon="-5.301100">
        <ele>1918.0</ele>
        <time>2013-05-11T12:02:55Z</time>
      </trkpt>
      <trkpt lat="40.423633" lon="-5.301067">
        <ele>1918.0</ele>
        <time>2013-05-11T12:02:56Z</time>
      </trkpt>
      <trkpt lat="40.423667" lon="-5.301050">
        <ele>1917.0</ele>
        <time>2013-05-11T12:02:57Z</time>
      </trkpt>
      <trkpt lat="40.423717" lon="-5.301017">
        <ele>1915.0</ele>
        <time>2013-05-11T12:02:58Z</time>
      </trkpt>
      <trkpt lat="40.423767" lon="-5.300967">
        <ele>1913.0</ele>
        <time>2013-05-11T12:02:59Z</time>
      </trkpt>
      <trkpt lat="40.423833" lon="-5.300933">
        <ele>1912.0</ele>
        <time>2013-05-11T12:03:00Z</time>
      </trkpt>
      <trkpt lat="40.423883" lon="-5.300883">
        <ele>1912.0</ele>
        <time>2013-05-11T12:03:01Z</time>
      </trkpt>
      <trkpt lat="40.423933" lon="-5.300817">
        <ele>1913.0</ele>
        <time>2013-05-11T12:03:02Z</time>
      </trkpt>
      <trkpt lat="40.423967" lon="-5.300767">
        <ele>1914.0</ele>
        <time>2013-05-11T12:03:03Z</time>
      </trkpt>
      <trkpt lat="40.424000" lon="-5.300717">
        <ele>1914.0</ele>
        <time>2013-05-11T12:03:04Z</time>
      </trkpt>
      <trkpt lat="40.424050" lon="-5.300683">
        <ele>1913.0</ele>
        <time>2013-05-11T12:03:05Z</time>
      </trkpt>
      <trkpt lat="40.424100" lon="-5.300633">
        <ele>1912.0</ele>
        <time>2013-05-11T12:03:06Z</time>
      </trkpt>
      <trkpt lat="40.424150" lon="-5.300600">
        <ele>1912.0</ele>
        <time>2013-05-11T12:03:07Z</time>
      </trkpt>
      <trkpt lat="40.424217" lon="-5.300550">
        <ele>1912.0</ele>
        <time>2013-05-11T12:03:08Z</time>
      </trkpt>
      <trkpt lat="40.424267" lon="-5.300533">
        <ele>1912.0</ele>
        <time>2013-05-11T12:03:09Z</time>
      </trkpt>
      <trkpt lat="40.424317" lon="-5.300517">
        <ele>1912.0</ele>
        <time>2013-05-11T12:03:10Z</time>
      </trkpt>
      <trkpt lat="40.424383" lon="-5.300500">
        <ele>1912.0</ele>
        <time>2013-05-11T12:03:11Z</time>
      </trkpt>
      <trkpt lat="40.424433" lon="-5.300483">
        <ele>1912.0</ele>
        <time>2013-05-11T12:03:12Z</time>
      </trkpt>
      <trkpt lat="40.424483" lon="-5.300467">
        <ele>1912.0</ele>
        <time>2013-05-11T12:03:13Z</time>
      </trkpt>
      <trkpt lat="40.424533" lon="-5.300450">
        <ele>1912.0</ele>
        <time>2013-05-11T12:03:14Z</time>
      </trkpt>
      <trkpt lat="40.424583" lon="-5.300433">
        <ele>1911.0</ele>
        <time>2013-05-11T12:03:15Z</time>
      </trkpt>
      <trkpt lat="40.424617" lon="-5.300383">
        <ele>1911.0</ele>
        <time>2013-05-11T12:03:16Z</time>
      </trkpt>
      <trkpt lat="40.424667" lon="-5.300317">
        <ele>1911.0</ele>
        <time>2013-05-11T12:03:17Z</time>
      </trkpt>
      <trkpt lat="40.424717" lon="-5.300233">
        <ele>1913.0</ele>
        <time>2013-05-11T12:03:18Z</time>
      </trkpt>
      <trkpt lat="40.424767" lon="-5.300200">
        <ele>1914.0</ele>
        <time>2013-05-11T12:03:19Z</time>
      </trkpt>
      <trkpt lat="40.424800" lon="-5.300167">
        <ele>1913.0</ele>
        <time>2013-05-11T12:03:20Z</time>
      </trkpt>
      <trkpt lat="40.424850" lon="-5.300150">
        <ele>1912.0</ele>
        <time>2013-05-11T12:03:21Z</time>
      </trkpt>
      <trkpt lat="40.424900" lon="-5.300150">
        <ele>1913.0</ele>
        <time>2013-05-11T12:03:22Z</time>
      </trkpt>
      <trkpt lat="40.424950" lon="-5.300133">
        <ele>1913.0</ele>
        <time>2013-05-11T12:03:23Z</time>
      </trkpt>
      <trkpt lat="40.425000" lon="-5.300117">
        <ele>1914.0</ele>
        <time>2013-05-11T12:03:24Z</time>
      </trkpt>
      <trkpt lat="40.425033" lon="-5.300083">
        <ele>1914.0</ele>
        <time>2013-05-11T12:03:25Z</time>
      </trkpt>
      <trkpt lat="40.425083" lon="-5.300050">
        <ele>1911.0</ele>
        <time>2013-05-11T12:03:26Z</time>
      </trkpt>
      <trkpt lat="40.425133" lon="-5.300033">
        <ele>1910.0</ele>
        <time>2013-05-11T12:03:27Z</time>
      </trkpt>
      <trkpt lat="40.425200" lon="-5.300033">
        <ele>1909.0</ele>
        <time>2013-05-11T12:03:28Z</time>
      </trkpt>
      <trkpt lat="40.425250" lon="-5.300033">
        <ele>1908.0</ele>
        <time>2013-05-11T12:03:29Z</time>
      </trkpt>
      <trkpt lat="40.425300" lon="-5.300033">
        <ele>1907.0</ele>
        <time>2013-05-11T12:03:30Z</time>
      </trkpt>
      <trkpt lat="40.425367" lon="-5.300000">
        <ele>1906.0</ele>
        <time>2013-05-11T12:03:31Z</time>
      </trkpt>
      <trkpt lat="40.425417" lon="-5.299967">
        <ele>1906.0</ele>
        <time>2013-05-11T12:03:32Z</time>
      </trkpt>
      <trkpt lat="40.425467" lon="-5.299933">
        <ele>1905.0</ele>
        <time>2013-05-11T12:03:33Z</time>
      </trkpt>
      <trkpt lat="40.425533" lon="-5.299900">
        <ele>1905.0</ele>
        <time>2013-05-11T12:03:34Z</time>
      </trkpt>
      <trkpt lat="40.425583" lon="-5.299883">
        <ele>1906.0</ele>
        <time>2013-05-11T12:03:35Z</time>
      </trkpt>
      <trkpt lat="40.425650" lon="-5.299833">
        <ele>1907.0</ele>
        <time>2013-05-11T12:03:36Z</time>
      </trkpt>
      <trkpt lat="40.425683" lon="-5.299783">
        <ele>1908.0</ele>
        <time>2013-05-11T12:03:37Z</time>
      </trkpt>
      <trkpt lat="40.425733" lon="-5.299717">
        <ele>1908.0</ele>
        <time>2013-05-11T12:03:38Z</time>
      </trkpt>
      <trkpt lat="40.425783" lon="-5.299650">
        <ele>1908.0</ele>
        <time>2013-05-11T12:03:39Z</time>
      </trkpt>
      <trkpt lat="40.425833" lon="-5.299583">
        <ele>1908.0</ele>
        <time>2013-05-11T12:03:40Z</time>
      </trkpt>
      <trkpt lat="40.425867" lon="-5.299533">
        <ele>1908.0</ele>
        <time>2013-05-11T12:03:41Z</time>
      </trkpt>
      <trkpt lat="40.425900" lon="-5.299483">
        <ele>1908.0</ele>
        <time>2013-05-11T12:03:42Z</time>
      </trkpt>
      <trkpt lat="40.425950" lon="-5.299450">
        <ele>1907.0</ele>
        <time>2013-05-11T12:03:43Z</time>
      </trkpt>
      <trkpt lat="40.426000" lon="-5.299433">
        <ele>1908.0</ele>
        <time>2013-05-11T12:03:44Z</time>
      </trkpt>
      <trkpt lat="40.426050" lon="-5.299400">
        <ele>1908.0</ele>
        <time>2013-05-11T12:03:45Z</time>
      </trkpt>
      <trkpt lat="40.426100" lon="-5.299367">
        <ele>1908.0</ele>
        <time>2013-05-11T12:03:46Z</time>
      </trkpt>
      <trkpt lat="40.426133" lon="-5.299317">
        <ele>1907.0</ele>
        <time>2013-05-11T12:03:47Z</time>
      </trkpt>
      <trkpt lat="40.426200" lon="-5.299283">
        <ele>1906.0</ele>
        <time>2013-05-11T12:03:48Z</time>
      </trkpt>
      <trkpt lat="40.426250" lon="-5.299233">
        <ele>1906.0</ele>
        <time>2013-05-11T12:03:49Z</time>
      </trkpt>
      <trkpt lat="40.426300" lon="-5.299217">
        <ele>1906.0</ele>
        <time>2013-05-11T12:03:50Z</time>
      </trkpt>
      <trkpt lat="40.426350" lon="-5.299183">
        <ele>1907.0</ele>
        <time>2013-05-11T12:03:51Z</time>
      </trkpt>
      <trkpt lat="40.426400" lon="-5.299133">
        <ele>1907.0</ele>
        <time>2013-05-11T12:03:52Z</time>
      </trkpt>
      <trkpt lat="40.426450" lon="-5.299083">
        <ele>1908.0</ele>
        <time>2013-05-11T12:03:53Z</time>
      </trkpt>
      <trkpt lat="40.426483" lon="-5.299017">
        <ele>1908.0</ele>
        <time>2013-05-11T12:03:54Z</time>
      </trkpt>
      <trkpt lat="40.426517" lon="-5.298950">
        <ele>1909.0</ele>
        <time>2013-05-11T12:03:55Z</time>
      </trkpt>
      <trkpt lat="40.426567" lon="-5.298900">
        <ele>1910.0</ele>
        <time>2013-05-11T12:03:56Z</time>
      </trkpt>
      <trkpt lat="40.426600" lon="-5.298833">
        <ele>1911.0</ele>
        <time>2013-05-11T12:03:57Z</time>
      </trkpt>
      <trkpt lat="40.426633" lon="-5.298750">
        <ele>1912.0</ele>
        <time>2013-05-11T12:03:58Z</time>
      </trkpt>
      <trkpt lat="40.426667" lon="-5.298667">
        <ele>1914.0</ele>
        <time>2013-05-11T12:03:59Z</time>
      </trkpt>
      <trkpt lat="40.426683" lon="-5.298583">
        <ele>1915.0</ele>
        <time>2013-05-11T12:04:00Z</time>
      </trkpt>
      <trkpt lat="40.426717" lon="-5.298500">
        <ele>1917.0</ele>
        <time>2013-05-11T12:04:01Z</time>
      </trkpt>
      <trkpt lat="40.426733" lon="-5.298417">
        <ele>1918.0</ele>
        <time>2013-05-11T12:04:02Z</time>
      </trkpt>
      <trkpt lat="40.426767" lon="-5.298317">
        <ele>1918.0</ele>
        <time>2013-05-11T12:04:03Z</time>
      </trkpt>
      <trkpt lat="40.426783" lon="-5.298217">
        <ele>1918.0</ele>
        <time>2013-05-11T12:04:04Z</time>
      </trkpt>
      <trkpt lat="40.426817" lon="-5.298133">
        <ele>1919.0</ele>
        <time>2013-05-11T12:04:05Z</time>
      </trkpt>
      <trkpt lat="40.426850" lon="-5.298083">
        <ele>1920.0</ele>
        <time>2013-05-11T12:04:06Z</time>
      </trkpt>
      <trkpt lat="40.426900" lon="-5.298033">
        <ele>1922.0</ele>
        <time>2013-05-11T12:04:07Z</time>
      </trkpt>
      <trkpt lat="40.426950" lon="-5.298017">
        <ele>1923.0</ele>
        <time>2013-05-11T12:04:08Z</time>
      </trkpt>
      <trkpt lat="40.426967" lon="-5.298017">
        <ele>1925.0</ele>
        <time>2013-05-11T12:04:09Z</time>
      </trkpt>
      <trkpt lat="40.426983" lon="-5.298033">
        <ele>1926.0</ele>
        <time>2013-05-11T12:04:10Z</time>
      </trkpt>
      <trkpt lat="40.426983" lon="-5.298067">
        <ele>1925.0</ele>
        <time>2013-05-11T12:04:11Z</time>
      </trkpt>
      <trkpt lat="40.426967" lon="-5.298117">
        <ele>1924.0</ele>
        <time>2013-05-11T12:04:12Z</time>
      </trkpt>
      <trkpt lat="40.426950" lon="-5.298183">
        <ele>1923.0</ele>
        <time>2013-05-11T12:04:13Z</time>
      </trkpt>
      <trkpt lat="40.426900" lon="-5.298267">
        <ele>1923.0</ele>
        <time>2013-05-11T12:04:14Z</time>
      </trkpt>
      <trkpt lat="40.426833" lon="-5.298333">
        <ele>1924.0</ele>
        <time>2013-05-11T12:04:15Z</time>
      </trkpt>
      <trkpt lat="40.426750" lon="-5.298400">
        <ele>1925.0</ele>
        <time>2013-05-11T12:04:16Z</time>
      </trkpt>
      <trkpt lat="40.426683" lon="-5.298433">
        <ele>1926.0</ele>
        <time>2013-05-11T12:04:17Z</time>
      </trkpt>
      <trkpt lat="40.426600" lon="-5.298483">
        <ele>1926.0</ele>
        <time>2013-05-11T12:04:18Z</time>
      </trkpt>
      <trkpt lat="40.426533" lon="-5.298550">
        <ele>1925.0</ele>
        <time>2013-05-11T12:04:19Z</time>
      </trkpt>
      <trkpt lat="40.426467" lon="-5.298633">
        <ele>1923.0</ele>
        <time>2013-05-11T12:04:20Z</time>
      </trkpt>
      <trkpt lat="40.426400" lon="-5.298733">
        <ele>1923.0</ele>
        <time>2013-05-11T12:04:21Z</time>
      </trkpt>
      <trkpt lat="40.426333" lon="-5.298833">
        <ele>1925.0</ele>
        <time>2013-05-11T12:04:22Z</time>
      </trkpt>
      <trkpt lat="40.426233" lon="-5.298900">
        <ele>1928.0</ele>
        <time>2013-05-11T12:04:23Z</time>
      </trkpt>
      <trkpt lat="40.426133" lon="-5.298933">
        <ele>1930.0</ele>
        <time>2013-05-11T12:04:24Z</time>
      </trkpt>
      <trkpt lat="40.426017" lon="-5.298950">
        <ele>1931.0</ele>
        <time>2013-05-11T12:04:25Z</time>
      </trkpt>
      <trkpt lat="40.425917" lon="-5.298967">
        <ele>1932.0</ele>
        <time>2013-05-11T12:04:26Z</time>
      </trkpt>
      <trkpt lat="40.425800" lon="-5.299000">
        <ele>1932.0</ele>
        <time>2013-05-11T12:04:27Z</time>
      </trkpt>
      <trkpt lat="40.425700" lon="-5.299050">
        <ele>1933.0</ele>
        <time>2013-05-11T12:04:28Z</time>
      </trkpt>
      <trkpt lat="40.425583" lon="-5.299083">
        <ele>1934.0</ele>
        <time>2013-05-11T12:04:29Z</time>
      </trkpt>
      <trkpt lat="40.425467" lon="-5.299117">
        <ele>1936.0</ele>
        <time>2013-05-11T12:04:30Z</time>
      </trkpt>
      <trkpt lat="40.425350" lon="-5.299150">
        <ele>1937.0</ele>
        <time>2013-05-11T12:04:31Z</time>
      </trkpt>
      <trkpt lat="40.425250" lon="-5.299200">
        <ele>1937.0</ele>
        <time>2013-05-11T12:04:32Z</time>
      </trkpt>
      <trkpt lat="40.425150" lon="-5.299267">
        <ele>1938.0</ele>
        <time>2013-05-11T12:04:33Z</time>
      </trkpt>
      <trkpt lat="40.425067" lon="-5.299350">
        <ele>1940.0</ele>
        <time>2013-05-11T12:04:34Z</time>
      </trkpt>
      <trkpt lat="40.424967" lon="-5.299417">
        <ele>1942.0</ele>
        <time>2013-05-11T12:04:35Z</time>
      </trkpt>
      <trkpt lat="40.424900" lon="-5.299467">
        <ele>1943.0</ele>
        <time>2013-05-11T12:04:36Z</time>
      </trkpt>
      <trkpt lat="40.424817" lon="-5.299533">
        <ele>1944.0</ele>
        <time>2013-05-11T12:04:37Z</time>
      </trkpt>
      <trkpt lat="40.424750" lon="-5.299617">
        <ele>1944.0</ele>
        <time>2013-05-11T12:04:38Z</time>
      </trkpt>
      <trkpt lat="40.424667" lon="-5.299717">
        <ele>1943.0</ele>
        <time>2013-05-11T12:04:39Z</time>
      </trkpt>
      <trkpt lat="40.424600" lon="-5.299817">
        <ele>1945.0</ele>
        <time>2013-05-11T12:04:40Z</time>
      </trkpt>
      <trkpt lat="40.424550" lon="-5.299933">
        <ele>1948.0</ele>
        <time>2013-05-11T12:04:41Z</time>
      </trkpt>
      <trkpt lat="40.424500" lon="-5.300017">
        <ele>1951.0</ele>
        <time>2013-05-11T12:04:42Z</time>
      </trkpt>
      <trkpt lat="40.424467" lon="-5.300067">
        <ele>1953.0</ele>
        <time>2013-05-11T12:04:43Z</time>
      </trkpt>
      <trkpt lat="40.424433" lon="-5.300133">
        <ele>1955.0</ele>
        <time>2013-05-11T12:04:44Z</time>
      </trkpt>
      <trkpt lat="40.424433" lon="-5.300183">
        <ele>1956.0</ele>
        <time>2013-05-11T12:04:45Z</time>
      </trkpt>
      <trkpt lat="40.424433" lon="-5.300233">
        <ele>1957.0</ele>
        <time>2013-05-11T12:04:46Z</time>
      </trkpt>
      <trkpt lat="40.424467" lon="-5.300267">
        <ele>1958.0</ele>
        <time>2013-05-11T12:04:47Z</time>
      </trkpt>
      <trkpt lat="40.424500" lon="-5.300283">
        <ele>1960.0</ele>
        <time>2013-05-11T12:04:48Z</time>
      </trkpt>
      <trkpt lat="40.424533" lon="-5.300267">
        <ele>1962.0</ele>
        <time>2013-05-11T12:04:49Z</time>
      </trkpt>
      <trkpt lat="40.424550" lon="-5.300267">
        <ele>1963.0</ele>
        <time>2013-05-11T12:04:50Z</time>
      </trkpt>
      <trkpt lat="40.424567" lon="-5.300250">
        <ele>1964.0</ele>
        <time>2013-05-11T12:04:51Z</time>
      </trkpt>
      <trkpt lat="40.424600" lon="-5.300233">
        <ele>1963.0</ele>
        <time>2013-05-11T12:04:52Z</time>
      </trkpt>
      <trkpt lat="40.424633" lon="-5.300200">
        <ele>1963.0</ele>
        <time>2013-05-11T12:04:53Z</time>
      </trkpt>
      <trkpt lat="40.424683" lon="-5.300167">
        <ele>1962.0</ele>
        <time>2013-05-11T12:04:54Z</time>
      </trkpt>
      <trkpt lat="40.424717" lon="-5.300117">
        <ele>1963.0</ele>
        <time>2013-05-11T12:04:55Z</time>
      </trkpt>
      <trkpt lat="40.424750" lon="-5.300083">
        <ele>1964.0</ele>
        <time>2013-05-11T12:04:56Z</time>
      </trkpt>
      <trkpt lat="40.424783" lon="-5.300033">
        <ele>1965.0</ele>
        <time>2013-05-11T12:04:57Z</time>
      </trkpt>
      <trkpt lat="40.424817" lon="-5.300000">
        <ele>1967.0</ele>
        <time>2013-05-11T12:04:58Z</time>
      </trkpt>
      <trkpt lat="40.424850" lon="-5.299967">
        <ele>1968.0</ele>
        <time>2013-05-11T12:04:59Z</time>
      </trkpt>
      <trkpt lat="40.424867" lon="-5.299917">
        <ele>1968.0</ele>
        <time>2013-05-11T12:05:00Z</time>
      </trkpt>
      <trkpt lat="40.424883" lon="-5.299867">
        <ele>1968.0</ele>
        <time>2013-05-11T12:05:01Z</time>
      </trkpt>
      <trkpt lat="40.424900" lon="-5.299833">
        <ele>1968.0</ele>
        <time>2013-05-11T12:05:02Z</time>
      </trkpt>
      <trkpt lat="40.424917" lon="-5.299783">
        <ele>1967.0</ele>
        <time>2013-05-11T12:05:03Z</time>
      </trkpt>
      <trkpt lat="40.424950" lon="-5.299750">
        <ele>1965.0</ele>
        <time>2013-05-11T12:05:04Z</time>
      </trkpt>
      <trkpt lat="40.424983" lon="-5.299700">
        <ele>1962.0</ele>
        <time>2013-05-11T12:05:05Z</time>
      </trkpt>
      <trkpt lat="40.425033" lon="-5.299633">
        <ele>1959.0</ele>
        <time>2013-05-11T12:05:06Z</time>
      </trkpt>
      <trkpt lat="40.425083" lon="-5.299567">
        <ele>1958.0</ele>
        <time>2013-05-11T12:05:07Z</time>
      </trkpt>
      <trkpt lat="40.425150" lon="-5.299517">
        <ele>1959.0</ele>
        <time>2013-05-11T12:05:08Z</time>
      </trkpt>
      <trkpt lat="40.425200" lon="-5.299467">
        <ele>1961.0</ele>
        <time>2013-05-11T12:05:09Z</time>
      </trkpt>
      <trkpt lat="40.425233" lon="-5.299417">
        <ele>1963.0</ele>
        <time>2013-05-11T12:05:10Z</time>
      </trkpt>
      <trkpt lat="40.425267" lon="-5.299367">
        <ele>1965.0</ele>
        <time>2013-05-11T12:05:11Z</time>
      </trkpt>
      <trkpt lat="40.425300" lon="-5.299333">
        <ele>1965.0</ele>
        <time>2013-05-11T12:05:12Z</time>
      </trkpt>
      <trkpt lat="40.425333" lon="-5.299300">
        <ele>1966.0</ele>
        <time>2013-05-11T12:05:13Z</time>
      </trkpt>
      <trkpt lat="40.425383" lon="-5.299267">
        <ele>1968.0</ele>
        <time>2013-05-11T12:05:14Z</time>
      </trkpt>
      <trkpt lat="40.425417" lon="-5.299217">
        <ele>1969.0</ele>
        <time>2013-05-11T12:05:15Z</time>
      </trkpt>
      <trkpt lat="40.425450" lon="-5.299150">
        <ele>1972.0</ele>
        <time>2013-05-11T12:05:16Z</time>
      </trkpt>
      <trkpt lat="40.425467" lon="-5.299083">
        <ele>1974.0</ele>
        <time>2013-05-11T12:05:17Z</time>
      </trkpt>
      <trkpt lat="40.425500" lon="-5.299017">
        <ele>1975.0</ele>
        <time>2013-05-11T12:05:18Z</time>
      </trkpt>
      <trkpt lat="40.425517" lon="-5.298933">
        <ele>1975.0</ele>
        <time>2013-05-11T12:05:19Z</time>
      </trkpt>
      <trkpt lat="40.425533" lon="-5.298833">
        <ele>1974.0</ele>
        <time>2013-05-11T12:05:20Z</time>
      </trkpt>
      <trkpt lat="40.425550" lon="-5.298717">
        <ele>1974.0</ele>
        <time>2013-05-11T12:05:21Z</time>
      </trkpt>
      <trkpt lat="40.425567" lon="-5.298583">
        <ele>1974.0</ele>
        <time>2013-05-11T12:05:22Z</time>
      </trkpt>
      <trkpt lat="40.425600" lon="-5.298500">
        <ele>1973.0</ele>
        <time>2013-05-11T12:05:23Z</time>
      </trkpt>
      <trkpt lat="40.425633" lon="-5.298450">
        <ele>1973.0</ele>
        <time>2013-05-11T12:05:24Z</time>
      </trkpt>
      <trkpt lat="40.425683" lon="-5.298433">
        <ele>1972.0</ele>
        <time>2013-05-11T12:05:25Z</time>
      </trkpt>
      <trkpt lat="40.425717" lon="-5.298450">
        <ele>1970.0</ele>
        <time>2013-05-11T12:05:26Z</time>
      </trkpt>
      <trkpt lat="40.425733" lon="-5.298500">
        <ele>1969.0</ele>
        <time>2013-05-11T12:05:27Z</time>
      </trkpt>
      <trkpt lat="40.425750" lon="-5.298583">
        <ele>1969.0</ele>
        <time>2013-05-11T12:05:28Z</time>
      </trkpt>
      <trkpt lat="40.425733" lon="-5.298667">
        <ele>1968.0</ele>
        <time>2013-05-11T12:05:29Z</time>
      </trkpt>
      <trkpt lat="40.425683" lon="-5.298783">
        <ele>1968.0</ele>
        <time>2013-05-11T12:05:30Z</time>
      </trkpt>
      <trkpt lat="40.425617" lon="-5.298883">
        <ele>1968.0</ele>
        <time>2013-05-11T12:05:31Z</time>
      </trkpt>
      <trkpt lat="40.425550" lon="-5.298950">
        <ele>1969.0</ele>
        <time>2013-05-11T12:05:32Z</time>
      </trkpt>
      <trkpt lat="40.425500" lon="-5.299017">
        <ele>1970.0</ele>
        <time>2013-05-11T12:05:33Z</time>
      </trkpt>
      <trkpt lat="40.425450" lon="-5.299100">
        <ele>1970.0</ele>
        <time>2013-05-11T12:05:34Z</time>
      </trkpt>
      <trkpt lat="40.425400" lon="-5.299200">
        <ele>1971.0</ele>
        <time>2013-05-11T12:05:35Z</time>
      </trkpt>
      <trkpt lat="40.425367" lon="-5.299317">
        <ele>1972.0</ele>
        <time>2013-05-11T12:05:36Z</time>
      </trkpt>
      <trkpt lat="40.425317" lon="-5.299417">
        <ele>1975.0</ele>
        <time>2013-05-11T12:05:37Z</time>
      </trkpt>
      <trkpt lat="40.425250" lon="-5.299500">
        <ele>1978.0</ele>
        <time>2013-05-11T12:05:38Z</time>
      </trkpt>
      <trkpt lat="40.425200" lon="-5.299567">
        <ele>1980.0</ele>
        <time>2013-05-11T12:05:39Z</time>
      </trkpt>
      <trkpt lat="40.425117" lon="-5.299633">
        <ele>1980.0</ele>
        <time>2013-05-11T12:05:40Z</time>
      </trkpt>
      <trkpt lat="40.425050" lon="-5.299700">
        <ele>1979.0</ele>
        <time>2013-05-11T12:05:41Z</time>
      </trkpt>
      <trkpt lat="40.424967" lon="-5.299800">
        <ele>1977.0</ele>
        <time>2013-05-11T12:05:42Z</time>
      </trkpt>
      <trkpt lat="40.424867" lon="-5.299900">
        <ele>1976.0</ele>
        <time>2013-05-11T12:05:43Z</time>
      </trkpt>
      <trkpt lat="40.424767" lon="-5.299983">
        <ele>1976.0</ele>
        <time>2013-05-11T12:05:44Z</time>
      </trkpt>
      <trkpt lat="40.424650" lon="-5.300017">
        <ele>1976.0</ele>
        <time>2013-05-11T12:05:45Z</time>
      </trkpt>
      <trkpt lat="40.424533" lon="-5.300050">
        <ele>1977.0</ele>
        <time>2013-05-11T12:05:46Z</time>
      </trkpt>
      <trkpt lat="40.424433" lon="-5.300083">
        <ele>1976.0</ele>
        <time>2013-05-11T12:05:47Z</time>
      </trkpt>
      <trkpt lat="40.424350" lon="-5.300133">
        <ele>1975.0</ele>
        <time>2013-05-11T12:05:48Z</time>
      </trkpt>
      <trkpt lat="40.424250" lon="-5.300217">
        <ele>1973.0</ele>
        <time>2013-05-11T12:05:49Z</time>
      </trkpt>
      <trkpt lat="40.424200" lon="-5.300317">
        <ele>1972.0</ele>
        <time>2013-05-11T12:05:50Z</time>
      </trkpt>
      <trkpt lat="40.424150" lon="-5.300417">
        <ele>1973.0</ele>
        <time>2013-05-11T12:05:51Z</time>
      </trkpt>
      <trkpt lat="40.424117" lon="-5.300500">
        <ele>1974.0</ele>
        <time>2013-05-11T12:05:52Z</time>
      </trkpt>
      <trkpt lat="40.424100" lon="-5.300567">
        <ele>1974.0</ele>
        <time>2013-05-11T12:05:53Z</time>
      </trkpt>
      <trkpt lat="40.424100" lon="-5.300633">
        <ele>1973.0</ele>
        <time>2013-05-11T12:05:54Z</time>
      </trkpt>
      <trkpt lat="40.424100" lon="-5.300700">
        <ele>1973.0</ele>
        <time>2013-05-11T12:05:55Z</time>
      </trkpt>
      <trkpt lat="40.424150" lon="-5.300750">
        <ele>1971.0</ele>
        <time>2013-05-11T12:05:56Z</time>
      </trkpt>
      <trkpt lat="40.424200" lon="-5.300750">
        <ele>1970.0</ele>
        <time>2013-05-11T12:05:57Z</time>
      </trkpt>
      <trkpt lat="40.424267" lon="-5.300733">
        <ele>1970.0</ele>
        <time>2013-05-11T12:05:58Z</time>
      </trkpt>
      <trkpt lat="40.424317" lon="-5.300683">
        <ele>1970.0</ele>
        <time>2013-05-11T12:05:59Z</time>
      </trkpt>
      <trkpt lat="40.424350" lon="-5.300633">
        <ele>1971.0</ele>
        <time>2013-05-11T12:06:00Z</time>
      </trkpt>
      <trkpt lat="40.424383" lon="-5.300583">
        <ele>1970.0</ele>
        <time>2013-05-11T12:06:01Z</time>
      </trkpt>
      <trkpt lat="40.424417" lon="-5.300517">
        <ele>1969.0</ele>
        <time>2013-05-11T12:06:02Z</time>
      </trkpt>
      <trkpt lat="40.424450" lon="-5.300450">
        <ele>1967.0</ele>
        <time>2013-05-11T12:06:03Z</time>
      </trkpt>
      <trkpt lat="40.424483" lon="-5.300350">
        <ele>1965.0</ele>
        <time>2013-05-11T12:06:04Z</time>
      </trkpt>
      <trkpt lat="40.424517" lon="-5.300233">
        <ele>1963.0</ele>
        <time>2013-05-11T12:06:05Z</time>
      </trkpt>
      <trkpt lat="40.424533" lon="-5.300117">
        <ele>1961.0</ele>
        <time>2013-05-11T12:06:06Z</time>
      </trkpt>
      <trkpt lat="40.424550" lon="-5.300000">
        <ele>1961.0</ele>
        <time>2013-05-11T12:06:07Z</time>
      </trkpt>
      <trkpt lat="40.424600" lon="-5.299900">
        <ele>1960.0</ele>
        <time>2013-05-11T12:06:08Z</time>
      </trkpt>
      <trkpt lat="40.424633" lon="-5.299833">
        <ele>1961.0</ele>
        <time>2013-05-11T12:06:09Z</time>
      </trkpt>
      <trkpt lat="40.424667" lon="-5.299767">
        <ele>1961.0</ele>
        <time>2013-05-11T12:06:10Z</time>
      </trkpt>
      <trkpt lat="40.424700" lon="-5.299700">
        <ele>1961.0</ele>
        <time>2013-05-11T12:06:11Z</time>
      </trkpt>
      <trkpt lat="40.424733" lon="-5.299633">
        <ele>1960.0</ele>
        <time>2013-05-11T12:06:12Z</time>
      </trkpt>
      <trkpt lat="40.424783" lon="-5.299567">
        <ele>1959.0</ele>
        <time>2013-05-11T12:06:13Z</time>
      </trkpt>
      <trkpt lat="40.424850" lon="-5.299517">
        <ele>1958.0</ele>
        <time>2013-05-11T12:06:14Z</time>
      </trkpt>
      <trkpt lat="40.424900" lon="-5.299483">
        <ele>1958.0</ele>
        <time>2013-05-11T12:06:15Z</time>
      </trkpt>
      <trkpt lat="40.424950" lon="-5.299467">
        <ele>1958.0</ele>
        <time>2013-05-11T12:06:16Z</time>
      </trkpt>
      <trkpt lat="40.424983" lon="-5.299433">
        <ele>1958.0</ele>
        <time>2013-05-11T12:06:17Z</time>
      </trkpt>
      <trkpt lat="40.425017" lon="-5.299400">
        <ele>1957.0</ele>
        <time>2013-05-11T12:06:18Z</time>
      </trkpt>
      <trkpt lat="40.425067" lon="-5.299350">
        <ele>1955.0</ele>
        <time>2013-05-11T12:06:19Z</time>
      </trkpt>
      <trkpt lat="40.425117" lon="-5.299333">
        <ele>1954.0</ele>
        <time>2013-05-11T12:06:20Z</time>
      </trkpt>
      <trkpt lat="40.425167" lon="-5.299300">
        <ele>1953.0</ele>
        <time>2013-05-11T12:06:21Z</time>
      </trkpt>
      <trkpt lat="40.425233" lon="-5.299283">
        <ele>1952.0</ele>
        <time>2013-05-11T12:06:22Z</time>
      </trkpt>
      <trkpt lat="40.425283" lon="-5.299267">
        <ele>1952.0</ele>
        <time>2013-05-11T12:06:23Z</time>
      </trkpt>
      <trkpt lat="40.425333" lon="-5.299250">
        <ele>1954.0</ele>
        <time>2013-05-11T12:06:24Z</time>
      </trkpt>
      <trkpt lat="40.425367" lon="-5.299217">
        <ele>1955.0</ele>
        <time>2013-05-11T12:06:25Z</time>
      </trkpt>
      <trkpt lat="40.425400" lon="-5.299217">
        <ele>1956.0</ele>
        <time>2013-05-11T12:06:26Z</time>
      </trkpt>
      <trkpt lat="40.425433" lon="-5.299200">
        <ele>1955.0</ele>
        <time>2013-05-11T12:06:27Z</time>
      </trkpt>
      <trkpt lat="40.425483" lon="-5.299217">
        <ele>1954.0</ele>
        <time>2013-05-11T12:06:28Z</time>
      </trkpt>
      <trkpt lat="40.425550" lon="-5.299200">
        <ele>1954.0</ele>
        <time>2013-05-11T12:06:29Z</time>
      </trkpt>
      <trkpt lat="40.425617" lon="-5.299200">
        <ele>1955.0</ele>
        <time>2013-05-11T12:06:30Z</time>
      </trkpt>
      <trkpt lat="40.425667" lon="-5.299183">
        <ele>1957.0</ele>
        <time>2013-05-11T12:06:31Z</time>
      </trkpt>
      <trkpt lat="40.425733" lon="-5.299167">
        <ele>1959.0</ele>
        <time>2013-05-11T12:06:32Z</time>
      </trkpt>
      <trkpt lat="40.425783" lon="-5.299150">
        <ele>1960.0</ele>
        <time>2013-05-11T12:06:33Z</time>
      </trkpt>
      <trkpt lat="40.425850" lon="-5.299150">
        <ele>1962.0</ele>
        <time>2013-05-11T12:06:34Z</time>
      </trkpt>
      <trkpt lat="40.425933" lon="-5.299150">
        <ele>1963.0</ele>
        <time>2013-05-11T12:06:35Z</time>
      </trkpt>
      <trkpt lat="40.425983" lon="-5.299183">
        <ele>1965.0</ele>
        <time>2013-05-11T12:06:36Z</time>
      </trkpt>
      <trkpt lat="40.426017" lon="-5.299217">
        <ele>1966.0</ele>
        <time>2013-05-11T12:06:37Z</time>
      </trkpt>
      <trkpt lat="40.426033" lon="-5.299267">
        <ele>1967.0</ele>
        <time>2013-05-11T12:06:38Z</time>
      </trkpt>
      <trkpt lat="40.426033" lon="-5.299333">
        <ele>1967.0</ele>
        <time>2013-05-11T12:06:39Z</time>
      </trkpt>
      <trkpt lat="40.426033" lon="-5.299400">
        <ele>1967.0</ele>
        <time>2013-05-11T12:06:40Z</time>
      </trkpt>
      <trkpt lat="40.426050" lon="-5.299467">
        <ele>1967.0</ele>
        <time>2013-05-11T12:06:41Z</time>
      </trkpt>
      <trkpt lat="40.426067" lon="-5.299517">
        <ele>1966.0</ele>
        <time>2013-05-11T12:06:42Z</time>
      </trkpt>
      <trkpt lat="40.426100" lon="-5.299567">
        <ele>1964.0</ele>
        <time>2013-05-11T12:06:43Z</time>
      </trkpt>
      <trkpt lat="40.426167" lon="-5.299633">
        <ele>1962.0</ele>
        <time>2013-05-11T12:06:44Z</time>
      </trkpt>
      <trkpt lat="40.426250" lon="-5.299667">
        <ele>1961.0</ele>
        <time>2013-05-11T12:06:45Z</time>
      </trkpt>
      <trkpt lat="40.426333" lon="-5.299683">
        <ele>1964.0</ele>
        <time>2013-05-11T12:06:46Z</time>
      </trkpt>
      <trkpt lat="40.426383" lon="-5.299700">
        <ele>1968.0</ele>
        <time>2013-05-11T12:06:47Z</time>
      </trkpt>
      <trkpt lat="40.426433" lon="-5.299717">
        <ele>1970.0</ele>
        <time>2013-05-11T12:06:48Z</time>
      </trkpt>
      <trkpt lat="40.426467" lon="-5.299733">
        <ele>1971.0</ele>
        <time>2013-05-11T12:06:49Z</time>
      </trkpt>
      <trkpt lat="40.426500" lon="-5.299767">
        <ele>1970.0</ele>
        <time>2013-05-11T12:06:50Z</time>
      </trkpt>
      <trkpt lat="40.426567" lon="-5.299800">
        <ele>1969.0</ele>
        <time>2013-05-11T12:06:51Z</time>
      </trkpt>
      <trkpt lat="40.426650" lon="-5.299833">
        <ele>1969.0</ele>
        <time>2013-05-11T12:06:52Z</time>
      </trkpt>
      <trkpt lat="40.426733" lon="-5.299850">
        <ele>1970.0</ele>
        <time>2013-05-11T12:06:53Z</time>
      </trkpt>
      <trkpt lat="40.426800" lon="-5.299867">
        <ele>1972.0</ele>
        <time>2013-05-11T12:06:54Z</time>
      </trkpt>
      <trkpt lat="40.426850" lon="-5.299850">
        <ele>1975.0</ele>
        <time>2013-05-11T12:06:55Z</time>
      </trkpt>
      <trkpt lat="40.426917" lon="-5.299817">
        <ele>1976.0</ele>
        <time>2013-05-11T12:06:56Z</time>
      </trkpt>
      <trkpt lat="40.426967" lon="-5.299783">
        <ele>1976.0</ele>
        <time>2013-05-11T12:06:57Z</time>
      </trkpt>
      <trkpt lat="40.427050" lon="-5.299733">
        <ele>1976.0</ele>
        <time>2013-05-11T12:06:58Z</time>
      </trkpt>
      <trkpt lat="40.427133" lon="-5.299683">
        <ele>1977.0</ele>
        <time>2013-05-11T12:06:59Z</time>
      </trkpt>
      <trkpt lat="40.427217" lon="-5.299600">
        <ele>1979.0</ele>
        <time>2013-05-11T12:07:00Z</time>
      </trkpt>
      <trkpt lat="40.427283" lon="-5.299500">
        <ele>1983.0</ele>
        <time>2013-05-11T12:07:01Z</time>
      </trkpt>
      <trkpt lat="40.427333" lon="-5.299417">
        <ele>1988.0</ele>
        <time>2013-05-11T12:07:02Z</time>
      </trkpt>
      <trkpt lat="40.427367" lon="-5.299333">
        <ele>1993.0</ele>
        <time>2013-05-11T12:07:03Z</time>
      </trkpt>
      <trkpt lat="40.427400" lon="-5.299267">
        <ele>1997.0</ele>
        <time>2013-05-11T12:07:04Z</time>
      </trkpt>
      <trkpt lat="40.427450" lon="-5.299217">
        <ele>1999.0</ele>
        <time>2013-05-11T12:07:05Z</time>
      </trkpt>
      <trkpt lat="40.427500" lon="-5.299183">
        <ele>2001.0</ele>
        <time>2013-05-11T12:07:06Z</time>
      </trkpt>
      <trkpt lat="40.427550" lon="-5.299167">
        <ele>2004.0</ele>
        <time>2013-05-11T12:07:07Z</time>
      </trkpt>
      <trkpt lat="40.427600" lon="-5.299183">
        <ele>2007.0</ele>
        <time>2013-05-11T12:07:08Z</time>
      </trkpt>
      <trkpt lat="40.427633" lon="-5.299233">
        <ele>2009.0</ele>
        <time>2013-05-11T12:07:09Z</time>
      </trkpt>
      <trkpt lat="40.427633" lon="-5.299333">
        <ele>2010.0</ele>
        <time>2013-05-11T12:07:10Z</time>
      </trkpt>
      <trkpt lat="40.427617" lon="-5.299433">
        <ele>2011.0</ele>
        <time>2013-05-11T12:07:11Z</time>
      </trkpt>
      <trkpt lat="40.427583" lon="-5.299533">
        <ele>2014.0</ele>
        <time>2013-05-11T12:07:12Z</time>
      </trkpt>
      <trkpt lat="40.427533" lon="-5.299617">
        <ele>2017.0</ele>
        <time>2013-05-11T12:07:13Z</time>
      </trkpt>
      <trkpt lat="40.427483" lon="-5.299667">
        <ele>2020.0</ele>
        <time>2013-05-11T12:07:14Z</time>
      </trkpt>
      <trkpt lat="40.427417" lon="-5.299717">
        <ele>2022.0</ele>
        <time>2013-05-11T12:07:15Z</time>
      </trkpt>
      <trkpt lat="40.427333" lon="-5.299767">
        <ele>2023.0</ele>
        <time>2013-05-11T12:07:16Z</time>
      </trkpt>
      <trkpt lat="40.427233" lon="-5.299817">
        <ele>2024.0</ele>
        <time>2013-05-11T12:07:17Z</time>
      </trkpt>
      <trkpt lat="40.427133" lon="-5.299833">
        <ele>2025.0</ele>
        <time>2013-05-11T12:07:18Z</time>
      </trkpt>
      <trkpt lat="40.427033" lon="-5.299817">
        <ele>2025.0</ele>
        <time>2013-05-11T12:07:19Z</time>
      </trkpt>
      <trkpt lat="40.426933" lon="-5.299733">
        <ele>2026.0</ele>
        <time>2013-05-11T12:07:20Z</time>
      </trkpt>
      <trkpt lat="40.426850" lon="-5.299633">
        <ele>2027.0</ele>
        <time>2013-05-11T12:07:21Z</time>
      </trkpt>
      <trkpt lat="40.426767" lon="-5.299533">
        <ele>2030.0</ele>
        <time>2013-05-11T12:07:22Z</time>
      </trkpt>
      <trkpt lat="40.426700" lon="-5.299433">
        <ele>2033.0</ele>
        <time>2013-05-11T12:07:23Z</time>
      </trkpt>
      <trkpt lat="40.426667" lon="-5.299333">
        <ele>2036.0</ele>
        <time>2013-05-11T12:07:24Z</time>
      </trkpt>
      <trkpt lat="40.426633" lon="-5.299233">
        <ele>2038.0</ele>
        <time>2013-05-11T12:07:25Z</time>
      </trkpt>
      <trkpt lat="40.426617" lon="-5.299117">
        <ele>2039.0</ele>
        <time>2013-05-11T12:07:26Z</time>
      </trkpt>
      <trkpt lat="40.426633" lon="-5.299000">
        <ele>2041.0</ele>
        <time>2013-05-11T12:07:27Z</time>
      </trkpt>
      <trkpt lat="40.426667" lon="-5.298883">
        <ele>2041.0</ele>
        <time>2013-05-11T12:07:28Z</time>
      </trkpt>
      <trkpt lat="40.426733" lon="-5.298783">
        <ele>2043.0</ele>
        <time>2013-05-11T12:07:29Z</time>
      </trkpt>
      <trkpt lat="40.426817" lon="-5.298700">
        <ele>2046.0</ele>
        <time>2013-05-11T12:07:30Z</time>
      </trkpt>
      <trkpt lat="40.426883" lon="-5.298650">
        <ele>2051.0</ele>
        <time>2013-05-11T12:07:31Z</time>
      </trkpt>
      <trkpt lat="40.426917" lon="-5.298617">
        <ele>2056.0</ele>
        <time>2013-05-11T12:07:32Z</time>
      </trkpt>
      <trkpt lat="40.426933" lon="-5.298567">
        <ele>2059.0</ele>
        <time>2013-05-11T12:07:33Z</time>
      </trkpt>
      <trkpt lat="40.426967" lon="-5.298517">
        <ele>2060.0</ele>
        <time>2013-05-11T12:07:34Z</time>
      </trkpt>
      <trkpt lat="40.427000" lon="-5.298450">
        <ele>2060.0</ele>
        <time>2013-05-11T12:07:35Z</time>
      </trkpt>
      <trkpt lat="40.427067" lon="-5.298400">
        <ele>2060.0</ele>
        <time>2013-05-11T12:07:36Z</time>
      </trkpt>
      <trkpt lat="40.427133" lon="-5.298383">
        <ele>2060.0</ele>
        <time>2013-05-11T12:07:37Z</time>
      </trkpt>
      <trkpt lat="40.427200" lon="-5.298417">
        <ele>2061.0</ele>
        <time>2013-05-11T12:07:38Z</time>
      </trkpt>
      <trkpt lat="40.427250" lon="-5.298467">
        <ele>2062.0</ele>
        <time>2013-05-11T12:07:39Z</time>
      </trkpt>
      <trkpt lat="40.427283" lon="-5.298533">
        <ele>2062.0</ele>
        <time>2013-05-11T12:07:40Z</time>
      </trkpt>
      <trkpt lat="40.427300" lon="-5.298600">
        <ele>2062.0</ele>
        <time>2013-05-11T12:07:41Z</time>
      </trkpt>
      <trkpt lat="40.427317" lon="-5.298683">
        <ele>2061.0</ele>
        <time>2013-05-11T12:07:42Z</time>
      </trkpt>
      <trkpt lat="40.427283" lon="-5.298800">
        <ele>2059.0</ele>
        <time>2013-05-11T12:07:43Z</time>
      </trkpt>
      <trkpt lat="40.427233" lon="-5.298900">
        <ele>2058.0</ele>
        <time>2013-05-11T12:07:44Z</time>
      </trkpt>
      <trkpt lat="40.427150" lon="-5.298983">
        <ele>2058.0</ele>
        <time>2013-05-11T12:07:45Z</time>
      </trkpt>
      <trkpt lat="40.427067" lon="-5.299050">
        <ele>2059.0</ele>
        <time>2013-05-11T12:07:46Z</time>
      </trkpt>
      <trkpt lat="40.426983" lon="-5.299117">
        <ele>2061.0</ele>
        <time>2013-05-11T12:07:47Z</time>
      </trkpt>
      <trkpt lat="40.426900" lon="-5.299183">
        <ele>2062.0</ele>
        <time>2013-05-11T12:07:48Z</time>
      </trkpt>
      <trkpt lat="40.426817" lon="-5.299233">
        <ele>2063.0</ele>
        <time>2013-05-11T12:07:49Z</time>
      </trkpt>
      <trkpt lat="40.426717" lon="-5.299283">
        <ele>2065.0</ele>
        <time>2013-05-11T12:07:50Z</time>
      </trkpt>
      <trkpt lat="40.426617" lon="-5.299317">
        <ele>2067.0</ele>
        <time>2013-05-11T12:07:51Z</time>
      </trkpt>
      <trkpt lat="40.426500" lon="-5.299350">
        <ele>2069.0</ele>
        <time>2013-05-11T12:07:52Z</time>
      </trkpt>
      <trkpt lat="40.426400" lon="-5.299383">
        <ele>2073.0</ele>
        <time>2013-05-11T12:07:53Z</time>
      </trkpt>
      <trkpt lat="40.426300" lon="-5.299383">
        <ele>2076.0</ele>
        <time>2013-05-11T12:07:54Z</time>
      </trkpt>
      <trkpt lat="40.426200" lon="-5.299400">
        <ele>2078.0</ele>
        <time>2013-05-11T12:07:55Z</time>
      </trkpt>
      <trkpt lat="40.426100" lon="-5.299383">
        <ele>2079.0</ele>
        <time>2013-05-11T12:07:56Z</time>
      </trkpt>
      <trkpt lat="40.425983" lon="-5.299350">
        <ele>2080.0</ele>
        <time>2013-05-11T12:07:57Z</time>
      </trkpt>
      <trkpt lat="40.425850" lon="-5.299283">
        <ele>2080.0</ele>
        <time>2013-05-11T12:07:58Z</time>
      </trkpt>
      <trkpt lat="40.425750" lon="-5.299167">
        <ele>2083.0</ele>
        <time>2013-05-11T12:07:59Z</time>
      </trkpt>
      <trkpt lat="40.425667" lon="-5.299050">
        <ele>2086.0</ele>
        <time>2013-05-11T12:08:00Z</time>
      </trkpt>
      <trkpt lat="40.425600" lon="-5.298917">
        <ele>2089.0</ele>
        <time>2013-05-11T12:08:01Z</time>
      </trkpt>
      <trkpt lat="40.425567" lon="-5.298783">
        <ele>2091.0</ele>
        <time>2013-05-11T12:08:02Z</time>
      </trkpt>
      <trkpt lat="40.425550" lon="-5.298650">
        <ele>2091.0</ele>
        <time>2013-05-11T12:08:03Z</time>
      </trkpt>
      <trkpt lat="40.425550" lon="-5.298533">
        <ele>2091.0</ele>
        <time>2013-05-11T12:08:04Z</time>
      </trkpt>
      <trkpt lat="40.425583" lon="-5.298400">
        <ele>2091.0</ele>
        <time>2013-05-11T12:08:05Z</time>
      </trkpt>
      <trkpt lat="40.425617" lon="-5.298317">
        <ele>2091.0</ele>
        <time>2013-05-11T12:08:06Z</time>
      </trkpt>
      <trkpt lat="40.425683" lon="-5.298267">
        <ele>2092.0</ele>
        <time>2013-05-11T12:08:07Z</time>
      </trkpt>
      <trkpt lat="40.425750" lon="-5.298267">
        <ele>2093.0</ele>
        <time>2013-05-11T12:08:08Z</time>
      </trkpt>
      <trkpt lat="40.425800" lon="-5.298283">
        <ele>2096.0</ele>
        <time>2013-05-11T12:08:09Z</time>
      </trkpt>
      <trkpt lat="40.425850" lon="-5.298283">
        <ele>2098.0</ele>
        <time>2013-05-11T12:08:10Z</time>
      </trkpt>
      <trkpt lat="40.425883" lon="-5.298283">
        <ele>2100.0</ele>
        <time>2013-05-11T12:08:11Z</time>
      </trkpt>
      <trkpt lat="40.425917" lon="-5.298283">
        <ele>2101.0</ele>
        <time>2013-05-11T12:08:12Z</time>
      </trkpt>
      <trkpt lat="40.425967" lon="-5.298300">
        <ele>2102.0</ele>
        <time>2013-05-11T12:08:13Z</time>
      </trkpt>
      <trkpt lat="40.426017" lon="-5.298317">
        <ele>2102.0</ele>
        <time>2013-05-11T12:08:14Z</time>
      </trkpt>
      <trkpt lat="40.426050" lon="-5.298350">
        <ele>2103.0</ele>
        <time>2013-05-11T12:08:15Z</time>
      </trkpt>
      <trkpt lat="40.426100" lon="-5.298383">
        <ele>2104.0</ele>
        <time>2013-05-11T12:08:16Z</time>
      </trkpt>
      <trkpt lat="40.426133" lon="-5.298417">
        <ele>2106.0</ele>
        <time>2013-05-11T12:08:17Z</time>
      </trkpt>
      <trkpt lat="40.426183" lon="-5.298450">
        <ele>2107.0</ele>
        <time>2013-05-11T12:08:18Z</time>
      </trkpt>
      <trkpt lat="40.426233" lon="-5.298467">
        <ele>2107.0</ele>
        <time>2013-05-11T12:08:19Z</time>
      </trkpt>
      <trkpt lat="40.426267" lon="-5.298517">
        <ele>2108.0</ele>
        <time>2013-05-11T12:08:20Z</time>
      </trkpt>
      <trkpt lat="40.426317" lon="-5.298550">
        <ele>2109.0</ele>
        <time>2013-05-11T12:08:21Z</time>
      </trkpt>
      <trkpt lat="40.426350" lon="-5.298583">
        <ele>2111.0</ele>
        <time>2013-05-11T12:08:22Z</time>
      </trkpt>
      <trkpt lat="40.426400" lon="-5.298617">
        <ele>2112.0</ele>
        <time>2013-05-11T12:08:23Z</time>
      </trkpt>
      <trkpt lat="40.426450" lon="-5.298633">
        <ele>2112.0</ele>
        <time>2013-05-11T12:08:24Z</time>
      </trkpt>
      <trkpt lat="40.426500" lon="-5.298650">
        <ele>2113.0</ele>
        <time>2013-05-11T12:08:25Z</time>
      </trkpt>
      <trkpt lat="40.426550" lon="-5.298650">
        <ele>2114.0</ele>
        <time>2013-05-11T12:08:26Z</time>
      </trkpt>
      <trkpt lat="40.426583" lon="-5.298683">
        <ele>2115.0</ele>
        <time>2013-05-11T12:08:27Z</time>
      </trkpt>
      <trkpt lat="40.426600" lon="-5.298717">
        <ele>2115.0</ele>
        <time>2013-05-11T12:08:28Z</time>
      </trkpt>
      <trkpt lat="40.426633" lon="-5.298767">
        <ele>2115.0</ele>
        <time>2013-05-11T12:08:29Z</time>
      </trkpt>
      <trkpt lat="40.426650" lon="-5.298817">
        <ele>2114.0</ele>
        <time>2013-05-11T12:08:30Z</time>
      </trkpt>
      <trkpt lat="40.426683" lon="-5.298883">
        <ele>2114.0</ele>
        <time>2013-05-11T12:08:31Z</time>
      </trkpt>
      <trkpt lat="40.426700" lon="-5.298950">
        <ele>2114.0</ele>
        <time>2013-05-11T12:08:32Z</time>
      </trkpt>
      <trkpt lat="40.426733" lon="-5.299017">
        <ele>2115.0</ele>
        <time>2013-05-11T12:08:33Z</time>
      </trkpt>
      <trkpt lat="40.426767" lon="-5.299067">
        <ele>2116.0</ele>
        <time>2013-05-11T12:08:34Z</time>
      </trkpt>
      <trkpt lat="40.426800" lon="-5.299117">
        <ele>2116.0</ele>
        <time>2013-05-11T12:08:35Z</time>
      </trkpt>
      <trkpt lat="40.426867" lon="-5.299150">
        <ele>2117.0</ele>
        <time>2013-05-11T12:08:36Z</time>
      </trkpt>
      <trkpt lat="40.426917" lon="-5.299183">
        <ele>2118.0</ele>
        <time>2013-05-11T12:08:37Z</time>
      </trkpt>
      <trkpt lat="40.426983" lon="-5.299217">
        <ele>2120.0</ele>
        <time>2013-05-11T12:08:38Z</time>
      </trkpt>
      <trkpt lat="40.427033" lon="-5.299250">
        <ele>2120.0</ele>
        <time>2013-05-11T12:08:39Z</time>
      </trkpt>
      <trkpt lat="40.427083" lon="-5.299283">
        <ele>2120.0</ele>
        <time>2013-05-11T12:08:40Z</time>
      </trkpt>
      <trkpt lat="40.427150" lon="-5.299317">
        <ele>2119.0</ele>
        <time>2013-05-11T12:08:41Z</time>
      </trkpt>
      <trkpt lat="40.427200" lon="-5.299300">
        <ele>2119.0</ele>
        <time>2013-05-11T12:08:42Z</time>
      </trkpt>
      <trkpt lat="40.427267" lon="-5.299300">
        <ele>2119.0</ele>
        <time>2013-05-11T12:08:43Z</time>
      </trkpt>
      <trkpt lat="40.427333" lon="-5.299283">
        <ele>2119.0</ele>
        <time>2013-05-11T12:08:44Z</time>
      </trkpt>
      <trkpt lat="40.427383" lon="-5.299283">
        <ele>2118.0</ele>
        <time>2013-05-11T12:08:45Z</time>
      </trkpt>
      <trkpt lat="40.427433" lon="-5.299267">
        <ele>2117.0</ele>
        <time>2013-05-11T12:08:46Z</time>
      </trkpt>
      <trkpt lat="40.427500" lon="-5.299250">
        <ele>2115.0</ele>
        <time>2013-05-11T12:08:47Z</time>
      </trkpt>
      <trkpt lat="40.427550" lon="-5.299217">
        <ele>2113.0</ele>
        <time>2013-05-11T12:08:48Z</time>
      </trkpt>
      <trkpt lat="40.427617" lon="-5.299167">
        <ele>2111.0</ele>
        <time>2013-05-11T12:08:49Z</time>
      </trkpt>
      <trkpt lat="40.427683" lon="-5.299117">
        <ele>2110.0</ele>
        <time>2013-05-11T12:08:50Z</time>
      </trkpt>
      <trkpt lat="40.427733" lon="-5.299083">
        <ele>2108.0</ele>
        <time>2013-05-11T12:08:51Z</time>
      </trkpt>
      <trkpt lat="40.427783" lon="-5.299033">
        <ele>2106.0</ele>
        <time>2013-05-11T12:08:52Z</time>
      </trkpt>
      <trkpt lat="40.427850" lon="-5.298967">
        <ele>2104.0</ele>
        <time>2013-05-11T12:08:53Z</time>
      </trkpt>
      <trkpt lat="40.427917" lon="-5.298900">
        <ele>2102.0</ele>
        <time>2013-05-11T12:08:54Z</time>
      </trkpt>
      <trkpt lat="40.427967" lon="-5.298817">
        <ele>2099.0</ele>
        <time>2013-05-11T12:08:55Z</time>
      </trkpt>
      <trkpt lat="40.428033" lon="-5.298733">
        <ele>2097.0</ele>
        <time>2013-05-11T12:08:56Z</time>
      </trkpt>
      <trkpt lat="40.428100" lon="-5.298650">
        <ele>2095.0</ele>
        <time>2013-05-11T12:08:57Z</time>
      </trkpt>
      <trkpt lat="40.428150" lon="-5.298583">
        <ele>2093.0</ele>
        <time>2013-05-11T12:08:58Z</time>
      </trkpt>
      <trkpt lat="40.428217" lon="-5.298517">
        <ele>2091.0</ele>
        <time>2013-05-11T12:08:59Z</time>
      </trkpt>
      <trkpt lat="40.428283" lon="-5.298450">
        <ele>2089.0</ele>
        <time>2013-05-11T12:09:00Z</time>
      </trkpt>
      <trkpt lat="40.428350" lon="-5.298383">
        <ele>2087.0</ele>
        <time>2013-05-11T12:09:01Z</time>
      </trkpt>
      <trkpt lat="40.428400" lon="-5.298300">
        <ele>2085.0</ele>
        <time>2013-05-11T12:09:02Z</time>
      </trkpt>
      <trkpt lat="40.428467" lon="-5.298250">
        <ele>2084.0</ele>
        <time>2013-05-11T12:09:03Z</time>
      </trkpt>
      <trkpt lat="40.428533" lon="-5.298183">
        <ele>2083.0</ele>
        <time>2013-05-11T12:09:04Z</time>
      </trkpt>
      <trkpt lat="40.428600" lon="-5.298117">
        <ele>2082.0</ele>
        <time>2013-05-11T12:09:05Z</time>
      </trkpt>
      <trkpt lat="40.428650" lon="-5.298067">
        <ele>2082.0</ele>
        <time>2013-05-11T12:09:06Z</time>
      </trkpt>
      <trkpt lat="40.428700" lon="-5.298000">
        <ele>2081.0</ele>
        <time>2013-05-11T12:09:07Z</time>
      </trkpt>
      <trkpt lat="40.428750" lon="-5.297950">
        <ele>2079.0</ele>
        <time>2013-05-11T12:09:08Z</time>
      </trkpt>
      <trkpt lat="40.428800" lon="-5.297900">
        <ele>2077.0</ele>
        <time>2013-05-11T12:09:09Z</time>
      </trkpt>
      <trkpt lat="40.428850" lon="-5.297833">
        <ele>2075.0</ele>
        <time>2013-05-11T12:09:10Z</time>
      </trkpt>
      <trkpt lat="40.428900" lon="-5.297767">
        <ele>2074.0</ele>
        <time>2013-05-11T12:09:11Z</time>
      </trkpt>
      <trkpt lat="40.428950" lon="-5.297700">
        <ele>2072.0</ele>
        <time>2013-05-11T12:09:12Z</time>
      </trkpt>
      <trkpt lat="40.429000" lon="-5.297650">
        <ele>2071.0</ele>
        <time>2013-05-11T12:09:13Z</time>
      </trkpt>
      <trkpt lat="40.429050" lon="-5.297583">
        <ele>2069.0</ele>
        <time>2013-05-11T12:09:14Z</time>
      </trkpt>
      <trkpt lat="40.429117" lon="-5.297533">
        <ele>2067.0</ele>
        <time>2013-05-11T12:09:15Z</time>
      </trkpt>
      <trkpt lat="40.429183" lon="-5.297467">
        <ele>2066.0</ele>
        <time>2013-05-11T12:09:16Z</time>
      </trkpt>
      <trkpt lat="40.429233" lon="-5.297400">
        <ele>2065.0</ele>
        <time>2013-05-11T12:09:17Z</time>
      </trkpt>
      <trkpt lat="40.429300" lon="-5.297350">
        <ele>2065.0</ele>
        <time>2013-05-11T12:09:18Z</time>
      </trkpt>
      <trkpt lat="40.429350" lon="-5.297300">
        <ele>2064.0</ele>
        <time>2013-05-11T12:09:19Z</time>
      </trkpt>
      <trkpt lat="40.429400" lon="-5.297250">
        <ele>2062.0</ele>
        <time>2013-05-11T12:09:20Z</time>
      </trkpt>
      <trkpt lat="40.429450" lon="-5.297167">
        <ele>2061.0</ele>
        <time>2013-05-11T12:09:21Z</time>
      </trkpt>
      <trkpt lat="40.429517" lon="-5.297083">
        <ele>2059.0</ele>
        <time>2013-05-11T12:09:22Z</time>
      </trkpt>
      <trkpt lat="40.429567" lon="-5.297000">
        <ele>2059.0</ele>
        <time>2013-05-11T12:09:23Z</time>
      </trkpt>
      <trkpt lat="40.429617" lon="-5.296900">
        <ele>2059.0</ele>
        <time>2013-05-11T12:09:24Z</time>
      </trkpt>
      <trkpt lat="40.429667" lon="-5.296817">
        <ele>2060.0</ele>
        <time>2013-05-11T12:09:25Z</time>
      </trkpt>
      <trkpt lat="40.429717" lon="-5.296733">
        <ele>2060.0</ele>
        <time>2013-05-11T12:09:26Z</time>
      </trkpt>
      <trkpt lat="40.429783" lon="-5.296633">
        <ele>2059.0</ele>
        <time>2013-05-11T12:09:27Z</time>
      </trkpt>
      <trkpt lat="40.429867" lon="-5.296550">
        <ele>2060.0</ele>
        <time>2013-05-11T12:09:28Z</time>
      </trkpt>
      <trkpt lat="40.429933" lon="-5.296450">
        <ele>2060.0</ele>
        <time>2013-05-11T12:09:29Z</time>
      </trkpt>
      <trkpt lat="40.429967" lon="-5.296367">
        <ele>2061.0</ele>
        <time>2013-05-11T12:09:30Z</time>
      </trkpt>
      <trkpt lat="40.430000" lon="-5.296283">
        <ele>2061.0</ele>
        <time>2013-05-11T12:09:31Z</time>
      </trkpt>
      <trkpt lat="40.430050" lon="-5.296183">
        <ele>2061.0</ele>
        <time>2013-05-11T12:09:32Z</time>
      </trkpt>
      <trkpt lat="40.430100" lon="-5.296067">
        <ele>2059.0</ele>
        <time>2013-05-11T12:09:33Z</time>
      </trkpt>
      <trkpt lat="40.430150" lon="-5.295950">
        <ele>2057.0</ele>
        <time>2013-05-11T12:09:34Z</time>
      </trkpt>
      <trkpt lat="40.430217" lon="-5.295817">
        <ele>2057.0</ele>
        <time>2013-05-11T12:09:35Z</time>
      </trkpt>
      <trkpt lat="40.430267" lon="-5.295717">
        <ele>2056.0</ele>
        <time>2013-05-11T12:09:36Z</time>
      </trkpt>
      <trkpt lat="40.430333" lon="-5.295633">
        <ele>2056.0</ele>
        <time>2013-05-11T12:09:37Z</time>
      </trkpt>
      <trkpt lat="40.430383" lon="-5.295550">
        <ele>2053.0</ele>
        <time>2013-05-11T12:09:38Z</time>
      </trkpt>
      <trkpt lat="40.430450" lon="-5.295467">
        <ele>2051.0</ele>
        <time>2013-05-11T12:09:39Z</time>
      </trkpt>
      <trkpt lat="40.430517" lon="-5.295383">
        <ele>2049.0</ele>
        <time>2013-05-11T12:09:40Z</time>
      </trkpt>
      <trkpt lat="40.430583" lon="-5.295333">
        <ele>2049.0</ele>
        <time>2013-05-11T12:09:41Z</time>
      </trkpt>
      <trkpt lat="40.430650" lon="-5.295283">
        <ele>2049.0</ele>
        <time>2013-05-11T12:09:42Z</time>
      </trkpt>
      <trkpt lat="40.430683" lon="-5.295233">
        <ele>2048.0</ele>
        <time>2013-05-11T12:09:43Z</time>
      </trkpt>
      <trkpt lat="40.430733" lon="-5.295167">
        <ele>2046.0</ele>
        <time>2013-05-11T12:09:44Z</time>
      </trkpt>
      <trkpt lat="40.430783" lon="-5.295100">
        <ele>2043.0</ele>
        <time>2013-05-11T12:09:45Z</time>
      </trkpt>
      <trkpt lat="40.430833" lon="-5.295017">
        <ele>2039.0</ele>
        <time>2013-05-11T12:09:46Z</time>
      </trkpt>
      <trkpt lat="40.430900" lon="-5.294967">
        <ele>2037.0</ele>
        <time>2013-05-11T12:09:47Z</time>
      </trkpt>
      <trkpt lat="40.430983" lon="-5.294917">
        <ele>2036.0</ele>
        <time>2013-05-11T12:09:48Z</time>
      </trkpt>
      <trkpt lat="40.431033" lon="-5.294867">
        <ele>2036.0</ele>
        <time>2013-05-11T12:09:49Z</time>
      </trkpt>
      <trkpt lat="40.431083" lon="-5.294833">
        <ele>2035.0</ele>
        <time>2013-05-11T12:09:50Z</time>
      </trkpt>
      <trkpt lat="40.431133" lon="-5.294767">
        <ele>2034.0</ele>
        <time>2013-05-11T12:09:51Z</time>
      </trkpt>
      <trkpt lat="40.431183" lon="-5.294717">
        <ele>2032.0</ele>
        <time>2013-05-11T12:09:52Z</time>
      </trkpt>
      <trkpt lat="40.431233" lon="-5.294633">
        <ele>2030.0</ele>
        <time>2013-05-11T12:09:53Z</time>
      </trkpt>
      <trkpt lat="40.431300" lon="-5.294583">
        <ele>2030.0</ele>
        <time>2013-05-11T12:09:54Z</time>
      </trkpt>
      <trkpt lat="40.431367" lon="-5.294517">
        <ele>2030.0</ele>
        <time>2013-05-11T12:09:55Z</time>
      </trkpt>
      <trkpt lat="40.431417" lon="-5.294467">
        <ele>2030.0</ele>
        <time>2013-05-11T12:09:56Z</time>
      </trkpt>
      <trkpt lat="40.431467" lon="-5.294400">
        <ele>2029.0</ele>
        <time>2013-05-11T12:09:57Z</time>
      </trkpt>
      <trkpt lat="40.431517" lon="-5.294333">
        <ele>2027.0</ele>
        <time>2013-05-11T12:09:58Z</time>
      </trkpt>
      <trkpt lat="40.431567" lon="-5.294267">
        <ele>2025.0</ele>
        <time>2013-05-11T12:09:59Z</time>
      </trkpt>
      <trkpt lat="40.431617" lon="-5.294183">
        <ele>2023.0</ele>
        <time>2013-05-11T12:10:00Z</time>
      </trkpt>
      <trkpt lat="40.431683" lon="-5.294117">
        <ele>2021.0</ele>
        <time>2013-05-11T12:10:01Z</time>
      </trkpt>
      <trkpt lat="40.431733" lon="-5.294067">
        <ele>2019.0</ele>
        <time>2013-05-11T12:10:02Z</time>
      </trkpt>
      <trkpt lat="40.431800" lon="-5.294000">
        <ele>2018.0</ele>
        <time>2013-05-11T12:10:03Z</time>
      </trkpt>
      <trkpt lat="40.431850" lon="-5.293950">
        <ele>2016.0</ele>
        <time>2013-05-11T12:10:04Z</time>
      </trkpt>
      <trkpt lat="40.431917" lon="-5.293900">
        <ele>2014.0</ele>
        <time>2013-05-11T12:10:05Z</time>
      </trkpt>
      <trkpt lat="40.431983" lon="-5.293817">
        <ele>2012.0</ele>
        <time>2013-05-11T12:10:06Z</time>
      </trkpt>
      <trkpt lat="40.432067" lon="-5.293750">
        <ele>2009.0</ele>
        <time>2013-05-11T12:10:07Z</time>
      </trkpt>
      <trkpt lat="40.432150" lon="-5.293667">
        <ele>2008.0</ele>
        <time>2013-05-11T12:10:08Z</time>
      </trkpt>
      <trkpt lat="40.432233" lon="-5.293600">
        <ele>2008.0</ele>
        <time>2013-05-11T12:10:09Z</time>
      </trkpt>
      <trkpt lat="40.432317" lon="-5.293533">
        <ele>2008.0</ele>
        <time>2013-05-11T12:10:10Z</time>
      </trkpt>
      <trkpt lat="40.432367" lon="-5.293467">
        <ele>2008.0</ele>
        <time>2013-05-11T12:10:11Z</time>
      </trkpt>
      <trkpt lat="40.432433" lon="-5.293383">
        <ele>2008.0</ele>
        <time>2013-05-11T12:10:12Z</time>
      </trkpt>
      <trkpt lat="40.432483" lon="-5.293300">
        <ele>2006.0</ele>
        <time>2013-05-11T12:10:13Z</time>
      </trkpt>
      <trkpt lat="40.432550" lon="-5.293183">
        <ele>2004.0</ele>
        <time>2013-05-11T12:10:14Z</time>
      </trkpt>
      <trkpt lat="40.432633" lon="-5.293083">
        <ele>2002.0</ele>
        <time>2013-05-11T12:10:15Z</time>
      </trkpt>
      <trkpt lat="40.432700" lon="-5.292967">
        <ele>2002.0</ele>
        <time>2013-05-11T12:10:16Z</time>
      </trkpt>
      <trkpt lat="40.432750" lon="-5.292850">
        <ele>2004.0</ele>
        <time>2013-05-11T12:10:17Z</time>
      </trkpt>
      <trkpt lat="40.432800" lon="-5.292750">
        <ele>2004.0</ele>
        <time>2013-05-11T12:10:18Z</time>
      </trkpt>
      <trkpt lat="40.432833" lon="-5.292633">
        <ele>2004.0</ele>
        <time>2013-05-11T12:10:19Z</time>
      </trkpt>
      <trkpt lat="40.432883" lon="-5.292533">
        <ele>2002.0</ele>
        <time>2013-05-11T12:10:20Z</time>
      </trkpt>
      <trkpt lat="40.432950" lon="-5.292417">
        <ele>2001.0</ele>
        <time>2013-05-11T12:10:21Z</time>
      </trkpt>
      <trkpt lat="40.433033" lon="-5.292300">
        <ele>2003.0</ele>
        <time>2013-05-11T12:10:22Z</time>
      </trkpt>
      <trkpt lat="40.433100" lon="-5.292200">
        <ele>2005.0</ele>
        <time>2013-05-11T12:10:23Z</time>
      </trkpt>
      <trkpt lat="40.433150" lon="-5.292117">
        <ele>2007.0</ele>
        <time>2013-05-11T12:10:24Z</time>
      </trkpt>
      <trkpt lat="40.433200" lon="-5.292050">
        <ele>2008.0</ele>
        <time>2013-05-11T12:10:25Z</time>
      </trkpt>
      <trkpt lat="40.433250" lon="-5.291983">
        <ele>2008.0</ele>
        <time>2013-05-11T12:10:26Z</time>
      </trkpt>
      <trkpt lat="40.433317" lon="-5.291917">
        <ele>2007.0</ele>
        <time>2013-05-11T12:10:27Z</time>
      </trkpt>
      <trkpt lat="40.433367" lon="-5.291833">
        <ele>2007.0</ele>
        <time>2013-05-11T12:10:28Z</time>
      </trkpt>
      <trkpt lat="40.433433" lon="-5.291750">
        <ele>2006.0</ele>
        <time>2013-05-11T12:10:29Z</time>
      </trkpt>
      <trkpt lat="40.433500" lon="-5.291683">
        <ele>2006.0</ele>
        <time>2013-05-11T12:10:30Z</time>
      </trkpt>
      <trkpt lat="40.433567" lon="-5.291617">
        <ele>2006.0</ele>
        <time>2013-05-11T12:10:31Z</time>
      </trkpt>
      <trkpt lat="40.433633" lon="-5.291567">
        <ele>2006.0</ele>
        <time>2013-05-11T12:10:32Z</time>
      </trkpt>
      <trkpt lat="40.433683" lon="-5.291517">
        <ele>2006.0</ele>
        <time>2013-05-11T12:10:33Z</time>
      </trkpt>
      <trkpt lat="40.433750" lon="-5.291483">
        <ele>2004.0</ele>
        <time>2013-05-11T12:10:34Z</time>
      </trkpt>
      <trkpt lat="40.433817" lon="-5.291433">
        <ele>2001.0</ele>
        <time>2013-05-11T12:10:35Z</time>
      </trkpt>
      <trkpt lat="40.433883" lon="-5.291367">
        <ele>1999.0</ele>
        <time>2013-05-11T12:10:36Z</time>
      </trkpt>
      <trkpt lat="40.433917" lon="-5.291283">
        <ele>1996.0</ele>
        <time>2013-05-11T12:10:37Z</time>
      </trkpt>
      <trkpt lat="40.433967" lon="-5.291200">
        <ele>1993.0</ele>
        <time>2013-05-11T12:10:38Z</time>
      </trkpt>
      <trkpt lat="40.434000" lon="-5.291117">
        <ele>1991.0</ele>
        <time>2013-05-11T12:10:39Z</time>
      </trkpt>
      <trkpt lat="40.434050" lon="-5.291050">
        <ele>1987.0</ele>
        <time>2013-05-11T12:10:40Z</time>
      </trkpt>
      <trkpt lat="40.434117" lon="-5.290967">
        <ele>1984.0</ele>
        <time>2013-05-11T12:10:41Z</time>
      </trkpt>
      <trkpt lat="40.434167" lon="-5.290883">
        <ele>1981.0</ele>
        <time>2013-05-11T12:10:42Z</time>
      </trkpt>
      <trkpt lat="40.434233" lon="-5.290783">
        <ele>1979.0</ele>
        <time>2013-05-11T12:10:43Z</time>
      </trkpt>
      <trkpt lat="40.434283" lon="-5.290700">
        <ele>1978.0</ele>
        <time>2013-05-11T12:10:44Z</time>
      </trkpt>
      <trkpt lat="40.434333" lon="-5.290633">
        <ele>1976.0</ele>
        <time>2013-05-11T12:10:45Z</time>
      </trkpt>
      <trkpt lat="40.434400" lon="-5.290567">
        <ele>1974.0</ele>
        <time>2013-05-11T12:10:46Z</time>
      </trkpt>
      <trkpt lat="40.434467" lon="-5.290517">
        <ele>1973.0</ele>
        <time>2013-05-11T12:10:47Z</time>
      </trkpt>
      <trkpt lat="40.434517" lon="-5.290467">
        <ele>1972.0</ele>
        <time>2013-05-11T12:10:48Z</time>
      </trkpt>
      <trkpt lat="40.434567" lon="-5.290417">
        <ele>1970.0</ele>
        <time>2013-05-11T12:10:49Z</time>
      </trkpt>
      <trkpt lat="40.434633" lon="-5.290383">
        <ele>1968.0</ele>
        <time>2013-05-11T12:10:50Z</time>
      </trkpt>
      <trkpt lat="40.434700" lon="-5.290333">
        <ele>1966.0</ele>
        <time>2013-05-11T12:10:51Z</time>
      </trkpt>
      <trkpt lat="40.434783" lon="-5.290300">
        <ele>1964.0</ele>
        <time>2013-05-11T12:10:52Z</time>
      </trkpt>
      <trkpt lat="40.434883" lon="-5.290250">
        <ele>1964.0</ele>
        <time>2013-05-11T12:10:53Z</time>
      </trkpt>
      <trkpt lat="40.434983" lon="-5.290200">
        <ele>1964.0</ele>
        <time>2013-05-11T12:10:54Z</time>
      </trkpt>
      <trkpt lat="40.435067" lon="-5.290167">
        <ele>1964.0</ele>
        <time>2013-05-11T12:10:55Z</time>
      </trkpt>
      <trkpt lat="40.435150" lon="-5.290150">
        <ele>1965.0</ele>
        <time>2013-05-11T12:10:56Z</time>
      </trkpt>
      <trkpt lat="40.435233" lon="-5.290133">
        <ele>1965.0</ele>
        <time>2013-05-11T12:10:57Z</time>
      </trkpt>
      <trkpt lat="40.435300" lon="-5.290100">
        <ele>1965.0</ele>
        <time>2013-05-11T12:10:58Z</time>
      </trkpt>
      <trkpt lat="40.435367" lon="-5.290033">
        <ele>1963.0</ele>
        <time>2013-05-11T12:10:59Z</time>
      </trkpt>
      <trkpt lat="40.435450" lon="-5.289967">
        <ele>1961.0</ele>
        <time>2013-05-11T12:11:00Z</time>
      </trkpt>
      <trkpt lat="40.435533" lon="-5.289917">
        <ele>1959.0</ele>
        <time>2013-05-11T12:11:01Z</time>
      </trkpt>
      <trkpt lat="40.435617" lon="-5.289850">
        <ele>1957.0</ele>
        <time>2013-05-11T12:11:02Z</time>
      </trkpt>
      <trkpt lat="40.435700" lon="-5.289800">
        <ele>1957.0</ele>
        <time>2013-05-11T12:11:03Z</time>
      </trkpt>
      <trkpt lat="40.435767" lon="-5.289733">
        <ele>1957.0</ele>
        <time>2013-05-11T12:11:04Z</time>
      </trkpt>
      <trkpt lat="40.435833" lon="-5.289667">
        <ele>1957.0</ele>
        <time>2013-05-11T12:11:05Z</time>
      </trkpt>
      <trkpt lat="40.435917" lon="-5.289600">
        <ele>1957.0</ele>
        <time>2013-05-11T12:11:06Z</time>
      </trkpt>
      <trkpt lat="40.435983" lon="-5.289550">
        <ele>1956.0</ele>
        <time>2013-05-11T12:11:07Z</time>
      </trkpt>
      <trkpt lat="40.436050" lon="-5.289483">
        <ele>1956.0</ele>
        <time>2013-05-11T12:11:08Z</time>
      </trkpt>
      <trkpt lat="40.436133" lon="-5.289450">
        <ele>1956.0</ele>
        <time>2013-05-11T12:11:09Z</time>
      </trkpt>
      <trkpt lat="40.436217" lon="-5.289400">
        <ele>1958.0</ele>
        <time>2013-05-11T12:11:10Z</time>
      </trkpt>
      <trkpt lat="40.436267" lon="-5.289383">
        <ele>1960.0</ele>
        <time>2013-05-11T12:11:11Z</time>
      </trkpt>
      <trkpt lat="40.436317" lon="-5.289367">
        <ele>1962.0</ele>
        <time>2013-05-11T12:11:12Z</time>
      </trkpt>
      <trkpt lat="40.436350" lon="-5.289383">
        <ele>1963.0</ele>
        <time>2013-05-11T12:11:13Z</time>
      </trkpt>
      <trkpt lat="40.436383" lon="-5.289400">
        <ele>1964.0</ele>
        <time>2013-05-11T12:11:14Z</time>
      </trkpt>
      <trkpt lat="40.436417" lon="-5.289433">
        <ele>1964.0</ele>
        <time>2013-05-11T12:11:15Z</time>
      </trkpt>
      <trkpt lat="40.436450" lon="-5.289467">
        <ele>1963.0</ele>
        <time>2013-05-11T12:11:16Z</time>
      </trkpt>
      <trkpt lat="40.436483" lon="-5.289517">
        <ele>1963.0</ele>
        <time>2013-05-11T12:11:17Z</time>
      </trkpt>
      <trkpt lat="40.436517" lon="-5.289600">
        <ele>1964.0</ele>
        <time>2013-05-11T12:11:18Z</time>
      </trkpt>
      <trkpt lat="40.436517" lon="-5.289667">
        <ele>1966.0</ele>
        <time>2013-05-11T12:11:19Z</time>
      </trkpt>
      <trkpt lat="40.436517" lon="-5.289733">
        <ele>1967.0</ele>
        <time>2013-05-11T12:11:20Z</time>
      </trkpt>
      <trkpt lat="40.436500" lon="-5.289800">
        <ele>1968.0</ele>
        <time>2013-05-11T12:11:21Z</time>
      </trkpt>
      <trkpt lat="40.436483" lon="-5.289867">
        <ele>1968.0</ele>
        <time>2013-05-11T12:11:22Z</time>
      </trkpt>
      <trkpt lat="40.436450" lon="-5.289950">
        <ele>1968.0</ele>
        <time>2013-05-11T12:11:23Z</time>
      </trkpt>
      <trkpt lat="40.436400" lon="-5.290017">
        <ele>1968.0</ele>
        <time>2013-05-11T12:11:24Z</time>
      </trkpt>
      <trkpt lat="40.436317" lon="-5.290100">
        <ele>1968.0</ele>
        <time>2013-05-11T12:11:25Z</time>
      </trkpt>
      <trkpt lat="40.436217" lon="-5.290133">
        <ele>1968.0</ele>
        <time>2013-05-11T12:11:26Z</time>
      </trkpt>
      <trkpt lat="40.436117" lon="-5.290167">
        <ele>1968.0</ele>
        <time>2013-05-11T12:11:27Z</time>
      </trkpt>
      <trkpt lat="40.436033" lon="-5.290183">
        <ele>1968.0</ele>
        <time>2013-05-11T12:11:28Z</time>
      </trkpt>
      <trkpt lat="40.435933" lon="-5.290183">
        <ele>1966.0</ele>
        <time>2013-05-11T12:11:29Z</time>
      </trkpt>
      <trkpt lat="40.435800" lon="-5.290167">
        <ele>1964.0</ele>
        <time>2013-05-11T12:11:30Z</time>
      </trkpt>
      <trkpt lat="40.435683" lon="-5.290100">
        <ele>1963.0</ele>
        <time>2013-05-11T12:11:31Z</time>
      </trkpt>
      <trkpt lat="40.435583" lon="-5.289983">
        <ele>1963.0</ele>
        <time>2013-05-11T12:11:32Z</time>
      </trkpt>
      <trkpt lat="40.435517" lon="-5.289850">
        <ele>1963.0</ele>
        <time>2013-05-11T12:11:33Z</time>
      </trkpt>
      <trkpt lat="40.435500" lon="-5.289733">
        <ele>1962.0</ele>
        <time>2013-05-11T12:11:34Z</time>
      </trkpt>
      <trkpt lat="40.435483" lon="-5.289600">
        <ele>1961.0</ele>
        <time>2013-05-11T12:11:35Z</time>
      </trkpt>
      <trkpt lat="40.435500" lon="-5.289483">
        <ele>1960.0</ele>
        <time>2013-05-11T12:11:36Z</time>
      </trkpt>
      <trkpt lat="40.435550" lon="-5.289383">
        <ele>1959.0</ele>
        <time>2013-05-11T12:11:37Z</time>
      </trkpt>
      <trkpt lat="40.435617" lon="-5.289300">
        <ele>1957.0</ele>
        <time>2013-05-11T12:11:38Z</time>
      </trkpt>
      <trkpt lat="40.435683" lon="-5.289217">
        <ele>1957.0</ele>
        <time>2013-05-11T12:11:39Z</time>
      </trkpt>
      <trkpt lat="40.435750" lon="-5.289133">
        <ele>1956.0</ele>
        <time>2013-05-11T12:11:40Z</time>
      </trkpt>
      <trkpt lat="40.435833" lon="-5.289033">
        <ele>1956.0</ele>
        <time>2013-05-11T12:11:41Z</time>
      </trkpt>
      <trkpt lat="40.435883" lon="-5.288950">
        <ele>1958.0</ele>
        <time>2013-05-11T12:11:42Z</time>
      </trkpt>
      <trkpt lat="40.435950" lon="-5.288883">
        <ele>1959.0</ele>
        <time>2013-05-11T12:11:43Z</time>
      </trkpt>
      <trkpt lat="40.436000" lon="-5.288817">
        <ele>1960.0</ele>
        <time>2013-05-11T12:11:44Z</time>
      </trkpt>
      <trkpt lat="40.436067" lon="-5.288767">
        <ele>1960.0</ele>
        <time>2013-05-11T12:11:45Z</time>
      </trkpt>
      <trkpt lat="40.436133" lon="-5.288733">
        <ele>1960.0</ele>
        <time>2013-05-11T12:11:46Z</time>
      </trkpt>
      <trkpt lat="40.436200" lon="-5.288683">
        <ele>1961.0</ele>
        <time>2013-05-11T12:11:47Z</time>
      </trkpt>
      <trkpt lat="40.436283" lon="-5.288667">
        <ele>1962.0</ele>
        <time>2013-05-11T12:11:48Z</time>
      </trkpt>
      <trkpt lat="40.436350" lon="-5.288650">
        <ele>1965.0</ele>
        <time>2013-05-11T12:11:49Z</time>
      </trkpt>
      <trkpt lat="40.436417" lon="-5.288650">
        <ele>1967.0</ele>
        <time>2013-05-11T12:11:50Z</time>
      </trkpt>
      <trkpt lat="40.436467" lon="-5.288650">
        <ele>1970.0</ele>
        <time>2013-05-11T12:11:51Z</time>
      </trkpt>
      <trkpt lat="40.436517" lon="-5.288650">
        <ele>1973.0</ele>
        <time>2013-05-11T12:11:52Z</time>
      </trkpt>
      <trkpt lat="40.436550" lon="-5.288650">
        <ele>1975.0</ele>
        <time>2013-05-11T12:11:53Z</time>
      </trkpt>
      <trkpt lat="40.436600" lon="-5.288683">
        <ele>1976.0</ele>
        <time>2013-05-11T12:11:54Z</time>
      </trkpt>
      <trkpt lat="40.436633" lon="-5.288733">
        <ele>1976.0</ele>
        <time>2013-05-11T12:11:55Z</time>
      </trkpt>
      <trkpt lat="40.436650" lon="-5.288817">
        <ele>1976.0</ele>
        <time>2013-05-11T12:11:56Z</time>
      </trkpt>
      <trkpt lat="40.436667" lon="-5.288900">
        <ele>1977.0</ele>
        <time>2013-05-11T12:11:57Z</time>
      </trkpt>
      <trkpt lat="40.436683" lon="-5.288983">
        <ele>1980.0</ele>
        <time>2013-05-11T12:11:58Z</time>
      </trkpt>
      <trkpt lat="40.436700" lon="-5.289050">
        <ele>1982.0</ele>
        <time>2013-05-11T12:11:59Z</time>
      </trkpt>
      <trkpt lat="40.436717" lon="-5.289117">
        <ele>1984.0</ele>
        <time>2013-05-11T12:12:00Z</time>
      </trkpt>
      <trkpt lat="40.436717" lon="-5.289183">
        <ele>1985.0</ele>
        <time>2013-05-11T12:12:01Z</time>
      </trkpt>
      <trkpt lat="40.436717" lon="-5.289250">
        <ele>1986.0</ele>
        <time>2013-05-11T12:12:02Z</time>
      </trkpt>
      <trkpt lat="40.436717" lon="-5.289350">
        <ele>1987.0</ele>
        <time>2013-05-11T12:12:03Z</time>
      </trkpt>
      <trkpt lat="40.436700" lon="-5.289433">
        <ele>1988.0</ele>
        <time>2013-05-11T12:12:04Z</time>
      </trkpt>
      <trkpt lat="40.436667" lon="-5.289517">
        <ele>1989.0</ele>
        <time>2013-05-11T12:12:05Z</time>
      </trkpt>
      <trkpt lat="40.436600" lon="-5.289583">
        <ele>1989.0</ele>
        <time>2013-05-11T12:12:06Z</time>
      </trkpt>
      <trkpt lat="40.436517" lon="-5.289633">
        <ele>1989.0</ele>
        <time>2013-05-11T12:12:07Z</time>
      </trkpt>
      <trkpt lat="40.436417" lon="-5.289667">
        <ele>1989.0</ele>
        <time>2013-05-11T12:12:08Z</time>
      </trkpt>
      <trkpt lat="40.436317" lon="-5.289667">
        <ele>1990.0</ele>
        <time>2013-05-11T12:12:09Z</time>
      </trkpt>
      <trkpt lat="40.436217" lon="-5.289650">
        <ele>1991.0</ele>
        <time>2013-05-11T12:12:10Z</time>
      </trkpt>
      <trkpt lat="40.436117" lon="-5.289633">
        <ele>1992.0</ele>
        <time>2013-05-11T12:12:11Z</time>
      </trkpt>
      <trkpt lat="40.436033" lon="-5.289583">
        <ele>1993.0</ele>
        <time>2013-05-11T12:12:12Z</time>
      </trkpt>
      <trkpt lat="40.435933" lon="-5.289517">
        <ele>1993.0</ele>
        <time>2013-05-11T12:12:13Z</time>
      </trkpt>
      <trkpt lat="40.435833" lon="-5.289417">
        <ele>1994.0</ele>
        <time>2013-05-11T12:12:14Z</time>
      </trkpt>
      <trkpt lat="40.435767" lon="-5.289283">
        <ele>1996.0</ele>
        <time>2013-05-11T12:12:15Z</time>
      </trkpt>
      <trkpt lat="40.435717" lon="-5.289150">
        <ele>1998.0</ele>
        <time>2013-05-11T12:12:16Z</time>
      </trkpt>
      <trkpt lat="40.435683" lon="-5.289000">
        <ele>1999.0</ele>
        <time>2013-05-11T12:12:17Z</time>
      </trkpt>
      <trkpt lat="40.435667" lon="-5.288867">
        <ele>2001.0</ele>
        <time>2013-05-11T12:12:18Z</time>
      </trkpt>
      <trkpt lat="40.435650" lon="-5.288717">
        <ele>2002.0</ele>
        <time>2013-05-11T12:12:19Z</time>
      </trkpt>
      <trkpt lat="40.435667" lon="-5.288567">
        <ele>2004.0</ele>
        <time>2013-05-11T12:12:20Z</time>
      </trkpt>
      <trkpt lat="40.435683" lon="-5.288433">
        <ele>2005.0</ele>
        <time>2013-05-11T12:12:21Z</time>
      </trkpt>
      <trkpt lat="40.435733" lon="-5.288333">
        <ele>2007.0</ele>
        <time>2013-05-11T12:12:22Z</time>
      </trkpt>
      <trkpt lat="40.435800" lon="-5.288267">
        <ele>2009.0</ele>
        <time>2013-05-11T12:12:23Z</time>
      </trkpt>
      <trkpt lat="40.435850" lon="-5.288200">
        <ele>2011.0</ele>
        <time>2013-05-11T12:12:24Z</time>
      </trkpt>
      <trkpt lat="40.435917" lon="-5.288167">
        <ele>2014.0</ele>
        <time>2013-05-11T12:12:25Z</time>
      </trkpt>
      <trkpt lat="40.435983" lon="-5.288117">
        <ele>2015.0</ele>
        <time>2013-05-11T12:12:26Z</time>
      </trkpt>
      <trkpt lat="40.436033" lon="-5.288083">
        <ele>2017.0</ele>
        <time>2013-05-11T12:12:27Z</time>
      </trkpt>
      <trkpt lat="40.436117" lon="-5.288067">
        <ele>2018.0</ele>
        <time>2013-05-11T12:12:28Z</time>
      </trkpt>
      <trkpt lat="40.436167" lon="-5.288083">
        <ele>2019.0</ele>
        <time>2013-05-11T12:12:29Z</time>
      </trkpt>
      <trkpt lat="40.436233" lon="-5.288100">
        <ele>2021.0</ele>
        <time>2013-05-11T12:12:30Z</time>
      </trkpt>
      <trkpt lat="40.436300" lon="-5.288117">
        <ele>2022.0</ele>
        <time>2013-05-11T12:12:31Z</time>
      </trkpt>
      <trkpt lat="40.436367" lon="-5.288117">
        <ele>2024.0</ele>
        <time>2013-05-11T12:12:32Z</time>
      </trkpt>
      <trkpt lat="40.436417" lon="-5.288133">
        <ele>2027.0</ele>
        <time>2013-05-11T12:12:33Z</time>
      </trkpt>
      <trkpt lat="40.436450" lon="-5.288183">
        <ele>2028.0</ele>
        <time>2013-05-11T12:12:34Z</time>
      </trkpt>
      <trkpt lat="40.436483" lon="-5.288233">
        <ele>2028.0</ele>
        <time>2013-05-11T12:12:35Z</time>
      </trkpt>
      <trkpt lat="40.436517" lon="-5.288333">
        <ele>2027.0</ele>
        <time>2013-05-11T12:12:36Z</time>
      </trkpt>
      <trkpt lat="40.436550" lon="-5.288433">
        <ele>2027.0</ele>
        <time>2013-05-11T12:12:37Z</time>
      </trkpt>
      <trkpt lat="40.436567" lon="-5.288533">
        <ele>2029.0</ele>
        <time>2013-05-11T12:12:38Z</time>
      </trkpt>
      <trkpt lat="40.436550" lon="-5.288633">
        <ele>2031.0</ele>
        <time>2013-05-11T12:12:39Z</time>
      </trkpt>
      <trkpt lat="40.436533" lon="-5.288700">
        <ele>2032.0</ele>
        <time>2013-05-11T12:12:40Z</time>
      </trkpt>
      <trkpt lat="40.436517" lon="-5.288750">
        <ele>2031.0</ele>
        <time>2013-05-11T12:12:41Z</time>
      </trkpt>
      <trkpt lat="40.436483" lon="-5.288817">
        <ele>2029.0</ele>
        <time>2013-05-11T12:12:42Z</time>
      </trkpt>
      <trkpt lat="40.436450" lon="-5.288883">
        <ele>2025.0</ele>
        <time>2013-05-11T12:12:43Z</time>
      </trkpt>
      <trkpt lat="40.436383" lon="-5.288967">
        <ele>2021.0</ele>
        <time>2013-05-11T12:12:44Z</time>
      </trkpt>
      <trkpt lat="40.436300" lon="-5.289033">
        <ele>2018.0</ele>
        <time>2013-05-11T12:12:45Z</time>
      </trkpt>
      <trkpt lat="40.436200" lon="-5.289083">
        <ele>2016.0</ele>
        <time>2013-05-11T12:12:46Z</time>
      </trkpt>
      <trkpt lat="40.436100" lon="-5.289083">
        <ele>2014.0</ele>
        <time>2013-05-11T12:12:47Z</time>
      </trkpt>
      <trkpt lat="40.436000" lon="-5.289067">
        <ele>2014.0</ele>
        <time>2013-05-11T12:12:48Z</time>
      </trkpt>
      <trkpt lat="40.435917" lon="-5.289017">
        <ele>2012.0</ele>
        <time>2013-05-11T12:12:49Z</time>
      </trkpt>
      <trkpt lat="40.435850" lon="-5.288967">
        <ele>2009.0</ele>
        <time>2013-05-11T12:12:50Z</time>
      </trkpt>
      <trkpt lat="40.435767" lon="-5.288883">
        <ele>2006.0</ele>
        <time>2013-05-11T12:12:51Z</time>
      </trkpt>
      <trkpt lat="40.435683" lon="-5.288767">
        <ele>2003.0</ele>
        <time>2013-05-11T12:12:52Z</time>
      </trkpt>
      <trkpt lat="40.435633" lon="-5.288600">
        <ele>1999.0</ele>
        <time>2013-05-11T12:12:53Z</time>
      </trkpt>
      <trkpt lat="40.435617" lon="-5.288400">
        <ele>1998.0</ele>
        <time>2013-05-11T12:12:54Z</time>
      </trkpt>
      <trkpt lat="40.435633" lon="-5.288233">
        <ele>2000.0</ele>
        <time>2013-05-11T12:12:55Z</time>
      </trkpt>
      <trkpt lat="40.435683" lon="-5.288100">
        <ele>2002.0</ele>
        <time>2013-05-11T12:12:56Z</time>
      </trkpt>
      <trkpt lat="40.435717" lon="-5.288017">
        <ele>2005.0</ele>
        <time>2013-05-11T12:12:57Z</time>
      </trkpt>
      <trkpt lat="40.435750" lon="-5.287933">
        <ele>2006.0</ele>
        <time>2013-05-11T12:12:58Z</time>
      </trkpt>
      <trkpt lat="40.435767" lon="-5.287867">
        <ele>2006.0</ele>
        <time>2013-05-11T12:12:59Z</time>
      </trkpt>
      <trkpt lat="40.435817" lon="-5.287800">
        <ele>2006.0</ele>
        <time>2013-05-11T12:13:00Z</time>
      </trkpt>
      <trkpt lat="40.435883" lon="-5.287733">
        <ele>2005.0</ele>
        <time>2013-05-11T12:13:01Z</time>
      </trkpt>
      <trkpt lat="40.435950" lon="-5.287683">
        <ele>2005.0</ele>
        <time>2013-05-11T12:13:02Z</time>
      </trkpt>
      <trkpt lat="40.436033" lon="-5.287650">
        <ele>2006.0</ele>
        <time>2013-05-11T12:13:03Z</time>
      </trkpt>
      <trkpt lat="40.436083" lon="-5.287650">
        <ele>2008.0</ele>
        <time>2013-05-11T12:13:04Z</time>
      </trkpt>
      <trkpt lat="40.436133" lon="-5.287650">
        <ele>2009.0</ele>
        <time>2013-05-11T12:13:05Z</time>
      </trkpt>
      <trkpt lat="40.436200" lon="-5.287633">
        <ele>2009.0</ele>
        <time>2013-05-11T12:13:06Z</time>
      </trkpt>
      <trkpt lat="40.436250" lon="-5.287600">
        <ele>2009.0</ele>
        <time>2013-05-11T12:13:07Z</time>
      </trkpt>
      <trkpt lat="40.436300" lon="-5.287567">
        <ele>2007.0</ele>
        <time>2013-05-11T12:13:08Z</time>
      </trkpt>
      <trkpt lat="40.436367" lon="-5.287533">
        <ele>2005.0</ele>
        <time>2013-05-11T12:13:09Z</time>
      </trkpt>
      <trkpt lat="40.436433" lon="-5.287500">
        <ele>2002.0</ele>
        <time>2013-05-11T12:13:10Z</time>
      </trkpt>
      <trkpt lat="40.436517" lon="-5.287483">
        <ele>2000.0</ele>
        <time>2013-05-11T12:13:11Z</time>
      </trkpt>
      <trkpt lat="40.436600" lon="-5.287467">
        <ele>1998.0</ele>
        <time>2013-05-11T12:13:12Z</time>
      </trkpt>
      <trkpt lat="40.436683" lon="-5.287467">
        <ele>1997.0</ele>
        <time>2013-05-11T12:13:13Z</time>
      </trkpt>
      <trkpt lat="40.436750" lon="-5.287450">
        <ele>1997.0</ele>
        <time>2013-05-11T12:13:14Z</time>
      </trkpt>
      <trkpt lat="40.436800" lon="-5.287433">
        <ele>1998.0</ele>
        <time>2013-05-11T12:13:15Z</time>
      </trkpt>
      <trkpt lat="40.436850" lon="-5.287433">
        <ele>1998.0</ele>
        <time>2013-05-11T12:13:16Z</time>
      </trkpt>
      <trkpt lat="40.436900" lon="-5.287417">
        <ele>1997.0</ele>
        <time>2013-05-11T12:13:17Z</time>
      </trkpt>
      <trkpt lat="40.436967" lon="-5.287417">
        <ele>1995.0</ele>
        <time>2013-05-11T12:13:18Z</time>
      </trkpt>
      <trkpt lat="40.437033" lon="-5.287383">
        <ele>1994.0</ele>
        <time>2013-05-11T12:13:19Z</time>
      </trkpt>
      <trkpt lat="40.437100" lon="-5.287350">
        <ele>1993.0</ele>
        <time>2013-05-11T12:13:20Z</time>
      </trkpt>
      <trkpt lat="40.437167" lon="-5.287283">
        <ele>1992.0</ele>
        <time>2013-05-11T12:13:21Z</time>
      </trkpt>
      <trkpt lat="40.437217" lon="-5.287233">
        <ele>1991.0</ele>
        <time>2013-05-11T12:13:22Z</time>
      </trkpt>
      <trkpt lat="40.437283" lon="-5.287200">
        <ele>1989.0</ele>
        <time>2013-05-11T12:13:23Z</time>
      </trkpt>
      <trkpt lat="40.437367" lon="-5.287183">
        <ele>1988.0</ele>
        <time>2013-05-11T12:13:24Z</time>
      </trkpt>
      <trkpt lat="40.437433" lon="-5.287200">
        <ele>1987.0</ele>
        <time>2013-05-11T12:13:25Z</time>
      </trkpt>
      <trkpt lat="40.437517" lon="-5.287233">
        <ele>1987.0</ele>
        <time>2013-05-11T12:13:26Z</time>
      </trkpt>
      <trkpt lat="40.437583" lon="-5.287250">
        <ele>1987.0</ele>
        <time>2013-05-11T12:13:27Z</time>
      </trkpt>
      <trkpt lat="40.437633" lon="-5.287267">
        <ele>1987.0</ele>
        <time>2013-05-11T12:13:28Z</time>
      </trkpt>
      <trkpt lat="40.437683" lon="-5.287300">
        <ele>1986.0</ele>
        <time>2013-05-11T12:13:29Z</time>
      </trkpt>
      <trkpt lat="40.437717" lon="-5.287367">
        <ele>1984.0</ele>
        <time>2013-05-11T12:13:30Z</time>
      </trkpt>
      <trkpt lat="40.437750" lon="-5.287433">
        <ele>1983.0</ele>
        <time>2013-05-11T12:13:31Z</time>
      </trkpt>
      <trkpt lat="40.437783" lon="-5.287533">
        <ele>1982.0</ele>
        <time>2013-05-11T12:13:32Z</time>
      </trkpt>
      <trkpt lat="40.437783" lon="-5.287633">
        <ele>1983.0</ele>
        <time>2013-05-11T12:13:33Z</time>
      </trkpt>
      <trkpt lat="40.437783" lon="-5.287733">
        <ele>1985.0</ele>
        <time>2013-05-11T12:13:34Z</time>
      </trkpt>
      <trkpt lat="40.437767" lon="-5.287800">
        <ele>1986.0</ele>
        <time>2013-05-11T12:13:35Z</time>
      </trkpt>
      <trkpt lat="40.437750" lon="-5.287867">
        <ele>1986.0</ele>
        <time>2013-05-11T12:13:36Z</time>
      </trkpt>
      <trkpt lat="40.437733" lon="-5.287933">
        <ele>1985.0</ele>
        <time>2013-05-11T12:13:37Z</time>
      </trkpt>
      <trkpt lat="40.437683" lon="-5.288017">
        <ele>1983.0</ele>
        <time>2013-05-11T12:13:38Z</time>
      </trkpt>
      <trkpt lat="40.437617" lon="-5.288083">
        <ele>1981.0</ele>
        <time>2013-05-11T12:13:39Z</time>
      </trkpt>
      <trkpt lat="40.437533" lon="-5.288117">
        <ele>1980.0</ele>
        <time>2013-05-11T12:13:40Z</time>
      </trkpt>
      <trkpt lat="40.437433" lon="-5.288117">
        <ele>1980.0</ele>
        <time>2013-05-11T12:13:41Z</time>
      </trkpt>
      <trkpt lat="40.437333" lon="-5.288083">
        <ele>1980.0</ele>
        <time>2013-05-11T12:13:42Z</time>
      </trkpt>
      <trkpt lat="40.437250" lon="-5.288050">
        <ele>1980.0</ele>
        <time>2013-05-11T12:13:43Z</time>
      </trkpt>
      <trkpt lat="40.437167" lon="-5.287983">
        <ele>1979.0</ele>
        <time>2013-05-11T12:13:44Z</time>
      </trkpt>
      <trkpt lat="40.437083" lon="-5.287900">
        <ele>1977.0</ele>
        <time>2013-05-11T12:13:45Z</time>
      </trkpt>
      <trkpt lat="40.437017" lon="-5.287783">
        <ele>1974.0</ele>
        <time>2013-05-11T12:13:46Z</time>
      </trkpt>
      <trkpt lat="40.436967" lon="-5.287650">
        <ele>1972.0</ele>
        <time>2013-05-11T12:13:47Z</time>
      </trkpt>
      <trkpt lat="40.436950" lon="-5.287483">
        <ele>1970.0</ele>
        <time>2013-05-11T12:13:48Z</time>
      </trkpt>
      <trkpt lat="40.436950" lon="-5.287333">
        <ele>1969.0</ele>
        <time>2013-05-11T12:13:49Z</time>
      </trkpt>
      <trkpt lat="40.436967" lon="-5.287200">
        <ele>1968.0</ele>
        <time>2013-05-11T12:13:50Z</time>
      </trkpt>
      <trkpt lat="40.437000" lon="-5.287083">
        <ele>1968.0</ele>
        <time>2013-05-11T12:13:51Z</time>
      </trkpt>
      <trkpt lat="40.437050" lon="-5.286983">
        <ele>1967.0</ele>
        <time>2013-05-11T12:13:52Z</time>
      </trkpt>
      <trkpt lat="40.437100" lon="-5.286883">
        <ele>1967.0</ele>
        <time>2013-05-11T12:13:53Z</time>
      </trkpt>
      <trkpt lat="40.437150" lon="-5.286783">
        <ele>1966.0</ele>
        <time>2013-05-11T12:13:54Z</time>
      </trkpt>
      <trkpt lat="40.437200" lon="-5.286700">
        <ele>1964.0</ele>
        <time>2013-05-11T12:13:55Z</time>
      </trkpt>
      <trkpt lat="40.437267" lon="-5.286600">
        <ele>1963.0</ele>
        <time>2013-05-11T12:13:56Z</time>
      </trkpt>
      <trkpt lat="40.437350" lon="-5.286517">
        <ele>1963.0</ele>
        <time>2013-05-11T12:13:57Z</time>
      </trkpt>
      <trkpt lat="40.437417" lon="-5.286450">
        <ele>1964.0</ele>
        <time>2013-05-11T12:13:58Z</time>
      </trkpt>
      <trkpt lat="40.437500" lon="-5.286383">
        <ele>1964.0</ele>
        <time>2013-05-11T12:13:59Z</time>
      </trkpt>
      <trkpt lat="40.437567" lon="-5.286333">
        <ele>1965.0</ele>
        <time>2013-05-11T12:14:00Z</time>
      </trkpt>
      <trkpt lat="40.437633" lon="-5.286267">
        <ele>1966.0</ele>
        <time>2013-05-11T12:14:01Z</time>
      </trkpt>
      <trkpt lat="40.437700" lon="-5.286217">
        <ele>1965.0</ele>
        <time>2013-05-11T12:14:02Z</time>
      </trkpt>
      <trkpt lat="40.437783" lon="-5.286167">
        <ele>1965.0</ele>
        <time>2013-05-11T12:14:03Z</time>
      </trkpt>
      <trkpt lat="40.437850" lon="-5.286100">
        <ele>1964.0</ele>
        <time>2013-05-11T12:14:04Z</time>
      </trkpt>
      <trkpt lat="40.437950" lon="-5.286050">
        <ele>1964.0</ele>
        <time>2013-05-11T12:14:05Z</time>
      </trkpt>
      <trkpt lat="40.438033" lon="-5.286000">
        <ele>1965.0</ele>
        <time>2013-05-11T12:14:06Z</time>
      </trkpt>
      <trkpt lat="40.438100" lon="-5.285933">
        <ele>1967.0</ele>
        <time>2013-05-11T12:14:07Z</time>
      </trkpt>
      <trkpt lat="40.438150" lon="-5.285867">
        <ele>1970.0</ele>
        <time>2013-05-11T12:14:08Z</time>
      </trkpt>
      <trkpt lat="40.438200" lon="-5.285817">
        <ele>1971.0</ele>
        <time>2013-05-11T12:14:09Z</time>
      </trkpt>
      <trkpt lat="40.438250" lon="-5.285767">
        <ele>1970.0</ele>
        <time>2013-05-11T12:14:10Z</time>
      </trkpt>
      <trkpt lat="40.438317" lon="-5.285733">
        <ele>1968.0</ele>
        <time>2013-05-11T12:14:11Z</time>
      </trkpt>
      <trkpt lat="40.438383" lon="-5.285683">
        <ele>1967.0</ele>
        <time>2013-05-11T12:14:12Z</time>
      </trkpt>
      <trkpt lat="40.438467" lon="-5.285617">
        <ele>1966.0</ele>
        <time>2013-05-11T12:14:13Z</time>
      </trkpt>
      <trkpt lat="40.438533" lon="-5.285533">
        <ele>1967.0</ele>
        <time>2013-05-11T12:14:14Z</time>
      </trkpt>
      <trkpt lat="40.438600" lon="-5.285467">
        <ele>1967.0</ele>
        <time>2013-05-11T12:14:15Z</time>
      </trkpt>
      <trkpt lat="40.438650" lon="-5.285417">
        <ele>1967.0</ele>
        <time>2013-05-11T12:14:16Z</time>
      </trkpt>
      <trkpt lat="40.438717" lon="-5.285367">
        <ele>1965.0</ele>
        <time>2013-05-11T12:14:17Z</time>
      </trkpt>
      <trkpt lat="40.438800" lon="-5.285317">
        <ele>1962.0</ele>
        <time>2013-05-11T12:14:18Z</time>
      </trkpt>
      <trkpt lat="40.438883" lon="-5.285267">
        <ele>1959.0</ele>
        <time>2013-05-11T12:14:19Z</time>
      </trkpt>
      <trkpt lat="40.438967" lon="-5.285217">
        <ele>1957.0</ele>
        <time>2013-05-11T12:14:20Z</time>
      </trkpt>
      <trkpt lat="40.439050" lon="-5.285200">
        <ele>1956.0</ele>
        <time>2013-05-11T12:14:21Z</time>
      </trkpt>
      <trkpt lat="40.439150" lon="-5.285150">
        <ele>1956.0</ele>
        <time>2013-05-11T12:14:22Z</time>
      </trkpt>
      <trkpt lat="40.439233" lon="-5.285117">
        <ele>1956.0</ele>
        <time>2013-05-11T12:14:23Z</time>
      </trkpt>
      <trkpt lat="40.439317" lon="-5.285067">
        <ele>1957.0</ele>
        <time>2013-05-11T12:14:24Z</time>
      </trkpt>
      <trkpt lat="40.439383" lon="-5.285017">
        <ele>1959.0</ele>
        <time>2013-05-11T12:14:25Z</time>
      </trkpt>
      <trkpt lat="40.439467" lon="-5.284950">
        <ele>1960.0</ele>
        <time>2013-05-11T12:14:26Z</time>
      </trkpt>
      <trkpt lat="40.439533" lon="-5.284900">
        <ele>1962.0</ele>
        <time>2013-05-11T12:14:27Z</time>
      </trkpt>
      <trkpt lat="40.439617" lon="-5.284850">
        <ele>1965.0</ele>
        <time>2013-05-11T12:14:28Z</time>
      </trkpt>
      <trkpt lat="40.439683" lon="-5.284783">
        <ele>1968.0</ele>
        <time>2013-05-11T12:14:29Z</time>
      </trkpt>
      <trkpt lat="40.439767" lon="-5.284733">
        <ele>1971.0</ele>
        <time>2013-05-11T12:14:30Z</time>
      </trkpt>
      <trkpt lat="40.439833" lon="-5.284683">
        <ele>1973.0</ele>
        <time>2013-05-11T12:14:31Z</time>
      </trkpt>
      <trkpt lat="40.439883" lon="-5.284633">
        <ele>1976.0</ele>
        <time>2013-05-11T12:14:32Z</time>
      </trkpt>
      <trkpt lat="40.439933" lon="-5.284583">
        <ele>1979.0</ele>
        <time>2013-05-11T12:14:33Z</time>
      </trkpt>
      <trkpt lat="40.439983" lon="-5.284533">
        <ele>1980.0</ele>
        <time>2013-05-11T12:14:34Z</time>
      </trkpt>
      <trkpt lat="40.440050" lon="-5.284483">
        <ele>1981.0</ele>
        <time>2013-05-11T12:14:35Z</time>
      </trkpt>
      <trkpt lat="40.440100" lon="-5.284433">
        <ele>1980.0</ele>
        <time>2013-05-11T12:14:36Z</time>
      </trkpt>
      <trkpt lat="40.440133" lon="-5.284417">
        <ele>1980.0</ele>
        <time>2013-05-11T12:14:37Z</time>
      </trkpt>
      <trkpt lat="40.440167" lon="-5.284433">
        <ele>1978.0</ele>
        <time>2013-05-11T12:14:38Z</time>
      </trkpt>
      <trkpt lat="40.440200" lon="-5.284483">
        <ele>1976.0</ele>
        <time>2013-05-11T12:14:39Z</time>
      </trkpt>
      <trkpt lat="40.440217" lon="-5.284550">
        <ele>1973.0</ele>
        <time>2013-05-11T12:14:40Z</time>
      </trkpt>
      <trkpt lat="40.440217" lon="-5.284633">
        <ele>1970.0</ele>
        <time>2013-05-11T12:14:41Z</time>
      </trkpt>
      <trkpt lat="40.440200" lon="-5.284733">
        <ele>1969.0</ele>
        <time>2013-05-11T12:14:42Z</time>
      </trkpt>
      <trkpt lat="40.440167" lon="-5.284817">
        <ele>1968.0</ele>
        <time>2013-05-11T12:14:43Z</time>
      </trkpt>
      <trkpt lat="40.440100" lon="-5.284900">
        <ele>1967.0</ele>
        <time>2013-05-11T12:14:44Z</time>
      </trkpt>
      <trkpt lat="40.440017" lon="-5.284950">
        <ele>1965.0</ele>
        <time>2013-05-11T12:14:45Z</time>
      </trkpt>
      <trkpt lat="40.439917" lon="-5.284983">
        <ele>1962.0</ele>
        <time>2013-05-11T12:14:46Z</time>
      </trkpt>
      <trkpt lat="40.439800" lon="-5.285017">
        <ele>1960.0</ele>
        <time>2013-05-11T12:14:47Z</time>
      </trkpt>
      <trkpt lat="40.439683" lon="-5.285017">
        <ele>1958.0</ele>
        <time>2013-05-11T12:14:48Z</time>
      </trkpt>
      <trkpt lat="40.439550" lon="-5.285000">
        <ele>1958.0</ele>
        <time>2013-05-11T12:14:49Z</time>
      </trkpt>
      <trkpt lat="40.439417" lon="-5.284983">
        <ele>1957.0</ele>
        <time>2013-05-11T12:14:50Z</time>
      </trkpt>
      <trkpt lat="40.439283" lon="-5.284983">
        <ele>1958.0</ele>
        <time>2013-05-11T12:14:51Z</time>
      </trkpt>
      <trkpt lat="40.439150" lon="-5.284967">
        <ele>1961.0</ele>
        <time>2013-05-11T12:14:52Z</time>
      </trkpt>
      <trkpt lat="40.439033" lon="-5.284967">
        <ele>1964.0</ele>
        <time>2013-05-11T12:14:53Z</time>
      </trkpt>
      <trkpt lat="40.438933" lon="-5.284967">
        <ele>1966.0</ele>
        <time>2013-05-11T12:14:54Z</time>
      </trkpt>
      <trkpt lat="40.438833" lon="-5.284983">
        <ele>1967.0</ele>
        <time>2013-05-11T12:14:55Z</time>
      </trkpt>
      <trkpt lat="40.438750" lon="-5.285033">
        <ele>1967.0</ele>
        <time>2013-05-11T12:14:56Z</time>
      </trkpt>
      <trkpt lat="40.438667" lon="-5.285117">
        <ele>1968.0</ele>
        <time>2013-05-11T12:14:57Z</time>
      </trkpt>
      <trkpt lat="40.438617" lon="-5.285217">
        <ele>1969.0</ele>
        <time>2013-05-11T12:14:58Z</time>
      </trkpt>
      <trkpt lat="40.438567" lon="-5.285300">
        <ele>1972.0</ele>
        <time>2013-05-11T12:14:59Z</time>
      </trkpt>
      <trkpt lat="40.438517" lon="-5.285350">
        <ele>1976.0</ele>
        <time>2013-05-11T12:15:00Z</time>
      </trkpt>
      <trkpt lat="40.438500" lon="-5.285400">
        <ele>1978.0</ele>
        <time>2013-05-11T12:15:01Z</time>
      </trkpt>
      <trkpt lat="40.438483" lon="-5.285467">
        <ele>1979.0</ele>
        <time>2013-05-11T12:15:02Z</time>
      </trkpt>
      <trkpt lat="40.438500" lon="-5.285533">
        <ele>1978.0</ele>
        <time>2013-05-11T12:15:03Z</time>
      </trkpt>
      <trkpt lat="40.438550" lon="-5.285600">
        <ele>1978.0</ele>
        <time>2013-05-11T12:15:04Z</time>
      </trkpt>
      <trkpt lat="40.438617" lon="-5.285633">
        <ele>1979.0</ele>
        <time>2013-05-11T12:15:05Z</time>
      </trkpt>
      <trkpt lat="40.438683" lon="-5.285650">
        <ele>1982.0</ele>
        <time>2013-05-11T12:15:06Z</time>
      </trkpt>
      <trkpt lat="40.438750" lon="-5.285650">
        <ele>1986.0</ele>
        <time>2013-05-11T12:15:07Z</time>
      </trkpt>
      <trkpt lat="40.438800" lon="-5.285650">
        <ele>1989.0</ele>
        <time>2013-05-11T12:15:08Z</time>
      </trkpt>
      <trkpt lat="40.438867" lon="-5.285650">
        <ele>1990.0</ele>
        <time>2013-05-11T12:15:09Z</time>
      </trkpt>
      <trkpt lat="40.438917" lon="-5.285633">
        <ele>1988.0</ele>
        <time>2013-05-11T12:15:10Z</time>
      </trkpt>
      <trkpt lat="40.438983" lon="-5.285583">
        <ele>1987.0</ele>
        <time>2013-05-11T12:15:11Z</time>
      </trkpt>
      <trkpt lat="40.439033" lon="-5.285450">
        <ele>1984.0</ele>
        <time>2013-05-11T12:15:12Z</time>
      </trkpt>
      <trkpt lat="40.439067" lon="-5.285300">
        <ele>1983.0</ele>
        <time>2013-05-11T12:15:13Z</time>
      </trkpt>
      <trkpt lat="40.439083" lon="-5.285150">
        <ele>1984.0</ele>
        <time>2013-05-11T12:15:14Z</time>
      </trkpt>
      <trkpt lat="40.439083" lon="-5.285017">
        <ele>1984.0</ele>
        <time>2013-05-11T12:15:15Z</time>
      </trkpt>
      <trkpt lat="40.439117" lon="-5.284900">
        <ele>1982.0</ele>
        <time>2013-05-11T12:15:16Z</time>
      </trkpt>
      <trkpt lat="40.439150" lon="-5.284800">
        <ele>1979.0</ele>
        <time>2013-05-11T12:15:17Z</time>
      </trkpt>
      <trkpt lat="40.439217" lon="-5.284700">
        <ele>1976.0</ele>
        <time>2013-05-11T12:15:18Z</time>
      </trkpt>
      <trkpt lat="40.439283" lon="-5.284633">
        <ele>1973.0</ele>
        <time>2013-05-11T12:15:19Z</time>
      </trkpt>
      <trkpt lat="40.439350" lon="-5.284583">
        <ele>1971.0</ele>
        <time>2013-05-11T12:15:20Z</time>
      </trkpt>
      <trkpt lat="40.439400" lon="-5.284567">
        <ele>1969.0</ele>
        <time>2013-05-11T12:15:21Z</time>
      </trkpt>
      <trkpt lat="40.439450" lon="-5.284550">
        <ele>1967.0</ele>
        <time>2013-05-11T12:15:22Z</time>
      </trkpt>
      <trkpt lat="40.439500" lon="-5.284550">
        <ele>1964.0</ele>
        <time>2013-05-11T12:15:23Z</time>
      </trkpt>
      <trkpt lat="40.439567" lon="-5.284550">
        <ele>1961.0</ele>
        <time>2013-05-11T12:15:24Z</time>
      </trkpt>
      <trkpt lat="40.439650" lon="-5.284567">
        <ele>1957.0</ele>
        <time>2013-05-11T12:15:25Z</time>
      </trkpt>
      <trkpt lat="40.439733" lon="-5.284567">
        <ele>1955.0</ele>
        <time>2013-05-11T12:15:26Z</time>
      </trkpt>
      <trkpt lat="40.439800" lon="-5.284583">
        <ele>1954.0</ele>
        <time>2013-05-11T12:15:27Z</time>
      </trkpt>
      <trkpt lat="40.439867" lon="-5.284583">
        <ele>1953.0</ele>
        <time>2013-05-11T12:15:28Z</time>
      </trkpt>
      <trkpt lat="40.439933" lon="-5.284567">
        <ele>1952.0</ele>
        <time>2013-05-11T12:15:29Z</time>
      </trkpt>
      <trkpt lat="40.440017" lon="-5.284567">
        <ele>1950.0</ele>
        <time>2013-05-11T12:15:30Z</time>
      </trkpt>
      <trkpt lat="40.440100" lon="-5.284583">
        <ele>1947.0</ele>
        <time>2013-05-11T12:15:31Z</time>
      </trkpt>
      <trkpt lat="40.440183" lon="-5.284617">
        <ele>1946.0</ele>
        <time>2013-05-11T12:15:32Z</time>
      </trkpt>
      <trkpt lat="40.440250" lon="-5.284633">
        <ele>1945.0</ele>
        <time>2013-05-11T12:15:33Z</time>
      </trkpt>
      <trkpt lat="40.440333" lon="-5.284667">
        <ele>1944.0</ele>
        <time>2013-05-11T12:15:34Z</time>
      </trkpt>
      <trkpt lat="40.440417" lon="-5.284683">
        <ele>1944.0</ele>
        <time>2013-05-11T12:15:35Z</time>
      </trkpt>
      <trkpt lat="40.440500" lon="-5.284717">
        <ele>1945.0</ele>
        <time>2013-05-11T12:15:36Z</time>
      </trkpt>
      <trkpt lat="40.440567" lon="-5.284733">
        <ele>1945.0</ele>
        <time>2013-05-11T12:15:37Z</time>
      </trkpt>
      <trkpt lat="40.440633" lon="-5.284733">
        <ele>1946.0</ele>
        <time>2013-05-11T12:15:38Z</time>
      </trkpt>
      <trkpt lat="40.440700" lon="-5.284733">
        <ele>1946.0</ele>
        <time>2013-05-11T12:15:39Z</time>
      </trkpt>
      <trkpt lat="40.440750" lon="-5.284733">
        <ele>1945.0</ele>
        <time>2013-05-11T12:15:40Z</time>
      </trkpt>
      <trkpt lat="40.440817" lon="-5.284733">
        <ele>1944.0</ele>
        <time>2013-05-11T12:15:41Z</time>
      </trkpt>
      <trkpt lat="40.440883" lon="-5.284733">
        <ele>1942.0</ele>
        <time>2013-05-11T12:15:42Z</time>
      </trkpt>
      <trkpt lat="40.440967" lon="-5.284750">
        <ele>1942.0</ele>
        <time>2013-05-11T12:15:43Z</time>
      </trkpt>
      <trkpt lat="40.441033" lon="-5.284750">
        <ele>1942.0</ele>
        <time>2013-05-11T12:15:44Z</time>
      </trkpt>
      <trkpt lat="40.441100" lon="-5.284767">
        <ele>1943.0</ele>
        <time>2013-05-11T12:15:45Z</time>
      </trkpt>
      <trkpt lat="40.441167" lon="-5.284750">
        <ele>1943.0</ele>
        <time>2013-05-11T12:15:46Z</time>
      </trkpt>
      <trkpt lat="40.441233" lon="-5.284733">
        <ele>1943.0</ele>
        <time>2013-05-11T12:15:47Z</time>
      </trkpt>
      <trkpt lat="40.441317" lon="-5.284717">
        <ele>1943.0</ele>
        <time>2013-05-11T12:15:48Z</time>
      </trkpt>
      <trkpt lat="40.441400" lon="-5.284700">
        <ele>1946.0</ele>
        <time>2013-05-11T12:15:49Z</time>
      </trkpt>
      <trkpt lat="40.441467" lon="-5.284700">
        <ele>1950.0</ele>
        <time>2013-05-11T12:15:50Z</time>
      </trkpt>
      <trkpt lat="40.441500" lon="-5.284700">
        <ele>1954.0</ele>
        <time>2013-05-11T12:15:51Z</time>
      </trkpt>
      <trkpt lat="40.441550" lon="-5.284683">
        <ele>1956.0</ele>
        <time>2013-05-11T12:15:52Z</time>
      </trkpt>
      <trkpt lat="40.441583" lon="-5.284667">
        <ele>1957.0</ele>
        <time>2013-05-11T12:15:53Z</time>
      </trkpt>
      <trkpt lat="40.441650" lon="-5.284650">
        <ele>1957.0</ele>
        <time>2013-05-11T12:15:54Z</time>
      </trkpt>
      <trkpt lat="40.441717" lon="-5.284650">
        <ele>1957.0</ele>
        <time>2013-05-11T12:15:55Z</time>
      </trkpt>
      <trkpt lat="40.441767" lon="-5.284683">
        <ele>1959.0</ele>
        <time>2013-05-11T12:15:56Z</time>
      </trkpt>
      <trkpt lat="40.441817" lon="-5.284733">
        <ele>1962.0</ele>
        <time>2013-05-11T12:15:57Z</time>
      </trkpt>
      <trkpt lat="40.441850" lon="-5.284783">
        <ele>1965.0</ele>
        <time>2013-05-11T12:15:58Z</time>
      </trkpt>
      <trkpt lat="40.441883" lon="-5.284833">
        <ele>1968.0</ele>
        <time>2013-05-11T12:15:59Z</time>
      </trkpt>
      <trkpt lat="40.441900" lon="-5.284883">
        <ele>1970.0</ele>
        <time>2013-05-11T12:16:00Z</time>
      </trkpt>
      <trkpt lat="40.441900" lon="-5.284950">
        <ele>1971.0</ele>
        <time>2013-05-11T12:16:01Z</time>
      </trkpt>
      <trkpt lat="40.441900" lon="-5.285033">
        <ele>1971.0</ele>
        <time>2013-05-11T12:16:02Z</time>
      </trkpt>
      <trkpt lat="40.441867" lon="-5.285150">
        <ele>1973.0</ele>
        <time>2013-05-11T12:16:03Z</time>
      </trkpt>
      <trkpt lat="40.441817" lon="-5.285233">
        <ele>1977.0</ele>
        <time>2013-05-11T12:16:04Z</time>
      </trkpt>
      <trkpt lat="40.441733" lon="-5.285300">
        <ele>1981.0</ele>
        <time>2013-05-11T12:16:05Z</time>
      </trkpt>
      <trkpt lat="40.441650" lon="-5.285350">
        <ele>1986.0</ele>
        <time>2013-05-11T12:16:06Z</time>
      </trkpt>
      <trkpt lat="40.441567" lon="-5.285383">
        <ele>1989.0</ele>
        <time>2013-05-11T12:16:07Z</time>
      </trkpt>
      <trkpt lat="40.441517" lon="-5.285400">
        <ele>1991.0</ele>
        <time>2013-05-11T12:16:08Z</time>
      </trkpt>
      <trkpt lat="40.441433" lon="-5.285417">
        <ele>1993.0</ele>
        <time>2013-05-11T12:16:09Z</time>
      </trkpt>
      <trkpt lat="40.441350" lon="-5.285400">
        <ele>1993.0</ele>
        <time>2013-05-11T12:16:10Z</time>
      </trkpt>
      <trkpt lat="40.441233" lon="-5.285367">
        <ele>1992.0</ele>
        <time>2013-05-11T12:16:11Z</time>
      </trkpt>
      <trkpt lat="40.441133" lon="-5.285300">
        <ele>1992.0</ele>
        <time>2013-05-11T12:16:12Z</time>
      </trkpt>
      <trkpt lat="40.441033" lon="-5.285217">
        <ele>1994.0</ele>
        <time>2013-05-11T12:16:13Z</time>
      </trkpt>
      <trkpt lat="40.440967" lon="-5.285117">
        <ele>1995.0</ele>
        <time>2013-05-11T12:16:14Z</time>
      </trkpt>
      <trkpt lat="40.440933" lon="-5.285000">
        <ele>1995.0</ele>
        <time>2013-05-11T12:16:15Z</time>
      </trkpt>
      <trkpt lat="40.440900" lon="-5.284850">
        <ele>1994.0</ele>
        <time>2013-05-11T12:16:16Z</time>
      </trkpt>
      <trkpt lat="40.440917" lon="-5.284700">
        <ele>1993.0</ele>
        <time>2013-05-11T12:16:17Z</time>
      </trkpt>
      <trkpt lat="40.440950" lon="-5.284567">
        <ele>1994.0</ele>
        <time>2013-05-11T12:16:18Z</time>
      </trkpt>
      <trkpt lat="40.441000" lon="-5.284467">
        <ele>1996.0</ele>
        <time>2013-05-11T12:16:19Z</time>
      </trkpt>
      <trkpt lat="40.441050" lon="-5.284383">
        <ele>1999.0</ele>
        <time>2013-05-11T12:16:20Z</time>
      </trkpt>
      <trkpt lat="40.441117" lon="-5.284333">
        <ele>2003.0</ele>
        <time>2013-05-11T12:16:21Z</time>
      </trkpt>
      <trkpt lat="40.441150" lon="-5.284283">
        <ele>2007.0</ele>
        <time>2013-05-11T12:16:22Z</time>
      </trkpt>
      <trkpt lat="40.441200" lon="-5.284233">
        <ele>2011.0</ele>
        <time>2013-05-11T12:16:23Z</time>
      </trkpt>
      <trkpt lat="40.441267" lon="-5.284200">
        <ele>2015.0</ele>
        <time>2013-05-11T12:16:24Z</time>
      </trkpt>
      <trkpt lat="40.441317" lon="-5.284183">
        <ele>2018.0</ele>
        <time>2013-05-11T12:16:25Z</time>
      </trkpt>
      <trkpt lat="40.441367" lon="-5.284200">
        <ele>2022.0</ele>
        <time>2013-05-11T12:16:26Z</time>
      </trkpt>
      <trkpt lat="40.441417" lon="-5.284233">
        <ele>2025.0</ele>
        <time>2013-05-11T12:16:27Z</time>
      </trkpt>
      <trkpt lat="40.441450" lon="-5.284300">
        <ele>2029.0</ele>
        <time>2013-05-11T12:16:28Z</time>
      </trkpt>
      <trkpt lat="40.441467" lon="-5.284383">
        <ele>2033.0</ele>
        <time>2013-05-11T12:16:29Z</time>
      </trkpt>
      <trkpt lat="40.441467" lon="-5.284467">
        <ele>2038.0</ele>
        <time>2013-05-11T12:16:30Z</time>
      </trkpt>
      <trkpt lat="40.441450" lon="-5.284533">
        <ele>2042.0</ele>
        <time>2013-05-11T12:16:31Z</time>
      </trkpt>
      <trkpt lat="40.441433" lon="-5.284600">
        <ele>2044.0</ele>
        <time>2013-05-11T12:16:32Z</time>
      </trkpt>
      <trkpt lat="40.441400" lon="-5.284683">
        <ele>2046.0</ele>
        <time>2013-05-11T12:16:33Z</time>
      </trkpt>
      <trkpt lat="40.441333" lon="-5.284783">
        <ele>2047.0</ele>
        <time>2013-05-11T12:16:34Z</time>
      </trkpt>
      <trkpt lat="40.441250" lon="-5.284883">
        <ele>2048.0</ele>
        <time>2013-05-11T12:16:35Z</time>
      </trkpt>
      <trkpt lat="40.441167" lon="-5.284950">
        <ele>2051.0</ele>
        <time>2013-05-11T12:16:36Z</time>
      </trkpt>
      <trkpt lat="40.441067" lon="-5.285000">
        <ele>2055.0</ele>
        <time>2013-05-11T12:16:37Z</time>
      </trkpt>
      <trkpt lat="40.440983" lon="-5.285017">
        <ele>2059.0</ele>
        <time>2013-05-11T12:16:38Z</time>
      </trkpt>
      <trkpt lat="40.440883" lon="-5.285017">
        <ele>2061.0</ele>
        <time>2013-05-11T12:16:39Z</time>
      </trkpt>
      <trkpt lat="40.440800" lon="-5.285000">
        <ele>2062.0</ele>
        <time>2013-05-11T12:16:40Z</time>
      </trkpt>
      <trkpt lat="40.440700" lon="-5.284950">
        <ele>2062.0</ele>
        <time>2013-05-11T12:16:41Z</time>
      </trkpt>
      <trkpt lat="40.440633" lon="-5.284867">
        <ele>2063.0</ele>
        <time>2013-05-11T12:16:42Z</time>
      </trkpt>
      <trkpt lat="40.440567" lon="-5.284750">
        <ele>2063.0</ele>
        <time>2013-05-11T12:16:43Z</time>
      </trkpt>
      <trkpt lat="40.440550" lon="-5.284617">
        <ele>2063.0</ele>
        <time>2013-05-11T12:16:44Z</time>
      </trkpt>
      <trkpt lat="40.440567" lon="-5.284483">
        <ele>2065.0</ele>
        <time>2013-05-11T12:16:45Z</time>
      </trkpt>
      <trkpt lat="40.440600" lon="-5.284383">
        <ele>2066.0</ele>
        <time>2013-05-11T12:16:46Z</time>
      </trkpt>
      <trkpt lat="40.440633" lon="-5.284300">
        <ele>2069.0</ele>
        <time>2013-05-11T12:16:47Z</time>
      </trkpt>
      <trkpt lat="40.440683" lon="-5.284233">
        <ele>2072.0</ele>
        <time>2013-05-11T12:16:48Z</time>
      </trkpt>
      <trkpt lat="40.440733" lon="-5.284183">
        <ele>2075.0</ele>
        <time>2013-05-11T12:16:49Z</time>
      </trkpt>
      <trkpt lat="40.440800" lon="-5.284133">
        <ele>2078.0</ele>
        <time>2013-05-11T12:16:50Z</time>
      </trkpt>
      <trkpt lat="40.440850" lon="-5.284100">
        <ele>2083.0</ele>
        <time>2013-05-11T12:16:51Z</time>
      </trkpt>
      <trkpt lat="40.440917" lon="-5.284083">
        <ele>2088.0</ele>
        <time>2013-05-11T12:16:52Z</time>
      </trkpt>
      <trkpt lat="40.440983" lon="-5.284050">
        <ele>2093.0</ele>
        <time>2013-05-11T12:16:53Z</time>
      </trkpt>
      <trkpt lat="40.441033" lon="-5.284033">
        <ele>2098.0</ele>
        <time>2013-05-11T12:16:54Z</time>
      </trkpt>
      <trkpt lat="40.441083" lon="-5.284000">
        <ele>2103.0</ele>
        <time>2013-05-11T12:16:55Z</time>
      </trkpt>
      <trkpt lat="40.441133" lon="-5.284017">
        <ele>2107.0</ele>
        <time>2013-05-11T12:16:56Z</time>
      </trkpt>
      <trkpt lat="40.441167" lon="-5.284050">
        <ele>2111.0</ele>
        <time>2013-05-11T12:16:57Z</time>
      </trkpt>
      <trkpt lat="40.441200" lon="-5.284100">
        <ele>2115.0</ele>
        <time>2013-05-11T12:16:58Z</time>
      </trkpt>
      <trkpt lat="40.441217" lon="-5.284183">
        <ele>2118.0</ele>
        <time>2013-05-11T12:16:59Z</time>
      </trkpt>
      <trkpt lat="40.441217" lon="-5.284250">
        <ele>2122.0</ele>
        <time>2013-05-11T12:17:00Z</time>
      </trkpt>
      <trkpt lat="40.441200" lon="-5.284333">
        <ele>2125.0</ele>
        <time>2013-05-11T12:17:01Z</time>
      </trkpt>
      <trkpt lat="40.441167" lon="-5.284417">
        <ele>2128.0</ele>
        <time>2013-05-11T12:17:02Z</time>
      </trkpt>
      <trkpt lat="40.441133" lon="-5.284500">
        <ele>2131.0</ele>
        <time>2013-05-11T12:17:03Z</time>
      </trkpt>
      <trkpt lat="40.441083" lon="-5.284600">
        <ele>2133.0</ele>
        <time>2013-05-11T12:17:04Z</time>
      </trkpt>
      <trkpt lat="40.441033" lon="-5.284700">
        <ele>2135.0</ele>
        <time>2013-05-11T12:17:05Z</time>
      </trkpt>
      <trkpt lat="40.440950" lon="-5.284800">
        <ele>2137.0</ele>
        <time>2013-05-11T12:17:06Z</time>
      </trkpt>
      <trkpt lat="40.440867" lon="-5.284867">
        <ele>2140.0</ele>
        <time>2013-05-11T12:17:07Z</time>
      </trkpt>
      <trkpt lat="40.440767" lon="-5.284917">
        <ele>2144.0</ele>
        <time>2013-05-11T12:17:08Z</time>
      </trkpt>
      <trkpt lat="40.440650" lon="-5.284950">
        <ele>2146.0</ele>
        <time>2013-05-11T12:17:09Z</time>
      </trkpt>
      <trkpt lat="40.440550" lon="-5.284967">
        <ele>2148.0</ele>
        <time>2013-05-11T12:17:10Z</time>
      </trkpt>
      <trkpt lat="40.440417" lon="-5.284967">
        <ele>2150.0</ele>
        <time>2013-05-11T12:17:11Z</time>
      </trkpt>
      <trkpt lat="40.440300" lon="-5.284967">
        <ele>2152.0</ele>
        <time>2013-05-11T12:17:12Z</time>
      </trkpt>
      <trkpt lat="40.440183" lon="-5.284917">
        <ele>2154.0</ele>
        <time>2013-05-11T12:17:13Z</time>
      </trkpt>
      <trkpt lat="40.440083" lon="-5.284833">
        <ele>2156.0</ele>
        <time>2013-05-11T12:17:14Z</time>
      </trkpt>
      <trkpt lat="40.440017" lon="-5.284717">
        <ele>2159.0</ele>
        <time>2013-05-11T12:17:15Z</time>
      </trkpt>
      <trkpt lat="40.439967" lon="-5.284600">
        <ele>2162.0</ele>
        <time>2013-05-11T12:17:16Z</time>
      </trkpt>
      <trkpt lat="40.439950" lon="-5.284483">
        <ele>2164.0</ele>
        <time>2013-05-11T12:17:17Z</time>
      </trkpt>
      <trkpt lat="40.439933" lon="-5.284383">
        <ele>2166.0</ele>
        <time>2013-05-11T12:17:18Z</time>
      </trkpt>
      <trkpt lat="40.439950" lon="-5.284267">
        <ele>2167.0</ele>
        <time>2013-05-11T12:17:19Z</time>
      </trkpt>
      <trkpt lat="40.439983" lon="-5.284167">
        <ele>2168.0</ele>
        <time>2013-05-11T12:17:20Z</time>
      </trkpt>
      <trkpt lat="40.440050" lon="-5.284083">
        <ele>2169.0</ele>
        <time>2013-05-11T12:17:21Z</time>
      </trkpt>
      <trkpt lat="40.440117" lon="-5.284033">
        <ele>2172.0</ele>
        <time>2013-05-11T12:17:22Z</time>
      </trkpt>
      <trkpt lat="40.440183" lon="-5.283983">
        <ele>2176.0</ele>
        <time>2013-05-11T12:17:23Z</time>
      </trkpt>
      <trkpt lat="40.440233" lon="-5.283950">
        <ele>2180.0</ele>
        <time>2013-05-11T12:17:24Z</time>
      </trkpt>
      <trkpt lat="40.440283" lon="-5.283917">
        <ele>2183.0</ele>
        <time>2013-05-11T12:17:25Z</time>
      </trkpt>
      <trkpt lat="40.440350" lon="-5.283917">
        <ele>2185.0</ele>
        <time>2013-05-11T12:17:26Z</time>
      </trkpt>
      <trkpt lat="40.440417" lon="-5.283933">
        <ele>2188.0</ele>
        <time>2013-05-11T12:17:27Z</time>
      </trkpt>
      <trkpt lat="40.440467" lon="-5.283967">
        <ele>2191.0</ele>
        <time>2013-05-11T12:17:28Z</time>
      </trkpt>
      <trkpt lat="40.440517" lon="-5.284033">
        <ele>2195.0</ele>
        <time>2013-05-11T12:17:29Z</time>
      </trkpt>
      <trkpt lat="40.440533" lon="-5.284083">
        <ele>2198.0</ele>
        <time>2013-05-11T12:17:30Z</time>
      </trkpt>
      <trkpt lat="40.440550" lon="-5.284150">
        <ele>2201.0</ele>
        <time>2013-05-11T12:17:31Z</time>
      </trkpt>
      <trkpt lat="40.440567" lon="-5.284217">
        <ele>2204.0</ele>
        <time>2013-05-11T12:17:32Z</time>
      </trkpt>
      <trkpt lat="40.440567" lon="-5.284317">
        <ele>2206.0</ele>
        <time>2013-05-11T12:17:33Z</time>
      </trkpt>
      <trkpt lat="40.440550" lon="-5.284433">
        <ele>2208.0</ele>
        <time>2013-05-11T12:17:34Z</time>
      </trkpt>
      <trkpt lat="40.440517" lon="-5.284533">
        <ele>2210.0</ele>
        <time>2013-05-11T12:17:35Z</time>
      </trkpt>
      <trkpt lat="40.440483" lon="-5.284617">
        <ele>2213.0</ele>
        <time>2013-05-11T12:17:36Z</time>
      </trkpt>
      <trkpt lat="40.440417" lon="-5.284683">
        <ele>2215.0</ele>
        <time>2013-05-11T12:17:37Z</time>
      </trkpt>
      <trkpt lat="40.440350" lon="-5.284767">
        <ele>2217.0</ele>
        <time>2013-05-11T12:17:38Z</time>
      </trkpt>
      <trkpt lat="40.440283" lon="-5.284833">
        <ele>2218.0</ele>
        <time>2013-05-11T12:17:39Z</time>
      </trkpt>
      <trkpt lat="40.440183" lon="-5.284900">
        <ele>2219.0</ele>
        <time>2013-05-11T12:17:40Z</time>
      </trkpt>
      <trkpt lat="40.440067" lon="-5.284933">
        <ele>2220.0</ele>
        <time>2013-05-11T12:17:41Z</time>
      </trkpt>
      <trkpt lat="40.439933" lon="-5.284933">
        <ele>2222.0</ele>
        <time>2013-05-11T12:17:42Z</time>
      </trkpt>
      <trkpt lat="40.439817" lon="-5.284883">
        <ele>2224.0</ele>
        <time>2013-05-11T12:17:43Z</time>
      </trkpt>
      <trkpt lat="40.439717" lon="-5.284783">
        <ele>2227.0</ele>
        <time>2013-05-11T12:17:44Z</time>
      </trkpt>
      <trkpt lat="40.439650" lon="-5.284650">
        <ele>2230.0</ele>
        <time>2013-05-11T12:17:45Z</time>
      </trkpt>
      <trkpt lat="40.439600" lon="-5.284533">
        <ele>2233.0</ele>
        <time>2013-05-11T12:17:46Z</time>
      </trkpt>
      <trkpt lat="40.439583" lon="-5.284400">
        <ele>2235.0</ele>
        <time>2013-05-11T12:17:47Z</time>
      </trkpt>
      <trkpt lat="40.439583" lon="-5.284300">
        <ele>2237.0</ele>
        <time>2013-05-11T12:17:48Z</time>
      </trkpt>
      <trkpt lat="40.439600" lon="-5.284200">
        <ele>2239.0</ele>
        <time>2013-05-11T12:17:49Z</time>
      </trkpt>
      <trkpt lat="40.439633" lon="-5.284117">
        <ele>2240.0</ele>
        <time>2013-05-11T12:17:50Z</time>
      </trkpt>
      <trkpt lat="40.439683" lon="-5.284050">
        <ele>2242.0</ele>
        <time>2013-05-11T12:17:51Z</time>
      </trkpt>
      <trkpt lat="40.439750" lon="-5.284000">
        <ele>2243.0</ele>
        <time>2013-05-11T12:17:52Z</time>
      </trkpt>
      <trkpt lat="40.439817" lon="-5.283967">
        <ele>2245.0</ele>
        <time>2013-05-11T12:17:53Z</time>
      </trkpt>
      <trkpt lat="40.439883" lon="-5.283967">
        <ele>2247.0</ele>
        <time>2013-05-11T12:17:54Z</time>
      </trkpt>
      <trkpt lat="40.439933" lon="-5.283983">
        <ele>2248.0</ele>
        <time>2013-05-11T12:17:55Z</time>
      </trkpt>
      <trkpt lat="40.439983" lon="-5.284033">
        <ele>2250.0</ele>
        <time>2013-05-11T12:17:56Z</time>
      </trkpt>
      <trkpt lat="40.440033" lon="-5.284100">
        <ele>2251.0</ele>
        <time>2013-05-11T12:17:57Z</time>
      </trkpt>
      <trkpt lat="40.440067" lon="-5.284183">
        <ele>2252.0</ele>
        <time>2013-05-11T12:17:58Z</time>
      </trkpt>
      <trkpt lat="40.440083" lon="-5.284283">
        <ele>2253.0</ele>
        <time>2013-05-11T12:17:59Z</time>
      </trkpt>
      <trkpt lat="40.440117" lon="-5.284383">
        <ele>2255.0</ele>
        <time>2013-05-11T12:18:00Z</time>
      </trkpt>
      <trkpt lat="40.440117" lon="-5.284467">
        <ele>2257.0</ele>
        <time>2013-05-11T12:18:01Z</time>
      </trkpt>
      <trkpt lat="40.440117" lon="-5.284567">
        <ele>2259.0</ele>
        <time>2013-05-11T12:18:02Z</time>
      </trkpt>
      <trkpt lat="40.440100" lon="-5.284683">
        <ele>2261.0</ele>
        <time>2013-05-11T12:18:03Z</time>
      </trkpt>
      <trkpt lat="40.440050" lon="-5.284800">
        <ele>2263.0</ele>
        <time>2013-05-11T12:18:04Z</time>
      </trkpt>
      <trkpt lat="40.439983" lon="-5.284917">
        <ele>2265.0</ele>
        <time>2013-05-11T12:18:05Z</time>
      </trkpt>
      <trkpt lat="40.439900" lon="-5.285000">
        <ele>2267.0</ele>
        <time>2013-05-11T12:18:06Z</time>
      </trkpt>
      <trkpt lat="40.439833" lon="-5.285067">
        <ele>2268.0</ele>
        <time>2013-05-11T12:18:07Z</time>
      </trkpt>
      <trkpt lat="40.439750" lon="-5.285117">
        <ele>2267.0</ele>
        <time>2013-05-11T12:18:08Z</time>
      </trkpt>
      <trkpt lat="40.439650" lon="-5.285167">
        <ele>2266.0</ele>
        <time>2013-05-11T12:18:09Z</time>
      </trkpt>
      <trkpt lat="40.439533" lon="-5.285217">
        <ele>2264.0</ele>
        <time>2013-05-11T12:18:10Z</time>
      </trkpt>
      <trkpt lat="40.439400" lon="-5.285267">
        <ele>2263.0</ele>
        <time>2013-05-11T12:18:11Z</time>
      </trkpt>
      <trkpt lat="40.439267" lon="-5.285283">
        <ele>2264.0</ele>
        <time>2013-05-11T12:18:12Z</time>
      </trkpt>
      <trkpt lat="40.439133" lon="-5.285250">
        <ele>2265.0</ele>
        <time>2013-05-11T12:18:13Z</time>
      </trkpt>
      <trkpt lat="40.439033" lon="-5.285183">
        <ele>2266.0</ele>
        <time>2013-05-11T12:18:14Z</time>
      </trkpt>
      <trkpt lat="40.438933" lon="-5.285083">
        <ele>2267.0</ele>
        <time>2013-05-11T12:18:15Z</time>
      </trkpt>
      <trkpt lat="40.438867" lon="-5.284983">
        <ele>2267.0</ele>
        <time>2013-05-11T12:18:16Z</time>
      </trkpt>
      <trkpt lat="40.438800" lon="-5.284867">
        <ele>2267.0</ele>
        <time>2013-05-11T12:18:17Z</time>
      </trkpt>
      <trkpt lat="40.438767" lon="-5.284733">
        <ele>2266.0</ele>
        <time>2013-05-11T12:18:18Z</time>
      </trkpt>
      <trkpt lat="40.438767" lon="-5.284600">
        <ele>2265.0</ele>
        <time>2013-05-11T12:18:19Z</time>
      </trkpt>
      <trkpt lat="40.438783" lon="-5.284467">
        <ele>2266.0</ele>
        <time>2013-05-11T12:18:20Z</time>
      </trkpt>
      <trkpt lat="40.438833" lon="-5.284367">
        <ele>2268.0</ele>
        <time>2013-05-11T12:18:21Z</time>
      </trkpt>
      <trkpt lat="40.438867" lon="-5.284283">
        <ele>2271.0</ele>
        <time>2013-05-11T12:18:22Z</time>
      </trkpt>
      <trkpt lat="40.438900" lon="-5.284217">
        <ele>2274.0</ele>
        <time>2013-05-11T12:18:23Z</time>
      </trkpt>
      <trkpt lat="40.438933" lon="-5.284150">
        <ele>2275.0</ele>
        <time>2013-05-11T12:18:24Z</time>
      </trkpt>
      <trkpt lat="40.439000" lon="-5.284083">
        <ele>2276.0</ele>
        <time>2013-05-11T12:18:25Z</time>
      </trkpt>
      <trkpt lat="40.439067" lon="-5.284033">
        <ele>2278.0</ele>
        <time>2013-05-11T12:18:26Z</time>
      </trkpt>
      <trkpt lat="40.439133" lon="-5.283983">
        <ele>2280.0</ele>
        <time>2013-05-11T12:18:27Z</time>
      </trkpt>
      <trkpt lat="40.439183" lon="-5.283967">
        <ele>2283.0</ele>
        <time>2013-05-11T12:18:28Z</time>
      </trkpt>
      <trkpt lat="40.439233" lon="-5.283950">
        <ele>2286.0</ele>
        <time>2013-05-11T12:18:29Z</time>
      </trkpt>
      <trkpt lat="40.439283" lon="-5.283933">
        <ele>2287.0</ele>
        <time>2013-05-11T12:18:30Z</time>
      </trkpt>
      <trkpt lat="40.439333" lon="-5.283950">
        <ele>2288.0</ele>
        <time>2013-05-11T12:18:31Z</time>
      </trkpt>
      <trkpt lat="40.439400" lon="-5.283950">
        <ele>2288.0</ele>
        <time>2013-05-11T12:18:32Z</time>
      </trkpt>
      <trkpt lat="40.439483" lon="-5.283983">
        <ele>2288.0</ele>
        <time>2013-05-11T12:18:33Z</time>
      </trkpt>
      <trkpt lat="40.439550" lon="-5.284033">
        <ele>2289.0</ele>
        <time>2013-05-11T12:18:34Z</time>
      </trkpt>
      <trkpt lat="40.439617" lon="-5.284067">
        <ele>2292.0</ele>
        <time>2013-05-11T12:18:35Z</time>
      </trkpt>
      <trkpt lat="40.439667" lon="-5.284100">
        <ele>2295.0</ele>
        <time>2013-05-11T12:18:36Z</time>
      </trkpt>
      <trkpt lat="40.439717" lon="-5.284133">
        <ele>2297.0</ele>
        <time>2013-05-11T12:18:37Z</time>
      </trkpt>
      <trkpt lat="40.439767" lon="-5.284150">
        <ele>2299.0</ele>
        <time>2013-05-11T12:18:38Z</time>
      </trkpt>
      <trkpt lat="40.439817" lon="-5.284167">
        <ele>2301.0</ele>
        <time>2013-05-11T12:18:39Z</time>
      </trkpt>
      <trkpt lat="40.439867" lon="-5.284200">
        <ele>2304.0</ele>
        <time>2013-05-11T12:18:40Z</time>
      </trkpt>
      <trkpt lat="40.439917" lon="-5.284250">
        <ele>2306.0</ele>
        <time>2013-05-11T12:18:41Z</time>
      </trkpt>
      <trkpt lat="40.439933" lon="-5.284333">
        <ele>2308.0</ele>
        <time>2013-05-11T12:18:42Z</time>
      </trkpt>
      <trkpt lat="40.439950" lon="-5.284433">
        <ele>2311.0</ele>
        <time>2013-05-11T12:18:43Z</time>
      </trkpt>
      <trkpt lat="40.439950" lon="-5.284533">
        <ele>2313.0</ele>
        <time>2013-05-11T12:18:44Z</time>
      </trkpt>
      <trkpt lat="40.439933" lon="-5.284633">
        <ele>2315.0</ele>
        <time>2013-05-11T12:18:45Z</time>
      </trkpt>
      <trkpt lat="40.439883" lon="-5.284750">
        <ele>2316.0</ele>
        <time>2013-05-11T12:18:46Z</time>
      </trkpt>
      <trkpt lat="40.439817" lon="-5.284850">
        <ele>2316.0</ele>
        <time>2013-05-11T12:18:47Z</time>
      </trkpt>
      <trkpt lat="40.439733" lon="-5.284950">
        <ele>2316.0</ele>
        <time>2013-05-11T12:18:48Z</time>
      </trkpt>
      <trkpt lat="40.439633" lon="-5.285033">
        <ele>2316.0</ele>
        <time>2013-05-11T12:18:49Z</time>
      </trkpt>
      <trkpt lat="40.439533" lon="-5.285100">
        <ele>2315.0</ele>
        <time>2013-05-11T12:18:50Z</time>
      </trkpt>
      <trkpt lat="40.439433" lon="-5.285100">
        <ele>2313.0</ele>
        <time>2013-05-11T12:18:51Z</time>
      </trkpt>
      <trkpt lat="40.439333" lon="-5.285067">
        <ele>2309.0</ele>
        <time>2013-05-11T12:18:52Z</time>
      </trkpt>
      <trkpt lat="40.439217" lon="-5.285017">
        <ele>2306.0</ele>
        <time>2013-05-11T12:18:53Z</time>
      </trkpt>
      <trkpt lat="40.439117" lon="-5.284950">
        <ele>2305.0</ele>
        <time>2013-05-11T12:18:54Z</time>
      </trkpt>
      <trkpt lat="40.439050" lon="-5.284867">
        <ele>2304.0</ele>
        <time>2013-05-11T12:18:55Z</time>
      </trkpt>
      <trkpt lat="40.438983" lon="-5.284767">
        <ele>2301.0</ele>
        <time>2013-05-11T12:18:56Z</time>
      </trkpt>
      <trkpt lat="40.438967" lon="-5.284633">
        <ele>2297.0</ele>
        <time>2013-05-11T12:18:57Z</time>
      </trkpt>
      <trkpt lat="40.438967" lon="-5.284483">
        <ele>2294.0</ele>
        <time>2013-05-11T12:18:58Z</time>
      </trkpt>
      <trkpt lat="40.439000" lon="-5.284367">
        <ele>2293.0</ele>
        <time>2013-05-11T12:18:59Z</time>
      </trkpt>
      <trkpt lat="40.439033" lon="-5.284267">
        <ele>2293.0</ele>
        <time>2013-05-11T12:19:00Z</time>
      </trkpt>
      <trkpt lat="40.439083" lon="-5.284183">
        <ele>2294.0</ele>
        <time>2013-05-11T12:19:01Z</time>
      </trkpt>
      <trkpt lat="40.439117" lon="-5.284100">
        <ele>2296.0</ele>
        <time>2013-05-11T12:19:02Z</time>
      </trkpt>
      <trkpt lat="40.439167" lon="-5.284017">
        <ele>2298.0</ele>
        <time>2013-05-11T12:19:03Z</time>
      </trkpt>
      <trkpt lat="40.439200" lon="-5.283950">
        <ele>2300.0</ele>
        <time>2013-05-11T12:19:04Z</time>
      </trkpt>
      <trkpt lat="40.439250" lon="-5.283883">
        <ele>2302.0</ele>
        <time>2013-05-11T12:19:05Z</time>
      </trkpt>
      <trkpt lat="40.439300" lon="-5.283833">
        <ele>2304.0</ele>
        <time>2013-05-11T12:19:06Z</time>
      </trkpt>
      <trkpt lat="40.439350" lon="-5.283800">
        <ele>2306.0</ele>
        <time>2013-05-11T12:19:07Z</time>
      </trkpt>
      <trkpt lat="40.439400" lon="-5.283767">
        <ele>2309.0</ele>
        <time>2013-05-11T12:19:08Z</time>
      </trkpt>
      <trkpt lat="40.439450" lon="-5.283733">
        <ele>2310.0</ele>
        <time>2013-05-11T12:19:09Z</time>
      </trkpt>
      <trkpt lat="40.439500" lon="-5.283700">
        <ele>2311.0</ele>
        <time>2013-05-11T12:19:10Z</time>
      </trkpt>
      <trkpt lat="40.439567" lon="-5.283667">
        <ele>2311.0</ele>
        <time>2013-05-11T12:19:11Z</time>
      </trkpt>
      <trkpt lat="40.439617" lon="-5.283650">
        <ele>2311.0</ele>
        <time>2013-05-11T12:19:12Z</time>
      </trkpt>
      <trkpt lat="40.439700" lon="-5.283617">
        <ele>2310.0</ele>
        <time>2013-05-11T12:19:13Z</time>
      </trkpt>
      <trkpt lat="40.439783" lon="-5.283583">
        <ele>2311.0</ele>
        <time>2013-05-11T12:19:14Z</time>
      </trkpt>
      <trkpt lat="40.439850" lon="-5.283533">
        <ele>2313.0</ele>
        <time>2013-05-11T12:19:15Z</time>
      </trkpt>
      <trkpt lat="40.439900" lon="-5.283483">
        <ele>2318.0</ele>
        <time>2013-05-11T12:19:16Z</time>
      </trkpt>
      <trkpt lat="40.439933" lon="-5.283467">
        <ele>2322.0</ele>
        <time>2013-05-11T12:19:17Z</time>
      </trkpt>
      <trkpt lat="40.439967" lon="-5.283433">
        <ele>2323.0</ele>
        <time>2013-05-11T12:19:18Z</time>
      </trkpt>
      <trkpt lat="40.440017" lon="-5.283417">
        <ele>2323.0</ele>
        <time>2013-05-11T12:19:19Z</time>
      </trkpt>
      <trkpt lat="40.440083" lon="-5.283367">
        <ele>2323.0</ele>
        <time>2013-05-11T12:19:20Z</time>
      </trkpt>
      <trkpt lat="40.440150" lon="-5.283317">
        <ele>2321.0</ele>
        <time>2013-05-11T12:19:21Z</time>
      </trkpt>
      <trkpt lat="40.440217" lon="-5.283267">
        <ele>2320.0</ele>
        <time>2013-05-11T12:19:22Z</time>
      </trkpt>
      <trkpt lat="40.440283" lon="-5.283233">
        <ele>2319.0</ele>
        <time>2013-05-11T12:19:23Z</time>
      </trkpt>
      <trkpt lat="40.440333" lon="-5.283200">
        <ele>2317.0</ele>
        <time>2013-05-11T12:19:24Z</time>
      </trkpt>
      <trkpt lat="40.440383" lon="-5.283167">
        <ele>2315.0</ele>
        <time>2013-05-11T12:19:25Z</time>
      </trkpt>
      <trkpt lat="40.440450" lon="-5.283117">
        <ele>2312.0</ele>
        <time>2013-05-11T12:19:26Z</time>
      </trkpt>
      <trkpt lat="40.440500" lon="-5.283067">
        <ele>2308.0</ele>
        <time>2013-05-11T12:19:27Z</time>
      </trkpt>
      <trkpt lat="40.440567" lon="-5.283017">
        <ele>2305.0</ele>
        <time>2013-05-11T12:19:28Z</time>
      </trkpt>
      <trkpt lat="40.440617" lon="-5.282950">
        <ele>2303.0</ele>
        <time>2013-05-11T12:19:29Z</time>
      </trkpt>
      <trkpt lat="40.440667" lon="-5.282900">
        <ele>2300.0</ele>
        <time>2013-05-11T12:19:30Z</time>
      </trkpt>
      <trkpt lat="40.440717" lon="-5.282817">
        <ele>2298.0</ele>
        <time>2013-05-11T12:19:31Z</time>
      </trkpt>
      <trkpt lat="40.440767" lon="-5.282750">
        <ele>2297.0</ele>
        <time>2013-05-11T12:19:32Z</time>
      </trkpt>
      <trkpt lat="40.440817" lon="-5.282700">
        <ele>2295.0</ele>
        <time>2013-05-11T12:19:33Z</time>
      </trkpt>
      <trkpt lat="40.440867" lon="-5.282633">
        <ele>2294.0</ele>
        <time>2013-05-11T12:19:34Z</time>
      </trkpt>
      <trkpt lat="40.440933" lon="-5.282583">
        <ele>2292.0</ele>
        <time>2013-05-11T12:19:35Z</time>
      </trkpt>
      <trkpt lat="40.440983" lon="-5.282533">
        <ele>2291.0</ele>
        <time>2013-05-11T12:19:36Z</time>
      </trkpt>
      <trkpt lat="40.441033" lon="-5.282483">
        <ele>2289.0</ele>
        <time>2013-05-11T12:19:37Z</time>
      </trkpt>
      <trkpt lat="40.441083" lon="-5.282417">
        <ele>2287.0</ele>
        <time>2013-05-11T12:19:38Z</time>
      </trkpt>
      <trkpt lat="40.441133" lon="-5.282367">
        <ele>2284.0</ele>
        <time>2013-05-11T12:19:39Z</time>
      </trkpt>
      <trkpt lat="40.441183" lon="-5.282317">
        <ele>2282.0</ele>
        <time>2013-05-11T12:19:40Z</time>
      </trkpt>
      <trkpt lat="40.441233" lon="-5.282267">
        <ele>2280.0</ele>
        <time>2013-05-11T12:19:41Z</time>
      </trkpt>
      <trkpt lat="40.441300" lon="-5.282200">
        <ele>2278.0</ele>
        <time>2013-05-11T12:19:42Z</time>
      </trkpt>
      <trkpt lat="40.441350" lon="-5.282133">
        <ele>2278.0</ele>
        <time>2013-05-11T12:19:43Z</time>
      </trkpt>
      <trkpt lat="40.441400" lon="-5.282083">
        <ele>2279.0</ele>
        <time>2013-05-11T12:19:44Z</time>
      </trkpt>
      <trkpt lat="40.441450" lon="-5.282050">
        <ele>2279.0</ele>
        <time>2013-05-11T12:19:45Z</time>
      </trkpt>
      <trkpt lat="40.441500" lon="-5.282017">
        <ele>2278.0</ele>
        <time>2013-05-11T12:19:46Z</time>
      </trkpt>
      <trkpt lat="40.441550" lon="-5.281983">
        <ele>2277.0</ele>
        <time>2013-05-11T12:19:47Z</time>
      </trkpt>
      <trkpt lat="40.441600" lon="-5.281933">
        <ele>2276.0</ele>
        <time>2013-05-11T12:19:48Z</time>
      </trkpt>
      <trkpt lat="40.441667" lon="-5.281883">
        <ele>2275.0</ele>
        <time>2013-05-11T12:19:49Z</time>
      </trkpt>
      <trkpt lat="40.441717" lon="-5.281833">
        <ele>2275.0</ele>
        <time>2013-05-11T12:19:50Z</time>
      </trkpt>
      <trkpt lat="40.441783" lon="-5.281767">
        <ele>2276.0</ele>
        <time>2013-05-11T12:19:51Z</time>
      </trkpt>
      <trkpt lat="40.441833" lon="-5.281717">
        <ele>2276.0</ele>
        <time>2013-05-11T12:19:52Z</time>
      </trkpt>
      <trkpt lat="40.441883" lon="-5.281667">
        <ele>2276.0</ele>
        <time>2013-05-11T12:19:53Z</time>
      </trkpt>
      <trkpt lat="40.441950" lon="-5.281600">
        <ele>2277.0</ele>
        <time>2013-05-11T12:19:54Z</time>
      </trkpt>
      <trkpt lat="40.442017" lon="-5.281517">
        <ele>2277.0</ele>
        <time>2013-05-11T12:19:55Z</time>
      </trkpt>
      <trkpt lat="40.442067" lon="-5.281433">
        <ele>2278.0</ele>
        <time>2013-05-11T12:19:56Z</time>
      </trkpt>
      <trkpt lat="40.442133" lon="-5.281333">
        <ele>2279.0</ele>
        <time>2013-05-11T12:19:57Z</time>
      </trkpt>
      <trkpt lat="40.442183" lon="-5.281250">
        <ele>2281.0</ele>
        <time>2013-05-11T12:19:58Z</time>
      </trkpt>
      <trkpt lat="40.442233" lon="-5.281167">
        <ele>2282.0</ele>
        <time>2013-05-11T12:19:59Z</time>
      </trkpt>
      <trkpt lat="40.442283" lon="-5.281083">
        <ele>2283.0</ele>
        <time>2013-05-11T12:20:00Z</time>
      </trkpt>
      <trkpt lat="40.442333" lon="-5.280983">
        <ele>2283.0</ele>
        <time>2013-05-11T12:20:01Z</time>
      </trkpt>
      <trkpt lat="40.442383" lon="-5.280900">
        <ele>2283.0</ele>
        <time>2013-05-11T12:20:02Z</time>
      </trkpt>
      <trkpt lat="40.442450" lon="-5.280783">
        <ele>2284.0</ele>
        <time>2013-05-11T12:20:03Z</time>
      </trkpt>
      <trkpt lat="40.442517" lon="-5.280650">
        <ele>2286.0</ele>
        <time>2013-05-11T12:20:04Z</time>
      </trkpt>
      <trkpt lat="40.442567" lon="-5.280517">
        <ele>2290.0</ele>
        <time>2013-05-11T12:20:05Z</time>
      </trkpt>
      <trkpt lat="40.442600" lon="-5.280400">
        <ele>2296.0</ele>
        <time>2013-05-11T12:20:06Z</time>
      </trkpt>
      <trkpt lat="40.442633" lon="-5.280300">
        <ele>2300.0</ele>
        <time>2013-05-11T12:20:07Z</time>
      </trkpt>
      <trkpt lat="40.442650" lon="-5.280200">
        <ele>2302.0</ele>
        <time>2013-05-11T12:20:08Z</time>
      </trkpt>
      <trkpt lat="40.442683" lon="-5.280117">
        <ele>2304.0</ele>
        <time>2013-05-11T12:20:09Z</time>
      </trkpt>
      <trkpt lat="40.442733" lon="-5.280050">
        <ele>2304.0</ele>
        <time>2013-05-11T12:20:10Z</time>
      </trkpt>
      <trkpt lat="40.442817" lon="-5.280017">
        <ele>2304.0</ele>
        <time>2013-05-11T12:20:11Z</time>
      </trkpt>
      <trkpt lat="40.442900" lon="-5.279983">
        <ele>2305.0</ele>
        <time>2013-05-11T12:20:12Z</time>
      </trkpt>
      <trkpt lat="40.442983" lon="-5.279933">
        <ele>2309.0</ele>
        <time>2013-05-11T12:20:13Z</time>
      </trkpt>
      <trkpt lat="40.443050" lon="-5.279900">
        <ele>2312.0</ele>
        <time>2013-05-11T12:20:14Z</time>
      </trkpt>
      <trkpt lat="40.443133" lon="-5.279833">
        <ele>2314.0</ele>
        <time>2013-05-11T12:20:15Z</time>
      </trkpt>
      <trkpt lat="40.443200" lon="-5.279767">
        <ele>2317.0</ele>
        <time>2013-05-11T12:20:16Z</time>
      </trkpt>
      <trkpt lat="40.443250" lon="-5.279700">
        <ele>2319.0</ele>
        <time>2013-05-11T12:20:17Z</time>
      </trkpt>
      <trkpt lat="40.443300" lon="-5.279633">
        <ele>2322.0</ele>
        <time>2013-05-11T12:20:18Z</time>
      </trkpt>
      <trkpt lat="40.443333" lon="-5.279550">
        <ele>2324.0</ele>
        <time>2013-05-11T12:20:19Z</time>
      </trkpt>
      <trkpt lat="40.443367" lon="-5.279467">
        <ele>2325.0</ele>
        <time>2013-05-11T12:20:20Z</time>
      </trkpt>
      <trkpt lat="40.443383" lon="-5.279367">
        <ele>2325.0</ele>
        <time>2013-05-11T12:20:21Z</time>
      </trkpt>
      <trkpt lat="40.443417" lon="-5.279283">
        <ele>2325.0</ele>
        <time>2013-05-11T12:20:22Z</time>
      </trkpt>
      <trkpt lat="40.443450" lon="-5.279183">
        <ele>2325.0</ele>
        <time>2013-05-11T12:20:23Z</time>
      </trkpt>
      <trkpt lat="40.443467" lon="-5.279100">
        <ele>2323.0</ele>
        <time>2013-05-11T12:20:24Z</time>
      </trkpt>
      <trkpt lat="40.443500" lon="-5.279017">
        <ele>2321.0</ele>
        <time>2013-05-11T12:20:25Z</time>
      </trkpt>
      <trkpt lat="40.443533" lon="-5.278900">
        <ele>2319.0</ele>
        <time>2013-05-11T12:20:26Z</time>
      </trkpt>
      <trkpt lat="40.443583" lon="-5.278783">
        <ele>2318.0</ele>
        <time>2013-05-11T12:20:27Z</time>
      </trkpt>
      <trkpt lat="40.443617" lon="-5.278683">
        <ele>2318.0</ele>
        <time>2013-05-11T12:20:28Z</time>
      </trkpt>
      <trkpt lat="40.443650" lon="-5.278600">
        <ele>2318.0</ele>
        <time>2013-05-11T12:20:29Z</time>
      </trkpt>
      <trkpt lat="40.443683" lon="-5.278517">
        <ele>2318.0</ele>
        <time>2013-05-11T12:20:30Z</time>
      </trkpt>
      <trkpt lat="40.443733" lon="-5.278450">
        <ele>2317.0</ele>
        <time>2013-05-11T12:20:31Z</time>
      </trkpt>
      <trkpt lat="40.443783" lon="-5.278367">
        <ele>2315.0</ele>
        <time>2013-05-11T12:20:32Z</time>
      </trkpt>
      <trkpt lat="40.443833" lon="-5.278267">
        <ele>2313.0</ele>
        <time>2013-05-11T12:20:33Z</time>
      </trkpt>
      <trkpt lat="40.443900" lon="-5.278183">
        <ele>2312.0</ele>
        <time>2013-05-11T12:20:34Z</time>
      </trkpt>
      <trkpt lat="40.443950" lon="-5.278100">
        <ele>2312.0</ele>
        <time>2013-05-11T12:20:35Z</time>
      </trkpt>
      <trkpt lat="40.444000" lon="-5.278000">
        <ele>2312.0</ele>
        <time>2013-05-11T12:20:36Z</time>
      </trkpt>
      <trkpt lat="40.444033" lon="-5.277917">
        <ele>2311.0</ele>
        <time>2013-05-11T12:20:37Z</time>
      </trkpt>
      <trkpt lat="40.444083" lon="-5.277833">
        <ele>2310.0</ele>
        <time>2013-05-11T12:20:38Z</time>
      </trkpt>
      <trkpt lat="40.444133" lon="-5.277733">
        <ele>2308.0</ele>
        <time>2013-05-11T12:20:39Z</time>
      </trkpt>
      <trkpt lat="40.444183" lon="-5.277633">
        <ele>2307.0</ele>
        <time>2013-05-11T12:20:40Z</time>
      </trkpt>
      <trkpt lat="40.444233" lon="-5.277550">
        <ele>2305.0</ele>
        <time>2013-05-11T12:20:41Z</time>
      </trkpt>
      <trkpt lat="40.444283" lon="-5.277450">
        <ele>2305.0</ele>
        <time>2013-05-11T12:20:42Z</time>
      </trkpt>
      <trkpt lat="40.444333" lon="-5.277367">
        <ele>2304.0</ele>
        <time>2013-05-11T12:20:43Z</time>
      </trkpt>
      <trkpt lat="40.444383" lon="-5.277267">
        <ele>2303.0</ele>
        <time>2013-05-11T12:20:44Z</time>
      </trkpt>
      <trkpt lat="40.444433" lon="-5.277167">
        <ele>2301.0</ele>
        <time>2013-05-11T12:20:45Z</time>
      </trkpt>
      <trkpt lat="40.444483" lon="-5.277067">
        <ele>2300.0</ele>
        <time>2013-05-11T12:20:46Z</time>
      </trkpt>
      <trkpt lat="40.444517" lon="-5.276967">
        <ele>2299.0</ele>
        <time>2013-05-11T12:20:47Z</time>
      </trkpt>
      <trkpt lat="40.444567" lon="-5.276867">
        <ele>2298.0</ele>
        <time>2013-05-11T12:20:48Z</time>
      </trkpt>
      <trkpt lat="40.444617" lon="-5.276783">
        <ele>2297.0</ele>
        <time>2013-05-11T12:20:49Z</time>
      </trkpt>
      <trkpt lat="40.444683" lon="-5.276683">
        <ele>2295.0</ele>
        <time>2013-05-11T12:20:50Z</time>
      </trkpt>
      <trkpt lat="40.444733" lon="-5.276583">
        <ele>2294.0</ele>
        <time>2013-05-11T12:20:51Z</time>
      </trkpt>
      <trkpt lat="40.444800" lon="-5.276467">
        <ele>2293.0</ele>
        <time>2013-05-11T12:20:52Z</time>
      </trkpt>
      <trkpt lat="40.444850" lon="-5.276367">
        <ele>2292.0</ele>
        <time>2013-05-11T12:20:53Z</time>
      </trkpt>
      <trkpt lat="40.444900" lon="-5.276283">
        <ele>2291.0</ele>
        <time>2013-05-11T12:20:54Z</time>
      </trkpt>
      <trkpt lat="40.444967" lon="-5.276183">
        <ele>2289.0</ele>
        <time>2013-05-11T12:20:55Z</time>
      </trkpt>
      <trkpt lat="40.445017" lon="-5.276100">
        <ele>2286.0</ele>
        <time>2013-05-11T12:20:56Z</time>
      </trkpt>
      <trkpt lat="40.445083" lon="-5.276000">
        <ele>2283.0</ele>
        <time>2013-05-11T12:20:57Z</time>
      </trkpt>
      <trkpt lat="40.445150" lon="-5.275883">
        <ele>2281.0</ele>
        <time>2013-05-11T12:20:58Z</time>
      </trkpt>
      <trkpt lat="40.445217" lon="-5.275767">
        <ele>2281.0</ele>
        <time>2013-05-11T12:20:59Z</time>
      </trkpt>
      <trkpt lat="40.445283" lon="-5.275667">
        <ele>2282.0</ele>
        <time>2013-05-11T12:21:00Z</time>
      </trkpt>
      <trkpt lat="40.445333" lon="-5.275550">
        <ele>2284.0</ele>
        <time>2013-05-11T12:21:01Z</time>
      </trkpt>
      <trkpt lat="40.445367" lon="-5.275450">
        <ele>2286.0</ele>
        <time>2013-05-11T12:21:02Z</time>
      </trkpt>
      <trkpt lat="40.445383" lon="-5.275317">
        <ele>2287.0</ele>
        <time>2013-05-11T12:21:03Z</time>
      </trkpt>
      <trkpt lat="40.445400" lon="-5.275183">
        <ele>2287.0</ele>
        <time>2013-05-11T12:21:04Z</time>
      </trkpt>
      <trkpt lat="40.445417" lon="-5.275050">
        <ele>2287.0</ele>
        <time>2013-05-11T12:21:05Z</time>
      </trkpt>
      <trkpt lat="40.445433" lon="-5.274917">
        <ele>2287.0</ele>
        <time>2013-05-11T12:21:06Z</time>
      </trkpt>
      <trkpt lat="40.445450" lon="-5.274783">
        <ele>2288.0</ele>
        <time>2013-05-11T12:21:07Z</time>
      </trkpt>
      <trkpt lat="40.445467" lon="-5.274633">
        <ele>2287.0</ele>
        <time>2013-05-11T12:21:08Z</time>
      </trkpt>
      <trkpt lat="40.445483" lon="-5.274500">
        <ele>2288.0</ele>
        <time>2013-05-11T12:21:09Z</time>
      </trkpt>
      <trkpt lat="40.445533" lon="-5.274367">
        <ele>2288.0</ele>
        <time>2013-05-11T12:21:10Z</time>
      </trkpt>
      <trkpt lat="40.445583" lon="-5.274233">
        <ele>2289.0</ele>
        <time>2013-05-11T12:21:11Z</time>
      </trkpt>
      <trkpt lat="40.445633" lon="-5.274100">
        <ele>2290.0</ele>
        <time>2013-05-11T12:21:12Z</time>
      </trkpt>
      <trkpt lat="40.445667" lon="-5.273967">
        <ele>2292.0</ele>
        <time>2013-05-11T12:21:13Z</time>
      </trkpt>
      <trkpt lat="40.445700" lon="-5.273850">
        <ele>2293.0</ele>
        <time>2013-05-11T12:21:14Z</time>
      </trkpt>
      <trkpt lat="40.445733" lon="-5.273750">
        <ele>2293.0</ele>
        <time>2013-05-11T12:21:15Z</time>
      </trkpt>
      <trkpt lat="40.445783" lon="-5.273667">
        <ele>2293.0</ele>
        <time>2013-05-11T12:21:16Z</time>
      </trkpt>
      <trkpt lat="40.445850" lon="-5.273583">
        <ele>2293.0</ele>
        <time>2013-05-11T12:21:17Z</time>
      </trkpt>
      <trkpt lat="40.445917" lon="-5.273500">
        <ele>2293.0</ele>
        <time>2013-05-11T12:21:18Z</time>
      </trkpt>
      <trkpt lat="40.445967" lon="-5.273417">
        <ele>2293.0</ele>
        <time>2013-05-11T12:21:19Z</time>
      </trkpt>
      <trkpt lat="40.446000" lon="-5.273333">
        <ele>2293.0</ele>
        <time>2013-05-11T12:21:20Z</time>
      </trkpt>
      <trkpt lat="40.446033" lon="-5.273267">
        <ele>2293.0</ele>
        <time>2013-05-11T12:21:21Z</time>
      </trkpt>
      <trkpt lat="40.446067" lon="-5.273200">
        <ele>2291.0</ele>
        <time>2013-05-11T12:21:22Z</time>
      </trkpt>
      <trkpt lat="40.446117" lon="-5.273117">
        <ele>2288.0</ele>
        <time>2013-05-11T12:21:23Z</time>
      </trkpt>
      <trkpt lat="40.446183" lon="-5.273033">
        <ele>2285.0</ele>
        <time>2013-05-11T12:21:24Z</time>
      </trkpt>
      <trkpt lat="40.446250" lon="-5.272950">
        <ele>2283.0</ele>
        <time>2013-05-11T12:21:25Z</time>
      </trkpt>
      <trkpt lat="40.446317" lon="-5.272867">
        <ele>2284.0</ele>
        <time>2013-05-11T12:21:26Z</time>
      </trkpt>
      <trkpt lat="40.446350" lon="-5.272800">
        <ele>2285.0</ele>
        <time>2013-05-11T12:21:27Z</time>
      </trkpt>
      <trkpt lat="40.446383" lon="-5.272750">
        <ele>2284.0</ele>
        <time>2013-05-11T12:21:28Z</time>
      </trkpt>
      <trkpt lat="40.446433" lon="-5.272683">
        <ele>2283.0</ele>
        <time>2013-05-11T12:21:29Z</time>
      </trkpt>
      <trkpt lat="40.446483" lon="-5.272617">
        <ele>2282.0</ele>
        <time>2013-05-11T12:21:30Z</time>
      </trkpt>
      <trkpt lat="40.446550" lon="-5.272550">
        <ele>2282.0</ele>
        <time>2013-05-11T12:21:31Z</time>
      </trkpt>
      <trkpt lat="40.446600" lon="-5.272467">
        <ele>2284.0</ele>
        <time>2013-05-11T12:21:32Z</time>
      </trkpt>
      <trkpt lat="40.446650" lon="-5.272400">
        <ele>2285.0</ele>
        <time>2013-05-11T12:21:33Z</time>
      </trkpt>
      <trkpt lat="40.446700" lon="-5.272350">
        <ele>2286.0</ele>
        <time>2013-05-11T12:21:34Z</time>
      </trkpt>
      <trkpt lat="40.446767" lon="-5.272300">
        <ele>2286.0</ele>
        <time>2013-05-11T12:21:35Z</time>
      </trkpt>
      <trkpt lat="40.446817" lon="-5.272233">
        <ele>2284.0</ele>
        <time>2013-05-11T12:21:36Z</time>
      </trkpt>
      <trkpt lat="40.446883" lon="-5.272167">
        <ele>2283.0</ele>
        <time>2013-05-11T12:21:37Z</time>
      </trkpt>
      <trkpt lat="40.446933" lon="-5.272100">
        <ele>2281.0</ele>
        <time>2013-05-11T12:21:38Z</time>
      </trkpt>
      <trkpt lat="40.447000" lon="-5.272033">
        <ele>2280.0</ele>
        <time>2013-05-11T12:21:39Z</time>
      </trkpt>
      <trkpt lat="40.447050" lon="-5.271950">
        <ele>2279.0</ele>
        <time>2013-05-11T12:21:40Z</time>
      </trkpt>
      <trkpt lat="40.447083" lon="-5.271867">
        <ele>2277.0</ele>
        <time>2013-05-11T12:21:41Z</time>
      </trkpt>
      <trkpt lat="40.447133" lon="-5.271783">
        <ele>2276.0</ele>
        <time>2013-05-11T12:21:42Z</time>
      </trkpt>
      <trkpt lat="40.447183" lon="-5.271717">
        <ele>2274.0</ele>
        <time>2013-05-11T12:21:43Z</time>
      </trkpt>
      <trkpt lat="40.447233" lon="-5.271633">
        <ele>2271.0</ele>
        <time>2013-05-11T12:21:44Z</time>
      </trkpt>
      <trkpt lat="40.447283" lon="-5.271550">
        <ele>2269.0</ele>
        <time>2013-05-11T12:21:45Z</time>
      </trkpt>
      <trkpt lat="40.447333" lon="-5.271467">
        <ele>2266.0</ele>
        <time>2013-05-11T12:21:46Z</time>
      </trkpt>
      <trkpt lat="40.447400" lon="-5.271367">
        <ele>2264.0</ele>
        <time>2013-05-11T12:21:47Z</time>
      </trkpt>
      <trkpt lat="40.447450" lon="-5.271300">
        <ele>2262.0</ele>
        <time>2013-05-11T12:21:48Z</time>
      </trkpt>
      <trkpt lat="40.447517" lon="-5.271233">
        <ele>2261.0</ele>
        <time>2013-05-11T12:21:49Z</time>
      </trkpt>
      <trkpt lat="40.447567" lon="-5.271150">
        <ele>2260.0</ele>
        <time>2013-05-11T12:21:50Z</time>
      </trkpt>
      <trkpt lat="40.447633" lon="-5.271067">
        <ele>2258.0</ele>
        <time>2013-05-11T12:21:51Z</time>
      </trkpt>
      <trkpt lat="40.447700" lon="-5.270983">
        <ele>2256.0</ele>
        <time>2013-05-11T12:21:52Z</time>
      </trkpt>
      <trkpt lat="40.447767" lon="-5.270900">
        <ele>2254.0</ele>
        <time>2013-05-11T12:21:53Z</time>
      </trkpt>
      <trkpt lat="40.447833" lon="-5.270817">
        <ele>2253.0</ele>
        <time>2013-05-11T12:21:54Z</time>
      </trkpt>
      <trkpt lat="40.447900" lon="-5.270750">
        <ele>2252.0</ele>
        <time>2013-05-11T12:21:55Z</time>
      </trkpt>
      <trkpt lat="40.447967" lon="-5.270683">
        <ele>2252.0</ele>
        <time>2013-05-11T12:21:56Z</time>
      </trkpt>
      <trkpt lat="40.448017" lon="-5.270617">
        <ele>2251.0</ele>
        <time>2013-05-11T12:21:57Z</time>
      </trkpt>
      <trkpt lat="40.448067" lon="-5.270567">
        <ele>2250.0</ele>
        <time>2013-05-11T12:21:58Z</time>
      </trkpt>
      <trkpt lat="40.448117" lon="-5.270517">
        <ele>2247.0</ele>
        <time>2013-05-11T12:21:59Z</time>
      </trkpt>
      <trkpt lat="40.448200" lon="-5.270467">
        <ele>2244.0</ele>
        <time>2013-05-11T12:22:00Z</time>
      </trkpt>
      <trkpt lat="40.448267" lon="-5.270400">
        <ele>2242.0</ele>
        <time>2013-05-11T12:22:01Z</time>
      </trkpt>
      <trkpt lat="40.448333" lon="-5.270350">
        <ele>2241.0</ele>
        <time>2013-05-11T12:22:02Z</time>
      </trkpt>
      <trkpt lat="40.448400" lon="-5.270300">
        <ele>2239.0</ele>
        <time>2013-05-11T12:22:03Z</time>
      </trkpt>
      <trkpt lat="40.448467" lon="-5.270233">
        <ele>2238.0</ele>
        <time>2013-05-11T12:22:04Z</time>
      </trkpt>
      <trkpt lat="40.448517" lon="-5.270167">
        <ele>2236.0</ele>
        <time>2013-05-11T12:22:05Z</time>
      </trkpt>
      <trkpt lat="40.448583" lon="-5.270100">
        <ele>2234.0</ele>
        <time>2013-05-11T12:22:06Z</time>
      </trkpt>
      <trkpt lat="40.448650" lon="-5.270033">
        <ele>2231.0</ele>
        <time>2013-05-11T12:22:07Z</time>
      </trkpt>
      <trkpt lat="40.448700" lon="-5.269950">
        <ele>2228.0</ele>
        <time>2013-05-11T12:22:08Z</time>
      </trkpt>
      <trkpt lat="40.448767" lon="-5.269867">
        <ele>2226.0</ele>
        <time>2013-05-11T12:22:09Z</time>
      </trkpt>
      <trkpt lat="40.448817" lon="-5.269767">
        <ele>2224.0</ele>
        <time>2013-05-11T12:22:10Z</time>
      </trkpt>
      <trkpt lat="40.448883" lon="-5.269700">
        <ele>2223.0</ele>
        <time>2013-05-11T12:22:11Z</time>
      </trkpt>
      <trkpt lat="40.448933" lon="-5.269617">
        <ele>2222.0</ele>
        <time>2013-05-11T12:22:12Z</time>
      </trkpt>
      <trkpt lat="40.448967" lon="-5.269550">
        <ele>2220.0</ele>
        <time>2013-05-11T12:22:13Z</time>
      </trkpt>
      <trkpt lat="40.449000" lon="-5.269483">
        <ele>2217.0</ele>
        <time>2013-05-11T12:22:14Z</time>
      </trkpt>
      <trkpt lat="40.449050" lon="-5.269383">
        <ele>2214.0</ele>
        <time>2013-05-11T12:22:15Z</time>
      </trkpt>
      <trkpt lat="40.449100" lon="-5.269300">
        <ele>2211.0</ele>
        <time>2013-05-11T12:22:16Z</time>
      </trkpt>
      <trkpt lat="40.449150" lon="-5.269233">
        <ele>2208.0</ele>
        <time>2013-05-11T12:22:17Z</time>
      </trkpt>
      <trkpt lat="40.449217" lon="-5.269167">
        <ele>2206.0</ele>
        <time>2013-05-11T12:22:18Z</time>
      </trkpt>
      <trkpt lat="40.449267" lon="-5.269083">
        <ele>2204.0</ele>
        <time>2013-05-11T12:22:19Z</time>
      </trkpt>
      <trkpt lat="40.449317" lon="-5.269000">
        <ele>2202.0</ele>
        <time>2013-05-11T12:22:20Z</time>
      </trkpt>
      <trkpt lat="40.449367" lon="-5.268917">
        <ele>2200.0</ele>
        <time>2013-05-11T12:22:21Z</time>
      </trkpt>
      <trkpt lat="40.449417" lon="-5.268833">
        <ele>2198.0</ele>
        <time>2013-05-11T12:22:22Z</time>
      </trkpt>
      <trkpt lat="40.449467" lon="-5.268750">
        <ele>2196.0</ele>
        <time>2013-05-11T12:22:23Z</time>
      </trkpt>
      <trkpt lat="40.449517" lon="-5.268667">
        <ele>2194.0</ele>
        <time>2013-05-11T12:22:24Z</time>
      </trkpt>
      <trkpt lat="40.449567" lon="-5.268583">
        <ele>2192.0</ele>
        <time>2013-05-11T12:22:25Z</time>
      </trkpt>
      <trkpt lat="40.449617" lon="-5.268500">
        <ele>2190.0</ele>
        <time>2013-05-11T12:22:26Z</time>
      </trkpt>
      <trkpt lat="40.449667" lon="-5.268400">
        <ele>2189.0</ele>
        <time>2013-05-11T12:22:27Z</time>
      </trkpt>
      <trkpt lat="40.449717" lon="-5.268317">
        <ele>2187.0</ele>
        <time>2013-05-11T12:22:28Z</time>
      </trkpt>
      <trkpt lat="40.449783" lon="-5.268233">
        <ele>2186.0</ele>
        <time>2013-05-11T12:22:29Z</time>
      </trkpt>
      <trkpt lat="40.449833" lon="-5.268167">
        <ele>2184.0</ele>
        <time>2013-05-11T12:22:30Z</time>
      </trkpt>
      <trkpt lat="40.449883" lon="-5.268083">
        <ele>2182.0</ele>
        <time>2013-05-11T12:22:31Z</time>
      </trkpt>
      <trkpt lat="40.449933" lon="-5.268017">
        <ele>2179.0</ele>
        <time>2013-05-11T12:22:32Z</time>
      </trkpt>
      <trkpt lat="40.449983" lon="-5.267917">
        <ele>2175.0</ele>
        <time>2013-05-11T12:22:33Z</time>
      </trkpt>
      <trkpt lat="40.450033" lon="-5.267817">
        <ele>2173.0</ele>
        <time>2013-05-11T12:22:34Z</time>
      </trkpt>
      <trkpt lat="40.450067" lon="-5.267717">
        <ele>2171.0</ele>
        <time>2013-05-11T12:22:35Z</time>
      </trkpt>
      <trkpt lat="40.450117" lon="-5.267633">
        <ele>2171.0</ele>
        <time>2013-05-11T12:22:36Z</time>
      </trkpt>
      <trkpt lat="40.450150" lon="-5.267583">
        <ele>2169.0</ele>
        <time>2013-05-11T12:22:37Z</time>
      </trkpt>
      <trkpt lat="40.450200" lon="-5.267550">
        <ele>2168.0</ele>
        <time>2013-05-11T12:22:38Z</time>
      </trkpt>
      <trkpt lat="40.450250" lon="-5.267500">
        <ele>2167.0</ele>
        <time>2013-05-11T12:22:39Z</time>
      </trkpt>
      <trkpt lat="40.450300" lon="-5.267467">
        <ele>2165.0</ele>
        <time>2013-05-11T12:22:40Z</time>
      </trkpt>
      <trkpt lat="40.450367" lon="-5.267417">
        <ele>2166.0</ele>
        <time>2013-05-11T12:22:41Z</time>
      </trkpt>
      <trkpt lat="40.450417" lon="-5.267367">
        <ele>2166.0</ele>
        <time>2013-05-11T12:22:42Z</time>
      </trkpt>
      <trkpt lat="40.450467" lon="-5.267317">
        <ele>2168.0</ele>
        <time>2013-05-11T12:22:43Z</time>
      </trkpt>
      <trkpt lat="40.450533" lon="-5.267267">
        <ele>2169.0</ele>
        <time>2013-05-11T12:22:44Z</time>
      </trkpt>
      <trkpt lat="40.450567" lon="-5.267217">
        <ele>2169.0</ele>
        <time>2013-05-11T12:22:45Z</time>
      </trkpt>
      <trkpt lat="40.450617" lon="-5.267150">
        <ele>2169.0</ele>
        <time>2013-05-11T12:22:46Z</time>
      </trkpt>
      <trkpt lat="40.450667" lon="-5.267083">
        <ele>2169.0</ele>
        <time>2013-05-11T12:22:47Z</time>
      </trkpt>
      <trkpt lat="40.450717" lon="-5.267033">
        <ele>2167.0</ele>
        <time>2013-05-11T12:22:48Z</time>
      </trkpt>
      <trkpt lat="40.450767" lon="-5.266967">
        <ele>2165.0</ele>
        <time>2013-05-11T12:22:49Z</time>
      </trkpt>
      <trkpt lat="40.450800" lon="-5.266900">
        <ele>2164.0</ele>
        <time>2013-05-11T12:22:50Z</time>
      </trkpt>
      <trkpt lat="40.450850" lon="-5.266833">
        <ele>2162.0</ele>
        <time>2013-05-11T12:22:51Z</time>
      </trkpt>
      <trkpt lat="40.450883" lon="-5.266767">
        <ele>2161.0</ele>
        <time>2013-05-11T12:22:52Z</time>
      </trkpt>
      <trkpt lat="40.450933" lon="-5.266683">
        <ele>2159.0</ele>
        <time>2013-05-11T12:22:53Z</time>
      </trkpt>
      <trkpt lat="40.450983" lon="-5.266583">
        <ele>2159.0</ele>
        <time>2013-05-11T12:22:54Z</time>
      </trkpt>
      <trkpt lat="40.451033" lon="-5.266500">
        <ele>2158.0</ele>
        <time>2013-05-11T12:22:55Z</time>
      </trkpt>
      <trkpt lat="40.451083" lon="-5.266400">
        <ele>2157.0</ele>
        <time>2013-05-11T12:22:56Z</time>
      </trkpt>
      <trkpt lat="40.451133" lon="-5.266300">
        <ele>2154.0</ele>
        <time>2013-05-11T12:22:57Z</time>
      </trkpt>
      <trkpt lat="40.451183" lon="-5.266200">
        <ele>2152.0</ele>
        <time>2013-05-11T12:22:58Z</time>
      </trkpt>
      <trkpt lat="40.451233" lon="-5.266100">
        <ele>2150.0</ele>
        <time>2013-05-11T12:22:59Z</time>
      </trkpt>
      <trkpt lat="40.451283" lon="-5.265983">
        <ele>2147.0</ele>
        <time>2013-05-11T12:23:00Z</time>
      </trkpt>
      <trkpt lat="40.451333" lon="-5.265867">
        <ele>2145.0</ele>
        <time>2013-05-11T12:23:01Z</time>
      </trkpt>
      <trkpt lat="40.451367" lon="-5.265767">
        <ele>2143.0</ele>
        <time>2013-05-11T12:23:02Z</time>
      </trkpt>
      <trkpt lat="40.451417" lon="-5.265650">
        <ele>2141.0</ele>
        <time>2013-05-11T12:23:03Z</time>
      </trkpt>
      <trkpt lat="40.451467" lon="-5.265550">
        <ele>2137.0</ele>
        <time>2013-05-11T12:23:04Z</time>
      </trkpt>
      <trkpt lat="40.451517" lon="-5.265417">
        <ele>2135.0</ele>
        <time>2013-05-11T12:23:05Z</time>
      </trkpt>
      <trkpt lat="40.451567" lon="-5.265267">
        <ele>2134.0</ele>
        <time>2013-05-11T12:23:06Z</time>
      </trkpt>
      <trkpt lat="40.451600" lon="-5.265133">
        <ele>2135.0</ele>
        <time>2013-05-11T12:23:07Z</time>
      </trkpt>
      <trkpt lat="40.451633" lon="-5.265000">
        <ele>2137.0</ele>
        <time>2013-05-11T12:23:08Z</time>
      </trkpt>
      <trkpt lat="40.451650" lon="-5.264867">
        <ele>2139.0</ele>
        <time>2013-05-11T12:23:09Z</time>
      </trkpt>
      <trkpt lat="40.451667" lon="-5.264750">
        <ele>2141.0</ele>
        <time>2013-05-11T12:23:10Z</time>
      </trkpt>
      <trkpt lat="40.451667" lon="-5.264617">
        <ele>2142.0</ele>
        <time>2013-05-11T12:23:11Z</time>
      </trkpt>
      <trkpt lat="40.451667" lon="-5.264483">
        <ele>2143.0</ele>
        <time>2013-05-11T12:23:12Z</time>
      </trkpt>
      <trkpt lat="40.451650" lon="-5.264317">
        <ele>2145.0</ele>
        <time>2013-05-11T12:23:13Z</time>
      </trkpt>
      <trkpt lat="40.451617" lon="-5.264167">
        <ele>2148.0</ele>
        <time>2013-05-11T12:23:14Z</time>
      </trkpt>
      <trkpt lat="40.451567" lon="-5.264017">
        <ele>2152.0</ele>
        <time>2013-05-11T12:23:15Z</time>
      </trkpt>
      <trkpt lat="40.451533" lon="-5.263883">
        <ele>2157.0</ele>
        <time>2013-05-11T12:23:16Z</time>
      </trkpt>
      <trkpt lat="40.451517" lon="-5.263767">
        <ele>2162.0</ele>
        <time>2013-05-11T12:23:17Z</time>
      </trkpt>
      <trkpt lat="40.451500" lon="-5.263650">
        <ele>2167.0</ele>
        <time>2013-05-11T12:23:18Z</time>
      </trkpt>
      <trkpt lat="40.451517" lon="-5.263583">
        <ele>2171.0</ele>
        <time>2013-05-11T12:23:19Z</time>
      </trkpt>
      <trkpt lat="40.451533" lon="-5.263533">
        <ele>2175.0</ele>
        <time>2013-05-11T12:23:20Z</time>
      </trkpt>
      <trkpt lat="40.451567" lon="-5.263533">
        <ele>2177.0</ele>
        <time>2013-05-11T12:23:21Z</time>
      </trkpt>
      <trkpt lat="40.451583" lon="-5.263600">
        <ele>2179.0</ele>
        <time>2013-05-11T12:23:22Z</time>
      </trkpt>
      <trkpt lat="40.451583" lon="-5.263683">
        <ele>2184.0</ele>
        <time>2013-05-11T12:23:23Z</time>
      </trkpt>
      <trkpt lat="40.451550" lon="-5.263750">
        <ele>2189.0</ele>
        <time>2013-05-11T12:23:24Z</time>
      </trkpt>
      <trkpt lat="40.451517" lon="-5.263783">
        <ele>2195.0</ele>
        <time>2013-05-11T12:23:25Z</time>
      </trkpt>
      <trkpt lat="40.451500" lon="-5.263833">
        <ele>2199.0</ele>
        <time>2013-05-11T12:23:26Z</time>
      </trkpt>
      <trkpt lat="40.451483" lon="-5.263917">
        <ele>2202.0</ele>
        <time>2013-05-11T12:23:27Z</time>
      </trkpt>
      <trkpt lat="40.451450" lon="-5.264017">
        <ele>2203.0</ele>
        <time>2013-05-11T12:23:28Z</time>
      </trkpt>
      <trkpt lat="40.451383" lon="-5.264117">
        <ele>2205.0</ele>
        <time>2013-05-11T12:23:29Z</time>
      </trkpt>
      <trkpt lat="40.451283" lon="-5.264200">
        <ele>2207.0</ele>
        <time>2013-05-11T12:23:30Z</time>
      </trkpt>
      <trkpt lat="40.451167" lon="-5.264250">
        <ele>2210.0</ele>
        <time>2013-05-11T12:23:31Z</time>
      </trkpt>
      <trkpt lat="40.451050" lon="-5.264267">
        <ele>2213.0</ele>
        <time>2013-05-11T12:23:32Z</time>
      </trkpt>
      <trkpt lat="40.450917" lon="-5.264250">
        <ele>2215.0</ele>
        <time>2013-05-11T12:23:33Z</time>
      </trkpt>
      <trkpt lat="40.450800" lon="-5.264200">
        <ele>2217.0</ele>
        <time>2013-05-11T12:23:34Z</time>
      </trkpt>
      <trkpt lat="40.450667" lon="-5.264133">
        <ele>2218.0</ele>
        <time>2013-05-11T12:23:35Z</time>
      </trkpt>
      <trkpt lat="40.450567" lon="-5.264033">
        <ele>2219.0</ele>
        <time>2013-05-11T12:23:36Z</time>
      </trkpt>
      <trkpt lat="40.450467" lon="-5.263900">
        <ele>2219.0</ele>
        <time>2013-05-11T12:23:37Z</time>
      </trkpt>
      <trkpt lat="40.450417" lon="-5.263733">
        <ele>2219.0</ele>
        <time>2013-05-11T12:23:38Z</time>
      </trkpt>
      <trkpt lat="40.450417" lon="-5.263583">
        <ele>2219.0</ele>
        <time>2013-05-11T12:23:39Z</time>
      </trkpt>
      <trkpt lat="40.450433" lon="-5.263450">
        <ele>2220.0</ele>
        <time>2013-05-11T12:23:40Z</time>
      </trkpt>
      <trkpt lat="40.450467" lon="-5.263333">
        <ele>2223.0</ele>
        <time>2013-05-11T12:23:41Z</time>
      </trkpt>
      <trkpt lat="40.450517" lon="-5.263250">
        <ele>2227.0</ele>
        <time>2013-05-11T12:23:42Z</time>
      </trkpt>
      <trkpt lat="40.450550" lon="-5.263183">
        <ele>2232.0</ele>
        <time>2013-05-11T12:23:43Z</time>
      </trkpt>
      <trkpt lat="40.450583" lon="-5.263150">
        <ele>2236.0</ele>
        <time>2013-05-11T12:23:44Z</time>
      </trkpt>
      <trkpt lat="40.450617" lon="-5.263133">
        <ele>2240.0</ele>
        <time>2013-05-11T12:23:45Z</time>
      </trkpt>
      <trkpt lat="40.450633" lon="-5.263117">
        <ele>2244.0</ele>
        <time>2013-05-11T12:23:46Z</time>
      </trkpt>
      <trkpt lat="40.450633" lon="-5.263083">
        <ele>2248.0</ele>
        <time>2013-05-11T12:23:47Z</time>
      </trkpt>
      <trkpt lat="40.450650" lon="-5.263050">
        <ele>2250.0</ele>
        <time>2013-05-11T12:23:48Z</time>
      </trkpt>
      <trkpt lat="40.450683" lon="-5.263017">
        <ele>2251.0</ele>
        <time>2013-05-11T12:23:49Z</time>
      </trkpt>
      <trkpt lat="40.450733" lon="-5.262983">
        <ele>2252.0</ele>
        <time>2013-05-11T12:23:50Z</time>
      </trkpt>
      <trkpt lat="40.450783" lon="-5.262983">
        <ele>2253.0</ele>
        <time>2013-05-11T12:23:51Z</time>
      </trkpt>
      <trkpt lat="40.450833" lon="-5.263000">
        <ele>2255.0</ele>
        <time>2013-05-11T12:23:52Z</time>
      </trkpt>
      <trkpt lat="40.450867" lon="-5.263033">
        <ele>2258.0</ele>
        <time>2013-05-11T12:23:53Z</time>
      </trkpt>
      <trkpt lat="40.450900" lon="-5.263067">
        <ele>2260.0</ele>
        <time>2013-05-11T12:23:54Z</time>
      </trkpt>
      <trkpt lat="40.450933" lon="-5.263100">
        <ele>2261.0</ele>
        <time>2013-05-11T12:23:55Z</time>
      </trkpt>
      <trkpt lat="40.450983" lon="-5.263167">
        <ele>2261.0</ele>
        <time>2013-05-11T12:23:56Z</time>
      </trkpt>
      <trkpt lat="40.451017" lon="-5.263250">
        <ele>2262.0</ele>
        <time>2013-05-11T12:23:57Z</time>
      </trkpt>
      <trkpt lat="40.451017" lon="-5.263350">
        <ele>2264.0</ele>
        <time>2013-05-11T12:23:58Z</time>
      </trkpt>
      <trkpt lat="40.451017" lon="-5.263450">
        <ele>2267.0</ele>
        <time>2013-05-11T12:23:59Z</time>
      </trkpt>
      <trkpt lat="40.451017" lon="-5.263533">
        <ele>2270.0</ele>
        <time>2013-05-11T12:24:00Z</time>
      </trkpt>
      <trkpt lat="40.451000" lon="-5.263633">
        <ele>2273.0</ele>
        <time>2013-05-11T12:24:01Z</time>
      </trkpt>
      <trkpt lat="40.451000" lon="-5.263717">
        <ele>2277.0</ele>
        <time>2013-05-11T12:24:02Z</time>
      </trkpt>
      <trkpt lat="40.450983" lon="-5.263817">
        <ele>2280.0</ele>
        <time>2013-05-11T12:24:03Z</time>
      </trkpt>
      <trkpt lat="40.450933" lon="-5.263917">
        <ele>2281.0</ele>
        <time>2013-05-11T12:24:04Z</time>
      </trkpt>
      <trkpt lat="40.450883" lon="-5.264017">
        <ele>2282.0</ele>
        <time>2013-05-11T12:24:05Z</time>
      </trkpt>
      <trkpt lat="40.450817" lon="-5.264117">
        <ele>2282.0</ele>
        <time>2013-05-11T12:24:06Z</time>
      </trkpt>
      <trkpt lat="40.450733" lon="-5.264200">
        <ele>2281.0</ele>
        <time>2013-05-11T12:24:07Z</time>
      </trkpt>
      <trkpt lat="40.450617" lon="-5.264300">
        <ele>2281.0</ele>
        <time>2013-05-11T12:24:08Z</time>
      </trkpt>
      <trkpt lat="40.450500" lon="-5.264350">
        <ele>2281.0</ele>
        <time>2013-05-11T12:24:09Z</time>
      </trkpt>
      <trkpt lat="40.450367" lon="-5.264400">
        <ele>2281.0</ele>
        <time>2013-05-11T12:24:10Z</time>
      </trkpt>
      <trkpt lat="40.450233" lon="-5.264400">
        <ele>2280.0</ele>
        <time>2013-05-11T12:24:11Z</time>
      </trkpt>
      <trkpt lat="40.450100" lon="-5.264367">
        <ele>2279.0</ele>
        <time>2013-05-11T12:24:12Z</time>
      </trkpt>
      <trkpt lat="40.449967" lon="-5.264283">
        <ele>2279.0</ele>
        <time>2013-05-11T12:24:13Z</time>
      </trkpt>
      <trkpt lat="40.449850" lon="-5.264183">
        <ele>2279.0</ele>
        <time>2013-05-11T12:24:14Z</time>
      </trkpt>
      <trkpt lat="40.449767" lon="-5.264050">
        <ele>2278.0</ele>
        <time>2013-05-11T12:24:15Z</time>
      </trkpt>
      <trkpt lat="40.449717" lon="-5.263917">
        <ele>2277.0</ele>
        <time>2013-05-11T12:24:16Z</time>
      </trkpt>
      <trkpt lat="40.449700" lon="-5.263767">
        <ele>2276.0</ele>
        <time>2013-05-11T12:24:17Z</time>
      </trkpt>
      <trkpt lat="40.449700" lon="-5.263633">
        <ele>2276.0</ele>
        <time>2013-05-11T12:24:18Z</time>
      </trkpt>
      <trkpt lat="40.449717" lon="-5.263517">
        <ele>2276.0</ele>
        <time>2013-05-11T12:24:19Z</time>
      </trkpt>
      <trkpt lat="40.449733" lon="-5.263417">
        <ele>2278.0</ele>
        <time>2013-05-11T12:24:20Z</time>
      </trkpt>
      <trkpt lat="40.449767" lon="-5.263317">
        <ele>2279.0</ele>
        <time>2013-05-11T12:24:21Z</time>
      </trkpt>
      <trkpt lat="40.449800" lon="-5.263250">
        <ele>2280.0</ele>
        <time>2013-05-11T12:24:22Z</time>
      </trkpt>
      <trkpt lat="40.449850" lon="-5.263167">
        <ele>2280.0</ele>
        <time>2013-05-11T12:24:23Z</time>
      </trkpt>
      <trkpt lat="40.449900" lon="-5.263100">
        <ele>2280.0</ele>
        <time>2013-05-11T12:24:24Z</time>
      </trkpt>
      <trkpt lat="40.449950" lon="-5.263033">
        <ele>2281.0</ele>
        <time>2013-05-11T12:24:25Z</time>
      </trkpt>
      <trkpt lat="40.450017" lon="-5.262967">
        <ele>2283.0</ele>
        <time>2013-05-11T12:24:26Z</time>
      </trkpt>
      <trkpt lat="40.450067" lon="-5.262917">
        <ele>2286.0</ele>
        <time>2013-05-11T12:24:27Z</time>
      </trkpt>
      <trkpt lat="40.450117" lon="-5.262883">
        <ele>2289.0</ele>
        <time>2013-05-11T12:24:28Z</time>
      </trkpt>
      <trkpt lat="40.450167" lon="-5.262850">
        <ele>2291.0</ele>
        <time>2013-05-11T12:24:29Z</time>
      </trkpt>
      <trkpt lat="40.450217" lon="-5.262817">
        <ele>2293.0</ele>
        <time>2013-05-11T12:24:30Z</time>
      </trkpt>
      <trkpt lat="40.450267" lon="-5.262767">
        <ele>2295.0</ele>
        <time>2013-05-11T12:24:31Z</time>
      </trkpt>
      <trkpt lat="40.450317" lon="-5.262733">
        <ele>2298.0</ele>
        <time>2013-05-11T12:24:32Z</time>
      </trkpt>
      <trkpt lat="40.450367" lon="-5.262700">
        <ele>2300.0</ele>
        <time>2013-05-11T12:24:33Z</time>
      </trkpt>
      <trkpt lat="40.450400" lon="-5.262633">
        <ele>2302.0</ele>
        <time>2013-05-11T12:24:34Z</time>
      </trkpt>
      <trkpt lat="40.450433" lon="-5.262583">
        <ele>2304.0</ele>
        <time>2013-05-11T12:24:35Z</time>
      </trkpt>
      <trkpt lat="40.450483" lon="-5.262517">
        <ele>2306.0</ele>
        <time>2013-05-11T12:24:36Z</time>
      </trkpt>
      <trkpt lat="40.450533" lon="-5.262467">
        <ele>2307.0</ele>
        <time>2013-05-11T12:24:37Z</time>
      </trkpt>
      <trkpt lat="40.450567" lon="-5.262417">
        <ele>2308.0</ele>
        <time>2013-05-11T12:24:38Z</time>
      </trkpt>
      <trkpt lat="40.450600" lon="-5.262367">
        <ele>2309.0</ele>
        <time>2013-05-11T12:24:39Z</time>
      </trkpt>
      <trkpt lat="40.450650" lon="-5.262317">
        <ele>2309.0</ele>
        <time>2013-05-11T12:24:40Z</time>
      </trkpt>
      <trkpt lat="40.450683" lon="-5.262233">
        <ele>2308.0</ele>
        <time>2013-05-11T12:24:41Z</time>
      </trkpt>
      <trkpt lat="40.450733" lon="-5.262167">
        <ele>2308.0</ele>
        <time>2013-05-11T12:24:42Z</time>
      </trkpt>
      <trkpt lat="40.450800" lon="-5.262117">
        <ele>2309.0</ele>
        <time>2013-05-11T12:24:43Z</time>
      </trkpt>
      <trkpt lat="40.450867" lon="-5.262067">
        <ele>2310.0</ele>
        <time>2013-05-11T12:24:44Z</time>
      </trkpt>
      <trkpt lat="40.450917" lon="-5.262017">
        <ele>2313.0</ele>
        <time>2013-05-11T12:24:45Z</time>
      </trkpt>
      <trkpt lat="40.450967" lon="-5.261967">
        <ele>2318.0</ele>
        <time>2013-05-11T12:24:46Z</time>
      </trkpt>
      <trkpt lat="40.451000" lon="-5.261900">
        <ele>2322.0</ele>
        <time>2013-05-11T12:24:47Z</time>
      </trkpt>
      <trkpt lat="40.451033" lon="-5.261817">
        <ele>2326.0</ele>
        <time>2013-05-11T12:24:48Z</time>
      </trkpt>
      <trkpt lat="40.451067" lon="-5.261750">
        <ele>2328.0</ele>
        <time>2013-05-11T12:24:49Z</time>
      </trkpt>
      <trkpt lat="40.451100" lon="-5.261700">
        <ele>2329.0</ele>
        <time>2013-05-11T12:24:50Z</time>
      </trkpt>
      <trkpt lat="40.451150" lon="-5.261650">
        <ele>2330.0</ele>
        <time>2013-05-11T12:24:51Z</time>
      </trkpt>
      <trkpt lat="40.451200" lon="-5.261600">
        <ele>2331.0</ele>
        <time>2013-05-11T12:24:52Z</time>
      </trkpt>
      <trkpt lat="40.451250" lon="-5.261550">
        <ele>2332.0</ele>
        <time>2013-05-11T12:24:53Z</time>
      </trkpt>
      <trkpt lat="40.451283" lon="-5.261483">
        <ele>2332.0</ele>
        <time>2013-05-11T12:24:54Z</time>
      </trkpt>
      <trkpt lat="40.451333" lon="-5.261433">
        <ele>2331.0</ele>
        <time>2013-05-11T12:24:55Z</time>
      </trkpt>
      <trkpt lat="40.451383" lon="-5.261350">
        <ele>2330.0</ele>
        <time>2013-05-11T12:24:56Z</time>
      </trkpt>
      <trkpt lat="40.451450" lon="-5.261283">
        <ele>2329.0</ele>
        <time>2013-05-11T12:24:57Z</time>
      </trkpt>
      <trkpt lat="40.451517" lon="-5.261200">
        <ele>2330.0</ele>
        <time>2013-05-11T12:24:58Z</time>
      </trkpt>
      <trkpt lat="40.451583" lon="-5.261150">
        <ele>2332.0</ele>
        <time>2013-05-11T12:24:59Z</time>
      </trkpt>
      <trkpt lat="40.451650" lon="-5.261100">
        <ele>2334.0</ele>
        <time>2013-05-11T12:25:00Z</time>
      </trkpt>
      <trkpt lat="40.451683" lon="-5.261050">
        <ele>2336.0</ele>
        <time>2013-05-11T12:25:01Z</time>
      </trkpt>
      <trkpt lat="40.451717" lon="-5.260983">
        <ele>2336.0</ele>
        <time>2013-05-11T12:25:02Z</time>
      </trkpt>
      <trkpt lat="40.451767" lon="-5.260900">
        <ele>2337.0</ele>
        <time>2013-05-11T12:25:03Z</time>
      </trkpt>
      <trkpt lat="40.451817" lon="-5.260817">
        <ele>2336.0</ele>
        <time>2013-05-11T12:25:04Z</time>
      </trkpt>
      <trkpt lat="40.451883" lon="-5.260750">
        <ele>2336.0</ele>
        <time>2013-05-11T12:25:05Z</time>
      </trkpt>
      <trkpt lat="40.451950" lon="-5.260700">
        <ele>2336.0</ele>
        <time>2013-05-11T12:25:06Z</time>
      </trkpt>
      <trkpt lat="40.452033" lon="-5.260633">
        <ele>2337.0</ele>
        <time>2013-05-11T12:25:07Z</time>
      </trkpt>
      <trkpt lat="40.452100" lon="-5.260583">
        <ele>2338.0</ele>
        <time>2013-05-11T12:25:08Z</time>
      </trkpt>
      <trkpt lat="40.452183" lon="-5.260533">
        <ele>2338.0</ele>
        <time>2013-05-11T12:25:09Z</time>
      </trkpt>
      <trkpt lat="40.452250" lon="-5.260500">
        <ele>2338.0</ele>
        <time>2013-05-11T12:25:10Z</time>
      </trkpt>
      <trkpt lat="40.452350" lon="-5.260450">
        <ele>2338.0</ele>
        <time>2013-05-11T12:25:11Z</time>
      </trkpt>
      <trkpt lat="40.452433" lon="-5.260417">
        <ele>2337.0</ele>
        <time>2013-05-11T12:25:12Z</time>
      </trkpt>
      <trkpt lat="40.452533" lon="-5.260383">
        <ele>2337.0</ele>
        <time>2013-05-11T12:25:13Z</time>
      </trkpt>
      <trkpt lat="40.452617" lon="-5.260350">
        <ele>2338.0</ele>
        <time>2013-05-11T12:25:14Z</time>
      </trkpt>
      <trkpt lat="40.452683" lon="-5.260283">
        <ele>2338.0</ele>
        <time>2013-05-11T12:25:15Z</time>
      </trkpt>
      <trkpt lat="40.452750" lon="-5.260233">
        <ele>2338.0</ele>
        <time>2013-05-11T12:25:16Z</time>
      </trkpt>
      <trkpt lat="40.452817" lon="-5.260183">
        <ele>2337.0</ele>
        <time>2013-05-11T12:25:17Z</time>
      </trkpt>
      <trkpt lat="40.452900" lon="-5.260150">
        <ele>2336.0</ele>
        <time>2013-05-11T12:25:18Z</time>
      </trkpt>
      <trkpt lat="40.452983" lon="-5.260117">
        <ele>2334.0</ele>
        <time>2013-05-11T12:25:19Z</time>
      </trkpt>
      <trkpt lat="40.453083" lon="-5.260083">
        <ele>2333.0</ele>
        <time>2013-05-11T12:25:20Z</time>
      </trkpt>
      <trkpt lat="40.453167" lon="-5.260033">
        <ele>2334.0</ele>
        <time>2013-05-11T12:25:21Z</time>
      </trkpt>
      <trkpt lat="40.453250" lon="-5.259967">
        <ele>2335.0</ele>
        <time>2013-05-11T12:25:22Z</time>
      </trkpt>
      <trkpt lat="40.453333" lon="-5.259900">
        <ele>2335.0</ele>
        <time>2013-05-11T12:25:23Z</time>
      </trkpt>
      <trkpt lat="40.453400" lon="-5.259833">
        <ele>2336.0</ele>
        <time>2013-05-11T12:25:24Z</time>
      </trkpt>
      <trkpt lat="40.453483" lon="-5.259783">
        <ele>2336.0</ele>
        <time>2013-05-11T12:25:25Z</time>
      </trkpt>
      <trkpt lat="40.453550" lon="-5.259733">
        <ele>2336.0</ele>
        <time>2013-05-11T12:25:26Z</time>
      </trkpt>
      <trkpt lat="40.453650" lon="-5.259683">
        <ele>2336.0</ele>
        <time>2013-05-11T12:25:27Z</time>
      </trkpt>
      <trkpt lat="40.453733" lon="-5.259617">
        <ele>2336.0</ele>
        <time>2013-05-11T12:25:28Z</time>
      </trkpt>
      <trkpt lat="40.453817" lon="-5.259550">
        <ele>2337.0</ele>
        <time>2013-05-11T12:25:29Z</time>
      </trkpt>
      <trkpt lat="40.453883" lon="-5.259483">
        <ele>2338.0</ele>
        <time>2013-05-11T12:25:30Z</time>
      </trkpt>
      <trkpt lat="40.453950" lon="-5.259450">
        <ele>2339.0</ele>
        <time>2013-05-11T12:25:31Z</time>
      </trkpt>
      <trkpt lat="40.454017" lon="-5.259417">
        <ele>2337.0</ele>
        <time>2013-05-11T12:25:32Z</time>
      </trkpt>
      <trkpt lat="40.454083" lon="-5.259350">
        <ele>2336.0</ele>
        <time>2013-05-11T12:25:33Z</time>
      </trkpt>
      <trkpt lat="40.454167" lon="-5.259300">
        <ele>2334.0</ele>
        <time>2013-05-11T12:25:34Z</time>
      </trkpt>
      <trkpt lat="40.454250" lon="-5.259217">
        <ele>2333.0</ele>
        <time>2013-05-11T12:25:35Z</time>
      </trkpt>
      <trkpt lat="40.454317" lon="-5.259167">
        <ele>2332.0</ele>
        <time>2013-05-11T12:25:36Z</time>
      </trkpt>
      <trkpt lat="40.454400" lon="-5.259100">
        <ele>2331.0</ele>
        <time>2013-05-11T12:25:37Z</time>
      </trkpt>
      <trkpt lat="40.454467" lon="-5.259050">
        <ele>2330.0</ele>
        <time>2013-05-11T12:25:38Z</time>
      </trkpt>
      <trkpt lat="40.454550" lon="-5.258983">
        <ele>2329.0</ele>
        <time>2013-05-11T12:25:39Z</time>
      </trkpt>
      <trkpt lat="40.454617" lon="-5.258900">
        <ele>2327.0</ele>
        <time>2013-05-11T12:25:40Z</time>
      </trkpt>
      <trkpt lat="40.454683" lon="-5.258833">
        <ele>2325.0</ele>
        <time>2013-05-11T12:25:41Z</time>
      </trkpt>
      <trkpt lat="40.454733" lon="-5.258750">
        <ele>2323.0</ele>
        <time>2013-05-11T12:25:42Z</time>
      </trkpt>
      <trkpt lat="40.454817" lon="-5.258683">
        <ele>2321.0</ele>
        <time>2013-05-11T12:25:43Z</time>
      </trkpt>
      <trkpt lat="40.454883" lon="-5.258617">
        <ele>2319.0</ele>
        <time>2013-05-11T12:25:44Z</time>
      </trkpt>
      <trkpt lat="40.454967" lon="-5.258550">
        <ele>2317.0</ele>
        <time>2013-05-11T12:25:45Z</time>
      </trkpt>
      <trkpt lat="40.455033" lon="-5.258483">
        <ele>2316.0</ele>
        <time>2013-05-11T12:25:46Z</time>
      </trkpt>
      <trkpt lat="40.455117" lon="-5.258417">
        <ele>2316.0</ele>
        <time>2013-05-11T12:25:47Z</time>
      </trkpt>
      <trkpt lat="40.455167" lon="-5.258350">
        <ele>2316.0</ele>
        <time>2013-05-11T12:25:48Z</time>
      </trkpt>
      <trkpt lat="40.455217" lon="-5.258283">
        <ele>2315.0</ele>
        <time>2013-05-11T12:25:49Z</time>
      </trkpt>
      <trkpt lat="40.455267" lon="-5.258217">
        <ele>2314.0</ele>
        <time>2013-05-11T12:25:50Z</time>
      </trkpt>
      <trkpt lat="40.455333" lon="-5.258150">
        <ele>2313.0</ele>
        <time>2013-05-11T12:25:51Z</time>
      </trkpt>
      <trkpt lat="40.455383" lon="-5.258050">
        <ele>2311.0</ele>
        <time>2013-05-11T12:25:52Z</time>
      </trkpt>
      <trkpt lat="40.455450" lon="-5.257967">
        <ele>2310.0</ele>
        <time>2013-05-11T12:25:53Z</time>
      </trkpt>
      <trkpt lat="40.455517" lon="-5.257883">
        <ele>2310.0</ele>
        <time>2013-05-11T12:25:54Z</time>
      </trkpt>
      <trkpt lat="40.455583" lon="-5.257800">
        <ele>2311.0</ele>
        <time>2013-05-11T12:25:55Z</time>
      </trkpt>
      <trkpt lat="40.455633" lon="-5.257733">
        <ele>2311.0</ele>
        <time>2013-05-11T12:25:56Z</time>
      </trkpt>
      <trkpt lat="40.455667" lon="-5.257650">
        <ele>2311.0</ele>
        <time>2013-05-11T12:25:57Z</time>
      </trkpt>
      <trkpt lat="40.455717" lon="-5.257567">
        <ele>2310.0</ele>
        <time>2013-05-11T12:25:58Z</time>
      </trkpt>
      <trkpt lat="40.455767" lon="-5.257483">
        <ele>2309.0</ele>
        <time>2013-05-11T12:25:59Z</time>
      </trkpt>
      <trkpt lat="40.455817" lon="-5.257417">
        <ele>2307.0</ele>
        <time>2013-05-11T12:26:00Z</time>
      </trkpt>
      <trkpt lat="40.455867" lon="-5.257350">
        <ele>2306.0</ele>
        <time>2013-05-11T12:26:01Z</time>
      </trkpt>
      <trkpt lat="40.455933" lon="-5.257283">
        <ele>2305.0</ele>
        <time>2013-05-11T12:26:02Z</time>
      </trkpt>
      <trkpt lat="40.455983" lon="-5.257217">
        <ele>2304.0</ele>
        <time>2013-05-11T12:26:03Z</time>
      </trkpt>
      <trkpt lat="40.456050" lon="-5.257150">
        <ele>2303.0</ele>
        <time>2013-05-11T12:26:04Z</time>
      </trkpt>
      <trkpt lat="40.456117" lon="-5.257067">
        <ele>2303.0</ele>
        <time>2013-05-11T12:26:05Z</time>
      </trkpt>
      <trkpt lat="40.456183" lon="-5.257000">
        <ele>2303.0</ele>
        <time>2013-05-11T12:26:06Z</time>
      </trkpt>
      <trkpt lat="40.456250" lon="-5.256933">
        <ele>2303.0</ele>
        <time>2013-05-11T12:26:07Z</time>
      </trkpt>
      <trkpt lat="40.456317" lon="-5.256883">
        <ele>2303.0</ele>
        <time>2013-05-11T12:26:08Z</time>
      </trkpt>
      <trkpt lat="40.456367" lon="-5.256817">
        <ele>2303.0</ele>
        <time>2013-05-11T12:26:09Z</time>
      </trkpt>
      <trkpt lat="40.456433" lon="-5.256750">
        <ele>2303.0</ele>
        <time>2013-05-11T12:26:10Z</time>
      </trkpt>
      <trkpt lat="40.456500" lon="-5.256683">
        <ele>2303.0</ele>
        <time>2013-05-11T12:26:11Z</time>
      </trkpt>
      <trkpt lat="40.456550" lon="-5.256617">
        <ele>2302.0</ele>
        <time>2013-05-11T12:26:12Z</time>
      </trkpt>
      <trkpt lat="40.456583" lon="-5.256550">
        <ele>2301.0</ele>
        <time>2013-05-11T12:26:13Z</time>
      </trkpt>
      <trkpt lat="40.456633" lon="-5.256483">
        <ele>2299.0</ele>
        <time>2013-05-11T12:26:14Z</time>
      </trkpt>
      <trkpt lat="40.456700" lon="-5.256433">
        <ele>2296.0</ele>
        <time>2013-05-11T12:26:15Z</time>
      </trkpt>
      <trkpt lat="40.456767" lon="-5.256367">
        <ele>2293.0</ele>
        <time>2013-05-11T12:26:16Z</time>
      </trkpt>
      <trkpt lat="40.456833" lon="-5.256283">
        <ele>2290.0</ele>
        <time>2013-05-11T12:26:17Z</time>
      </trkpt>
      <trkpt lat="40.456900" lon="-5.256183">
        <ele>2288.0</ele>
        <time>2013-05-11T12:26:18Z</time>
      </trkpt>
      <trkpt lat="40.456950" lon="-5.256083">
        <ele>2287.0</ele>
        <time>2013-05-11T12:26:19Z</time>
      </trkpt>
      <trkpt lat="40.457000" lon="-5.255983">
        <ele>2285.0</ele>
        <time>2013-05-11T12:26:20Z</time>
      </trkpt>
      <trkpt lat="40.457050" lon="-5.255900">
        <ele>2283.0</ele>
        <time>2013-05-11T12:26:21Z</time>
      </trkpt>
      <trkpt lat="40.457100" lon="-5.255800">
        <ele>2281.0</ele>
        <time>2013-05-11T12:26:22Z</time>
      </trkpt>
      <trkpt lat="40.457150" lon="-5.255700">
        <ele>2278.0</ele>
        <time>2013-05-11T12:26:23Z</time>
      </trkpt>
      <trkpt lat="40.457200" lon="-5.255600">
        <ele>2276.0</ele>
        <time>2013-05-11T12:26:24Z</time>
      </trkpt>
      <trkpt lat="40.457267" lon="-5.255500">
        <ele>2274.0</ele>
        <time>2013-05-11T12:26:25Z</time>
      </trkpt>
      <trkpt lat="40.457317" lon="-5.255417">
        <ele>2272.0</ele>
        <time>2013-05-11T12:26:26Z</time>
      </trkpt>
      <trkpt lat="40.457383" lon="-5.255317">
        <ele>2270.0</ele>
        <time>2013-05-11T12:26:27Z</time>
      </trkpt>
      <trkpt lat="40.457433" lon="-5.255217">
        <ele>2267.0</ele>
        <time>2013-05-11T12:26:28Z</time>
      </trkpt>
      <trkpt lat="40.457483" lon="-5.255100">
        <ele>2265.0</ele>
        <time>2013-05-11T12:26:29Z</time>
      </trkpt>
      <trkpt lat="40.457550" lon="-5.254983">
        <ele>2263.0</ele>
        <time>2013-05-11T12:26:30Z</time>
      </trkpt>
      <trkpt lat="40.457600" lon="-5.254883">
        <ele>2262.0</ele>
        <time>2013-05-11T12:26:31Z</time>
      </trkpt>
      <trkpt lat="40.457633" lon="-5.254783">
        <ele>2261.0</ele>
        <time>2013-05-11T12:26:32Z</time>
      </trkpt>
      <trkpt lat="40.457683" lon="-5.254683">
        <ele>2258.0</ele>
        <time>2013-05-11T12:26:33Z</time>
      </trkpt>
      <trkpt lat="40.457733" lon="-5.254583">
        <ele>2255.0</ele>
        <time>2013-05-11T12:26:34Z</time>
      </trkpt>
      <trkpt lat="40.457800" lon="-5.254483">
        <ele>2252.0</ele>
        <time>2013-05-11T12:26:35Z</time>
      </trkpt>
      <trkpt lat="40.457850" lon="-5.254383">
        <ele>2249.0</ele>
        <time>2013-05-11T12:26:36Z</time>
      </trkpt>
      <trkpt lat="40.457917" lon="-5.254283">
        <ele>2246.0</ele>
        <time>2013-05-11T12:26:37Z</time>
      </trkpt>
      <trkpt lat="40.457983" lon="-5.254183">
        <ele>2245.0</ele>
        <time>2013-05-11T12:26:38Z</time>
      </trkpt>
      <trkpt lat="40.458050" lon="-5.254100">
        <ele>2243.0</ele>
        <time>2013-05-11T12:26:39Z</time>
      </trkpt>
      <trkpt lat="40.458117" lon="-5.254000">
        <ele>2241.0</ele>
        <time>2013-05-11T12:26:40Z</time>
      </trkpt>
      <trkpt lat="40.458183" lon="-5.253917">
        <ele>2239.0</ele>
        <time>2013-05-11T12:26:41Z</time>
      </trkpt>
      <trkpt lat="40.458250" lon="-5.253833">
        <ele>2238.0</ele>
        <time>2013-05-11T12:26:42Z</time>
      </trkpt>
      <trkpt lat="40.458317" lon="-5.253750">
        <ele>2237.0</ele>
        <time>2013-05-11T12:26:43Z</time>
      </trkpt>
      <trkpt lat="40.458400" lon="-5.253667">
        <ele>2235.0</ele>
        <time>2013-05-11T12:26:44Z</time>
      </trkpt>
      <trkpt lat="40.458483" lon="-5.253583">
        <ele>2235.0</ele>
        <time>2013-05-11T12:26:45Z</time>
      </trkpt>
      <trkpt lat="40.458550" lon="-5.253500">
        <ele>2234.0</ele>
        <time>2013-05-11T12:26:46Z</time>
      </trkpt>
      <trkpt lat="40.458617" lon="-5.253433">
        <ele>2234.0</ele>
        <time>2013-05-11T12:26:47Z</time>
      </trkpt>
      <trkpt lat="40.458683" lon="-5.253350">
        <ele>2233.0</ele>
        <time>2013-05-11T12:26:48Z</time>
      </trkpt>
      <trkpt lat="40.458750" lon="-5.253283">
        <ele>2231.0</ele>
        <time>2013-05-11T12:26:49Z</time>
      </trkpt>
      <trkpt lat="40.458833" lon="-5.253200">
        <ele>2230.0</ele>
        <time>2013-05-11T12:26:50Z</time>
      </trkpt>
      <trkpt lat="40.458917" lon="-5.253117">
        <ele>2230.0</ele>
        <time>2013-05-11T12:26:51Z</time>
      </trkpt>
      <trkpt lat="40.458983" lon="-5.253033">
        <ele>2229.0</ele>
        <time>2013-05-11T12:26:52Z</time>
      </trkpt>
      <trkpt lat="40.459033" lon="-5.252933">
        <ele>2229.0</ele>
        <time>2013-05-11T12:26:53Z</time>
      </trkpt>
      <trkpt lat="40.459100" lon="-5.252850">
        <ele>2228.0</ele>
        <time>2013-05-11T12:26:54Z</time>
      </trkpt>
      <trkpt lat="40.459167" lon="-5.252767">
        <ele>2227.0</ele>
        <time>2013-05-11T12:26:55Z</time>
      </trkpt>
      <trkpt lat="40.459233" lon="-5.252667">
        <ele>2226.0</ele>
        <time>2013-05-11T12:26:56Z</time>
      </trkpt>
      <trkpt lat="40.459300" lon="-5.252583">
        <ele>2225.0</ele>
        <time>2013-05-11T12:26:57Z</time>
      </trkpt>
      <trkpt lat="40.459367" lon="-5.252483">
        <ele>2224.0</ele>
        <time>2013-05-11T12:26:58Z</time>
      </trkpt>
      <trkpt lat="40.459417" lon="-5.252400">
        <ele>2223.0</ele>
        <time>2013-05-11T12:26:59Z</time>
      </trkpt>
      <trkpt lat="40.459483" lon="-5.252300">
        <ele>2223.0</ele>
        <time>2013-05-11T12:27:00Z</time>
      </trkpt>
      <trkpt lat="40.459533" lon="-5.252217">
        <ele>2222.0</ele>
        <time>2013-05-11T12:27:01Z</time>
      </trkpt>
      <trkpt lat="40.459567" lon="-5.252133">
        <ele>2220.0</ele>
        <time>2013-05-11T12:27:02Z</time>
      </trkpt>
      <trkpt lat="40.459633" lon="-5.252050">
        <ele>2218.0</ele>
        <time>2013-05-11T12:27:03Z</time>
      </trkpt>
      <trkpt lat="40.459683" lon="-5.251967">
        <ele>2216.0</ele>
        <time>2013-05-11T12:27:04Z</time>
      </trkpt>
      <trkpt lat="40.459750" lon="-5.251883">
        <ele>2214.0</ele>
        <time>2013-05-11T12:27:05Z</time>
      </trkpt>
      <trkpt lat="40.459800" lon="-5.251783">
        <ele>2213.0</ele>
        <time>2013-05-11T12:27:06Z</time>
      </trkpt>
      <trkpt lat="40.459867" lon="-5.251700">
        <ele>2212.0</ele>
        <time>2013-05-11T12:27:07Z</time>
      </trkpt>
      <trkpt lat="40.459917" lon="-5.251600">
        <ele>2210.0</ele>
        <time>2013-05-11T12:27:08Z</time>
      </trkpt>
      <trkpt lat="40.459967" lon="-5.251517">
        <ele>2208.0</ele>
        <time>2013-05-11T12:27:09Z</time>
      </trkpt>
      <trkpt lat="40.460033" lon="-5.251433">
        <ele>2206.0</ele>
        <time>2013-05-11T12:27:10Z</time>
      </trkpt>
      <trkpt lat="40.460100" lon="-5.251333">
        <ele>2204.0</ele>
        <time>2013-05-11T12:27:11Z</time>
      </trkpt>
      <trkpt lat="40.460150" lon="-5.251233">
        <ele>2203.0</ele>
        <time>2013-05-11T12:27:12Z</time>
      </trkpt>
      <trkpt lat="40.460217" lon="-5.251133">
        <ele>2203.0</ele>
        <time>2013-05-11T12:27:13Z</time>
      </trkpt>
      <trkpt lat="40.460250" lon="-5.251033">
        <ele>2203.0</ele>
        <time>2013-05-11T12:27:14Z</time>
      </trkpt>
      <trkpt lat="40.460283" lon="-5.250933">
        <ele>2203.0</ele>
        <time>2013-05-11T12:27:15Z</time>
      </trkpt>
      <trkpt lat="40.460333" lon="-5.250850">
        <ele>2201.0</ele>
        <time>2013-05-11T12:27:16Z</time>
      </trkpt>
      <trkpt lat="40.460383" lon="-5.250750">
        <ele>2199.0</ele>
        <time>2013-05-11T12:27:17Z</time>
      </trkpt>
      <trkpt lat="40.460450" lon="-5.250667">
        <ele>2197.0</ele>
        <time>2013-05-11T12:27:18Z</time>
      </trkpt>
      <trkpt lat="40.460517" lon="-5.250583">
        <ele>2195.0</ele>
        <time>2013-05-11T12:27:19Z</time>
      </trkpt>
      <trkpt lat="40.460583" lon="-5.250500">
        <ele>2195.0</ele>
        <time>2013-05-11T12:27:20Z</time>
      </trkpt>
      <trkpt lat="40.460650" lon="-5.250417">
        <ele>2194.0</ele>
        <time>2013-05-11T12:27:21Z</time>
      </trkpt>
      <trkpt lat="40.460717" lon="-5.250333">
        <ele>2193.0</ele>
        <time>2013-05-11T12:27:22Z</time>
      </trkpt>
      <trkpt lat="40.460783" lon="-5.250250">
        <ele>2192.0</ele>
        <time>2013-05-11T12:27:23Z</time>
      </trkpt>
      <trkpt lat="40.460850" lon="-5.250183">
        <ele>2192.0</ele>
        <time>2013-05-11T12:27:24Z</time>
      </trkpt>
      <trkpt lat="40.460917" lon="-5.250100">
        <ele>2193.0</ele>
        <time>2013-05-11T12:27:25Z</time>
      </trkpt>
      <trkpt lat="40.461000" lon="-5.250000">
        <ele>2192.0</ele>
        <time>2013-05-11T12:27:26Z</time>
      </trkpt>
      <trkpt lat="40.461083" lon="-5.249900">
        <ele>2192.0</ele>
        <time>2013-05-11T12:27:27Z</time>
      </trkpt>
      <trkpt lat="40.461167" lon="-5.249817">
        <ele>2192.0</ele>
        <time>2013-05-11T12:27:28Z</time>
      </trkpt>
      <trkpt lat="40.461250" lon="-5.249750">
        <ele>2193.0</ele>
        <time>2013-05-11T12:27:29Z</time>
      </trkpt>
      <trkpt lat="40.461317" lon="-5.249683">
        <ele>2196.0</ele>
        <time>2013-05-11T12:27:30Z</time>
      </trkpt>
      <trkpt lat="40.461383" lon="-5.249600">
        <ele>2198.0</ele>
        <time>2013-05-11T12:27:31Z</time>
      </trkpt>
      <trkpt lat="40.461433" lon="-5.249517">
        <ele>2199.0</ele>
        <time>2013-05-11T12:27:32Z</time>
      </trkpt>
      <trkpt lat="40.461483" lon="-5.249450">
        <ele>2199.0</ele>
        <time>2013-05-11T12:27:33Z</time>
      </trkpt>
      <trkpt lat="40.461533" lon="-5.249383">
        <ele>2198.0</ele>
        <time>2013-05-11T12:27:34Z</time>
      </trkpt>
      <trkpt lat="40.461617" lon="-5.249333">
        <ele>2197.0</ele>
        <time>2013-05-11T12:27:35Z</time>
      </trkpt>
      <trkpt lat="40.461700" lon="-5.249250">
        <ele>2197.0</ele>
        <time>2013-05-11T12:27:36Z</time>
      </trkpt>
      <trkpt lat="40.461783" lon="-5.249167">
        <ele>2197.0</ele>
        <time>2013-05-11T12:27:37Z</time>
      </trkpt>
      <trkpt lat="40.461867" lon="-5.249083">
        <ele>2198.0</ele>
        <time>2013-05-11T12:27:38Z</time>
      </trkpt>
      <trkpt lat="40.461933" lon="-5.249000">
        <ele>2200.0</ele>
        <time>2013-05-11T12:27:39Z</time>
      </trkpt>
      <trkpt lat="40.462017" lon="-5.248917">
        <ele>2202.0</ele>
        <time>2013-05-11T12:27:40Z</time>
      </trkpt>
      <trkpt lat="40.462067" lon="-5.248833">
        <ele>2204.0</ele>
        <time>2013-05-11T12:27:41Z</time>
      </trkpt>
      <trkpt lat="40.462133" lon="-5.248767">
        <ele>2205.0</ele>
        <time>2013-05-11T12:27:42Z</time>
      </trkpt>
      <trkpt lat="40.462200" lon="-5.248683">
        <ele>2206.0</ele>
        <time>2013-05-11T12:27:43Z</time>
      </trkpt>
      <trkpt lat="40.462267" lon="-5.248600">
        <ele>2206.0</ele>
        <time>2013-05-11T12:27:44Z</time>
      </trkpt>
      <trkpt lat="40.462350" lon="-5.248500">
        <ele>2208.0</ele>
        <time>2013-05-11T12:27:45Z</time>
      </trkpt>
      <trkpt lat="40.462450" lon="-5.248417">
        <ele>2211.0</ele>
        <time>2013-05-11T12:27:46Z</time>
      </trkpt>
      <trkpt lat="40.462533" lon="-5.248350">
        <ele>2215.0</ele>
        <time>2013-05-11T12:27:47Z</time>
      </trkpt>
      <trkpt lat="40.462600" lon="-5.248300">
        <ele>2219.0</ele>
        <time>2013-05-11T12:27:48Z</time>
      </trkpt>
      <trkpt lat="40.462667" lon="-5.248267">
        <ele>2221.0</ele>
        <time>2013-05-11T12:27:49Z</time>
      </trkpt>
      <trkpt lat="40.462717" lon="-5.248233">
        <ele>2222.0</ele>
        <time>2013-05-11T12:27:50Z</time>
      </trkpt>
      <trkpt lat="40.462800" lon="-5.248217">
        <ele>2221.0</ele>
        <time>2013-05-11T12:27:51Z</time>
      </trkpt>
      <trkpt lat="40.462883" lon="-5.248233">
        <ele>2218.0</ele>
        <time>2013-05-11T12:27:52Z</time>
      </trkpt>
      <trkpt lat="40.462983" lon="-5.248283">
        <ele>2217.0</ele>
        <time>2013-05-11T12:27:53Z</time>
      </trkpt>
      <trkpt lat="40.463067" lon="-5.248367">
        <ele>2217.0</ele>
        <time>2013-05-11T12:27:54Z</time>
      </trkpt>
      <trkpt lat="40.463100" lon="-5.248467">
        <ele>2217.0</ele>
        <time>2013-05-11T12:27:55Z</time>
      </trkpt>
      <trkpt lat="40.463117" lon="-5.248550">
        <ele>2218.0</ele>
        <time>2013-05-11T12:27:56Z</time>
      </trkpt>
      <trkpt lat="40.463100" lon="-5.248650">
        <ele>2218.0</ele>
        <time>2013-05-11T12:27:57Z</time>
      </trkpt>
      <trkpt lat="40.463067" lon="-5.248733">
        <ele>2219.0</ele>
        <time>2013-05-11T12:27:58Z</time>
      </trkpt>
      <trkpt lat="40.463050" lon="-5.248800">
        <ele>2219.0</ele>
        <time>2013-05-11T12:27:59Z</time>
      </trkpt>
      <trkpt lat="40.463000" lon="-5.248867">
        <ele>2219.0</ele>
        <time>2013-05-11T12:28:00Z</time>
      </trkpt>
      <trkpt lat="40.462917" lon="-5.248917">
        <ele>2219.0</ele>
        <time>2013-05-11T12:28:01Z</time>
      </trkpt>
      <trkpt lat="40.462817" lon="-5.248933">
        <ele>2219.0</ele>
        <time>2013-05-11T12:28:02Z</time>
      </trkpt>
      <trkpt lat="40.462733" lon="-5.248917">
        <ele>2220.0</ele>
        <time>2013-05-11T12:28:03Z</time>
      </trkpt>
      <trkpt lat="40.462633" lon="-5.248883">
        <ele>2221.0</ele>
        <time>2013-05-11T12:28:04Z</time>
      </trkpt>
      <trkpt lat="40.462550" lon="-5.248833">
        <ele>2222.0</ele>
        <time>2013-05-11T12:28:05Z</time>
      </trkpt>
      <trkpt lat="40.462467" lon="-5.248767">
        <ele>2223.0</ele>
        <time>2013-05-11T12:28:06Z</time>
      </trkpt>
      <trkpt lat="40.462400" lon="-5.248667">
        <ele>2223.0</ele>
        <time>2013-05-11T12:28:07Z</time>
      </trkpt>
      <trkpt lat="40.462350" lon="-5.248533">
        <ele>2223.0</ele>
        <time>2013-05-11T12:28:08Z</time>
      </trkpt>
      <trkpt lat="40.462317" lon="-5.248383">
        <ele>2224.0</ele>
        <time>2013-05-11T12:28:09Z</time>
      </trkpt>
      <trkpt lat="40.462300" lon="-5.248233">
        <ele>2225.0</ele>
        <time>2013-05-11T12:28:10Z</time>
      </trkpt>
      <trkpt lat="40.462317" lon="-5.248100">
        <ele>2227.0</ele>
        <time>2013-05-11T12:28:11Z</time>
      </trkpt>
      <trkpt lat="40.462333" lon="-5.247967">
        <ele>2229.0</ele>
        <time>2013-05-11T12:28:12Z</time>
      </trkpt>
      <trkpt lat="40.462383" lon="-5.247867">
        <ele>2230.0</ele>
        <time>2013-05-11T12:28:13Z</time>
      </trkpt>
      <trkpt lat="40.462433" lon="-5.247750">
        <ele>2231.0</ele>
        <time>2013-05-11T12:28:14Z</time>
      </trkpt>
      <trkpt lat="40.462500" lon="-5.247650">
        <ele>2231.0</ele>
        <time>2013-05-11T12:28:15Z</time>
      </trkpt>
      <trkpt lat="40.462567" lon="-5.247550">
        <ele>2232.0</ele>
        <time>2013-05-11T12:28:16Z</time>
      </trkpt>
      <trkpt lat="40.462650" lon="-5.247467">
        <ele>2233.0</ele>
        <time>2013-05-11T12:28:17Z</time>
      </trkpt>
      <trkpt lat="40.462733" lon="-5.247417">
        <ele>2233.0</ele>
        <time>2013-05-11T12:28:18Z</time>
      </trkpt>
      <trkpt lat="40.462833" lon="-5.247350">
        <ele>2234.0</ele>
        <time>2013-05-11T12:28:19Z</time>
      </trkpt>
      <trkpt lat="40.462917" lon="-5.247283">
        <ele>2235.0</ele>
        <time>2013-05-11T12:28:20Z</time>
      </trkpt>
      <trkpt lat="40.463000" lon="-5.247233">
        <ele>2234.0</ele>
        <time>2013-05-11T12:28:21Z</time>
      </trkpt>
      <trkpt lat="40.463100" lon="-5.247183">
        <ele>2233.0</ele>
        <time>2013-05-11T12:28:22Z</time>
      </trkpt>
      <trkpt lat="40.463200" lon="-5.247117">
        <ele>2232.0</ele>
        <time>2013-05-11T12:28:23Z</time>
      </trkpt>
      <trkpt lat="40.463300" lon="-5.247050">
        <ele>2231.0</ele>
        <time>2013-05-11T12:28:24Z</time>
      </trkpt>
      <trkpt lat="40.463400" lon="-5.246967">
        <ele>2232.0</ele>
        <time>2013-05-11T12:28:25Z</time>
      </trkpt>
      <trkpt lat="40.463483" lon="-5.246883">
        <ele>2233.0</ele>
        <time>2013-05-11T12:28:26Z</time>
      </trkpt>
      <trkpt lat="40.463550" lon="-5.246817">
        <ele>2234.0</ele>
        <time>2013-05-11T12:28:27Z</time>
      </trkpt>
      <trkpt lat="40.463617" lon="-5.246750">
        <ele>2233.0</ele>
        <time>2013-05-11T12:28:28Z</time>
      </trkpt>
      <trkpt lat="40.463683" lon="-5.246700">
        <ele>2231.0</ele>
        <time>2013-05-11T12:28:29Z</time>
      </trkpt>
      <trkpt lat="40.463767" lon="-5.246633">
        <ele>2229.0</ele>
        <time>2013-05-11T12:28:30Z</time>
      </trkpt>
      <trkpt lat="40.463867" lon="-5.246550">
        <ele>2226.0</ele>
        <time>2013-05-11T12:28:31Z</time>
      </trkpt>
      <trkpt lat="40.463950" lon="-5.246450">
        <ele>2225.0</ele>
        <time>2013-05-11T12:28:32Z</time>
      </trkpt>
      <trkpt lat="40.464017" lon="-5.246350">
        <ele>2225.0</ele>
        <time>2013-05-11T12:28:33Z</time>
      </trkpt>
      <trkpt lat="40.464083" lon="-5.246267">
        <ele>2226.0</ele>
        <time>2013-05-11T12:28:34Z</time>
      </trkpt>
      <trkpt lat="40.464167" lon="-5.246217">
        <ele>2225.0</ele>
        <time>2013-05-11T12:28:35Z</time>
      </trkpt>
      <trkpt lat="40.464233" lon="-5.246150">
        <ele>2224.0</ele>
        <time>2013-05-11T12:28:36Z</time>
      </trkpt>
      <trkpt lat="40.464317" lon="-5.246083">
        <ele>2222.0</ele>
        <time>2013-05-11T12:28:37Z</time>
      </trkpt>
      <trkpt lat="40.464400" lon="-5.246000">
        <ele>2219.0</ele>
        <time>2013-05-11T12:28:38Z</time>
      </trkpt>
      <trkpt lat="40.464483" lon="-5.245900">
        <ele>2217.0</ele>
        <time>2013-05-11T12:28:39Z</time>
      </trkpt>
      <trkpt lat="40.464567" lon="-5.245800">
        <ele>2216.0</ele>
        <time>2013-05-11T12:28:40Z</time>
      </trkpt>
      <trkpt lat="40.464633" lon="-5.245700">
        <ele>2215.0</ele>
        <time>2013-05-11T12:28:41Z</time>
      </trkpt>
      <trkpt lat="40.464700" lon="-5.245617">
        <ele>2213.0</ele>
        <time>2013-05-11T12:28:42Z</time>
      </trkpt>
      <trkpt lat="40.464767" lon="-5.245517">
        <ele>2210.0</ele>
        <time>2013-05-11T12:28:43Z</time>
      </trkpt>
      <trkpt lat="40.464833" lon="-5.245400">
        <ele>2207.0</ele>
        <time>2013-05-11T12:28:44Z</time>
      </trkpt>
      <trkpt lat="40.464883" lon="-5.245283">
        <ele>2205.0</ele>
        <time>2013-05-11T12:28:45Z</time>
      </trkpt>
      <trkpt lat="40.464933" lon="-5.245183">
        <ele>2204.0</ele>
        <time>2013-05-11T12:28:46Z</time>
      </trkpt>
      <trkpt lat="40.464983" lon="-5.245100">
        <ele>2203.0</ele>
        <time>2013-05-11T12:28:47Z</time>
      </trkpt>
      <trkpt lat="40.465033" lon="-5.245033">
        <ele>2201.0</ele>
        <time>2013-05-11T12:28:48Z</time>
      </trkpt>
      <trkpt lat="40.465083" lon="-5.244967">
        <ele>2198.0</ele>
        <time>2013-05-11T12:28:49Z</time>
      </trkpt>
      <trkpt lat="40.465150" lon="-5.244900">
        <ele>2194.0</ele>
        <time>2013-05-11T12:28:50Z</time>
      </trkpt>
      <trkpt lat="40.465233" lon="-5.244833">
        <ele>2190.0</ele>
        <time>2013-05-11T12:28:51Z</time>
      </trkpt>
      <trkpt lat="40.465317" lon="-5.244750">
        <ele>2187.0</ele>
        <time>2013-05-11T12:28:52Z</time>
      </trkpt>
      <trkpt lat="40.465383" lon="-5.244667">
        <ele>2186.0</ele>
        <time>2013-05-11T12:28:53Z</time>
      </trkpt>
      <trkpt lat="40.465450" lon="-5.244583">
        <ele>2185.0</ele>
        <time>2013-05-11T12:28:54Z</time>
      </trkpt>
      <trkpt lat="40.465517" lon="-5.244517">
        <ele>2183.0</ele>
        <time>2013-05-11T12:28:55Z</time>
      </trkpt>
      <trkpt lat="40.465583" lon="-5.244433">
        <ele>2181.0</ele>
        <time>2013-05-11T12:28:56Z</time>
      </trkpt>
      <trkpt lat="40.465650" lon="-5.244350">
        <ele>2179.0</ele>
        <time>2013-05-11T12:28:57Z</time>
      </trkpt>
      <trkpt lat="40.465717" lon="-5.244267">
        <ele>2177.0</ele>
        <time>2013-05-11T12:28:58Z</time>
      </trkpt>
      <trkpt lat="40.465783" lon="-5.244183">
        <ele>2175.0</ele>
        <time>2013-05-11T12:28:59Z</time>
      </trkpt>
      <trkpt lat="40.465850" lon="-5.244083">
        <ele>2174.0</ele>
        <time>2013-05-11T12:29:00Z</time>
      </trkpt>
      <trkpt lat="40.465917" lon="-5.244017">
        <ele>2173.0</ele>
        <time>2013-05-11T12:29:01Z</time>
      </trkpt>
      <trkpt lat="40.465983" lon="-5.243933">
        <ele>2172.0</ele>
        <time>2013-05-11T12:29:02Z</time>
      </trkpt>
      <trkpt lat="40.466050" lon="-5.243850">
        <ele>2170.0</ele>
        <time>2013-05-11T12:29:03Z</time>
      </trkpt>
      <trkpt lat="40.466117" lon="-5.243767">
        <ele>2168.0</ele>
        <time>2013-05-11T12:29:04Z</time>
      </trkpt>
      <trkpt lat="40.466200" lon="-5.243683">
        <ele>2166.0</ele>
        <time>2013-05-11T12:29:05Z</time>
      </trkpt>
      <trkpt lat="40.466267" lon="-5.243600">
        <ele>2165.0</ele>
        <time>2013-05-11T12:29:06Z</time>
      </trkpt>
      <trkpt lat="40.466333" lon="-5.243517">
        <ele>2165.0</ele>
        <time>2013-05-11T12:29:07Z</time>
      </trkpt>
      <trkpt lat="40.466400" lon="-5.243450">
        <ele>2164.0</ele>
        <time>2013-05-11T12:29:08Z</time>
      </trkpt>
      <trkpt lat="40.466467" lon="-5.243367">
        <ele>2163.0</ele>
        <time>2013-05-11T12:29:09Z</time>
      </trkpt>
      <trkpt lat="40.466533" lon="-5.243283">
        <ele>2162.0</ele>
        <time>2013-05-11T12:29:10Z</time>
      </trkpt>
      <trkpt lat="40.466600" lon="-5.243200">
        <ele>2161.0</ele>
        <time>2013-05-11T12:29:11Z</time>
      </trkpt>
      <trkpt lat="40.466683" lon="-5.243133">
        <ele>2159.0</ele>
        <time>2013-05-11T12:29:12Z</time>
      </trkpt>
      <trkpt lat="40.466750" lon="-5.243067">
        <ele>2158.0</ele>
        <time>2013-05-11T12:29:13Z</time>
      </trkpt>
      <trkpt lat="40.466833" lon="-5.243000">
        <ele>2157.0</ele>
        <time>2013-05-11T12:29:14Z</time>
      </trkpt>
      <trkpt lat="40.466900" lon="-5.242950">
        <ele>2156.0</ele>
        <time>2013-05-11T12:29:15Z</time>
      </trkpt>
      <trkpt lat="40.466983" lon="-5.242900">
        <ele>2154.0</ele>
        <time>2013-05-11T12:29:16Z</time>
      </trkpt>
      <trkpt lat="40.467050" lon="-5.242850">
        <ele>2153.0</ele>
        <time>2013-05-11T12:29:17Z</time>
      </trkpt>
      <trkpt lat="40.467117" lon="-5.242800">
        <ele>2152.0</ele>
        <time>2013-05-11T12:29:18Z</time>
      </trkpt>
      <trkpt lat="40.467200" lon="-5.242750">
        <ele>2150.0</ele>
        <time>2013-05-11T12:29:19Z</time>
      </trkpt>
      <trkpt lat="40.467283" lon="-5.242683">
        <ele>2148.0</ele>
        <time>2013-05-11T12:29:20Z</time>
      </trkpt>
      <trkpt lat="40.467350" lon="-5.242633">
        <ele>2146.0</ele>
        <time>2013-05-11T12:29:21Z</time>
      </trkpt>
      <trkpt lat="40.467433" lon="-5.242583">
        <ele>2145.0</ele>
        <time>2013-05-11T12:29:22Z</time>
      </trkpt>
      <trkpt lat="40.467517" lon="-5.242517">
        <ele>2144.0</ele>
        <time>2013-05-11T12:29:23Z</time>
      </trkpt>
      <trkpt lat="40.467583" lon="-5.242467">
        <ele>2143.0</ele>
        <time>2013-05-11T12:29:24Z</time>
      </trkpt>
      <trkpt lat="40.467650" lon="-5.242400">
        <ele>2142.0</ele>
        <time>2013-05-11T12:29:25Z</time>
      </trkpt>
      <trkpt lat="40.467717" lon="-5.242317">
        <ele>2141.0</ele>
        <time>2013-05-11T12:29:26Z</time>
      </trkpt>
      <trkpt lat="40.467783" lon="-5.242250">
        <ele>2139.0</ele>
        <time>2013-05-11T12:29:27Z</time>
      </trkpt>
      <trkpt lat="40.467850" lon="-5.242183">
        <ele>2137.0</ele>
        <time>2013-05-11T12:29:28Z</time>
      </trkpt>
      <trkpt lat="40.467917" lon="-5.242100">
        <ele>2136.0</ele>
        <time>2013-05-11T12:29:29Z</time>
      </trkpt>
      <trkpt lat="40.467983" lon="-5.242033">
        <ele>2135.0</ele>
        <time>2013-05-11T12:29:30Z</time>
      </trkpt>
      <trkpt lat="40.468050" lon="-5.241950">
        <ele>2134.0</ele>
        <time>2013-05-11T12:29:31Z</time>
      </trkpt>
      <trkpt lat="40.468100" lon="-5.241883">
        <ele>2132.0</ele>
        <time>2013-05-11T12:29:32Z</time>
      </trkpt>
      <trkpt lat="40.468167" lon="-5.241817">
        <ele>2129.0</ele>
        <time>2013-05-11T12:29:33Z</time>
      </trkpt>
      <trkpt lat="40.468233" lon="-5.241733">
        <ele>2127.0</ele>
        <time>2013-05-11T12:29:34Z</time>
      </trkpt>
      <trkpt lat="40.468300" lon="-5.241650">
        <ele>2126.0</ele>
        <time>2013-05-11T12:29:35Z</time>
      </trkpt>
      <trkpt lat="40.468367" lon="-5.241583">
        <ele>2125.0</ele>
        <time>2013-05-11T12:29:36Z</time>
      </trkpt>
      <trkpt lat="40.468417" lon="-5.241517">
        <ele>2124.0</ele>
        <time>2013-05-11T12:29:37Z</time>
      </trkpt>
      <trkpt lat="40.468483" lon="-5.241450">
        <ele>2122.0</ele>
        <time>2013-05-11T12:29:38Z</time>
      </trkpt>
      <trkpt lat="40.468550" lon="-5.241383">
        <ele>2121.0</ele>
        <time>2013-05-11T12:29:39Z</time>
      </trkpt>
      <trkpt lat="40.468617" lon="-5.241317">
        <ele>2119.0</ele>
        <time>2013-05-11T12:29:40Z</time>
      </trkpt>
      <trkpt lat="40.468667" lon="-5.241233">
        <ele>2118.0</ele>
        <time>2013-05-11T12:29:41Z</time>
      </trkpt>
      <trkpt lat="40.468733" lon="-5.241150">
        <ele>2117.0</ele>
        <time>2013-05-11T12:29:42Z</time>
      </trkpt>
      <trkpt lat="40.468800" lon="-5.241083">
        <ele>2116.0</ele>
        <time>2013-05-11T12:29:43Z</time>
      </trkpt>
      <trkpt lat="40.468850" lon="-5.241017">
        <ele>2115.0</ele>
        <time>2013-05-11T12:29:44Z</time>
      </trkpt>
      <trkpt lat="40.468917" lon="-5.240933">
        <ele>2113.0</ele>
        <time>2013-05-11T12:29:45Z</time>
      </trkpt>
      <trkpt lat="40.468983" lon="-5.240850">
        <ele>2112.0</ele>
        <time>2013-05-11T12:29:46Z</time>
      </trkpt>
      <trkpt lat="40.469050" lon="-5.240767">
        <ele>2112.0</ele>
        <time>2013-05-11T12:29:47Z</time>
      </trkpt>
      <trkpt lat="40.469100" lon="-5.240700">
        <ele>2112.0</ele>
        <time>2013-05-11T12:29:48Z</time>
      </trkpt>
      <trkpt lat="40.469167" lon="-5.240633">
        <ele>2110.0</ele>
        <time>2013-05-11T12:29:49Z</time>
      </trkpt>
      <trkpt lat="40.469217" lon="-5.240550">
        <ele>2108.0</ele>
        <time>2013-05-11T12:29:50Z</time>
      </trkpt>
      <trkpt lat="40.469283" lon="-5.240467">
        <ele>2106.0</ele>
        <time>2013-05-11T12:29:51Z</time>
      </trkpt>
      <trkpt lat="40.469350" lon="-5.240383">
        <ele>2105.0</ele>
        <time>2013-05-11T12:29:52Z</time>
      </trkpt>
      <trkpt lat="40.469417" lon="-5.240300">
        <ele>2104.0</ele>
        <time>2013-05-11T12:29:53Z</time>
      </trkpt>
      <trkpt lat="40.469483" lon="-5.240217">
        <ele>2106.0</ele>
        <time>2013-05-11T12:29:54Z</time>
      </trkpt>
      <trkpt lat="40.469517" lon="-5.240150">
        <ele>2107.0</ele>
        <time>2013-05-11T12:29:55Z</time>
      </trkpt>
      <trkpt lat="40.469550" lon="-5.240083">
        <ele>2106.0</ele>
        <time>2013-05-11T12:29:56Z</time>
      </trkpt>
      <trkpt lat="40.469583" lon="-5.240017">
        <ele>2105.0</ele>
        <time>2013-05-11T12:29:57Z</time>
      </trkpt>
      <trkpt lat="40.469633" lon="-5.239950">
        <ele>2103.0</ele>
        <time>2013-05-11T12:29:58Z</time>
      </trkpt>
      <trkpt lat="40.469683" lon="-5.239883">
        <ele>2101.0</ele>
        <time>2013-05-11T12:29:59Z</time>
      </trkpt>
      <trkpt lat="40.469750" lon="-5.239800">
        <ele>2101.0</ele>
        <time>2013-05-11T12:30:00Z</time>
      </trkpt>
      <trkpt lat="40.469800" lon="-5.239700">
        <ele>2103.0</ele>
        <time>2013-05-11T12:30:01Z</time>
      </trkpt>
      <trkpt lat="40.469850" lon="-5.239617">
        <ele>2105.0</ele>
        <time>2013-05-11T12:30:02Z</time>
      </trkpt>
      <trkpt lat="40.469900" lon="-5.239533">
        <ele>2107.0</ele>
        <time>2013-05-11T12:30:03Z</time>
      </trkpt>
      <trkpt lat="40.469933" lon="-5.239467">
        <ele>2108.0</ele>
        <time>2013-05-11T12:30:04Z</time>
      </trkpt>
      <trkpt lat="40.469967" lon="-5.239383">
        <ele>2109.0</ele>
        <time>2013-05-11T12:30:05Z</time>
      </trkpt>
      <trkpt lat="40.470000" lon="-5.239300">
        <ele>2108.0</ele>
        <time>2013-05-11T12:30:06Z</time>
      </trkpt>
      <trkpt lat="40.470050" lon="-5.239183">
        <ele>2107.0</ele>
        <time>2013-05-11T12:30:07Z</time>
      </trkpt>
      <trkpt lat="40.470100" lon="-5.239083">
        <ele>2106.0</ele>
        <time>2013-05-11T12:30:08Z</time>
      </trkpt>
      <trkpt lat="40.470150" lon="-5.238967">
        <ele>2106.0</ele>
        <time>2013-05-11T12:30:09Z</time>
      </trkpt>
      <trkpt lat="40.470200" lon="-5.238850">
        <ele>2106.0</ele>
        <time>2013-05-11T12:30:10Z</time>
      </trkpt>
      <trkpt lat="40.470250" lon="-5.238750">
        <ele>2108.0</ele>
        <time>2013-05-11T12:30:11Z</time>
      </trkpt>
      <trkpt lat="40.470300" lon="-5.238633">
        <ele>2109.0</ele>
        <time>2013-05-11T12:30:12Z</time>
      </trkpt>
      <trkpt lat="40.470333" lon="-5.238517">
        <ele>2109.0</ele>
        <time>2013-05-11T12:30:13Z</time>
      </trkpt>
      <trkpt lat="40.470383" lon="-5.238400">
        <ele>2109.0</ele>
        <time>2013-05-11T12:30:14Z</time>
      </trkpt>
      <trkpt lat="40.470417" lon="-5.238283">
        <ele>2108.0</ele>
        <time>2013-05-11T12:30:15Z</time>
      </trkpt>
      <trkpt lat="40.470450" lon="-5.238167">
        <ele>2107.0</ele>
        <time>2013-05-11T12:30:16Z</time>
      </trkpt>
      <trkpt lat="40.470500" lon="-5.238050">
        <ele>2107.0</ele>
        <time>2013-05-11T12:30:17Z</time>
      </trkpt>
      <trkpt lat="40.470550" lon="-5.237933">
        <ele>2106.0</ele>
        <time>2013-05-11T12:30:18Z</time>
      </trkpt>
      <trkpt lat="40.470600" lon="-5.237833">
        <ele>2106.0</ele>
        <time>2013-05-11T12:30:19Z</time>
      </trkpt>
      <trkpt lat="40.470650" lon="-5.237733">
        <ele>2106.0</ele>
        <time>2013-05-11T12:30:20Z</time>
      </trkpt>
      <trkpt lat="40.470683" lon="-5.237617">
        <ele>2105.0</ele>
        <time>2013-05-11T12:30:21Z</time>
      </trkpt>
      <trkpt lat="40.470733" lon="-5.237517">
        <ele>2105.0</ele>
        <time>2013-05-11T12:30:22Z</time>
      </trkpt>
      <trkpt lat="40.470783" lon="-5.237417">
        <ele>2104.0</ele>
        <time>2013-05-11T12:30:23Z</time>
      </trkpt>
      <trkpt lat="40.470850" lon="-5.237333">
        <ele>2103.0</ele>
        <time>2013-05-11T12:30:24Z</time>
      </trkpt>
      <trkpt lat="40.470900" lon="-5.237233">
        <ele>2103.0</ele>
        <time>2013-05-11T12:30:25Z</time>
      </trkpt>
      <trkpt lat="40.470967" lon="-5.237133">
        <ele>2103.0</ele>
        <time>2013-05-11T12:30:26Z</time>
      </trkpt>
      <trkpt lat="40.471017" lon="-5.237033">
        <ele>2103.0</ele>
        <time>2013-05-11T12:30:27Z</time>
      </trkpt>
      <trkpt lat="40.471067" lon="-5.236933">
        <ele>2102.0</ele>
        <time>2013-05-11T12:30:28Z</time>
      </trkpt>
      <trkpt lat="40.471117" lon="-5.236833">
        <ele>2101.0</ele>
        <time>2013-05-11T12:30:29Z</time>
      </trkpt>
      <trkpt lat="40.471167" lon="-5.236750">
        <ele>2100.0</ele>
        <time>2013-05-11T12:30:30Z</time>
      </trkpt>
      <trkpt lat="40.471217" lon="-5.236667">
        <ele>2098.0</ele>
        <time>2013-05-11T12:30:31Z</time>
      </trkpt>
      <trkpt lat="40.471267" lon="-5.236567">
        <ele>2096.0</ele>
        <time>2013-05-11T12:30:32Z</time>
      </trkpt>
      <trkpt lat="40.471317" lon="-5.236467">
        <ele>2094.0</ele>
        <time>2013-05-11T12:30:33Z</time>
      </trkpt>
      <trkpt lat="40.471367" lon="-5.236383">
        <ele>2091.0</ele>
        <time>2013-05-11T12:30:34Z</time>
      </trkpt>
      <trkpt lat="40.471417" lon="-5.236317">
        <ele>2089.0</ele>
        <time>2013-05-11T12:30:35Z</time>
      </trkpt>
      <trkpt lat="40.471483" lon="-5.236233">
        <ele>2086.0</ele>
        <time>2013-05-11T12:30:36Z</time>
      </trkpt>
      <trkpt lat="40.471550" lon="-5.236167">
        <ele>2084.0</ele>
        <time>2013-05-11T12:30:37Z</time>
      </trkpt>
      <trkpt lat="40.471600" lon="-5.236067">
        <ele>2081.0</ele>
        <time>2013-05-11T12:30:38Z</time>
      </trkpt>
      <trkpt lat="40.471650" lon="-5.235983">
        <ele>2078.0</ele>
        <time>2013-05-11T12:30:39Z</time>
      </trkpt>
      <trkpt lat="40.471717" lon="-5.235900">
        <ele>2075.0</ele>
        <time>2013-05-11T12:30:40Z</time>
      </trkpt>
      <trkpt lat="40.471783" lon="-5.235817">
        <ele>2072.0</ele>
        <time>2013-05-11T12:30:41Z</time>
      </trkpt>
      <trkpt lat="40.471833" lon="-5.235750">
        <ele>2070.0</ele>
        <time>2013-05-11T12:30:42Z</time>
      </trkpt>
      <trkpt lat="40.471900" lon="-5.235667">
        <ele>2068.0</ele>
        <time>2013-05-11T12:30:43Z</time>
      </trkpt>
      <trkpt lat="40.471950" lon="-5.235600">
        <ele>2065.0</ele>
        <time>2013-05-11T12:30:44Z</time>
      </trkpt>
      <trkpt lat="40.471983" lon="-5.235517">
        <ele>2062.0</ele>
        <time>2013-05-11T12:30:45Z</time>
      </trkpt>
      <trkpt lat="40.472033" lon="-5.235450">
        <ele>2059.0</ele>
        <time>2013-05-11T12:30:46Z</time>
      </trkpt>
      <trkpt lat="40.472100" lon="-5.235383">
        <ele>2054.0</ele>
        <time>2013-05-11T12:30:47Z</time>
      </trkpt>
      <trkpt lat="40.472150" lon="-5.235317">
        <ele>2050.0</ele>
        <time>2013-05-11T12:30:48Z</time>
      </trkpt>
      <trkpt lat="40.472233" lon="-5.235233">
        <ele>2046.0</ele>
        <time>2013-05-11T12:30:49Z</time>
      </trkpt>
      <trkpt lat="40.472300" lon="-5.235167">
        <ele>2043.0</ele>
        <time>2013-05-11T12:30:50Z</time>
      </trkpt>
      <trkpt lat="40.472350" lon="-5.235083">
        <ele>2040.0</ele>
        <time>2013-05-11T12:30:51Z</time>
      </trkpt>
      <trkpt lat="40.472417" lon="-5.235000">
        <ele>2036.0</ele>
        <time>2013-05-11T12:30:52Z</time>
      </trkpt>
      <trkpt lat="40.472500" lon="-5.234917">
        <ele>2033.0</ele>
        <time>2013-05-11T12:30:53Z</time>
      </trkpt>
      <trkpt lat="40.472583" lon="-5.234833">
        <ele>2029.0</ele>
        <time>2013-05-11T12:30:54Z</time>
      </trkpt>
      <trkpt lat="40.472667" lon="-5.234733">
        <ele>2026.0</ele>
        <time>2013-05-11T12:30:55Z</time>
      </trkpt>
      <trkpt lat="40.472733" lon="-5.234617">
        <ele>2023.0</ele>
        <time>2013-05-11T12:30:56Z</time>
      </trkpt>
      <trkpt lat="40.472783" lon="-5.234500">
        <ele>2023.0</ele>
        <time>2013-05-11T12:30:57Z</time>
      </trkpt>
      <trkpt lat="40.472833" lon="-5.234417">
        <ele>2023.0</ele>
        <time>2013-05-11T12:30:58Z</time>
      </trkpt>
      <trkpt lat="40.472867" lon="-5.234333">
        <ele>2021.0</ele>
        <time>2013-05-11T12:30:59Z</time>
      </trkpt>
      <trkpt lat="40.472900" lon="-5.234267">
        <ele>2018.0</ele>
        <time>2013-05-11T12:31:00Z</time>
      </trkpt>
      <trkpt lat="40.472933" lon="-5.234183">
        <ele>2015.0</ele>
        <time>2013-05-11T12:31:01Z</time>
      </trkpt>
      <trkpt lat="40.472983" lon="-5.234100">
        <ele>2011.0</ele>
        <time>2013-05-11T12:31:02Z</time>
      </trkpt>
      <trkpt lat="40.473050" lon="-5.234000">
        <ele>2008.0</ele>
        <time>2013-05-11T12:31:03Z</time>
      </trkpt>
      <trkpt lat="40.473100" lon="-5.233917">
        <ele>2006.0</ele>
        <time>2013-05-11T12:31:04Z</time>
      </trkpt>
      <trkpt lat="40.473150" lon="-5.233850">
        <ele>2005.0</ele>
        <time>2013-05-11T12:31:05Z</time>
      </trkpt>
      <trkpt lat="40.473183" lon="-5.233783">
        <ele>2004.0</ele>
        <time>2013-05-11T12:31:06Z</time>
      </trkpt>
      <trkpt lat="40.473217" lon="-5.233717">
        <ele>2001.0</ele>
        <time>2013-05-11T12:31:07Z</time>
      </trkpt>
      <trkpt lat="40.473250" lon="-5.233633">
        <ele>1997.0</ele>
        <time>2013-05-11T12:31:08Z</time>
      </trkpt>
      <trkpt lat="40.473300" lon="-5.233533">
        <ele>1993.0</ele>
        <time>2013-05-11T12:31:09Z</time>
      </trkpt>
      <trkpt lat="40.473350" lon="-5.233433">
        <ele>1989.0</ele>
        <time>2013-05-11T12:31:10Z</time>
      </trkpt>
      <trkpt lat="40.473400" lon="-5.233350">
        <ele>1987.0</ele>
        <time>2013-05-11T12:31:11Z</time>
      </trkpt>
      <trkpt lat="40.473450" lon="-5.233267">
        <ele>1985.0</ele>
        <time>2013-05-11T12:31:12Z</time>
      </trkpt>
      <trkpt lat="40.473500" lon="-5.233200">
        <ele>1984.0</ele>
        <time>2013-05-11T12:31:13Z</time>
      </trkpt>
      <trkpt lat="40.473550" lon="-5.233100">
        <ele>1984.0</ele>
        <time>2013-05-11T12:31:14Z</time>
      </trkpt>
      <trkpt lat="40.473600" lon="-5.232983">
        <ele>1983.0</ele>
        <time>2013-05-11T12:31:15Z</time>
      </trkpt>
      <trkpt lat="40.473650" lon="-5.232883">
        <ele>1983.0</ele>
        <time>2013-05-11T12:31:16Z</time>
      </trkpt>
      <trkpt lat="40.473717" lon="-5.232783">
        <ele>1984.0</ele>
        <time>2013-05-11T12:31:17Z</time>
      </trkpt>
      <trkpt lat="40.473767" lon="-5.232700">
        <ele>1984.0</ele>
        <time>2013-05-11T12:31:18Z</time>
      </trkpt>
      <trkpt lat="40.473817" lon="-5.232617">
        <ele>1985.0</ele>
        <time>2013-05-11T12:31:19Z</time>
      </trkpt>
      <trkpt lat="40.473867" lon="-5.232517">
        <ele>1984.0</ele>
        <time>2013-05-11T12:31:20Z</time>
      </trkpt>
      <trkpt lat="40.473933" lon="-5.232433">
        <ele>1983.0</ele>
        <time>2013-05-11T12:31:21Z</time>
      </trkpt>
      <trkpt lat="40.474000" lon="-5.232350">
        <ele>1982.0</ele>
        <time>2013-05-11T12:31:22Z</time>
      </trkpt>
      <trkpt lat="40.474083" lon="-5.232267">
        <ele>1980.0</ele>
        <time>2013-05-11T12:31:23Z</time>
      </trkpt>
      <trkpt lat="40.474150" lon="-5.232183">
        <ele>1979.0</ele>
        <time>2013-05-11T12:31:24Z</time>
      </trkpt>
      <trkpt lat="40.474217" lon="-5.232083">
        <ele>1978.0</ele>
        <time>2013-05-11T12:31:25Z</time>
      </trkpt>
      <trkpt lat="40.474300" lon="-5.231967">
        <ele>1977.0</ele>
        <time>2013-05-11T12:31:26Z</time>
      </trkpt>
      <trkpt lat="40.474367" lon="-5.231883">
        <ele>1976.0</ele>
        <time>2013-05-11T12:31:27Z</time>
      </trkpt>
      <trkpt lat="40.474450" lon="-5.231800">
        <ele>1974.0</ele>
        <time>2013-05-11T12:31:28Z</time>
      </trkpt>
      <trkpt lat="40.474533" lon="-5.231717">
        <ele>1973.0</ele>
        <time>2013-05-11T12:31:29Z</time>
      </trkpt>
      <trkpt lat="40.474600" lon="-5.231617">
        <ele>1972.0</ele>
        <time>2013-05-11T12:31:30Z</time>
      </trkpt>
      <trkpt lat="40.474667" lon="-5.231517">
        <ele>1971.0</ele>
        <time>2013-05-11T12:31:31Z</time>
      </trkpt>
      <trkpt lat="40.474733" lon="-5.231400">
        <ele>1971.0</ele>
        <time>2013-05-11T12:31:32Z</time>
      </trkpt>
      <trkpt lat="40.474817" lon="-5.231300">
        <ele>1970.0</ele>
        <time>2013-05-11T12:31:33Z</time>
      </trkpt>
      <trkpt lat="40.474917" lon="-5.231200">
        <ele>1970.0</ele>
        <time>2013-05-11T12:31:34Z</time>
      </trkpt>
      <trkpt lat="40.475017" lon="-5.231100">
        <ele>1969.0</ele>
        <time>2013-05-11T12:31:35Z</time>
      </trkpt>
      <trkpt lat="40.475100" lon="-5.231000">
        <ele>1970.0</ele>
        <time>2013-05-11T12:31:36Z</time>
      </trkpt>
      <trkpt lat="40.475183" lon="-5.230883">
        <ele>1971.0</ele>
        <time>2013-05-11T12:31:37Z</time>
      </trkpt>
      <trkpt lat="40.475267" lon="-5.230767">
        <ele>1973.0</ele>
        <time>2013-05-11T12:31:38Z</time>
      </trkpt>
      <trkpt lat="40.475350" lon="-5.230683">
        <ele>1975.0</ele>
        <time>2013-05-11T12:31:39Z</time>
      </trkpt>
      <trkpt lat="40.475417" lon="-5.230583">
        <ele>1977.0</ele>
        <time>2013-05-11T12:31:40Z</time>
      </trkpt>
      <trkpt lat="40.475500" lon="-5.230500">
        <ele>1978.0</ele>
        <time>2013-05-11T12:31:41Z</time>
      </trkpt>
      <trkpt lat="40.475567" lon="-5.230400">
        <ele>1980.0</ele>
        <time>2013-05-11T12:31:42Z</time>
      </trkpt>
      <trkpt lat="40.475650" lon="-5.230317">
        <ele>1981.0</ele>
        <time>2013-05-11T12:31:43Z</time>
      </trkpt>
      <trkpt lat="40.475733" lon="-5.230233">
        <ele>1983.0</ele>
        <time>2013-05-11T12:31:44Z</time>
      </trkpt>
      <trkpt lat="40.475833" lon="-5.230167">
        <ele>1984.0</ele>
        <time>2013-05-11T12:31:45Z</time>
      </trkpt>
      <trkpt lat="40.475917" lon="-5.230100">
        <ele>1986.0</ele>
        <time>2013-05-11T12:31:46Z</time>
      </trkpt>
      <trkpt lat="40.476000" lon="-5.230033">
        <ele>1989.0</ele>
        <time>2013-05-11T12:31:47Z</time>
      </trkpt>
      <trkpt lat="40.476067" lon="-5.229983">
        <ele>1992.0</ele>
        <time>2013-05-11T12:31:48Z</time>
      </trkpt>
      <trkpt lat="40.476133" lon="-5.229967">
        <ele>1993.0</ele>
        <time>2013-05-11T12:31:49Z</time>
      </trkpt>
      <trkpt lat="40.476217" lon="-5.229933">
        <ele>1993.0</ele>
        <time>2013-05-11T12:31:50Z</time>
      </trkpt>
      <trkpt lat="40.476300" lon="-5.229933">
        <ele>1991.0</ele>
        <time>2013-05-11T12:31:51Z</time>
      </trkpt>
      <trkpt lat="40.476400" lon="-5.229917">
        <ele>1990.0</ele>
        <time>2013-05-11T12:31:52Z</time>
      </trkpt>
      <trkpt lat="40.476483" lon="-5.229867">
        <ele>1989.0</ele>
        <time>2013-05-11T12:31:53Z</time>
      </trkpt>
      <trkpt lat="40.476583" lon="-5.229800">
        <ele>1988.0</ele>
        <time>2013-05-11T12:31:54Z</time>
      </trkpt>
      <trkpt lat="40.476667" lon="-5.229750">
        <ele>1987.0</ele>
        <time>2013-05-11T12:31:55Z</time>
      </trkpt>
      <trkpt lat="40.476750" lon="-5.229700">
        <ele>1987.0</ele>
        <time>2013-05-11T12:31:56Z</time>
      </trkpt>
      <trkpt lat="40.476833" lon="-5.229667">
        <ele>1986.0</ele>
        <time>2013-05-11T12:31:57Z</time>
      </trkpt>
      <trkpt lat="40.476917" lon="-5.229617">
        <ele>1985.0</ele>
        <time>2013-05-11T12:31:58Z</time>
      </trkpt>
      <trkpt lat="40.477017" lon="-5.229550">
        <ele>1984.0</ele>
        <time>2013-05-11T12:31:59Z</time>
      </trkpt>
      <trkpt lat="40.477100" lon="-5.229450">
        <ele>1982.0</ele>
        <time>2013-05-11T12:32:00Z</time>
      </trkpt>
      <trkpt lat="40.477183" lon="-5.229333">
        <ele>1981.0</ele>
        <time>2013-05-11T12:32:01Z</time>
      </trkpt>
      <trkpt lat="40.477267" lon="-5.229217">
        <ele>1981.0</ele>
        <time>2013-05-11T12:32:02Z</time>
      </trkpt>
      <trkpt lat="40.477367" lon="-5.229117">
        <ele>1982.0</ele>
        <time>2013-05-11T12:32:03Z</time>
      </trkpt>
      <trkpt lat="40.477450" lon="-5.229017">
        <ele>1982.0</ele>
        <time>2013-05-11T12:32:04Z</time>
      </trkpt>
      <trkpt lat="40.477533" lon="-5.228933">
        <ele>1982.0</ele>
        <time>2013-05-11T12:32:05Z</time>
      </trkpt>
      <trkpt lat="40.477617" lon="-5.228833">
        <ele>1982.0</ele>
        <time>2013-05-11T12:32:06Z</time>
      </trkpt>
      <trkpt lat="40.477683" lon="-5.228733">
        <ele>1983.0</ele>
        <time>2013-05-11T12:32:07Z</time>
      </trkpt>
      <trkpt lat="40.477733" lon="-5.228617">
        <ele>1984.0</ele>
        <time>2013-05-11T12:32:08Z</time>
      </trkpt>
      <trkpt lat="40.477750" lon="-5.228500">
        <ele>1985.0</ele>
        <time>2013-05-11T12:32:09Z</time>
      </trkpt>
      <trkpt lat="40.477767" lon="-5.228400">
        <ele>1986.0</ele>
        <time>2013-05-11T12:32:10Z</time>
      </trkpt>
      <trkpt lat="40.477800" lon="-5.228300">
        <ele>1987.0</ele>
        <time>2013-05-11T12:32:11Z</time>
      </trkpt>
      <trkpt lat="40.477850" lon="-5.228217">
        <ele>1987.0</ele>
        <time>2013-05-11T12:32:12Z</time>
      </trkpt>
      <trkpt lat="40.477917" lon="-5.228133">
        <ele>1986.0</ele>
        <time>2013-05-11T12:32:13Z</time>
      </trkpt>
      <trkpt lat="40.477983" lon="-5.228050">
        <ele>1987.0</ele>
        <time>2013-05-11T12:32:14Z</time>
      </trkpt>
      <trkpt lat="40.478050" lon="-5.227983">
        <ele>1988.0</ele>
        <time>2013-05-11T12:32:15Z</time>
      </trkpt>
      <trkpt lat="40.478100" lon="-5.227917">
        <ele>1988.0</ele>
        <time>2013-05-11T12:32:16Z</time>
      </trkpt>
      <trkpt lat="40.478167" lon="-5.227833">
        <ele>1988.0</ele>
        <time>2013-05-11T12:32:17Z</time>
      </trkpt>
      <trkpt lat="40.478233" lon="-5.227750">
        <ele>1986.0</ele>
        <time>2013-05-11T12:32:18Z</time>
      </trkpt>
      <trkpt lat="40.478300" lon="-5.227650">
        <ele>1985.0</ele>
        <time>2013-05-11T12:32:19Z</time>
      </trkpt>
      <trkpt lat="40.478367" lon="-5.227550">
        <ele>1985.0</ele>
        <time>2013-05-11T12:32:20Z</time>
      </trkpt>
      <trkpt lat="40.478433" lon="-5.227483">
        <ele>1985.0</ele>
        <time>2013-05-11T12:32:21Z</time>
      </trkpt>
      <trkpt lat="40.478500" lon="-5.227417">
        <ele>1985.0</ele>
        <time>2013-05-11T12:32:22Z</time>
      </trkpt>
      <trkpt lat="40.478550" lon="-5.227350">
        <ele>1983.0</ele>
        <time>2013-05-11T12:32:23Z</time>
      </trkpt>
      <trkpt lat="40.478583" lon="-5.227283">
        <ele>1982.0</ele>
        <time>2013-05-11T12:32:24Z</time>
      </trkpt>
      <trkpt lat="40.478650" lon="-5.227233">
        <ele>1980.0</ele>
        <time>2013-05-11T12:32:25Z</time>
      </trkpt>
      <trkpt lat="40.478700" lon="-5.227183">
        <ele>1977.0</ele>
        <time>2013-05-11T12:32:26Z</time>
      </trkpt>
      <trkpt lat="40.478750" lon="-5.227167">
        <ele>1974.0</ele>
        <time>2013-05-11T12:32:27Z</time>
      </trkpt>
      <trkpt lat="40.478800" lon="-5.227167">
        <ele>1970.0</ele>
        <time>2013-05-11T12:32:28Z</time>
      </trkpt>
      <trkpt lat="40.478850" lon="-5.227183">
        <ele>1966.0</ele>
        <time>2013-05-11T12:32:29Z</time>
      </trkpt>
      <trkpt lat="40.478933" lon="-5.227167">
        <ele>1962.0</ele>
        <time>2013-05-11T12:32:30Z</time>
      </trkpt>
      <trkpt lat="40.479000" lon="-5.227167">
        <ele>1959.0</ele>
        <time>2013-05-11T12:32:31Z</time>
      </trkpt>
      <trkpt lat="40.479067" lon="-5.227150">
        <ele>1958.0</ele>
        <time>2013-05-11T12:32:32Z</time>
      </trkpt>
      <trkpt lat="40.479133" lon="-5.227133">
        <ele>1956.0</ele>
        <time>2013-05-11T12:32:33Z</time>
      </trkpt>
      <trkpt lat="40.479183" lon="-5.227133">
        <ele>1953.0</ele>
        <time>2013-05-11T12:32:34Z</time>
      </trkpt>
      <trkpt lat="40.479233" lon="-5.227117">
        <ele>1949.0</ele>
        <time>2013-05-11T12:32:35Z</time>
      </trkpt>
      <trkpt lat="40.479300" lon="-5.227117">
        <ele>1945.0</ele>
        <time>2013-05-11T12:32:36Z</time>
      </trkpt>
      <trkpt lat="40.479367" lon="-5.227100">
        <ele>1941.0</ele>
        <time>2013-05-11T12:32:37Z</time>
      </trkpt>
      <trkpt lat="40.479450" lon="-5.227100">
        <ele>1939.0</ele>
        <time>2013-05-11T12:32:38Z</time>
      </trkpt>
      <trkpt lat="40.479500" lon="-5.227117">
        <ele>1936.0</ele>
        <time>2013-05-11T12:32:39Z</time>
      </trkpt>
      <trkpt lat="40.479567" lon="-5.227133">
        <ele>1933.0</ele>
        <time>2013-05-11T12:32:40Z</time>
      </trkpt>
      <trkpt lat="40.479617" lon="-5.227150">
        <ele>1929.0</ele>
        <time>2013-05-11T12:32:41Z</time>
      </trkpt>
      <trkpt lat="40.479683" lon="-5.227183">
        <ele>1925.0</ele>
        <time>2013-05-11T12:32:42Z</time>
      </trkpt>
      <trkpt lat="40.479733" lon="-5.227200">
        <ele>1922.0</ele>
        <time>2013-05-11T12:32:43Z</time>
      </trkpt>
      <trkpt lat="40.479800" lon="-5.227233">
        <ele>1919.0</ele>
        <time>2013-05-11T12:32:44Z</time>
      </trkpt>
      <trkpt lat="40.479867" lon="-5.227250">
        <ele>1917.0</ele>
        <time>2013-05-11T12:32:45Z</time>
      </trkpt>
      <trkpt lat="40.479933" lon="-5.227267">
        <ele>1916.0</ele>
        <time>2013-05-11T12:32:46Z</time>
      </trkpt>
      <trkpt lat="40.479983" lon="-5.227283">
        <ele>1913.0</ele>
        <time>2013-05-11T12:32:47Z</time>
      </trkpt>
      <trkpt lat="40.480033" lon="-5.227317">
        <ele>1910.0</ele>
        <time>2013-05-11T12:32:48Z</time>
      </trkpt>
      <trkpt lat="40.480100" lon="-5.227333">
        <ele>1907.0</ele>
        <time>2013-05-11T12:32:49Z</time>
      </trkpt>
      <trkpt lat="40.480150" lon="-5.227367">
        <ele>1903.0</ele>
        <time>2013-05-11T12:32:50Z</time>
      </trkpt>
      <trkpt lat="40.480217" lon="-5.227383">
        <ele>1899.0</ele>
        <time>2013-05-11T12:32:51Z</time>
      </trkpt>
      <trkpt lat="40.480283" lon="-5.227400">
        <ele>1897.0</ele>
        <time>2013-05-11T12:32:52Z</time>
      </trkpt>
      <trkpt lat="40.480350" lon="-5.227417">
        <ele>1895.0</ele>
        <time>2013-05-11T12:32:53Z</time>
      </trkpt>
      <trkpt lat="40.480400" lon="-5.227450">
        <ele>1892.0</ele>
        <time>2013-05-11T12:32:54Z</time>
      </trkpt>
      <trkpt lat="40.480467" lon="-5.227483">
        <ele>1890.0</ele>
        <time>2013-05-11T12:32:55Z</time>
      </trkpt>
      <trkpt lat="40.480517" lon="-5.227517">
        <ele>1887.0</ele>
        <time>2013-05-11T12:32:56Z</time>
      </trkpt>
      <trkpt lat="40.480583" lon="-5.227567">
        <ele>1884.0</ele>
        <time>2013-05-11T12:32:57Z</time>
      </trkpt>
      <trkpt lat="40.480650" lon="-5.227617">
        <ele>1881.0</ele>
        <time>2013-05-11T12:32:58Z</time>
      </trkpt>
      <trkpt lat="40.480717" lon="-5.227650">
        <ele>1880.0</ele>
        <time>2013-05-11T12:32:59Z</time>
      </trkpt>
      <trkpt lat="40.480783" lon="-5.227700">
        <ele>1878.0</ele>
        <time>2013-05-11T12:33:00Z</time>
      </trkpt>
      <trkpt lat="40.480850" lon="-5.227733">
        <ele>1876.0</ele>
        <time>2013-05-11T12:33:01Z</time>
      </trkpt>
      <trkpt lat="40.480900" lon="-5.227767">
        <ele>1874.0</ele>
        <time>2013-05-11T12:33:02Z</time>
      </trkpt>
      <trkpt lat="40.480967" lon="-5.227800">
        <ele>1871.0</ele>
        <time>2013-05-11T12:33:03Z</time>
      </trkpt>
      <trkpt lat="40.481033" lon="-5.227833">
        <ele>1869.0</ele>
        <time>2013-05-11T12:33:04Z</time>
      </trkpt>
      <trkpt lat="40.481100" lon="-5.227867">
        <ele>1867.0</ele>
        <time>2013-05-11T12:33:05Z</time>
      </trkpt>
      <trkpt lat="40.481150" lon="-5.227900">
        <ele>1865.0</ele>
        <time>2013-05-11T12:33:06Z</time>
      </trkpt>
      <trkpt lat="40.481200" lon="-5.227917">
        <ele>1863.0</ele>
        <time>2013-05-11T12:33:07Z</time>
      </trkpt>
      <trkpt lat="40.481250" lon="-5.227933">
        <ele>1860.0</ele>
        <time>2013-05-11T12:33:08Z</time>
      </trkpt>
      <trkpt lat="40.481300" lon="-5.227933">
        <ele>1857.0</ele>
        <time>2013-05-11T12:33:09Z</time>
      </trkpt>
      <trkpt lat="40.481350" lon="-5.227950">
        <ele>1853.0</ele>
        <time>2013-05-11T12:33:10Z</time>
      </trkpt>
      <trkpt lat="40.481417" lon="-5.227983">
        <ele>1849.0</ele>
        <time>2013-05-11T12:33:11Z</time>
      </trkpt>
      <trkpt lat="40.481483" lon="-5.228017">
        <ele>1846.0</ele>
        <time>2013-05-11T12:33:12Z</time>
      </trkpt>
      <trkpt lat="40.481533" lon="-5.228050">
        <ele>1843.0</ele>
        <time>2013-05-11T12:33:13Z</time>
      </trkpt>
      <trkpt lat="40.481583" lon="-5.228083">
        <ele>1841.0</ele>
        <time>2013-05-11T12:33:14Z</time>
      </trkpt>
      <trkpt lat="40.481650" lon="-5.228117">
        <ele>1838.0</ele>
        <time>2013-05-11T12:33:15Z</time>
      </trkpt>
      <trkpt lat="40.481700" lon="-5.228167">
        <ele>1835.0</ele>
        <time>2013-05-11T12:33:16Z</time>
      </trkpt>
      <trkpt lat="40.481767" lon="-5.228200">
        <ele>1831.0</ele>
        <time>2013-05-11T12:33:17Z</time>
      </trkpt>
      <trkpt lat="40.481817" lon="-5.228250">
        <ele>1828.0</ele>
        <time>2013-05-11T12:33:18Z</time>
      </trkpt>
      <trkpt lat="40.481883" lon="-5.228300">
        <ele>1826.0</ele>
        <time>2013-05-11T12:33:19Z</time>
      </trkpt>
      <trkpt lat="40.481933" lon="-5.228350">
        <ele>1824.0</ele>
        <time>2013-05-11T12:33:20Z</time>
      </trkpt>
      <trkpt lat="40.481967" lon="-5.228400">
        <ele>1821.0</ele>
        <time>2013-05-11T12:33:21Z</time>
      </trkpt>
      <trkpt lat="40.482017" lon="-5.228433">
        <ele>1819.0</ele>
        <time>2013-05-11T12:33:22Z</time>
      </trkpt>
      <trkpt lat="40.482083" lon="-5.228483">
        <ele>1815.0</ele>
        <time>2013-05-11T12:33:23Z</time>
      </trkpt>
      <trkpt lat="40.482150" lon="-5.228533">
        <ele>1812.0</ele>
        <time>2013-05-11T12:33:24Z</time>
      </trkpt>
      <trkpt lat="40.482217" lon="-5.228583">
        <ele>1809.0</ele>
        <time>2013-05-11T12:33:25Z</time>
      </trkpt>
      <trkpt lat="40.482283" lon="-5.228600">
        <ele>1808.0</ele>
        <time>2013-05-11T12:33:26Z</time>
      </trkpt>
      <trkpt lat="40.482367" lon="-5.228617">
        <ele>1806.0</ele>
        <time>2013-05-11T12:33:27Z</time>
      </trkpt>
      <trkpt lat="40.482433" lon="-5.228617">
        <ele>1805.0</ele>
        <time>2013-05-11T12:33:28Z</time>
      </trkpt>
      <trkpt lat="40.482500" lon="-5.228633">
        <ele>1803.0</ele>
        <time>2013-05-11T12:33:29Z</time>
      </trkpt>
      <trkpt lat="40.482550" lon="-5.228667">
        <ele>1800.0</ele>
        <time>2013-05-11T12:33:30Z</time>
      </trkpt>
      <trkpt lat="40.482600" lon="-5.228700">
        <ele>1796.0</ele>
        <time>2013-05-11T12:33:31Z</time>
      </trkpt>
      <trkpt lat="40.482650" lon="-5.228733">
        <ele>1792.0</ele>
        <time>2013-05-11T12:33:32Z</time>
      </trkpt>
      <trkpt lat="40.482700" lon="-5.228783">
        <ele>1789.0</ele>
        <time>2013-05-11T12:33:33Z</time>
      </trkpt>
      <trkpt lat="40.482750" lon="-5.228817">
        <ele>1785.0</ele>
        <time>2013-05-11T12:33:34Z</time>
      </trkpt>
      <trkpt lat="40.482817" lon="-5.228867">
        <ele>1782.0</ele>
        <time>2013-05-11T12:33:35Z</time>
      </trkpt>
      <trkpt lat="40.482867" lon="-5.228900">
        <ele>1778.0</ele>
        <time>2013-05-11T12:33:36Z</time>
      </trkpt>
      <trkpt lat="40.482917" lon="-5.228950">
        <ele>1775.0</ele>
        <time>2013-05-11T12:33:37Z</time>
      </trkpt>
      <trkpt lat="40.482983" lon="-5.229000">
        <ele>1771.0</ele>
        <time>2013-05-11T12:33:38Z</time>
      </trkpt>
      <trkpt lat="40.483033" lon="-5.229050">
        <ele>1768.0</ele>
        <time>2013-05-11T12:33:39Z</time>
      </trkpt>
      <trkpt lat="40.483100" lon="-5.229100">
        <ele>1765.0</ele>
        <time>2013-05-11T12:33:40Z</time>
      </trkpt>
      <trkpt lat="40.483167" lon="-5.229150">
        <ele>1763.0</ele>
        <time>2013-05-11T12:33:41Z</time>
      </trkpt>
      <trkpt lat="40.483217" lon="-5.229200">
        <ele>1761.0</ele>
        <time>2013-05-11T12:33:42Z</time>
      </trkpt>
      <trkpt lat="40.483250" lon="-5.229233">
        <ele>1759.0</ele>
        <time>2013-05-11T12:33:43Z</time>
      </trkpt>
      <trkpt lat="40.483300" lon="-5.229267">
        <ele>1757.0</ele>
        <time>2013-05-11T12:33:44Z</time>
      </trkpt>
      <trkpt lat="40.483333" lon="-5.229300">
        <ele>1754.0</ele>
        <time>2013-05-11T12:33:45Z</time>
      </trkpt>
      <trkpt lat="40.483383" lon="-5.229333">
        <ele>1751.0</ele>
        <time>2013-05-11T12:33:46Z</time>
      </trkpt>
      <trkpt lat="40.483450" lon="-5.229383">
        <ele>1748.0</ele>
        <time>2013-05-11T12:33:47Z</time>
      </trkpt>
      <trkpt lat="40.483500" lon="-5.229417">
        <ele>1746.0</ele>
        <time>2013-05-11T12:33:48Z</time>
      </trkpt>
      <trkpt lat="40.483550" lon="-5.229450">
        <ele>1743.0</ele>
        <time>2013-05-11T12:33:49Z</time>
      </trkpt>
      <trkpt lat="40.483600" lon="-5.229483">
        <ele>1740.0</ele>
        <time>2013-05-11T12:33:50Z</time>
      </trkpt>
      <trkpt lat="40.483650" lon="-5.229517">
        <ele>1737.0</ele>
        <time>2013-05-11T12:33:51Z</time>
      </trkpt>
      <trkpt lat="40.483717" lon="-5.229567">
        <ele>1735.0</ele>
        <time>2013-05-11T12:33:52Z</time>
      </trkpt>
      <trkpt lat="40.483767" lon="-5.229600">
        <ele>1734.0</ele>
        <time>2013-05-11T12:33:53Z</time>
      </trkpt>
      <trkpt lat="40.483817" lon="-5.229633">
        <ele>1733.0</ele>
        <time>2013-05-11T12:33:54Z</time>
      </trkpt>
      <trkpt lat="40.483883" lon="-5.229650">
        <ele>1732.0</ele>
        <time>2013-05-11T12:33:55Z</time>
      </trkpt>
      <trkpt lat="40.483933" lon="-5.229683">
        <ele>1731.0</ele>
        <time>2013-05-11T12:33:56Z</time>
      </trkpt>
      <trkpt lat="40.484000" lon="-5.229700">
        <ele>1730.0</ele>
        <time>2013-05-11T12:33:57Z</time>
      </trkpt>
      <trkpt lat="40.484050" lon="-5.229717">
        <ele>1729.0</ele>
        <time>2013-05-11T12:33:58Z</time>
      </trkpt>
      <trkpt lat="40.484083" lon="-5.229750">
        <ele>1728.0</ele>
        <time>2013-05-11T12:33:59Z</time>
      </trkpt>
      <trkpt lat="40.484133" lon="-5.229783">
        <ele>1726.0</ele>
        <time>2013-05-11T12:34:00Z</time>
      </trkpt>
      <trkpt lat="40.484183" lon="-5.229817">
        <ele>1725.0</ele>
        <time>2013-05-11T12:34:01Z</time>
      </trkpt>
      <trkpt lat="40.484217" lon="-5.229850">
        <ele>1723.0</ele>
        <time>2013-05-11T12:34:02Z</time>
      </trkpt>
      <trkpt lat="40.484250" lon="-5.229900">
        <ele>1723.0</ele>
        <time>2013-05-11T12:34:03Z</time>
      </trkpt>
      <trkpt lat="40.484283" lon="-5.229950">
        <ele>1724.0</ele>
        <time>2013-05-11T12:34:04Z</time>
      </trkpt>
      <trkpt lat="40.484300" lon="-5.229983">
        <ele>1725.0</ele>
        <time>2013-05-11T12:34:05Z</time>
      </trkpt>
      <trkpt lat="40.484317" lon="-5.230017">
        <ele>1725.0</ele>
        <time>2013-05-11T12:34:06Z</time>
      </trkpt>
      <trkpt lat="40.484317" lon="-5.230067">
        <ele>1724.0</ele>
        <time>2013-05-11T12:34:07Z</time>
      </trkpt>
      <trkpt lat="40.484317" lon="-5.230117">
        <ele>1722.0</ele>
        <time>2013-05-11T12:34:08Z</time>
      </trkpt>
      <trkpt lat="40.484333" lon="-5.230183">
        <ele>1720.0</ele>
        <time>2013-05-11T12:34:09Z</time>
      </trkpt>
      <trkpt lat="40.484350" lon="-5.230250">
        <ele>1719.0</ele>
        <time>2013-05-11T12:34:10Z</time>
      </trkpt>
      <trkpt lat="40.484367" lon="-5.230317">
        <ele>1718.0</ele>
        <time>2013-05-11T12:34:11Z</time>
      </trkpt>
      <trkpt lat="40.484383" lon="-5.230383">
        <ele>1718.0</ele>
        <time>2013-05-11T12:34:12Z</time>
      </trkpt>
      <trkpt lat="40.484383" lon="-5.230433">
        <ele>1718.0</ele>
        <time>2013-05-11T12:34:13Z</time>
      </trkpt>
      <trkpt lat="40.484383" lon="-5.230500">
        <ele>1717.0</ele>
        <time>2013-05-11T12:34:14Z</time>
      </trkpt>
      <trkpt lat="40.484367" lon="-5.230583">
        <ele>1716.0</ele>
        <time>2013-05-11T12:34:15Z</time>
      </trkpt>
      <trkpt lat="40.484350" lon="-5.230667">
        <ele>1714.0</ele>
        <time>2013-05-11T12:34:16Z</time>
      </trkpt>
      <trkpt lat="40.484350" lon="-5.230750">
        <ele>1713.0</ele>
        <time>2013-05-11T12:34:17Z</time>
      </trkpt>
      <trkpt lat="40.484350" lon="-5.230833">
        <ele>1712.0</ele>
        <time>2013-05-11T12:34:18Z</time>
      </trkpt>
      <trkpt lat="40.484367" lon="-5.230900">
        <ele>1712.0</ele>
        <time>2013-05-11T12:34:19Z</time>
      </trkpt>
      <trkpt lat="40.484367" lon="-5.230983">
        <ele>1712.0</ele>
        <time>2013-05-11T12:34:20Z</time>
      </trkpt>
      <trkpt lat="40.484367" lon="-5.231050">
        <ele>1712.0</ele>
        <time>2013-05-11T12:34:21Z</time>
      </trkpt>
      <trkpt lat="40.484367" lon="-5.231117">
        <ele>1712.0</ele>
        <time>2013-05-11T12:34:22Z</time>
      </trkpt>
      <trkpt lat="40.484367" lon="-5.231183">
        <ele>1711.0</ele>
        <time>2013-05-11T12:34:23Z</time>
      </trkpt>
      <trkpt lat="40.484383" lon="-5.231267">
        <ele>1710.0</ele>
        <time>2013-05-11T12:34:24Z</time>
      </trkpt>
      <trkpt lat="40.484400" lon="-5.231333">
        <ele>1710.0</ele>
        <time>2013-05-11T12:34:25Z</time>
      </trkpt>
      <trkpt lat="40.484417" lon="-5.231383">
        <ele>1710.0</ele>
        <time>2013-05-11T12:34:26Z</time>
      </trkpt>
      <trkpt lat="40.484450" lon="-5.231417">
        <ele>1710.0</ele>
        <time>2013-05-11T12:34:27Z</time>
      </trkpt>
      <trkpt lat="40.484483" lon="-5.231450">
        <ele>1710.0</ele>
        <time>2013-05-11T12:34:28Z</time>
      </trkpt>
      <trkpt lat="40.484517" lon="-5.231483">
        <ele>1708.0</ele>
        <time>2013-05-11T12:34:29Z</time>
      </trkpt>
      <trkpt lat="40.484550" lon="-5.231500">
        <ele>1706.0</ele>
        <time>2013-05-11T12:34:30Z</time>
      </trkpt>
      <trkpt lat="40.484617" lon="-5.231517">
        <ele>1704.0</ele>
        <time>2013-05-11T12:34:31Z</time>
      </trkpt>
      <trkpt lat="40.484700" lon="-5.231517">
        <ele>1702.0</ele>
        <time>2013-05-11T12:34:32Z</time>
      </trkpt>
      <trkpt lat="40.484767" lon="-5.231550">
        <ele>1701.0</ele>
        <time>2013-05-11T12:34:33Z</time>
      </trkpt>
      <trkpt lat="40.484833" lon="-5.231583">
        <ele>1702.0</ele>
        <time>2013-05-11T12:34:34Z</time>
      </trkpt>
      <trkpt lat="40.484883" lon="-5.231617">
        <ele>1704.0</ele>
        <time>2013-05-11T12:34:35Z</time>
      </trkpt>
      <trkpt lat="40.484933" lon="-5.231650">
        <ele>1706.0</ele>
        <time>2013-05-11T12:34:36Z</time>
      </trkpt>
      <trkpt lat="40.484983" lon="-5.231683">
        <ele>1708.0</ele>
        <time>2013-05-11T12:34:37Z</time>
      </trkpt>
      <trkpt lat="40.485050" lon="-5.231700">
        <ele>1710.0</ele>
        <time>2013-05-11T12:34:38Z</time>
      </trkpt>
      <trkpt lat="40.485117" lon="-5.231717">
        <ele>1712.0</ele>
        <time>2013-05-11T12:34:39Z</time>
      </trkpt>
      <trkpt lat="40.485183" lon="-5.231717">
        <ele>1715.0</ele>
        <time>2013-05-11T12:34:40Z</time>
      </trkpt>
      <trkpt lat="40.485250" lon="-5.231717">
        <ele>1717.0</ele>
        <time>2013-05-11T12:34:41Z</time>
      </trkpt>
      <trkpt lat="40.485317" lon="-5.231683">
        <ele>1719.0</ele>
        <time>2013-05-11T12:34:42Z</time>
      </trkpt>
      <trkpt lat="40.485383" lon="-5.231617">
        <ele>1720.0</ele>
        <time>2013-05-11T12:34:43Z</time>
      </trkpt>
      <trkpt lat="40.485467" lon="-5.231517">
        <ele>1721.0</ele>
        <time>2013-05-11T12:34:44Z</time>
      </trkpt>
      <trkpt lat="40.485533" lon="-5.231400">
        <ele>1724.0</ele>
        <time>2013-05-11T12:34:45Z</time>
      </trkpt>
      <trkpt lat="40.485583" lon="-5.231267">
        <ele>1728.0</ele>
        <time>2013-05-11T12:34:46Z</time>
      </trkpt>
      <trkpt lat="40.485600" lon="-5.231133">
        <ele>1731.0</ele>
        <time>2013-05-11T12:34:47Z</time>
      </trkpt>
      <trkpt lat="40.485617" lon="-5.231017">
        <ele>1733.0</ele>
        <time>2013-05-11T12:34:48Z</time>
      </trkpt>
      <trkpt lat="40.485600" lon="-5.230883">
        <ele>1735.0</ele>
        <time>2013-05-11T12:34:49Z</time>
      </trkpt>
      <trkpt lat="40.485583" lon="-5.230750">
        <ele>1735.0</ele>
        <time>2013-05-11T12:34:50Z</time>
      </trkpt>
      <trkpt lat="40.485533" lon="-5.230617">
        <ele>1735.0</ele>
        <time>2013-05-11T12:34:51Z</time>
      </trkpt>
      <trkpt lat="40.485467" lon="-5.230483">
        <ele>1734.0</ele>
        <time>2013-05-11T12:34:52Z</time>
      </trkpt>
      <trkpt lat="40.485350" lon="-5.230383">
        <ele>1734.0</ele>
        <time>2013-05-11T12:34:53Z</time>
      </trkpt>
      <trkpt lat="40.485217" lon="-5.230333">
        <ele>1734.0</ele>
        <time>2013-05-11T12:34:54Z</time>
      </trkpt>
      <trkpt lat="40.485100" lon="-5.230333">
        <ele>1736.0</ele>
        <time>2013-05-11T12:34:55Z</time>
      </trkpt>
      <trkpt lat="40.484983" lon="-5.230350">
        <ele>1739.0</ele>
        <time>2013-05-11T12:34:56Z</time>
      </trkpt>
      <trkpt lat="40.484900" lon="-5.230383">
        <ele>1742.0</ele>
        <time>2013-05-11T12:34:57Z</time>
      </trkpt>
      <trkpt lat="40.484817" lon="-5.230417">
        <ele>1744.0</ele>
        <time>2013-05-11T12:34:58Z</time>
      </trkpt>
      <trkpt lat="40.484733" lon="-5.230467">
        <ele>1744.0</ele>
        <time>2013-05-11T12:34:59Z</time>
      </trkpt>
      <trkpt lat="40.484683" lon="-5.230533">
        <ele>1745.0</ele>
        <time>2013-05-11T12:35:00Z</time>
      </trkpt>
      <trkpt lat="40.484633" lon="-5.230617">
        <ele>1745.0</ele>
        <time>2013-05-11T12:35:01Z</time>
      </trkpt>
      <trkpt lat="40.484617" lon="-5.230717">
        <ele>1747.0</ele>
        <time>2013-05-11T12:35:02Z</time>
      </trkpt>
      <trkpt lat="40.484617" lon="-5.230800">
        <ele>1749.0</ele>
        <time>2013-05-11T12:35:03Z</time>
      </trkpt>
      <trkpt lat="40.484650" lon="-5.230867">
        <ele>1751.0</ele>
        <time>2013-05-11T12:35:04Z</time>
      </trkpt>
      <trkpt lat="40.484667" lon="-5.230933">
        <ele>1753.0</ele>
        <time>2013-05-11T12:35:05Z</time>
      </trkpt>
      <trkpt lat="40.484717" lon="-5.230983">
        <ele>1753.0</ele>
        <time>2013-05-11T12:35:06Z</time>
      </trkpt>
      <trkpt lat="40.484767" lon="-5.231017">
        <ele>1754.0</ele>
        <time>2013-05-11T12:35:07Z</time>
      </trkpt>
      <trkpt lat="40.484850" lon="-5.231033">
        <ele>1757.0</ele>
        <time>2013-05-11T12:35:08Z</time>
      </trkpt>
      <trkpt lat="40.484933" lon="-5.231033">
        <ele>1762.0</ele>
        <time>2013-05-11T12:35:09Z</time>
      </trkpt>
      <trkpt lat="40.485000" lon="-5.231017">
        <ele>1766.0</ele>
        <time>2013-05-11T12:35:10Z</time>
      </trkpt>
      <trkpt lat="40.485050" lon="-5.230983">
        <ele>1768.0</ele>
        <time>2013-05-11T12:35:11Z</time>
      </trkpt>
      <trkpt lat="40.485117" lon="-5.230933">
        <ele>1768.0</ele>
        <time>2013-05-11T12:35:12Z</time>
      </trkpt>
      <trkpt lat="40.485183" lon="-5.230900">
        <ele>1768.0</ele>
        <time>2013-05-11T12:35:13Z</time>
      </trkpt>
      <trkpt lat="40.485250" lon="-5.230867">
        <ele>1766.0</ele>
        <time>2013-05-11T12:35:14Z</time>
      </trkpt>
      <trkpt lat="40.485333" lon="-5.230783">
        <ele>1765.0</ele>
        <time>2013-05-11T12:35:15Z</time>
      </trkpt>
      <trkpt lat="40.485400" lon="-5.230683">
        <ele>1765.0</ele>
        <time>2013-05-11T12:35:16Z</time>
      </trkpt>
      <trkpt lat="40.485467" lon="-5.230533">
        <ele>1765.0</ele>
        <time>2013-05-11T12:35:17Z</time>
      </trkpt>
      <trkpt lat="40.485500" lon="-5.230383">
        <ele>1766.0</ele>
        <time>2013-05-11T12:35:18Z</time>
      </trkpt>
      <trkpt lat="40.485517" lon="-5.230250">
        <ele>1767.0</ele>
        <time>2013-05-11T12:35:19Z</time>
      </trkpt>
      <trkpt lat="40.485533" lon="-5.230133">
        <ele>1768.0</ele>
        <time>2013-05-11T12:35:20Z</time>
      </trkpt>
      <trkpt lat="40.485550" lon="-5.230000">
        <ele>1767.0</ele>
        <time>2013-05-11T12:35:21Z</time>
      </trkpt>
      <trkpt lat="40.485550" lon="-5.229850">
        <ele>1766.0</ele>
        <time>2013-05-11T12:35:22Z</time>
      </trkpt>
      <trkpt lat="40.485533" lon="-5.229700">
        <ele>1764.0</ele>
        <time>2013-05-11T12:35:23Z</time>
      </trkpt>
      <trkpt lat="40.485483" lon="-5.229567">
        <ele>1763.0</ele>
        <time>2013-05-11T12:35:24Z</time>
      </trkpt>
      <trkpt lat="40.485417" lon="-5.229433">
        <ele>1764.0</ele>
        <time>2013-05-11T12:35:25Z</time>
      </trkpt>
      <trkpt lat="40.485333" lon="-5.229300">
        <ele>1766.0</ele>
        <time>2013-05-11T12:35:26Z</time>
      </trkpt>
      <trkpt lat="40.485283" lon="-5.229200">
        <ele>1768.0</ele>
        <time>2013-05-11T12:35:27Z</time>
      </trkpt>
      <trkpt lat="40.485217" lon="-5.229083">
        <ele>1770.0</ele>
        <time>2013-05-11T12:35:28Z</time>
      </trkpt>
      <trkpt lat="40.485150" lon="-5.228983">
        <ele>1770.0</ele>
        <time>2013-05-11T12:35:29Z</time>
      </trkpt>
      <trkpt lat="40.485067" lon="-5.228900">
        <ele>1770.0</ele>
        <time>2013-05-11T12:35:30Z</time>
      </trkpt>
      <trkpt lat="40.484967" lon="-5.228817">
        <ele>1770.0</ele>
        <time>2013-05-11T12:35:31Z</time>
      </trkpt>
      <trkpt lat="40.484883" lon="-5.228750">
        <ele>1771.0</ele>
        <time>2013-05-11T12:35:32Z</time>
      </trkpt>
      <trkpt lat="40.484800" lon="-5.228683">
        <ele>1773.0</ele>
        <time>2013-05-11T12:35:33Z</time>
      </trkpt>
      <trkpt lat="40.484700" lon="-5.228617">
        <ele>1775.0</ele>
        <time>2013-05-11T12:35:34Z</time>
      </trkpt>
      <trkpt lat="40.484600" lon="-5.228583">
        <ele>1775.0</ele>
        <time>2013-05-11T12:35:35Z</time>
      </trkpt>
      <trkpt lat="40.484483" lon="-5.228583">
        <ele>1776.0</ele>
        <time>2013-05-11T12:35:36Z</time>
      </trkpt>
      <trkpt lat="40.484383" lon="-5.228600">
        <ele>1779.0</ele>
        <time>2013-05-11T12:35:37Z</time>
      </trkpt>
      <trkpt lat="40.484283" lon="-5.228633">
        <ele>1783.0</ele>
        <time>2013-05-11T12:35:38Z</time>
      </trkpt>
      <trkpt lat="40.484217" lon="-5.228683">
        <ele>1785.0</ele>
        <time>2013-05-11T12:35:39Z</time>
      </trkpt>
      <trkpt lat="40.484150" lon="-5.228733">
        <ele>1786.0</ele>
        <time>2013-05-11T12:35:40Z</time>
      </trkpt>
      <trkpt lat="40.484083" lon="-5.228800">
        <ele>1787.0</ele>
        <time>2013-05-11T12:35:41Z</time>
      </trkpt>
      <trkpt lat="40.484017" lon="-5.228867">
        <ele>1788.0</ele>
        <time>2013-05-11T12:35:42Z</time>
      </trkpt>
      <trkpt lat="40.483983" lon="-5.228933">
        <ele>1789.0</ele>
        <time>2013-05-11T12:35:43Z</time>
      </trkpt>
      <trkpt lat="40.483967" lon="-5.229000">
        <ele>1790.0</ele>
        <time>2013-05-11T12:35:44Z</time>
      </trkpt>
      <trkpt lat="40.483983" lon="-5.229083">
        <ele>1790.0</ele>
        <time>2013-05-11T12:35:45Z</time>
      </trkpt>
      <trkpt lat="40.484017" lon="-5.229167">
        <ele>1792.0</ele>
        <time>2013-05-11T12:35:46Z</time>
      </trkpt>
      <trkpt lat="40.484050" lon="-5.229233">
        <ele>1795.0</ele>
        <time>2013-05-11T12:35:47Z</time>
      </trkpt>
      <trkpt lat="40.484083" lon="-5.229267">
        <ele>1799.0</ele>
        <time>2013-05-11T12:35:48Z</time>
      </trkpt>
      <trkpt lat="40.484150" lon="-5.229300">
        <ele>1802.0</ele>
        <time>2013-05-11T12:35:49Z</time>
      </trkpt>
      <trkpt lat="40.484200" lon="-5.229317">
        <ele>1805.0</ele>
        <time>2013-05-11T12:35:50Z</time>
      </trkpt>
      <trkpt lat="40.484267" lon="-5.229317">
        <ele>1808.0</ele>
        <time>2013-05-11T12:35:51Z</time>
      </trkpt>
      <trkpt lat="40.484333" lon="-5.229300">
        <ele>1810.0</ele>
        <time>2013-05-11T12:35:52Z</time>
      </trkpt>
      <trkpt lat="40.484417" lon="-5.229267">
        <ele>1811.0</ele>
        <time>2013-05-11T12:35:53Z</time>
      </trkpt>
      <trkpt lat="40.484483" lon="-5.229183">
        <ele>1812.0</ele>
        <time>2013-05-11T12:35:54Z</time>
      </trkpt>
      <trkpt lat="40.484550" lon="-5.229083">
        <ele>1813.0</ele>
        <time>2013-05-11T12:35:55Z</time>
      </trkpt>
      <trkpt lat="40.484617" lon="-5.228967">
        <ele>1814.0</ele>
        <time>2013-05-11T12:35:56Z</time>
      </trkpt>
      <trkpt lat="40.484650" lon="-5.228833">
        <ele>1814.0</ele>
        <time>2013-05-11T12:35:57Z</time>
      </trkpt>
      <trkpt lat="40.484683" lon="-5.228683">
        <ele>1815.0</ele>
        <time>2013-05-11T12:35:58Z</time>
      </trkpt>
      <trkpt lat="40.484683" lon="-5.228533">
        <ele>1816.0</ele>
        <time>2013-05-11T12:35:59Z</time>
      </trkpt>
      <trkpt lat="40.484683" lon="-5.228367">
        <ele>1816.0</ele>
        <time>2013-05-11T12:36:00Z</time>
      </trkpt>
      <trkpt lat="40.484650" lon="-5.228217">
        <ele>1816.0</ele>
        <time>2013-05-11T12:36:01Z</time>
      </trkpt>
      <trkpt lat="40.484617" lon="-5.228050">
        <ele>1817.0</ele>
        <time>2013-05-11T12:36:02Z</time>
      </trkpt>
      <trkpt lat="40.484550" lon="-5.227917">
        <ele>1818.0</ele>
        <time>2013-05-11T12:36:03Z</time>
      </trkpt>
      <trkpt lat="40.484483" lon="-5.227783">
        <ele>1820.0</ele>
        <time>2013-05-11T12:36:04Z</time>
      </trkpt>
      <trkpt lat="40.484400" lon="-5.227650">
        <ele>1821.0</ele>
        <time>2013-05-11T12:36:05Z</time>
      </trkpt>
      <trkpt lat="40.484317" lon="-5.227533">
        <ele>1823.0</ele>
        <time>2013-05-11T12:36:06Z</time>
      </trkpt>
      <trkpt lat="40.484233" lon="-5.227417">
        <ele>1824.0</ele>
        <time>2013-05-11T12:36:07Z</time>
      </trkpt>
      <trkpt lat="40.484150" lon="-5.227300">
        <ele>1826.0</ele>
        <time>2013-05-11T12:36:08Z</time>
      </trkpt>
      <trkpt lat="40.484033" lon="-5.227217">
        <ele>1827.0</ele>
        <time>2013-05-11T12:36:09Z</time>
      </trkpt>
      <trkpt lat="40.483917" lon="-5.227150">
        <ele>1829.0</ele>
        <time>2013-05-11T12:36:10Z</time>
      </trkpt>
      <trkpt lat="40.483783" lon="-5.227100">
        <ele>1833.0</ele>
        <time>2013-05-11T12:36:11Z</time>
      </trkpt>
      <trkpt lat="40.483667" lon="-5.227050">
        <ele>1837.0</ele>
        <time>2013-05-11T12:36:12Z</time>
      </trkpt>
      <trkpt lat="40.483583" lon="-5.227033">
        <ele>1840.0</ele>
        <time>2013-05-11T12:36:13Z</time>
      </trkpt>
      <trkpt lat="40.483500" lon="-5.227000">
        <ele>1841.0</ele>
        <time>2013-05-11T12:36:14Z</time>
      </trkpt>
      <trkpt lat="40.483417" lon="-5.226983">
        <ele>1841.0</ele>
        <time>2013-05-11T12:36:15Z</time>
      </trkpt>
      <trkpt lat="40.483317" lon="-5.227000">
        <ele>1840.0</ele>
        <time>2013-05-11T12:36:16Z</time>
      </trkpt>
      <trkpt lat="40.483217" lon="-5.227033">
        <ele>1840.0</ele>
        <time>2013-05-11T12:36:17Z</time>
      </trkpt>
      <trkpt lat="40.483117" lon="-5.227117">
        <ele>1841.0</ele>
        <time>2013-05-11T12:36:18Z</time>
      </trkpt>
      <trkpt lat="40.483067" lon="-5.227233">
        <ele>1843.0</ele>
        <time>2013-05-11T12:36:19Z</time>
      </trkpt>
      <trkpt lat="40.483050" lon="-5.227333">
        <ele>1845.0</ele>
        <time>2013-05-11T12:36:20Z</time>
      </trkpt>
      <trkpt lat="40.483067" lon="-5.227417">
        <ele>1849.0</ele>
        <time>2013-05-11T12:36:21Z</time>
      </trkpt>
      <trkpt lat="40.483083" lon="-5.227467">
        <ele>1852.0</ele>
        <time>2013-05-11T12:36:22Z</time>
      </trkpt>
      <trkpt lat="40.483100" lon="-5.227500">
        <ele>1855.0</ele>
        <time>2013-05-11T12:36:23Z</time>
      </trkpt>
      <trkpt lat="40.483117" lon="-5.227550">
        <ele>1856.0</ele>
        <time>2013-05-11T12:36:24Z</time>
      </trkpt>
      <trkpt lat="40.483167" lon="-5.227600">
        <ele>1857.0</ele>
        <time>2013-05-11T12:36:25Z</time>
      </trkpt>
      <trkpt lat="40.483217" lon="-5.227650">
        <ele>1859.0</ele>
        <time>2013-05-11T12:36:26Z</time>
      </trkpt>
      <trkpt lat="40.483300" lon="-5.227700">
        <ele>1861.0</ele>
        <time>2013-05-11T12:36:27Z</time>
      </trkpt>
      <trkpt lat="40.483383" lon="-5.227700">
        <ele>1865.0</ele>
        <time>2013-05-11T12:36:28Z</time>
      </trkpt>
      <trkpt lat="40.483450" lon="-5.227683">
        <ele>1868.0</ele>
        <time>2013-05-11T12:36:29Z</time>
      </trkpt>
      <trkpt lat="40.483517" lon="-5.227633">
        <ele>1871.0</ele>
        <time>2013-05-11T12:36:30Z</time>
      </trkpt>
      <trkpt lat="40.483567" lon="-5.227567">
        <ele>1874.0</ele>
        <time>2013-05-11T12:36:31Z</time>
      </trkpt>
      <trkpt lat="40.483633" lon="-5.227500">
        <ele>1874.0</ele>
        <time>2013-05-11T12:36:32Z</time>
      </trkpt>
      <trkpt lat="40.483700" lon="-5.227383">
        <ele>1874.0</ele>
        <time>2013-05-11T12:36:33Z</time>
      </trkpt>
      <trkpt lat="40.483750" lon="-5.227250">
        <ele>1874.0</ele>
        <time>2013-05-11T12:36:34Z</time>
      </trkpt>
      <trkpt lat="40.483783" lon="-5.227067">
        <ele>1874.0</ele>
        <time>2013-05-11T12:36:35Z</time>
      </trkpt>
      <trkpt lat="40.483783" lon="-5.226883">
        <ele>1876.0</ele>
        <time>2013-05-11T12:36:36Z</time>
      </trkpt>
      <trkpt lat="40.483733" lon="-5.226717">
        <ele>1878.0</ele>
        <time>2013-05-11T12:36:37Z</time>
      </trkpt>
      <trkpt lat="40.483667" lon="-5.226567">
        <ele>1881.0</ele>
        <time>2013-05-11T12:36:38Z</time>
      </trkpt>
      <trkpt lat="40.483600" lon="-5.226450">
        <ele>1884.0</ele>
        <time>2013-05-11T12:36:39Z</time>
      </trkpt>
      <trkpt lat="40.483517" lon="-5.226333">
        <ele>1886.0</ele>
        <time>2013-05-11T12:36:40Z</time>
      </trkpt>
      <trkpt lat="40.483433" lon="-5.226233">
        <ele>1886.0</ele>
        <time>2013-05-11T12:36:41Z</time>
      </trkpt>
      <trkpt lat="40.483333" lon="-5.226117">
        <ele>1887.0</ele>
        <time>2013-05-11T12:36:42Z</time>
      </trkpt>
      <trkpt lat="40.483217" lon="-5.226033">
        <ele>1888.0</ele>
        <time>2013-05-11T12:36:43Z</time>
      </trkpt>
      <trkpt lat="40.483083" lon="-5.225967">
        <ele>1891.0</ele>
        <time>2013-05-11T12:36:44Z</time>
      </trkpt>
      <trkpt lat="40.482983" lon="-5.225950">
        <ele>1894.0</ele>
        <time>2013-05-11T12:36:45Z</time>
      </trkpt>
      <trkpt lat="40.482867" lon="-5.225950">
        <ele>1896.0</ele>
        <time>2013-05-11T12:36:46Z</time>
      </trkpt>
      <trkpt lat="40.482783" lon="-5.225950">
        <ele>1897.0</ele>
        <time>2013-05-11T12:36:47Z</time>
      </trkpt>
      <trkpt lat="40.482700" lon="-5.225967">
        <ele>1897.0</ele>
        <time>2013-05-11T12:36:48Z</time>
      </trkpt>
      <trkpt lat="40.482633" lon="-5.226017">
        <ele>1897.0</ele>
        <time>2013-05-11T12:36:49Z</time>
      </trkpt>
      <trkpt lat="40.482550" lon="-5.226083">
        <ele>1896.0</ele>
        <time>2013-05-11T12:36:50Z</time>
      </trkpt>
      <trkpt lat="40.482483" lon="-5.226167">
        <ele>1896.0</ele>
        <time>2013-05-11T12:36:51Z</time>
      </trkpt>
      <trkpt lat="40.482417" lon="-5.226283">
        <ele>1898.0</ele>
        <time>2013-05-11T12:36:52Z</time>
      </trkpt>
      <trkpt lat="40.482400" lon="-5.226400">
        <ele>1902.0</ele>
        <time>2013-05-11T12:36:53Z</time>
      </trkpt>
      <trkpt lat="40.482400" lon="-5.226483">
        <ele>1906.0</ele>
        <time>2013-05-11T12:36:54Z</time>
      </trkpt>
      <trkpt lat="40.482400" lon="-5.226533">
        <ele>1910.0</ele>
        <time>2013-05-11T12:36:55Z</time>
      </trkpt>
      <trkpt lat="40.482400" lon="-5.226600">
        <ele>1912.0</ele>
        <time>2013-05-11T12:36:56Z</time>
      </trkpt>
      <trkpt lat="40.482400" lon="-5.226667">
        <ele>1914.0</ele>
        <time>2013-05-11T12:36:57Z</time>
      </trkpt>
      <trkpt lat="40.482417" lon="-5.226750">
        <ele>1915.0</ele>
        <time>2013-05-11T12:36:58Z</time>
      </trkpt>
      <trkpt lat="40.482450" lon="-5.226817">
        <ele>1916.0</ele>
        <time>2013-05-11T12:36:59Z</time>
      </trkpt>
      <trkpt lat="40.482500" lon="-5.226867">
        <ele>1919.0</ele>
        <time>2013-05-11T12:37:00Z</time>
      </trkpt>
      <trkpt lat="40.482567" lon="-5.226867">
        <ele>1922.0</ele>
        <time>2013-05-11T12:37:01Z</time>
      </trkpt>
      <trkpt lat="40.482600" lon="-5.226867">
        <ele>1925.0</ele>
        <time>2013-05-11T12:37:02Z</time>
      </trkpt>
      <trkpt lat="40.482650" lon="-5.226867">
        <ele>1926.0</ele>
        <time>2013-05-11T12:37:03Z</time>
      </trkpt>
      <trkpt lat="40.482717" lon="-5.226850">
        <ele>1926.0</ele>
        <time>2013-05-11T12:37:04Z</time>
      </trkpt>
      <trkpt lat="40.482783" lon="-5.226800">
        <ele>1926.0</ele>
        <time>2013-05-11T12:37:05Z</time>
      </trkpt>
      <trkpt lat="40.482867" lon="-5.226700">
        <ele>1926.0</ele>
        <time>2013-05-11T12:37:06Z</time>
      </trkpt>
      <trkpt lat="40.482917" lon="-5.226583">
        <ele>1927.0</ele>
        <time>2013-05-11T12:37:07Z</time>
      </trkpt>
      <trkpt lat="40.482950" lon="-5.226433">
        <ele>1929.0</ele>
        <time>2013-05-11T12:37:08Z</time>
      </trkpt>
      <trkpt lat="40.482967" lon="-5.226283">
        <ele>1932.0</ele>
        <time>2013-05-11T12:37:09Z</time>
      </trkpt>
      <trkpt lat="40.482950" lon="-5.226133">
        <ele>1935.0</ele>
        <time>2013-05-11T12:37:10Z</time>
      </trkpt>
      <trkpt lat="40.482933" lon="-5.226000">
        <ele>1936.0</ele>
        <time>2013-05-11T12:37:11Z</time>
      </trkpt>
      <trkpt lat="40.482900" lon="-5.225850">
        <ele>1937.0</ele>
        <time>2013-05-11T12:37:12Z</time>
      </trkpt>
      <trkpt lat="40.482850" lon="-5.225700">
        <ele>1937.0</ele>
        <time>2013-05-11T12:37:13Z</time>
      </trkpt>
      <trkpt lat="40.482750" lon="-5.225567">
        <ele>1938.0</ele>
        <time>2013-05-11T12:37:14Z</time>
      </trkpt>
      <trkpt lat="40.482667" lon="-5.225433">
        <ele>1939.0</ele>
        <time>2013-05-11T12:37:15Z</time>
      </trkpt>
      <trkpt lat="40.482567" lon="-5.225333">
        <ele>1942.0</ele>
        <time>2013-05-11T12:37:16Z</time>
      </trkpt>
      <trkpt lat="40.482483" lon="-5.225233">
        <ele>1944.0</ele>
        <time>2013-05-11T12:37:17Z</time>
      </trkpt>
      <trkpt lat="40.482383" lon="-5.225150">
        <ele>1944.0</ele>
        <time>2013-05-11T12:37:18Z</time>
      </trkpt>
      <trkpt lat="40.482267" lon="-5.225083">
        <ele>1945.0</ele>
        <time>2013-05-11T12:37:19Z</time>
      </trkpt>
      <trkpt lat="40.482150" lon="-5.225050">
        <ele>1945.0</ele>
        <time>2013-05-11T12:37:20Z</time>
      </trkpt>
      <trkpt lat="40.482017" lon="-5.225033">
        <ele>1946.0</ele>
        <time>2013-05-11T12:37:21Z</time>
      </trkpt>
      <trkpt lat="40.481900" lon="-5.225050">
        <ele>1949.0</ele>
        <time>2013-05-11T12:37:22Z</time>
      </trkpt>
      <trkpt lat="40.481800" lon="-5.225067">
        <ele>1953.0</ele>
        <time>2013-05-11T12:37:23Z</time>
      </trkpt>
      <trkpt lat="40.481717" lon="-5.225100">
        <ele>1956.0</ele>
        <time>2013-05-11T12:37:24Z</time>
      </trkpt>
      <trkpt lat="40.481633" lon="-5.225133">
        <ele>1959.0</ele>
        <time>2013-05-11T12:37:25Z</time>
      </trkpt>
      <trkpt lat="40.481583" lon="-5.225200">
        <ele>1960.0</ele>
        <time>2013-05-11T12:37:26Z</time>
      </trkpt>
      <trkpt lat="40.481533" lon="-5.225267">
        <ele>1960.0</ele>
        <time>2013-05-11T12:37:27Z</time>
      </trkpt>
      <trkpt lat="40.481483" lon="-5.225350">
        <ele>1962.0</ele>
        <time>2013-05-11T12:37:28Z</time>
      </trkpt>
      <trkpt lat="40.481467" lon="-5.225417">
        <ele>1964.0</ele>
        <time>2013-05-11T12:37:29Z</time>
      </trkpt>
      <trkpt lat="40.481450" lon="-5.225467">
        <ele>1966.0</ele>
        <time>2013-05-11T12:37:30Z</time>
      </trkpt>
      <trkpt lat="40.481467" lon="-5.225533">
        <ele>1968.0</ele>
        <time>2013-05-11T12:37:31Z</time>
      </trkpt>
      <trkpt lat="40.481500" lon="-5.225567">
        <ele>1969.0</ele>
        <time>2013-05-11T12:37:32Z</time>
      </trkpt>
      <trkpt lat="40.481533" lon="-5.225600">
        <ele>1971.0</ele>
        <time>2013-05-11T12:37:33Z</time>
      </trkpt>
      <trkpt lat="40.481567" lon="-5.225633">
        <ele>1973.0</ele>
        <time>2013-05-11T12:37:34Z</time>
      </trkpt>
      <trkpt lat="40.481617" lon="-5.225650">
        <ele>1974.0</ele>
        <time>2013-05-11T12:37:35Z</time>
      </trkpt>
      <trkpt lat="40.481683" lon="-5.225650">
        <ele>1975.0</ele>
        <time>2013-05-11T12:37:36Z</time>
      </trkpt>
      <trkpt lat="40.481750" lon="-5.225617">
        <ele>1976.0</ele>
        <time>2013-05-11T12:37:37Z</time>
      </trkpt>
      <trkpt lat="40.481817" lon="-5.225583">
        <ele>1978.0</ele>
        <time>2013-05-11T12:37:38Z</time>
      </trkpt>
      <trkpt lat="40.481867" lon="-5.225533">
        <ele>1980.0</ele>
        <time>2013-05-11T12:37:39Z</time>
      </trkpt>
      <trkpt lat="40.481917" lon="-5.225467">
        <ele>1982.0</ele>
        <time>2013-05-11T12:37:40Z</time>
      </trkpt>
      <trkpt lat="40.481967" lon="-5.225400">
        <ele>1984.0</ele>
        <time>2013-05-11T12:37:41Z</time>
      </trkpt>
      <trkpt lat="40.482000" lon="-5.225300">
        <ele>1984.0</ele>
        <time>2013-05-11T12:37:42Z</time>
      </trkpt>
      <trkpt lat="40.482033" lon="-5.225183">
        <ele>1984.0</ele>
        <time>2013-05-11T12:37:43Z</time>
      </trkpt>
      <trkpt lat="40.482050" lon="-5.225050">
        <ele>1985.0</ele>
        <time>2013-05-11T12:37:44Z</time>
      </trkpt>
      <trkpt lat="40.482067" lon="-5.224900">
        <ele>1987.0</ele>
        <time>2013-05-11T12:37:45Z</time>
      </trkpt>
      <trkpt lat="40.482050" lon="-5.224767">
        <ele>1989.0</ele>
        <time>2013-05-11T12:37:46Z</time>
      </trkpt>
      <trkpt lat="40.482033" lon="-5.224633">
        <ele>1991.0</ele>
        <time>2013-05-11T12:37:47Z</time>
      </trkpt>
      <trkpt lat="40.481983" lon="-5.224500">
        <ele>1992.0</ele>
        <time>2013-05-11T12:37:48Z</time>
      </trkpt>
      <trkpt lat="40.481933" lon="-5.224367">
        <ele>1992.0</ele>
        <time>2013-05-11T12:37:49Z</time>
      </trkpt>
      <trkpt lat="40.481867" lon="-5.224233">
        <ele>1992.0</ele>
        <time>2013-05-11T12:37:50Z</time>
      </trkpt>
      <trkpt lat="40.481783" lon="-5.224117">
        <ele>1993.0</ele>
        <time>2013-05-11T12:37:51Z</time>
      </trkpt>
      <trkpt lat="40.481683" lon="-5.224000">
        <ele>1994.0</ele>
        <time>2013-05-11T12:37:52Z</time>
      </trkpt>
      <trkpt lat="40.481583" lon="-5.223917">
        <ele>1994.0</ele>
        <time>2013-05-11T12:37:53Z</time>
      </trkpt>
      <trkpt lat="40.481467" lon="-5.223850">
        <ele>1996.0</ele>
        <time>2013-05-11T12:37:54Z</time>
      </trkpt>
      <trkpt lat="40.481367" lon="-5.223800">
        <ele>1997.0</ele>
        <time>2013-05-11T12:37:55Z</time>
      </trkpt>
      <trkpt lat="40.481267" lon="-5.223767">
        <ele>1998.0</ele>
        <time>2013-05-11T12:37:56Z</time>
      </trkpt>
      <trkpt lat="40.481167" lon="-5.223717">
        <ele>1998.0</ele>
        <time>2013-05-11T12:37:57Z</time>
      </trkpt>
      <trkpt lat="40.481067" lon="-5.223717">
        <ele>1999.0</ele>
        <time>2013-05-11T12:37:58Z</time>
      </trkpt>
      <trkpt lat="40.480967" lon="-5.223750">
        <ele>1999.0</ele>
        <time>2013-05-11T12:37:59Z</time>
      </trkpt>
      <trkpt lat="40.480883" lon="-5.223783">
        <ele>2000.0</ele>
        <time>2013-05-11T12:38:00Z</time>
      </trkpt>
      <trkpt lat="40.480800" lon="-5.223833">
        <ele>2001.0</ele>
        <time>2013-05-11T12:38:01Z</time>
      </trkpt>
      <trkpt lat="40.480733" lon="-5.223883">
        <ele>2002.0</ele>
        <time>2013-05-11T12:38:02Z</time>
      </trkpt>
      <trkpt lat="40.480667" lon="-5.223917">
        <ele>2002.0</ele>
        <time>2013-05-11T12:38:03Z</time>
      </trkpt>
      <trkpt lat="40.480583" lon="-5.223983">
        <ele>2002.0</ele>
        <time>2013-05-11T12:38:04Z</time>
      </trkpt>
      <trkpt lat="40.480533" lon="-5.224067">
        <ele>2003.0</ele>
        <time>2013-05-11T12:38:05Z</time>
      </trkpt>
      <trkpt lat="40.480517" lon="-5.224150">
        <ele>2004.0</ele>
        <time>2013-05-11T12:38:06Z</time>
      </trkpt>
      <trkpt lat="40.480517" lon="-5.224233">
        <ele>2007.0</ele>
        <time>2013-05-11T12:38:07Z</time>
      </trkpt>
      <trkpt lat="40.480533" lon="-5.224300">
        <ele>2009.0</ele>
        <time>2013-05-11T12:38:08Z</time>
      </trkpt>
      <trkpt lat="40.480533" lon="-5.224350">
        <ele>2012.0</ele>
        <time>2013-05-11T12:38:09Z</time>
      </trkpt>
      <trkpt lat="40.480550" lon="-5.224400">
        <ele>2013.0</ele>
        <time>2013-05-11T12:38:10Z</time>
      </trkpt>
      <trkpt lat="40.480567" lon="-5.224433">
        <ele>2014.0</ele>
        <time>2013-05-11T12:38:11Z</time>
      </trkpt>
      <trkpt lat="40.480583" lon="-5.224483">
        <ele>2014.0</ele>
        <time>2013-05-11T12:38:12Z</time>
      </trkpt>
      <trkpt lat="40.480633" lon="-5.224517">
        <ele>2012.0</ele>
        <time>2013-05-11T12:38:13Z</time>
      </trkpt>
      <trkpt lat="40.480700" lon="-5.224550">
        <ele>2011.0</ele>
        <time>2013-05-11T12:38:14Z</time>
      </trkpt>
      <trkpt lat="40.480783" lon="-5.224567">
        <ele>2011.0</ele>
        <time>2013-05-11T12:38:15Z</time>
      </trkpt>
      <trkpt lat="40.480850" lon="-5.224583">
        <ele>2013.0</ele>
        <time>2013-05-11T12:38:16Z</time>
      </trkpt>
      <trkpt lat="40.480883" lon="-5.224583">
        <ele>2016.0</ele>
        <time>2013-05-11T12:38:17Z</time>
      </trkpt>
      <trkpt lat="40.480917" lon="-5.224583">
        <ele>2018.0</ele>
        <time>2013-05-11T12:38:18Z</time>
      </trkpt>
      <trkpt lat="40.480950" lon="-5.224583">
        <ele>2019.0</ele>
        <time>2013-05-11T12:38:19Z</time>
      </trkpt>
      <trkpt lat="40.480983" lon="-5.224567">
        <ele>2019.0</ele>
        <time>2013-05-11T12:38:20Z</time>
      </trkpt>
      <trkpt lat="40.481017" lon="-5.224567">
        <ele>2019.0</ele>
        <time>2013-05-11T12:38:21Z</time>
      </trkpt>
      <trkpt lat="40.481067" lon="-5.224550">
        <ele>2019.0</ele>
        <time>2013-05-11T12:38:22Z</time>
      </trkpt>
      <trkpt lat="40.481133" lon="-5.224500">
        <ele>2019.0</ele>
        <time>2013-05-11T12:38:23Z</time>
      </trkpt>
      <trkpt lat="40.481183" lon="-5.224433">
        <ele>2020.0</ele>
        <time>2013-05-11T12:38:24Z</time>
      </trkpt>
      <trkpt lat="40.481217" lon="-5.224333">
        <ele>2020.0</ele>
        <time>2013-05-11T12:38:25Z</time>
      </trkpt>
      <trkpt lat="40.481267" lon="-5.224217">
        <ele>2021.0</ele>
        <time>2013-05-11T12:38:26Z</time>
      </trkpt>
      <trkpt lat="40.481317" lon="-5.224117">
        <ele>2021.0</ele>
        <time>2013-05-11T12:38:27Z</time>
      </trkpt>
      <trkpt lat="40.481350" lon="-5.224017">
        <ele>2022.0</ele>
        <time>2013-05-11T12:38:28Z</time>
      </trkpt>
      <trkpt lat="40.481383" lon="-5.223917">
        <ele>2023.0</ele>
        <time>2013-05-11T12:38:29Z</time>
      </trkpt>
      <trkpt lat="40.481400" lon="-5.223783">
        <ele>2023.0</ele>
        <time>2013-05-11T12:38:30Z</time>
      </trkpt>
      <trkpt lat="40.481383" lon="-5.223633">
        <ele>2023.0</ele>
        <time>2013-05-11T12:38:31Z</time>
      </trkpt>
      <trkpt lat="40.481350" lon="-5.223467">
        <ele>2023.0</ele>
        <time>2013-05-11T12:38:32Z</time>
      </trkpt>
      <trkpt lat="40.481333" lon="-5.223333">
        <ele>2025.0</ele>
        <time>2013-05-11T12:38:33Z</time>
      </trkpt>
      <trkpt lat="40.481317" lon="-5.223200">
        <ele>2028.0</ele>
        <time>2013-05-11T12:38:34Z</time>
      </trkpt>
      <trkpt lat="40.481283" lon="-5.223067">
        <ele>2029.0</ele>
        <time>2013-05-11T12:38:35Z</time>
      </trkpt>
      <trkpt lat="40.481250" lon="-5.222950">
        <ele>2030.0</ele>
        <time>2013-05-11T12:38:36Z</time>
      </trkpt>
      <trkpt lat="40.481200" lon="-5.222833">
        <ele>2031.0</ele>
        <time>2013-05-11T12:38:37Z</time>
      </trkpt>
      <trkpt lat="40.481117" lon="-5.222700">
        <ele>2031.0</ele>
        <time>2013-05-11T12:38:38Z</time>
      </trkpt>
      <trkpt lat="40.481033" lon="-5.222583">
        <ele>2033.0</ele>
        <time>2013-05-11T12:38:39Z</time>
      </trkpt>
      <trkpt lat="40.480933" lon="-5.222500">
        <ele>2035.0</ele>
        <time>2013-05-11T12:38:40Z</time>
      </trkpt>
      <trkpt lat="40.480833" lon="-5.222450">
        <ele>2038.0</ele>
        <time>2013-05-11T12:38:41Z</time>
      </trkpt>
      <trkpt lat="40.480733" lon="-5.222417">
        <ele>2040.0</ele>
        <time>2013-05-11T12:38:42Z</time>
      </trkpt>
      <trkpt lat="40.480633" lon="-5.222400">
        <ele>2042.0</ele>
        <time>2013-05-11T12:38:43Z</time>
      </trkpt>
      <trkpt lat="40.480517" lon="-5.222383">
        <ele>2043.0</ele>
        <time>2013-05-11T12:38:44Z</time>
      </trkpt>
      <trkpt lat="40.480433" lon="-5.222383">
        <ele>2043.0</ele>
        <time>2013-05-11T12:38:45Z</time>
      </trkpt>
      <trkpt lat="40.480333" lon="-5.222400">
        <ele>2043.0</ele>
        <time>2013-05-11T12:38:46Z</time>
      </trkpt>
      <trkpt lat="40.480250" lon="-5.222467">
        <ele>2042.0</ele>
        <time>2013-05-11T12:38:47Z</time>
      </trkpt>
      <trkpt lat="40.480183" lon="-5.222533">
        <ele>2043.0</ele>
        <time>2013-05-11T12:38:48Z</time>
      </trkpt>
      <trkpt lat="40.480133" lon="-5.222583">
        <ele>2045.0</ele>
        <time>2013-05-11T12:38:49Z</time>
      </trkpt>
      <trkpt lat="40.480100" lon="-5.222633">
        <ele>2045.0</ele>
        <time>2013-05-11T12:38:50Z</time>
      </trkpt>
      <trkpt lat="40.480100" lon="-5.222683">
        <ele>2044.0</ele>
        <time>2013-05-11T12:38:51Z</time>
      </trkpt>
      <trkpt lat="40.480100" lon="-5.222750">
        <ele>2042.0</ele>
        <time>2013-05-11T12:38:52Z</time>
      </trkpt>
      <trkpt lat="40.480117" lon="-5.222817">
        <ele>2040.0</ele>
        <time>2013-05-11T12:38:53Z</time>
      </trkpt>
      <trkpt lat="40.480150" lon="-5.222883">
        <ele>2039.0</ele>
        <time>2013-05-11T12:38:54Z</time>
      </trkpt>
      <trkpt lat="40.480200" lon="-5.222950">
        <ele>2038.0</ele>
        <time>2013-05-11T12:38:55Z</time>
      </trkpt>
      <trkpt lat="40.480267" lon="-5.222967">
        <ele>2039.0</ele>
        <time>2013-05-11T12:38:56Z</time>
      </trkpt>
      <trkpt lat="40.480317" lon="-5.222983">
        <ele>2040.0</ele>
        <time>2013-05-11T12:38:57Z</time>
      </trkpt>
      <trkpt lat="40.480367" lon="-5.222983">
        <ele>2041.0</ele>
        <time>2013-05-11T12:38:58Z</time>
      </trkpt>
      <trkpt lat="40.480417" lon="-5.222967">
        <ele>2042.0</ele>
        <time>2013-05-11T12:38:59Z</time>
      </trkpt>
      <trkpt lat="40.480467" lon="-5.222933">
        <ele>2043.0</ele>
        <time>2013-05-11T12:39:00Z</time>
      </trkpt>
      <trkpt lat="40.480533" lon="-5.222883">
        <ele>2043.0</ele>
        <time>2013-05-11T12:39:01Z</time>
      </trkpt>
      <trkpt lat="40.480583" lon="-5.222800">
        <ele>2042.0</ele>
        <time>2013-05-11T12:39:02Z</time>
      </trkpt>
      <trkpt lat="40.480633" lon="-5.222700">
        <ele>2043.0</ele>
        <time>2013-05-11T12:39:03Z</time>
      </trkpt>
      <trkpt lat="40.480667" lon="-5.222600">
        <ele>2044.0</ele>
        <time>2013-05-11T12:39:04Z</time>
      </trkpt>
      <trkpt lat="40.480700" lon="-5.222500">
        <ele>2045.0</ele>
        <time>2013-05-11T12:39:05Z</time>
      </trkpt>
      <trkpt lat="40.480733" lon="-5.222400">
        <ele>2045.0</ele>
        <time>2013-05-11T12:39:06Z</time>
      </trkpt>
      <trkpt lat="40.480750" lon="-5.222283">
        <ele>2045.0</ele>
        <time>2013-05-11T12:39:07Z</time>
      </trkpt>
      <trkpt lat="40.480767" lon="-5.222150">
        <ele>2045.0</ele>
        <time>2013-05-11T12:39:08Z</time>
      </trkpt>
      <trkpt lat="40.480783" lon="-5.222017">
        <ele>2045.0</ele>
        <time>2013-05-11T12:39:09Z</time>
      </trkpt>
      <trkpt lat="40.480783" lon="-5.221867">
        <ele>2046.0</ele>
        <time>2013-05-11T12:39:10Z</time>
      </trkpt>
      <trkpt lat="40.480783" lon="-5.221733">
        <ele>2048.0</ele>
        <time>2013-05-11T12:39:11Z</time>
      </trkpt>
      <trkpt lat="40.480767" lon="-5.221617">
        <ele>2049.0</ele>
        <time>2013-05-11T12:39:12Z</time>
      </trkpt>
      <trkpt lat="40.480733" lon="-5.221500">
        <ele>2050.0</ele>
        <time>2013-05-11T12:39:13Z</time>
      </trkpt>
      <trkpt lat="40.480700" lon="-5.221400">
        <ele>2050.0</ele>
        <time>2013-05-11T12:39:14Z</time>
      </trkpt>
      <trkpt lat="40.480650" lon="-5.221283">
        <ele>2050.0</ele>
        <time>2013-05-11T12:39:15Z</time>
      </trkpt>
      <trkpt lat="40.480600" lon="-5.221150">
        <ele>2050.0</ele>
        <time>2013-05-11T12:39:16Z</time>
      </trkpt>
      <trkpt lat="40.480517" lon="-5.221017">
        <ele>2051.0</ele>
        <time>2013-05-11T12:39:17Z</time>
      </trkpt>
      <trkpt lat="40.480417" lon="-5.220900">
        <ele>2052.0</ele>
        <time>2013-05-11T12:39:18Z</time>
      </trkpt>
      <trkpt lat="40.480333" lon="-5.220817">
        <ele>2055.0</ele>
        <time>2013-05-11T12:39:19Z</time>
      </trkpt>
      <trkpt lat="40.480233" lon="-5.220767">
        <ele>2057.0</ele>
        <time>2013-05-11T12:39:20Z</time>
      </trkpt>
      <trkpt lat="40.480150" lon="-5.220700">
        <ele>2059.0</ele>
        <time>2013-05-11T12:39:21Z</time>
      </trkpt>
      <trkpt lat="40.480050" lon="-5.220650">
        <ele>2060.0</ele>
        <time>2013-05-11T12:39:22Z</time>
      </trkpt>
      <trkpt lat="40.479950" lon="-5.220617">
        <ele>2061.0</ele>
        <time>2013-05-11T12:39:23Z</time>
      </trkpt>
      <trkpt lat="40.479867" lon="-5.220600">
        <ele>2061.0</ele>
        <time>2013-05-11T12:39:24Z</time>
      </trkpt>
      <trkpt lat="40.479767" lon="-5.220617">
        <ele>2062.0</ele>
        <time>2013-05-11T12:39:25Z</time>
      </trkpt>
      <trkpt lat="40.479683" lon="-5.220617">
        <ele>2063.0</ele>
        <time>2013-05-11T12:39:26Z</time>
      </trkpt>
      <trkpt lat="40.479600" lon="-5.220617">
        <ele>2064.0</ele>
        <time>2013-05-11T12:39:27Z</time>
      </trkpt>
      <trkpt lat="40.479533" lon="-5.220633">
        <ele>2064.0</ele>
        <time>2013-05-11T12:39:28Z</time>
      </trkpt>
      <trkpt lat="40.479467" lon="-5.220683">
        <ele>2064.0</ele>
        <time>2013-05-11T12:39:29Z</time>
      </trkpt>
      <trkpt lat="40.479400" lon="-5.220750">
        <ele>2063.0</ele>
        <time>2013-05-11T12:39:30Z</time>
      </trkpt>
      <trkpt lat="40.479350" lon="-5.220833">
        <ele>2063.0</ele>
        <time>2013-05-11T12:39:31Z</time>
      </trkpt>
      <trkpt lat="40.479317" lon="-5.220933">
        <ele>2064.0</ele>
        <time>2013-05-11T12:39:32Z</time>
      </trkpt>
      <trkpt lat="40.479300" lon="-5.221017">
        <ele>2065.0</ele>
        <time>2013-05-11T12:39:33Z</time>
      </trkpt>
      <trkpt lat="40.479300" lon="-5.221083">
        <ele>2065.0</ele>
        <time>2013-05-11T12:39:34Z</time>
      </trkpt>
      <trkpt lat="40.479317" lon="-5.221150">
        <ele>2065.0</ele>
        <time>2013-05-11T12:39:35Z</time>
      </trkpt>
      <trkpt lat="40.479350" lon="-5.221200">
        <ele>2063.0</ele>
        <time>2013-05-11T12:39:36Z</time>
      </trkpt>
      <trkpt lat="40.479400" lon="-5.221250">
        <ele>2062.0</ele>
        <time>2013-05-11T12:39:37Z</time>
      </trkpt>
      <trkpt lat="40.479467" lon="-5.221283">
        <ele>2060.0</ele>
        <time>2013-05-11T12:39:38Z</time>
      </trkpt>
      <trkpt lat="40.479533" lon="-5.221333">
        <ele>2060.0</ele>
        <time>2013-05-11T12:39:39Z</time>
      </trkpt>
      <trkpt lat="40.479600" lon="-5.221367">
        <ele>2059.0</ele>
        <time>2013-05-11T12:39:40Z</time>
      </trkpt>
      <trkpt lat="40.479650" lon="-5.221417">
        <ele>2059.0</ele>
        <time>2013-05-11T12:39:41Z</time>
      </trkpt>
      <trkpt lat="40.479700" lon="-5.221467">
        <ele>2059.0</ele>
        <time>2013-05-11T12:39:42Z</time>
      </trkpt>
      <trkpt lat="40.479767" lon="-5.221500">
        <ele>2059.0</ele>
        <time>2013-05-11T12:39:43Z</time>
      </trkpt>
      <trkpt lat="40.479817" lon="-5.221517">
        <ele>2060.0</ele>
        <time>2013-05-11T12:39:44Z</time>
      </trkpt>
      <trkpt lat="40.479883" lon="-5.221500">
        <ele>2060.0</ele>
        <time>2013-05-11T12:39:45Z</time>
      </trkpt>
      <trkpt lat="40.479933" lon="-5.221483">
        <ele>2060.0</ele>
        <time>2013-05-11T12:39:46Z</time>
      </trkpt>
      <trkpt lat="40.480000" lon="-5.221450">
        <ele>2059.0</ele>
        <time>2013-05-11T12:39:47Z</time>
      </trkpt>
      <trkpt lat="40.480067" lon="-5.221417">
        <ele>2059.0</ele>
        <time>2013-05-11T12:39:48Z</time>
      </trkpt>
      <trkpt lat="40.480150" lon="-5.221383">
        <ele>2059.0</ele>
        <time>2013-05-11T12:39:49Z</time>
      </trkpt>
      <trkpt lat="40.480233" lon="-5.221367">
        <ele>2060.0</ele>
        <time>2013-05-11T12:39:50Z</time>
      </trkpt>
      <trkpt lat="40.480317" lon="-5.221350">
        <ele>2062.0</ele>
        <time>2013-05-11T12:39:51Z</time>
      </trkpt>
      <trkpt lat="40.480383" lon="-5.221317">
        <ele>2063.0</ele>
        <time>2013-05-11T12:39:52Z</time>
      </trkpt>
      <trkpt lat="40.480450" lon="-5.221267">
        <ele>2065.0</ele>
        <time>2013-05-11T12:39:53Z</time>
      </trkpt>
      <trkpt lat="40.480517" lon="-5.221233">
        <ele>2066.0</ele>
        <time>2013-05-11T12:39:54Z</time>
      </trkpt>
      <trkpt lat="40.480583" lon="-5.221200">
        <ele>2066.0</ele>
        <time>2013-05-11T12:39:55Z</time>
      </trkpt>
      <trkpt lat="40.480650" lon="-5.221167">
        <ele>2067.0</ele>
        <time>2013-05-11T12:39:56Z</time>
      </trkpt>
      <trkpt lat="40.480733" lon="-5.221117">
        <ele>2067.0</ele>
        <time>2013-05-11T12:39:57Z</time>
      </trkpt>
      <trkpt lat="40.480800" lon="-5.221050">
        <ele>2068.0</ele>
        <time>2013-05-11T12:39:58Z</time>
      </trkpt>
      <trkpt lat="40.480850" lon="-5.221000">
        <ele>2070.0</ele>
        <time>2013-05-11T12:39:59Z</time>
      </trkpt>
      <trkpt lat="40.480900" lon="-5.220933">
        <ele>2069.0</ele>
        <time>2013-05-11T12:40:00Z</time>
      </trkpt>
      <trkpt lat="40.480950" lon="-5.220883">
        <ele>2068.0</ele>
        <time>2013-05-11T12:40:01Z</time>
      </trkpt>
      <trkpt lat="40.481000" lon="-5.220817">
        <ele>2066.0</ele>
        <time>2013-05-11T12:40:02Z</time>
      </trkpt>
      <trkpt lat="40.481067" lon="-5.220750">
        <ele>2064.0</ele>
        <time>2013-05-11T12:40:03Z</time>
      </trkpt>
      <trkpt lat="40.481117" lon="-5.220683">
        <ele>2062.0</ele>
        <time>2013-05-11T12:40:04Z</time>
      </trkpt>
      <trkpt lat="40.481183" lon="-5.220583">
        <ele>2060.0</ele>
        <time>2013-05-11T12:40:05Z</time>
      </trkpt>
      <trkpt lat="40.481250" lon="-5.220483">
        <ele>2059.0</ele>
        <time>2013-05-11T12:40:06Z</time>
      </trkpt>
      <trkpt lat="40.481333" lon="-5.220400">
        <ele>2058.0</ele>
        <time>2013-05-11T12:40:07Z</time>
      </trkpt>
      <trkpt lat="40.481400" lon="-5.220317">
        <ele>2058.0</ele>
        <time>2013-05-11T12:40:08Z</time>
      </trkpt>
      <trkpt lat="40.481483" lon="-5.220250">
        <ele>2058.0</ele>
        <time>2013-05-11T12:40:09Z</time>
      </trkpt>
      <trkpt lat="40.481550" lon="-5.220183">
        <ele>2058.0</ele>
        <time>2013-05-11T12:40:10Z</time>
      </trkpt>
      <trkpt lat="40.481600" lon="-5.220083">
        <ele>2058.0</ele>
        <time>2013-05-11T12:40:11Z</time>
      </trkpt>
      <trkpt lat="40.481633" lon="-5.219983">
        <ele>2056.0</ele>
        <time>2013-05-11T12:40:12Z</time>
      </trkpt>
      <trkpt lat="40.481667" lon="-5.219883">
        <ele>2054.0</ele>
        <time>2013-05-11T12:40:13Z</time>
      </trkpt>
      <trkpt lat="40.481700" lon="-5.219767">
        <ele>2050.0</ele>
        <time>2013-05-11T12:40:14Z</time>
      </trkpt>
      <trkpt lat="40.481767" lon="-5.219633">
        <ele>2046.0</ele>
        <time>2013-05-11T12:40:15Z</time>
      </trkpt>
      <trkpt lat="40.481817" lon="-5.219517">
        <ele>2043.0</ele>
        <time>2013-05-11T12:40:16Z</time>
      </trkpt>
      <trkpt lat="40.481883" lon="-5.219400">
        <ele>2043.0</ele>
        <time>2013-05-11T12:40:17Z</time>
      </trkpt>
      <trkpt lat="40.481933" lon="-5.219317">
        <ele>2042.0</ele>
        <time>2013-05-11T12:40:18Z</time>
      </trkpt>
      <trkpt lat="40.481983" lon="-5.219217">
        <ele>2041.0</ele>
        <time>2013-05-11T12:40:19Z</time>
      </trkpt>
      <trkpt lat="40.482033" lon="-5.219117">
        <ele>2039.0</ele>
        <time>2013-05-11T12:40:20Z</time>
      </trkpt>
      <trkpt lat="40.482083" lon="-5.219033">
        <ele>2036.0</ele>
        <time>2013-05-11T12:40:21Z</time>
      </trkpt>
      <trkpt lat="40.482150" lon="-5.218933">
        <ele>2033.0</ele>
        <time>2013-05-11T12:40:22Z</time>
      </trkpt>
      <trkpt lat="40.482217" lon="-5.218833">
        <ele>2030.0</ele>
        <time>2013-05-11T12:40:23Z</time>
      </trkpt>
      <trkpt lat="40.482283" lon="-5.218733">
        <ele>2028.0</ele>
        <time>2013-05-11T12:40:24Z</time>
      </trkpt>
      <trkpt lat="40.482333" lon="-5.218650">
        <ele>2026.0</ele>
        <time>2013-05-11T12:40:25Z</time>
      </trkpt>
      <trkpt lat="40.482383" lon="-5.218567">
        <ele>2024.0</ele>
        <time>2013-05-11T12:40:26Z</time>
      </trkpt>
      <trkpt lat="40.482450" lon="-5.218483">
        <ele>2021.0</ele>
        <time>2013-05-11T12:40:27Z</time>
      </trkpt>
      <trkpt lat="40.482517" lon="-5.218383">
        <ele>2017.0</ele>
        <time>2013-05-11T12:40:28Z</time>
      </trkpt>
      <trkpt lat="40.482583" lon="-5.218283">
        <ele>2015.0</ele>
        <time>2013-05-11T12:40:29Z</time>
      </trkpt>
      <trkpt lat="40.482650" lon="-5.218183">
        <ele>2014.0</ele>
        <time>2013-05-11T12:40:30Z</time>
      </trkpt>
      <trkpt lat="40.482717" lon="-5.218100">
        <ele>2014.0</ele>
        <time>2013-05-11T12:40:31Z</time>
      </trkpt>
      <trkpt lat="40.482750" lon="-5.218017">
        <ele>2013.0</ele>
        <time>2013-05-11T12:40:32Z</time>
      </trkpt>
      <trkpt lat="40.482800" lon="-5.217950">
        <ele>2010.0</ele>
        <time>2013-05-11T12:40:33Z</time>
      </trkpt>
      <trkpt lat="40.482850" lon="-5.217850">
        <ele>2007.0</ele>
        <time>2013-05-11T12:40:34Z</time>
      </trkpt>
      <trkpt lat="40.482917" lon="-5.217750">
        <ele>2003.0</ele>
        <time>2013-05-11T12:40:35Z</time>
      </trkpt>
      <trkpt lat="40.483000" lon="-5.217633">
        <ele>2000.0</ele>
        <time>2013-05-11T12:40:36Z</time>
      </trkpt>
      <trkpt lat="40.483067" lon="-5.217517">
        <ele>1998.0</ele>
        <time>2013-05-11T12:40:37Z</time>
      </trkpt>
      <trkpt lat="40.483117" lon="-5.217417">
        <ele>1998.0</ele>
        <time>2013-05-11T12:40:38Z</time>
      </trkpt>
      <trkpt lat="40.483167" lon="-5.217317">
        <ele>1998.0</ele>
        <time>2013-05-11T12:40:39Z</time>
      </trkpt>
      <trkpt lat="40.483200" lon="-5.217217">
        <ele>1995.0</ele>
        <time>2013-05-11T12:40:40Z</time>
      </trkpt>
      <trkpt lat="40.483233" lon="-5.217117">
        <ele>1992.0</ele>
        <time>2013-05-11T12:40:41Z</time>
      </trkpt>
      <trkpt lat="40.483300" lon="-5.217017">
        <ele>1989.0</ele>
        <time>2013-05-11T12:40:42Z</time>
      </trkpt>
      <trkpt lat="40.483367" lon="-5.216900">
        <ele>1985.0</ele>
        <time>2013-05-11T12:40:43Z</time>
      </trkpt>
      <trkpt lat="40.483433" lon="-5.216800">
        <ele>1982.0</ele>
        <time>2013-05-11T12:40:44Z</time>
      </trkpt>
      <trkpt lat="40.483500" lon="-5.216700">
        <ele>1980.0</ele>
        <time>2013-05-11T12:40:45Z</time>
      </trkpt>
      <trkpt lat="40.483550" lon="-5.216600">
        <ele>1978.0</ele>
        <time>2013-05-11T12:40:46Z</time>
      </trkpt>
      <trkpt lat="40.483617" lon="-5.216500">
        <ele>1975.0</ele>
        <time>2013-05-11T12:40:47Z</time>
      </trkpt>
      <trkpt lat="40.483667" lon="-5.216417">
        <ele>1973.0</ele>
        <time>2013-05-11T12:40:48Z</time>
      </trkpt>
      <trkpt lat="40.483733" lon="-5.216317">
        <ele>1970.0</ele>
        <time>2013-05-11T12:40:49Z</time>
      </trkpt>
      <trkpt lat="40.483783" lon="-5.216217">
        <ele>1969.0</ele>
        <time>2013-05-11T12:40:50Z</time>
      </trkpt>
      <trkpt lat="40.483833" lon="-5.216117">
        <ele>1967.0</ele>
        <time>2013-05-11T12:40:51Z</time>
      </trkpt>
      <trkpt lat="40.483883" lon="-5.216033">
        <ele>1965.0</ele>
        <time>2013-05-11T12:40:52Z</time>
      </trkpt>
      <trkpt lat="40.483933" lon="-5.215967">
        <ele>1962.0</ele>
        <time>2013-05-11T12:40:53Z</time>
      </trkpt>
      <trkpt lat="40.483983" lon="-5.215883">
        <ele>1959.0</ele>
        <time>2013-05-11T12:40:54Z</time>
      </trkpt>
      <trkpt lat="40.484050" lon="-5.215800">
        <ele>1956.0</ele>
        <time>2013-05-11T12:40:55Z</time>
      </trkpt>
      <trkpt lat="40.484100" lon="-5.215700">
        <ele>1953.0</ele>
        <time>2013-05-11T12:40:56Z</time>
      </trkpt>
      <trkpt lat="40.484150" lon="-5.215617">
        <ele>1951.0</ele>
        <time>2013-05-11T12:40:57Z</time>
      </trkpt>
      <trkpt lat="40.484217" lon="-5.215533">
        <ele>1948.0</ele>
        <time>2013-05-11T12:40:58Z</time>
      </trkpt>
      <trkpt lat="40.484267" lon="-5.215450">
        <ele>1945.0</ele>
        <time>2013-05-11T12:40:59Z</time>
      </trkpt>
      <trkpt lat="40.484317" lon="-5.215367">
        <ele>1942.0</ele>
        <time>2013-05-11T12:41:00Z</time>
      </trkpt>
      <trkpt lat="40.484367" lon="-5.215300">
        <ele>1938.0</ele>
        <time>2013-05-11T12:41:01Z</time>
      </trkpt>
      <trkpt lat="40.484417" lon="-5.215200">
        <ele>1934.0</ele>
        <time>2013-05-11T12:41:02Z</time>
      </trkpt>
      <trkpt lat="40.484467" lon="-5.215100">
        <ele>1930.0</ele>
        <time>2013-05-11T12:41:03Z</time>
      </trkpt>
      <trkpt lat="40.484533" lon="-5.215000">
        <ele>1927.0</ele>
        <time>2013-05-11T12:41:04Z</time>
      </trkpt>
      <trkpt lat="40.484583" lon="-5.214917">
        <ele>1924.0</ele>
        <time>2013-05-11T12:41:05Z</time>
      </trkpt>
      <trkpt lat="40.484633" lon="-5.214817">
        <ele>1921.0</ele>
        <time>2013-05-11T12:41:06Z</time>
      </trkpt>
      <trkpt lat="40.484667" lon="-5.214717">
        <ele>1918.0</ele>
        <time>2013-05-11T12:41:07Z</time>
      </trkpt>
      <trkpt lat="40.484717" lon="-5.214633">
        <ele>1914.0</ele>
        <time>2013-05-11T12:41:08Z</time>
      </trkpt>
      <trkpt lat="40.484767" lon="-5.214517">
        <ele>1910.0</ele>
        <time>2013-05-11T12:41:09Z</time>
      </trkpt>
      <trkpt lat="40.484817" lon="-5.214417">
        <ele>1906.0</ele>
        <time>2013-05-11T12:41:10Z</time>
      </trkpt>
      <trkpt lat="40.484883" lon="-5.214300">
        <ele>1903.0</ele>
        <time>2013-05-11T12:41:11Z</time>
      </trkpt>
      <trkpt lat="40.484933" lon="-5.214183">
        <ele>1900.0</ele>
        <time>2013-05-11T12:41:12Z</time>
      </trkpt>
      <trkpt lat="40.484983" lon="-5.214083">
        <ele>1899.0</ele>
        <time>2013-05-11T12:41:13Z</time>
      </trkpt>
      <trkpt lat="40.485033" lon="-5.214000">
        <ele>1896.0</ele>
        <time>2013-05-11T12:41:14Z</time>
      </trkpt>
      <trkpt lat="40.485083" lon="-5.213917">
        <ele>1894.0</ele>
        <time>2013-05-11T12:41:15Z</time>
      </trkpt>
      <trkpt lat="40.485150" lon="-5.213817">
        <ele>1891.0</ele>
        <time>2013-05-11T12:41:16Z</time>
      </trkpt>
      <trkpt lat="40.485200" lon="-5.213717">
        <ele>1888.0</ele>
        <time>2013-05-11T12:41:17Z</time>
      </trkpt>
      <trkpt lat="40.485250" lon="-5.213600">
        <ele>1886.0</ele>
        <time>2013-05-11T12:41:18Z</time>
      </trkpt>
      <trkpt lat="40.485300" lon="-5.213483">
        <ele>1885.0</ele>
        <time>2013-05-11T12:41:19Z</time>
      </trkpt>
      <trkpt lat="40.485350" lon="-5.213383">
        <ele>1883.0</ele>
        <time>2013-05-11T12:41:20Z</time>
      </trkpt>
      <trkpt lat="40.485400" lon="-5.213300">
        <ele>1881.0</ele>
        <time>2013-05-11T12:41:21Z</time>
      </trkpt>
      <trkpt lat="40.485450" lon="-5.213217">
        <ele>1879.0</ele>
        <time>2013-05-11T12:41:22Z</time>
      </trkpt>
      <trkpt lat="40.485517" lon="-5.213133">
        <ele>1876.0</ele>
        <time>2013-05-11T12:41:23Z</time>
      </trkpt>
      <trkpt lat="40.485567" lon="-5.213050">
        <ele>1873.0</ele>
        <time>2013-05-11T12:41:24Z</time>
      </trkpt>
      <trkpt lat="40.485633" lon="-5.212967">
        <ele>1871.0</ele>
        <time>2013-05-11T12:41:25Z</time>
      </trkpt>
      <trkpt lat="40.485683" lon="-5.212883">
        <ele>1869.0</ele>
        <time>2013-05-11T12:41:26Z</time>
      </trkpt>
      <trkpt lat="40.485733" lon="-5.212800">
        <ele>1866.0</ele>
        <time>2013-05-11T12:41:27Z</time>
      </trkpt>
      <trkpt lat="40.485800" lon="-5.212717">
        <ele>1863.0</ele>
        <time>2013-05-11T12:41:28Z</time>
      </trkpt>
      <trkpt lat="40.485850" lon="-5.212633">
        <ele>1860.0</ele>
        <time>2013-05-11T12:41:29Z</time>
      </trkpt>
      <trkpt lat="40.485900" lon="-5.212550">
        <ele>1857.0</ele>
        <time>2013-05-11T12:41:30Z</time>
      </trkpt>
      <trkpt lat="40.485967" lon="-5.212483">
        <ele>1853.0</ele>
        <time>2013-05-11T12:41:31Z</time>
      </trkpt>
      <trkpt lat="40.486033" lon="-5.212400">
        <ele>1850.0</ele>
        <time>2013-05-11T12:41:32Z</time>
      </trkpt>
      <trkpt lat="40.486100" lon="-5.212333">
        <ele>1846.0</ele>
        <time>2013-05-11T12:41:33Z</time>
      </trkpt>
      <trkpt lat="40.486150" lon="-5.212250">
        <ele>1843.0</ele>
        <time>2013-05-11T12:41:34Z</time>
      </trkpt>
      <trkpt lat="40.486217" lon="-5.212167">
        <ele>1839.0</ele>
        <time>2013-05-11T12:41:35Z</time>
      </trkpt>
      <trkpt lat="40.486283" lon="-5.212100">
        <ele>1836.0</ele>
        <time>2013-05-11T12:41:36Z</time>
      </trkpt>
      <trkpt lat="40.486350" lon="-5.212017">
        <ele>1833.0</ele>
        <time>2013-05-11T12:41:37Z</time>
      </trkpt>
      <trkpt lat="40.486417" lon="-5.211950">
        <ele>1829.0</ele>
        <time>2013-05-11T12:41:38Z</time>
      </trkpt>
      <trkpt lat="40.486483" lon="-5.211867">
        <ele>1826.0</ele>
        <time>2013-05-11T12:41:39Z</time>
      </trkpt>
      <trkpt lat="40.486550" lon="-5.211783">
        <ele>1823.0</ele>
        <time>2013-05-11T12:41:40Z</time>
      </trkpt>
      <trkpt lat="40.486617" lon="-5.211700">
        <ele>1820.0</ele>
        <time>2013-05-11T12:41:41Z</time>
      </trkpt>
      <trkpt lat="40.486700" lon="-5.211617">
        <ele>1817.0</ele>
        <time>2013-05-11T12:41:42Z</time>
      </trkpt>
      <trkpt lat="40.486767" lon="-5.211550">
        <ele>1815.0</ele>
        <time>2013-05-11T12:41:43Z</time>
      </trkpt>
      <trkpt lat="40.486833" lon="-5.211467">
        <ele>1813.0</ele>
        <time>2013-05-11T12:41:44Z</time>
      </trkpt>
      <trkpt lat="40.486900" lon="-5.211383">
        <ele>1811.0</ele>
        <time>2013-05-11T12:41:45Z</time>
      </trkpt>
      <trkpt lat="40.486967" lon="-5.211283">
        <ele>1809.0</ele>
        <time>2013-05-11T12:41:46Z</time>
      </trkpt>
      <trkpt lat="40.487033" lon="-5.211200">
        <ele>1807.0</ele>
        <time>2013-05-11T12:41:47Z</time>
      </trkpt>
      <trkpt lat="40.487083" lon="-5.211117">
        <ele>1805.0</ele>
        <time>2013-05-11T12:41:48Z</time>
      </trkpt>
      <trkpt lat="40.487150" lon="-5.211033">
        <ele>1803.0</ele>
        <time>2013-05-11T12:41:49Z</time>
      </trkpt>
      <trkpt lat="40.487217" lon="-5.210933">
        <ele>1800.0</ele>
        <time>2013-05-11T12:41:50Z</time>
      </trkpt>
      <trkpt lat="40.487283" lon="-5.210850">
        <ele>1798.0</ele>
        <time>2013-05-11T12:41:51Z</time>
      </trkpt>
      <trkpt lat="40.487350" lon="-5.210767">
        <ele>1797.0</ele>
        <time>2013-05-11T12:41:52Z</time>
      </trkpt>
      <trkpt lat="40.487417" lon="-5.210683">
        <ele>1795.0</ele>
        <time>2013-05-11T12:41:53Z</time>
      </trkpt>
      <trkpt lat="40.487483" lon="-5.210617">
        <ele>1792.0</ele>
        <time>2013-05-11T12:41:54Z</time>
      </trkpt>
      <trkpt lat="40.487550" lon="-5.210533">
        <ele>1789.0</ele>
        <time>2013-05-11T12:41:55Z</time>
      </trkpt>
      <trkpt lat="40.487617" lon="-5.210433">
        <ele>1787.0</ele>
        <time>2013-05-11T12:41:56Z</time>
      </trkpt>
      <trkpt lat="40.487683" lon="-5.210333">
        <ele>1784.0</ele>
        <time>2013-05-11T12:41:57Z</time>
      </trkpt>
      <trkpt lat="40.487767" lon="-5.210250">
        <ele>1782.0</ele>
        <time>2013-05-11T12:41:58Z</time>
      </trkpt>
      <trkpt lat="40.487833" lon="-5.210167">
        <ele>1781.0</ele>
        <time>2013-05-11T12:41:59Z</time>
      </trkpt>
      <trkpt lat="40.487900" lon="-5.210083">
        <ele>1780.0</ele>
        <time>2013-05-11T12:42:00Z</time>
      </trkpt>
      <trkpt lat="40.487950" lon="-5.210000">
        <ele>1777.0</ele>
        <time>2013-05-11T12:42:01Z</time>
      </trkpt>
      <trkpt lat="40.488017" lon="-5.209900">
        <ele>1775.0</ele>
        <time>2013-05-11T12:42:02Z</time>
      </trkpt>
      <trkpt lat="40.488083" lon="-5.209800">
        <ele>1772.0</ele>
        <time>2013-05-11T12:42:03Z</time>
      </trkpt>
      <trkpt lat="40.488150" lon="-5.209717">
        <ele>1770.0</ele>
        <time>2013-05-11T12:42:04Z</time>
      </trkpt>
      <trkpt lat="40.488217" lon="-5.209633">
        <ele>1768.0</ele>
        <time>2013-05-11T12:42:05Z</time>
      </trkpt>
      <trkpt lat="40.488283" lon="-5.209550">
        <ele>1766.0</ele>
        <time>2013-05-11T12:42:06Z</time>
      </trkpt>
      <trkpt lat="40.488350" lon="-5.209483">
        <ele>1764.0</ele>
        <time>2013-05-11T12:42:07Z</time>
      </trkpt>
      <trkpt lat="40.488433" lon="-5.209400">
        <ele>1761.0</ele>
        <time>2013-05-11T12:42:08Z</time>
      </trkpt>
      <trkpt lat="40.488500" lon="-5.209317">
        <ele>1759.0</ele>
        <time>2013-05-11T12:42:09Z</time>
      </trkpt>
      <trkpt lat="40.488583" lon="-5.209217">
        <ele>1757.0</ele>
        <time>2013-05-11T12:42:10Z</time>
      </trkpt>
      <trkpt lat="40.488650" lon="-5.209150">
        <ele>1755.0</ele>
        <time>2013-05-11T12:42:11Z</time>
      </trkpt>
      <trkpt lat="40.488733" lon="-5.209067">
        <ele>1753.0</ele>
        <time>2013-05-11T12:42:12Z</time>
      </trkpt>
      <trkpt lat="40.488800" lon="-5.209000">
        <ele>1752.0</ele>
        <time>2013-05-11T12:42:13Z</time>
      </trkpt>
      <trkpt lat="40.488883" lon="-5.208917">
        <ele>1750.0</ele>
        <time>2013-05-11T12:42:14Z</time>
      </trkpt>
      <trkpt lat="40.488950" lon="-5.208833">
        <ele>1748.0</ele>
        <time>2013-05-11T12:42:15Z</time>
      </trkpt>
      <trkpt lat="40.489033" lon="-5.208750">
        <ele>1747.0</ele>
        <time>2013-05-11T12:42:16Z</time>
      </trkpt>
      <trkpt lat="40.489117" lon="-5.208667">
        <ele>1746.0</ele>
        <time>2013-05-11T12:42:17Z</time>
      </trkpt>
      <trkpt lat="40.489200" lon="-5.208567">
        <ele>1745.0</ele>
        <time>2013-05-11T12:42:18Z</time>
      </trkpt>
      <trkpt lat="40.489283" lon="-5.208467">
        <ele>1745.0</ele>
        <time>2013-05-11T12:42:19Z</time>
      </trkpt>
      <trkpt lat="40.489350" lon="-5.208367">
        <ele>1744.0</ele>
        <time>2013-05-11T12:42:20Z</time>
      </trkpt>
      <trkpt lat="40.489433" lon="-5.208267">
        <ele>1744.0</ele>
        <time>2013-05-11T12:42:21Z</time>
      </trkpt>
      <trkpt lat="40.489500" lon="-5.208183">
        <ele>1743.0</ele>
        <time>2013-05-11T12:42:22Z</time>
      </trkpt>
      <trkpt lat="40.489567" lon="-5.208100">
        <ele>1743.0</ele>
        <time>2013-05-11T12:42:23Z</time>
      </trkpt>
      <trkpt lat="40.489633" lon="-5.208000">
        <ele>1742.0</ele>
        <time>2013-05-11T12:42:24Z</time>
      </trkpt>
      <trkpt lat="40.489700" lon="-5.207900">
        <ele>1739.0</ele>
        <time>2013-05-11T12:42:25Z</time>
      </trkpt>
      <trkpt lat="40.489783" lon="-5.207800">
        <ele>1737.0</ele>
        <time>2013-05-11T12:42:26Z</time>
      </trkpt>
      <trkpt lat="40.489867" lon="-5.207683">
        <ele>1735.0</ele>
        <time>2013-05-11T12:42:27Z</time>
      </trkpt>
      <trkpt lat="40.489950" lon="-5.207583">
        <ele>1734.0</ele>
        <time>2013-05-11T12:42:28Z</time>
      </trkpt>
      <trkpt lat="40.490017" lon="-5.207500">
        <ele>1733.0</ele>
        <time>2013-05-11T12:42:29Z</time>
      </trkpt>
      <trkpt lat="40.490100" lon="-5.207400">
        <ele>1731.0</ele>
        <time>2013-05-11T12:42:30Z</time>
      </trkpt>
      <trkpt lat="40.490167" lon="-5.207300">
        <ele>1730.0</ele>
        <time>2013-05-11T12:42:31Z</time>
      </trkpt>
      <trkpt lat="40.490250" lon="-5.207200">
        <ele>1728.0</ele>
        <time>2013-05-11T12:42:32Z</time>
      </trkpt>
      <trkpt lat="40.490317" lon="-5.207100">
        <ele>1727.0</ele>
        <time>2013-05-11T12:42:33Z</time>
      </trkpt>
      <trkpt lat="40.490383" lon="-5.207000">
        <ele>1726.0</ele>
        <time>2013-05-11T12:42:34Z</time>
      </trkpt>
      <trkpt lat="40.490467" lon="-5.206883">
        <ele>1727.0</ele>
        <time>2013-05-11T12:42:35Z</time>
      </trkpt>
      <trkpt lat="40.490533" lon="-5.206783">
        <ele>1728.0</ele>
        <time>2013-05-11T12:42:36Z</time>
      </trkpt>
      <trkpt lat="40.490600" lon="-5.206700">
        <ele>1729.0</ele>
        <time>2013-05-11T12:42:37Z</time>
      </trkpt>
      <trkpt lat="40.490683" lon="-5.206617">
        <ele>1730.0</ele>
        <time>2013-05-11T12:42:38Z</time>
      </trkpt>
      <trkpt lat="40.490767" lon="-5.206567">
        <ele>1731.0</ele>
        <time>2013-05-11T12:42:39Z</time>
      </trkpt>
      <trkpt lat="40.490833" lon="-5.206517">
        <ele>1731.0</ele>
        <time>2013-05-11T12:42:40Z</time>
      </trkpt>
      <trkpt lat="40.490917" lon="-5.206483">
        <ele>1730.0</ele>
        <time>2013-05-11T12:42:41Z</time>
      </trkpt>
      <trkpt lat="40.491017" lon="-5.206450">
        <ele>1729.0</ele>
        <time>2013-05-11T12:42:42Z</time>
      </trkpt>
      <trkpt lat="40.491100" lon="-5.206417">
        <ele>1727.0</ele>
        <time>2013-05-11T12:42:43Z</time>
      </trkpt>
      <trkpt lat="40.491183" lon="-5.206383">
        <ele>1726.0</ele>
        <time>2013-05-11T12:42:44Z</time>
      </trkpt>
      <trkpt lat="40.491267" lon="-5.206333">
        <ele>1726.0</ele>
        <time>2013-05-11T12:42:45Z</time>
      </trkpt>
      <trkpt lat="40.491350" lon="-5.206283">
        <ele>1727.0</ele>
        <time>2013-05-11T12:42:46Z</time>
      </trkpt>
      <trkpt lat="40.491417" lon="-5.206233">
        <ele>1727.0</ele>
        <time>2013-05-11T12:42:47Z</time>
      </trkpt>
      <trkpt lat="40.491500" lon="-5.206200">
        <ele>1728.0</ele>
        <time>2013-05-11T12:42:48Z</time>
      </trkpt>
      <trkpt lat="40.491567" lon="-5.206183">
        <ele>1728.0</ele>
        <time>2013-05-11T12:42:49Z</time>
      </trkpt>
      <trkpt lat="40.491633" lon="-5.206150">
        <ele>1729.0</ele>
        <time>2013-05-11T12:42:50Z</time>
      </trkpt>
      <trkpt lat="40.491717" lon="-5.206100">
        <ele>1730.0</ele>
        <time>2013-05-11T12:42:51Z</time>
      </trkpt>
      <trkpt lat="40.491783" lon="-5.206017">
        <ele>1730.0</ele>
        <time>2013-05-11T12:42:52Z</time>
      </trkpt>
      <trkpt lat="40.491833" lon="-5.205950">
        <ele>1731.0</ele>
        <time>2013-05-11T12:42:53Z</time>
      </trkpt>
      <trkpt lat="40.491900" lon="-5.205867">
        <ele>1733.0</ele>
        <time>2013-05-11T12:42:54Z</time>
      </trkpt>
      <trkpt lat="40.491950" lon="-5.205767">
        <ele>1734.0</ele>
        <time>2013-05-11T12:42:55Z</time>
      </trkpt>
      <trkpt lat="40.492000" lon="-5.205667">
        <ele>1735.0</ele>
        <time>2013-05-11T12:42:56Z</time>
      </trkpt>
      <trkpt lat="40.492033" lon="-5.205550">
        <ele>1735.0</ele>
        <time>2013-05-11T12:42:57Z</time>
      </trkpt>
      <trkpt lat="40.492050" lon="-5.205417">
        <ele>1734.0</ele>
        <time>2013-05-11T12:42:58Z</time>
      </trkpt>
      <trkpt lat="40.492050" lon="-5.205283">
        <ele>1734.0</ele>
        <time>2013-05-11T12:42:59Z</time>
      </trkpt>
      <trkpt lat="40.492033" lon="-5.205133">
        <ele>1733.0</ele>
        <time>2013-05-11T12:43:00Z</time>
      </trkpt>
      <trkpt lat="40.492017" lon="-5.205000">
        <ele>1733.0</ele>
        <time>2013-05-11T12:43:01Z</time>
      </trkpt>
      <trkpt lat="40.491967" lon="-5.204883">
        <ele>1733.0</ele>
        <time>2013-05-11T12:43:02Z</time>
      </trkpt>
      <trkpt lat="40.491917" lon="-5.204767">
        <ele>1733.0</ele>
        <time>2013-05-11T12:43:03Z</time>
      </trkpt>
      <trkpt lat="40.491833" lon="-5.204667">
        <ele>1733.0</ele>
        <time>2013-05-11T12:43:04Z</time>
      </trkpt>
      <trkpt lat="40.491750" lon="-5.204617">
        <ele>1732.0</ele>
        <time>2013-05-11T12:43:05Z</time>
      </trkpt>
      <trkpt lat="40.491633" lon="-5.204583">
        <ele>1732.0</ele>
        <time>2013-05-11T12:43:06Z</time>
      </trkpt>
      <trkpt lat="40.491550" lon="-5.204583">
        <ele>1732.0</ele>
        <time>2013-05-11T12:43:07Z</time>
      </trkpt>
      <trkpt lat="40.491483" lon="-5.204617">
        <ele>1731.0</ele>
        <time>2013-05-11T12:43:08Z</time>
      </trkpt>
      <trkpt lat="40.491417" lon="-5.204683">
        <ele>1730.0</ele>
        <time>2013-05-11T12:43:09Z</time>
      </trkpt>
      <trkpt lat="40.491383" lon="-5.204750">
        <ele>1728.0</ele>
        <time>2013-05-11T12:43:10Z</time>
      </trkpt>
      <trkpt lat="40.491367" lon="-5.204817">
        <ele>1726.0</ele>
        <time>2013-05-11T12:43:11Z</time>
      </trkpt>
      <trkpt lat="40.491367" lon="-5.204900">
        <ele>1725.0</ele>
        <time>2013-05-11T12:43:12Z</time>
      </trkpt>
      <trkpt lat="40.491383" lon="-5.205000">
        <ele>1725.0</ele>
        <time>2013-05-11T12:43:13Z</time>
      </trkpt>
      <trkpt lat="40.491400" lon="-5.205083">
        <ele>1723.0</ele>
        <time>2013-05-11T12:43:14Z</time>
      </trkpt>
      <trkpt lat="40.491417" lon="-5.205167">
        <ele>1723.0</ele>
        <time>2013-05-11T12:43:15Z</time>
      </trkpt>
      <trkpt lat="40.491433" lon="-5.205233">
        <ele>1723.0</ele>
        <time>2013-05-11T12:43:16Z</time>
      </trkpt>
      <trkpt lat="40.491467" lon="-5.205300">
        <ele>1722.0</ele>
        <time>2013-05-11T12:43:17Z</time>
      </trkpt>
      <trkpt lat="40.491533" lon="-5.205350">
        <ele>1721.0</ele>
        <time>2013-05-11T12:43:18Z</time>
      </trkpt>
      <trkpt lat="40.491600" lon="-5.205383">
        <ele>1720.0</ele>
        <time>2013-05-11T12:43:19Z</time>
      </trkpt>
      <trkpt lat="40.491667" lon="-5.205417">
        <ele>1722.0</ele>
        <time>2013-05-11T12:43:20Z</time>
      </trkpt>
      <trkpt lat="40.491717" lon="-5.205450">
        <ele>1724.0</ele>
        <time>2013-05-11T12:43:21Z</time>
      </trkpt>
      <trkpt lat="40.491750" lon="-5.205467">
        <ele>1724.0</ele>
        <time>2013-05-11T12:43:22Z</time>
      </trkpt>
      <trkpt lat="40.491800" lon="-5.205483">
        <ele>1723.0</ele>
        <time>2013-05-11T12:43:23Z</time>
      </trkpt>
      <trkpt lat="40.491850" lon="-5.205500">
        <ele>1722.0</ele>
        <time>2013-05-11T12:43:24Z</time>
      </trkpt>
      <trkpt lat="40.491917" lon="-5.205533">
        <ele>1720.0</ele>
        <time>2013-05-11T12:43:25Z</time>
      </trkpt>
      <trkpt lat="40.492000" lon="-5.205550">
        <ele>1719.0</ele>
        <time>2013-05-11T12:43:26Z</time>
      </trkpt>
      <trkpt lat="40.492067" lon="-5.205583">
        <ele>1720.0</ele>
        <time>2013-05-11T12:43:27Z</time>
      </trkpt>
      <trkpt lat="40.492117" lon="-5.205600">
        <ele>1721.0</ele>
        <time>2013-05-11T12:43:28Z</time>
      </trkpt>
      <trkpt lat="40.492183" lon="-5.205617">
        <ele>1721.0</ele>
        <time>2013-05-11T12:43:29Z</time>
      </trkpt>
      <trkpt lat="40.492233" lon="-5.205617">
        <ele>1722.0</ele>
        <time>2013-05-11T12:43:30Z</time>
      </trkpt>
      <trkpt lat="40.492283" lon="-5.205600">
        <ele>1721.0</ele>
        <time>2013-05-11T12:43:31Z</time>
      </trkpt>
      <trkpt lat="40.492350" lon="-5.205583">
        <ele>1721.0</ele>
        <time>2013-05-11T12:43:32Z</time>
      </trkpt>
      <trkpt lat="40.492417" lon="-5.205567">
        <ele>1722.0</ele>
        <time>2013-05-11T12:43:33Z</time>
      </trkpt>
      <trkpt lat="40.492467" lon="-5.205533">
        <ele>1723.0</ele>
        <time>2013-05-11T12:43:34Z</time>
      </trkpt>
      <trkpt lat="40.492500" lon="-5.205500">
        <ele>1724.0</ele>
        <time>2013-05-11T12:43:35Z</time>
      </trkpt>
      <trkpt lat="40.492533" lon="-5.205467">
        <ele>1724.0</ele>
        <time>2013-05-11T12:43:36Z</time>
      </trkpt>
      <trkpt lat="40.492567" lon="-5.205417">
        <ele>1723.0</ele>
        <time>2013-05-11T12:43:37Z</time>
      </trkpt>
      <trkpt lat="40.492617" lon="-5.205367">
        <ele>1722.0</ele>
        <time>2013-05-11T12:43:38Z</time>
      </trkpt>
      <trkpt lat="40.492683" lon="-5.205300">
        <ele>1721.0</ele>
        <time>2013-05-11T12:43:39Z</time>
      </trkpt>
      <trkpt lat="40.492750" lon="-5.205233">
        <ele>1720.0</ele>
        <time>2013-05-11T12:43:40Z</time>
      </trkpt>
      <trkpt lat="40.492800" lon="-5.205150">
        <ele>1721.0</ele>
        <time>2013-05-11T12:43:41Z</time>
      </trkpt>
      <trkpt lat="40.492850" lon="-5.205067">
        <ele>1722.0</ele>
        <time>2013-05-11T12:43:42Z</time>
      </trkpt>
      <trkpt lat="40.492900" lon="-5.204983">
        <ele>1723.0</ele>
        <time>2013-05-11T12:43:43Z</time>
      </trkpt>
      <trkpt lat="40.492950" lon="-5.204900">
        <ele>1723.0</ele>
        <time>2013-05-11T12:43:44Z</time>
      </trkpt>
      <trkpt lat="40.493000" lon="-5.204833">
        <ele>1724.0</ele>
        <time>2013-05-11T12:43:45Z</time>
      </trkpt>
      <trkpt lat="40.493050" lon="-5.204750">
        <ele>1725.0</ele>
        <time>2013-05-11T12:43:46Z</time>
      </trkpt>
      <trkpt lat="40.493100" lon="-5.204667">
        <ele>1727.0</ele>
        <time>2013-05-11T12:43:47Z</time>
      </trkpt>
      <trkpt lat="40.493150" lon="-5.204583">
        <ele>1729.0</ele>
        <time>2013-05-11T12:43:48Z</time>
      </trkpt>
      <trkpt lat="40.493183" lon="-5.204500">
        <ele>1731.0</ele>
        <time>2013-05-11T12:43:49Z</time>
      </trkpt>
      <trkpt lat="40.493233" lon="-5.204433">
        <ele>1732.0</ele>
        <time>2013-05-11T12:43:50Z</time>
      </trkpt>
      <trkpt lat="40.493300" lon="-5.204400">
        <ele>1733.0</ele>
        <time>2013-05-11T12:43:51Z</time>
      </trkpt>
      <trkpt lat="40.493367" lon="-5.204367">
        <ele>1734.0</ele>
        <time>2013-05-11T12:43:52Z</time>
      </trkpt>
      <trkpt lat="40.493433" lon="-5.204367">
        <ele>1736.0</ele>
        <time>2013-05-11T12:43:53Z</time>
      </trkpt>
      <trkpt lat="40.493500" lon="-5.204383">
        <ele>1738.0</ele>
        <time>2013-05-11T12:43:54Z</time>
      </trkpt>
      <trkpt lat="40.493533" lon="-5.204400">
        <ele>1739.0</ele>
        <time>2013-05-11T12:43:55Z</time>
      </trkpt>
      <trkpt lat="40.493550" lon="-5.204450">
        <ele>1738.0</ele>
        <time>2013-05-11T12:43:56Z</time>
      </trkpt>
      <trkpt lat="40.493550" lon="-5.204517">
        <ele>1737.0</ele>
        <time>2013-05-11T12:43:57Z</time>
      </trkpt>
      <trkpt lat="40.493567" lon="-5.204583">
        <ele>1736.0</ele>
        <time>2013-05-11T12:43:58Z</time>
      </trkpt>
      <trkpt lat="40.493550" lon="-5.204683">
        <ele>1735.0</ele>
        <time>2013-05-11T12:43:59Z</time>
      </trkpt>
      <trkpt lat="40.493500" lon="-5.204750">
        <ele>1733.0</ele>
        <time>2013-05-11T12:44:00Z</time>
      </trkpt>
      <trkpt lat="40.493417" lon="-5.204800">
        <ele>1731.0</ele>
        <time>2013-05-11T12:44:01Z</time>
      </trkpt>
      <trkpt lat="40.493317" lon="-5.204817">
        <ele>1729.0</ele>
        <time>2013-05-11T12:44:02Z</time>
      </trkpt>
      <trkpt lat="40.493200" lon="-5.204767">
        <ele>1729.0</ele>
        <time>2013-05-11T12:44:03Z</time>
      </trkpt>
      <trkpt lat="40.493100" lon="-5.204683">
        <ele>1729.0</ele>
        <time>2013-05-11T12:44:04Z</time>
      </trkpt>
      <trkpt lat="40.493017" lon="-5.204567">
        <ele>1730.0</ele>
        <time>2013-05-11T12:44:05Z</time>
      </trkpt>
      <trkpt lat="40.492950" lon="-5.204450">
        <ele>1731.0</ele>
        <time>2013-05-11T12:44:06Z</time>
      </trkpt>
      <trkpt lat="40.492900" lon="-5.204317">
        <ele>1731.0</ele>
        <time>2013-05-11T12:44:07Z</time>
      </trkpt>
      <trkpt lat="40.492867" lon="-5.204183">
        <ele>1732.0</ele>
        <time>2013-05-11T12:44:08Z</time>
      </trkpt>
      <trkpt lat="40.492850" lon="-5.204050">
        <ele>1733.0</ele>
        <time>2013-05-11T12:44:09Z</time>
      </trkpt>
      <trkpt lat="40.492850" lon="-5.203917">
        <ele>1735.0</ele>
        <time>2013-05-11T12:44:10Z</time>
      </trkpt>
      <trkpt lat="40.492850" lon="-5.203800">
        <ele>1737.0</ele>
        <time>2013-05-11T12:44:11Z</time>
      </trkpt>
      <trkpt lat="40.492867" lon="-5.203700">
        <ele>1739.0</ele>
        <time>2013-05-11T12:44:12Z</time>
      </trkpt>
      <trkpt lat="40.492900" lon="-5.203600">
        <ele>1740.0</ele>
        <time>2013-05-11T12:44:13Z</time>
      </trkpt>
      <trkpt lat="40.492933" lon="-5.203517">
        <ele>1741.0</ele>
        <time>2013-05-11T12:44:14Z</time>
      </trkpt>
      <trkpt lat="40.492967" lon="-5.203433">
        <ele>1741.0</ele>
        <time>2013-05-11T12:44:15Z</time>
      </trkpt>
      <trkpt lat="40.493033" lon="-5.203350">
        <ele>1741.0</ele>
        <time>2013-05-11T12:44:16Z</time>
      </trkpt>
      <trkpt lat="40.493100" lon="-5.203283">
        <ele>1741.0</ele>
        <time>2013-05-11T12:44:17Z</time>
      </trkpt>
      <trkpt lat="40.493167" lon="-5.203217">
        <ele>1741.0</ele>
        <time>2013-05-11T12:44:18Z</time>
      </trkpt>
      <trkpt lat="40.493233" lon="-5.203167">
        <ele>1742.0</ele>
        <time>2013-05-11T12:44:19Z</time>
      </trkpt>
      <trkpt lat="40.493300" lon="-5.203133">
        <ele>1742.0</ele>
        <time>2013-05-11T12:44:20Z</time>
      </trkpt>
      <trkpt lat="40.493350" lon="-5.203083">
        <ele>1742.0</ele>
        <time>2013-05-11T12:44:21Z</time>
      </trkpt>
      <trkpt lat="40.493417" lon="-5.203050">
        <ele>1741.0</ele>
        <time>2013-05-11T12:44:22Z</time>
      </trkpt>
      <trkpt lat="40.493483" lon="-5.203017">
        <ele>1740.0</ele>
        <time>2013-05-11T12:44:23Z</time>
      </trkpt>
      <trkpt lat="40.493567" lon="-5.202983">
        <ele>1739.0</ele>
        <time>2013-05-11T12:44:24Z</time>
      </trkpt>
      <trkpt lat="40.493633" lon="-5.202967">
        <ele>1737.0</ele>
        <time>2013-05-11T12:44:25Z</time>
      </trkpt>
      <trkpt lat="40.493717" lon="-5.202950">
        <ele>1736.0</ele>
        <time>2013-05-11T12:44:26Z</time>
      </trkpt>
      <trkpt lat="40.493783" lon="-5.202967">
        <ele>1736.0</ele>
        <time>2013-05-11T12:44:27Z</time>
      </trkpt>
      <trkpt lat="40.493850" lon="-5.202967">
        <ele>1736.0</ele>
        <time>2013-05-11T12:44:28Z</time>
      </trkpt>
      <trkpt lat="40.493883" lon="-5.202983">
        <ele>1736.0</ele>
        <time>2013-05-11T12:44:29Z</time>
      </trkpt>
      <trkpt lat="40.493917" lon="-5.203017">
        <ele>1735.0</ele>
        <time>2013-05-11T12:44:30Z</time>
      </trkpt>
      <trkpt lat="40.493950" lon="-5.203067">
        <ele>1732.0</ele>
        <time>2013-05-11T12:44:31Z</time>
      </trkpt>
      <trkpt lat="40.493983" lon="-5.203150">
        <ele>1729.0</ele>
        <time>2013-05-11T12:44:32Z</time>
      </trkpt>
      <trkpt lat="40.494000" lon="-5.203233">
        <ele>1727.0</ele>
        <time>2013-05-11T12:44:33Z</time>
      </trkpt>
      <trkpt lat="40.494017" lon="-5.203317">
        <ele>1726.0</ele>
        <time>2013-05-11T12:44:34Z</time>
      </trkpt>
      <trkpt lat="40.494000" lon="-5.203400">
        <ele>1726.0</ele>
        <time>2013-05-11T12:44:35Z</time>
      </trkpt>
      <trkpt lat="40.493967" lon="-5.203483">
        <ele>1724.0</ele>
        <time>2013-05-11T12:44:36Z</time>
      </trkpt>
      <trkpt lat="40.493917" lon="-5.203567">
        <ele>1722.0</ele>
        <time>2013-05-11T12:44:37Z</time>
      </trkpt>
      <trkpt lat="40.493833" lon="-5.203633">
        <ele>1720.0</ele>
        <time>2013-05-11T12:44:38Z</time>
      </trkpt>
      <trkpt lat="40.493750" lon="-5.203700">
        <ele>1719.0</ele>
        <time>2013-05-11T12:44:39Z</time>
      </trkpt>
      <trkpt lat="40.493650" lon="-5.203717">
        <ele>1718.0</ele>
        <time>2013-05-11T12:44:40Z</time>
      </trkpt>
      <trkpt lat="40.493550" lon="-5.203700">
        <ele>1717.0</ele>
        <time>2013-05-11T12:44:41Z</time>
      </trkpt>
      <trkpt lat="40.493450" lon="-5.203650">
        <ele>1715.0</ele>
        <time>2013-05-11T12:44:42Z</time>
      </trkpt>
      <trkpt lat="40.493367" lon="-5.203567">
        <ele>1713.0</ele>
        <time>2013-05-11T12:44:43Z</time>
      </trkpt>
      <trkpt lat="40.493267" lon="-5.203450">
        <ele>1711.0</ele>
        <time>2013-05-11T12:44:44Z</time>
      </trkpt>
      <trkpt lat="40.493200" lon="-5.203333">
        <ele>1710.0</ele>
        <time>2013-05-11T12:44:45Z</time>
      </trkpt>
      <trkpt lat="40.493150" lon="-5.203217">
        <ele>1709.0</ele>
        <time>2013-05-11T12:44:46Z</time>
      </trkpt>
      <trkpt lat="40.493117" lon="-5.203083">
        <ele>1707.0</ele>
        <time>2013-05-11T12:44:47Z</time>
      </trkpt>
      <trkpt lat="40.493100" lon="-5.202950">
        <ele>1704.0</ele>
        <time>2013-05-11T12:44:48Z</time>
      </trkpt>
      <trkpt lat="40.493133" lon="-5.202800">
        <ele>1702.0</ele>
        <time>2013-05-11T12:44:49Z</time>
      </trkpt>
      <trkpt lat="40.493183" lon="-5.202683">
        <ele>1702.0</ele>
        <time>2013-05-11T12:44:50Z</time>
      </trkpt>
      <trkpt lat="40.493233" lon="-5.202583">
        <ele>1703.0</ele>
        <time>2013-05-11T12:44:51Z</time>
      </trkpt>
      <trkpt lat="40.493283" lon="-5.202517">
        <ele>1703.0</ele>
        <time>2013-05-11T12:44:52Z</time>
      </trkpt>
      <trkpt lat="40.493333" lon="-5.202483">
        <ele>1703.0</ele>
        <time>2013-05-11T12:44:53Z</time>
      </trkpt>
      <trkpt lat="40.493383" lon="-5.202433">
        <ele>1702.0</ele>
        <time>2013-05-11T12:44:54Z</time>
      </trkpt>
      <trkpt lat="40.493433" lon="-5.202400">
        <ele>1700.0</ele>
        <time>2013-05-11T12:44:55Z</time>
      </trkpt>
      <trkpt lat="40.493517" lon="-5.202367">
        <ele>1699.0</ele>
        <time>2013-05-11T12:44:56Z</time>
      </trkpt>
      <trkpt lat="40.493583" lon="-5.202333">
        <ele>1698.0</ele>
        <time>2013-05-11T12:44:57Z</time>
      </trkpt>
      <trkpt lat="40.493650" lon="-5.202317">
        <ele>1697.0</ele>
        <time>2013-05-11T12:44:58Z</time>
      </trkpt>
      <trkpt lat="40.493700" lon="-5.202300">
        <ele>1696.0</ele>
        <time>2013-05-11T12:44:59Z</time>
      </trkpt>
      <trkpt lat="40.493767" lon="-5.202267">
        <ele>1695.0</ele>
        <time>2013-05-11T12:45:00Z</time>
      </trkpt>
      <trkpt lat="40.493817" lon="-5.202233">
        <ele>1692.0</ele>
        <time>2013-05-11T12:45:01Z</time>
      </trkpt>
      <trkpt lat="40.493900" lon="-5.202183">
        <ele>1689.0</ele>
        <time>2013-05-11T12:45:02Z</time>
      </trkpt>
      <trkpt lat="40.493967" lon="-5.202150">
        <ele>1688.0</ele>
        <time>2013-05-11T12:45:03Z</time>
      </trkpt>
      <trkpt lat="40.494033" lon="-5.202117">
        <ele>1686.0</ele>
        <time>2013-05-11T12:45:04Z</time>
      </trkpt>
      <trkpt lat="40.494100" lon="-5.202083">
        <ele>1685.0</ele>
        <time>2013-05-11T12:45:05Z</time>
      </trkpt>
      <trkpt lat="40.494150" lon="-5.202033">
        <ele>1683.0</ele>
        <time>2013-05-11T12:45:06Z</time>
      </trkpt>
      <trkpt lat="40.494217" lon="-5.201967">
        <ele>1681.0</ele>
        <time>2013-05-11T12:45:07Z</time>
      </trkpt>
      <trkpt lat="40.494300" lon="-5.201917">
        <ele>1678.0</ele>
        <time>2013-05-11T12:45:08Z</time>
      </trkpt>
      <trkpt lat="40.494367" lon="-5.201850">
        <ele>1677.0</ele>
        <time>2013-05-11T12:45:09Z</time>
      </trkpt>
      <trkpt lat="40.494433" lon="-5.201783">
        <ele>1675.0</ele>
        <time>2013-05-11T12:45:10Z</time>
      </trkpt>
      <trkpt lat="40.494500" lon="-5.201733">
        <ele>1674.0</ele>
        <time>2013-05-11T12:45:11Z</time>
      </trkpt>
      <trkpt lat="40.494567" lon="-5.201667">
        <ele>1672.0</ele>
        <time>2013-05-11T12:45:12Z</time>
      </trkpt>
      <trkpt lat="40.494633" lon="-5.201617">
        <ele>1671.0</ele>
        <time>2013-05-11T12:45:13Z</time>
      </trkpt>
      <trkpt lat="40.494700" lon="-5.201567">
        <ele>1669.0</ele>
        <time>2013-05-11T12:45:14Z</time>
      </trkpt>
      <trkpt lat="40.494783" lon="-5.201517">
        <ele>1667.0</ele>
        <time>2013-05-11T12:45:15Z</time>
      </trkpt>
      <trkpt lat="40.494850" lon="-5.201467">
        <ele>1666.0</ele>
        <time>2013-05-11T12:45:16Z</time>
      </trkpt>
      <trkpt lat="40.494933" lon="-5.201433">
        <ele>1665.0</ele>
        <time>2013-05-11T12:45:17Z</time>
      </trkpt>
      <trkpt lat="40.495000" lon="-5.201383">
        <ele>1664.0</ele>
        <time>2013-05-11T12:45:18Z</time>
      </trkpt>
      <trkpt lat="40.495067" lon="-5.201317">
        <ele>1662.0</ele>
        <time>2013-05-11T12:45:19Z</time>
      </trkpt>
      <trkpt lat="40.495133" lon="-5.201250">
        <ele>1660.0</ele>
        <time>2013-05-11T12:45:20Z</time>
      </trkpt>
      <trkpt lat="40.495200" lon="-5.201200">
        <ele>1658.0</ele>
        <time>2013-05-11T12:45:21Z</time>
      </trkpt>
      <trkpt lat="40.495267" lon="-5.201150">
        <ele>1655.0</ele>
        <time>2013-05-11T12:45:22Z</time>
      </trkpt>
      <trkpt lat="40.495350" lon="-5.201100">
        <ele>1652.0</ele>
        <time>2013-05-11T12:45:23Z</time>
      </trkpt>
      <trkpt lat="40.495417" lon="-5.201050">
        <ele>1650.0</ele>
        <time>2013-05-11T12:45:24Z</time>
      </trkpt>
      <trkpt lat="40.495500" lon="-5.200983">
        <ele>1648.0</ele>
        <time>2013-05-11T12:45:25Z</time>
      </trkpt>
      <trkpt lat="40.495567" lon="-5.200917">
        <ele>1646.0</ele>
        <time>2013-05-11T12:45:26Z</time>
      </trkpt>
      <trkpt lat="40.495633" lon="-5.200850">
        <ele>1643.0</ele>
        <time>2013-05-11T12:45:27Z</time>
      </trkpt>
      <trkpt lat="40.495700" lon="-5.200800">
        <ele>1640.0</ele>
        <time>2013-05-11T12:45:28Z</time>
      </trkpt>
      <trkpt lat="40.495800" lon="-5.200750">
        <ele>1638.0</ele>
        <time>2013-05-11T12:45:29Z</time>
      </trkpt>
      <trkpt lat="40.495883" lon="-5.200667">
        <ele>1637.0</ele>
        <time>2013-05-11T12:45:30Z</time>
      </trkpt>
      <trkpt lat="40.495950" lon="-5.200583">
        <ele>1637.0</ele>
        <time>2013-05-11T12:45:31Z</time>
      </trkpt>
      <trkpt lat="40.496033" lon="-5.200500">
        <ele>1637.0</ele>
        <time>2013-05-11T12:45:32Z</time>
      </trkpt>
      <trkpt lat="40.496100" lon="-5.200433">
        <ele>1637.0</ele>
        <time>2013-05-11T12:45:33Z</time>
      </trkpt>
      <trkpt lat="40.496183" lon="-5.200367">
        <ele>1636.0</ele>
        <time>2013-05-11T12:45:34Z</time>
      </trkpt>
      <trkpt lat="40.496267" lon="-5.200300">
        <ele>1636.0</ele>
        <time>2013-05-11T12:45:35Z</time>
      </trkpt>
      <trkpt lat="40.496350" lon="-5.200233">
        <ele>1636.0</ele>
        <time>2013-05-11T12:45:36Z</time>
      </trkpt>
      <trkpt lat="40.496417" lon="-5.200167">
        <ele>1635.0</ele>
        <time>2013-05-11T12:45:37Z</time>
      </trkpt>
      <trkpt lat="40.496483" lon="-5.200100">
        <ele>1634.0</ele>
        <time>2013-05-11T12:45:38Z</time>
      </trkpt>
      <trkpt lat="40.496550" lon="-5.200033">
        <ele>1633.0</ele>
        <time>2013-05-11T12:45:39Z</time>
      </trkpt>
      <trkpt lat="40.496633" lon="-5.199983">
        <ele>1632.0</ele>
        <time>2013-05-11T12:45:40Z</time>
      </trkpt>
      <trkpt lat="40.496700" lon="-5.199933">
        <ele>1630.0</ele>
        <time>2013-05-11T12:45:41Z</time>
      </trkpt>
      <trkpt lat="40.496767" lon="-5.199883">
        <ele>1630.0</ele>
        <time>2013-05-11T12:45:42Z</time>
      </trkpt>
      <trkpt lat="40.496833" lon="-5.199817">
        <ele>1629.0</ele>
        <time>2013-05-11T12:45:43Z</time>
      </trkpt>
      <trkpt lat="40.496900" lon="-5.199767">
        <ele>1629.0</ele>
        <time>2013-05-11T12:45:44Z</time>
      </trkpt>
      <trkpt lat="40.496950" lon="-5.199717">
        <ele>1628.0</ele>
        <time>2013-05-11T12:45:45Z</time>
      </trkpt>
      <trkpt lat="40.497017" lon="-5.199667">
        <ele>1626.0</ele>
        <time>2013-05-11T12:45:46Z</time>
      </trkpt>
      <trkpt lat="40.497083" lon="-5.199633">
        <ele>1625.0</ele>
        <time>2013-05-11T12:45:47Z</time>
      </trkpt>
      <trkpt lat="40.497133" lon="-5.199600">
        <ele>1623.0</ele>
        <time>2013-05-11T12:45:48Z</time>
      </trkpt>
      <trkpt lat="40.497200" lon="-5.199583">
        <ele>1622.0</ele>
        <time>2013-05-11T12:45:49Z</time>
      </trkpt>
      <trkpt lat="40.497267" lon="-5.199567">
        <ele>1620.0</ele>
        <time>2013-05-11T12:45:50Z</time>
      </trkpt>
      <trkpt lat="40.497333" lon="-5.199550">
        <ele>1618.0</ele>
        <time>2013-05-11T12:45:51Z</time>
      </trkpt>
      <trkpt lat="40.497400" lon="-5.199533">
        <ele>1617.0</ele>
        <time>2013-05-11T12:45:52Z</time>
      </trkpt>
      <trkpt lat="40.497467" lon="-5.199483">
        <ele>1616.0</ele>
        <time>2013-05-11T12:45:53Z</time>
      </trkpt>
      <trkpt lat="40.497533" lon="-5.199450">
        <ele>1615.0</ele>
        <time>2013-05-11T12:45:54Z</time>
      </trkpt>
      <trkpt lat="40.497600" lon="-5.199417">
        <ele>1614.0</ele>
        <time>2013-05-11T12:45:55Z</time>
      </trkpt>
      <trkpt lat="40.497667" lon="-5.199383">
        <ele>1613.0</ele>
        <time>2013-05-11T12:45:56Z</time>
      </trkpt>
      <trkpt lat="40.497733" lon="-5.199350">
        <ele>1612.0</ele>
        <time>2013-05-11T12:45:57Z</time>
      </trkpt>
      <trkpt lat="40.497800" lon="-5.199300">
        <ele>1610.0</ele>
        <time>2013-05-11T12:45:58Z</time>
      </trkpt>
      <trkpt lat="40.497867" lon="-5.199267">
        <ele>1609.0</ele>
        <time>2013-05-11T12:45:59Z</time>
      </trkpt>
      <trkpt lat="40.497933" lon="-5.199233">
        <ele>1607.0</ele>
        <time>2013-05-11T12:46:00Z</time>
      </trkpt>
      <trkpt lat="40.498000" lon="-5.199217">
        <ele>1606.0</ele>
        <time>2013-05-11T12:46:01Z</time>
      </trkpt>
      <trkpt lat="40.498067" lon="-5.199183">
        <ele>1605.0</ele>
        <time>2013-05-11T12:46:02Z</time>
      </trkpt>
      <trkpt lat="40.498133" lon="-5.199133">
        <ele>1604.0</ele>
        <time>2013-05-11T12:46:03Z</time>
      </trkpt>
      <trkpt lat="40.498200" lon="-5.199083">
        <ele>1603.0</ele>
        <time>2013-05-11T12:46:04Z</time>
      </trkpt>
      <trkpt lat="40.498283" lon="-5.199017">
        <ele>1602.0</ele>
        <time>2013-05-11T12:46:05Z</time>
      </trkpt>
      <trkpt lat="40.498350" lon="-5.198967">
        <ele>1600.0</ele>
        <time>2013-05-11T12:46:06Z</time>
      </trkpt>
      <trkpt lat="40.498417" lon="-5.198917">
        <ele>1599.0</ele>
        <time>2013-05-11T12:46:07Z</time>
      </trkpt>
      <trkpt lat="40.498483" lon="-5.198883">
        <ele>1598.0</ele>
        <time>2013-05-11T12:46:08Z</time>
      </trkpt>
      <trkpt lat="40.498567" lon="-5.198883">
        <ele>1597.0</ele>
        <time>2013-05-11T12:46:09Z</time>
      </trkpt>
      <trkpt lat="40.498633" lon="-5.198900">
        <ele>1597.0</ele>
        <time>2013-05-11T12:46:10Z</time>
      </trkpt>
      <trkpt lat="40.498683" lon="-5.198933">
        <ele>1596.0</ele>
        <time>2013-05-11T12:46:11Z</time>
      </trkpt>
      <trkpt lat="40.498733" lon="-5.198967">
        <ele>1594.0</ele>
        <time>2013-05-11T12:46:12Z</time>
      </trkpt>
      <trkpt lat="40.498783" lon="-5.199017">
        <ele>1593.0</ele>
        <time>2013-05-11T12:46:13Z</time>
      </trkpt>
      <trkpt lat="40.498817" lon="-5.199083">
        <ele>1590.0</ele>
        <time>2013-05-11T12:46:14Z</time>
      </trkpt>
      <trkpt lat="40.498867" lon="-5.199167">
        <ele>1587.0</ele>
        <time>2013-05-11T12:46:15Z</time>
      </trkpt>
      <trkpt lat="40.498867" lon="-5.199267">
        <ele>1585.0</ele>
        <time>2013-05-11T12:46:16Z</time>
      </trkpt>
      <trkpt lat="40.498867" lon="-5.199383">
        <ele>1584.0</ele>
        <time>2013-05-11T12:46:17Z</time>
      </trkpt>
      <trkpt lat="40.498833" lon="-5.199483">
        <ele>1583.0</ele>
        <time>2013-05-11T12:46:18Z</time>
      </trkpt>
      <trkpt lat="40.498817" lon="-5.199583">
        <ele>1584.0</ele>
        <time>2013-05-11T12:46:19Z</time>
      </trkpt>
      <trkpt lat="40.498767" lon="-5.199667">
        <ele>1584.0</ele>
        <time>2013-05-11T12:46:20Z</time>
      </trkpt>
      <trkpt lat="40.498717" lon="-5.199717">
        <ele>1585.0</ele>
        <time>2013-05-11T12:46:21Z</time>
      </trkpt>
      <trkpt lat="40.498667" lon="-5.199783">
        <ele>1584.0</ele>
        <time>2013-05-11T12:46:22Z</time>
      </trkpt>
      <trkpt lat="40.498583" lon="-5.199833">
        <ele>1582.0</ele>
        <time>2013-05-11T12:46:23Z</time>
      </trkpt>
      <trkpt lat="40.498500" lon="-5.199867">
        <ele>1581.0</ele>
        <time>2013-05-11T12:46:24Z</time>
      </trkpt>
      <trkpt lat="40.498400" lon="-5.199867">
        <ele>1580.0</ele>
        <time>2013-05-11T12:46:25Z</time>
      </trkpt>
      <trkpt lat="40.498300" lon="-5.199817">
        <ele>1579.0</ele>
        <time>2013-05-11T12:46:26Z</time>
      </trkpt>
      <trkpt lat="40.498217" lon="-5.199700">
        <ele>1577.0</ele>
        <time>2013-05-11T12:46:27Z</time>
      </trkpt>
      <trkpt lat="40.498150" lon="-5.199567">
        <ele>1575.0</ele>
        <time>2013-05-11T12:46:28Z</time>
      </trkpt>
      <trkpt lat="40.498117" lon="-5.199400">
        <ele>1574.0</ele>
        <time>2013-05-11T12:46:29Z</time>
      </trkpt>
      <trkpt lat="40.498117" lon="-5.199250">
        <ele>1573.0</ele>
        <time>2013-05-11T12:46:30Z</time>
      </trkpt>
      <trkpt lat="40.498133" lon="-5.199117">
        <ele>1572.0</ele>
        <time>2013-05-11T12:46:31Z</time>
      </trkpt>
      <trkpt lat="40.498183" lon="-5.199017">
        <ele>1572.0</ele>
        <time>2013-05-11T12:46:32Z</time>
      </trkpt>
      <trkpt lat="40.498250" lon="-5.198933">
        <ele>1572.0</ele>
        <time>2013-05-11T12:46:33Z</time>
      </trkpt>
      <trkpt lat="40.498317" lon="-5.198850">
        <ele>1573.0</ele>
        <time>2013-05-11T12:46:34Z</time>
      </trkpt>
      <trkpt lat="40.498383" lon="-5.198800">
        <ele>1574.0</ele>
        <time>2013-05-11T12:46:35Z</time>
      </trkpt>
      <trkpt lat="40.498433" lon="-5.198750">
        <ele>1573.0</ele>
        <time>2013-05-11T12:46:36Z</time>
      </trkpt>
      <trkpt lat="40.498483" lon="-5.198717">
        <ele>1570.0</ele>
        <time>2013-05-11T12:46:37Z</time>
      </trkpt>
      <trkpt lat="40.498550" lon="-5.198683">
        <ele>1567.0</ele>
        <time>2013-05-11T12:46:38Z</time>
      </trkpt>
      <trkpt lat="40.498633" lon="-5.198667">
        <ele>1563.0</ele>
        <time>2013-05-11T12:46:39Z</time>
      </trkpt>
      <trkpt lat="40.498717" lon="-5.198683">
        <ele>1561.0</ele>
        <time>2013-05-11T12:46:40Z</time>
      </trkpt>
      <trkpt lat="40.498783" lon="-5.198717">
        <ele>1560.0</ele>
        <time>2013-05-11T12:46:41Z</time>
      </trkpt>
      <trkpt lat="40.498833" lon="-5.198783">
        <ele>1560.0</ele>
        <time>2013-05-11T12:46:42Z</time>
      </trkpt>
      <trkpt lat="40.498883" lon="-5.198850">
        <ele>1560.0</ele>
        <time>2013-05-11T12:46:43Z</time>
      </trkpt>
      <trkpt lat="40.498933" lon="-5.198900">
        <ele>1560.0</ele>
        <time>2013-05-11T12:46:44Z</time>
      </trkpt>
      <trkpt lat="40.498983" lon="-5.198967">
        <ele>1560.0</ele>
        <time>2013-05-11T12:46:45Z</time>
      </trkpt>
      <trkpt lat="40.499033" lon="-5.199033">
        <ele>1560.0</ele>
        <time>2013-05-11T12:46:46Z</time>
      </trkpt>
      <trkpt lat="40.499050" lon="-5.199117">
        <ele>1560.0</ele>
        <time>2013-05-11T12:46:47Z</time>
      </trkpt>
      <trkpt lat="40.499067" lon="-5.199217">
        <ele>1559.0</ele>
        <time>2013-05-11T12:46:48Z</time>
      </trkpt>
      <trkpt lat="40.499067" lon="-5.199333">
        <ele>1558.0</ele>
        <time>2013-05-11T12:46:49Z</time>
      </trkpt>
      <trkpt lat="40.499067" lon="-5.199433">
        <ele>1558.0</ele>
        <time>2013-05-11T12:46:50Z</time>
      </trkpt>
      <trkpt lat="40.499083" lon="-5.199533">
        <ele>1557.0</ele>
        <time>2013-05-11T12:46:51Z</time>
      </trkpt>
      <trkpt lat="40.499083" lon="-5.199617">
        <ele>1557.0</ele>
        <time>2013-05-11T12:46:52Z</time>
      </trkpt>
      <trkpt lat="40.499100" lon="-5.199717">
        <ele>1556.0</ele>
        <time>2013-05-11T12:46:53Z</time>
      </trkpt>
      <trkpt lat="40.499117" lon="-5.199800">
        <ele>1556.0</ele>
        <time>2013-05-11T12:46:54Z</time>
      </trkpt>
      <trkpt lat="40.499133" lon="-5.199883">
        <ele>1555.0</ele>
        <time>2013-05-11T12:46:55Z</time>
      </trkpt>
      <trkpt lat="40.499150" lon="-5.199950">
        <ele>1554.0</ele>
        <time>2013-05-11T12:46:56Z</time>
      </trkpt>
      <trkpt lat="40.499200" lon="-5.200000">
        <ele>1552.0</ele>
        <time>2013-05-11T12:46:57Z</time>
      </trkpt>
      <trkpt lat="40.499267" lon="-5.200050">
        <ele>1550.0</ele>
        <time>2013-05-11T12:46:58Z</time>
      </trkpt>
      <trkpt lat="40.499317" lon="-5.200100">
        <ele>1550.0</ele>
        <time>2013-05-11T12:46:59Z</time>
      </trkpt>
      <trkpt lat="40.499383" lon="-5.200150">
        <ele>1551.0</ele>
        <time>2013-05-11T12:47:00Z</time>
      </trkpt>
      <trkpt lat="40.499417" lon="-5.200183">
        <ele>1551.0</ele>
        <time>2013-05-11T12:47:01Z</time>
      </trkpt>
      <trkpt lat="40.499467" lon="-5.200217">
        <ele>1550.0</ele>
        <time>2013-05-11T12:47:02Z</time>
      </trkpt>
      <trkpt lat="40.499517" lon="-5.200233">
        <ele>1548.0</ele>
        <time>2013-05-11T12:47:03Z</time>
      </trkpt>
      <trkpt lat="40.499600" lon="-5.200250">
        <ele>1546.0</ele>
        <time>2013-05-11T12:47:04Z</time>
      </trkpt>
      <trkpt lat="40.499683" lon="-5.200267">
        <ele>1544.0</ele>
        <time>2013-05-11T12:47:05Z</time>
      </trkpt>
      <trkpt lat="40.499750" lon="-5.200283">
        <ele>1544.0</ele>
        <time>2013-05-11T12:47:06Z</time>
      </trkpt>
      <trkpt lat="40.499833" lon="-5.200300">
        <ele>1544.0</ele>
        <time>2013-05-11T12:47:07Z</time>
      </trkpt>
      <trkpt lat="40.499917" lon="-5.200283">
        <ele>1544.0</ele>
        <time>2013-05-11T12:47:08Z</time>
      </trkpt>
      <trkpt lat="40.499983" lon="-5.200283">
        <ele>1544.0</ele>
        <time>2013-05-11T12:47:09Z</time>
      </trkpt>
      <trkpt lat="40.500050" lon="-5.200267">
        <ele>1543.0</ele>
        <time>2013-05-11T12:47:10Z</time>
      </trkpt>
      <trkpt lat="40.500117" lon="-5.200267">
        <ele>1541.0</ele>
        <time>2013-05-11T12:47:11Z</time>
      </trkpt>
      <trkpt lat="40.500200" lon="-5.200267">
        <ele>1539.0</ele>
        <time>2013-05-11T12:47:12Z</time>
      </trkpt>
      <trkpt lat="40.500283" lon="-5.200250">
        <ele>1535.0</ele>
        <time>2013-05-11T12:47:13Z</time>
      </trkpt>
      <trkpt lat="40.500367" lon="-5.200250">
        <ele>1531.0</ele>
        <time>2013-05-11T12:47:14Z</time>
      </trkpt>
      <trkpt lat="40.500467" lon="-5.200233">
        <ele>1529.0</ele>
        <time>2013-05-11T12:47:15Z</time>
      </trkpt>
      <trkpt lat="40.500567" lon="-5.200233">
        <ele>1528.0</ele>
        <time>2013-05-11T12:47:16Z</time>
      </trkpt>
      <trkpt lat="40.500667" lon="-5.200200">
        <ele>1528.0</ele>
        <time>2013-05-11T12:47:17Z</time>
      </trkpt>
      <trkpt lat="40.500767" lon="-5.200167">
        <ele>1530.0</ele>
        <time>2013-05-11T12:47:18Z</time>
      </trkpt>
      <trkpt lat="40.500833" lon="-5.200150">
        <ele>1532.0</ele>
        <time>2013-05-11T12:47:19Z</time>
      </trkpt>
      <trkpt lat="40.500917" lon="-5.200117">
        <ele>1533.0</ele>
        <time>2013-05-11T12:47:20Z</time>
      </trkpt>
      <trkpt lat="40.500983" lon="-5.200100">
        <ele>1533.0</ele>
        <time>2013-05-11T12:47:21Z</time>
      </trkpt>
      <trkpt lat="40.501067" lon="-5.200050">
        <ele>1532.0</ele>
        <time>2013-05-11T12:47:22Z</time>
      </trkpt>
      <trkpt lat="40.501150" lon="-5.199983">
        <ele>1532.0</ele>
        <time>2013-05-11T12:47:23Z</time>
      </trkpt>
      <trkpt lat="40.501233" lon="-5.199900">
        <ele>1533.0</ele>
        <time>2013-05-11T12:47:24Z</time>
      </trkpt>
      <trkpt lat="40.501317" lon="-5.199800">
        <ele>1534.0</ele>
        <time>2013-05-11T12:47:25Z</time>
      </trkpt>
      <trkpt lat="40.501400" lon="-5.199717">
        <ele>1535.0</ele>
        <time>2013-05-11T12:47:26Z</time>
      </trkpt>
      <trkpt lat="40.501467" lon="-5.199617">
        <ele>1536.0</ele>
        <time>2013-05-11T12:47:27Z</time>
      </trkpt>
      <trkpt lat="40.501550" lon="-5.199533">
        <ele>1538.0</ele>
        <time>2013-05-11T12:47:28Z</time>
      </trkpt>
      <trkpt lat="40.501617" lon="-5.199433">
        <ele>1539.0</ele>
        <time>2013-05-11T12:47:29Z</time>
      </trkpt>
      <trkpt lat="40.501700" lon="-5.199350">
        <ele>1541.0</ele>
        <time>2013-05-11T12:47:30Z</time>
      </trkpt>
      <trkpt lat="40.501767" lon="-5.199250">
        <ele>1543.0</ele>
        <time>2013-05-11T12:47:31Z</time>
      </trkpt>
      <trkpt lat="40.501833" lon="-5.199167">
        <ele>1545.0</ele>
        <time>2013-05-11T12:47:32Z</time>
      </trkpt>
      <trkpt lat="40.501917" lon="-5.199100">
        <ele>1547.0</ele>
        <time>2013-05-11T12:47:33Z</time>
      </trkpt>
      <trkpt lat="40.501983" lon="-5.199050">
        <ele>1549.0</ele>
        <time>2013-05-11T12:47:34Z</time>
      </trkpt>
      <trkpt lat="40.502067" lon="-5.199017">
        <ele>1550.0</ele>
        <time>2013-05-11T12:47:35Z</time>
      </trkpt>
      <trkpt lat="40.502133" lon="-5.199050">
        <ele>1551.0</ele>
        <time>2013-05-11T12:47:36Z</time>
      </trkpt>
      <trkpt lat="40.502183" lon="-5.199100">
        <ele>1552.0</ele>
        <time>2013-05-11T12:47:37Z</time>
      </trkpt>
      <trkpt lat="40.502183" lon="-5.199167">
        <ele>1553.0</ele>
        <time>2013-05-11T12:47:38Z</time>
      </trkpt>
      <trkpt lat="40.502167" lon="-5.199233">
        <ele>1554.0</ele>
        <time>2013-05-11T12:47:39Z</time>
      </trkpt>
      <trkpt lat="40.502150" lon="-5.199267">
        <ele>1554.0</ele>
        <time>2013-05-11T12:47:40Z</time>
      </trkpt>
      <trkpt lat="40.502117" lon="-5.199283">
        <ele>1553.0</ele>
        <time>2013-05-11T12:47:41Z</time>
      </trkpt>
      <trkpt lat="40.502067" lon="-5.199317">
        <ele>1552.0</ele>
        <time>2013-05-11T12:47:42Z</time>
      </trkpt>
      <trkpt lat="40.502000" lon="-5.199333">
        <ele>1550.0</ele>
        <time>2013-05-11T12:47:43Z</time>
      </trkpt>
      <trkpt lat="40.501900" lon="-5.199317">
        <ele>1547.0</ele>
        <time>2013-05-11T12:47:44Z</time>
      </trkpt>
      <trkpt lat="40.501817" lon="-5.199250">
        <ele>1547.0</ele>
        <time>2013-05-11T12:47:45Z</time>
      </trkpt>
      <trkpt lat="40.501733" lon="-5.199133">
        <ele>1546.0</ele>
        <time>2013-05-11T12:47:46Z</time>
      </trkpt>
      <trkpt lat="40.501683" lon="-5.199000">
        <ele>1548.0</ele>
        <time>2013-05-11T12:47:47Z</time>
      </trkpt>
      <trkpt lat="40.501633" lon="-5.198867">
        <ele>1550.0</ele>
        <time>2013-05-11T12:47:48Z</time>
      </trkpt>
      <trkpt lat="40.501617" lon="-5.198733">
        <ele>1553.0</ele>
        <time>2013-05-11T12:47:49Z</time>
      </trkpt>
      <trkpt lat="40.501600" lon="-5.198617">
        <ele>1555.0</ele>
        <time>2013-05-11T12:47:50Z</time>
      </trkpt>
      <trkpt lat="40.501600" lon="-5.198483">
        <ele>1556.0</ele>
        <time>2013-05-11T12:47:51Z</time>
      </trkpt>
      <trkpt lat="40.501600" lon="-5.198333">
        <ele>1557.0</ele>
        <time>2013-05-11T12:47:52Z</time>
      </trkpt>
      <trkpt lat="40.501617" lon="-5.198167">
        <ele>1557.0</ele>
        <time>2013-05-11T12:47:53Z</time>
      </trkpt>
      <trkpt lat="40.501667" lon="-5.198033">
        <ele>1559.0</ele>
        <time>2013-05-11T12:47:54Z</time>
      </trkpt>
      <trkpt lat="40.501717" lon="-5.197917">
        <ele>1560.0</ele>
        <time>2013-05-11T12:47:55Z</time>
      </trkpt>
      <trkpt lat="40.501767" lon="-5.197833">
        <ele>1561.0</ele>
        <time>2013-05-11T12:47:56Z</time>
      </trkpt>
      <trkpt lat="40.501817" lon="-5.197750">
        <ele>1562.0</ele>
        <time>2013-05-11T12:47:57Z</time>
      </trkpt>
      <trkpt lat="40.501883" lon="-5.197683">
        <ele>1561.0</ele>
        <time>2013-05-11T12:47:58Z</time>
      </trkpt>
      <trkpt lat="40.501967" lon="-5.197650">
        <ele>1560.0</ele>
        <time>2013-05-11T12:47:59Z</time>
      </trkpt>
      <trkpt lat="40.502033" lon="-5.197667">
        <ele>1558.0</ele>
        <time>2013-05-11T12:48:00Z</time>
      </trkpt>
      <trkpt lat="40.502117" lon="-5.197700">
        <ele>1558.0</ele>
        <time>2013-05-11T12:48:01Z</time>
      </trkpt>
      <trkpt lat="40.502167" lon="-5.197767">
        <ele>1559.0</ele>
        <time>2013-05-11T12:48:02Z</time>
      </trkpt>
      <trkpt lat="40.502200" lon="-5.197850">
        <ele>1561.0</ele>
        <time>2013-05-11T12:48:03Z</time>
      </trkpt>
      <trkpt lat="40.502217" lon="-5.197917">
        <ele>1564.0</ele>
        <time>2013-05-11T12:48:04Z</time>
      </trkpt>
      <trkpt lat="40.502200" lon="-5.197967">
        <ele>1568.0</ele>
        <time>2013-05-11T12:48:05Z</time>
      </trkpt>
      <trkpt lat="40.502183" lon="-5.198017">
        <ele>1570.0</ele>
        <time>2013-05-11T12:48:06Z</time>
      </trkpt>
      <trkpt lat="40.502167" lon="-5.198033">
        <ele>1570.0</ele>
        <time>2013-05-11T12:48:07Z</time>
      </trkpt>
      <trkpt lat="40.502133" lon="-5.198067">
        <ele>1570.0</ele>
        <time>2013-05-11T12:48:08Z</time>
      </trkpt>
      <trkpt lat="40.502100" lon="-5.198117">
        <ele>1570.0</ele>
        <time>2013-05-11T12:48:09Z</time>
      </trkpt>
      <trkpt lat="40.502050" lon="-5.198167">
        <ele>1569.0</ele>
        <time>2013-05-11T12:48:10Z</time>
      </trkpt>
      <trkpt lat="40.502000" lon="-5.198217">
        <ele>1570.0</ele>
        <time>2013-05-11T12:48:11Z</time>
      </trkpt>
      <trkpt lat="40.501933" lon="-5.198233">
        <ele>1570.0</ele>
        <time>2013-05-11T12:48:12Z</time>
      </trkpt>
      <trkpt lat="40.501867" lon="-5.198217">
        <ele>1570.0</ele>
        <time>2013-05-11T12:48:13Z</time>
      </trkpt>
      <trkpt lat="40.501783" lon="-5.198167">
        <ele>1569.0</ele>
        <time>2013-05-11T12:48:14Z</time>
      </trkpt>
      <trkpt lat="40.501700" lon="-5.198100">
        <ele>1569.0</ele>
        <time>2013-05-11T12:48:15Z</time>
      </trkpt>
      <trkpt lat="40.501633" lon="-5.198000">
        <ele>1568.0</ele>
        <time>2013-05-11T12:48:16Z</time>
      </trkpt>
      <trkpt lat="40.501583" lon="-5.197867">
        <ele>1568.0</ele>
        <time>2013-05-11T12:48:17Z</time>
      </trkpt>
      <trkpt lat="40.501533" lon="-5.197717">
        <ele>1569.0</ele>
        <time>2013-05-11T12:48:18Z</time>
      </trkpt>
      <trkpt lat="40.501517" lon="-5.197550">
        <ele>1571.0</ele>
        <time>2013-05-11T12:48:19Z</time>
      </trkpt>
      <trkpt lat="40.501517" lon="-5.197400">
        <ele>1574.0</ele>
        <time>2013-05-11T12:48:20Z</time>
      </trkpt>
      <trkpt lat="40.501550" lon="-5.197283">
        <ele>1578.0</ele>
        <time>2013-05-11T12:48:21Z</time>
      </trkpt>
      <trkpt lat="40.501567" lon="-5.197183">
        <ele>1580.0</ele>
        <time>2013-05-11T12:48:22Z</time>
      </trkpt>
      <trkpt lat="40.501600" lon="-5.197083">
        <ele>1581.0</ele>
        <time>2013-05-11T12:48:23Z</time>
      </trkpt>
      <trkpt lat="40.501633" lon="-5.196967">
        <ele>1580.0</ele>
        <time>2013-05-11T12:48:24Z</time>
      </trkpt>
      <trkpt lat="40.501683" lon="-5.196850">
        <ele>1580.0</ele>
        <time>2013-05-11T12:48:25Z</time>
      </trkpt>
      <trkpt lat="40.501767" lon="-5.196767">
        <ele>1579.0</ele>
        <time>2013-05-11T12:48:26Z</time>
      </trkpt>
      <trkpt lat="40.501850" lon="-5.196717">
        <ele>1578.0</ele>
        <time>2013-05-11T12:48:27Z</time>
      </trkpt>
      <trkpt lat="40.501950" lon="-5.196717">
        <ele>1578.0</ele>
        <time>2013-05-11T12:48:28Z</time>
      </trkpt>
      <trkpt lat="40.502033" lon="-5.196750">
        <ele>1579.0</ele>
        <time>2013-05-11T12:48:29Z</time>
      </trkpt>
      <trkpt lat="40.502083" lon="-5.196783">
        <ele>1580.0</ele>
        <time>2013-05-11T12:48:30Z</time>
      </trkpt>
      <trkpt lat="40.502150" lon="-5.196817">
        <ele>1582.0</ele>
        <time>2013-05-11T12:48:31Z</time>
      </trkpt>
      <trkpt lat="40.502200" lon="-5.196867">
        <ele>1583.0</ele>
        <time>2013-05-11T12:48:32Z</time>
      </trkpt>
      <trkpt lat="40.502233" lon="-5.196900">
        <ele>1584.0</ele>
        <time>2013-05-11T12:48:33Z</time>
      </trkpt>
      <trkpt lat="40.502250" lon="-5.196950">
        <ele>1585.0</ele>
        <time>2013-05-11T12:48:34Z</time>
      </trkpt>
      <trkpt lat="40.502267" lon="-5.197000">
        <ele>1586.0</ele>
        <time>2013-05-11T12:48:35Z</time>
      </trkpt>
      <trkpt lat="40.502267" lon="-5.197050">
        <ele>1586.0</ele>
        <time>2013-05-11T12:48:36Z</time>
      </trkpt>
      <trkpt lat="40.502250" lon="-5.197100">
        <ele>1586.0</ele>
        <time>2013-05-11T12:48:37Z</time>
      </trkpt>
      <trkpt lat="40.502233" lon="-5.197167">
        <ele>1585.0</ele>
        <time>2013-05-11T12:48:38Z</time>
      </trkpt>
      <trkpt lat="40.502183" lon="-5.197217">
        <ele>1584.0</ele>
        <time>2013-05-11T12:48:39Z</time>
      </trkpt>
      <trkpt lat="40.502117" lon="-5.197250">
        <ele>1583.0</ele>
        <time>2013-05-11T12:48:40Z</time>
      </trkpt>
      <trkpt lat="40.502033" lon="-5.197250">
        <ele>1583.0</ele>
        <time>2013-05-11T12:48:41Z</time>
      </trkpt>
      <trkpt lat="40.501950" lon="-5.197233">
        <ele>1583.0</ele>
        <time>2013-05-11T12:48:42Z</time>
      </trkpt>
      <trkpt lat="40.501867" lon="-5.197183">
        <ele>1583.0</ele>
        <time>2013-05-11T12:48:43Z</time>
      </trkpt>
      <trkpt lat="40.501800" lon="-5.197150">
        <ele>1582.0</ele>
        <time>2013-05-11T12:48:44Z</time>
      </trkpt>
      <trkpt lat="40.501700" lon="-5.197067">
        <ele>1580.0</ele>
        <time>2013-05-11T12:48:45Z</time>
      </trkpt>
      <trkpt lat="40.501617" lon="-5.196967">
        <ele>1579.0</ele>
        <time>2013-05-11T12:48:46Z</time>
      </trkpt>
      <trkpt lat="40.501550" lon="-5.196817">
        <ele>1578.0</ele>
        <time>2013-05-11T12:48:47Z</time>
      </trkpt>
      <trkpt lat="40.501517" lon="-5.196650">
        <ele>1578.0</ele>
        <time>2013-05-11T12:48:48Z</time>
      </trkpt>
      <trkpt lat="40.501500" lon="-5.196500">
        <ele>1579.0</ele>
        <time>2013-05-11T12:48:49Z</time>
      </trkpt>
      <trkpt lat="40.501483" lon="-5.196350">
        <ele>1579.0</ele>
        <time>2013-05-11T12:48:50Z</time>
      </trkpt>
      <trkpt lat="40.501500" lon="-5.196200">
        <ele>1579.0</ele>
        <time>2013-05-11T12:48:51Z</time>
      </trkpt>
      <trkpt lat="40.501517" lon="-5.196050">
        <ele>1578.0</ele>
        <time>2013-05-11T12:48:52Z</time>
      </trkpt>
      <trkpt lat="40.501583" lon="-5.195900">
        <ele>1577.0</ele>
        <time>2013-05-11T12:48:53Z</time>
      </trkpt>
      <trkpt lat="40.501650" lon="-5.195767">
        <ele>1577.0</ele>
        <time>2013-05-11T12:48:54Z</time>
      </trkpt>
      <trkpt lat="40.501733" lon="-5.195667">
        <ele>1579.0</ele>
        <time>2013-05-11T12:48:55Z</time>
      </trkpt>
      <trkpt lat="40.501800" lon="-5.195583">
        <ele>1580.0</ele>
        <time>2013-05-11T12:48:56Z</time>
      </trkpt>
      <trkpt lat="40.501850" lon="-5.195517">
        <ele>1581.0</ele>
        <time>2013-05-11T12:48:57Z</time>
      </trkpt>
      <trkpt lat="40.501917" lon="-5.195450">
        <ele>1580.0</ele>
        <time>2013-05-11T12:48:58Z</time>
      </trkpt>
      <trkpt lat="40.502000" lon="-5.195417">
        <ele>1578.0</ele>
        <time>2013-05-11T12:48:59Z</time>
      </trkpt>
      <trkpt lat="40.502100" lon="-5.195400">
        <ele>1577.0</ele>
        <time>2013-05-11T12:49:00Z</time>
      </trkpt>
      <trkpt lat="40.502200" lon="-5.195383">
        <ele>1577.0</ele>
        <time>2013-05-11T12:49:01Z</time>
      </trkpt>
      <trkpt lat="40.502300" lon="-5.195350">
        <ele>1577.0</ele>
        <time>2013-05-11T12:49:02Z</time>
      </trkpt>
      <trkpt lat="40.502367" lon="-5.195267">
        <ele>1578.0</ele>
        <time>2013-05-11T12:49:03Z</time>
      </trkpt>
      <trkpt lat="40.502433" lon="-5.195167">
        <ele>1577.0</ele>
        <time>2013-05-11T12:49:04Z</time>
      </trkpt>
      <trkpt lat="40.502483" lon="-5.195067">
        <ele>1577.0</ele>
        <time>2013-05-11T12:49:05Z</time>
      </trkpt>
      <trkpt lat="40.502550" lon="-5.194967">
        <ele>1576.0</ele>
        <time>2013-05-11T12:49:06Z</time>
      </trkpt>
      <trkpt lat="40.502633" lon="-5.194900">
        <ele>1575.0</ele>
        <time>2013-05-11T12:49:07Z</time>
      </trkpt>
      <trkpt lat="40.502717" lon="-5.194850">
        <ele>1573.0</ele>
        <time>2013-05-11T12:49:08Z</time>
      </trkpt>
      <trkpt lat="40.502800" lon="-5.194850">
        <ele>1571.0</ele>
        <time>2013-05-11T12:49:09Z</time>
      </trkpt>
      <trkpt lat="40.502900" lon="-5.194883">
        <ele>1569.0</ele>
        <time>2013-05-11T12:49:10Z</time>
      </trkpt>
      <trkpt lat="40.502983" lon="-5.194917">
        <ele>1569.0</ele>
        <time>2013-05-11T12:49:11Z</time>
      </trkpt>
      <trkpt lat="40.503067" lon="-5.194967">
        <ele>1569.0</ele>
        <time>2013-05-11T12:49:12Z</time>
      </trkpt>
      <trkpt lat="40.503133" lon="-5.195017">
        <ele>1571.0</ele>
        <time>2013-05-11T12:49:13Z</time>
      </trkpt>
      <trkpt lat="40.503200" lon="-5.195067">
        <ele>1572.0</ele>
        <time>2013-05-11T12:49:14Z</time>
      </trkpt>
      <trkpt lat="40.503267" lon="-5.195117">
        <ele>1574.0</ele>
        <time>2013-05-11T12:49:15Z</time>
      </trkpt>
      <trkpt lat="40.503333" lon="-5.195167">
        <ele>1574.0</ele>
        <time>2013-05-11T12:49:16Z</time>
      </trkpt>
      <trkpt lat="40.503383" lon="-5.195233">
        <ele>1575.0</ele>
        <time>2013-05-11T12:49:17Z</time>
      </trkpt>
      <trkpt lat="40.503450" lon="-5.195300">
        <ele>1575.0</ele>
        <time>2013-05-11T12:49:18Z</time>
      </trkpt>
      <trkpt lat="40.503500" lon="-5.195400">
        <ele>1576.0</ele>
        <time>2013-05-11T12:49:19Z</time>
      </trkpt>
      <trkpt lat="40.503533" lon="-5.195483">
        <ele>1578.0</ele>
        <time>2013-05-11T12:49:20Z</time>
      </trkpt>
      <trkpt lat="40.503550" lon="-5.195567">
        <ele>1580.0</ele>
        <time>2013-05-11T12:49:21Z</time>
      </trkpt>
      <trkpt lat="40.503583" lon="-5.195667">
        <ele>1582.0</ele>
        <time>2013-05-11T12:49:22Z</time>
      </trkpt>
      <trkpt lat="40.503600" lon="-5.195767">
        <ele>1584.0</ele>
        <time>2013-05-11T12:49:23Z</time>
      </trkpt>
      <trkpt lat="40.503617" lon="-5.195867">
        <ele>1586.0</ele>
        <time>2013-05-11T12:49:24Z</time>
      </trkpt>
      <trkpt lat="40.503617" lon="-5.195967">
        <ele>1588.0</ele>
        <time>2013-05-11T12:49:25Z</time>
      </trkpt>
      <trkpt lat="40.503617" lon="-5.196050">
        <ele>1590.0</ele>
        <time>2013-05-11T12:49:26Z</time>
      </trkpt>
      <trkpt lat="40.503617" lon="-5.196150">
        <ele>1593.0</ele>
        <time>2013-05-11T12:49:27Z</time>
      </trkpt>
      <trkpt lat="40.503600" lon="-5.196233">
        <ele>1596.0</ele>
        <time>2013-05-11T12:49:28Z</time>
      </trkpt>
      <trkpt lat="40.503567" lon="-5.196317">
        <ele>1598.0</ele>
        <time>2013-05-11T12:49:29Z</time>
      </trkpt>
      <trkpt lat="40.503517" lon="-5.196383">
        <ele>1600.0</ele>
        <time>2013-05-11T12:49:30Z</time>
      </trkpt>
      <trkpt lat="40.503467" lon="-5.196433">
        <ele>1602.0</ele>
        <time>2013-05-11T12:49:31Z</time>
      </trkpt>
      <trkpt lat="40.503400" lon="-5.196467">
        <ele>1604.0</ele>
        <time>2013-05-11T12:49:32Z</time>
      </trkpt>
      <trkpt lat="40.503333" lon="-5.196483">
        <ele>1605.0</ele>
        <time>2013-05-11T12:49:33Z</time>
      </trkpt>
      <trkpt lat="40.503267" lon="-5.196483">
        <ele>1605.0</ele>
        <time>2013-05-11T12:49:34Z</time>
      </trkpt>
      <trkpt lat="40.503167" lon="-5.196467">
        <ele>1605.0</ele>
        <time>2013-05-11T12:49:35Z</time>
      </trkpt>
      <trkpt lat="40.503083" lon="-5.196400">
        <ele>1606.0</ele>
        <time>2013-05-11T12:49:36Z</time>
      </trkpt>
      <trkpt lat="40.503017" lon="-5.196283">
        <ele>1608.0</ele>
        <time>2013-05-11T12:49:37Z</time>
      </trkpt>
      <trkpt lat="40.502950" lon="-5.196167">
        <ele>1611.0</ele>
        <time>2013-05-11T12:49:38Z</time>
      </trkpt>
      <trkpt lat="40.502917" lon="-5.196050">
        <ele>1615.0</ele>
        <time>2013-05-11T12:49:39Z</time>
      </trkpt>
      <trkpt lat="40.502900" lon="-5.195950">
        <ele>1618.0</ele>
        <time>2013-05-11T12:49:40Z</time>
      </trkpt>
      <trkpt lat="40.502883" lon="-5.195850">
        <ele>1621.0</ele>
        <time>2013-05-11T12:49:41Z</time>
      </trkpt>
      <trkpt lat="40.502900" lon="-5.195733">
        <ele>1622.0</ele>
        <time>2013-05-11T12:49:42Z</time>
      </trkpt>
      <trkpt lat="40.502917" lon="-5.195600">
        <ele>1623.0</ele>
        <time>2013-05-11T12:49:43Z</time>
      </trkpt>
      <trkpt lat="40.502967" lon="-5.195483">
        <ele>1624.0</ele>
        <time>2013-05-11T12:49:44Z</time>
      </trkpt>
      <trkpt lat="40.503033" lon="-5.195383">
        <ele>1625.0</ele>
        <time>2013-05-11T12:49:45Z</time>
      </trkpt>
      <trkpt lat="40.503100" lon="-5.195300">
        <ele>1627.0</ele>
        <time>2013-05-11T12:49:46Z</time>
      </trkpt>
      <trkpt lat="40.503183" lon="-5.195233">
        <ele>1628.0</ele>
        <time>2013-05-11T12:49:47Z</time>
      </trkpt>
      <trkpt lat="40.503250" lon="-5.195183">
        <ele>1630.0</ele>
        <time>2013-05-11T12:49:48Z</time>
      </trkpt>
      <trkpt lat="40.503333" lon="-5.195133">
        <ele>1631.0</ele>
        <time>2013-05-11T12:49:49Z</time>
      </trkpt>
      <trkpt lat="40.503417" lon="-5.195100">
        <ele>1632.0</ele>
        <time>2013-05-11T12:49:50Z</time>
      </trkpt>
      <trkpt lat="40.503500" lon="-5.195100">
        <ele>1633.0</ele>
        <time>2013-05-11T12:49:51Z</time>
      </trkpt>
      <trkpt lat="40.503583" lon="-5.195117">
        <ele>1635.0</ele>
        <time>2013-05-11T12:49:52Z</time>
      </trkpt>
      <trkpt lat="40.503667" lon="-5.195133">
        <ele>1637.0</ele>
        <time>2013-05-11T12:49:53Z</time>
      </trkpt>
      <trkpt lat="40.503733" lon="-5.195150">
        <ele>1640.0</ele>
        <time>2013-05-11T12:49:54Z</time>
      </trkpt>
      <trkpt lat="40.503800" lon="-5.195150">
        <ele>1643.0</ele>
        <time>2013-05-11T12:49:55Z</time>
      </trkpt>
      <trkpt lat="40.503883" lon="-5.195133">
        <ele>1645.0</ele>
        <time>2013-05-11T12:49:56Z</time>
      </trkpt>
      <trkpt lat="40.503950" lon="-5.195100">
        <ele>1647.0</ele>
        <time>2013-05-11T12:49:57Z</time>
      </trkpt>
      <trkpt lat="40.504017" lon="-5.195067">
        <ele>1648.0</ele>
        <time>2013-05-11T12:49:58Z</time>
      </trkpt>
      <trkpt lat="40.504083" lon="-5.195033">
        <ele>1651.0</ele>
        <time>2013-05-11T12:49:59Z</time>
      </trkpt>
      <trkpt lat="40.504167" lon="-5.195033">
        <ele>1654.0</ele>
        <time>2013-05-11T12:50:00Z</time>
      </trkpt>
      <trkpt lat="40.504233" lon="-5.195083">
        <ele>1657.0</ele>
        <time>2013-05-11T12:50:01Z</time>
      </trkpt>
      <trkpt lat="40.504300" lon="-5.195150">
        <ele>1660.0</ele>
        <time>2013-05-11T12:50:02Z</time>
      </trkpt>
      <trkpt lat="40.504333" lon="-5.195217">
        <ele>1664.0</ele>
        <time>2013-05-11T12:50:03Z</time>
      </trkpt>
      <trkpt lat="40.504367" lon="-5.195283">
        <ele>1667.0</ele>
        <time>2013-05-11T12:50:04Z</time>
      </trkpt>
      <trkpt lat="40.504383" lon="-5.195383">
        <ele>1669.0</ele>
        <time>2013-05-11T12:50:05Z</time>
      </trkpt>
      <trkpt lat="40.504383" lon="-5.195483">
        <ele>1670.0</ele>
        <time>2013-05-11T12:50:06Z</time>
      </trkpt>
      <trkpt lat="40.504367" lon="-5.195600">
        <ele>1672.0</ele>
        <time>2013-05-11T12:50:07Z</time>
      </trkpt>
      <trkpt lat="40.504333" lon="-5.195717">
        <ele>1673.0</ele>
        <time>2013-05-11T12:50:08Z</time>
      </trkpt>
      <trkpt lat="40.504267" lon="-5.195800">
        <ele>1676.0</ele>
        <time>2013-05-11T12:50:09Z</time>
      </trkpt>
      <trkpt lat="40.504183" lon="-5.195850">
        <ele>1678.0</ele>
        <time>2013-05-11T12:50:10Z</time>
      </trkpt>
      <trkpt lat="40.504100" lon="-5.195867">
        <ele>1681.0</ele>
        <time>2013-05-11T12:50:11Z</time>
      </trkpt>
      <trkpt lat="40.504033" lon="-5.195867">
        <ele>1684.0</ele>
        <time>2013-05-11T12:50:12Z</time>
      </trkpt>
      <trkpt lat="40.503967" lon="-5.195833">
        <ele>1685.0</ele>
        <time>2013-05-11T12:50:13Z</time>
      </trkpt>
      <trkpt lat="40.503900" lon="-5.195783">
        <ele>1686.0</ele>
        <time>2013-05-11T12:50:14Z</time>
      </trkpt>
      <trkpt lat="40.503817" lon="-5.195717">
        <ele>1686.0</ele>
        <time>2013-05-11T12:50:15Z</time>
      </trkpt>
      <trkpt lat="40.503750" lon="-5.195617">
        <ele>1688.0</ele>
        <time>2013-05-11T12:50:16Z</time>
      </trkpt>
      <trkpt lat="40.503717" lon="-5.195500">
        <ele>1689.0</ele>
        <time>2013-05-11T12:50:17Z</time>
      </trkpt>
      <trkpt lat="40.503683" lon="-5.195367">
        <ele>1691.0</ele>
        <time>2013-05-11T12:50:18Z</time>
      </trkpt>
      <trkpt lat="40.503667" lon="-5.195250">
        <ele>1693.0</ele>
        <time>2013-05-11T12:50:19Z</time>
      </trkpt>
      <trkpt lat="40.503667" lon="-5.195117">
        <ele>1694.0</ele>
        <time>2013-05-11T12:50:20Z</time>
      </trkpt>
      <trkpt lat="40.503683" lon="-5.194983">
        <ele>1696.0</ele>
        <time>2013-05-11T12:50:21Z</time>
      </trkpt>
      <trkpt lat="40.503717" lon="-5.194850">
        <ele>1698.0</ele>
        <time>2013-05-11T12:50:22Z</time>
      </trkpt>
      <trkpt lat="40.503750" lon="-5.194717">
        <ele>1700.0</ele>
        <time>2013-05-11T12:50:23Z</time>
      </trkpt>
      <trkpt lat="40.503783" lon="-5.194617">
        <ele>1703.0</ele>
        <time>2013-05-11T12:50:24Z</time>
      </trkpt>
      <trkpt lat="40.503833" lon="-5.194500">
        <ele>1706.0</ele>
        <time>2013-05-11T12:50:25Z</time>
      </trkpt>
      <trkpt lat="40.503900" lon="-5.194400">
        <ele>1708.0</ele>
        <time>2013-05-11T12:50:26Z</time>
      </trkpt>
      <trkpt lat="40.503967" lon="-5.194300">
        <ele>1710.0</ele>
        <time>2013-05-11T12:50:27Z</time>
      </trkpt>
      <trkpt lat="40.504050" lon="-5.194200">
        <ele>1712.0</ele>
        <time>2013-05-11T12:50:28Z</time>
      </trkpt>
      <trkpt lat="40.504117" lon="-5.194133">
        <ele>1715.0</ele>
        <time>2013-05-11T12:50:29Z</time>
      </trkpt>
      <trkpt lat="40.504200" lon="-5.194067">
        <ele>1719.0</ele>
        <time>2013-05-11T12:50:30Z</time>
      </trkpt>
      <trkpt lat="40.504267" lon="-5.194033">
        <ele>1721.0</ele>
        <time>2013-05-11T12:50:31Z</time>
      </trkpt>
      <trkpt lat="40.504350" lon="-5.194017">
        <ele>1723.0</ele>
        <time>2013-05-11T12:50:32Z</time>
      </trkpt>
      <trkpt lat="40.504433" lon="-5.194000">
        <ele>1724.0</ele>
        <time>2013-05-11T12:50:33Z</time>
      </trkpt>
      <trkpt lat="40.504517" lon="-5.194000">
        <ele>1724.0</ele>
        <time>2013-05-11T12:50:34Z</time>
      </trkpt>
      <trkpt lat="40.504617" lon="-5.194000">
        <ele>1724.0</ele>
        <time>2013-05-11T12:50:35Z</time>
      </trkpt>
      <trkpt lat="40.504700" lon="-5.194033">
        <ele>1726.0</ele>
        <time>2013-05-11T12:50:36Z</time>
      </trkpt>
      <trkpt lat="40.504767" lon="-5.194083">
        <ele>1728.0</ele>
        <time>2013-05-11T12:50:37Z</time>
      </trkpt>
      <trkpt lat="40.504833" lon="-5.194150">
        <ele>1730.0</ele>
        <time>2013-05-11T12:50:38Z</time>
      </trkpt>
      <trkpt lat="40.504883" lon="-5.194200">
        <ele>1733.0</ele>
        <time>2013-05-11T12:50:39Z</time>
      </trkpt>
      <trkpt lat="40.504917" lon="-5.194250">
        <ele>1736.0</ele>
        <time>2013-05-11T12:50:40Z</time>
      </trkpt>
      <trkpt lat="40.504950" lon="-5.194317">
        <ele>1738.0</ele>
        <time>2013-05-11T12:50:41Z</time>
      </trkpt>
      <trkpt lat="40.504967" lon="-5.194383">
        <ele>1738.0</ele>
        <time>2013-05-11T12:50:42Z</time>
      </trkpt>
      <trkpt lat="40.504967" lon="-5.194467">
        <ele>1738.0</ele>
        <time>2013-05-11T12:50:43Z</time>
      </trkpt>
      <trkpt lat="40.504983" lon="-5.194567">
        <ele>1739.0</ele>
        <time>2013-05-11T12:50:44Z</time>
      </trkpt>
      <trkpt lat="40.504967" lon="-5.194683">
        <ele>1740.0</ele>
        <time>2013-05-11T12:50:45Z</time>
      </trkpt>
      <trkpt lat="40.504933" lon="-5.194767">
        <ele>1742.0</ele>
        <time>2013-05-11T12:50:46Z</time>
      </trkpt>
      <trkpt lat="40.504883" lon="-5.194850">
        <ele>1743.0</ele>
        <time>2013-05-11T12:50:47Z</time>
      </trkpt>
      <trkpt lat="40.504833" lon="-5.194917">
        <ele>1744.0</ele>
        <time>2013-05-11T12:50:48Z</time>
      </trkpt>
      <trkpt lat="40.504767" lon="-5.194967">
        <ele>1746.0</ele>
        <time>2013-05-11T12:50:49Z</time>
      </trkpt>
      <trkpt lat="40.504717" lon="-5.195017">
        <ele>1748.0</ele>
        <time>2013-05-11T12:50:50Z</time>
      </trkpt>
      <trkpt lat="40.504650" lon="-5.195067">
        <ele>1749.0</ele>
        <time>2013-05-11T12:50:51Z</time>
      </trkpt>
      <trkpt lat="40.504567" lon="-5.195083">
        <ele>1751.0</ele>
        <time>2013-05-11T12:50:52Z</time>
      </trkpt>
      <trkpt lat="40.504467" lon="-5.195100">
        <ele>1753.0</ele>
        <time>2013-05-11T12:50:53Z</time>
      </trkpt>
      <trkpt lat="40.504383" lon="-5.195117">
        <ele>1757.0</ele>
        <time>2013-05-11T12:50:54Z</time>
      </trkpt>
      <trkpt lat="40.504317" lon="-5.195100">
        <ele>1761.0</ele>
        <time>2013-05-11T12:50:55Z</time>
      </trkpt>
      <trkpt lat="40.504250" lon="-5.195083">
        <ele>1764.0</ele>
        <time>2013-05-11T12:50:56Z</time>
      </trkpt>
      <trkpt lat="40.504183" lon="-5.195033">
        <ele>1767.0</ele>
        <time>2013-05-11T12:50:57Z</time>
      </trkpt>
      <trkpt lat="40.504133" lon="-5.194967">
        <ele>1768.0</ele>
        <time>2013-05-11T12:50:58Z</time>
      </trkpt>
      <trkpt lat="40.504083" lon="-5.194883">
        <ele>1770.0</ele>
        <time>2013-05-11T12:50:59Z</time>
      </trkpt>
      <trkpt lat="40.504033" lon="-5.194783">
        <ele>1772.0</ele>
        <time>2013-05-11T12:51:00Z</time>
      </trkpt>
      <trkpt lat="40.503983" lon="-5.194700">
        <ele>1774.0</ele>
        <time>2013-05-11T12:51:01Z</time>
      </trkpt>
      <trkpt lat="40.503950" lon="-5.194600">
        <ele>1777.0</ele>
        <time>2013-05-11T12:51:02Z</time>
      </trkpt>
      <trkpt lat="40.503950" lon="-5.194483">
        <ele>1778.0</ele>
        <time>2013-05-11T12:51:03Z</time>
      </trkpt>
      <trkpt lat="40.503950" lon="-5.194367">
        <ele>1780.0</ele>
        <time>2013-05-11T12:51:04Z</time>
      </trkpt>
      <trkpt lat="40.503967" lon="-5.194250">
        <ele>1781.0</ele>
        <time>2013-05-11T12:51:05Z</time>
      </trkpt>
      <trkpt lat="40.504017" lon="-5.194133">
        <ele>1784.0</ele>
        <time>2013-05-11T12:51:06Z</time>
      </trkpt>
      <trkpt lat="40.504067" lon="-5.194033">
        <ele>1787.0</ele>
        <time>2013-05-11T12:51:07Z</time>
      </trkpt>
      <trkpt lat="40.504117" lon="-5.193950">
        <ele>1790.0</ele>
        <time>2013-05-11T12:51:08Z</time>
      </trkpt>
      <trkpt lat="40.504167" lon="-5.193883">
        <ele>1793.0</ele>
        <time>2013-05-11T12:51:09Z</time>
      </trkpt>
      <trkpt lat="40.504250" lon="-5.193817">
        <ele>1794.0</ele>
        <time>2013-05-11T12:51:10Z</time>
      </trkpt>
      <trkpt lat="40.504333" lon="-5.193783">
        <ele>1796.0</ele>
        <time>2013-05-11T12:51:11Z</time>
      </trkpt>
      <trkpt lat="40.504417" lon="-5.193767">
        <ele>1798.0</ele>
        <time>2013-05-11T12:51:12Z</time>
      </trkpt>
      <trkpt lat="40.504483" lon="-5.193783">
        <ele>1801.0</ele>
        <time>2013-05-11T12:51:13Z</time>
      </trkpt>
      <trkpt lat="40.504533" lon="-5.193817">
        <ele>1802.0</ele>
        <time>2013-05-11T12:51:14Z</time>
      </trkpt>
      <trkpt lat="40.504583" lon="-5.193867">
        <ele>1803.0</ele>
        <time>2013-05-11T12:51:15Z</time>
      </trkpt>
      <trkpt lat="40.504633" lon="-5.193917">
        <ele>1804.0</ele>
        <time>2013-05-11T12:51:16Z</time>
      </trkpt>
      <trkpt lat="40.504700" lon="-5.193967">
        <ele>1804.0</ele>
        <time>2013-05-11T12:51:17Z</time>
      </trkpt>
      <trkpt lat="40.504750" lon="-5.194050">
        <ele>1805.0</ele>
        <time>2013-05-11T12:51:18Z</time>
      </trkpt>
      <trkpt lat="40.504783" lon="-5.194133">
        <ele>1805.0</ele>
        <time>2013-05-11T12:51:19Z</time>
      </trkpt>
      <trkpt lat="40.504800" lon="-5.194233">
        <ele>1807.0</ele>
        <time>2013-05-11T12:51:20Z</time>
      </trkpt>
      <trkpt lat="40.504800" lon="-5.194333">
        <ele>1808.0</ele>
        <time>2013-05-11T12:51:21Z</time>
      </trkpt>
      <trkpt lat="40.504800" lon="-5.194417">
        <ele>1808.0</ele>
        <time>2013-05-11T12:51:22Z</time>
      </trkpt>
      <trkpt lat="40.504783" lon="-5.194517">
        <ele>1809.0</ele>
        <time>2013-05-11T12:51:23Z</time>
      </trkpt>
      <trkpt lat="40.504767" lon="-5.194617">
        <ele>1809.0</ele>
        <time>2013-05-11T12:51:24Z</time>
      </trkpt>
      <trkpt lat="40.504717" lon="-5.194717">
        <ele>1809.0</ele>
        <time>2013-05-11T12:51:25Z</time>
      </trkpt>
      <trkpt lat="40.504650" lon="-5.194817">
        <ele>1810.0</ele>
        <time>2013-05-11T12:51:26Z</time>
      </trkpt>
      <trkpt lat="40.504583" lon="-5.194900">
        <ele>1813.0</ele>
        <time>2013-05-11T12:51:27Z</time>
      </trkpt>
      <trkpt lat="40.504533" lon="-5.194950">
        <ele>1817.0</ele>
        <time>2013-05-11T12:51:28Z</time>
      </trkpt>
      <trkpt lat="40.504467" lon="-5.194983">
        <ele>1821.0</ele>
        <time>2013-05-11T12:51:29Z</time>
      </trkpt>
      <trkpt lat="40.504400" lon="-5.194983">
        <ele>1823.0</ele>
        <time>2013-05-11T12:51:30Z</time>
      </trkpt>
      <trkpt lat="40.504317" lon="-5.194983">
        <ele>1824.0</ele>
        <time>2013-05-11T12:51:31Z</time>
      </trkpt>
      <trkpt lat="40.504217" lon="-5.194967">
        <ele>1825.0</ele>
        <time>2013-05-11T12:51:32Z</time>
      </trkpt>
      <trkpt lat="40.504117" lon="-5.194917">
        <ele>1829.0</ele>
        <time>2013-05-11T12:51:33Z</time>
      </trkpt>
      <trkpt lat="40.504033" lon="-5.194833">
        <ele>1833.0</ele>
        <time>2013-05-11T12:51:34Z</time>
      </trkpt>
      <trkpt lat="40.503967" lon="-5.194750">
        <ele>1837.0</ele>
        <time>2013-05-11T12:51:35Z</time>
      </trkpt>
      <trkpt lat="40.503900" lon="-5.194667">
        <ele>1840.0</ele>
        <time>2013-05-11T12:51:36Z</time>
      </trkpt>
      <trkpt lat="40.503850" lon="-5.194550">
        <ele>1843.0</ele>
        <time>2013-05-11T12:51:37Z</time>
      </trkpt>
      <trkpt lat="40.503800" lon="-5.194433">
        <ele>1845.0</ele>
        <time>2013-05-11T12:51:38Z</time>
      </trkpt>
      <trkpt lat="40.503783" lon="-5.194300">
        <ele>1847.0</ele>
        <time>2013-05-11T12:51:39Z</time>
      </trkpt>
      <trkpt lat="40.503767" lon="-5.194150">
        <ele>1850.0</ele>
        <time>2013-05-11T12:51:40Z</time>
      </trkpt>
      <trkpt lat="40.503783" lon="-5.194000">
        <ele>1852.0</ele>
        <time>2013-05-11T12:51:41Z</time>
      </trkpt>
      <trkpt lat="40.503833" lon="-5.193883">
        <ele>1855.0</ele>
        <time>2013-05-11T12:51:42Z</time>
      </trkpt>
      <trkpt lat="40.503883" lon="-5.193767">
        <ele>1858.0</ele>
        <time>2013-05-11T12:51:43Z</time>
      </trkpt>
      <trkpt lat="40.503950" lon="-5.193700">
        <ele>1861.0</ele>
        <time>2013-05-11T12:51:44Z</time>
      </trkpt>
      <trkpt lat="40.504017" lon="-5.193633">
        <ele>1862.0</ele>
        <time>2013-05-11T12:51:45Z</time>
      </trkpt>
      <trkpt lat="40.504100" lon="-5.193583">
        <ele>1863.0</ele>
        <time>2013-05-11T12:51:46Z</time>
      </trkpt>
      <trkpt lat="40.504183" lon="-5.193567">
        <ele>1864.0</ele>
        <time>2013-05-11T12:51:47Z</time>
      </trkpt>
      <trkpt lat="40.504283" lon="-5.193567">
        <ele>1866.0</ele>
        <time>2013-05-11T12:51:48Z</time>
      </trkpt>
      <trkpt lat="40.504350" lon="-5.193567">
        <ele>1868.0</ele>
        <time>2013-05-11T12:51:49Z</time>
      </trkpt>
      <trkpt lat="40.504417" lon="-5.193600">
        <ele>1870.0</ele>
        <time>2013-05-11T12:51:50Z</time>
      </trkpt>
      <trkpt lat="40.504467" lon="-5.193650">
        <ele>1870.0</ele>
        <time>2013-05-11T12:51:51Z</time>
      </trkpt>
      <trkpt lat="40.504533" lon="-5.193700">
        <ele>1870.0</ele>
        <time>2013-05-11T12:51:52Z</time>
      </trkpt>
      <trkpt lat="40.504583" lon="-5.193783">
        <ele>1870.0</ele>
        <time>2013-05-11T12:51:53Z</time>
      </trkpt>
      <trkpt lat="40.504617" lon="-5.193883">
        <ele>1870.0</ele>
        <time>2013-05-11T12:51:54Z</time>
      </trkpt>
      <trkpt lat="40.504650" lon="-5.193967">
        <ele>1871.0</ele>
        <time>2013-05-11T12:51:55Z</time>
      </trkpt>
      <trkpt lat="40.504683" lon="-5.194067">
        <ele>1872.0</ele>
        <time>2013-05-11T12:51:56Z</time>
      </trkpt>
      <trkpt lat="40.504683" lon="-5.194167">
        <ele>1873.0</ele>
        <time>2013-05-11T12:51:57Z</time>
      </trkpt>
      <trkpt lat="40.504700" lon="-5.194267">
        <ele>1873.0</ele>
        <time>2013-05-11T12:51:58Z</time>
      </trkpt>
      <trkpt lat="40.504683" lon="-5.194367">
        <ele>1874.0</ele>
        <time>2013-05-11T12:51:59Z</time>
      </trkpt>
      <trkpt lat="40.504650" lon="-5.194483">
        <ele>1875.0</ele>
        <time>2013-05-11T12:52:00Z</time>
      </trkpt>
      <trkpt lat="40.504617" lon="-5.194567">
        <ele>1876.0</ele>
        <time>2013-05-11T12:52:01Z</time>
      </trkpt>
      <trkpt lat="40.504567" lon="-5.194650">
        <ele>1877.0</ele>
        <time>2013-05-11T12:52:02Z</time>
      </trkpt>
      <trkpt lat="40.504517" lon="-5.194717">
        <ele>1879.0</ele>
        <time>2013-05-11T12:52:03Z</time>
      </trkpt>
      <trkpt lat="40.504467" lon="-5.194783">
        <ele>1880.0</ele>
        <time>2013-05-11T12:52:04Z</time>
      </trkpt>
      <trkpt lat="40.504400" lon="-5.194850">
        <ele>1880.0</ele>
        <time>2013-05-11T12:52:05Z</time>
      </trkpt>
      <trkpt lat="40.504317" lon="-5.194900">
        <ele>1880.0</ele>
        <time>2013-05-11T12:52:06Z</time>
      </trkpt>
      <trkpt lat="40.504217" lon="-5.194950">
        <ele>1880.0</ele>
        <time>2013-05-11T12:52:07Z</time>
      </trkpt>
      <trkpt lat="40.504117" lon="-5.194950">
        <ele>1882.0</ele>
        <time>2013-05-11T12:52:08Z</time>
      </trkpt>
      <trkpt lat="40.504017" lon="-5.194950">
        <ele>1883.0</ele>
        <time>2013-05-11T12:52:09Z</time>
      </trkpt>
      <trkpt lat="40.503933" lon="-5.194933">
        <ele>1885.0</ele>
        <time>2013-05-11T12:52:10Z</time>
      </trkpt>
      <trkpt lat="40.503850" lon="-5.194883">
        <ele>1885.0</ele>
        <time>2013-05-11T12:52:11Z</time>
      </trkpt>
      <trkpt lat="40.503750" lon="-5.194833">
        <ele>1885.0</ele>
        <time>2013-05-11T12:52:12Z</time>
      </trkpt>
      <trkpt lat="40.503650" lon="-5.194783">
        <ele>1887.0</ele>
        <time>2013-05-11T12:52:13Z</time>
      </trkpt>
      <trkpt lat="40.503550" lon="-5.194733">
        <ele>1889.0</ele>
        <time>2013-05-11T12:52:14Z</time>
      </trkpt>
      <trkpt lat="40.503467" lon="-5.194633">
        <ele>1892.0</ele>
        <time>2013-05-11T12:52:15Z</time>
      </trkpt>
      <trkpt lat="40.503417" lon="-5.194517">
        <ele>1893.0</ele>
        <time>2013-05-11T12:52:16Z</time>
      </trkpt>
      <trkpt lat="40.503367" lon="-5.194367">
        <ele>1895.0</ele>
        <time>2013-05-11T12:52:17Z</time>
      </trkpt>
      <trkpt lat="40.503333" lon="-5.194233">
        <ele>1898.0</ele>
        <time>2013-05-11T12:52:18Z</time>
      </trkpt>
      <trkpt lat="40.503300" lon="-5.194100">
        <ele>1901.0</ele>
        <time>2013-05-11T12:52:19Z</time>
      </trkpt>
      <trkpt lat="40.503283" lon="-5.193983">
        <ele>1904.0</ele>
        <time>2013-05-11T12:52:20Z</time>
      </trkpt>
      <trkpt lat="40.503300" lon="-5.193850">
        <ele>1905.0</ele>
        <time>2013-05-11T12:52:21Z</time>
      </trkpt>
      <trkpt lat="40.503317" lon="-5.193717">
        <ele>1905.0</ele>
        <time>2013-05-11T12:52:22Z</time>
      </trkpt>
      <trkpt lat="40.503350" lon="-5.193567">
        <ele>1906.0</ele>
        <time>2013-05-11T12:52:23Z</time>
      </trkpt>
      <trkpt lat="40.503400" lon="-5.193433">
        <ele>1907.0</ele>
        <time>2013-05-11T12:52:24Z</time>
      </trkpt>
      <trkpt lat="40.503467" lon="-5.193317">
        <ele>1910.0</ele>
        <time>2013-05-11T12:52:25Z</time>
      </trkpt>
      <trkpt lat="40.503533" lon="-5.193233">
        <ele>1914.0</ele>
        <time>2013-05-11T12:52:26Z</time>
      </trkpt>
      <trkpt lat="40.503600" lon="-5.193183">
        <ele>1917.0</ele>
        <time>2013-05-11T12:52:27Z</time>
      </trkpt>
      <trkpt lat="40.503650" lon="-5.193167">
        <ele>1919.0</ele>
        <time>2013-05-11T12:52:28Z</time>
      </trkpt>
      <trkpt lat="40.503717" lon="-5.193150">
        <ele>1921.0</ele>
        <time>2013-05-11T12:52:29Z</time>
      </trkpt>
      <trkpt lat="40.503767" lon="-5.193150">
        <ele>1921.0</ele>
        <time>2013-05-11T12:52:30Z</time>
      </trkpt>
      <trkpt lat="40.503850" lon="-5.193183">
        <ele>1921.0</ele>
        <time>2013-05-11T12:52:31Z</time>
      </trkpt>
      <trkpt lat="40.503917" lon="-5.193250">
        <ele>1921.0</ele>
        <time>2013-05-11T12:52:32Z</time>
      </trkpt>
      <trkpt lat="40.503950" lon="-5.193350">
        <ele>1923.0</ele>
        <time>2013-05-11T12:52:33Z</time>
      </trkpt>
      <trkpt lat="40.503983" lon="-5.193433">
        <ele>1924.0</ele>
        <time>2013-05-11T12:52:34Z</time>
      </trkpt>
      <trkpt lat="40.504000" lon="-5.193517">
        <ele>1925.0</ele>
        <time>2013-05-11T12:52:35Z</time>
      </trkpt>
      <trkpt lat="40.504017" lon="-5.193600">
        <ele>1926.0</ele>
        <time>2013-05-11T12:52:36Z</time>
      </trkpt>
      <trkpt lat="40.504017" lon="-5.193683">
        <ele>1926.0</ele>
        <time>2013-05-11T12:52:37Z</time>
      </trkpt>
      <trkpt lat="40.504017" lon="-5.193800">
        <ele>1925.0</ele>
        <time>2013-05-11T12:52:38Z</time>
      </trkpt>
      <trkpt lat="40.503967" lon="-5.193933">
        <ele>1926.0</ele>
        <time>2013-05-11T12:52:39Z</time>
      </trkpt>
      <trkpt lat="40.503917" lon="-5.194033">
        <ele>1928.0</ele>
        <time>2013-05-11T12:52:40Z</time>
      </trkpt>
      <trkpt lat="40.503850" lon="-5.194117">
        <ele>1931.0</ele>
        <time>2013-05-11T12:52:41Z</time>
      </trkpt>
      <trkpt lat="40.503783" lon="-5.194167">
        <ele>1934.0</ele>
        <time>2013-05-11T12:52:42Z</time>
      </trkpt>
      <trkpt lat="40.503717" lon="-5.194200">
        <ele>1934.0</ele>
        <time>2013-05-11T12:52:43Z</time>
      </trkpt>
      <trkpt lat="40.503633" lon="-5.194233">
        <ele>1934.0</ele>
        <time>2013-05-11T12:52:44Z</time>
      </trkpt>
      <trkpt lat="40.503533" lon="-5.194250">
        <ele>1933.0</ele>
        <time>2013-05-11T12:52:45Z</time>
      </trkpt>
      <trkpt lat="40.503417" lon="-5.194250">
        <ele>1932.0</ele>
        <time>2013-05-11T12:52:46Z</time>
      </trkpt>
      <trkpt lat="40.503300" lon="-5.194217">
        <ele>1933.0</ele>
        <time>2013-05-11T12:52:47Z</time>
      </trkpt>
      <trkpt lat="40.503200" lon="-5.194150">
        <ele>1935.0</ele>
        <time>2013-05-11T12:52:48Z</time>
      </trkpt>
      <trkpt lat="40.503117" lon="-5.194067">
        <ele>1937.0</ele>
        <time>2013-05-11T12:52:49Z</time>
      </trkpt>
      <trkpt lat="40.503050" lon="-5.193967">
        <ele>1940.0</ele>
        <time>2013-05-11T12:52:50Z</time>
      </trkpt>
      <trkpt lat="40.503000" lon="-5.193867">
        <ele>1942.0</ele>
        <time>2013-05-11T12:52:51Z</time>
      </trkpt>
      <trkpt lat="40.502950" lon="-5.193750">
        <ele>1943.0</ele>
        <time>2013-05-11T12:52:52Z</time>
      </trkpt>
      <trkpt lat="40.502917" lon="-5.193650">
        <ele>1945.0</ele>
        <time>2013-05-11T12:52:53Z</time>
      </trkpt>
      <trkpt lat="40.502900" lon="-5.193533">
        <ele>1946.0</ele>
        <time>2013-05-11T12:52:54Z</time>
      </trkpt>
      <trkpt lat="40.502900" lon="-5.193400">
        <ele>1947.0</ele>
        <time>2013-05-11T12:52:55Z</time>
      </trkpt>
      <trkpt lat="40.502900" lon="-5.193267">
        <ele>1949.0</ele>
        <time>2013-05-11T12:52:56Z</time>
      </trkpt>
      <trkpt lat="40.502900" lon="-5.193150">
        <ele>1950.0</ele>
        <time>2013-05-11T12:52:57Z</time>
      </trkpt>
      <trkpt lat="40.502933" lon="-5.193033">
        <ele>1952.0</ele>
        <time>2013-05-11T12:52:58Z</time>
      </trkpt>
      <trkpt lat="40.502983" lon="-5.192933">
        <ele>1955.0</ele>
        <time>2013-05-11T12:52:59Z</time>
      </trkpt>
      <trkpt lat="40.503017" lon="-5.192850">
        <ele>1957.0</ele>
        <time>2013-05-11T12:53:00Z</time>
      </trkpt>
      <trkpt lat="40.503067" lon="-5.192767">
        <ele>1960.0</ele>
        <time>2013-05-11T12:53:01Z</time>
      </trkpt>
      <trkpt lat="40.503117" lon="-5.192717">
        <ele>1961.0</ele>
        <time>2013-05-11T12:53:02Z</time>
      </trkpt>
      <trkpt lat="40.503183" lon="-5.192683">
        <ele>1962.0</ele>
        <time>2013-05-11T12:53:03Z</time>
      </trkpt>
      <trkpt lat="40.503250" lon="-5.192650">
        <ele>1963.0</ele>
        <time>2013-05-11T12:53:04Z</time>
      </trkpt>
      <trkpt lat="40.503317" lon="-5.192633">
        <ele>1964.0</ele>
        <time>2013-05-11T12:53:05Z</time>
      </trkpt>
      <trkpt lat="40.503383" lon="-5.192633">
        <ele>1965.0</ele>
        <time>2013-05-11T12:53:06Z</time>
      </trkpt>
      <trkpt lat="40.503450" lon="-5.192650">
        <ele>1966.0</ele>
        <time>2013-05-11T12:53:07Z</time>
      </trkpt>
      <trkpt lat="40.503517" lon="-5.192700">
        <ele>1967.0</ele>
        <time>2013-05-11T12:53:08Z</time>
      </trkpt>
      <trkpt lat="40.503567" lon="-5.192767">
        <ele>1967.0</ele>
        <time>2013-05-11T12:53:09Z</time>
      </trkpt>
      <trkpt lat="40.503617" lon="-5.192833">
        <ele>1968.0</ele>
        <time>2013-05-11T12:53:10Z</time>
      </trkpt>
      <trkpt lat="40.503650" lon="-5.192900">
        <ele>1971.0</ele>
        <time>2013-05-11T12:53:11Z</time>
      </trkpt>
      <trkpt lat="40.503667" lon="-5.192967">
        <ele>1973.0</ele>
        <time>2013-05-11T12:53:12Z</time>
      </trkpt>
      <trkpt lat="40.503683" lon="-5.193017">
        <ele>1975.0</ele>
        <time>2013-05-11T12:53:13Z</time>
      </trkpt>
      <trkpt lat="40.503683" lon="-5.193100">
        <ele>1975.0</ele>
        <time>2013-05-11T12:53:14Z</time>
      </trkpt>
      <trkpt lat="40.503667" lon="-5.193183">
        <ele>1975.0</ele>
        <time>2013-05-11T12:53:15Z</time>
      </trkpt>
      <trkpt lat="40.503650" lon="-5.193283">
        <ele>1976.0</ele>
        <time>2013-05-11T12:53:16Z</time>
      </trkpt>
      <trkpt lat="40.503600" lon="-5.193350">
        <ele>1978.0</ele>
        <time>2013-05-11T12:53:17Z</time>
      </trkpt>
      <trkpt lat="40.503550" lon="-5.193417">
        <ele>1978.0</ele>
        <time>2013-05-11T12:53:18Z</time>
      </trkpt>
      <trkpt lat="40.503483" lon="-5.193467">
        <ele>1979.0</ele>
        <time>2013-05-11T12:53:19Z</time>
      </trkpt>
      <trkpt lat="40.503400" lon="-5.193500">
        <ele>1978.0</ele>
        <time>2013-05-11T12:53:20Z</time>
      </trkpt>
      <trkpt lat="40.503317" lon="-5.193533">
        <ele>1978.0</ele>
        <time>2013-05-11T12:53:21Z</time>
      </trkpt>
      <trkpt lat="40.503217" lon="-5.193550">
        <ele>1977.0</ele>
        <time>2013-05-11T12:53:22Z</time>
      </trkpt>
      <trkpt lat="40.503100" lon="-5.193517">
        <ele>1977.0</ele>
        <time>2013-05-11T12:53:23Z</time>
      </trkpt>
      <trkpt lat="40.503017" lon="-5.193450">
        <ele>1977.0</ele>
        <time>2013-05-11T12:53:24Z</time>
      </trkpt>
      <trkpt lat="40.502933" lon="-5.193350">
        <ele>1977.0</ele>
        <time>2013-05-11T12:53:25Z</time>
      </trkpt>
      <trkpt lat="40.502867" lon="-5.193233">
        <ele>1977.0</ele>
        <time>2013-05-11T12:53:26Z</time>
      </trkpt>
      <trkpt lat="40.502800" lon="-5.193117">
        <ele>1978.0</ele>
        <time>2013-05-11T12:53:27Z</time>
      </trkpt>
      <trkpt lat="40.502767" lon="-5.193000">
        <ele>1978.0</ele>
        <time>2013-05-11T12:53:28Z</time>
      </trkpt>
      <trkpt lat="40.502733" lon="-5.192850">
        <ele>1978.0</ele>
        <time>2013-05-11T12:53:29Z</time>
      </trkpt>
      <trkpt lat="40.502717" lon="-5.192717">
        <ele>1979.0</ele>
        <time>2013-05-11T12:53:30Z</time>
      </trkpt>
      <trkpt lat="40.502717" lon="-5.192583">
        <ele>1980.0</ele>
        <time>2013-05-11T12:53:31Z</time>
      </trkpt>
      <trkpt lat="40.502733" lon="-5.192467">
        <ele>1981.0</ele>
        <time>2013-05-11T12:53:32Z</time>
      </trkpt>
      <trkpt lat="40.502750" lon="-5.192367">
        <ele>1982.0</ele>
        <time>2013-05-11T12:53:33Z</time>
      </trkpt>
      <trkpt lat="40.502783" lon="-5.192267">
        <ele>1983.0</ele>
        <time>2013-05-11T12:53:34Z</time>
      </trkpt>
      <trkpt lat="40.502833" lon="-5.192167">
        <ele>1984.0</ele>
        <time>2013-05-11T12:53:35Z</time>
      </trkpt>
      <trkpt lat="40.502883" lon="-5.192100">
        <ele>1984.0</ele>
        <time>2013-05-11T12:53:36Z</time>
      </trkpt>
      <trkpt lat="40.502950" lon="-5.192033">
        <ele>1985.0</ele>
        <time>2013-05-11T12:53:37Z</time>
      </trkpt>
      <trkpt lat="40.503017" lon="-5.191983">
        <ele>1985.0</ele>
        <time>2013-05-11T12:53:38Z</time>
      </trkpt>
      <trkpt lat="40.503083" lon="-5.191933">
        <ele>1985.0</ele>
        <time>2013-05-11T12:53:39Z</time>
      </trkpt>
      <trkpt lat="40.503133" lon="-5.191900">
        <ele>1986.0</ele>
        <time>2013-05-11T12:53:40Z</time>
      </trkpt>
      <trkpt lat="40.503183" lon="-5.191867">
        <ele>1987.0</ele>
        <time>2013-05-11T12:53:41Z</time>
      </trkpt>
      <trkpt lat="40.503250" lon="-5.191867">
        <ele>1987.0</ele>
        <time>2013-05-11T12:53:42Z</time>
      </trkpt>
      <trkpt lat="40.503317" lon="-5.191867">
        <ele>1986.0</ele>
        <time>2013-05-11T12:53:43Z</time>
      </trkpt>
      <trkpt lat="40.503367" lon="-5.191883">
        <ele>1985.0</ele>
        <time>2013-05-11T12:53:44Z</time>
      </trkpt>
      <trkpt lat="40.503433" lon="-5.191917">
        <ele>1985.0</ele>
        <time>2013-05-11T12:53:45Z</time>
      </trkpt>
      <trkpt lat="40.503500" lon="-5.191950">
        <ele>1985.0</ele>
        <time>2013-05-11T12:53:46Z</time>
      </trkpt>
      <trkpt lat="40.503567" lon="-5.191967">
        <ele>1985.0</ele>
        <time>2013-05-11T12:53:47Z</time>
      </trkpt>
      <trkpt lat="40.503617" lon="-5.192017">
        <ele>1986.0</ele>
        <time>2013-05-11T12:53:48Z</time>
      </trkpt>
      <trkpt lat="40.503667" lon="-5.192067">
        <ele>1986.0</ele>
        <time>2013-05-11T12:53:49Z</time>
      </trkpt>
      <trkpt lat="40.503700" lon="-5.192133">
        <ele>1986.0</ele>
        <time>2013-05-11T12:53:50Z</time>
      </trkpt>
      <trkpt lat="40.503733" lon="-5.192200">
        <ele>1986.0</ele>
        <time>2013-05-11T12:53:51Z</time>
      </trkpt>
      <trkpt lat="40.503767" lon="-5.192267">
        <ele>1987.0</ele>
        <time>2013-05-11T12:53:52Z</time>
      </trkpt>
      <trkpt lat="40.503783" lon="-5.192333">
        <ele>1988.0</ele>
        <time>2013-05-11T12:53:53Z</time>
      </trkpt>
      <trkpt lat="40.503800" lon="-5.192383">
        <ele>1988.0</ele>
        <time>2013-05-11T12:53:54Z</time>
      </trkpt>
      <trkpt lat="40.503800" lon="-5.192450">
        <ele>1988.0</ele>
        <time>2013-05-11T12:53:55Z</time>
      </trkpt>
      <trkpt lat="40.503800" lon="-5.192517">
        <ele>1988.0</ele>
        <time>2013-05-11T12:53:56Z</time>
      </trkpt>
      <trkpt lat="40.503783" lon="-5.192583">
        <ele>1988.0</ele>
        <time>2013-05-11T12:53:57Z</time>
      </trkpt>
      <trkpt lat="40.503750" lon="-5.192650">
        <ele>1989.0</ele>
        <time>2013-05-11T12:53:58Z</time>
      </trkpt>
      <trkpt lat="40.503717" lon="-5.192717">
        <ele>1990.0</ele>
        <time>2013-05-11T12:53:59Z</time>
      </trkpt>
      <trkpt lat="40.503683" lon="-5.192783">
        <ele>1991.0</ele>
        <time>2013-05-11T12:54:00Z</time>
      </trkpt>
      <trkpt lat="40.503650" lon="-5.192833">
        <ele>1992.0</ele>
        <time>2013-05-11T12:54:01Z</time>
      </trkpt>
      <trkpt lat="40.503600" lon="-5.192883">
        <ele>1992.0</ele>
        <time>2013-05-11T12:54:02Z</time>
      </trkpt>
      <trkpt lat="40.503550" lon="-5.192933">
        <ele>1991.0</ele>
        <time>2013-05-11T12:54:03Z</time>
      </trkpt>
      <trkpt lat="40.503483" lon="-5.192983">
        <ele>1990.0</ele>
        <time>2013-05-11T12:54:04Z</time>
      </trkpt>
      <trkpt lat="40.503433" lon="-5.193000">
        <ele>1990.0</ele>
        <time>2013-05-11T12:54:05Z</time>
      </trkpt>
      <trkpt lat="40.503350" lon="-5.193017">
        <ele>1989.0</ele>
        <time>2013-05-11T12:54:06Z</time>
      </trkpt>
      <trkpt lat="40.503283" lon="-5.193033">
        <ele>1987.0</ele>
        <time>2013-05-11T12:54:07Z</time>
      </trkpt>
      <trkpt lat="40.503200" lon="-5.193050">
        <ele>1986.0</ele>
        <time>2013-05-11T12:54:08Z</time>
      </trkpt>
      <trkpt lat="40.503117" lon="-5.193033">
        <ele>1985.0</ele>
        <time>2013-05-11T12:54:09Z</time>
      </trkpt>
      <trkpt lat="40.503033" lon="-5.192983">
        <ele>1983.0</ele>
        <time>2013-05-11T12:54:10Z</time>
      </trkpt>
      <trkpt lat="40.502950" lon="-5.192900">
        <ele>1982.0</ele>
        <time>2013-05-11T12:54:11Z</time>
      </trkpt>
      <trkpt lat="40.502900" lon="-5.192783">
        <ele>1982.0</ele>
        <time>2013-05-11T12:54:12Z</time>
      </trkpt>
      <trkpt lat="40.502850" lon="-5.192650">
        <ele>1980.0</ele>
        <time>2013-05-11T12:54:13Z</time>
      </trkpt>
      <trkpt lat="40.502850" lon="-5.192500">
        <ele>1979.0</ele>
        <time>2013-05-11T12:54:14Z</time>
      </trkpt>
      <trkpt lat="40.502850" lon="-5.192350">
        <ele>1978.0</ele>
        <time>2013-05-11T12:54:15Z</time>
      </trkpt>
      <trkpt lat="40.502883" lon="-5.192200">
        <ele>1978.0</ele>
        <time>2013-05-11T12:54:16Z</time>
      </trkpt>
      <trkpt lat="40.502900" lon="-5.192067">
        <ele>1978.0</ele>
        <time>2013-05-11T12:54:17Z</time>
      </trkpt>
      <trkpt lat="40.502933" lon="-5.191950">
        <ele>1977.0</ele>
        <time>2013-05-11T12:54:18Z</time>
      </trkpt>
      <trkpt lat="40.502967" lon="-5.191833">
        <ele>1976.0</ele>
        <time>2013-05-11T12:54:19Z</time>
      </trkpt>
      <trkpt lat="40.503017" lon="-5.191717">
        <ele>1976.0</ele>
        <time>2013-05-11T12:54:20Z</time>
      </trkpt>
      <trkpt lat="40.503067" lon="-5.191617">
        <ele>1976.0</ele>
        <time>2013-05-11T12:54:21Z</time>
      </trkpt>
      <trkpt lat="40.503117" lon="-5.191533">
        <ele>1977.0</ele>
        <time>2013-05-11T12:54:22Z</time>
      </trkpt>
      <trkpt lat="40.503167" lon="-5.191450">
        <ele>1978.0</ele>
        <time>2013-05-11T12:54:23Z</time>
      </trkpt>
      <trkpt lat="40.503217" lon="-5.191383">
        <ele>1978.0</ele>
        <time>2013-05-11T12:54:24Z</time>
      </trkpt>
      <trkpt lat="40.503267" lon="-5.191300">
        <ele>1977.0</ele>
        <time>2013-05-11T12:54:25Z</time>
      </trkpt>
      <trkpt lat="40.503333" lon="-5.191233">
        <ele>1975.0</ele>
        <time>2013-05-11T12:54:26Z</time>
      </trkpt>
      <trkpt lat="40.503400" lon="-5.191150">
        <ele>1974.0</ele>
        <time>2013-05-11T12:54:27Z</time>
      </trkpt>
      <trkpt lat="40.503467" lon="-5.191067">
        <ele>1973.0</ele>
        <time>2013-05-11T12:54:28Z</time>
      </trkpt>
      <trkpt lat="40.503533" lon="-5.191000">
        <ele>1973.0</ele>
        <time>2013-05-11T12:54:29Z</time>
      </trkpt>
      <trkpt lat="40.503600" lon="-5.190933">
        <ele>1972.0</ele>
        <time>2013-05-11T12:54:30Z</time>
      </trkpt>
      <trkpt lat="40.503683" lon="-5.190883">
        <ele>1971.0</ele>
        <time>2013-05-11T12:54:31Z</time>
      </trkpt>
      <trkpt lat="40.503750" lon="-5.190833">
        <ele>1971.0</ele>
        <time>2013-05-11T12:54:32Z</time>
      </trkpt>
      <trkpt lat="40.503833" lon="-5.190750">
        <ele>1971.0</ele>
        <time>2013-05-11T12:54:33Z</time>
      </trkpt>
      <trkpt lat="40.503900" lon="-5.190667">
        <ele>1973.0</ele>
        <time>2013-05-11T12:54:34Z</time>
      </trkpt>
      <trkpt lat="40.503950" lon="-5.190567">
        <ele>1974.0</ele>
        <time>2013-05-11T12:54:35Z</time>
      </trkpt>
      <trkpt lat="40.504000" lon="-5.190450">
        <ele>1975.0</ele>
        <time>2013-05-11T12:54:36Z</time>
      </trkpt>
      <trkpt lat="40.504033" lon="-5.190333">
        <ele>1975.0</ele>
        <time>2013-05-11T12:54:37Z</time>
      </trkpt>
      <trkpt lat="40.504083" lon="-5.190217">
        <ele>1975.0</ele>
        <time>2013-05-11T12:54:38Z</time>
      </trkpt>
      <trkpt lat="40.504117" lon="-5.190083">
        <ele>1975.0</ele>
        <time>2013-05-11T12:54:39Z</time>
      </trkpt>
      <trkpt lat="40.504133" lon="-5.189950">
        <ele>1976.0</ele>
        <time>2013-05-11T12:54:40Z</time>
      </trkpt>
      <trkpt lat="40.504167" lon="-5.189833">
        <ele>1977.0</ele>
        <time>2013-05-11T12:54:41Z</time>
      </trkpt>
      <trkpt lat="40.504183" lon="-5.189700">
        <ele>1977.0</ele>
        <time>2013-05-11T12:54:42Z</time>
      </trkpt>
      <trkpt lat="40.504200" lon="-5.189583">
        <ele>1976.0</ele>
        <time>2013-05-11T12:54:43Z</time>
      </trkpt>
      <trkpt lat="40.504233" lon="-5.189467">
        <ele>1976.0</ele>
        <time>2013-05-11T12:54:44Z</time>
      </trkpt>
      <trkpt lat="40.504283" lon="-5.189367">
        <ele>1976.0</ele>
        <time>2013-05-11T12:54:45Z</time>
      </trkpt>
      <trkpt lat="40.504317" lon="-5.189250">
        <ele>1976.0</ele>
        <time>2013-05-11T12:54:46Z</time>
      </trkpt>
      <trkpt lat="40.504350" lon="-5.189150">
        <ele>1976.0</ele>
        <time>2013-05-11T12:54:47Z</time>
      </trkpt>
      <trkpt lat="40.504383" lon="-5.189050">
        <ele>1976.0</ele>
        <time>2013-05-11T12:54:48Z</time>
      </trkpt>
      <trkpt lat="40.504417" lon="-5.188950">
        <ele>1976.0</ele>
        <time>2013-05-11T12:54:49Z</time>
      </trkpt>
      <trkpt lat="40.504450" lon="-5.188850">
        <ele>1975.0</ele>
        <time>2013-05-11T12:54:50Z</time>
      </trkpt>
      <trkpt lat="40.504500" lon="-5.188750">
        <ele>1975.0</ele>
        <time>2013-05-11T12:54:51Z</time>
      </trkpt>
      <trkpt lat="40.504533" lon="-5.188650">
        <ele>1975.0</ele>
        <time>2013-05-11T12:54:52Z</time>
      </trkpt>
      <trkpt lat="40.504583" lon="-5.188550">
        <ele>1974.0</ele>
        <time>2013-05-11T12:54:53Z</time>
      </trkpt>
      <trkpt lat="40.504617" lon="-5.188450">
        <ele>1974.0</ele>
        <time>2013-05-11T12:54:54Z</time>
      </trkpt>
      <trkpt lat="40.504667" lon="-5.188350">
        <ele>1973.0</ele>
        <time>2013-05-11T12:54:55Z</time>
      </trkpt>
      <trkpt lat="40.504717" lon="-5.188250">
        <ele>1973.0</ele>
        <time>2013-05-11T12:54:56Z</time>
      </trkpt>
      <trkpt lat="40.504767" lon="-5.188167">
        <ele>1972.0</ele>
        <time>2013-05-11T12:54:57Z</time>
      </trkpt>
      <trkpt lat="40.504817" lon="-5.188067">
        <ele>1972.0</ele>
        <time>2013-05-11T12:54:58Z</time>
      </trkpt>
      <trkpt lat="40.504867" lon="-5.187950">
        <ele>1971.0</ele>
        <time>2013-05-11T12:54:59Z</time>
      </trkpt>
      <trkpt lat="40.504900" lon="-5.187867">
        <ele>1971.0</ele>
        <time>2013-05-11T12:55:00Z</time>
      </trkpt>
      <trkpt lat="40.504950" lon="-5.187767">
        <ele>1971.0</ele>
        <time>2013-05-11T12:55:01Z</time>
      </trkpt>
      <trkpt lat="40.504983" lon="-5.187683">
        <ele>1971.0</ele>
        <time>2013-05-11T12:55:02Z</time>
      </trkpt>
      <trkpt lat="40.505017" lon="-5.187583">
        <ele>1970.0</ele>
        <time>2013-05-11T12:55:03Z</time>
      </trkpt>
      <trkpt lat="40.505033" lon="-5.187467">
        <ele>1970.0</ele>
        <time>2013-05-11T12:55:04Z</time>
      </trkpt>
      <trkpt lat="40.505050" lon="-5.187350">
        <ele>1969.0</ele>
        <time>2013-05-11T12:55:05Z</time>
      </trkpt>
      <trkpt lat="40.505050" lon="-5.187250">
        <ele>1968.0</ele>
        <time>2013-05-11T12:55:06Z</time>
      </trkpt>
      <trkpt lat="40.505050" lon="-5.187133">
        <ele>1967.0</ele>
        <time>2013-05-11T12:55:07Z</time>
      </trkpt>
      <trkpt lat="40.505050" lon="-5.187033">
        <ele>1966.0</ele>
        <time>2013-05-11T12:55:08Z</time>
      </trkpt>
      <trkpt lat="40.505067" lon="-5.186917">
        <ele>1964.0</ele>
        <time>2013-05-11T12:55:09Z</time>
      </trkpt>
      <trkpt lat="40.505083" lon="-5.186800">
        <ele>1962.0</ele>
        <time>2013-05-11T12:55:10Z</time>
      </trkpt>
      <trkpt lat="40.505117" lon="-5.186683">
        <ele>1961.0</ele>
        <time>2013-05-11T12:55:11Z</time>
      </trkpt>
      <trkpt lat="40.505150" lon="-5.186567">
        <ele>1961.0</ele>
        <time>2013-05-11T12:55:12Z</time>
      </trkpt>
      <trkpt lat="40.505167" lon="-5.186450">
        <ele>1961.0</ele>
        <time>2013-05-11T12:55:13Z</time>
      </trkpt>
      <trkpt lat="40.505167" lon="-5.186333">
        <ele>1961.0</ele>
        <time>2013-05-11T12:55:14Z</time>
      </trkpt>
      <trkpt lat="40.505183" lon="-5.186217">
        <ele>1960.0</ele>
        <time>2013-05-11T12:55:15Z</time>
      </trkpt>
      <trkpt lat="40.505217" lon="-5.186100">
        <ele>1958.0</ele>
        <time>2013-05-11T12:55:16Z</time>
      </trkpt>
      <trkpt lat="40.505250" lon="-5.185983">
        <ele>1958.0</ele>
        <time>2013-05-11T12:55:17Z</time>
      </trkpt>
      <trkpt lat="40.505300" lon="-5.185867">
        <ele>1957.0</ele>
        <time>2013-05-11T12:55:18Z</time>
      </trkpt>
      <trkpt lat="40.505333" lon="-5.185783">
        <ele>1956.0</ele>
        <time>2013-05-11T12:55:19Z</time>
      </trkpt>
      <trkpt lat="40.505383" lon="-5.185683">
        <ele>1955.0</ele>
        <time>2013-05-11T12:55:20Z</time>
      </trkpt>
      <trkpt lat="40.505417" lon="-5.185600">
        <ele>1953.0</ele>
        <time>2013-05-11T12:55:21Z</time>
      </trkpt>
      <trkpt lat="40.505467" lon="-5.185500">
        <ele>1951.0</ele>
        <time>2013-05-11T12:55:22Z</time>
      </trkpt>
      <trkpt lat="40.505517" lon="-5.185400">
        <ele>1949.0</ele>
        <time>2013-05-11T12:55:23Z</time>
      </trkpt>
      <trkpt lat="40.505567" lon="-5.185300">
        <ele>1947.0</ele>
        <time>2013-05-11T12:55:24Z</time>
      </trkpt>
      <trkpt lat="40.505617" lon="-5.185200">
        <ele>1945.0</ele>
        <time>2013-05-11T12:55:25Z</time>
      </trkpt>
      <trkpt lat="40.505650" lon="-5.185083">
        <ele>1942.0</ele>
        <time>2013-05-11T12:55:26Z</time>
      </trkpt>
      <trkpt lat="40.505700" lon="-5.184950">
        <ele>1941.0</ele>
        <time>2013-05-11T12:55:27Z</time>
      </trkpt>
      <trkpt lat="40.505733" lon="-5.184833">
        <ele>1939.0</ele>
        <time>2013-05-11T12:55:28Z</time>
      </trkpt>
      <trkpt lat="40.505783" lon="-5.184717">
        <ele>1938.0</ele>
        <time>2013-05-11T12:55:29Z</time>
      </trkpt>
      <trkpt lat="40.505817" lon="-5.184583">
        <ele>1936.0</ele>
        <time>2013-05-11T12:55:30Z</time>
      </trkpt>
      <trkpt lat="40.505850" lon="-5.184467">
        <ele>1934.0</ele>
        <time>2013-05-11T12:55:31Z</time>
      </trkpt>
      <trkpt lat="40.505900" lon="-5.184317">
        <ele>1932.0</ele>
        <time>2013-05-11T12:55:32Z</time>
      </trkpt>
      <trkpt lat="40.505950" lon="-5.184183">
        <ele>1931.0</ele>
        <time>2013-05-11T12:55:33Z</time>
      </trkpt>
      <trkpt lat="40.506000" lon="-5.184033">
        <ele>1930.0</ele>
        <time>2013-05-11T12:55:34Z</time>
      </trkpt>
      <trkpt lat="40.506050" lon="-5.183883">
        <ele>1931.0</ele>
        <time>2013-05-11T12:55:35Z</time>
      </trkpt>
      <trkpt lat="40.506083" lon="-5.183750">
        <ele>1933.0</ele>
        <time>2013-05-11T12:55:36Z</time>
      </trkpt>
      <trkpt lat="40.506117" lon="-5.183617">
        <ele>1935.0</ele>
        <time>2013-05-11T12:55:37Z</time>
      </trkpt>
      <trkpt lat="40.506133" lon="-5.183500">
        <ele>1936.0</ele>
        <time>2013-05-11T12:55:38Z</time>
      </trkpt>
      <trkpt lat="40.506167" lon="-5.183383">
        <ele>1937.0</ele>
        <time>2013-05-11T12:55:39Z</time>
      </trkpt>
      <trkpt lat="40.506200" lon="-5.183283">
        <ele>1938.0</ele>
        <time>2013-05-11T12:55:40Z</time>
      </trkpt>
      <trkpt lat="40.506250" lon="-5.183183">
        <ele>1938.0</ele>
        <time>2013-05-11T12:55:41Z</time>
      </trkpt>
      <trkpt lat="40.506300" lon="-5.183083">
        <ele>1938.0</ele>
        <time>2013-05-11T12:55:42Z</time>
      </trkpt>
      <trkpt lat="40.506350" lon="-5.182983">
        <ele>1939.0</ele>
        <time>2013-05-11T12:55:43Z</time>
      </trkpt>
      <trkpt lat="40.506400" lon="-5.182900">
        <ele>1940.0</ele>
        <time>2013-05-11T12:55:44Z</time>
      </trkpt>
      <trkpt lat="40.506450" lon="-5.182817">
        <ele>1942.0</ele>
        <time>2013-05-11T12:55:45Z</time>
      </trkpt>
      <trkpt lat="40.506483" lon="-5.182700">
        <ele>1943.0</ele>
        <time>2013-05-11T12:55:46Z</time>
      </trkpt>
      <trkpt lat="40.506500" lon="-5.182583">
        <ele>1944.0</ele>
        <time>2013-05-11T12:55:47Z</time>
      </trkpt>
      <trkpt lat="40.506500" lon="-5.182450">
        <ele>1944.0</ele>
        <time>2013-05-11T12:55:48Z</time>
      </trkpt>
      <trkpt lat="40.506483" lon="-5.182317">
        <ele>1945.0</ele>
        <time>2013-05-11T12:55:49Z</time>
      </trkpt>
      <trkpt lat="40.506450" lon="-5.182167">
        <ele>1946.0</ele>
        <time>2013-05-11T12:55:50Z</time>
      </trkpt>
      <trkpt lat="40.506400" lon="-5.182050">
        <ele>1947.0</ele>
        <time>2013-05-11T12:55:51Z</time>
      </trkpt>
      <trkpt lat="40.506317" lon="-5.181933">
        <ele>1950.0</ele>
        <time>2013-05-11T12:55:52Z</time>
      </trkpt>
      <trkpt lat="40.506217" lon="-5.181850">
        <ele>1953.0</ele>
        <time>2013-05-11T12:55:53Z</time>
      </trkpt>
      <trkpt lat="40.506133" lon="-5.181800">
        <ele>1954.0</ele>
        <time>2013-05-11T12:55:54Z</time>
      </trkpt>
      <trkpt lat="40.506050" lon="-5.181800">
        <ele>1956.0</ele>
        <time>2013-05-11T12:55:55Z</time>
      </trkpt>
      <trkpt lat="40.505967" lon="-5.181800">
        <ele>1956.0</ele>
        <time>2013-05-11T12:55:56Z</time>
      </trkpt>
      <trkpt lat="40.505883" lon="-5.181817">
        <ele>1956.0</ele>
        <time>2013-05-11T12:55:57Z</time>
      </trkpt>
      <trkpt lat="40.505783" lon="-5.181850">
        <ele>1955.0</ele>
        <time>2013-05-11T12:55:58Z</time>
      </trkpt>
      <trkpt lat="40.505700" lon="-5.181917">
        <ele>1955.0</ele>
        <time>2013-05-11T12:55:59Z</time>
      </trkpt>
      <trkpt lat="40.505633" lon="-5.182017">
        <ele>1955.0</ele>
        <time>2013-05-11T12:56:00Z</time>
      </trkpt>
      <trkpt lat="40.505583" lon="-5.182133">
        <ele>1956.0</ele>
        <time>2013-05-11T12:56:01Z</time>
      </trkpt>
      <trkpt lat="40.505550" lon="-5.182250">
        <ele>1958.0</ele>
        <time>2013-05-11T12:56:02Z</time>
      </trkpt>
      <trkpt lat="40.505533" lon="-5.182350">
        <ele>1961.0</ele>
        <time>2013-05-11T12:56:03Z</time>
      </trkpt>
      <trkpt lat="40.505517" lon="-5.182433">
        <ele>1964.0</ele>
        <time>2013-05-11T12:56:04Z</time>
      </trkpt>
      <trkpt lat="40.505533" lon="-5.182533">
        <ele>1966.0</ele>
        <time>2013-05-11T12:56:05Z</time>
      </trkpt>
      <trkpt lat="40.505550" lon="-5.182617">
        <ele>1967.0</ele>
        <time>2013-05-11T12:56:06Z</time>
      </trkpt>
      <trkpt lat="40.505567" lon="-5.182683">
        <ele>1968.0</ele>
        <time>2013-05-11T12:56:07Z</time>
      </trkpt>
      <trkpt lat="40.505583" lon="-5.182750">
        <ele>1969.0</ele>
        <time>2013-05-11T12:56:08Z</time>
      </trkpt>
      <trkpt lat="40.505617" lon="-5.182800">
        <ele>1970.0</ele>
        <time>2013-05-11T12:56:09Z</time>
      </trkpt>
      <trkpt lat="40.505667" lon="-5.182850">
        <ele>1969.0</ele>
        <time>2013-05-11T12:56:10Z</time>
      </trkpt>
      <trkpt lat="40.505717" lon="-5.182883">
        <ele>1968.0</ele>
        <time>2013-05-11T12:56:11Z</time>
      </trkpt>
      <trkpt lat="40.505800" lon="-5.182900">
        <ele>1967.0</ele>
        <time>2013-05-11T12:56:12Z</time>
      </trkpt>
      <trkpt lat="40.505883" lon="-5.182933">
        <ele>1967.0</ele>
        <time>2013-05-11T12:56:13Z</time>
      </trkpt>
      <trkpt lat="40.505950" lon="-5.182950">
        <ele>1969.0</ele>
        <time>2013-05-11T12:56:14Z</time>
      </trkpt>
      <trkpt lat="40.506000" lon="-5.182967">
        <ele>1970.0</ele>
        <time>2013-05-11T12:56:15Z</time>
      </trkpt>
      <trkpt lat="40.506067" lon="-5.182967">
        <ele>1970.0</ele>
        <time>2013-05-11T12:56:16Z</time>
      </trkpt>
      <trkpt lat="40.506133" lon="-5.182950">
        <ele>1969.0</ele>
        <time>2013-05-11T12:56:17Z</time>
      </trkpt>
      <trkpt lat="40.506217" lon="-5.182933">
        <ele>1968.0</ele>
        <time>2013-05-11T12:56:18Z</time>
      </trkpt>
      <trkpt lat="40.506300" lon="-5.182900">
        <ele>1967.0</ele>
        <time>2013-05-11T12:56:19Z</time>
      </trkpt>
      <trkpt lat="40.506383" lon="-5.182850">
        <ele>1967.0</ele>
        <time>2013-05-11T12:56:20Z</time>
      </trkpt>
      <trkpt lat="40.506467" lon="-5.182800">
        <ele>1967.0</ele>
        <time>2013-05-11T12:56:21Z</time>
      </trkpt>
      <trkpt lat="40.506533" lon="-5.182733">
        <ele>1967.0</ele>
        <time>2013-05-11T12:56:22Z</time>
      </trkpt>
      <trkpt lat="40.506600" lon="-5.182650">
        <ele>1966.0</ele>
        <time>2013-05-11T12:56:23Z</time>
      </trkpt>
      <trkpt lat="40.506667" lon="-5.182567">
        <ele>1965.0</ele>
        <time>2013-05-11T12:56:24Z</time>
      </trkpt>
      <trkpt lat="40.506733" lon="-5.182450">
        <ele>1964.0</ele>
        <time>2013-05-11T12:56:25Z</time>
      </trkpt>
      <trkpt lat="40.506800" lon="-5.182333">
        <ele>1964.0</ele>
        <time>2013-05-11T12:56:26Z</time>
      </trkpt>
      <trkpt lat="40.506850" lon="-5.182200">
        <ele>1963.0</ele>
        <time>2013-05-11T12:56:27Z</time>
      </trkpt>
      <trkpt lat="40.506883" lon="-5.182083">
        <ele>1963.0</ele>
        <time>2013-05-11T12:56:28Z</time>
      </trkpt>
      <trkpt lat="40.506933" lon="-5.181950">
        <ele>1962.0</ele>
        <time>2013-05-11T12:56:29Z</time>
      </trkpt>
      <trkpt lat="40.506967" lon="-5.181800">
        <ele>1962.0</ele>
        <time>2013-05-11T12:56:30Z</time>
      </trkpt>
      <trkpt lat="40.506983" lon="-5.181667">
        <ele>1962.0</ele>
        <time>2013-05-11T12:56:31Z</time>
      </trkpt>
      <trkpt lat="40.507000" lon="-5.181533">
        <ele>1962.0</ele>
        <time>2013-05-11T12:56:32Z</time>
      </trkpt>
      <trkpt lat="40.507017" lon="-5.181400">
        <ele>1962.0</ele>
        <time>2013-05-11T12:56:33Z</time>
      </trkpt>
      <trkpt lat="40.507017" lon="-5.181283">
        <ele>1961.0</ele>
        <time>2013-05-11T12:56:34Z</time>
      </trkpt>
      <trkpt lat="40.507033" lon="-5.181167">
        <ele>1961.0</ele>
        <time>2013-05-11T12:56:35Z</time>
      </trkpt>
      <trkpt lat="40.507033" lon="-5.181033">
        <ele>1960.0</ele>
        <time>2013-05-11T12:56:36Z</time>
      </trkpt>
      <trkpt lat="40.507033" lon="-5.180900">
        <ele>1958.0</ele>
        <time>2013-05-11T12:56:37Z</time>
      </trkpt>
      <trkpt lat="40.507033" lon="-5.180750">
        <ele>1957.0</ele>
        <time>2013-05-11T12:56:38Z</time>
      </trkpt>
      <trkpt lat="40.507033" lon="-5.180617">
        <ele>1957.0</ele>
        <time>2013-05-11T12:56:39Z</time>
      </trkpt>
      <trkpt lat="40.507033" lon="-5.180483">
        <ele>1957.0</ele>
        <time>2013-05-11T12:56:40Z</time>
      </trkpt>
      <trkpt lat="40.507050" lon="-5.180350">
        <ele>1957.0</ele>
        <time>2013-05-11T12:56:41Z</time>
      </trkpt>
      <trkpt lat="40.507050" lon="-5.180217">
        <ele>1956.0</ele>
        <time>2013-05-11T12:56:42Z</time>
      </trkpt>
      <trkpt lat="40.507067" lon="-5.180083">
        <ele>1955.0</ele>
        <time>2013-05-11T12:56:43Z</time>
      </trkpt>
      <trkpt lat="40.507067" lon="-5.179950">
        <ele>1954.0</ele>
        <time>2013-05-11T12:56:44Z</time>
      </trkpt>
      <trkpt lat="40.507083" lon="-5.179817">
        <ele>1953.0</ele>
        <time>2013-05-11T12:56:45Z</time>
      </trkpt>
      <trkpt lat="40.507100" lon="-5.179683">
        <ele>1952.0</ele>
        <time>2013-05-11T12:56:46Z</time>
      </trkpt>
      <trkpt lat="40.507100" lon="-5.179550">
        <ele>1951.0</ele>
        <time>2013-05-11T12:56:47Z</time>
      </trkpt>
      <trkpt lat="40.507117" lon="-5.179433">
        <ele>1950.0</ele>
        <time>2013-05-11T12:56:48Z</time>
      </trkpt>
      <trkpt lat="40.507117" lon="-5.179300">
        <ele>1947.0</ele>
        <time>2013-05-11T12:56:49Z</time>
      </trkpt>
      <trkpt lat="40.507133" lon="-5.179183">
        <ele>1945.0</ele>
        <time>2013-05-11T12:56:50Z</time>
      </trkpt>
      <trkpt lat="40.507133" lon="-5.179050">
        <ele>1943.0</ele>
        <time>2013-05-11T12:56:51Z</time>
      </trkpt>
      <trkpt lat="40.507150" lon="-5.178900">
        <ele>1940.0</ele>
        <time>2013-05-11T12:56:52Z</time>
      </trkpt>
      <trkpt lat="40.507167" lon="-5.178750">
        <ele>1938.0</ele>
        <time>2013-05-11T12:56:53Z</time>
      </trkpt>
      <trkpt lat="40.507167" lon="-5.178600">
        <ele>1936.0</ele>
        <time>2013-05-11T12:56:54Z</time>
      </trkpt>
      <trkpt lat="40.507167" lon="-5.178433">
        <ele>1936.0</ele>
        <time>2013-05-11T12:56:55Z</time>
      </trkpt>
      <trkpt lat="40.507150" lon="-5.178283">
        <ele>1937.0</ele>
        <time>2013-05-11T12:56:56Z</time>
      </trkpt>
      <trkpt lat="40.507150" lon="-5.178167">
        <ele>1937.0</ele>
        <time>2013-05-11T12:56:57Z</time>
      </trkpt>
      <trkpt lat="40.507133" lon="-5.178050">
        <ele>1936.0</ele>
        <time>2013-05-11T12:56:58Z</time>
      </trkpt>
      <trkpt lat="40.507133" lon="-5.177950">
        <ele>1934.0</ele>
        <time>2013-05-11T12:56:59Z</time>
      </trkpt>
      <trkpt lat="40.507133" lon="-5.177817">
        <ele>1932.0</ele>
        <time>2013-05-11T12:57:00Z</time>
      </trkpt>
      <trkpt lat="40.507117" lon="-5.177667">
        <ele>1928.0</ele>
        <time>2013-05-11T12:57:01Z</time>
      </trkpt>
      <trkpt lat="40.507100" lon="-5.177500">
        <ele>1926.0</ele>
        <time>2013-05-11T12:57:02Z</time>
      </trkpt>
      <trkpt lat="40.507083" lon="-5.177333">
        <ele>1925.0</ele>
        <time>2013-05-11T12:57:03Z</time>
      </trkpt>
      <trkpt lat="40.507083" lon="-5.177150">
        <ele>1925.0</ele>
        <time>2013-05-11T12:57:04Z</time>
      </trkpt>
      <trkpt lat="40.507083" lon="-5.177000">
        <ele>1927.0</ele>
        <time>2013-05-11T12:57:05Z</time>
      </trkpt>
      <trkpt lat="40.507100" lon="-5.176850">
        <ele>1929.0</ele>
        <time>2013-05-11T12:57:06Z</time>
      </trkpt>
      <trkpt lat="40.507083" lon="-5.176700">
        <ele>1930.0</ele>
        <time>2013-05-11T12:57:07Z</time>
      </trkpt>
      <trkpt lat="40.507067" lon="-5.176550">
        <ele>1931.0</ele>
        <time>2013-05-11T12:57:08Z</time>
      </trkpt>
      <trkpt lat="40.507033" lon="-5.176400">
        <ele>1930.0</ele>
        <time>2013-05-11T12:57:09Z</time>
      </trkpt>
      <trkpt lat="40.507000" lon="-5.176267">
        <ele>1930.0</ele>
        <time>2013-05-11T12:57:10Z</time>
      </trkpt>
      <trkpt lat="40.506950" lon="-5.176117">
        <ele>1929.0</ele>
        <time>2013-05-11T12:57:11Z</time>
      </trkpt>
      <trkpt lat="40.506883" lon="-5.175967">
        <ele>1929.0</ele>
        <time>2013-05-11T12:57:12Z</time>
      </trkpt>
      <trkpt lat="40.506850" lon="-5.175800">
        <ele>1928.0</ele>
        <time>2013-05-11T12:57:13Z</time>
      </trkpt>
      <trkpt lat="40.506817" lon="-5.175633">
        <ele>1929.0</ele>
        <time>2013-05-11T12:57:14Z</time>
      </trkpt>
      <trkpt lat="40.506817" lon="-5.175467">
        <ele>1930.0</ele>
        <time>2013-05-11T12:57:15Z</time>
      </trkpt>
      <trkpt lat="40.506817" lon="-5.175317">
        <ele>1931.0</ele>
        <time>2013-05-11T12:57:16Z</time>
      </trkpt>
      <trkpt lat="40.506833" lon="-5.175200">
        <ele>1931.0</ele>
        <time>2013-05-11T12:57:17Z</time>
      </trkpt>
      <trkpt lat="40.506850" lon="-5.175083">
        <ele>1930.0</ele>
        <time>2013-05-11T12:57:18Z</time>
      </trkpt>
      <trkpt lat="40.506883" lon="-5.174967">
        <ele>1928.0</ele>
        <time>2013-05-11T12:57:19Z</time>
      </trkpt>
      <trkpt lat="40.506950" lon="-5.174883">
        <ele>1925.0</ele>
        <time>2013-05-11T12:57:20Z</time>
      </trkpt>
      <trkpt lat="40.507033" lon="-5.174833">
        <ele>1922.0</ele>
        <time>2013-05-11T12:57:21Z</time>
      </trkpt>
      <trkpt lat="40.507133" lon="-5.174817">
        <ele>1920.0</ele>
        <time>2013-05-11T12:57:22Z</time>
      </trkpt>
      <trkpt lat="40.507217" lon="-5.174833">
        <ele>1921.0</ele>
        <time>2013-05-11T12:57:23Z</time>
      </trkpt>
      <trkpt lat="40.507283" lon="-5.174850">
        <ele>1922.0</ele>
        <time>2013-05-11T12:57:24Z</time>
      </trkpt>
      <trkpt lat="40.507350" lon="-5.174867">
        <ele>1923.0</ele>
        <time>2013-05-11T12:57:25Z</time>
      </trkpt>
      <trkpt lat="40.507400" lon="-5.174900">
        <ele>1922.0</ele>
        <time>2013-05-11T12:57:26Z</time>
      </trkpt>
      <trkpt lat="40.507433" lon="-5.174950">
        <ele>1920.0</ele>
        <time>2013-05-11T12:57:27Z</time>
      </trkpt>
      <trkpt lat="40.507500" lon="-5.175017">
        <ele>1917.0</ele>
        <time>2013-05-11T12:57:28Z</time>
      </trkpt>
      <trkpt lat="40.507533" lon="-5.175100">
        <ele>1915.0</ele>
        <time>2013-05-11T12:57:29Z</time>
      </trkpt>
      <trkpt lat="40.507567" lon="-5.175217">
        <ele>1914.0</ele>
        <time>2013-05-11T12:57:30Z</time>
      </trkpt>
      <trkpt lat="40.507600" lon="-5.175317">
        <ele>1914.0</ele>
        <time>2013-05-11T12:57:31Z</time>
      </trkpt>
      <trkpt lat="40.507617" lon="-5.175400">
        <ele>1914.0</ele>
        <time>2013-05-11T12:57:32Z</time>
      </trkpt>
      <trkpt lat="40.507633" lon="-5.175483">
        <ele>1915.0</ele>
        <time>2013-05-11T12:57:33Z</time>
      </trkpt>
      <trkpt lat="40.507650" lon="-5.175567">
        <ele>1916.0</ele>
        <time>2013-05-11T12:57:34Z</time>
      </trkpt>
      <trkpt lat="40.507650" lon="-5.175650">
        <ele>1917.0</ele>
        <time>2013-05-11T12:57:35Z</time>
      </trkpt>
      <trkpt lat="40.507650" lon="-5.175733">
        <ele>1918.0</ele>
        <time>2013-05-11T12:57:36Z</time>
      </trkpt>
      <trkpt lat="40.507633" lon="-5.175817">
        <ele>1918.0</ele>
        <time>2013-05-11T12:57:37Z</time>
      </trkpt>
      <trkpt lat="40.507600" lon="-5.175883">
        <ele>1919.0</ele>
        <time>2013-05-11T12:57:38Z</time>
      </trkpt>
      <trkpt lat="40.507567" lon="-5.175967">
        <ele>1919.0</ele>
        <time>2013-05-11T12:57:39Z</time>
      </trkpt>
      <trkpt lat="40.507533" lon="-5.176050">
        <ele>1920.0</ele>
        <time>2013-05-11T12:57:40Z</time>
      </trkpt>
      <trkpt lat="40.507483" lon="-5.176133">
        <ele>1921.0</ele>
        <time>2013-05-11T12:57:41Z</time>
      </trkpt>
      <trkpt lat="40.507433" lon="-5.176200">
        <ele>1922.0</ele>
        <time>2013-05-11T12:57:42Z</time>
      </trkpt>
      <trkpt lat="40.507367" lon="-5.176267">
        <ele>1922.0</ele>
        <time>2013-05-11T12:57:43Z</time>
      </trkpt>
      <trkpt lat="40.507283" lon="-5.176333">
        <ele>1923.0</ele>
        <time>2013-05-11T12:57:44Z</time>
      </trkpt>
      <trkpt lat="40.507200" lon="-5.176400">
        <ele>1924.0</ele>
        <time>2013-05-11T12:57:45Z</time>
      </trkpt>
      <trkpt lat="40.507133" lon="-5.176467">
        <ele>1925.0</ele>
        <time>2013-05-11T12:57:46Z</time>
      </trkpt>
      <trkpt lat="40.507067" lon="-5.176533">
        <ele>1926.0</ele>
        <time>2013-05-11T12:57:47Z</time>
      </trkpt>
      <trkpt lat="40.507000" lon="-5.176617">
        <ele>1926.0</ele>
        <time>2013-05-11T12:57:48Z</time>
      </trkpt>
      <trkpt lat="40.506967" lon="-5.176700">
        <ele>1926.0</ele>
        <time>2013-05-11T12:57:49Z</time>
      </trkpt>
      <trkpt lat="40.506933" lon="-5.176783">
        <ele>1926.0</ele>
        <time>2013-05-11T12:57:50Z</time>
      </trkpt>
      <trkpt lat="40.506900" lon="-5.176867">
        <ele>1925.0</ele>
        <time>2013-05-11T12:57:51Z</time>
      </trkpt>
      <trkpt lat="40.506883" lon="-5.176950">
        <ele>1924.0</ele>
        <time>2013-05-11T12:57:52Z</time>
      </trkpt>
      <trkpt lat="40.506867" lon="-5.177017">
        <ele>1923.0</ele>
        <time>2013-05-11T12:57:53Z</time>
      </trkpt>
      <trkpt lat="40.506867" lon="-5.177100">
        <ele>1922.0</ele>
        <time>2013-05-11T12:57:54Z</time>
      </trkpt>
      <trkpt lat="40.506850" lon="-5.177183">
        <ele>1921.0</ele>
        <time>2013-05-11T12:57:55Z</time>
      </trkpt>
      <trkpt lat="40.506867" lon="-5.177267">
        <ele>1920.0</ele>
        <time>2013-05-11T12:57:56Z</time>
      </trkpt>
      <trkpt lat="40.506883" lon="-5.177333">
        <ele>1920.0</ele>
        <time>2013-05-11T12:57:57Z</time>
      </trkpt>
      <trkpt lat="40.506917" lon="-5.177400">
        <ele>1920.0</ele>
        <time>2013-05-11T12:57:58Z</time>
      </trkpt>
      <trkpt lat="40.506933" lon="-5.177450">
        <ele>1920.0</ele>
        <time>2013-05-11T12:57:59Z</time>
      </trkpt>
      <trkpt lat="40.506983" lon="-5.177500">
        <ele>1920.0</ele>
        <time>2013-05-11T12:58:00Z</time>
      </trkpt>
      <trkpt lat="40.507033" lon="-5.177533">
        <ele>1918.0</ele>
        <time>2013-05-11T12:58:01Z</time>
      </trkpt>
      <trkpt lat="40.507100" lon="-5.177567">
        <ele>1916.0</ele>
        <time>2013-05-11T12:58:02Z</time>
      </trkpt>
      <trkpt lat="40.507167" lon="-5.177583">
        <ele>1915.0</ele>
        <time>2013-05-11T12:58:03Z</time>
      </trkpt>
      <trkpt lat="40.507250" lon="-5.177567">
        <ele>1914.0</ele>
        <time>2013-05-11T12:58:04Z</time>
      </trkpt>
      <trkpt lat="40.507333" lon="-5.177550">
        <ele>1914.0</ele>
        <time>2013-05-11T12:58:05Z</time>
      </trkpt>
      <trkpt lat="40.507400" lon="-5.177517">
        <ele>1914.0</ele>
        <time>2013-05-11T12:58:06Z</time>
      </trkpt>
      <trkpt lat="40.507483" lon="-5.177483">
        <ele>1915.0</ele>
        <time>2013-05-11T12:58:07Z</time>
      </trkpt>
      <trkpt lat="40.507550" lon="-5.177450">
        <ele>1916.0</ele>
        <time>2013-05-11T12:58:08Z</time>
      </trkpt>
      <trkpt lat="40.507617" lon="-5.177417">
        <ele>1917.0</ele>
        <time>2013-05-11T12:58:09Z</time>
      </trkpt>
      <trkpt lat="40.507667" lon="-5.177367">
        <ele>1919.0</ele>
        <time>2013-05-11T12:58:10Z</time>
      </trkpt>
      <trkpt lat="40.507733" lon="-5.177317">
        <ele>1921.0</ele>
        <time>2013-05-11T12:58:11Z</time>
      </trkpt>
      <trkpt lat="40.507800" lon="-5.177250">
        <ele>1922.0</ele>
        <time>2013-05-11T12:58:12Z</time>
      </trkpt>
      <trkpt lat="40.507850" lon="-5.177167">
        <ele>1924.0</ele>
        <time>2013-05-11T12:58:13Z</time>
      </trkpt>
      <trkpt lat="40.507900" lon="-5.177083">
        <ele>1926.0</ele>
        <time>2013-05-11T12:58:14Z</time>
      </trkpt>
      <trkpt lat="40.507950" lon="-5.176983">
        <ele>1928.0</ele>
        <time>2013-05-11T12:58:15Z</time>
      </trkpt>
      <trkpt lat="40.507983" lon="-5.176867">
        <ele>1929.0</ele>
        <time>2013-05-11T12:58:16Z</time>
      </trkpt>
      <trkpt lat="40.508017" lon="-5.176733">
        <ele>1930.0</ele>
        <time>2013-05-11T12:58:17Z</time>
      </trkpt>
      <trkpt lat="40.508050" lon="-5.176583">
        <ele>1931.0</ele>
        <time>2013-05-11T12:58:18Z</time>
      </trkpt>
      <trkpt lat="40.508050" lon="-5.176450">
        <ele>1932.0</ele>
        <time>2013-05-11T12:58:19Z</time>
      </trkpt>
      <trkpt lat="40.508050" lon="-5.176300">
        <ele>1933.0</ele>
        <time>2013-05-11T12:58:20Z</time>
      </trkpt>
      <trkpt lat="40.508050" lon="-5.176150">
        <ele>1934.0</ele>
        <time>2013-05-11T12:58:21Z</time>
      </trkpt>
      <trkpt lat="40.508033" lon="-5.175983">
        <ele>1934.0</ele>
        <time>2013-05-11T12:58:22Z</time>
      </trkpt>
      <trkpt lat="40.508000" lon="-5.175833">
        <ele>1934.0</ele>
        <time>2013-05-11T12:58:23Z</time>
      </trkpt>
      <trkpt lat="40.507967" lon="-5.175683">
        <ele>1935.0</ele>
        <time>2013-05-11T12:58:24Z</time>
      </trkpt>
      <trkpt lat="40.507917" lon="-5.175533">
        <ele>1934.0</ele>
        <time>2013-05-11T12:58:25Z</time>
      </trkpt>
      <trkpt lat="40.507883" lon="-5.175383">
        <ele>1934.0</ele>
        <time>2013-05-11T12:58:26Z</time>
      </trkpt>
      <trkpt lat="40.507850" lon="-5.175250">
        <ele>1934.0</ele>
        <time>2013-05-11T12:58:27Z</time>
      </trkpt>
      <trkpt lat="40.507833" lon="-5.175100">
        <ele>1934.0</ele>
        <time>2013-05-11T12:58:28Z</time>
      </trkpt>
      <trkpt lat="40.507800" lon="-5.174950">
        <ele>1933.0</ele>
        <time>2013-05-11T12:58:29Z</time>
      </trkpt>
      <trkpt lat="40.507800" lon="-5.174800">
        <ele>1931.0</ele>
        <time>2013-05-11T12:58:30Z</time>
      </trkpt>
      <trkpt lat="40.507800" lon="-5.174650">
        <ele>1931.0</ele>
        <time>2013-05-11T12:58:31Z</time>
      </trkpt>
      <trkpt lat="40.507833" lon="-5.174500">
        <ele>1930.0</ele>
        <time>2013-05-11T12:58:32Z</time>
      </trkpt>
      <trkpt lat="40.507883" lon="-5.174367">
        <ele>1930.0</ele>
        <time>2013-05-11T12:58:33Z</time>
      </trkpt>
      <trkpt lat="40.507933" lon="-5.174233">
        <ele>1930.0</ele>
        <time>2013-05-11T12:58:34Z</time>
      </trkpt>
      <trkpt lat="40.507983" lon="-5.174117">
        <ele>1931.0</ele>
        <time>2013-05-11T12:58:35Z</time>
      </trkpt>
      <trkpt lat="40.508033" lon="-5.174017">
        <ele>1931.0</ele>
        <time>2013-05-11T12:58:36Z</time>
      </trkpt>
      <trkpt lat="40.508083" lon="-5.173933">
        <ele>1930.0</ele>
        <time>2013-05-11T12:58:37Z</time>
      </trkpt>
      <trkpt lat="40.508133" lon="-5.173867">
        <ele>1929.0</ele>
        <time>2013-05-11T12:58:38Z</time>
      </trkpt>
      <trkpt lat="40.508200" lon="-5.173800">
        <ele>1927.0</ele>
        <time>2013-05-11T12:58:39Z</time>
      </trkpt>
      <trkpt lat="40.508283" lon="-5.173767">
        <ele>1924.0</ele>
        <time>2013-05-11T12:58:40Z</time>
      </trkpt>
      <trkpt lat="40.508367" lon="-5.173733">
        <ele>1922.0</ele>
        <time>2013-05-11T12:58:41Z</time>
      </trkpt>
      <trkpt lat="40.508433" lon="-5.173733">
        <ele>1921.0</ele>
        <time>2013-05-11T12:58:42Z</time>
      </trkpt>
      <trkpt lat="40.508517" lon="-5.173733">
        <ele>1920.0</ele>
        <time>2013-05-11T12:58:43Z</time>
      </trkpt>
      <trkpt lat="40.508583" lon="-5.173717">
        <ele>1919.0</ele>
        <time>2013-05-11T12:58:44Z</time>
      </trkpt>
      <trkpt lat="40.508667" lon="-5.173700">
        <ele>1918.0</ele>
        <time>2013-05-11T12:58:45Z</time>
      </trkpt>
      <trkpt lat="40.508733" lon="-5.173700">
        <ele>1916.0</ele>
        <time>2013-05-11T12:58:46Z</time>
      </trkpt>
      <trkpt lat="40.508817" lon="-5.173700">
        <ele>1915.0</ele>
        <time>2013-05-11T12:58:47Z</time>
      </trkpt>
      <trkpt lat="40.508883" lon="-5.173700">
        <ele>1914.0</ele>
        <time>2013-05-11T12:58:48Z</time>
      </trkpt>
      <trkpt lat="40.508950" lon="-5.173683">
        <ele>1913.0</ele>
        <time>2013-05-11T12:58:49Z</time>
      </trkpt>
      <trkpt lat="40.509033" lon="-5.173650">
        <ele>1911.0</ele>
        <time>2013-05-11T12:58:50Z</time>
      </trkpt>
      <trkpt lat="40.509100" lon="-5.173600">
        <ele>1909.0</ele>
        <time>2013-05-11T12:58:51Z</time>
      </trkpt>
      <trkpt lat="40.509200" lon="-5.173550">
        <ele>1908.0</ele>
        <time>2013-05-11T12:58:52Z</time>
      </trkpt>
      <trkpt lat="40.509267" lon="-5.173483">
        <ele>1907.0</ele>
        <time>2013-05-11T12:58:53Z</time>
      </trkpt>
      <trkpt lat="40.509350" lon="-5.173433">
        <ele>1906.0</ele>
        <time>2013-05-11T12:58:54Z</time>
      </trkpt>
      <trkpt lat="40.509417" lon="-5.173350">
        <ele>1904.0</ele>
        <time>2013-05-11T12:58:55Z</time>
      </trkpt>
      <trkpt lat="40.509483" lon="-5.173283">
        <ele>1902.0</ele>
        <time>2013-05-11T12:58:56Z</time>
      </trkpt>
      <trkpt lat="40.509567" lon="-5.173233">
        <ele>1900.0</ele>
        <time>2013-05-11T12:58:57Z</time>
      </trkpt>
      <trkpt lat="40.509633" lon="-5.173200">
        <ele>1897.0</ele>
        <time>2013-05-11T12:58:58Z</time>
      </trkpt>
      <trkpt lat="40.509717" lon="-5.173183">
        <ele>1895.0</ele>
        <time>2013-05-11T12:58:59Z</time>
      </trkpt>
      <trkpt lat="40.509783" lon="-5.173167">
        <ele>1892.0</ele>
        <time>2013-05-11T12:59:00Z</time>
      </trkpt>
      <trkpt lat="40.509850" lon="-5.173133">
        <ele>1890.0</ele>
        <time>2013-05-11T12:59:01Z</time>
      </trkpt>
      <trkpt lat="40.509900" lon="-5.173083">
        <ele>1888.0</ele>
        <time>2013-05-11T12:59:02Z</time>
      </trkpt>
      <trkpt lat="40.509967" lon="-5.173033">
        <ele>1885.0</ele>
        <time>2013-05-11T12:59:03Z</time>
      </trkpt>
      <trkpt lat="40.510033" lon="-5.172983">
        <ele>1881.0</ele>
        <time>2013-05-11T12:59:04Z</time>
      </trkpt>
      <trkpt lat="40.510100" lon="-5.172933">
        <ele>1878.0</ele>
        <time>2013-05-11T12:59:05Z</time>
      </trkpt>
      <trkpt lat="40.510183" lon="-5.172900">
        <ele>1874.0</ele>
        <time>2013-05-11T12:59:06Z</time>
      </trkpt>
      <trkpt lat="40.510250" lon="-5.172867">
        <ele>1872.0</ele>
        <time>2013-05-11T12:59:07Z</time>
      </trkpt>
      <trkpt lat="40.510317" lon="-5.172817">
        <ele>1869.0</ele>
        <time>2013-05-11T12:59:08Z</time>
      </trkpt>
      <trkpt lat="40.510383" lon="-5.172767">
        <ele>1866.0</ele>
        <time>2013-05-11T12:59:09Z</time>
      </trkpt>
      <trkpt lat="40.510450" lon="-5.172717">
        <ele>1863.0</ele>
        <time>2013-05-11T12:59:10Z</time>
      </trkpt>
      <trkpt lat="40.510517" lon="-5.172667">
        <ele>1859.0</ele>
        <time>2013-05-11T12:59:11Z</time>
      </trkpt>
      <trkpt lat="40.510583" lon="-5.172617">
        <ele>1855.0</ele>
        <time>2013-05-11T12:59:12Z</time>
      </trkpt>
      <trkpt lat="40.510667" lon="-5.172567">
        <ele>1852.0</ele>
        <time>2013-05-11T12:59:13Z</time>
      </trkpt>
      <trkpt lat="40.510750" lon="-5.172500">
        <ele>1851.0</ele>
        <time>2013-05-11T12:59:14Z</time>
      </trkpt>
      <trkpt lat="40.510833" lon="-5.172433">
        <ele>1852.0</ele>
        <time>2013-05-11T12:59:15Z</time>
      </trkpt>
      <trkpt lat="40.510900" lon="-5.172350">
        <ele>1854.0</ele>
        <time>2013-05-11T12:59:16Z</time>
      </trkpt>
      <trkpt lat="40.510950" lon="-5.172250">
        <ele>1855.0</ele>
        <time>2013-05-11T12:59:17Z</time>
      </trkpt>
      <trkpt lat="40.510983" lon="-5.172167">
        <ele>1857.0</ele>
        <time>2013-05-11T12:59:18Z</time>
      </trkpt>
      <trkpt lat="40.511017" lon="-5.172083">
        <ele>1858.0</ele>
        <time>2013-05-11T12:59:19Z</time>
      </trkpt>
      <trkpt lat="40.511050" lon="-5.171983">
        <ele>1860.0</ele>
        <time>2013-05-11T12:59:20Z</time>
      </trkpt>
      <trkpt lat="40.511067" lon="-5.171867">
        <ele>1862.0</ele>
        <time>2013-05-11T12:59:21Z</time>
      </trkpt>
      <trkpt lat="40.511067" lon="-5.171733">
        <ele>1865.0</ele>
        <time>2013-05-11T12:59:22Z</time>
      </trkpt>
      <trkpt lat="40.511100" lon="-5.171617">
        <ele>1868.0</ele>
        <time>2013-05-11T12:59:23Z</time>
      </trkpt>
      <trkpt lat="40.511150" lon="-5.171517">
        <ele>1871.0</ele>
        <time>2013-05-11T12:59:24Z</time>
      </trkpt>
      <trkpt lat="40.511217" lon="-5.171450">
        <ele>1873.0</ele>
        <time>2013-05-11T12:59:25Z</time>
      </trkpt>
      <trkpt lat="40.511283" lon="-5.171400">
        <ele>1877.0</ele>
        <time>2013-05-11T12:59:26Z</time>
      </trkpt>
      <trkpt lat="40.511333" lon="-5.171383">
        <ele>1881.0</ele>
        <time>2013-05-11T12:59:27Z</time>
      </trkpt>
      <trkpt lat="40.511383" lon="-5.171383">
        <ele>1883.0</ele>
        <time>2013-05-11T12:59:28Z</time>
      </trkpt>
      <trkpt lat="40.511417" lon="-5.171400">
        <ele>1884.0</ele>
        <time>2013-05-11T12:59:29Z</time>
      </trkpt>
      <trkpt lat="40.511467" lon="-5.171450">
        <ele>1884.0</ele>
        <time>2013-05-11T12:59:30Z</time>
      </trkpt>
      <trkpt lat="40.511500" lon="-5.171500">
        <ele>1884.0</ele>
        <time>2013-05-11T12:59:31Z</time>
      </trkpt>
      <trkpt lat="40.511533" lon="-5.171567">
        <ele>1885.0</ele>
        <time>2013-05-11T12:59:32Z</time>
      </trkpt>
      <trkpt lat="40.511517" lon="-5.171633">
        <ele>1887.0</ele>
        <time>2013-05-11T12:59:33Z</time>
      </trkpt>
      <trkpt lat="40.511483" lon="-5.171683">
        <ele>1888.0</ele>
        <time>2013-05-11T12:59:34Z</time>
      </trkpt>
      <trkpt lat="40.511417" lon="-5.171733">
        <ele>1888.0</ele>
        <time>2013-05-11T12:59:35Z</time>
      </trkpt>
      <trkpt lat="40.511367" lon="-5.171783">
        <ele>1889.0</ele>
        <time>2013-05-11T12:59:36Z</time>
      </trkpt>
      <trkpt lat="40.511283" lon="-5.171833">
        <ele>1890.0</ele>
        <time>2013-05-11T12:59:37Z</time>
      </trkpt>
      <trkpt lat="40.511200" lon="-5.171867">
        <ele>1892.0</ele>
        <time>2013-05-11T12:59:38Z</time>
      </trkpt>
      <trkpt lat="40.511117" lon="-5.171850">
        <ele>1894.0</ele>
        <time>2013-05-11T12:59:39Z</time>
      </trkpt>
      <trkpt lat="40.511017" lon="-5.171800">
        <ele>1896.0</ele>
        <time>2013-05-11T12:59:40Z</time>
      </trkpt>
      <trkpt lat="40.510933" lon="-5.171717">
        <ele>1899.0</ele>
        <time>2013-05-11T12:59:41Z</time>
      </trkpt>
      <trkpt lat="40.510850" lon="-5.171633">
        <ele>1902.0</ele>
        <time>2013-05-11T12:59:42Z</time>
      </trkpt>
      <trkpt lat="40.510783" lon="-5.171550">
        <ele>1906.0</ele>
        <time>2013-05-11T12:59:43Z</time>
      </trkpt>
      <trkpt lat="40.510700" lon="-5.171467">
        <ele>1911.0</ele>
        <time>2013-05-11T12:59:44Z</time>
      </trkpt>
      <trkpt lat="40.510650" lon="-5.171383">
        <ele>1914.0</ele>
        <time>2013-05-11T12:59:45Z</time>
      </trkpt>
      <trkpt lat="40.510600" lon="-5.171283">
        <ele>1916.0</ele>
        <time>2013-05-11T12:59:46Z</time>
      </trkpt>
      <trkpt lat="40.510550" lon="-5.171167">
        <ele>1918.0</ele>
        <time>2013-05-11T12:59:47Z</time>
      </trkpt>
      <trkpt lat="40.510517" lon="-5.171033">
        <ele>1920.0</ele>
        <time>2013-05-11T12:59:48Z</time>
      </trkpt>
      <trkpt lat="40.510500" lon="-5.170900">
        <ele>1920.0</ele>
        <time>2013-05-11T12:59:49Z</time>
      </trkpt>
      <trkpt lat="40.510500" lon="-5.170750">
        <ele>1921.0</ele>
        <time>2013-05-11T12:59:50Z</time>
      </trkpt>
      <trkpt lat="40.510550" lon="-5.170617">
        <ele>1922.0</ele>
        <time>2013-05-11T12:59:51Z</time>
      </trkpt>
      <trkpt lat="40.510617" lon="-5.170517">
        <ele>1926.0</ele>
        <time>2013-05-11T12:59:52Z</time>
      </trkpt>
      <trkpt lat="40.510650" lon="-5.170450">
        <ele>1931.0</ele>
        <time>2013-05-11T12:59:53Z</time>
      </trkpt>
      <trkpt lat="40.510683" lon="-5.170383">
        <ele>1934.0</ele>
        <time>2013-05-11T12:59:54Z</time>
      </trkpt>
      <trkpt lat="40.510700" lon="-5.170317">
        <ele>1937.0</ele>
        <time>2013-05-11T12:59:55Z</time>
      </trkpt>
      <trkpt lat="40.510733" lon="-5.170250">
        <ele>1939.0</ele>
        <time>2013-05-11T12:59:56Z</time>
      </trkpt>
      <trkpt lat="40.510783" lon="-5.170183">
        <ele>1939.0</ele>
        <time>2013-05-11T12:59:57Z</time>
      </trkpt>
      <trkpt lat="40.510850" lon="-5.170167">
        <ele>1939.0</ele>
        <time>2013-05-11T12:59:58Z</time>
      </trkpt>
      <trkpt lat="40.510933" lon="-5.170183">
        <ele>1940.0</ele>
        <time>2013-05-11T12:59:59Z</time>
      </trkpt>
      <trkpt lat="40.510983" lon="-5.170233">
        <ele>1942.0</ele>
        <time>2013-05-11T13:00:00Z</time>
      </trkpt>
      <trkpt lat="40.511017" lon="-5.170283">
        <ele>1945.0</ele>
        <time>2013-05-11T13:00:01Z</time>
      </trkpt>
      <trkpt lat="40.511050" lon="-5.170317">
        <ele>1947.0</ele>
        <time>2013-05-11T13:00:02Z</time>
      </trkpt>
      <trkpt lat="40.511067" lon="-5.170367">
        <ele>1948.0</ele>
        <time>2013-05-11T13:00:03Z</time>
      </trkpt>
      <trkpt lat="40.511083" lon="-5.170433">
        <ele>1949.0</ele>
        <time>2013-05-11T13:00:04Z</time>
      </trkpt>
      <trkpt lat="40.511100" lon="-5.170517">
        <ele>1950.0</ele>
        <time>2013-05-11T13:00:05Z</time>
      </trkpt>
      <trkpt lat="40.511100" lon="-5.170600">
        <ele>1953.0</ele>
        <time>2013-05-11T13:00:06Z</time>
      </trkpt>
      <trkpt lat="40.511083" lon="-5.170700">
        <ele>1955.0</ele>
        <time>2013-05-11T13:00:07Z</time>
      </trkpt>
      <trkpt lat="40.511050" lon="-5.170783">
        <ele>1957.0</ele>
        <time>2013-05-11T13:00:08Z</time>
      </trkpt>
      <trkpt lat="40.511017" lon="-5.170850">
        <ele>1960.0</ele>
        <time>2013-05-11T13:00:09Z</time>
      </trkpt>
      <trkpt lat="40.510983" lon="-5.170900">
        <ele>1961.0</ele>
        <time>2013-05-11T13:00:10Z</time>
      </trkpt>
      <trkpt lat="40.510950" lon="-5.170950">
        <ele>1960.0</ele>
        <time>2013-05-11T13:00:11Z</time>
      </trkpt>
      <trkpt lat="40.510883" lon="-5.171017">
        <ele>1960.0</ele>
        <time>2013-05-11T13:00:12Z</time>
      </trkpt>
      <trkpt lat="40.510800" lon="-5.171083">
        <ele>1959.0</ele>
        <time>2013-05-11T13:00:13Z</time>
      </trkpt>
      <trkpt lat="40.510717" lon="-5.171167">
        <ele>1959.0</ele>
        <time>2013-05-11T13:00:14Z</time>
      </trkpt>
      <trkpt lat="40.510633" lon="-5.171250">
        <ele>1961.0</ele>
        <time>2013-05-11T13:00:15Z</time>
      </trkpt>
      <trkpt lat="40.510583" lon="-5.171333">
        <ele>1964.0</ele>
        <time>2013-05-11T13:00:16Z</time>
      </trkpt>
      <trkpt lat="40.510517" lon="-5.171400">
        <ele>1965.0</ele>
        <time>2013-05-11T13:00:17Z</time>
      </trkpt>
      <trkpt lat="40.510433" lon="-5.171450">
        <ele>1966.0</ele>
        <time>2013-05-11T13:00:18Z</time>
      </trkpt>
      <trkpt lat="40.510367" lon="-5.171500">
        <ele>1964.0</ele>
        <time>2013-05-11T13:00:19Z</time>
      </trkpt>
      <trkpt lat="40.510300" lon="-5.171567">
        <ele>1961.0</ele>
        <time>2013-05-11T13:00:20Z</time>
      </trkpt>
      <trkpt lat="40.510250" lon="-5.171650">
        <ele>1958.0</ele>
        <time>2013-05-11T13:00:21Z</time>
      </trkpt>
      <trkpt lat="40.510217" lon="-5.171733">
        <ele>1955.0</ele>
        <time>2013-05-11T13:00:22Z</time>
      </trkpt>
      <trkpt lat="40.510217" lon="-5.171817">
        <ele>1952.0</ele>
        <time>2013-05-11T13:00:23Z</time>
      </trkpt>
      <trkpt lat="40.510217" lon="-5.171900">
        <ele>1950.0</ele>
        <time>2013-05-11T13:00:24Z</time>
      </trkpt>
      <trkpt lat="40.510250" lon="-5.171967">
        <ele>1948.0</ele>
        <time>2013-05-11T13:00:25Z</time>
      </trkpt>
      <trkpt lat="40.510283" lon="-5.172033">
        <ele>1945.0</ele>
        <time>2013-05-11T13:00:26Z</time>
      </trkpt>
      <trkpt lat="40.510317" lon="-5.172083">
        <ele>1941.0</ele>
        <time>2013-05-11T13:00:27Z</time>
      </trkpt>
      <trkpt lat="40.510367" lon="-5.172133">
        <ele>1937.0</ele>
        <time>2013-05-11T13:00:28Z</time>
      </trkpt>
      <trkpt lat="40.510417" lon="-5.172183">
        <ele>1932.0</ele>
        <time>2013-05-11T13:00:29Z</time>
      </trkpt>
      <trkpt lat="40.510483" lon="-5.172233">
        <ele>1926.0</ele>
        <time>2013-05-11T13:00:30Z</time>
      </trkpt>
      <trkpt lat="40.510567" lon="-5.172283">
        <ele>1922.0</ele>
        <time>2013-05-11T13:00:31Z</time>
      </trkpt>
      <trkpt lat="40.510667" lon="-5.172300">
        <ele>1921.0</ele>
        <time>2013-05-11T13:00:32Z</time>
      </trkpt>
      <trkpt lat="40.510750" lon="-5.172300">
        <ele>1921.0</ele>
        <time>2013-05-11T13:00:33Z</time>
      </trkpt>
      <trkpt lat="40.510833" lon="-5.172283">
        <ele>1921.0</ele>
        <time>2013-05-11T13:00:34Z</time>
      </trkpt>
      <trkpt lat="40.510900" lon="-5.172233">
        <ele>1920.0</ele>
        <time>2013-05-11T13:00:35Z</time>
      </trkpt>
      <trkpt lat="40.510967" lon="-5.172183">
        <ele>1918.0</ele>
        <time>2013-05-11T13:00:36Z</time>
      </trkpt>
      <trkpt lat="40.511017" lon="-5.172133">
        <ele>1915.0</ele>
        <time>2013-05-11T13:00:37Z</time>
      </trkpt>
      <trkpt lat="40.511100" lon="-5.172100">
        <ele>1910.0</ele>
        <time>2013-05-11T13:00:38Z</time>
      </trkpt>
      <trkpt lat="40.511183" lon="-5.172050">
        <ele>1907.0</ele>
        <time>2013-05-11T13:00:39Z</time>
      </trkpt>
      <trkpt lat="40.511283" lon="-5.172017">
        <ele>1905.0</ele>
        <time>2013-05-11T13:00:40Z</time>
      </trkpt>
      <trkpt lat="40.511367" lon="-5.172000">
        <ele>1905.0</ele>
        <time>2013-05-11T13:00:41Z</time>
      </trkpt>
      <trkpt lat="40.511450" lon="-5.171967">
        <ele>1905.0</ele>
        <time>2013-05-11T13:00:42Z</time>
      </trkpt>
      <trkpt lat="40.511517" lon="-5.171950">
        <ele>1905.0</ele>
        <time>2013-05-11T13:00:43Z</time>
      </trkpt>
      <trkpt lat="40.511600" lon="-5.171933">
        <ele>1903.0</ele>
        <time>2013-05-11T13:00:44Z</time>
      </trkpt>
      <trkpt lat="40.511683" lon="-5.171900">
        <ele>1900.0</ele>
        <time>2013-05-11T13:00:45Z</time>
      </trkpt>
      <trkpt lat="40.511767" lon="-5.171850">
        <ele>1895.0</ele>
        <time>2013-05-11T13:00:46Z</time>
      </trkpt>
      <trkpt lat="40.511867" lon="-5.171800">
        <ele>1892.0</ele>
        <time>2013-05-11T13:00:47Z</time>
      </trkpt>
      <trkpt lat="40.511950" lon="-5.171750">
        <ele>1889.0</ele>
        <time>2013-05-11T13:00:48Z</time>
      </trkpt>
      <trkpt lat="40.512033" lon="-5.171700">
        <ele>1885.0</ele>
        <time>2013-05-11T13:00:49Z</time>
      </trkpt>
      <trkpt lat="40.512133" lon="-5.171650">
        <ele>1880.0</ele>
        <time>2013-05-11T13:00:50Z</time>
      </trkpt>
      <trkpt lat="40.512233" lon="-5.171633">
        <ele>1876.0</ele>
        <time>2013-05-11T13:00:51Z</time>
      </trkpt>
      <trkpt lat="40.512350" lon="-5.171600">
        <ele>1872.0</ele>
        <time>2013-05-11T13:00:52Z</time>
      </trkpt>
      <trkpt lat="40.512483" lon="-5.171583">
        <ele>1870.0</ele>
        <time>2013-05-11T13:00:53Z</time>
      </trkpt>
      <trkpt lat="40.512600" lon="-5.171567">
        <ele>1870.0</ele>
        <time>2013-05-11T13:00:54Z</time>
      </trkpt>
      <trkpt lat="40.512700" lon="-5.171550">
        <ele>1873.0</ele>
        <time>2013-05-11T13:00:55Z</time>
      </trkpt>
      <trkpt lat="40.512783" lon="-5.171500">
        <ele>1876.0</ele>
        <time>2013-05-11T13:00:56Z</time>
      </trkpt>
      <trkpt lat="40.512833" lon="-5.171467">
        <ele>1878.0</ele>
        <time>2013-05-11T13:00:57Z</time>
      </trkpt>
      <trkpt lat="40.512900" lon="-5.171417">
        <ele>1878.0</ele>
        <time>2013-05-11T13:00:58Z</time>
      </trkpt>
      <trkpt lat="40.512967" lon="-5.171383">
        <ele>1876.0</ele>
        <time>2013-05-11T13:00:59Z</time>
      </trkpt>
      <trkpt lat="40.513050" lon="-5.171350">
        <ele>1874.0</ele>
        <time>2013-05-11T13:01:00Z</time>
      </trkpt>
      <trkpt lat="40.513133" lon="-5.171333">
        <ele>1871.0</ele>
        <time>2013-05-11T13:01:01Z</time>
      </trkpt>
      <trkpt lat="40.513217" lon="-5.171300">
        <ele>1869.0</ele>
        <time>2013-05-11T13:01:02Z</time>
      </trkpt>
      <trkpt lat="40.513283" lon="-5.171283">
        <ele>1867.0</ele>
        <time>2013-05-11T13:01:03Z</time>
      </trkpt>
      <trkpt lat="40.513367" lon="-5.171267">
        <ele>1864.0</ele>
        <time>2013-05-11T13:01:04Z</time>
      </trkpt>
      <trkpt lat="40.513450" lon="-5.171250">
        <ele>1860.0</ele>
        <time>2013-05-11T13:01:05Z</time>
      </trkpt>
      <trkpt lat="40.513533" lon="-5.171250">
        <ele>1856.0</ele>
        <time>2013-05-11T13:01:06Z</time>
      </trkpt>
      <trkpt lat="40.513633" lon="-5.171250">
        <ele>1853.0</ele>
        <time>2013-05-11T13:01:07Z</time>
      </trkpt>
      <trkpt lat="40.513733" lon="-5.171250">
        <ele>1851.0</ele>
        <time>2013-05-11T13:01:08Z</time>
      </trkpt>
      <trkpt lat="40.513817" lon="-5.171267">
        <ele>1849.0</ele>
        <time>2013-05-11T13:01:09Z</time>
      </trkpt>
      <trkpt lat="40.513883" lon="-5.171300">
        <ele>1848.0</ele>
        <time>2013-05-11T13:01:10Z</time>
      </trkpt>
      <trkpt lat="40.513933" lon="-5.171317">
        <ele>1845.0</ele>
        <time>2013-05-11T13:01:11Z</time>
      </trkpt>
      <trkpt lat="40.514017" lon="-5.171333">
        <ele>1842.0</ele>
        <time>2013-05-11T13:01:12Z</time>
      </trkpt>
      <trkpt lat="40.514100" lon="-5.171350">
        <ele>1838.0</ele>
        <time>2013-05-11T13:01:13Z</time>
      </trkpt>
      <trkpt lat="40.514183" lon="-5.171350">
        <ele>1835.0</ele>
        <time>2013-05-11T13:01:14Z</time>
      </trkpt>
      <trkpt lat="40.514267" lon="-5.171367">
        <ele>1833.0</ele>
        <time>2013-05-11T13:01:15Z</time>
      </trkpt>
      <trkpt lat="40.514333" lon="-5.171367">
        <ele>1832.0</ele>
        <time>2013-05-11T13:01:16Z</time>
      </trkpt>
      <trkpt lat="40.514400" lon="-5.171367">
        <ele>1829.0</ele>
        <time>2013-05-11T13:01:17Z</time>
      </trkpt>
      <trkpt lat="40.514467" lon="-5.171383">
        <ele>1825.0</ele>
        <time>2013-05-11T13:01:18Z</time>
      </trkpt>
      <trkpt lat="40.514550" lon="-5.171383">
        <ele>1820.0</ele>
        <time>2013-05-11T13:01:19Z</time>
      </trkpt>
      <trkpt lat="40.514633" lon="-5.171400">
        <ele>1816.0</ele>
        <time>2013-05-11T13:01:20Z</time>
      </trkpt>
      <trkpt lat="40.514733" lon="-5.171400">
        <ele>1813.0</ele>
        <time>2013-05-11T13:01:21Z</time>
      </trkpt>
      <trkpt lat="40.514817" lon="-5.171433">
        <ele>1811.0</ele>
        <time>2013-05-11T13:01:22Z</time>
      </trkpt>
      <trkpt lat="40.514900" lon="-5.171450">
        <ele>1809.0</ele>
        <time>2013-05-11T13:01:23Z</time>
      </trkpt>
      <trkpt lat="40.514967" lon="-5.171467">
        <ele>1807.0</ele>
        <time>2013-05-11T13:01:24Z</time>
      </trkpt>
      <trkpt lat="40.515033" lon="-5.171483">
        <ele>1804.0</ele>
        <time>2013-05-11T13:01:25Z</time>
      </trkpt>
      <trkpt lat="40.515117" lon="-5.171467">
        <ele>1801.0</ele>
        <time>2013-05-11T13:01:26Z</time>
      </trkpt>
      <trkpt lat="40.515200" lon="-5.171467">
        <ele>1798.0</ele>
        <time>2013-05-11T13:01:27Z</time>
      </trkpt>
      <trkpt lat="40.515300" lon="-5.171467">
        <ele>1795.0</ele>
        <time>2013-05-11T13:01:28Z</time>
      </trkpt>
      <trkpt lat="40.515383" lon="-5.171483">
        <ele>1795.0</ele>
        <time>2013-05-11T13:01:29Z</time>
      </trkpt>
      <trkpt lat="40.515467" lon="-5.171483">
        <ele>1795.0</ele>
        <time>2013-05-11T13:01:30Z</time>
      </trkpt>
      <trkpt lat="40.515533" lon="-5.171483">
        <ele>1794.0</ele>
        <time>2013-05-11T13:01:31Z</time>
      </trkpt>
      <trkpt lat="40.515600" lon="-5.171483">
        <ele>1793.0</ele>
        <time>2013-05-11T13:01:32Z</time>
      </trkpt>
      <trkpt lat="40.515683" lon="-5.171500">
        <ele>1791.0</ele>
        <time>2013-05-11T13:01:33Z</time>
      </trkpt>
      <trkpt lat="40.515750" lon="-5.171517">
        <ele>1789.0</ele>
        <time>2013-05-11T13:01:34Z</time>
      </trkpt>
      <trkpt lat="40.515833" lon="-5.171533">
        <ele>1788.0</ele>
        <time>2013-05-11T13:01:35Z</time>
      </trkpt>
      <trkpt lat="40.515900" lon="-5.171550">
        <ele>1786.0</ele>
        <time>2013-05-11T13:01:36Z</time>
      </trkpt>
      <trkpt lat="40.515967" lon="-5.171567">
        <ele>1785.0</ele>
        <time>2013-05-11T13:01:37Z</time>
      </trkpt>
      <trkpt lat="40.516050" lon="-5.171583">
        <ele>1783.0</ele>
        <time>2013-05-11T13:01:38Z</time>
      </trkpt>
      <trkpt lat="40.516117" lon="-5.171600">
        <ele>1782.0</ele>
        <time>2013-05-11T13:01:39Z</time>
      </trkpt>
      <trkpt lat="40.516200" lon="-5.171617">
        <ele>1780.0</ele>
        <time>2013-05-11T13:01:40Z</time>
      </trkpt>
      <trkpt lat="40.516267" lon="-5.171633">
        <ele>1778.0</ele>
        <time>2013-05-11T13:01:41Z</time>
      </trkpt>
      <trkpt lat="40.516333" lon="-5.171650">
        <ele>1775.0</ele>
        <time>2013-05-11T13:01:42Z</time>
      </trkpt>
      <trkpt lat="40.516400" lon="-5.171667">
        <ele>1772.0</ele>
        <time>2013-05-11T13:01:43Z</time>
      </trkpt>
      <trkpt lat="40.516467" lon="-5.171700">
        <ele>1769.0</ele>
        <time>2013-05-11T13:01:44Z</time>
      </trkpt>
      <trkpt lat="40.516550" lon="-5.171717">
        <ele>1767.0</ele>
        <time>2013-05-11T13:01:45Z</time>
      </trkpt>
      <trkpt lat="40.516633" lon="-5.171733">
        <ele>1764.0</ele>
        <time>2013-05-11T13:01:46Z</time>
      </trkpt>
      <trkpt lat="40.516700" lon="-5.171767">
        <ele>1762.0</ele>
        <time>2013-05-11T13:01:47Z</time>
      </trkpt>
      <trkpt lat="40.516783" lon="-5.171800">
        <ele>1759.0</ele>
        <time>2013-05-11T13:01:48Z</time>
      </trkpt>
      <trkpt lat="40.516850" lon="-5.171833">
        <ele>1756.0</ele>
        <time>2013-05-11T13:01:49Z</time>
      </trkpt>
      <trkpt lat="40.516933" lon="-5.171867">
        <ele>1753.0</ele>
        <time>2013-05-11T13:01:50Z</time>
      </trkpt>
      <trkpt lat="40.517017" lon="-5.171900">
        <ele>1751.0</ele>
        <time>2013-05-11T13:01:51Z</time>
      </trkpt>
      <trkpt lat="40.517100" lon="-5.171933">
        <ele>1749.0</ele>
        <time>2013-05-11T13:01:52Z</time>
      </trkpt>
      <trkpt lat="40.517167" lon="-5.171983">
        <ele>1747.0</ele>
        <time>2013-05-11T13:01:53Z</time>
      </trkpt>
      <trkpt lat="40.517250" lon="-5.172000">
        <ele>1746.0</ele>
        <time>2013-05-11T13:01:54Z</time>
      </trkpt>
      <trkpt lat="40.517333" lon="-5.172017">
        <ele>1743.0</ele>
        <time>2013-05-11T13:01:55Z</time>
      </trkpt>
      <trkpt lat="40.517417" lon="-5.172033">
        <ele>1741.0</ele>
        <time>2013-05-11T13:01:56Z</time>
      </trkpt>
      <trkpt lat="40.517500" lon="-5.172067">
        <ele>1739.0</ele>
        <time>2013-05-11T13:01:57Z</time>
      </trkpt>
      <trkpt lat="40.517583" lon="-5.172100">
        <ele>1737.0</ele>
        <time>2013-05-11T13:01:58Z</time>
      </trkpt>
      <trkpt lat="40.517650" lon="-5.172133">
        <ele>1736.0</ele>
        <time>2013-05-11T13:01:59Z</time>
      </trkpt>
      <trkpt lat="40.517717" lon="-5.172167">
        <ele>1736.0</ele>
        <time>2013-05-11T13:02:00Z</time>
      </trkpt>
      <trkpt lat="40.517783" lon="-5.172183">
        <ele>1734.0</ele>
        <time>2013-05-11T13:02:01Z</time>
      </trkpt>
      <trkpt lat="40.517850" lon="-5.172183">
        <ele>1731.0</ele>
        <time>2013-05-11T13:02:02Z</time>
      </trkpt>
      <trkpt lat="40.517933" lon="-5.172200">
        <ele>1728.0</ele>
        <time>2013-05-11T13:02:03Z</time>
      </trkpt>
      <trkpt lat="40.518017" lon="-5.172217">
        <ele>1724.0</ele>
        <time>2013-05-11T13:02:04Z</time>
      </trkpt>
      <trkpt lat="40.518100" lon="-5.172250">
        <ele>1721.0</ele>
        <time>2013-05-11T13:02:05Z</time>
      </trkpt>
      <trkpt lat="40.518183" lon="-5.172250">
        <ele>1719.0</ele>
        <time>2013-05-11T13:02:06Z</time>
      </trkpt>
      <trkpt lat="40.518267" lon="-5.172267">
        <ele>1717.0</ele>
        <time>2013-05-11T13:02:07Z</time>
      </trkpt>
      <trkpt lat="40.518350" lon="-5.172267">
        <ele>1714.0</ele>
        <time>2013-05-11T13:02:08Z</time>
      </trkpt>
      <trkpt lat="40.518433" lon="-5.172250">
        <ele>1711.0</ele>
        <time>2013-05-11T13:02:09Z</time>
      </trkpt>
      <trkpt lat="40.518517" lon="-5.172267">
        <ele>1707.0</ele>
        <time>2013-05-11T13:02:10Z</time>
      </trkpt>
      <trkpt lat="40.518617" lon="-5.172267">
        <ele>1703.0</ele>
        <time>2013-05-11T13:02:11Z</time>
      </trkpt>
      <trkpt lat="40.518717" lon="-5.172283">
        <ele>1701.0</ele>
        <time>2013-05-11T13:02:12Z</time>
      </trkpt>
      <trkpt lat="40.518817" lon="-5.172283">
        <ele>1700.0</ele>
        <time>2013-05-11T13:02:13Z</time>
      </trkpt>
      <trkpt lat="40.518917" lon="-5.172283">
        <ele>1699.0</ele>
        <time>2013-05-11T13:02:14Z</time>
      </trkpt>
      <trkpt lat="40.518983" lon="-5.172283">
        <ele>1698.0</ele>
        <time>2013-05-11T13:02:15Z</time>
      </trkpt>
      <trkpt lat="40.519067" lon="-5.172283">
        <ele>1695.0</ele>
        <time>2013-05-11T13:02:16Z</time>
      </trkpt>
      <trkpt lat="40.519150" lon="-5.172300">
        <ele>1693.0</ele>
        <time>2013-05-11T13:02:17Z</time>
      </trkpt>
      <trkpt lat="40.519250" lon="-5.172317">
        <ele>1690.0</ele>
        <time>2013-05-11T13:02:18Z</time>
      </trkpt>
      <trkpt lat="40.519333" lon="-5.172317">
        <ele>1690.0</ele>
        <time>2013-05-11T13:02:19Z</time>
      </trkpt>
      <trkpt lat="40.519417" lon="-5.172300">
        <ele>1689.0</ele>
        <time>2013-05-11T13:02:20Z</time>
      </trkpt>
      <trkpt lat="40.519500" lon="-5.172300">
        <ele>1688.0</ele>
        <time>2013-05-11T13:02:21Z</time>
      </trkpt>
      <trkpt lat="40.519567" lon="-5.172300">
        <ele>1685.0</ele>
        <time>2013-05-11T13:02:22Z</time>
      </trkpt>
      <trkpt lat="40.519633" lon="-5.172317">
        <ele>1682.0</ele>
        <time>2013-05-11T13:02:23Z</time>
      </trkpt>
      <trkpt lat="40.519733" lon="-5.172333">
        <ele>1677.0</ele>
        <time>2013-05-11T13:02:24Z</time>
      </trkpt>
      <trkpt lat="40.519850" lon="-5.172333">
        <ele>1675.0</ele>
        <time>2013-05-11T13:02:25Z</time>
      </trkpt>
      <trkpt lat="40.519950" lon="-5.172333">
        <ele>1674.0</ele>
        <time>2013-05-11T13:02:26Z</time>
      </trkpt>
      <trkpt lat="40.520050" lon="-5.172317">
        <ele>1675.0</ele>
        <time>2013-05-11T13:02:27Z</time>
      </trkpt>
      <trkpt lat="40.520133" lon="-5.172317">
        <ele>1675.0</ele>
        <time>2013-05-11T13:02:28Z</time>
      </trkpt>
      <trkpt lat="40.520200" lon="-5.172300">
        <ele>1674.0</ele>
        <time>2013-05-11T13:02:29Z</time>
      </trkpt>
      <trkpt lat="40.520283" lon="-5.172300">
        <ele>1671.0</ele>
        <time>2013-05-11T13:02:30Z</time>
      </trkpt>
      <trkpt lat="40.520367" lon="-5.172267">
        <ele>1669.0</ele>
        <time>2013-05-11T13:02:31Z</time>
      </trkpt>
      <trkpt lat="40.520467" lon="-5.172233">
        <ele>1666.0</ele>
        <time>2013-05-11T13:02:32Z</time>
      </trkpt>
      <trkpt lat="40.520567" lon="-5.172200">
        <ele>1665.0</ele>
        <time>2013-05-11T13:02:33Z</time>
      </trkpt>
      <trkpt lat="40.520667" lon="-5.172150">
        <ele>1664.0</ele>
        <time>2013-05-11T13:02:34Z</time>
      </trkpt>
      <trkpt lat="40.520750" lon="-5.172117">
        <ele>1663.0</ele>
        <time>2013-05-11T13:02:35Z</time>
      </trkpt>
      <trkpt lat="40.520833" lon="-5.172083">
        <ele>1661.0</ele>
        <time>2013-05-11T13:02:36Z</time>
      </trkpt>
      <trkpt lat="40.520917" lon="-5.172033">
        <ele>1659.0</ele>
        <time>2013-05-11T13:02:37Z</time>
      </trkpt>
      <trkpt lat="40.521017" lon="-5.171983">
        <ele>1656.0</ele>
        <time>2013-05-11T13:02:38Z</time>
      </trkpt>
      <trkpt lat="40.521117" lon="-5.171933">
        <ele>1654.0</ele>
        <time>2013-05-11T13:02:39Z</time>
      </trkpt>
      <trkpt lat="40.521217" lon="-5.171883">
        <ele>1653.0</ele>
        <time>2013-05-11T13:02:40Z</time>
      </trkpt>
      <trkpt lat="40.521300" lon="-5.171833">
        <ele>1652.0</ele>
        <time>2013-05-11T13:02:41Z</time>
      </trkpt>
      <trkpt lat="40.521383" lon="-5.171783">
        <ele>1650.0</ele>
        <time>2013-05-11T13:02:42Z</time>
      </trkpt>
      <trkpt lat="40.521467" lon="-5.171717">
        <ele>1648.0</ele>
        <time>2013-05-11T13:02:43Z</time>
      </trkpt>
      <trkpt lat="40.521533" lon="-5.171650">
        <ele>1645.0</ele>
        <time>2013-05-11T13:02:44Z</time>
      </trkpt>
      <trkpt lat="40.521617" lon="-5.171600">
        <ele>1641.0</ele>
        <time>2013-05-11T13:02:45Z</time>
      </trkpt>
      <trkpt lat="40.521717" lon="-5.171533">
        <ele>1637.0</ele>
        <time>2013-05-11T13:02:46Z</time>
      </trkpt>
      <trkpt lat="40.521817" lon="-5.171483">
        <ele>1634.0</ele>
        <time>2013-05-11T13:02:47Z</time>
      </trkpt>
      <trkpt lat="40.521917" lon="-5.171417">
        <ele>1633.0</ele>
        <time>2013-05-11T13:02:48Z</time>
      </trkpt>
      <trkpt lat="40.522017" lon="-5.171367">
        <ele>1633.0</ele>
        <time>2013-05-11T13:02:49Z</time>
      </trkpt>
      <trkpt lat="40.522100" lon="-5.171317">
        <ele>1632.0</ele>
        <time>2013-05-11T13:02:50Z</time>
      </trkpt>
      <trkpt lat="40.522167" lon="-5.171267">
        <ele>1631.0</ele>
        <time>2013-05-11T13:02:51Z</time>
      </trkpt>
      <trkpt lat="40.522250" lon="-5.171250">
        <ele>1629.0</ele>
        <time>2013-05-11T13:02:52Z</time>
      </trkpt>
      <trkpt lat="40.522350" lon="-5.171217">
        <ele>1626.0</ele>
        <time>2013-05-11T13:02:53Z</time>
      </trkpt>
      <trkpt lat="40.522433" lon="-5.171183">
        <ele>1624.0</ele>
        <time>2013-05-11T13:02:54Z</time>
      </trkpt>
      <trkpt lat="40.522533" lon="-5.171133">
        <ele>1622.0</ele>
        <time>2013-05-11T13:02:55Z</time>
      </trkpt>
      <trkpt lat="40.522633" lon="-5.171100">
        <ele>1620.0</ele>
        <time>2013-05-11T13:02:56Z</time>
      </trkpt>
      <trkpt lat="40.522733" lon="-5.171067">
        <ele>1619.0</ele>
        <time>2013-05-11T13:02:57Z</time>
      </trkpt>
      <trkpt lat="40.522817" lon="-5.171033">
        <ele>1617.0</ele>
        <time>2013-05-11T13:02:58Z</time>
      </trkpt>
      <trkpt lat="40.522900" lon="-5.171000">
        <ele>1615.0</ele>
        <time>2013-05-11T13:02:59Z</time>
      </trkpt>
      <trkpt lat="40.522983" lon="-5.170950">
        <ele>1612.0</ele>
        <time>2013-05-11T13:03:00Z</time>
      </trkpt>
      <trkpt lat="40.523083" lon="-5.170900">
        <ele>1609.0</ele>
        <time>2013-05-11T13:03:01Z</time>
      </trkpt>
      <trkpt lat="40.523183" lon="-5.170850">
        <ele>1606.0</ele>
        <time>2013-05-11T13:03:02Z</time>
      </trkpt>
      <trkpt lat="40.523283" lon="-5.170800">
        <ele>1604.0</ele>
        <time>2013-05-11T13:03:03Z</time>
      </trkpt>
      <trkpt lat="40.523383" lon="-5.170750">
        <ele>1603.0</ele>
        <time>2013-05-11T13:03:04Z</time>
      </trkpt>
      <trkpt lat="40.523467" lon="-5.170717">
        <ele>1601.0</ele>
        <time>2013-05-11T13:03:05Z</time>
      </trkpt>
      <trkpt lat="40.523567" lon="-5.170683">
        <ele>1599.0</ele>
        <time>2013-05-11T13:03:06Z</time>
      </trkpt>
      <trkpt lat="40.523650" lon="-5.170650">
        <ele>1597.0</ele>
        <time>2013-05-11T13:03:07Z</time>
      </trkpt>
      <trkpt lat="40.523750" lon="-5.170617">
        <ele>1595.0</ele>
        <time>2013-05-11T13:03:08Z</time>
      </trkpt>
      <trkpt lat="40.523850" lon="-5.170583">
        <ele>1593.0</ele>
        <time>2013-05-11T13:03:09Z</time>
      </trkpt>
      <trkpt lat="40.523967" lon="-5.170550">
        <ele>1591.0</ele>
        <time>2013-05-11T13:03:10Z</time>
      </trkpt>
      <trkpt lat="40.524067" lon="-5.170517">
        <ele>1590.0</ele>
        <time>2013-05-11T13:03:11Z</time>
      </trkpt>
      <trkpt lat="40.524167" lon="-5.170483">
        <ele>1588.0</ele>
        <time>2013-05-11T13:03:12Z</time>
      </trkpt>
      <trkpt lat="40.524267" lon="-5.170450">
        <ele>1587.0</ele>
        <time>2013-05-11T13:03:13Z</time>
      </trkpt>
      <trkpt lat="40.524350" lon="-5.170417">
        <ele>1586.0</ele>
        <time>2013-05-11T13:03:14Z</time>
      </trkpt>
      <trkpt lat="40.524450" lon="-5.170383">
        <ele>1586.0</ele>
        <time>2013-05-11T13:03:15Z</time>
      </trkpt>
      <trkpt lat="40.524533" lon="-5.170367">
        <ele>1585.0</ele>
        <time>2013-05-11T13:03:16Z</time>
      </trkpt>
      <trkpt lat="40.524617" lon="-5.170367">
        <ele>1584.0</ele>
        <time>2013-05-11T13:03:17Z</time>
      </trkpt>
      <trkpt lat="40.524700" lon="-5.170350">
        <ele>1581.0</ele>
        <time>2013-05-11T13:03:18Z</time>
      </trkpt>
      <trkpt lat="40.524800" lon="-5.170350">
        <ele>1578.0</ele>
        <time>2013-05-11T13:03:19Z</time>
      </trkpt>
      <trkpt lat="40.524900" lon="-5.170350">
        <ele>1575.0</ele>
        <time>2013-05-11T13:03:20Z</time>
      </trkpt>
      <trkpt lat="40.525017" lon="-5.170333">
        <ele>1573.0</ele>
        <time>2013-05-11T13:03:21Z</time>
      </trkpt>
      <trkpt lat="40.525117" lon="-5.170333">
        <ele>1572.0</ele>
        <time>2013-05-11T13:03:22Z</time>
      </trkpt>
      <trkpt lat="40.525233" lon="-5.170350">
        <ele>1573.0</ele>
        <time>2013-05-11T13:03:23Z</time>
      </trkpt>
      <trkpt lat="40.525317" lon="-5.170333">
        <ele>1573.0</ele>
        <time>2013-05-11T13:03:24Z</time>
      </trkpt>
      <trkpt lat="40.525400" lon="-5.170333">
        <ele>1572.0</ele>
        <time>2013-05-11T13:03:25Z</time>
      </trkpt>
      <trkpt lat="40.525483" lon="-5.170317">
        <ele>1570.0</ele>
        <time>2013-05-11T13:03:26Z</time>
      </trkpt>
      <trkpt lat="40.525567" lon="-5.170300">
        <ele>1567.0</ele>
        <time>2013-05-11T13:03:27Z</time>
      </trkpt>
      <trkpt lat="40.525667" lon="-5.170283">
        <ele>1564.0</ele>
        <time>2013-05-11T13:03:28Z</time>
      </trkpt>
      <trkpt lat="40.525767" lon="-5.170250">
        <ele>1561.0</ele>
        <time>2013-05-11T13:03:29Z</time>
      </trkpt>
      <trkpt lat="40.525900" lon="-5.170233">
        <ele>1557.0</ele>
        <time>2013-05-11T13:03:30Z</time>
      </trkpt>
      <trkpt lat="40.526050" lon="-5.170183">
        <ele>1557.0</ele>
        <time>2013-05-11T13:03:31Z</time>
      </trkpt>
      <trkpt lat="40.526167" lon="-5.170167">
        <ele>1559.0</ele>
        <time>2013-05-11T13:03:32Z</time>
      </trkpt>
      <trkpt lat="40.526283" lon="-5.170150">
        <ele>1563.0</ele>
        <time>2013-05-11T13:03:33Z</time>
      </trkpt>
      <trkpt lat="40.526383" lon="-5.170133">
        <ele>1565.0</ele>
        <time>2013-05-11T13:03:34Z</time>
      </trkpt>
      <trkpt lat="40.526450" lon="-5.170133">
        <ele>1566.0</ele>
        <time>2013-05-11T13:03:35Z</time>
      </trkpt>
      <trkpt lat="40.526533" lon="-5.170100">
        <ele>1566.0</ele>
        <time>2013-05-11T13:03:36Z</time>
      </trkpt>
      <trkpt lat="40.526617" lon="-5.170067">
        <ele>1566.0</ele>
        <time>2013-05-11T13:03:37Z</time>
      </trkpt>
      <trkpt lat="40.526717" lon="-5.170000">
        <ele>1568.0</ele>
        <time>2013-05-11T13:03:38Z</time>
      </trkpt>
      <trkpt lat="40.526800" lon="-5.169933">
        <ele>1570.0</ele>
        <time>2013-05-11T13:03:39Z</time>
      </trkpt>
      <trkpt lat="40.526867" lon="-5.169833">
        <ele>1575.0</ele>
        <time>2013-05-11T13:03:40Z</time>
      </trkpt>
      <trkpt lat="40.526917" lon="-5.169733">
        <ele>1579.0</ele>
        <time>2013-05-11T13:03:41Z</time>
      </trkpt>
      <trkpt lat="40.526933" lon="-5.169617">
        <ele>1583.0</ele>
        <time>2013-05-11T13:03:42Z</time>
      </trkpt>
      <trkpt lat="40.526950" lon="-5.169500">
        <ele>1585.0</ele>
        <time>2013-05-11T13:03:43Z</time>
      </trkpt>
      <trkpt lat="40.526950" lon="-5.169383">
        <ele>1586.0</ele>
        <time>2013-05-11T13:03:44Z</time>
      </trkpt>
      <trkpt lat="40.526933" lon="-5.169233">
        <ele>1586.0</ele>
        <time>2013-05-11T13:03:45Z</time>
      </trkpt>
      <trkpt lat="40.526867" lon="-5.169083">
        <ele>1586.0</ele>
        <time>2013-05-11T13:03:46Z</time>
      </trkpt>
      <trkpt lat="40.526783" lon="-5.168967">
        <ele>1586.0</ele>
        <time>2013-05-11T13:03:47Z</time>
      </trkpt>
      <trkpt lat="40.526667" lon="-5.168900">
        <ele>1588.0</ele>
        <time>2013-05-11T13:03:48Z</time>
      </trkpt>
      <trkpt lat="40.526567" lon="-5.168883">
        <ele>1592.0</ele>
        <time>2013-05-11T13:03:49Z</time>
      </trkpt>
      <trkpt lat="40.526483" lon="-5.168900">
        <ele>1595.0</ele>
        <time>2013-05-11T13:03:50Z</time>
      </trkpt>
      <trkpt lat="40.526417" lon="-5.168933">
        <ele>1597.0</ele>
        <time>2013-05-11T13:03:51Z</time>
      </trkpt>
      <trkpt lat="40.526367" lon="-5.168983">
        <ele>1599.0</ele>
        <time>2013-05-11T13:03:52Z</time>
      </trkpt>
      <trkpt lat="40.526350" lon="-5.169033">
        <ele>1599.0</ele>
        <time>2013-05-11T13:03:53Z</time>
      </trkpt>
      <trkpt lat="40.526333" lon="-5.169083">
        <ele>1599.0</ele>
        <time>2013-05-11T13:03:54Z</time>
      </trkpt>
      <trkpt lat="40.526333" lon="-5.169167">
        <ele>1599.0</ele>
        <time>2013-05-11T13:03:55Z</time>
      </trkpt>
      <trkpt lat="40.526367" lon="-5.169283">
        <ele>1598.0</ele>
        <time>2013-05-11T13:03:56Z</time>
      </trkpt>
      <trkpt lat="40.526433" lon="-5.169383">
        <ele>1600.0</ele>
        <time>2013-05-11T13:03:57Z</time>
      </trkpt>
      <trkpt lat="40.526500" lon="-5.169450">
        <ele>1603.0</ele>
        <time>2013-05-11T13:03:58Z</time>
      </trkpt>
      <trkpt lat="40.526550" lon="-5.169500">
        <ele>1606.0</ele>
        <time>2013-05-11T13:03:59Z</time>
      </trkpt>
      <trkpt lat="40.526600" lon="-5.169533">
        <ele>1609.0</ele>
        <time>2013-05-11T13:04:00Z</time>
      </trkpt>
      <trkpt lat="40.526650" lon="-5.169583">
        <ele>1609.0</ele>
        <time>2013-05-11T13:04:01Z</time>
      </trkpt>
      <trkpt lat="40.526733" lon="-5.169633">
        <ele>1610.0</ele>
        <time>2013-05-11T13:04:02Z</time>
      </trkpt>
      <trkpt lat="40.526817" lon="-5.169667">
        <ele>1611.0</ele>
        <time>2013-05-11T13:04:03Z</time>
      </trkpt>
      <trkpt lat="40.526883" lon="-5.169667">
        <ele>1614.0</ele>
        <time>2013-05-11T13:04:04Z</time>
      </trkpt>
      <trkpt lat="40.526967" lon="-5.169633">
        <ele>1617.0</ele>
        <time>2013-05-11T13:04:05Z</time>
      </trkpt>
      <trkpt lat="40.527017" lon="-5.169583">
        <ele>1621.0</ele>
        <time>2013-05-11T13:04:06Z</time>
      </trkpt>
      <trkpt lat="40.527083" lon="-5.169517">
        <ele>1624.0</ele>
        <time>2013-05-11T13:04:07Z</time>
      </trkpt>
      <trkpt lat="40.527133" lon="-5.169433">
        <ele>1626.0</ele>
        <time>2013-05-11T13:04:08Z</time>
      </trkpt>
      <trkpt lat="40.527183" lon="-5.169317">
        <ele>1627.0</ele>
        <time>2013-05-11T13:04:09Z</time>
      </trkpt>
      <trkpt lat="40.527217" lon="-5.169167">
        <ele>1629.0</ele>
        <time>2013-05-11T13:04:10Z</time>
      </trkpt>
      <trkpt lat="40.527233" lon="-5.169000">
        <ele>1631.0</ele>
        <time>2013-05-11T13:04:11Z</time>
      </trkpt>
      <trkpt lat="40.527233" lon="-5.168867">
        <ele>1634.0</ele>
        <time>2013-05-11T13:04:12Z</time>
      </trkpt>
      <trkpt lat="40.527217" lon="-5.168750">
        <ele>1636.0</ele>
        <time>2013-05-11T13:04:13Z</time>
      </trkpt>
      <trkpt lat="40.527200" lon="-5.168617">
        <ele>1637.0</ele>
        <time>2013-05-11T13:04:14Z</time>
      </trkpt>
      <trkpt lat="40.527150" lon="-5.168483">
        <ele>1636.0</ele>
        <time>2013-05-11T13:04:15Z</time>
      </trkpt>
      <trkpt lat="40.527067" lon="-5.168367">
        <ele>1634.0</ele>
        <time>2013-05-11T13:04:16Z</time>
      </trkpt>
      <trkpt lat="40.526967" lon="-5.168283">
        <ele>1633.0</ele>
        <time>2013-05-11T13:04:17Z</time>
      </trkpt>
      <trkpt lat="40.526850" lon="-5.168233">
        <ele>1635.0</ele>
        <time>2013-05-11T13:04:18Z</time>
      </trkpt>
      <trkpt lat="40.526767" lon="-5.168217">
        <ele>1637.0</ele>
        <time>2013-05-11T13:04:19Z</time>
      </trkpt>
      <trkpt lat="40.526683" lon="-5.168217">
        <ele>1640.0</ele>
        <time>2013-05-11T13:04:20Z</time>
      </trkpt>
      <trkpt lat="40.526633" lon="-5.168233">
        <ele>1643.0</ele>
        <time>2013-05-11T13:04:21Z</time>
      </trkpt>
      <trkpt lat="40.526600" lon="-5.168233">
        <ele>1646.0</ele>
        <time>2013-05-11T13:04:22Z</time>
      </trkpt>
      <trkpt lat="40.526550" lon="-5.168250">
        <ele>1647.0</ele>
        <time>2013-05-11T13:04:23Z</time>
      </trkpt>
      <trkpt lat="40.526483" lon="-5.168283">
        <ele>1647.0</ele>
        <time>2013-05-11T13:04:24Z</time>
      </trkpt>
      <trkpt lat="40.526433" lon="-5.168333">
        <ele>1649.0</ele>
        <time>2013-05-11T13:04:25Z</time>
      </trkpt>
      <trkpt lat="40.526400" lon="-5.168400">
        <ele>1650.0</ele>
        <time>2013-05-11T13:04:26Z</time>
      </trkpt>
      <trkpt lat="40.526400" lon="-5.168483">
        <ele>1652.0</ele>
        <time>2013-05-11T13:04:27Z</time>
      </trkpt>
      <trkpt lat="40.526417" lon="-5.168567">
        <ele>1654.0</ele>
        <time>2013-05-11T13:04:28Z</time>
      </trkpt>
      <trkpt lat="40.526433" lon="-5.168633">
        <ele>1656.0</ele>
        <time>2013-05-11T13:04:29Z</time>
      </trkpt>
      <trkpt lat="40.526467" lon="-5.168700">
        <ele>1659.0</ele>
        <time>2013-05-11T13:04:30Z</time>
      </trkpt>
      <trkpt lat="40.526517" lon="-5.168750">
        <ele>1661.0</ele>
        <time>2013-05-11T13:04:31Z</time>
      </trkpt>
      <trkpt lat="40.526583" lon="-5.168800">
        <ele>1664.0</ele>
        <time>2013-05-11T13:04:32Z</time>
      </trkpt>
      <trkpt lat="40.526650" lon="-5.168850">
        <ele>1669.0</ele>
        <time>2013-05-11T13:04:33Z</time>
      </trkpt>
      <trkpt lat="40.526700" lon="-5.168850">
        <ele>1673.0</ele>
        <time>2013-05-11T13:04:34Z</time>
      </trkpt>
      <trkpt lat="40.526750" lon="-5.168850">
        <ele>1675.0</ele>
        <time>2013-05-11T13:04:35Z</time>
      </trkpt>
      <trkpt lat="40.526817" lon="-5.168817">
        <ele>1677.0</ele>
        <time>2013-05-11T13:04:36Z</time>
      </trkpt>
      <trkpt lat="40.526900" lon="-5.168733">
        <ele>1678.0</ele>
        <time>2013-05-11T13:04:37Z</time>
      </trkpt>
      <trkpt lat="40.526983" lon="-5.168650">
        <ele>1679.0</ele>
        <time>2013-05-11T13:04:38Z</time>
      </trkpt>
      <trkpt lat="40.527050" lon="-5.168533">
        <ele>1682.0</ele>
        <time>2013-05-11T13:04:39Z</time>
      </trkpt>
      <trkpt lat="40.527100" lon="-5.168400">
        <ele>1686.0</ele>
        <time>2013-05-11T13:04:40Z</time>
      </trkpt>
      <trkpt lat="40.527117" lon="-5.168267">
        <ele>1690.0</ele>
        <time>2013-05-11T13:04:41Z</time>
      </trkpt>
      <trkpt lat="40.527117" lon="-5.168133">
        <ele>1693.0</ele>
        <time>2013-05-11T13:04:42Z</time>
      </trkpt>
      <trkpt lat="40.527100" lon="-5.168000">
        <ele>1695.0</ele>
        <time>2013-05-11T13:04:43Z</time>
      </trkpt>
      <trkpt lat="40.527050" lon="-5.167867">
        <ele>1696.0</ele>
        <time>2013-05-11T13:04:44Z</time>
      </trkpt>
      <trkpt lat="40.526983" lon="-5.167767">
        <ele>1696.0</ele>
        <time>2013-05-11T13:04:45Z</time>
      </trkpt>
      <trkpt lat="40.526867" lon="-5.167667">
        <ele>1695.0</ele>
        <time>2013-05-11T13:04:46Z</time>
      </trkpt>
      <trkpt lat="40.526750" lon="-5.167600">
        <ele>1697.0</ele>
        <time>2013-05-11T13:04:47Z</time>
      </trkpt>
      <trkpt lat="40.526650" lon="-5.167567">
        <ele>1701.0</ele>
        <time>2013-05-11T13:04:48Z</time>
      </trkpt>
      <trkpt lat="40.526567" lon="-5.167550">
        <ele>1704.0</ele>
        <time>2013-05-11T13:04:49Z</time>
      </trkpt>
      <trkpt lat="40.526483" lon="-5.167533">
        <ele>1707.0</ele>
        <time>2013-05-11T13:04:50Z</time>
      </trkpt>
      <trkpt lat="40.526400" lon="-5.167533">
        <ele>1709.0</ele>
        <time>2013-05-11T13:04:51Z</time>
      </trkpt>
      <trkpt lat="40.526317" lon="-5.167550">
        <ele>1711.0</ele>
        <time>2013-05-11T13:04:52Z</time>
      </trkpt>
      <trkpt lat="40.526233" lon="-5.167583">
        <ele>1714.0</ele>
        <time>2013-05-11T13:04:53Z</time>
      </trkpt>
      <trkpt lat="40.526167" lon="-5.167633">
        <ele>1717.0</ele>
        <time>2013-05-11T13:04:54Z</time>
      </trkpt>
      <trkpt lat="40.526133" lon="-5.167700">
        <ele>1721.0</ele>
        <time>2013-05-11T13:04:55Z</time>
      </trkpt>
      <trkpt lat="40.526100" lon="-5.167767">
        <ele>1724.0</ele>
        <time>2013-05-11T13:04:56Z</time>
      </trkpt>
      <trkpt lat="40.526067" lon="-5.167850">
        <ele>1726.0</ele>
        <time>2013-05-11T13:04:57Z</time>
      </trkpt>
      <trkpt lat="40.526067" lon="-5.167933">
        <ele>1728.0</ele>
        <time>2013-05-11T13:04:58Z</time>
      </trkpt>
      <trkpt lat="40.526083" lon="-5.168017">
        <ele>1730.0</ele>
        <time>2013-05-11T13:04:59Z</time>
      </trkpt>
      <trkpt lat="40.526117" lon="-5.168100">
        <ele>1732.0</ele>
        <time>2013-05-11T13:05:00Z</time>
      </trkpt>
      <trkpt lat="40.526167" lon="-5.168150">
        <ele>1734.0</ele>
        <time>2013-05-11T13:05:01Z</time>
      </trkpt>
      <trkpt lat="40.526233" lon="-5.168200">
        <ele>1738.0</ele>
        <time>2013-05-11T13:05:02Z</time>
      </trkpt>
      <trkpt lat="40.526300" lon="-5.168217">
        <ele>1741.0</ele>
        <time>2013-05-11T13:05:03Z</time>
      </trkpt>
      <trkpt lat="40.526367" lon="-5.168217">
        <ele>1743.0</ele>
        <time>2013-05-11T13:05:04Z</time>
      </trkpt>
      <trkpt lat="40.526433" lon="-5.168167">
        <ele>1745.0</ele>
        <time>2013-05-11T13:05:05Z</time>
      </trkpt>
      <trkpt lat="40.526517" lon="-5.168083">
        <ele>1746.0</ele>
        <time>2013-05-11T13:05:06Z</time>
      </trkpt>
      <trkpt lat="40.526583" lon="-5.167983">
        <ele>1747.0</ele>
        <time>2013-05-11T13:05:07Z</time>
      </trkpt>
      <trkpt lat="40.526633" lon="-5.167850">
        <ele>1751.0</ele>
        <time>2013-05-11T13:05:08Z</time>
      </trkpt>
      <trkpt lat="40.526667" lon="-5.167717">
        <ele>1754.0</ele>
        <time>2013-05-11T13:05:09Z</time>
      </trkpt>
      <trkpt lat="40.526683" lon="-5.167550">
        <ele>1758.0</ele>
        <time>2013-05-11T13:05:10Z</time>
      </trkpt>
      <trkpt lat="40.526667" lon="-5.167400">
        <ele>1761.0</ele>
        <time>2013-05-11T13:05:11Z</time>
      </trkpt>
      <trkpt lat="40.526617" lon="-5.167233">
        <ele>1763.0</ele>
        <time>2013-05-11T13:05:12Z</time>
      </trkpt>
      <trkpt lat="40.526550" lon="-5.167117">
        <ele>1766.0</ele>
        <time>2013-05-11T13:05:13Z</time>
      </trkpt>
      <trkpt lat="40.526450" lon="-5.167017">
        <ele>1768.0</ele>
        <time>2013-05-11T13:05:14Z</time>
      </trkpt>
      <trkpt lat="40.526350" lon="-5.166967">
        <ele>1769.0</ele>
        <time>2013-05-11T13:05:15Z</time>
      </trkpt>
      <trkpt lat="40.526233" lon="-5.166950">
        <ele>1772.0</ele>
        <time>2013-05-11T13:05:16Z</time>
      </trkpt>
      <trkpt lat="40.526133" lon="-5.166950">
        <ele>1775.0</ele>
        <time>2013-05-11T13:05:17Z</time>
      </trkpt>
      <trkpt lat="40.526050" lon="-5.166983">
        <ele>1779.0</ele>
        <time>2013-05-11T13:05:18Z</time>
      </trkpt>
      <trkpt lat="40.525983" lon="-5.167033">
        <ele>1783.0</ele>
        <time>2013-05-11T13:05:19Z</time>
      </trkpt>
      <trkpt lat="40.525933" lon="-5.167100">
        <ele>1786.0</ele>
        <time>2013-05-11T13:05:20Z</time>
      </trkpt>
      <trkpt lat="40.525883" lon="-5.167167">
        <ele>1789.0</ele>
        <time>2013-05-11T13:05:21Z</time>
      </trkpt>
      <trkpt lat="40.525867" lon="-5.167233">
        <ele>1792.0</ele>
        <time>2013-05-11T13:05:22Z</time>
      </trkpt>
      <trkpt lat="40.525867" lon="-5.167317">
        <ele>1793.0</ele>
        <time>2013-05-11T13:05:23Z</time>
      </trkpt>
      <trkpt lat="40.525900" lon="-5.167383">
        <ele>1794.0</ele>
        <time>2013-05-11T13:05:24Z</time>
      </trkpt>
      <trkpt lat="40.525950" lon="-5.167450">
        <ele>1795.0</ele>
        <time>2013-05-11T13:05:25Z</time>
      </trkpt>
      <trkpt lat="40.526033" lon="-5.167483">
        <ele>1797.0</ele>
        <time>2013-05-11T13:05:26Z</time>
      </trkpt>
      <trkpt lat="40.526100" lon="-5.167500">
        <ele>1799.0</ele>
        <time>2013-05-11T13:05:27Z</time>
      </trkpt>
      <trkpt lat="40.526183" lon="-5.167517">
        <ele>1802.0</ele>
        <time>2013-05-11T13:05:28Z</time>
      </trkpt>
      <trkpt lat="40.526250" lon="-5.167483">
        <ele>1804.0</ele>
        <time>2013-05-11T13:05:29Z</time>
      </trkpt>
      <trkpt lat="40.526333" lon="-5.167417">
        <ele>1805.0</ele>
        <time>2013-05-11T13:05:30Z</time>
      </trkpt>
      <trkpt lat="40.526417" lon="-5.167333">
        <ele>1806.0</ele>
        <time>2013-05-11T13:05:31Z</time>
      </trkpt>
      <trkpt lat="40.526483" lon="-5.167200">
        <ele>1809.0</ele>
        <time>2013-05-11T13:05:32Z</time>
      </trkpt>
      <trkpt lat="40.526533" lon="-5.167050">
        <ele>1812.0</ele>
        <time>2013-05-11T13:05:33Z</time>
      </trkpt>
      <trkpt lat="40.526550" lon="-5.166900">
        <ele>1815.0</ele>
        <time>2013-05-11T13:05:34Z</time>
      </trkpt>
      <trkpt lat="40.526550" lon="-5.166750">
        <ele>1819.0</ele>
        <time>2013-05-11T13:05:35Z</time>
      </trkpt>
      <trkpt lat="40.526550" lon="-5.166600">
        <ele>1822.0</ele>
        <time>2013-05-11T13:05:36Z</time>
      </trkpt>
      <trkpt lat="40.526533" lon="-5.166450">
        <ele>1825.0</ele>
        <time>2013-05-11T13:05:37Z</time>
      </trkpt>
      <trkpt lat="40.526483" lon="-5.166300">
        <ele>1828.0</ele>
        <time>2013-05-11T13:05:38Z</time>
      </trkpt>
      <trkpt lat="40.526400" lon="-5.166167">
        <ele>1829.0</ele>
        <time>2013-05-11T13:05:39Z</time>
      </trkpt>
      <trkpt lat="40.526283" lon="-5.166100">
        <ele>1831.0</ele>
        <time>2013-05-11T13:05:40Z</time>
      </trkpt>
      <trkpt lat="40.526167" lon="-5.166100">
        <ele>1833.0</ele>
        <time>2013-05-11T13:05:41Z</time>
      </trkpt>
      <trkpt lat="40.526083" lon="-5.166133">
        <ele>1835.0</ele>
        <time>2013-05-11T13:05:42Z</time>
      </trkpt>
      <trkpt lat="40.526000" lon="-5.166200">
        <ele>1838.0</ele>
        <time>2013-05-11T13:05:43Z</time>
      </trkpt>
      <trkpt lat="40.525950" lon="-5.166283">
        <ele>1841.0</ele>
        <time>2013-05-11T13:05:44Z</time>
      </trkpt>
      <trkpt lat="40.525917" lon="-5.166350">
        <ele>1844.0</ele>
        <time>2013-05-11T13:05:45Z</time>
      </trkpt>
      <trkpt lat="40.525883" lon="-5.166400">
        <ele>1847.0</ele>
        <time>2013-05-11T13:05:46Z</time>
      </trkpt>
      <trkpt lat="40.525867" lon="-5.166467">
        <ele>1850.0</ele>
        <time>2013-05-11T13:05:47Z</time>
      </trkpt>
      <trkpt lat="40.525850" lon="-5.166550">
        <ele>1852.0</ele>
        <time>2013-05-11T13:05:48Z</time>
      </trkpt>
      <trkpt lat="40.525867" lon="-5.166617">
        <ele>1853.0</ele>
        <time>2013-05-11T13:05:49Z</time>
      </trkpt>
      <trkpt lat="40.525900" lon="-5.166700">
        <ele>1854.0</ele>
        <time>2013-05-11T13:05:50Z</time>
      </trkpt>
      <trkpt lat="40.525983" lon="-5.166783">
        <ele>1856.0</ele>
        <time>2013-05-11T13:05:51Z</time>
      </trkpt>
      <trkpt lat="40.526067" lon="-5.166800">
        <ele>1858.0</ele>
        <time>2013-05-11T13:05:52Z</time>
      </trkpt>
      <trkpt lat="40.526167" lon="-5.166800">
        <ele>1859.0</ele>
        <time>2013-05-11T13:05:53Z</time>
      </trkpt>
      <trkpt lat="40.526267" lon="-5.166767">
        <ele>1860.0</ele>
        <time>2013-05-11T13:05:54Z</time>
      </trkpt>
      <trkpt lat="40.526367" lon="-5.166717">
        <ele>1861.0</ele>
        <time>2013-05-11T13:05:55Z</time>
      </trkpt>
      <trkpt lat="40.526467" lon="-5.166650">
        <ele>1862.0</ele>
        <time>2013-05-11T13:05:56Z</time>
      </trkpt>
      <trkpt lat="40.526567" lon="-5.166550">
        <ele>1863.0</ele>
        <time>2013-05-11T13:05:57Z</time>
      </trkpt>
      <trkpt lat="40.526650" lon="-5.166417">
        <ele>1865.0</ele>
        <time>2013-05-11T13:05:58Z</time>
      </trkpt>
      <trkpt lat="40.526717" lon="-5.166250">
        <ele>1867.0</ele>
        <time>2013-05-11T13:05:59Z</time>
      </trkpt>
      <trkpt lat="40.526750" lon="-5.166100">
        <ele>1870.0</ele>
        <time>2013-05-11T13:06:00Z</time>
      </trkpt>
      <trkpt lat="40.526800" lon="-5.165950">
        <ele>1874.0</ele>
        <time>2013-05-11T13:06:01Z</time>
      </trkpt>
      <trkpt lat="40.526817" lon="-5.165800">
        <ele>1876.0</ele>
        <time>2013-05-11T13:06:02Z</time>
      </trkpt>
      <trkpt lat="40.526817" lon="-5.165633">
        <ele>1878.0</ele>
        <time>2013-05-11T13:06:03Z</time>
      </trkpt>
      <trkpt lat="40.526817" lon="-5.165450">
        <ele>1879.0</ele>
        <time>2013-05-11T13:06:04Z</time>
      </trkpt>
      <trkpt lat="40.526783" lon="-5.165267">
        <ele>1881.0</ele>
        <time>2013-05-11T13:06:05Z</time>
      </trkpt>
      <trkpt lat="40.526733" lon="-5.165133">
        <ele>1885.0</ele>
        <time>2013-05-11T13:06:06Z</time>
      </trkpt>
      <trkpt lat="40.526650" lon="-5.165017">
        <ele>1888.0</ele>
        <time>2013-05-11T13:06:07Z</time>
      </trkpt>
      <trkpt lat="40.526550" lon="-5.164933">
        <ele>1892.0</ele>
        <time>2013-05-11T13:06:08Z</time>
      </trkpt>
      <trkpt lat="40.526450" lon="-5.164883">
        <ele>1896.0</ele>
        <time>2013-05-11T13:06:09Z</time>
      </trkpt>
      <trkpt lat="40.526367" lon="-5.164867">
        <ele>1900.0</ele>
        <time>2013-05-11T13:06:10Z</time>
      </trkpt>
      <trkpt lat="40.526283" lon="-5.164883">
        <ele>1903.0</ele>
        <time>2013-05-11T13:06:11Z</time>
      </trkpt>
      <trkpt lat="40.526217" lon="-5.164917">
        <ele>1906.0</ele>
        <time>2013-05-11T13:06:12Z</time>
      </trkpt>
      <trkpt lat="40.526150" lon="-5.164983">
        <ele>1909.0</ele>
        <time>2013-05-11T13:06:13Z</time>
      </trkpt>
      <trkpt lat="40.526100" lon="-5.165050">
        <ele>1912.0</ele>
        <time>2013-05-11T13:06:14Z</time>
      </trkpt>
      <trkpt lat="40.526100" lon="-5.165133">
        <ele>1915.0</ele>
        <time>2013-05-11T13:06:15Z</time>
      </trkpt>
      <trkpt lat="40.526117" lon="-5.165200">
        <ele>1917.0</ele>
        <time>2013-05-11T13:06:16Z</time>
      </trkpt>
      <trkpt lat="40.526183" lon="-5.165233">
        <ele>1920.0</ele>
        <time>2013-05-11T13:06:17Z</time>
      </trkpt>
      <trkpt lat="40.526250" lon="-5.165233">
        <ele>1924.0</ele>
        <time>2013-05-11T13:06:18Z</time>
      </trkpt>
      <trkpt lat="40.526317" lon="-5.165217">
        <ele>1927.0</ele>
        <time>2013-05-11T13:06:19Z</time>
      </trkpt>
      <trkpt lat="40.526367" lon="-5.165167">
        <ele>1929.0</ele>
        <time>2013-05-11T13:06:20Z</time>
      </trkpt>
      <trkpt lat="40.526450" lon="-5.165100">
        <ele>1931.0</ele>
        <time>2013-05-11T13:06:21Z</time>
      </trkpt>
      <trkpt lat="40.526533" lon="-5.165000">
        <ele>1932.0</ele>
        <time>2013-05-11T13:06:22Z</time>
      </trkpt>
      <trkpt lat="40.526617" lon="-5.164883">
        <ele>1935.0</ele>
        <time>2013-05-11T13:06:23Z</time>
      </trkpt>
      <trkpt lat="40.526650" lon="-5.164733">
        <ele>1939.0</ele>
        <time>2013-05-11T13:06:24Z</time>
      </trkpt>
      <trkpt lat="40.526667" lon="-5.164583">
        <ele>1942.0</ele>
        <time>2013-05-11T13:06:25Z</time>
      </trkpt>
      <trkpt lat="40.526667" lon="-5.164417">
        <ele>1945.0</ele>
        <time>2013-05-11T13:06:26Z</time>
      </trkpt>
      <trkpt lat="40.526650" lon="-5.164250">
        <ele>1949.0</ele>
        <time>2013-05-11T13:06:27Z</time>
      </trkpt>
      <trkpt lat="40.526617" lon="-5.164100">
        <ele>1952.0</ele>
        <time>2013-05-11T13:06:28Z</time>
      </trkpt>
      <trkpt lat="40.526550" lon="-5.163983">
        <ele>1955.0</ele>
        <time>2013-05-11T13:06:29Z</time>
      </trkpt>
      <trkpt lat="40.526467" lon="-5.163883">
        <ele>1958.0</ele>
        <time>2013-05-11T13:06:30Z</time>
      </trkpt>
      <trkpt lat="40.526367" lon="-5.163833">
        <ele>1961.0</ele>
        <time>2013-05-11T13:06:31Z</time>
      </trkpt>
      <trkpt lat="40.526250" lon="-5.163800">
        <ele>1963.0</ele>
        <time>2013-05-11T13:06:32Z</time>
      </trkpt>
      <trkpt lat="40.526150" lon="-5.163817">
        <ele>1966.0</ele>
        <time>2013-05-11T13:06:33Z</time>
      </trkpt>
      <trkpt lat="40.526067" lon="-5.163867">
        <ele>1969.0</ele>
        <time>2013-05-11T13:06:34Z</time>
      </trkpt>
      <trkpt lat="40.526033" lon="-5.163933">
        <ele>1972.0</ele>
        <time>2013-05-11T13:06:35Z</time>
      </trkpt>
      <trkpt lat="40.526017" lon="-5.164017">
        <ele>1975.0</ele>
        <time>2013-05-11T13:06:36Z</time>
      </trkpt>
      <trkpt lat="40.526033" lon="-5.164083">
        <ele>1979.0</ele>
        <time>2013-05-11T13:06:37Z</time>
      </trkpt>
      <trkpt lat="40.526033" lon="-5.164133">
        <ele>1983.0</ele>
        <time>2013-05-11T13:06:38Z</time>
      </trkpt>
      <trkpt lat="40.526067" lon="-5.164150">
        <ele>1987.0</ele>
        <time>2013-05-11T13:06:39Z</time>
      </trkpt>
      <trkpt lat="40.526117" lon="-5.164167">
        <ele>1989.0</ele>
        <time>2013-05-11T13:06:40Z</time>
      </trkpt>
      <trkpt lat="40.526183" lon="-5.164150">
        <ele>1990.0</ele>
        <time>2013-05-11T13:06:41Z</time>
      </trkpt>
      <trkpt lat="40.526267" lon="-5.164100">
        <ele>1991.0</ele>
        <time>2013-05-11T13:06:42Z</time>
      </trkpt>
      <trkpt lat="40.526367" lon="-5.164033">
        <ele>1994.0</ele>
        <time>2013-05-11T13:06:43Z</time>
      </trkpt>
      <trkpt lat="40.526433" lon="-5.163950">
        <ele>1998.0</ele>
        <time>2013-05-11T13:06:44Z</time>
      </trkpt>
      <trkpt lat="40.526500" lon="-5.163833">
        <ele>2003.0</ele>
        <time>2013-05-11T13:06:45Z</time>
      </trkpt>
      <trkpt lat="40.526533" lon="-5.163717">
        <ele>2007.0</ele>
        <time>2013-05-11T13:06:46Z</time>
      </trkpt>
      <trkpt lat="40.526567" lon="-5.163600">
        <ele>2009.0</ele>
        <time>2013-05-11T13:06:47Z</time>
      </trkpt>
      <trkpt lat="40.526583" lon="-5.163450">
        <ele>2012.0</ele>
        <time>2013-05-11T13:06:48Z</time>
      </trkpt>
      <trkpt lat="40.526583" lon="-5.163283">
        <ele>2014.0</ele>
        <time>2013-05-11T13:06:49Z</time>
      </trkpt>
      <trkpt lat="40.526533" lon="-5.163133">
        <ele>2016.0</ele>
        <time>2013-05-11T13:06:50Z</time>
      </trkpt>
      <trkpt lat="40.526467" lon="-5.163033">
        <ele>2018.0</ele>
        <time>2013-05-11T13:06:51Z</time>
      </trkpt>
      <trkpt lat="40.526367" lon="-5.162950">
        <ele>2019.0</ele>
        <time>2013-05-11T13:06:52Z</time>
      </trkpt>
      <trkpt lat="40.526250" lon="-5.162917">
        <ele>2021.0</ele>
        <time>2013-05-11T13:06:53Z</time>
      </trkpt>
      <trkpt lat="40.526167" lon="-5.162883">
        <ele>2024.0</ele>
        <time>2013-05-11T13:06:54Z</time>
      </trkpt>
      <trkpt lat="40.526067" lon="-5.162883">
        <ele>2027.0</ele>
        <time>2013-05-11T13:06:55Z</time>
      </trkpt>
      <trkpt lat="40.526000" lon="-5.162900">
        <ele>2029.0</ele>
        <time>2013-05-11T13:06:56Z</time>
      </trkpt>
      <trkpt lat="40.525917" lon="-5.162967">
        <ele>2031.0</ele>
        <time>2013-05-11T13:06:57Z</time>
      </trkpt>
      <trkpt lat="40.525867" lon="-5.163050">
        <ele>2033.0</ele>
        <time>2013-05-11T13:06:58Z</time>
      </trkpt>
      <trkpt lat="40.525833" lon="-5.163133">
        <ele>2037.0</ele>
        <time>2013-05-11T13:06:59Z</time>
      </trkpt>
      <trkpt lat="40.525833" lon="-5.163200">
        <ele>2042.0</ele>
        <time>2013-05-11T13:07:00Z</time>
      </trkpt>
      <trkpt lat="40.525833" lon="-5.163250">
        <ele>2045.0</ele>
        <time>2013-05-11T13:07:01Z</time>
      </trkpt>
      <trkpt lat="40.525833" lon="-5.163283">
        <ele>2049.0</ele>
        <time>2013-05-11T13:07:02Z</time>
      </trkpt>
      <trkpt lat="40.525867" lon="-5.163333">
        <ele>2051.0</ele>
        <time>2013-05-11T13:07:03Z</time>
      </trkpt>
      <trkpt lat="40.525917" lon="-5.163383">
        <ele>2053.0</ele>
        <time>2013-05-11T13:07:04Z</time>
      </trkpt>
      <trkpt lat="40.525983" lon="-5.163400">
        <ele>2056.0</ele>
        <time>2013-05-11T13:07:05Z</time>
      </trkpt>
      <trkpt lat="40.526067" lon="-5.163400">
        <ele>2059.0</ele>
        <time>2013-05-11T13:07:06Z</time>
      </trkpt>
      <trkpt lat="40.526167" lon="-5.163383">
        <ele>2061.0</ele>
        <time>2013-05-11T13:07:07Z</time>
      </trkpt>
      <trkpt lat="40.526250" lon="-5.163333">
        <ele>2065.0</ele>
        <time>2013-05-11T13:07:08Z</time>
      </trkpt>
      <trkpt lat="40.526333" lon="-5.163250">
        <ele>2070.0</ele>
        <time>2013-05-11T13:07:09Z</time>
      </trkpt>
      <trkpt lat="40.526383" lon="-5.163150">
        <ele>2073.0</ele>
        <time>2013-05-11T13:07:10Z</time>
      </trkpt>
      <trkpt lat="40.526433" lon="-5.163033">
        <ele>2076.0</ele>
        <time>2013-05-11T13:07:11Z</time>
      </trkpt>
      <trkpt lat="40.526467" lon="-5.162883">
        <ele>2078.0</ele>
        <time>2013-05-11T13:07:12Z</time>
      </trkpt>
      <trkpt lat="40.526500" lon="-5.162717">
        <ele>2080.0</ele>
        <time>2013-05-11T13:07:13Z</time>
      </trkpt>
      <trkpt lat="40.526500" lon="-5.162550">
        <ele>2084.0</ele>
        <time>2013-05-11T13:07:14Z</time>
      </trkpt>
      <trkpt lat="40.526467" lon="-5.162417">
        <ele>2087.0</ele>
        <time>2013-05-11T13:07:15Z</time>
      </trkpt>
      <trkpt lat="40.526400" lon="-5.162317">
        <ele>2089.0</ele>
        <time>2013-05-11T13:07:16Z</time>
      </trkpt>
      <trkpt lat="40.526300" lon="-5.162250">
        <ele>2090.0</ele>
        <time>2013-05-11T13:07:17Z</time>
      </trkpt>
      <trkpt lat="40.526200" lon="-5.162217">
        <ele>2091.0</ele>
        <time>2013-05-11T13:07:18Z</time>
      </trkpt>
      <trkpt lat="40.526100" lon="-5.162200">
        <ele>2093.0</ele>
        <time>2013-05-11T13:07:19Z</time>
      </trkpt>
      <trkpt lat="40.526017" lon="-5.162233">
        <ele>2095.0</ele>
        <time>2013-05-11T13:07:20Z</time>
      </trkpt>
      <trkpt lat="40.525950" lon="-5.162300">
        <ele>2096.0</ele>
        <time>2013-05-11T13:07:21Z</time>
      </trkpt>
      <trkpt lat="40.525917" lon="-5.162400">
        <ele>2098.0</ele>
        <time>2013-05-11T13:07:22Z</time>
      </trkpt>
      <trkpt lat="40.525900" lon="-5.162483">
        <ele>2101.0</ele>
        <time>2013-05-11T13:07:23Z</time>
      </trkpt>
      <trkpt lat="40.525933" lon="-5.162567">
        <ele>2104.0</ele>
        <time>2013-05-11T13:07:24Z</time>
      </trkpt>
      <trkpt lat="40.525967" lon="-5.162617">
        <ele>2108.0</ele>
        <time>2013-05-11T13:07:25Z</time>
      </trkpt>
      <trkpt lat="40.526033" lon="-5.162667">
        <ele>2112.0</ele>
        <time>2013-05-11T13:07:26Z</time>
      </trkpt>
      <trkpt lat="40.526117" lon="-5.162683">
        <ele>2116.0</ele>
        <time>2013-05-11T13:07:27Z</time>
      </trkpt>
      <trkpt lat="40.526183" lon="-5.162683">
        <ele>2119.0</ele>
        <time>2013-05-11T13:07:28Z</time>
      </trkpt>
      <trkpt lat="40.526250" lon="-5.162650">
        <ele>2122.0</ele>
        <time>2013-05-11T13:07:29Z</time>
      </trkpt>
      <trkpt lat="40.526333" lon="-5.162600">
        <ele>2124.0</ele>
        <time>2013-05-11T13:07:30Z</time>
      </trkpt>
      <trkpt lat="40.526433" lon="-5.162517">
        <ele>2126.0</ele>
        <time>2013-05-11T13:07:31Z</time>
      </trkpt>
      <trkpt lat="40.526533" lon="-5.162433">
        <ele>2129.0</ele>
        <time>2013-05-11T13:07:32Z</time>
      </trkpt>
      <trkpt lat="40.526600" lon="-5.162333">
        <ele>2132.0</ele>
        <time>2013-05-11T13:07:33Z</time>
      </trkpt>
      <trkpt lat="40.526633" lon="-5.162200">
        <ele>2135.0</ele>
        <time>2013-05-11T13:07:34Z</time>
      </trkpt>
      <trkpt lat="40.526667" lon="-5.162067">
        <ele>2137.0</ele>
        <time>2013-05-11T13:07:35Z</time>
      </trkpt>
      <trkpt lat="40.526667" lon="-5.161900">
        <ele>2138.0</ele>
        <time>2013-05-11T13:07:36Z</time>
      </trkpt>
      <trkpt lat="40.526667" lon="-5.161750">
        <ele>2140.0</ele>
        <time>2013-05-11T13:07:37Z</time>
      </trkpt>
      <trkpt lat="40.526633" lon="-5.161617">
        <ele>2142.0</ele>
        <time>2013-05-11T13:07:38Z</time>
      </trkpt>
      <trkpt lat="40.526567" lon="-5.161483">
        <ele>2144.0</ele>
        <time>2013-05-11T13:07:39Z</time>
      </trkpt>
      <trkpt lat="40.526500" lon="-5.161383">
        <ele>2146.0</ele>
        <time>2013-05-11T13:07:40Z</time>
      </trkpt>
      <trkpt lat="40.526400" lon="-5.161317">
        <ele>2146.0</ele>
        <time>2013-05-11T13:07:41Z</time>
      </trkpt>
      <trkpt lat="40.526300" lon="-5.161267">
        <ele>2148.0</ele>
        <time>2013-05-11T13:07:42Z</time>
      </trkpt>
      <trkpt lat="40.526183" lon="-5.161233">
        <ele>2149.0</ele>
        <time>2013-05-11T13:07:43Z</time>
      </trkpt>
      <trkpt lat="40.526083" lon="-5.161267">
        <ele>2150.0</ele>
        <time>2013-05-11T13:07:44Z</time>
      </trkpt>
      <trkpt lat="40.526000" lon="-5.161333">
        <ele>2152.0</ele>
        <time>2013-05-11T13:07:45Z</time>
      </trkpt>
      <trkpt lat="40.525950" lon="-5.161433">
        <ele>2153.0</ele>
        <time>2013-05-11T13:07:46Z</time>
      </trkpt>
      <trkpt lat="40.525950" lon="-5.161550">
        <ele>2155.0</ele>
        <time>2013-05-11T13:07:47Z</time>
      </trkpt>
      <trkpt lat="40.525983" lon="-5.161650">
        <ele>2158.0</ele>
        <time>2013-05-11T13:07:48Z</time>
      </trkpt>
      <trkpt lat="40.526033" lon="-5.161717">
        <ele>2162.0</ele>
        <time>2013-05-11T13:07:49Z</time>
      </trkpt>
      <trkpt lat="40.526083" lon="-5.161750">
        <ele>2166.0</ele>
        <time>2013-05-11T13:07:50Z</time>
      </trkpt>
      <trkpt lat="40.526117" lon="-5.161783">
        <ele>2169.0</ele>
        <time>2013-05-11T13:07:51Z</time>
      </trkpt>
      <trkpt lat="40.526167" lon="-5.161800">
        <ele>2171.0</ele>
        <time>2013-05-11T13:07:52Z</time>
      </trkpt>
      <trkpt lat="40.526233" lon="-5.161817">
        <ele>2171.0</ele>
        <time>2013-05-11T13:07:53Z</time>
      </trkpt>
      <trkpt lat="40.526317" lon="-5.161833">
        <ele>2172.0</ele>
        <time>2013-05-11T13:07:54Z</time>
      </trkpt>
      <trkpt lat="40.526417" lon="-5.161833">
        <ele>2172.0</ele>
        <time>2013-05-11T13:07:55Z</time>
      </trkpt>
      <trkpt lat="40.526517" lon="-5.161800">
        <ele>2174.0</ele>
        <time>2013-05-11T13:07:56Z</time>
      </trkpt>
      <trkpt lat="40.526617" lon="-5.161767">
        <ele>2178.0</ele>
        <time>2013-05-11T13:07:57Z</time>
      </trkpt>
      <trkpt lat="40.526700" lon="-5.161683">
        <ele>2181.0</ele>
        <time>2013-05-11T13:07:58Z</time>
      </trkpt>
      <trkpt lat="40.526767" lon="-5.161600">
        <ele>2183.0</ele>
        <time>2013-05-11T13:07:59Z</time>
      </trkpt>
      <trkpt lat="40.526833" lon="-5.161500">
        <ele>2185.0</ele>
        <time>2013-05-11T13:08:00Z</time>
      </trkpt>
      <trkpt lat="40.526883" lon="-5.161400">
        <ele>2186.0</ele>
        <time>2013-05-11T13:08:01Z</time>
      </trkpt>
      <trkpt lat="40.526917" lon="-5.161267">
        <ele>2187.0</ele>
        <time>2013-05-11T13:08:02Z</time>
      </trkpt>
      <trkpt lat="40.526933" lon="-5.161133">
        <ele>2187.0</ele>
        <time>2013-05-11T13:08:03Z</time>
      </trkpt>
      <trkpt lat="40.526917" lon="-5.160967">
        <ele>2188.0</ele>
        <time>2013-05-11T13:08:04Z</time>
      </trkpt>
      <trkpt lat="40.526883" lon="-5.160817">
        <ele>2188.0</ele>
        <time>2013-05-11T13:08:05Z</time>
      </trkpt>
      <trkpt lat="40.526833" lon="-5.160683">
        <ele>2190.0</ele>
        <time>2013-05-11T13:08:06Z</time>
      </trkpt>
      <trkpt lat="40.526767" lon="-5.160583">
        <ele>2191.0</ele>
        <time>2013-05-11T13:08:07Z</time>
      </trkpt>
      <trkpt lat="40.526683" lon="-5.160517">
        <ele>2192.0</ele>
        <time>2013-05-11T13:08:08Z</time>
      </trkpt>
      <trkpt lat="40.526583" lon="-5.160483">
        <ele>2193.0</ele>
        <time>2013-05-11T13:08:09Z</time>
      </trkpt>
      <trkpt lat="40.526483" lon="-5.160467">
        <ele>2194.0</ele>
        <time>2013-05-11T13:08:10Z</time>
      </trkpt>
      <trkpt lat="40.526383" lon="-5.160483">
        <ele>2196.0</ele>
        <time>2013-05-11T13:08:11Z</time>
      </trkpt>
      <trkpt lat="40.526317" lon="-5.160500">
        <ele>2199.0</ele>
        <time>2013-05-11T13:08:12Z</time>
      </trkpt>
      <trkpt lat="40.526250" lon="-5.160550">
        <ele>2202.0</ele>
        <time>2013-05-11T13:08:13Z</time>
      </trkpt>
      <trkpt lat="40.526217" lon="-5.160633">
        <ele>2203.0</ele>
        <time>2013-05-11T13:08:14Z</time>
      </trkpt>
      <trkpt lat="40.526200" lon="-5.160733">
        <ele>2204.0</ele>
        <time>2013-05-11T13:08:15Z</time>
      </trkpt>
      <trkpt lat="40.526200" lon="-5.160833">
        <ele>2206.0</ele>
        <time>2013-05-11T13:08:16Z</time>
      </trkpt>
      <trkpt lat="40.526233" lon="-5.160917">
        <ele>2209.0</ele>
        <time>2013-05-11T13:08:17Z</time>
      </trkpt>
      <trkpt lat="40.526300" lon="-5.160983">
        <ele>2212.0</ele>
        <time>2013-05-11T13:08:18Z</time>
      </trkpt>
      <trkpt lat="40.526383" lon="-5.161017">
        <ele>2215.0</ele>
        <time>2013-05-11T13:08:19Z</time>
      </trkpt>
      <trkpt lat="40.526467" lon="-5.161017">
        <ele>2218.0</ele>
        <time>2013-05-11T13:08:20Z</time>
      </trkpt>
      <trkpt lat="40.526533" lon="-5.161000">
        <ele>2222.0</ele>
        <time>2013-05-11T13:08:21Z</time>
      </trkpt>
      <trkpt lat="40.526617" lon="-5.161000">
        <ele>2224.0</ele>
        <time>2013-05-11T13:08:22Z</time>
      </trkpt>
      <trkpt lat="40.526700" lon="-5.160967">
        <ele>2224.0</ele>
        <time>2013-05-11T13:08:23Z</time>
      </trkpt>
      <trkpt lat="40.526783" lon="-5.160917">
        <ele>2224.0</ele>
        <time>2013-05-11T13:08:24Z</time>
      </trkpt>
      <trkpt lat="40.526850" lon="-5.160817">
        <ele>2225.0</ele>
        <time>2013-05-11T13:08:25Z</time>
      </trkpt>
      <trkpt lat="40.526917" lon="-5.160683">
        <ele>2226.0</ele>
        <time>2013-05-11T13:08:26Z</time>
      </trkpt>
      <trkpt lat="40.526933" lon="-5.160550">
        <ele>2229.0</ele>
        <time>2013-05-11T13:08:27Z</time>
      </trkpt>
      <trkpt lat="40.526933" lon="-5.160433">
        <ele>2231.0</ele>
        <time>2013-05-11T13:08:28Z</time>
      </trkpt>
      <trkpt lat="40.526933" lon="-5.160300">
        <ele>2232.0</ele>
        <time>2013-05-11T13:08:29Z</time>
      </trkpt>
      <trkpt lat="40.526917" lon="-5.160167">
        <ele>2231.0</ele>
        <time>2013-05-11T13:08:30Z</time>
      </trkpt>
      <trkpt lat="40.526900" lon="-5.160017">
        <ele>2229.0</ele>
        <time>2013-05-11T13:08:31Z</time>
      </trkpt>
      <trkpt lat="40.526833" lon="-5.159867">
        <ele>2227.0</ele>
        <time>2013-05-11T13:08:32Z</time>
      </trkpt>
      <trkpt lat="40.526733" lon="-5.159733">
        <ele>2226.0</ele>
        <time>2013-05-11T13:08:33Z</time>
      </trkpt>
      <trkpt lat="40.526633" lon="-5.159650">
        <ele>2227.0</ele>
        <time>2013-05-11T13:08:34Z</time>
      </trkpt>
      <trkpt lat="40.526533" lon="-5.159600">
        <ele>2229.0</ele>
        <time>2013-05-11T13:08:35Z</time>
      </trkpt>
      <trkpt lat="40.526450" lon="-5.159567">
        <ele>2232.0</ele>
        <time>2013-05-11T13:08:36Z</time>
      </trkpt>
      <trkpt lat="40.526383" lon="-5.159550">
        <ele>2232.0</ele>
        <time>2013-05-11T13:08:37Z</time>
      </trkpt>
      <trkpt lat="40.526300" lon="-5.159550">
        <ele>2232.0</ele>
        <time>2013-05-11T13:08:38Z</time>
      </trkpt>
      <trkpt lat="40.526217" lon="-5.159550">
        <ele>2232.0</ele>
        <time>2013-05-11T13:08:39Z</time>
      </trkpt>
      <trkpt lat="40.526117" lon="-5.159600">
        <ele>2231.0</ele>
        <time>2013-05-11T13:08:40Z</time>
      </trkpt>
      <trkpt lat="40.526050" lon="-5.159683">
        <ele>2232.0</ele>
        <time>2013-05-11T13:08:41Z</time>
      </trkpt>
      <trkpt lat="40.526033" lon="-5.159783">
        <ele>2232.0</ele>
        <time>2013-05-11T13:08:42Z</time>
      </trkpt>
      <trkpt lat="40.526067" lon="-5.159867">
        <ele>2233.0</ele>
        <time>2013-05-11T13:08:43Z</time>
      </trkpt>
      <trkpt lat="40.526133" lon="-5.159933">
        <ele>2234.0</ele>
        <time>2013-05-11T13:08:44Z</time>
      </trkpt>
      <trkpt lat="40.526200" lon="-5.159950">
        <ele>2237.0</ele>
        <time>2013-05-11T13:08:45Z</time>
      </trkpt>
      <trkpt lat="40.526267" lon="-5.159950">
        <ele>2240.0</ele>
        <time>2013-05-11T13:08:46Z</time>
      </trkpt>
      <trkpt lat="40.526333" lon="-5.159933">
        <ele>2242.0</ele>
        <time>2013-05-11T13:08:47Z</time>
      </trkpt>
      <trkpt lat="40.526383" lon="-5.159900">
        <ele>2243.0</ele>
        <time>2013-05-11T13:08:48Z</time>
      </trkpt>
      <trkpt lat="40.526450" lon="-5.159850">
        <ele>2243.0</ele>
        <time>2013-05-11T13:08:49Z</time>
      </trkpt>
      <trkpt lat="40.526517" lon="-5.159800">
        <ele>2243.0</ele>
        <time>2013-05-11T13:08:50Z</time>
      </trkpt>
      <trkpt lat="40.526583" lon="-5.159733">
        <ele>2243.0</ele>
        <time>2013-05-11T13:08:51Z</time>
      </trkpt>
      <trkpt lat="40.526633" lon="-5.159650">
        <ele>2243.0</ele>
        <time>2013-05-11T13:08:52Z</time>
      </trkpt>
      <trkpt lat="40.526700" lon="-5.159550">
        <ele>2243.0</ele>
        <time>2013-05-11T13:08:53Z</time>
      </trkpt>
      <trkpt lat="40.526750" lon="-5.159467">
        <ele>2244.0</ele>
        <time>2013-05-11T13:08:54Z</time>
      </trkpt>
      <trkpt lat="40.526800" lon="-5.159350">
        <ele>2244.0</ele>
        <time>2013-05-11T13:08:55Z</time>
      </trkpt>
      <trkpt lat="40.526850" lon="-5.159250">
        <ele>2244.0</ele>
        <time>2013-05-11T13:08:56Z</time>
      </trkpt>
      <trkpt lat="40.526900" lon="-5.159133">
        <ele>2244.0</ele>
        <time>2013-05-11T13:08:57Z</time>
      </trkpt>
      <trkpt lat="40.526933" lon="-5.159000">
        <ele>2243.0</ele>
        <time>2013-05-11T13:08:58Z</time>
      </trkpt>
      <trkpt lat="40.526967" lon="-5.158867">
        <ele>2242.0</ele>
        <time>2013-05-11T13:08:59Z</time>
      </trkpt>
      <trkpt lat="40.527000" lon="-5.158733">
        <ele>2240.0</ele>
        <time>2013-05-11T13:09:00Z</time>
      </trkpt>
      <trkpt lat="40.527033" lon="-5.158600">
        <ele>2239.0</ele>
        <time>2013-05-11T13:09:01Z</time>
      </trkpt>
      <trkpt lat="40.527083" lon="-5.158467">
        <ele>2238.0</ele>
        <time>2013-05-11T13:09:02Z</time>
      </trkpt>
      <trkpt lat="40.527133" lon="-5.158333">
        <ele>2237.0</ele>
        <time>2013-05-11T13:09:03Z</time>
      </trkpt>
      <trkpt lat="40.527183" lon="-5.158200">
        <ele>2236.0</ele>
        <time>2013-05-11T13:09:04Z</time>
      </trkpt>
      <trkpt lat="40.527250" lon="-5.158050">
        <ele>2236.0</ele>
        <time>2013-05-11T13:09:05Z</time>
      </trkpt>
      <trkpt lat="40.527300" lon="-5.157917">
        <ele>2236.0</ele>
        <time>2013-05-11T13:09:06Z</time>
      </trkpt>
      <trkpt lat="40.527350" lon="-5.157767">
        <ele>2237.0</ele>
        <time>2013-05-11T13:09:07Z</time>
      </trkpt>
      <trkpt lat="40.527400" lon="-5.157633">
        <ele>2238.0</ele>
        <time>2013-05-11T13:09:08Z</time>
      </trkpt>
      <trkpt lat="40.527450" lon="-5.157500">
        <ele>2238.0</ele>
        <time>2013-05-11T13:09:09Z</time>
      </trkpt>
      <trkpt lat="40.527500" lon="-5.157383">
        <ele>2238.0</ele>
        <time>2013-05-11T13:09:10Z</time>
      </trkpt>
      <trkpt lat="40.527567" lon="-5.157250">
        <ele>2238.0</ele>
        <time>2013-05-11T13:09:11Z</time>
      </trkpt>
      <trkpt lat="40.527633" lon="-5.157100">
        <ele>2238.0</ele>
        <time>2013-05-11T13:09:12Z</time>
      </trkpt>
      <trkpt lat="40.527700" lon="-5.156967">
        <ele>2238.0</ele>
        <time>2013-05-11T13:09:13Z</time>
      </trkpt>
      <trkpt lat="40.527767" lon="-5.156833">
        <ele>2240.0</ele>
        <time>2013-05-11T13:09:14Z</time>
      </trkpt>
      <trkpt lat="40.527833" lon="-5.156700">
        <ele>2241.0</ele>
        <time>2013-05-11T13:09:15Z</time>
      </trkpt>
      <trkpt lat="40.527883" lon="-5.156583">
        <ele>2242.0</ele>
        <time>2013-05-11T13:09:16Z</time>
      </trkpt>
      <trkpt lat="40.527933" lon="-5.156467">
        <ele>2240.0</ele>
        <time>2013-05-11T13:09:17Z</time>
      </trkpt>
      <trkpt lat="40.528000" lon="-5.156350">
        <ele>2238.0</ele>
        <time>2013-05-11T13:09:18Z</time>
      </trkpt>
      <trkpt lat="40.528067" lon="-5.156217">
        <ele>2235.0</ele>
        <time>2013-05-11T13:09:19Z</time>
      </trkpt>
      <trkpt lat="40.528133" lon="-5.156067">
        <ele>2233.0</ele>
        <time>2013-05-11T13:09:20Z</time>
      </trkpt>
      <trkpt lat="40.528183" lon="-5.155917">
        <ele>2231.0</ele>
        <time>2013-05-11T13:09:21Z</time>
      </trkpt>
      <trkpt lat="40.528250" lon="-5.155783">
        <ele>2230.0</ele>
        <time>2013-05-11T13:09:22Z</time>
      </trkpt>
      <trkpt lat="40.528283" lon="-5.155650">
        <ele>2228.0</ele>
        <time>2013-05-11T13:09:23Z</time>
      </trkpt>
      <trkpt lat="40.528333" lon="-5.155517">
        <ele>2226.0</ele>
        <time>2013-05-11T13:09:24Z</time>
      </trkpt>
      <trkpt lat="40.528383" lon="-5.155383">
        <ele>2223.0</ele>
        <time>2013-05-11T13:09:25Z</time>
      </trkpt>
      <trkpt lat="40.528450" lon="-5.155233">
        <ele>2219.0</ele>
        <time>2013-05-11T13:09:26Z</time>
      </trkpt>
      <trkpt lat="40.528483" lon="-5.155083">
        <ele>2216.0</ele>
        <time>2013-05-11T13:09:27Z</time>
      </trkpt>
      <trkpt lat="40.528533" lon="-5.154933">
        <ele>2214.0</ele>
        <time>2013-05-11T13:09:28Z</time>
      </trkpt>
      <trkpt lat="40.528567" lon="-5.154800">
        <ele>2212.0</ele>
        <time>2013-05-11T13:09:29Z</time>
      </trkpt>
      <trkpt lat="40.528600" lon="-5.154667">
        <ele>2209.0</ele>
        <time>2013-05-11T13:09:30Z</time>
      </trkpt>
      <trkpt lat="40.528650" lon="-5.154533">
        <ele>2207.0</ele>
        <time>2013-05-11T13:09:31Z</time>
      </trkpt>
      <trkpt lat="40.528683" lon="-5.154400">
        <ele>2204.0</ele>
        <time>2013-05-11T13:09:32Z</time>
      </trkpt>
      <trkpt lat="40.528750" lon="-5.154267">
        <ele>2201.0</ele>
        <time>2013-05-11T13:09:33Z</time>
      </trkpt>
      <trkpt lat="40.528800" lon="-5.154133">
        <ele>2199.0</ele>
        <time>2013-05-11T13:09:34Z</time>
      </trkpt>
      <trkpt lat="40.528850" lon="-5.154017">
        <ele>2197.0</ele>
        <time>2013-05-11T13:09:35Z</time>
      </trkpt>
      <trkpt lat="40.528900" lon="-5.153883">
        <ele>2195.0</ele>
        <time>2013-05-11T13:09:36Z</time>
      </trkpt>
      <trkpt lat="40.528950" lon="-5.153767">
        <ele>2193.0</ele>
        <time>2013-05-11T13:09:37Z</time>
      </trkpt>
      <trkpt lat="40.529017" lon="-5.153633">
        <ele>2190.0</ele>
        <time>2013-05-11T13:09:38Z</time>
      </trkpt>
      <trkpt lat="40.529067" lon="-5.153517">
        <ele>2187.0</ele>
        <time>2013-05-11T13:09:39Z</time>
      </trkpt>
      <trkpt lat="40.529117" lon="-5.153400">
        <ele>2184.0</ele>
        <time>2013-05-11T13:09:40Z</time>
      </trkpt>
      <trkpt lat="40.529167" lon="-5.153267">
        <ele>2180.0</ele>
        <time>2013-05-11T13:09:41Z</time>
      </trkpt>
      <trkpt lat="40.529233" lon="-5.153133">
        <ele>2175.0</ele>
        <time>2013-05-11T13:09:42Z</time>
      </trkpt>
      <trkpt lat="40.529300" lon="-5.153000">
        <ele>2171.0</ele>
        <time>2013-05-11T13:09:43Z</time>
      </trkpt>
      <trkpt lat="40.529367" lon="-5.152850">
        <ele>2168.0</ele>
        <time>2013-05-11T13:09:44Z</time>
      </trkpt>
      <trkpt lat="40.529400" lon="-5.152683">
        <ele>2166.0</ele>
        <time>2013-05-11T13:09:45Z</time>
      </trkpt>
      <trkpt lat="40.529450" lon="-5.152550">
        <ele>2163.0</ele>
        <time>2013-05-11T13:09:46Z</time>
      </trkpt>
      <trkpt lat="40.529483" lon="-5.152400">
        <ele>2161.0</ele>
        <time>2013-05-11T13:09:47Z</time>
      </trkpt>
      <trkpt lat="40.529517" lon="-5.152267">
        <ele>2157.0</ele>
        <time>2013-05-11T13:09:48Z</time>
      </trkpt>
      <trkpt lat="40.529550" lon="-5.152117">
        <ele>2154.0</ele>
        <time>2013-05-11T13:09:49Z</time>
      </trkpt>
      <trkpt lat="40.529583" lon="-5.151950">
        <ele>2150.0</ele>
        <time>2013-05-11T13:09:50Z</time>
      </trkpt>
      <trkpt lat="40.529600" lon="-5.151800">
        <ele>2147.0</ele>
        <time>2013-05-11T13:09:51Z</time>
      </trkpt>
      <trkpt lat="40.529633" lon="-5.151633">
        <ele>2145.0</ele>
        <time>2013-05-11T13:09:52Z</time>
      </trkpt>
      <trkpt lat="40.529683" lon="-5.151483">
        <ele>2142.0</ele>
        <time>2013-05-11T13:09:53Z</time>
      </trkpt>
      <trkpt lat="40.529717" lon="-5.151333">
        <ele>2139.0</ele>
        <time>2013-05-11T13:09:54Z</time>
      </trkpt>
      <trkpt lat="40.529733" lon="-5.151183">
        <ele>2136.0</ele>
        <time>2013-05-11T13:09:55Z</time>
      </trkpt>
      <trkpt lat="40.529767" lon="-5.151017">
        <ele>2133.0</ele>
        <time>2013-05-11T13:09:56Z</time>
      </trkpt>
      <trkpt lat="40.529800" lon="-5.150850">
        <ele>2130.0</ele>
        <time>2013-05-11T13:09:57Z</time>
      </trkpt>
      <trkpt lat="40.529833" lon="-5.150667">
        <ele>2127.0</ele>
        <time>2013-05-11T13:09:58Z</time>
      </trkpt>
      <trkpt lat="40.529867" lon="-5.150483">
        <ele>2126.0</ele>
        <time>2013-05-11T13:09:59Z</time>
      </trkpt>
      <trkpt lat="40.529900" lon="-5.150317">
        <ele>2125.0</ele>
        <time>2013-05-11T13:10:00Z</time>
      </trkpt>
      <trkpt lat="40.529917" lon="-5.150150">
        <ele>2125.0</ele>
        <time>2013-05-11T13:10:01Z</time>
      </trkpt>
      <trkpt lat="40.529950" lon="-5.149983">
        <ele>2124.0</ele>
        <time>2013-05-11T13:10:02Z</time>
      </trkpt>
      <trkpt lat="40.529967" lon="-5.149817">
        <ele>2122.0</ele>
        <time>2013-05-11T13:10:03Z</time>
      </trkpt>
      <trkpt lat="40.529983" lon="-5.149650">
        <ele>2120.0</ele>
        <time>2013-05-11T13:10:04Z</time>
      </trkpt>
      <trkpt lat="40.530017" lon="-5.149467">
        <ele>2118.0</ele>
        <time>2013-05-11T13:10:05Z</time>
      </trkpt>
      <trkpt lat="40.530033" lon="-5.149283">
        <ele>2117.0</ele>
        <time>2013-05-11T13:10:06Z</time>
      </trkpt>
      <trkpt lat="40.530067" lon="-5.149117">
        <ele>2116.0</ele>
        <time>2013-05-11T13:10:07Z</time>
      </trkpt>
      <trkpt lat="40.530100" lon="-5.148933">
        <ele>2115.0</ele>
        <time>2013-05-11T13:10:08Z</time>
      </trkpt>
      <trkpt lat="40.530117" lon="-5.148750">
        <ele>2115.0</ele>
        <time>2013-05-11T13:10:09Z</time>
      </trkpt>
      <trkpt lat="40.530150" lon="-5.148567">
        <ele>2114.0</ele>
        <time>2013-05-11T13:10:10Z</time>
      </trkpt>
      <trkpt lat="40.530167" lon="-5.148383">
        <ele>2114.0</ele>
        <time>2013-05-11T13:10:11Z</time>
      </trkpt>
      <trkpt lat="40.530217" lon="-5.148200">
        <ele>2114.0</ele>
        <time>2013-05-11T13:10:12Z</time>
      </trkpt>
      <trkpt lat="40.530250" lon="-5.148017">
        <ele>2113.0</ele>
        <time>2013-05-11T13:10:13Z</time>
      </trkpt>
      <trkpt lat="40.530283" lon="-5.147833">
        <ele>2114.0</ele>
        <time>2013-05-11T13:10:14Z</time>
      </trkpt>
      <trkpt lat="40.530300" lon="-5.147650">
        <ele>2114.0</ele>
        <time>2013-05-11T13:10:15Z</time>
      </trkpt>
      <trkpt lat="40.530300" lon="-5.147467">
        <ele>2114.0</ele>
        <time>2013-05-11T13:10:16Z</time>
      </trkpt>
      <trkpt lat="40.530317" lon="-5.147300">
        <ele>2115.0</ele>
        <time>2013-05-11T13:10:17Z</time>
      </trkpt>
      <trkpt lat="40.530350" lon="-5.147167">
        <ele>2114.0</ele>
        <time>2013-05-11T13:10:18Z</time>
      </trkpt>
      <trkpt lat="40.530383" lon="-5.147017">
        <ele>2114.0</ele>
        <time>2013-05-11T13:10:19Z</time>
      </trkpt>
      <trkpt lat="40.530417" lon="-5.146850">
        <ele>2112.0</ele>
        <time>2013-05-11T13:10:20Z</time>
      </trkpt>
      <trkpt lat="40.530433" lon="-5.146683">
        <ele>2111.0</ele>
        <time>2013-05-11T13:10:21Z</time>
      </trkpt>
      <trkpt lat="40.530450" lon="-5.146517">
        <ele>2111.0</ele>
        <time>2013-05-11T13:10:22Z</time>
      </trkpt>
      <trkpt lat="40.530450" lon="-5.146367">
        <ele>2110.0</ele>
        <time>2013-05-11T13:10:23Z</time>
      </trkpt>
      <trkpt lat="40.530483" lon="-5.146217">
        <ele>2109.0</ele>
        <time>2013-05-11T13:10:24Z</time>
      </trkpt>
      <trkpt lat="40.530500" lon="-5.146067">
        <ele>2107.0</ele>
        <time>2013-05-11T13:10:25Z</time>
      </trkpt>
      <trkpt lat="40.530533" lon="-5.145900">
        <ele>2105.0</ele>
        <time>2013-05-11T13:10:26Z</time>
      </trkpt>
      <trkpt lat="40.530550" lon="-5.145733">
        <ele>2104.0</ele>
        <time>2013-05-11T13:10:27Z</time>
      </trkpt>
      <trkpt lat="40.530583" lon="-5.145567">
        <ele>2103.0</ele>
        <time>2013-05-11T13:10:28Z</time>
      </trkpt>
      <trkpt lat="40.530600" lon="-5.145417">
        <ele>2103.0</ele>
        <time>2013-05-11T13:10:29Z</time>
      </trkpt>
      <trkpt lat="40.530617" lon="-5.145283">
        <ele>2102.0</ele>
        <time>2013-05-11T13:10:30Z</time>
      </trkpt>
      <trkpt lat="40.530650" lon="-5.145133">
        <ele>2100.0</ele>
        <time>2013-05-11T13:10:31Z</time>
      </trkpt>
      <trkpt lat="40.530667" lon="-5.144983">
        <ele>2097.0</ele>
        <time>2013-05-11T13:10:32Z</time>
      </trkpt>
      <trkpt lat="40.530700" lon="-5.144833">
        <ele>2095.0</ele>
        <time>2013-05-11T13:10:33Z</time>
      </trkpt>
      <trkpt lat="40.530717" lon="-5.144667">
        <ele>2093.0</ele>
        <time>2013-05-11T13:10:34Z</time>
      </trkpt>
      <trkpt lat="40.530750" lon="-5.144517">
        <ele>2091.0</ele>
        <time>2013-05-11T13:10:35Z</time>
      </trkpt>
      <trkpt lat="40.530767" lon="-5.144350">
        <ele>2089.0</ele>
        <time>2013-05-11T13:10:36Z</time>
      </trkpt>
      <trkpt lat="40.530783" lon="-5.144200">
        <ele>2087.0</ele>
        <time>2013-05-11T13:10:37Z</time>
      </trkpt>
      <trkpt lat="40.530800" lon="-5.144050">
        <ele>2085.0</ele>
        <time>2013-05-11T13:10:38Z</time>
      </trkpt>
      <trkpt lat="40.530833" lon="-5.143883">
        <ele>2083.0</ele>
        <time>2013-05-11T13:10:39Z</time>
      </trkpt>
      <trkpt lat="40.530867" lon="-5.143733">
        <ele>2081.0</ele>
        <time>2013-05-11T13:10:40Z</time>
      </trkpt>
      <trkpt lat="40.530900" lon="-5.143567">
        <ele>2079.0</ele>
        <time>2013-05-11T13:10:41Z</time>
      </trkpt>
      <trkpt lat="40.530933" lon="-5.143417">
        <ele>2077.0</ele>
        <time>2013-05-11T13:10:42Z</time>
      </trkpt>
      <trkpt lat="40.530967" lon="-5.143250">
        <ele>2075.0</ele>
        <time>2013-05-11T13:10:43Z</time>
      </trkpt>
      <trkpt lat="40.531000" lon="-5.143100">
        <ele>2074.0</ele>
        <time>2013-05-11T13:10:44Z</time>
      </trkpt>
      <trkpt lat="40.531050" lon="-5.142967">
        <ele>2073.0</ele>
        <time>2013-05-11T13:10:45Z</time>
      </trkpt>
      <trkpt lat="40.531100" lon="-5.142833">
        <ele>2071.0</ele>
        <time>2013-05-11T13:10:46Z</time>
      </trkpt>
      <trkpt lat="40.531133" lon="-5.142717">
        <ele>2069.0</ele>
        <time>2013-05-11T13:10:47Z</time>
      </trkpt>
      <trkpt lat="40.531183" lon="-5.142567">
        <ele>2065.0</ele>
        <time>2013-05-11T13:10:48Z</time>
      </trkpt>
      <trkpt lat="40.531233" lon="-5.142400">
        <ele>2061.0</ele>
        <time>2013-05-11T13:10:49Z</time>
      </trkpt>
      <trkpt lat="40.531283" lon="-5.142233">
        <ele>2058.0</ele>
        <time>2013-05-11T13:10:50Z</time>
      </trkpt>
      <trkpt lat="40.531350" lon="-5.142067">
        <ele>2056.0</ele>
        <time>2013-05-11T13:10:51Z</time>
      </trkpt>
      <trkpt lat="40.531400" lon="-5.141917">
        <ele>2055.0</ele>
        <time>2013-05-11T13:10:52Z</time>
      </trkpt>
      <trkpt lat="40.531433" lon="-5.141767">
        <ele>2053.0</ele>
        <time>2013-05-11T13:10:53Z</time>
      </trkpt>
      <trkpt lat="40.531483" lon="-5.141633">
        <ele>2050.0</ele>
        <time>2013-05-11T13:10:54Z</time>
      </trkpt>
      <trkpt lat="40.531533" lon="-5.141467">
        <ele>2047.0</ele>
        <time>2013-05-11T13:10:55Z</time>
      </trkpt>
      <trkpt lat="40.531583" lon="-5.141317">
        <ele>2044.0</ele>
        <time>2013-05-11T13:10:56Z</time>
      </trkpt>
      <trkpt lat="40.531633" lon="-5.141150">
        <ele>2042.0</ele>
        <time>2013-05-11T13:10:57Z</time>
      </trkpt>
      <trkpt lat="40.531700" lon="-5.141000">
        <ele>2040.0</ele>
        <time>2013-05-11T13:10:58Z</time>
      </trkpt>
      <trkpt lat="40.531750" lon="-5.140850">
        <ele>2039.0</ele>
        <time>2013-05-11T13:10:59Z</time>
      </trkpt>
      <trkpt lat="40.531800" lon="-5.140717">
        <ele>2037.0</ele>
        <time>2013-05-11T13:11:00Z</time>
      </trkpt>
      <trkpt lat="40.531850" lon="-5.140567">
        <ele>2035.0</ele>
        <time>2013-05-11T13:11:01Z</time>
      </trkpt>
      <trkpt lat="40.531917" lon="-5.140433">
        <ele>2032.0</ele>
        <time>2013-05-11T13:11:02Z</time>
      </trkpt>
      <trkpt lat="40.531983" lon="-5.140300">
        <ele>2030.0</ele>
        <time>2013-05-11T13:11:03Z</time>
      </trkpt>
      <trkpt lat="40.532033" lon="-5.140167">
        <ele>2028.0</ele>
        <time>2013-05-11T13:11:04Z</time>
      </trkpt>
      <trkpt lat="40.532083" lon="-5.140017">
        <ele>2026.0</ele>
        <time>2013-05-11T13:11:05Z</time>
      </trkpt>
      <trkpt lat="40.532133" lon="-5.139867">
        <ele>2024.0</ele>
        <time>2013-05-11T13:11:06Z</time>
      </trkpt>
      <trkpt lat="40.532167" lon="-5.139717">
        <ele>2023.0</ele>
        <time>2013-05-11T13:11:07Z</time>
      </trkpt>
      <trkpt lat="40.532233" lon="-5.139583">
        <ele>2021.0</ele>
        <time>2013-05-11T13:11:08Z</time>
      </trkpt>
      <trkpt lat="40.532283" lon="-5.139433">
        <ele>2019.0</ele>
        <time>2013-05-11T13:11:09Z</time>
      </trkpt>
      <trkpt lat="40.532333" lon="-5.139283">
        <ele>2018.0</ele>
        <time>2013-05-11T13:11:10Z</time>
      </trkpt>
      <trkpt lat="40.532383" lon="-5.139150">
        <ele>2017.0</ele>
        <time>2013-05-11T13:11:11Z</time>
      </trkpt>
      <trkpt lat="40.532417" lon="-5.139000">
        <ele>2016.0</ele>
        <time>2013-05-11T13:11:12Z</time>
      </trkpt>
      <trkpt lat="40.532467" lon="-5.138883">
        <ele>2016.0</ele>
        <time>2013-05-11T13:11:13Z</time>
      </trkpt>
      <trkpt lat="40.532517" lon="-5.138767">
        <ele>2015.0</ele>
        <time>2013-05-11T13:11:14Z</time>
      </trkpt>
      <trkpt lat="40.532567" lon="-5.138633">
        <ele>2015.0</ele>
        <time>2013-05-11T13:11:15Z</time>
      </trkpt>
      <trkpt lat="40.532600" lon="-5.138500">
        <ele>2013.0</ele>
        <time>2013-05-11T13:11:16Z</time>
      </trkpt>
      <trkpt lat="40.532617" lon="-5.138350">
        <ele>2011.0</ele>
        <time>2013-05-11T13:11:17Z</time>
      </trkpt>
      <trkpt lat="40.532650" lon="-5.138200">
        <ele>2010.0</ele>
        <time>2013-05-11T13:11:18Z</time>
      </trkpt>
      <trkpt lat="40.532667" lon="-5.138083">
        <ele>2008.0</ele>
        <time>2013-05-11T13:11:19Z</time>
      </trkpt>
      <trkpt lat="40.532717" lon="-5.137950">
        <ele>2005.0</ele>
        <time>2013-05-11T13:11:20Z</time>
      </trkpt>
      <trkpt lat="40.532750" lon="-5.137800">
        <ele>2003.0</ele>
        <time>2013-05-11T13:11:21Z</time>
      </trkpt>
      <trkpt lat="40.532767" lon="-5.137650">
        <ele>2001.0</ele>
        <time>2013-05-11T13:11:22Z</time>
      </trkpt>
      <trkpt lat="40.532800" lon="-5.137483">
        <ele>2000.0</ele>
        <time>2013-05-11T13:11:23Z</time>
      </trkpt>
      <trkpt lat="40.532817" lon="-5.137333">
        <ele>1999.0</ele>
        <time>2013-05-11T13:11:24Z</time>
      </trkpt>
      <trkpt lat="40.532850" lon="-5.137200">
        <ele>1999.0</ele>
        <time>2013-05-11T13:11:25Z</time>
      </trkpt>
      <trkpt lat="40.532883" lon="-5.137067">
        <ele>1999.0</ele>
        <time>2013-05-11T13:11:26Z</time>
      </trkpt>
      <trkpt lat="40.532917" lon="-5.136917">
        <ele>1999.0</ele>
        <time>2013-05-11T13:11:27Z</time>
      </trkpt>
      <trkpt lat="40.532933" lon="-5.136767">
        <ele>1998.0</ele>
        <time>2013-05-11T13:11:28Z</time>
      </trkpt>
      <trkpt lat="40.532933" lon="-5.136600">
        <ele>1998.0</ele>
        <time>2013-05-11T13:11:29Z</time>
      </trkpt>
      <trkpt lat="40.532917" lon="-5.136450">
        <ele>1998.0</ele>
        <time>2013-05-11T13:11:30Z</time>
      </trkpt>
      <trkpt lat="40.532900" lon="-5.136317">
        <ele>1998.0</ele>
        <time>2013-05-11T13:11:31Z</time>
      </trkpt>
      <trkpt lat="40.532883" lon="-5.136200">
        <ele>1996.0</ele>
        <time>2013-05-11T13:11:32Z</time>
      </trkpt>
      <trkpt lat="40.532883" lon="-5.136083">
        <ele>1994.0</ele>
        <time>2013-05-11T13:11:33Z</time>
      </trkpt>
      <trkpt lat="40.532900" lon="-5.135950">
        <ele>1992.0</ele>
        <time>2013-05-11T13:11:34Z</time>
      </trkpt>
      <trkpt lat="40.532917" lon="-5.135800">
        <ele>1989.0</ele>
        <time>2013-05-11T13:11:35Z</time>
      </trkpt>
      <trkpt lat="40.532917" lon="-5.135667">
        <ele>1987.0</ele>
        <time>2013-05-11T13:11:36Z</time>
      </trkpt>
      <trkpt lat="40.532933" lon="-5.135517">
        <ele>1985.0</ele>
        <time>2013-05-11T13:11:37Z</time>
      </trkpt>
      <trkpt lat="40.532967" lon="-5.135367">
        <ele>1983.0</ele>
        <time>2013-05-11T13:11:38Z</time>
      </trkpt>
      <trkpt lat="40.533000" lon="-5.135233">
        <ele>1981.0</ele>
        <time>2013-05-11T13:11:39Z</time>
      </trkpt>
      <trkpt lat="40.533000" lon="-5.135100">
        <ele>1980.0</ele>
        <time>2013-05-11T13:11:40Z</time>
      </trkpt>
      <trkpt lat="40.533017" lon="-5.134950">
        <ele>1978.0</ele>
        <time>2013-05-11T13:11:41Z</time>
      </trkpt>
      <trkpt lat="40.533033" lon="-5.134817">
        <ele>1977.0</ele>
        <time>2013-05-11T13:11:42Z</time>
      </trkpt>
      <trkpt lat="40.533067" lon="-5.134683">
        <ele>1975.0</ele>
        <time>2013-05-11T13:11:43Z</time>
      </trkpt>
      <trkpt lat="40.533117" lon="-5.134550">
        <ele>1973.0</ele>
        <time>2013-05-11T13:11:44Z</time>
      </trkpt>
      <trkpt lat="40.533150" lon="-5.134417">
        <ele>1972.0</ele>
        <time>2013-05-11T13:11:45Z</time>
      </trkpt>
      <trkpt lat="40.533167" lon="-5.134267">
        <ele>1972.0</ele>
        <time>2013-05-11T13:11:46Z</time>
      </trkpt>
      <trkpt lat="40.533200" lon="-5.134133">
        <ele>1971.0</ele>
        <time>2013-05-11T13:11:47Z</time>
      </trkpt>
      <trkpt lat="40.533233" lon="-5.134000">
        <ele>1971.0</ele>
        <time>2013-05-11T13:11:48Z</time>
      </trkpt>
      <trkpt lat="40.533283" lon="-5.133867">
        <ele>1972.0</ele>
        <time>2013-05-11T13:11:49Z</time>
      </trkpt>
      <trkpt lat="40.533317" lon="-5.133750">
        <ele>1973.0</ele>
        <time>2013-05-11T13:11:50Z</time>
      </trkpt>
      <trkpt lat="40.533367" lon="-5.133633">
        <ele>1973.0</ele>
        <time>2013-05-11T13:11:51Z</time>
      </trkpt>
      <trkpt lat="40.533417" lon="-5.133517">
        <ele>1972.0</ele>
        <time>2013-05-11T13:11:52Z</time>
      </trkpt>
      <trkpt lat="40.533467" lon="-5.133383">
        <ele>1970.0</ele>
        <time>2013-05-11T13:11:53Z</time>
      </trkpt>
      <trkpt lat="40.533517" lon="-5.133250">
        <ele>1968.0</ele>
        <time>2013-05-11T13:11:54Z</time>
      </trkpt>
      <trkpt lat="40.533567" lon="-5.133117">
        <ele>1966.0</ele>
        <time>2013-05-11T13:11:55Z</time>
      </trkpt>
      <trkpt lat="40.533633" lon="-5.132983">
        <ele>1964.0</ele>
        <time>2013-05-11T13:11:56Z</time>
      </trkpt>
      <trkpt lat="40.533683" lon="-5.132850">
        <ele>1964.0</ele>
        <time>2013-05-11T13:11:57Z</time>
      </trkpt>
      <trkpt lat="40.533733" lon="-5.132733">
        <ele>1963.0</ele>
        <time>2013-05-11T13:11:58Z</time>
      </trkpt>
      <trkpt lat="40.533783" lon="-5.132617">
        <ele>1963.0</ele>
        <time>2013-05-11T13:11:59Z</time>
      </trkpt>
      <trkpt lat="40.533817" lon="-5.132500">
        <ele>1962.0</ele>
        <time>2013-05-11T13:12:00Z</time>
      </trkpt>
      <trkpt lat="40.533867" lon="-5.132383">
        <ele>1960.0</ele>
        <time>2013-05-11T13:12:01Z</time>
      </trkpt>
      <trkpt lat="40.533917" lon="-5.132283">
        <ele>1959.0</ele>
        <time>2013-05-11T13:12:02Z</time>
      </trkpt>
      <trkpt lat="40.533967" lon="-5.132167">
        <ele>1958.0</ele>
        <time>2013-05-11T13:12:03Z</time>
      </trkpt>
      <trkpt lat="40.534017" lon="-5.132067">
        <ele>1956.0</ele>
        <time>2013-05-11T13:12:04Z</time>
      </trkpt>
      <trkpt lat="40.534067" lon="-5.131950">
        <ele>1954.0</ele>
        <time>2013-05-11T13:12:05Z</time>
      </trkpt>
      <trkpt lat="40.534117" lon="-5.131833">
        <ele>1952.0</ele>
        <time>2013-05-11T13:12:06Z</time>
      </trkpt>
      <trkpt lat="40.534167" lon="-5.131717">
        <ele>1950.0</ele>
        <time>2013-05-11T13:12:07Z</time>
      </trkpt>
      <trkpt lat="40.534233" lon="-5.131600">
        <ele>1949.0</ele>
        <time>2013-05-11T13:12:08Z</time>
      </trkpt>
      <trkpt lat="40.534283" lon="-5.131483">
        <ele>1948.0</ele>
        <time>2013-05-11T13:12:09Z</time>
      </trkpt>
      <trkpt lat="40.534333" lon="-5.131367">
        <ele>1947.0</ele>
        <time>2013-05-11T13:12:10Z</time>
      </trkpt>
      <trkpt lat="40.534400" lon="-5.131233">
        <ele>1945.0</ele>
        <time>2013-05-11T13:12:11Z</time>
      </trkpt>
      <trkpt lat="40.534450" lon="-5.131117">
        <ele>1944.0</ele>
        <time>2013-05-11T13:12:12Z</time>
      </trkpt>
      <trkpt lat="40.534517" lon="-5.131000">
        <ele>1942.0</ele>
        <time>2013-05-11T13:12:13Z</time>
      </trkpt>
      <trkpt lat="40.534567" lon="-5.130883">
        <ele>1941.0</ele>
        <time>2013-05-11T13:12:14Z</time>
      </trkpt>
      <trkpt lat="40.534633" lon="-5.130767">
        <ele>1939.0</ele>
        <time>2013-05-11T13:12:15Z</time>
      </trkpt>
      <trkpt lat="40.534700" lon="-5.130633">
        <ele>1938.0</ele>
        <time>2013-05-11T13:12:16Z</time>
      </trkpt>
      <trkpt lat="40.534767" lon="-5.130500">
        <ele>1937.0</ele>
        <time>2013-05-11T13:12:17Z</time>
      </trkpt>
      <trkpt lat="40.534833" lon="-5.130367">
        <ele>1936.0</ele>
        <time>2013-05-11T13:12:18Z</time>
      </trkpt>
      <trkpt lat="40.534900" lon="-5.130250">
        <ele>1936.0</ele>
        <time>2013-05-11T13:12:19Z</time>
      </trkpt>
      <trkpt lat="40.534967" lon="-5.130133">
        <ele>1937.0</ele>
        <time>2013-05-11T13:12:20Z</time>
      </trkpt>
      <trkpt lat="40.535033" lon="-5.130000">
        <ele>1939.0</ele>
        <time>2013-05-11T13:12:21Z</time>
      </trkpt>
      <trkpt lat="40.535100" lon="-5.129867">
        <ele>1941.0</ele>
        <time>2013-05-11T13:12:22Z</time>
      </trkpt>
      <trkpt lat="40.535167" lon="-5.129733">
        <ele>1944.0</ele>
        <time>2013-05-11T13:12:23Z</time>
      </trkpt>
      <trkpt lat="40.535217" lon="-5.129617">
        <ele>1948.0</ele>
        <time>2013-05-11T13:12:24Z</time>
      </trkpt>
      <trkpt lat="40.535267" lon="-5.129517">
        <ele>1950.0</ele>
        <time>2013-05-11T13:12:25Z</time>
      </trkpt>
      <trkpt lat="40.535300" lon="-5.129433">
        <ele>1951.0</ele>
        <time>2013-05-11T13:12:26Z</time>
      </trkpt>
      <trkpt lat="40.535350" lon="-5.129333">
        <ele>1951.0</ele>
        <time>2013-05-11T13:12:27Z</time>
      </trkpt>
      <trkpt lat="40.535417" lon="-5.129250">
        <ele>1950.0</ele>
        <time>2013-05-11T13:12:28Z</time>
      </trkpt>
      <trkpt lat="40.535500" lon="-5.129133">
        <ele>1949.0</ele>
        <time>2013-05-11T13:12:29Z</time>
      </trkpt>
      <trkpt lat="40.535567" lon="-5.129000">
        <ele>1949.0</ele>
        <time>2013-05-11T13:12:30Z</time>
      </trkpt>
      <trkpt lat="40.535583" lon="-5.128833">
        <ele>1949.0</ele>
        <time>2013-05-11T13:12:31Z</time>
      </trkpt>
      <trkpt lat="40.535567" lon="-5.128667">
        <ele>1949.0</ele>
        <time>2013-05-11T13:12:32Z</time>
      </trkpt>
      <trkpt lat="40.535533" lon="-5.128517">
        <ele>1950.0</ele>
        <time>2013-05-11T13:12:33Z</time>
      </trkpt>
      <trkpt lat="40.535467" lon="-5.128417">
        <ele>1951.0</ele>
        <time>2013-05-11T13:12:34Z</time>
      </trkpt>
      <trkpt lat="40.535400" lon="-5.128317">
        <ele>1953.0</ele>
        <time>2013-05-11T13:12:35Z</time>
      </trkpt>
      <trkpt lat="40.535333" lon="-5.128217">
        <ele>1953.0</ele>
        <time>2013-05-11T13:12:36Z</time>
      </trkpt>
      <trkpt lat="40.535250" lon="-5.128150">
        <ele>1954.0</ele>
        <time>2013-05-11T13:12:37Z</time>
      </trkpt>
      <trkpt lat="40.535150" lon="-5.128100">
        <ele>1954.0</ele>
        <time>2013-05-11T13:12:38Z</time>
      </trkpt>
      <trkpt lat="40.535050" lon="-5.128100">
        <ele>1954.0</ele>
        <time>2013-05-11T13:12:39Z</time>
      </trkpt>
      <trkpt lat="40.534967" lon="-5.128133">
        <ele>1954.0</ele>
        <time>2013-05-11T13:12:40Z</time>
      </trkpt>
      <trkpt lat="40.534883" lon="-5.128200">
        <ele>1955.0</ele>
        <time>2013-05-11T13:12:41Z</time>
      </trkpt>
      <trkpt lat="40.534833" lon="-5.128283">
        <ele>1958.0</ele>
        <time>2013-05-11T13:12:42Z</time>
      </trkpt>
      <trkpt lat="40.534800" lon="-5.128350">
        <ele>1961.0</ele>
        <time>2013-05-11T13:12:43Z</time>
      </trkpt>
      <trkpt lat="40.534783" lon="-5.128417">
        <ele>1966.0</ele>
        <time>2013-05-11T13:12:44Z</time>
      </trkpt>
      <trkpt lat="40.534783" lon="-5.128467">
        <ele>1970.0</ele>
        <time>2013-05-11T13:12:45Z</time>
      </trkpt>
      <trkpt lat="40.534800" lon="-5.128500">
        <ele>1974.0</ele>
        <time>2013-05-11T13:12:46Z</time>
      </trkpt>
      <trkpt lat="40.534800" lon="-5.128533">
        <ele>1976.0</ele>
        <time>2013-05-11T13:12:47Z</time>
      </trkpt>
      <trkpt lat="40.534800" lon="-5.128583">
        <ele>1977.0</ele>
        <time>2013-05-11T13:12:48Z</time>
      </trkpt>
      <trkpt lat="40.534800" lon="-5.128650">
        <ele>1977.0</ele>
        <time>2013-05-11T13:12:49Z</time>
      </trkpt>
      <trkpt lat="40.534817" lon="-5.128733">
        <ele>1978.0</ele>
        <time>2013-05-11T13:12:50Z</time>
      </trkpt>
      <trkpt lat="40.534867" lon="-5.128800">
        <ele>1979.0</ele>
        <time>2013-05-11T13:12:51Z</time>
      </trkpt>
      <trkpt lat="40.534950" lon="-5.128817">
        <ele>1979.0</ele>
        <time>2013-05-11T13:12:52Z</time>
      </trkpt>
      <trkpt lat="40.535050" lon="-5.128783">
        <ele>1981.0</ele>
        <time>2013-05-11T13:12:53Z</time>
      </trkpt>
      <trkpt lat="40.535150" lon="-5.128717">
        <ele>1984.0</ele>
        <time>2013-05-11T13:12:54Z</time>
      </trkpt>
      <trkpt lat="40.535217" lon="-5.128650">
        <ele>1988.0</ele>
        <time>2013-05-11T13:12:55Z</time>
      </trkpt>
      <trkpt lat="40.535267" lon="-5.128583">
        <ele>1991.0</ele>
        <time>2013-05-11T13:12:56Z</time>
      </trkpt>
      <trkpt lat="40.535333" lon="-5.128517">
        <ele>1993.0</ele>
        <time>2013-05-11T13:12:57Z</time>
      </trkpt>
      <trkpt lat="40.535383" lon="-5.128417">
        <ele>1993.0</ele>
        <time>2013-05-11T13:12:58Z</time>
      </trkpt>
      <trkpt lat="40.535433" lon="-5.128300">
        <ele>1993.0</ele>
        <time>2013-05-11T13:12:59Z</time>
      </trkpt>
      <trkpt lat="40.535467" lon="-5.128150">
        <ele>1993.0</ele>
        <time>2013-05-11T13:13:00Z</time>
      </trkpt>
      <trkpt lat="40.535483" lon="-5.127983">
        <ele>1995.0</ele>
        <time>2013-05-11T13:13:01Z</time>
      </trkpt>
      <trkpt lat="40.535467" lon="-5.127817">
        <ele>1998.0</ele>
        <time>2013-05-11T13:13:02Z</time>
      </trkpt>
      <trkpt lat="40.535450" lon="-5.127700">
        <ele>2002.0</ele>
        <time>2013-05-11T13:13:03Z</time>
      </trkpt>
      <trkpt lat="40.535433" lon="-5.127600">
        <ele>2004.0</ele>
        <time>2013-05-11T13:13:04Z</time>
      </trkpt>
      <trkpt lat="40.535400" lon="-5.127483">
        <ele>2004.0</ele>
        <time>2013-05-11T13:13:05Z</time>
      </trkpt>
      <trkpt lat="40.535367" lon="-5.127367">
        <ele>2004.0</ele>
        <time>2013-05-11T13:13:06Z</time>
      </trkpt>
      <trkpt lat="40.535300" lon="-5.127267">
        <ele>2003.0</ele>
        <time>2013-05-11T13:13:07Z</time>
      </trkpt>
      <trkpt lat="40.535200" lon="-5.127200">
        <ele>2003.0</ele>
        <time>2013-05-11T13:13:08Z</time>
      </trkpt>
      <trkpt lat="40.535100" lon="-5.127167">
        <ele>2004.0</ele>
        <time>2013-05-11T13:13:09Z</time>
      </trkpt>
      <trkpt lat="40.535000" lon="-5.127150">
        <ele>2006.0</ele>
        <time>2013-05-11T13:13:10Z</time>
      </trkpt>
      <trkpt lat="40.534917" lon="-5.127150">
        <ele>2007.0</ele>
        <time>2013-05-11T13:13:11Z</time>
      </trkpt>
      <trkpt lat="40.534833" lon="-5.127167">
        <ele>2008.0</ele>
        <time>2013-05-11T13:13:12Z</time>
      </trkpt>
      <trkpt lat="40.534750" lon="-5.127200">
        <ele>2009.0</ele>
        <time>2013-05-11T13:13:13Z</time>
      </trkpt>
      <trkpt lat="40.534683" lon="-5.127267">
        <ele>2009.0</ele>
        <time>2013-05-11T13:13:14Z</time>
      </trkpt>
      <trkpt lat="40.534633" lon="-5.127350">
        <ele>2010.0</ele>
        <time>2013-05-11T13:13:15Z</time>
      </trkpt>
      <trkpt lat="40.534600" lon="-5.127417">
        <ele>2012.0</ele>
        <time>2013-05-11T13:13:16Z</time>
      </trkpt>
      <trkpt lat="40.534583" lon="-5.127483">
        <ele>2015.0</ele>
        <time>2013-05-11T13:13:17Z</time>
      </trkpt>
      <trkpt lat="40.534567" lon="-5.127517">
        <ele>2018.0</ele>
        <time>2013-05-11T13:13:18Z</time>
      </trkpt>
      <trkpt lat="40.534533" lon="-5.127583">
        <ele>2019.0</ele>
        <time>2013-05-11T13:13:19Z</time>
      </trkpt>
      <trkpt lat="40.534533" lon="-5.127650">
        <ele>2020.0</ele>
        <time>2013-05-11T13:13:20Z</time>
      </trkpt>
      <trkpt lat="40.534533" lon="-5.127733">
        <ele>2020.0</ele>
        <time>2013-05-11T13:13:21Z</time>
      </trkpt>
      <trkpt lat="40.534567" lon="-5.127833">
        <ele>2020.0</ele>
        <time>2013-05-11T13:13:22Z</time>
      </trkpt>
      <trkpt lat="40.534650" lon="-5.127883">
        <ele>2021.0</ele>
        <time>2013-05-11T13:13:23Z</time>
      </trkpt>
      <trkpt lat="40.534733" lon="-5.127883">
        <ele>2021.0</ele>
        <time>2013-05-11T13:13:24Z</time>
      </trkpt>
      <trkpt lat="40.534833" lon="-5.127850">
        <ele>2022.0</ele>
        <time>2013-05-11T13:13:25Z</time>
      </trkpt>
      <trkpt lat="40.534917" lon="-5.127800">
        <ele>2024.0</ele>
        <time>2013-05-11T13:13:26Z</time>
      </trkpt>
      <trkpt lat="40.535000" lon="-5.127750">
        <ele>2026.0</ele>
        <time>2013-05-11T13:13:27Z</time>
      </trkpt>
      <trkpt lat="40.535067" lon="-5.127683">
        <ele>2028.0</ele>
        <time>2013-05-11T13:13:28Z</time>
      </trkpt>
      <trkpt lat="40.535150" lon="-5.127617">
        <ele>2031.0</ele>
        <time>2013-05-11T13:13:29Z</time>
      </trkpt>
      <trkpt lat="40.535233" lon="-5.127533">
        <ele>2032.0</ele>
        <time>2013-05-11T13:13:30Z</time>
      </trkpt>
      <trkpt lat="40.535300" lon="-5.127433">
        <ele>2035.0</ele>
        <time>2013-05-11T13:13:31Z</time>
      </trkpt>
      <trkpt lat="40.535350" lon="-5.127317">
        <ele>2037.0</ele>
        <time>2013-05-11T13:13:32Z</time>
      </trkpt>
      <trkpt lat="40.535400" lon="-5.127183">
        <ele>2040.0</ele>
        <time>2013-05-11T13:13:33Z</time>
      </trkpt>
      <trkpt lat="40.535417" lon="-5.127050">
        <ele>2043.0</ele>
        <time>2013-05-11T13:13:34Z</time>
      </trkpt>
      <trkpt lat="40.535433" lon="-5.126917">
        <ele>2045.0</ele>
        <time>2013-05-11T13:13:35Z</time>
      </trkpt>
      <trkpt lat="40.535433" lon="-5.126800">
        <ele>2047.0</ele>
        <time>2013-05-11T13:13:36Z</time>
      </trkpt>
      <trkpt lat="40.535417" lon="-5.126683">
        <ele>2048.0</ele>
        <time>2013-05-11T13:13:37Z</time>
      </trkpt>
      <trkpt lat="40.535383" lon="-5.126567">
        <ele>2049.0</ele>
        <time>2013-05-11T13:13:38Z</time>
      </trkpt>
      <trkpt lat="40.535333" lon="-5.126450">
        <ele>2049.0</ele>
        <time>2013-05-11T13:13:39Z</time>
      </trkpt>
      <trkpt lat="40.535250" lon="-5.126350">
        <ele>2050.0</ele>
        <time>2013-05-11T13:13:40Z</time>
      </trkpt>
      <trkpt lat="40.535167" lon="-5.126250">
        <ele>2051.0</ele>
        <time>2013-05-11T13:13:41Z</time>
      </trkpt>
      <trkpt lat="40.535083" lon="-5.126167">
        <ele>2054.0</ele>
        <time>2013-05-11T13:13:42Z</time>
      </trkpt>
      <trkpt lat="40.535017" lon="-5.126117">
        <ele>2056.0</ele>
        <time>2013-05-11T13:13:43Z</time>
      </trkpt>
      <trkpt lat="40.534933" lon="-5.126067">
        <ele>2057.0</ele>
        <time>2013-05-11T13:13:44Z</time>
      </trkpt>
      <trkpt lat="40.534867" lon="-5.126033">
        <ele>2058.0</ele>
        <time>2013-05-11T13:13:45Z</time>
      </trkpt>
      <trkpt lat="40.534783" lon="-5.125967">
        <ele>2058.0</ele>
        <time>2013-05-11T13:13:46Z</time>
      </trkpt>
      <trkpt lat="40.534683" lon="-5.125917">
        <ele>2059.0</ele>
        <time>2013-05-11T13:13:47Z</time>
      </trkpt>
      <trkpt lat="40.534600" lon="-5.125883">
        <ele>2060.0</ele>
        <time>2013-05-11T13:13:48Z</time>
      </trkpt>
      <trkpt lat="40.534500" lon="-5.125883">
        <ele>2061.0</ele>
        <time>2013-05-11T13:13:49Z</time>
      </trkpt>
      <trkpt lat="40.534433" lon="-5.125933">
        <ele>2061.0</ele>
        <time>2013-05-11T13:13:50Z</time>
      </trkpt>
      <trkpt lat="40.534383" lon="-5.126017">
        <ele>2061.0</ele>
        <time>2013-05-11T13:13:51Z</time>
      </trkpt>
      <trkpt lat="40.534383" lon="-5.126117">
        <ele>2063.0</ele>
        <time>2013-05-11T13:13:52Z</time>
      </trkpt>
      <trkpt lat="40.534417" lon="-5.126200">
        <ele>2066.0</ele>
        <time>2013-05-11T13:13:53Z</time>
      </trkpt>
      <trkpt lat="40.534450" lon="-5.126250">
        <ele>2069.0</ele>
        <time>2013-05-11T13:13:54Z</time>
      </trkpt>
      <trkpt lat="40.534500" lon="-5.126300">
        <ele>2071.0</ele>
        <time>2013-05-11T13:13:55Z</time>
      </trkpt>
      <trkpt lat="40.534567" lon="-5.126317">
        <ele>2072.0</ele>
        <time>2013-05-11T13:13:56Z</time>
      </trkpt>
      <trkpt lat="40.534633" lon="-5.126333">
        <ele>2074.0</ele>
        <time>2013-05-11T13:13:57Z</time>
      </trkpt>
      <trkpt lat="40.534717" lon="-5.126333">
        <ele>2075.0</ele>
        <time>2013-05-11T13:13:58Z</time>
      </trkpt>
      <trkpt lat="40.534800" lon="-5.126317">
        <ele>2077.0</ele>
        <time>2013-05-11T13:13:59Z</time>
      </trkpt>
      <trkpt lat="40.534883" lon="-5.126283">
        <ele>2079.0</ele>
        <time>2013-05-11T13:14:00Z</time>
      </trkpt>
      <trkpt lat="40.534950" lon="-5.126233">
        <ele>2080.0</ele>
        <time>2013-05-11T13:14:01Z</time>
      </trkpt>
      <trkpt lat="40.535033" lon="-5.126150">
        <ele>2081.0</ele>
        <time>2013-05-11T13:14:02Z</time>
      </trkpt>
      <trkpt lat="40.535100" lon="-5.126033">
        <ele>2082.0</ele>
        <time>2013-05-11T13:14:03Z</time>
      </trkpt>
      <trkpt lat="40.535150" lon="-5.125900">
        <ele>2084.0</ele>
        <time>2013-05-11T13:14:04Z</time>
      </trkpt>
      <trkpt lat="40.535183" lon="-5.125767">
        <ele>2087.0</ele>
        <time>2013-05-11T13:14:05Z</time>
      </trkpt>
      <trkpt lat="40.535200" lon="-5.125650">
        <ele>2089.0</ele>
        <time>2013-05-11T13:14:06Z</time>
      </trkpt>
      <trkpt lat="40.535200" lon="-5.125517">
        <ele>2091.0</ele>
        <time>2013-05-11T13:14:07Z</time>
      </trkpt>
      <trkpt lat="40.535183" lon="-5.125400">
        <ele>2091.0</ele>
        <time>2013-05-11T13:14:08Z</time>
      </trkpt>
      <trkpt lat="40.535150" lon="-5.125267">
        <ele>2091.0</ele>
        <time>2013-05-11T13:14:09Z</time>
      </trkpt>
      <trkpt lat="40.535100" lon="-5.125150">
        <ele>2092.0</ele>
        <time>2013-05-11T13:14:10Z</time>
      </trkpt>
      <trkpt lat="40.535017" lon="-5.125067">
        <ele>2092.0</ele>
        <time>2013-05-11T13:14:11Z</time>
      </trkpt>
      <trkpt lat="40.534917" lon="-5.125000">
        <ele>2092.0</ele>
        <time>2013-05-11T13:14:12Z</time>
      </trkpt>
      <trkpt lat="40.534833" lon="-5.124967">
        <ele>2093.0</ele>
        <time>2013-05-11T13:14:13Z</time>
      </trkpt>
      <trkpt lat="40.534733" lon="-5.124950">
        <ele>2093.0</ele>
        <time>2013-05-11T13:14:14Z</time>
      </trkpt>
      <trkpt lat="40.534650" lon="-5.124950">
        <ele>2095.0</ele>
        <time>2013-05-11T13:14:15Z</time>
      </trkpt>
      <trkpt lat="40.534567" lon="-5.124967">
        <ele>2096.0</ele>
        <time>2013-05-11T13:14:16Z</time>
      </trkpt>
      <trkpt lat="40.534500" lon="-5.125000">
        <ele>2097.0</ele>
        <time>2013-05-11T13:14:17Z</time>
      </trkpt>
      <trkpt lat="40.534450" lon="-5.125067">
        <ele>2098.0</ele>
        <time>2013-05-11T13:14:18Z</time>
      </trkpt>
      <trkpt lat="40.534400" lon="-5.125117">
        <ele>2100.0</ele>
        <time>2013-05-11T13:14:19Z</time>
      </trkpt>
      <trkpt lat="40.534383" lon="-5.125183">
        <ele>2101.0</ele>
        <time>2013-05-11T13:14:20Z</time>
      </trkpt>
      <trkpt lat="40.534383" lon="-5.125267">
        <ele>2102.0</ele>
        <time>2013-05-11T13:14:21Z</time>
      </trkpt>
      <trkpt lat="40.534400" lon="-5.125333">
        <ele>2104.0</ele>
        <time>2013-05-11T13:14:22Z</time>
      </trkpt>
      <trkpt lat="40.534467" lon="-5.125400">
        <ele>2105.0</ele>
        <time>2013-05-11T13:14:23Z</time>
      </trkpt>
      <trkpt lat="40.534550" lon="-5.125450">
        <ele>2106.0</ele>
        <time>2013-05-11T13:14:24Z</time>
      </trkpt>
      <trkpt lat="40.534633" lon="-5.125483">
        <ele>2107.0</ele>
        <time>2013-05-11T13:14:25Z</time>
      </trkpt>
      <trkpt lat="40.534717" lon="-5.125483">
        <ele>2109.0</ele>
        <time>2013-05-11T13:14:26Z</time>
      </trkpt>
      <trkpt lat="40.534817" lon="-5.125483">
        <ele>2111.0</ele>
        <time>2013-05-11T13:14:27Z</time>
      </trkpt>
      <trkpt lat="40.534900" lon="-5.125450">
        <ele>2112.0</ele>
        <time>2013-05-11T13:14:28Z</time>
      </trkpt>
      <trkpt lat="40.535000" lon="-5.125383">
        <ele>2114.0</ele>
        <time>2013-05-11T13:14:29Z</time>
      </trkpt>
      <trkpt lat="40.535067" lon="-5.125317">
        <ele>2116.0</ele>
        <time>2013-05-11T13:14:30Z</time>
      </trkpt>
      <trkpt lat="40.535133" lon="-5.125233">
        <ele>2118.0</ele>
        <time>2013-05-11T13:14:31Z</time>
      </trkpt>
      <trkpt lat="40.535200" lon="-5.125133">
        <ele>2119.0</ele>
        <time>2013-05-11T13:14:32Z</time>
      </trkpt>
      <trkpt lat="40.535250" lon="-5.125000">
        <ele>2119.0</ele>
        <time>2013-05-11T13:14:33Z</time>
      </trkpt>
      <trkpt lat="40.535283" lon="-5.124833">
        <ele>2119.0</ele>
        <time>2013-05-11T13:14:34Z</time>
      </trkpt>
      <trkpt lat="40.535300" lon="-5.124667">
        <ele>2120.0</ele>
        <time>2013-05-11T13:14:35Z</time>
      </trkpt>
      <trkpt lat="40.535300" lon="-5.124500">
        <ele>2122.0</ele>
        <time>2013-05-11T13:14:36Z</time>
      </trkpt>
      <trkpt lat="40.535283" lon="-5.124350">
        <ele>2125.0</ele>
        <time>2013-05-11T13:14:37Z</time>
      </trkpt>
      <trkpt lat="40.535267" lon="-5.124233">
        <ele>2127.0</ele>
        <time>2013-05-11T13:14:38Z</time>
      </trkpt>
      <trkpt lat="40.535233" lon="-5.124117">
        <ele>2128.0</ele>
        <time>2013-05-11T13:14:39Z</time>
      </trkpt>
      <trkpt lat="40.535183" lon="-5.124000">
        <ele>2128.0</ele>
        <time>2013-05-11T13:14:40Z</time>
      </trkpt>
      <trkpt lat="40.535100" lon="-5.123900">
        <ele>2126.0</ele>
        <time>2013-05-11T13:14:41Z</time>
      </trkpt>
      <trkpt lat="40.535017" lon="-5.123817">
        <ele>2126.0</ele>
        <time>2013-05-11T13:14:42Z</time>
      </trkpt>
      <trkpt lat="40.534917" lon="-5.123750">
        <ele>2126.0</ele>
        <time>2013-05-11T13:14:43Z</time>
      </trkpt>
      <trkpt lat="40.534817" lon="-5.123733">
        <ele>2127.0</ele>
        <time>2013-05-11T13:14:44Z</time>
      </trkpt>
      <trkpt lat="40.534717" lon="-5.123750">
        <ele>2129.0</ele>
        <time>2013-05-11T13:14:45Z</time>
      </trkpt>
      <trkpt lat="40.534650" lon="-5.123767">
        <ele>2129.0</ele>
        <time>2013-05-11T13:14:46Z</time>
      </trkpt>
      <trkpt lat="40.534567" lon="-5.123817">
        <ele>2130.0</ele>
        <time>2013-05-11T13:14:47Z</time>
      </trkpt>
      <trkpt lat="40.534517" lon="-5.123883">
        <ele>2131.0</ele>
        <time>2013-05-11T13:14:48Z</time>
      </trkpt>
      <trkpt lat="40.534483" lon="-5.123950">
        <ele>2131.0</ele>
        <time>2013-05-11T13:14:49Z</time>
      </trkpt>
      <trkpt lat="40.534483" lon="-5.124033">
        <ele>2131.0</ele>
        <time>2013-05-11T13:14:50Z</time>
      </trkpt>
      <trkpt lat="40.534500" lon="-5.124100">
        <ele>2131.0</ele>
        <time>2013-05-11T13:14:51Z</time>
      </trkpt>
      <trkpt lat="40.534550" lon="-5.124167">
        <ele>2130.0</ele>
        <time>2013-05-11T13:14:52Z</time>
      </trkpt>
      <trkpt lat="40.534600" lon="-5.124217">
        <ele>2131.0</ele>
        <time>2013-05-11T13:14:53Z</time>
      </trkpt>
      <trkpt lat="40.534667" lon="-5.124250">
        <ele>2131.0</ele>
        <time>2013-05-11T13:14:54Z</time>
      </trkpt>
      <trkpt lat="40.534750" lon="-5.124267">
        <ele>2133.0</ele>
        <time>2013-05-11T13:14:55Z</time>
      </trkpt>
      <trkpt lat="40.534833" lon="-5.124250">
        <ele>2134.0</ele>
        <time>2013-05-11T13:14:56Z</time>
      </trkpt>
      <trkpt lat="40.534900" lon="-5.124233">
        <ele>2135.0</ele>
        <time>2013-05-11T13:14:57Z</time>
      </trkpt>
      <trkpt lat="40.534983" lon="-5.124183">
        <ele>2135.0</ele>
        <time>2013-05-11T13:14:58Z</time>
      </trkpt>
      <trkpt lat="40.535067" lon="-5.124133">
        <ele>2135.0</ele>
        <time>2013-05-11T13:14:59Z</time>
      </trkpt>
      <trkpt lat="40.535133" lon="-5.124033">
        <ele>2136.0</ele>
        <time>2013-05-11T13:15:00Z</time>
      </trkpt>
      <trkpt lat="40.535200" lon="-5.123933">
        <ele>2136.0</ele>
        <time>2013-05-11T13:15:01Z</time>
      </trkpt>
      <trkpt lat="40.535267" lon="-5.123817">
        <ele>2137.0</ele>
        <time>2013-05-11T13:15:02Z</time>
      </trkpt>
      <trkpt lat="40.535300" lon="-5.123667">
        <ele>2137.0</ele>
        <time>2013-05-11T13:15:03Z</time>
      </trkpt>
      <trkpt lat="40.535333" lon="-5.123517">
        <ele>2138.0</ele>
        <time>2013-05-11T13:15:04Z</time>
      </trkpt>
      <trkpt lat="40.535350" lon="-5.123367">
        <ele>2139.0</ele>
        <time>2013-05-11T13:15:05Z</time>
      </trkpt>
      <trkpt lat="40.535350" lon="-5.123217">
        <ele>2139.0</ele>
        <time>2013-05-11T13:15:06Z</time>
      </trkpt>
      <trkpt lat="40.535333" lon="-5.123067">
        <ele>2140.0</ele>
        <time>2013-05-11T13:15:07Z</time>
      </trkpt>
      <trkpt lat="40.535317" lon="-5.122917">
        <ele>2140.0</ele>
        <time>2013-05-11T13:15:08Z</time>
      </trkpt>
      <trkpt lat="40.535283" lon="-5.122767">
        <ele>2141.0</ele>
        <time>2013-05-11T13:15:09Z</time>
      </trkpt>
      <trkpt lat="40.535250" lon="-5.122617">
        <ele>2141.0</ele>
        <time>2013-05-11T13:15:10Z</time>
      </trkpt>
      <trkpt lat="40.535200" lon="-5.122467">
        <ele>2142.0</ele>
        <time>2013-05-11T13:15:11Z</time>
      </trkpt>
      <trkpt lat="40.535133" lon="-5.122333">
        <ele>2143.0</ele>
        <time>2013-05-11T13:15:12Z</time>
      </trkpt>
      <trkpt lat="40.535067" lon="-5.122217">
        <ele>2144.0</ele>
        <time>2013-05-11T13:15:13Z</time>
      </trkpt>
      <trkpt lat="40.535000" lon="-5.122083">
        <ele>2146.0</ele>
        <time>2013-05-11T13:15:14Z</time>
      </trkpt>
      <trkpt lat="40.534933" lon="-5.121967">
        <ele>2147.0</ele>
        <time>2013-05-11T13:15:15Z</time>
      </trkpt>
      <trkpt lat="40.534867" lon="-5.121850">
        <ele>2149.0</ele>
        <time>2013-05-11T13:15:16Z</time>
      </trkpt>
      <trkpt lat="40.534817" lon="-5.121733">
        <ele>2149.0</ele>
        <time>2013-05-11T13:15:17Z</time>
      </trkpt>
      <trkpt lat="40.534733" lon="-5.121617">
        <ele>2151.0</ele>
        <time>2013-05-11T13:15:18Z</time>
      </trkpt>
      <trkpt lat="40.534650" lon="-5.121517">
        <ele>2151.0</ele>
        <time>2013-05-11T13:15:19Z</time>
      </trkpt>
      <trkpt lat="40.534567" lon="-5.121417">
        <ele>2151.0</ele>
        <time>2013-05-11T13:15:20Z</time>
      </trkpt>
      <trkpt lat="40.534483" lon="-5.121300">
        <ele>2152.0</ele>
        <time>2013-05-11T13:15:21Z</time>
      </trkpt>
      <trkpt lat="40.534400" lon="-5.121217">
        <ele>2152.0</ele>
        <time>2013-05-11T13:15:22Z</time>
      </trkpt>
      <trkpt lat="40.534300" lon="-5.121133">
        <ele>2153.0</ele>
        <time>2013-05-11T13:15:23Z</time>
      </trkpt>
      <trkpt lat="40.534183" lon="-5.121100">
        <ele>2152.0</ele>
        <time>2013-05-11T13:15:24Z</time>
      </trkpt>
      <trkpt lat="40.534067" lon="-5.121100">
        <ele>2154.0</ele>
        <time>2013-05-11T13:15:25Z</time>
      </trkpt>
      <trkpt lat="40.533983" lon="-5.121117">
        <ele>2158.0</ele>
        <time>2013-05-11T13:15:26Z</time>
      </trkpt>
      <trkpt lat="40.533917" lon="-5.121150">
        <ele>2161.0</ele>
        <time>2013-05-11T13:15:27Z</time>
      </trkpt>
      <trkpt lat="40.533867" lon="-5.121183">
        <ele>2163.0</ele>
        <time>2013-05-11T13:15:28Z</time>
      </trkpt>
      <trkpt lat="40.533817" lon="-5.121233">
        <ele>2164.0</ele>
        <time>2013-05-11T13:15:29Z</time>
      </trkpt>
      <trkpt lat="40.533783" lon="-5.121300">
        <ele>2164.0</ele>
        <time>2013-05-11T13:15:30Z</time>
      </trkpt>
      <trkpt lat="40.533767" lon="-5.121383">
        <ele>2164.0</ele>
        <time>2013-05-11T13:15:31Z</time>
      </trkpt>
      <trkpt lat="40.533800" lon="-5.121450">
        <ele>2164.0</ele>
        <time>2013-05-11T13:15:32Z</time>
      </trkpt>
      <trkpt lat="40.533850" lon="-5.121517">
        <ele>2165.0</ele>
        <time>2013-05-11T13:15:33Z</time>
      </trkpt>
      <trkpt lat="40.533917" lon="-5.121533">
        <ele>2167.0</ele>
        <time>2013-05-11T13:15:34Z</time>
      </trkpt>
      <trkpt lat="40.533967" lon="-5.121533">
        <ele>2169.0</ele>
        <time>2013-05-11T13:15:35Z</time>
      </trkpt>
      <trkpt lat="40.534033" lon="-5.121533">
        <ele>2170.0</ele>
        <time>2013-05-11T13:15:36Z</time>
      </trkpt>
      <trkpt lat="40.534100" lon="-5.121500">
        <ele>2171.0</ele>
        <time>2013-05-11T13:15:37Z</time>
      </trkpt>
      <trkpt lat="40.534183" lon="-5.121433">
        <ele>2170.0</ele>
        <time>2013-05-11T13:15:38Z</time>
      </trkpt>
      <trkpt lat="40.534267" lon="-5.121350">
        <ele>2171.0</ele>
        <time>2013-05-11T13:15:39Z</time>
      </trkpt>
      <trkpt lat="40.534333" lon="-5.121250">
        <ele>2172.0</ele>
        <time>2013-05-11T13:15:40Z</time>
      </trkpt>
      <trkpt lat="40.534400" lon="-5.121150">
        <ele>2174.0</ele>
        <time>2013-05-11T13:15:41Z</time>
      </trkpt>
      <trkpt lat="40.534450" lon="-5.121050">
        <ele>2175.0</ele>
        <time>2013-05-11T13:15:42Z</time>
      </trkpt>
      <trkpt lat="40.534483" lon="-5.120917">
        <ele>2175.0</ele>
        <time>2013-05-11T13:15:43Z</time>
      </trkpt>
      <trkpt lat="40.534517" lon="-5.120750">
        <ele>2175.0</ele>
        <time>2013-05-11T13:15:44Z</time>
      </trkpt>
      <trkpt lat="40.534533" lon="-5.120583">
        <ele>2176.0</ele>
        <time>2013-05-11T13:15:45Z</time>
      </trkpt>
      <trkpt lat="40.534533" lon="-5.120417">
        <ele>2177.0</ele>
        <time>2013-05-11T13:15:46Z</time>
      </trkpt>
      <trkpt lat="40.534517" lon="-5.120267">
        <ele>2178.0</ele>
        <time>2013-05-11T13:15:47Z</time>
      </trkpt>
      <trkpt lat="40.534500" lon="-5.120117">
        <ele>2179.0</ele>
        <time>2013-05-11T13:15:48Z</time>
      </trkpt>
      <trkpt lat="40.534467" lon="-5.119983">
        <ele>2179.0</ele>
        <time>2013-05-11T13:15:49Z</time>
      </trkpt>
      <trkpt lat="40.534417" lon="-5.119833">
        <ele>2179.0</ele>
        <time>2013-05-11T13:15:50Z</time>
      </trkpt>
      <trkpt lat="40.534367" lon="-5.119683">
        <ele>2178.0</ele>
        <time>2013-05-11T13:15:51Z</time>
      </trkpt>
      <trkpt lat="40.534300" lon="-5.119517">
        <ele>2178.0</ele>
        <time>2013-05-11T13:15:52Z</time>
      </trkpt>
      <trkpt lat="40.534233" lon="-5.119383">
        <ele>2178.0</ele>
        <time>2013-05-11T13:15:53Z</time>
      </trkpt>
      <trkpt lat="40.534150" lon="-5.119250">
        <ele>2179.0</ele>
        <time>2013-05-11T13:15:54Z</time>
      </trkpt>
      <trkpt lat="40.534050" lon="-5.119117">
        <ele>2180.0</ele>
        <time>2013-05-11T13:15:55Z</time>
      </trkpt>
      <trkpt lat="40.533967" lon="-5.119017">
        <ele>2181.0</ele>
        <time>2013-05-11T13:15:56Z</time>
      </trkpt>
      <trkpt lat="40.533867" lon="-5.118917">
        <ele>2182.0</ele>
        <time>2013-05-11T13:15:57Z</time>
      </trkpt>
      <trkpt lat="40.533767" lon="-5.118833">
        <ele>2184.0</ele>
        <time>2013-05-11T13:15:58Z</time>
      </trkpt>
      <trkpt lat="40.533683" lon="-5.118783">
        <ele>2185.0</ele>
        <time>2013-05-11T13:15:59Z</time>
      </trkpt>
      <trkpt lat="40.533583" lon="-5.118767">
        <ele>2186.0</ele>
        <time>2013-05-11T13:16:00Z</time>
      </trkpt>
      <trkpt lat="40.533500" lon="-5.118750">
        <ele>2187.0</ele>
        <time>2013-05-11T13:16:01Z</time>
      </trkpt>
      <trkpt lat="40.533417" lon="-5.118783">
        <ele>2188.0</ele>
        <time>2013-05-11T13:16:02Z</time>
      </trkpt>
      <trkpt lat="40.533367" lon="-5.118817">
        <ele>2190.0</ele>
        <time>2013-05-11T13:16:03Z</time>
      </trkpt>
      <trkpt lat="40.533317" lon="-5.118867">
        <ele>2192.0</ele>
        <time>2013-05-11T13:16:04Z</time>
      </trkpt>
      <trkpt lat="40.533300" lon="-5.118917">
        <ele>2193.0</ele>
        <time>2013-05-11T13:16:05Z</time>
      </trkpt>
      <trkpt lat="40.533300" lon="-5.118983">
        <ele>2195.0</ele>
        <time>2013-05-11T13:16:06Z</time>
      </trkpt>
      <trkpt lat="40.533317" lon="-5.119033">
        <ele>2197.0</ele>
        <time>2013-05-11T13:16:07Z</time>
      </trkpt>
      <trkpt lat="40.533367" lon="-5.119083">
        <ele>2200.0</ele>
        <time>2013-05-11T13:16:08Z</time>
      </trkpt>
      <trkpt lat="40.533400" lon="-5.119100">
        <ele>2202.0</ele>
        <time>2013-05-11T13:16:09Z</time>
      </trkpt>
      <trkpt lat="40.533467" lon="-5.119117">
        <ele>2204.0</ele>
        <time>2013-05-11T13:16:10Z</time>
      </trkpt>
      <trkpt lat="40.533533" lon="-5.119100">
        <ele>2205.0</ele>
        <time>2013-05-11T13:16:11Z</time>
      </trkpt>
      <trkpt lat="40.533617" lon="-5.119050">
        <ele>2206.0</ele>
        <time>2013-05-11T13:16:12Z</time>
      </trkpt>
      <trkpt lat="40.533717" lon="-5.118967">
        <ele>2206.0</ele>
        <time>2013-05-11T13:16:13Z</time>
      </trkpt>
      <trkpt lat="40.533783" lon="-5.118850">
        <ele>2207.0</ele>
        <time>2013-05-11T13:16:14Z</time>
      </trkpt>
      <trkpt lat="40.533833" lon="-5.118717">
        <ele>2208.0</ele>
        <time>2013-05-11T13:16:15Z</time>
      </trkpt>
      <trkpt lat="40.533867" lon="-5.118583">
        <ele>2210.0</ele>
        <time>2013-05-11T13:16:16Z</time>
      </trkpt>
      <trkpt lat="40.533883" lon="-5.118483">
        <ele>2211.0</ele>
        <time>2013-05-11T13:16:17Z</time>
      </trkpt>
      <trkpt lat="40.533917" lon="-5.118383">
        <ele>2212.0</ele>
        <time>2013-05-11T13:16:18Z</time>
      </trkpt>
      <trkpt lat="40.533933" lon="-5.118283">
        <ele>2211.0</ele>
        <time>2013-05-11T13:16:19Z</time>
      </trkpt>
      <trkpt lat="40.533950" lon="-5.118167">
        <ele>2211.0</ele>
        <time>2013-05-11T13:16:20Z</time>
      </trkpt>
      <trkpt lat="40.533983" lon="-5.118033">
        <ele>2210.0</ele>
        <time>2013-05-11T13:16:21Z</time>
      </trkpt>
      <trkpt lat="40.534000" lon="-5.117883">
        <ele>2210.0</ele>
        <time>2013-05-11T13:16:22Z</time>
      </trkpt>
      <trkpt lat="40.534000" lon="-5.117717">
        <ele>2211.0</ele>
        <time>2013-05-11T13:16:23Z</time>
      </trkpt>
      <trkpt lat="40.533983" lon="-5.117550">
        <ele>2212.0</ele>
        <time>2013-05-11T13:16:24Z</time>
      </trkpt>
      <trkpt lat="40.533967" lon="-5.117400">
        <ele>2214.0</ele>
        <time>2013-05-11T13:16:25Z</time>
      </trkpt>
      <trkpt lat="40.533950" lon="-5.117250">
        <ele>2216.0</ele>
        <time>2013-05-11T13:16:26Z</time>
      </trkpt>
      <trkpt lat="40.533917" lon="-5.117117">
        <ele>2216.0</ele>
        <time>2013-05-11T13:16:27Z</time>
      </trkpt>
      <trkpt lat="40.533867" lon="-5.116950">
        <ele>2217.0</ele>
        <time>2013-05-11T13:16:28Z</time>
      </trkpt>
      <trkpt lat="40.533800" lon="-5.116800">
        <ele>2217.0</ele>
        <time>2013-05-11T13:16:29Z</time>
      </trkpt>
      <trkpt lat="40.533700" lon="-5.116650">
        <ele>2218.0</ele>
        <time>2013-05-11T13:16:30Z</time>
      </trkpt>
      <trkpt lat="40.533617" lon="-5.116517">
        <ele>2219.0</ele>
        <time>2013-05-11T13:16:31Z</time>
      </trkpt>
      <trkpt lat="40.533517" lon="-5.116417">
        <ele>2221.0</ele>
        <time>2013-05-11T13:16:32Z</time>
      </trkpt>
      <trkpt lat="40.533433" lon="-5.116317">
        <ele>2221.0</ele>
        <time>2013-05-11T13:16:33Z</time>
      </trkpt>
      <trkpt lat="40.533317" lon="-5.116250">
        <ele>2221.0</ele>
        <time>2013-05-11T13:16:34Z</time>
      </trkpt>
      <trkpt lat="40.533217" lon="-5.116183">
        <ele>2221.0</ele>
        <time>2013-05-11T13:16:35Z</time>
      </trkpt>
      <trkpt lat="40.533100" lon="-5.116133">
        <ele>2221.0</ele>
        <time>2013-05-11T13:16:36Z</time>
      </trkpt>
      <trkpt lat="40.533000" lon="-5.116133">
        <ele>2222.0</ele>
        <time>2013-05-11T13:16:37Z</time>
      </trkpt>
      <trkpt lat="40.532917" lon="-5.116167">
        <ele>2221.0</ele>
        <time>2013-05-11T13:16:38Z</time>
      </trkpt>
      <trkpt lat="40.532867" lon="-5.116233">
        <ele>2221.0</ele>
        <time>2013-05-11T13:16:39Z</time>
      </trkpt>
      <trkpt lat="40.532833" lon="-5.116300">
        <ele>2222.0</ele>
        <time>2013-05-11T13:16:40Z</time>
      </trkpt>
      <trkpt lat="40.532800" lon="-5.116367">
        <ele>2224.0</ele>
        <time>2013-05-11T13:16:41Z</time>
      </trkpt>
      <trkpt lat="40.532783" lon="-5.116417">
        <ele>2226.0</ele>
        <time>2013-05-11T13:16:42Z</time>
      </trkpt>
      <trkpt lat="40.532783" lon="-5.116450">
        <ele>2227.0</ele>
        <time>2013-05-11T13:16:43Z</time>
      </trkpt>
      <trkpt lat="40.532783" lon="-5.116500">
        <ele>2227.0</ele>
        <time>2013-05-11T13:16:44Z</time>
      </trkpt>
      <trkpt lat="40.532783" lon="-5.116533">
        <ele>2226.0</ele>
        <time>2013-05-11T13:16:45Z</time>
      </trkpt>
      <trkpt lat="40.532800" lon="-5.116583">
        <ele>2224.0</ele>
        <time>2013-05-11T13:16:46Z</time>
      </trkpt>
      <trkpt lat="40.532850" lon="-5.116617">
        <ele>2222.0</ele>
        <time>2013-05-11T13:16:47Z</time>
      </trkpt>
      <trkpt lat="40.532900" lon="-5.116650">
        <ele>2221.0</ele>
        <time>2013-05-11T13:16:48Z</time>
      </trkpt>
      <trkpt lat="40.532967" lon="-5.116633">
        <ele>2220.0</ele>
        <time>2013-05-11T13:16:49Z</time>
      </trkpt>
      <trkpt lat="40.533017" lon="-5.116583">
        <ele>2221.0</ele>
        <time>2013-05-11T13:16:50Z</time>
      </trkpt>
      <trkpt lat="40.533067" lon="-5.116483">
        <ele>2221.0</ele>
        <time>2013-05-11T13:16:51Z</time>
      </trkpt>
      <trkpt lat="40.533100" lon="-5.116333">
        <ele>2220.0</ele>
        <time>2013-05-11T13:16:52Z</time>
      </trkpt>
      <trkpt lat="40.533117" lon="-5.116200">
        <ele>2220.0</ele>
        <time>2013-05-11T13:16:53Z</time>
      </trkpt>
      <trkpt lat="40.533133" lon="-5.116050">
        <ele>2220.0</ele>
        <time>2013-05-11T13:16:54Z</time>
      </trkpt>
      <trkpt lat="40.533133" lon="-5.115883">
        <ele>2221.0</ele>
        <time>2013-05-11T13:16:55Z</time>
      </trkpt>
      <trkpt lat="40.533117" lon="-5.115717">
        <ele>2221.0</ele>
        <time>2013-05-11T13:16:56Z</time>
      </trkpt>
      <trkpt lat="40.533117" lon="-5.115550">
        <ele>2222.0</ele>
        <time>2013-05-11T13:16:57Z</time>
      </trkpt>
      <trkpt lat="40.533117" lon="-5.115383">
        <ele>2222.0</ele>
        <time>2013-05-11T13:16:58Z</time>
      </trkpt>
      <trkpt lat="40.533133" lon="-5.115217">
        <ele>2223.0</ele>
        <time>2013-05-11T13:16:59Z</time>
      </trkpt>
      <trkpt lat="40.533133" lon="-5.115067">
        <ele>2224.0</ele>
        <time>2013-05-11T13:17:00Z</time>
      </trkpt>
      <trkpt lat="40.533133" lon="-5.114900">
        <ele>2225.0</ele>
        <time>2013-05-11T13:17:01Z</time>
      </trkpt>
      <trkpt lat="40.533133" lon="-5.114733">
        <ele>2225.0</ele>
        <time>2013-05-11T13:17:02Z</time>
      </trkpt>
      <trkpt lat="40.533117" lon="-5.114583">
        <ele>2226.0</ele>
        <time>2013-05-11T13:17:03Z</time>
      </trkpt>
      <trkpt lat="40.533083" lon="-5.114433">
        <ele>2226.0</ele>
        <time>2013-05-11T13:17:04Z</time>
      </trkpt>
      <trkpt lat="40.533050" lon="-5.114283">
        <ele>2224.0</ele>
        <time>2013-05-11T13:17:05Z</time>
      </trkpt>
      <trkpt lat="40.533017" lon="-5.114117">
        <ele>2222.0</ele>
        <time>2013-05-11T13:17:06Z</time>
      </trkpt>
      <trkpt lat="40.532983" lon="-5.113950">
        <ele>2219.0</ele>
        <time>2013-05-11T13:17:07Z</time>
      </trkpt>
      <trkpt lat="40.532950" lon="-5.113767">
        <ele>2217.0</ele>
        <time>2013-05-11T13:17:08Z</time>
      </trkpt>
      <trkpt lat="40.532917" lon="-5.113583">
        <ele>2215.0</ele>
        <time>2013-05-11T13:17:09Z</time>
      </trkpt>
      <trkpt lat="40.532883" lon="-5.113400">
        <ele>2215.0</ele>
        <time>2013-05-11T13:17:10Z</time>
      </trkpt>
      <trkpt lat="40.532850" lon="-5.113233">
        <ele>2215.0</ele>
        <time>2013-05-11T13:17:11Z</time>
      </trkpt>
      <trkpt lat="40.532833" lon="-5.113083">
        <ele>2214.0</ele>
        <time>2013-05-11T13:17:12Z</time>
      </trkpt>
      <trkpt lat="40.532817" lon="-5.112917">
        <ele>2212.0</ele>
        <time>2013-05-11T13:17:13Z</time>
      </trkpt>
      <trkpt lat="40.532800" lon="-5.112733">
        <ele>2210.0</ele>
        <time>2013-05-11T13:17:14Z</time>
      </trkpt>
      <trkpt lat="40.532800" lon="-5.112533">
        <ele>2209.0</ele>
        <time>2013-05-11T13:17:15Z</time>
      </trkpt>
      <trkpt lat="40.532783" lon="-5.112350">
        <ele>2209.0</ele>
        <time>2013-05-11T13:17:16Z</time>
      </trkpt>
      <trkpt lat="40.532783" lon="-5.112183">
        <ele>2208.0</ele>
        <time>2013-05-11T13:17:17Z</time>
      </trkpt>
      <trkpt lat="40.532767" lon="-5.112017">
        <ele>2208.0</ele>
        <time>2013-05-11T13:17:18Z</time>
      </trkpt>
      <trkpt lat="40.532767" lon="-5.111833">
        <ele>2207.0</ele>
        <time>2013-05-11T13:17:19Z</time>
      </trkpt>
      <trkpt lat="40.532767" lon="-5.111667">
        <ele>2207.0</ele>
        <time>2013-05-11T13:17:20Z</time>
      </trkpt>
      <trkpt lat="40.532767" lon="-5.111483">
        <ele>2207.0</ele>
        <time>2013-05-11T13:17:21Z</time>
      </trkpt>
      <trkpt lat="40.532767" lon="-5.111300">
        <ele>2208.0</ele>
        <time>2013-05-11T13:17:22Z</time>
      </trkpt>
      <trkpt lat="40.532750" lon="-5.111150">
        <ele>2210.0</ele>
        <time>2013-05-11T13:17:23Z</time>
      </trkpt>
      <trkpt lat="40.532733" lon="-5.111000">
        <ele>2211.0</ele>
        <time>2013-05-11T13:17:24Z</time>
      </trkpt>
      <trkpt lat="40.532717" lon="-5.110867">
        <ele>2211.0</ele>
        <time>2013-05-11T13:17:25Z</time>
      </trkpt>
      <trkpt lat="40.532700" lon="-5.110750">
        <ele>2211.0</ele>
        <time>2013-05-11T13:17:26Z</time>
      </trkpt>
      <trkpt lat="40.532683" lon="-5.110617">
        <ele>2210.0</ele>
        <time>2013-05-11T13:17:27Z</time>
      </trkpt>
      <trkpt lat="40.532667" lon="-5.110483">
        <ele>2210.0</ele>
        <time>2013-05-11T13:17:28Z</time>
      </trkpt>
      <trkpt lat="40.532650" lon="-5.110350">
        <ele>2209.0</ele>
        <time>2013-05-11T13:17:29Z</time>
      </trkpt>
      <trkpt lat="40.532600" lon="-5.110217">
        <ele>2211.0</ele>
        <time>2013-05-11T13:17:30Z</time>
      </trkpt>
      <trkpt lat="40.532567" lon="-5.110100">
        <ele>2211.0</ele>
        <time>2013-05-11T13:17:31Z</time>
      </trkpt>
      <trkpt lat="40.532533" lon="-5.109983">
        <ele>2212.0</ele>
        <time>2013-05-11T13:17:32Z</time>
      </trkpt>
      <trkpt lat="40.532500" lon="-5.109850">
        <ele>2212.0</ele>
        <time>2013-05-11T13:17:33Z</time>
      </trkpt>
      <trkpt lat="40.532467" lon="-5.109733">
        <ele>2212.0</ele>
        <time>2013-05-11T13:17:34Z</time>
      </trkpt>
      <trkpt lat="40.532433" lon="-5.109600">
        <ele>2212.0</ele>
        <time>2013-05-11T13:17:35Z</time>
      </trkpt>
      <trkpt lat="40.532400" lon="-5.109483">
        <ele>2212.0</ele>
        <time>2013-05-11T13:17:36Z</time>
      </trkpt>
      <trkpt lat="40.532367" lon="-5.109367">
        <ele>2211.0</ele>
        <time>2013-05-11T13:17:37Z</time>
      </trkpt>
      <trkpt lat="40.532350" lon="-5.109233">
        <ele>2210.0</ele>
        <time>2013-05-11T13:17:38Z</time>
      </trkpt>
      <trkpt lat="40.532333" lon="-5.109100">
        <ele>2210.0</ele>
        <time>2013-05-11T13:17:39Z</time>
      </trkpt>
      <trkpt lat="40.532300" lon="-5.108933">
        <ele>2211.0</ele>
        <time>2013-05-11T13:17:40Z</time>
      </trkpt>
      <trkpt lat="40.532267" lon="-5.108800">
        <ele>2213.0</ele>
        <time>2013-05-11T13:17:41Z</time>
      </trkpt>
      <trkpt lat="40.532233" lon="-5.108667">
        <ele>2217.0</ele>
        <time>2013-05-11T13:17:42Z</time>
      </trkpt>
      <trkpt lat="40.532233" lon="-5.108567">
        <ele>2219.0</ele>
        <time>2013-05-11T13:17:43Z</time>
      </trkpt>
      <trkpt lat="40.532217" lon="-5.108450">
        <ele>2222.0</ele>
        <time>2013-05-11T13:17:44Z</time>
      </trkpt>
      <trkpt lat="40.532167" lon="-5.108350">
        <ele>2224.0</ele>
        <time>2013-05-11T13:17:45Z</time>
      </trkpt>
      <trkpt lat="40.532117" lon="-5.108267">
        <ele>2226.0</ele>
        <time>2013-05-11T13:17:46Z</time>
      </trkpt>
      <trkpt lat="40.532033" lon="-5.108183">
        <ele>2227.0</ele>
        <time>2013-05-11T13:17:47Z</time>
      </trkpt>
      <trkpt lat="40.531933" lon="-5.108133">
        <ele>2229.0</ele>
        <time>2013-05-11T13:17:48Z</time>
      </trkpt>
      <trkpt lat="40.531833" lon="-5.108100">
        <ele>2230.0</ele>
        <time>2013-05-11T13:17:49Z</time>
      </trkpt>
      <trkpt lat="40.531717" lon="-5.108100">
        <ele>2230.0</ele>
        <time>2013-05-11T13:17:50Z</time>
      </trkpt>
      <trkpt lat="40.531583" lon="-5.108150">
        <ele>2230.0</ele>
        <time>2013-05-11T13:17:51Z</time>
      </trkpt>
      <trkpt lat="40.531483" lon="-5.108233">
        <ele>2230.0</ele>
        <time>2013-05-11T13:17:52Z</time>
      </trkpt>
      <trkpt lat="40.531400" lon="-5.108367">
        <ele>2231.0</ele>
        <time>2013-05-11T13:17:53Z</time>
      </trkpt>
      <trkpt lat="40.531350" lon="-5.108483">
        <ele>2233.0</ele>
        <time>2013-05-11T13:17:54Z</time>
      </trkpt>
      <trkpt lat="40.531317" lon="-5.108583">
        <ele>2237.0</ele>
        <time>2013-05-11T13:17:55Z</time>
      </trkpt>
      <trkpt lat="40.531267" lon="-5.108667">
        <ele>2240.0</ele>
        <time>2013-05-11T13:17:56Z</time>
      </trkpt>
      <trkpt lat="40.531217" lon="-5.108733">
        <ele>2242.0</ele>
        <time>2013-05-11T13:17:57Z</time>
      </trkpt>
      <trkpt lat="40.531200" lon="-5.108800">
        <ele>2243.0</ele>
        <time>2013-05-11T13:17:58Z</time>
      </trkpt>
      <trkpt lat="40.531200" lon="-5.108883">
        <ele>2243.0</ele>
        <time>2013-05-11T13:17:59Z</time>
      </trkpt>
      <trkpt lat="40.531200" lon="-5.108950">
        <ele>2243.0</ele>
        <time>2013-05-11T13:18:00Z</time>
      </trkpt>
      <trkpt lat="40.531233" lon="-5.109017">
        <ele>2242.0</ele>
        <time>2013-05-11T13:18:01Z</time>
      </trkpt>
      <trkpt lat="40.531300" lon="-5.109033">
        <ele>2242.0</ele>
        <time>2013-05-11T13:18:02Z</time>
      </trkpt>
      <trkpt lat="40.531367" lon="-5.109033">
        <ele>2241.0</ele>
        <time>2013-05-11T13:18:03Z</time>
      </trkpt>
      <trkpt lat="40.531433" lon="-5.108983">
        <ele>2241.0</ele>
        <time>2013-05-11T13:18:04Z</time>
      </trkpt>
      <trkpt lat="40.531483" lon="-5.108933">
        <ele>2242.0</ele>
        <time>2013-05-11T13:18:05Z</time>
      </trkpt>
      <trkpt lat="40.531533" lon="-5.108867">
        <ele>2243.0</ele>
        <time>2013-05-11T13:18:06Z</time>
      </trkpt>
      <trkpt lat="40.531583" lon="-5.108783">
        <ele>2243.0</ele>
        <time>2013-05-11T13:18:07Z</time>
      </trkpt>
      <trkpt lat="40.531617" lon="-5.108700">
        <ele>2243.0</ele>
        <time>2013-05-11T13:18:08Z</time>
      </trkpt>
      <trkpt lat="40.531650" lon="-5.108583">
        <ele>2241.0</ele>
        <time>2013-05-11T13:18:09Z</time>
      </trkpt>
      <trkpt lat="40.531667" lon="-5.108433">
        <ele>2238.0</ele>
        <time>2013-05-11T13:18:10Z</time>
      </trkpt>
      <trkpt lat="40.531683" lon="-5.108300">
        <ele>2238.0</ele>
        <time>2013-05-11T13:18:11Z</time>
      </trkpt>
      <trkpt lat="40.531717" lon="-5.108167">
        <ele>2239.0</ele>
        <time>2013-05-11T13:18:12Z</time>
      </trkpt>
      <trkpt lat="40.531750" lon="-5.108033">
        <ele>2241.0</ele>
        <time>2013-05-11T13:18:13Z</time>
      </trkpt>
      <trkpt lat="40.531767" lon="-5.107917">
        <ele>2242.0</ele>
        <time>2013-05-11T13:18:14Z</time>
      </trkpt>
      <trkpt lat="40.531800" lon="-5.107783">
        <ele>2243.0</ele>
        <time>2013-05-11T13:18:15Z</time>
      </trkpt>
      <trkpt lat="40.531817" lon="-5.107650">
        <ele>2244.0</ele>
        <time>2013-05-11T13:18:16Z</time>
      </trkpt>
      <trkpt lat="40.531850" lon="-5.107533">
        <ele>2245.0</ele>
        <time>2013-05-11T13:18:17Z</time>
      </trkpt>
      <trkpt lat="40.531883" lon="-5.107400">
        <ele>2246.0</ele>
        <time>2013-05-11T13:18:18Z</time>
      </trkpt>
      <trkpt lat="40.531917" lon="-5.107283">
        <ele>2246.0</ele>
        <time>2013-05-11T13:18:19Z</time>
      </trkpt>
      <trkpt lat="40.531933" lon="-5.107150">
        <ele>2248.0</ele>
        <time>2013-05-11T13:18:20Z</time>
      </trkpt>
      <trkpt lat="40.531950" lon="-5.107017">
        <ele>2250.0</ele>
        <time>2013-05-11T13:18:21Z</time>
      </trkpt>
      <trkpt lat="40.531950" lon="-5.106900">
        <ele>2252.0</ele>
        <time>2013-05-11T13:18:22Z</time>
      </trkpt>
      <trkpt lat="40.531950" lon="-5.106783">
        <ele>2253.0</ele>
        <time>2013-05-11T13:18:23Z</time>
      </trkpt>
      <trkpt lat="40.531950" lon="-5.106650">
        <ele>2254.0</ele>
        <time>2013-05-11T13:18:24Z</time>
      </trkpt>
      <trkpt lat="40.531917" lon="-5.106533">
        <ele>2255.0</ele>
        <time>2013-05-11T13:18:25Z</time>
      </trkpt>
      <trkpt lat="40.531867" lon="-5.106400">
        <ele>2255.0</ele>
        <time>2013-05-11T13:18:26Z</time>
      </trkpt>
      <trkpt lat="40.531833" lon="-5.106267">
        <ele>2255.0</ele>
        <time>2013-05-11T13:18:27Z</time>
      </trkpt>
      <trkpt lat="40.531800" lon="-5.106117">
        <ele>2255.0</ele>
        <time>2013-05-11T13:18:28Z</time>
      </trkpt>
      <trkpt lat="40.531783" lon="-5.105967">
        <ele>2256.0</ele>
        <time>2013-05-11T13:18:29Z</time>
      </trkpt>
      <trkpt lat="40.531750" lon="-5.105817">
        <ele>2258.0</ele>
        <time>2013-05-11T13:18:30Z</time>
      </trkpt>
      <trkpt lat="40.531733" lon="-5.105667">
        <ele>2260.0</ele>
        <time>2013-05-11T13:18:31Z</time>
      </trkpt>
      <trkpt lat="40.531700" lon="-5.105533">
        <ele>2262.0</ele>
        <time>2013-05-11T13:18:32Z</time>
      </trkpt>
      <trkpt lat="40.531667" lon="-5.105400">
        <ele>2264.0</ele>
        <time>2013-05-11T13:18:33Z</time>
      </trkpt>
      <trkpt lat="40.531633" lon="-5.105250">
        <ele>2264.0</ele>
        <time>2013-05-11T13:18:34Z</time>
      </trkpt>
      <trkpt lat="40.531583" lon="-5.105117">
        <ele>2265.0</ele>
        <time>2013-05-11T13:18:35Z</time>
      </trkpt>
      <trkpt lat="40.531533" lon="-5.104967">
        <ele>2266.0</ele>
        <time>2013-05-11T13:18:36Z</time>
      </trkpt>
      <trkpt lat="40.531467" lon="-5.104833">
        <ele>2267.0</ele>
        <time>2013-05-11T13:18:37Z</time>
      </trkpt>
      <trkpt lat="40.531383" lon="-5.104700">
        <ele>2268.0</ele>
        <time>2013-05-11T13:18:38Z</time>
      </trkpt>
      <trkpt lat="40.531300" lon="-5.104583">
        <ele>2269.0</ele>
        <time>2013-05-11T13:18:39Z</time>
      </trkpt>
      <trkpt lat="40.531217" lon="-5.104483">
        <ele>2269.0</ele>
        <time>2013-05-11T13:18:40Z</time>
      </trkpt>
      <trkpt lat="40.531100" lon="-5.104383">
        <ele>2268.0</ele>
        <time>2013-05-11T13:18:41Z</time>
      </trkpt>
      <trkpt lat="40.530967" lon="-5.104300">
        <ele>2268.0</ele>
        <time>2013-05-11T13:18:42Z</time>
      </trkpt>
      <trkpt lat="40.530833" lon="-5.104200">
        <ele>2268.0</ele>
        <time>2013-05-11T13:18:43Z</time>
      </trkpt>
      <trkpt lat="40.530700" lon="-5.104117">
        <ele>2269.0</ele>
        <time>2013-05-11T13:18:44Z</time>
      </trkpt>
      <trkpt lat="40.530583" lon="-5.104017">
        <ele>2271.0</ele>
        <time>2013-05-11T13:18:45Z</time>
      </trkpt>
      <trkpt lat="40.530500" lon="-5.103900">
        <ele>2270.0</ele>
        <time>2013-05-11T13:18:46Z</time>
      </trkpt>
      <trkpt lat="40.530417" lon="-5.103783">
        <ele>2270.0</ele>
        <time>2013-05-11T13:18:47Z</time>
      </trkpt>
      <trkpt lat="40.530350" lon="-5.103633">
        <ele>2269.0</ele>
        <time>2013-05-11T13:18:48Z</time>
      </trkpt>
      <trkpt lat="40.530300" lon="-5.103500">
        <ele>2268.0</ele>
        <time>2013-05-11T13:18:49Z</time>
      </trkpt>
      <trkpt lat="40.530267" lon="-5.103350">
        <ele>2268.0</ele>
        <time>2013-05-11T13:18:50Z</time>
      </trkpt>
      <trkpt lat="40.530233" lon="-5.103217">
        <ele>2268.0</ele>
        <time>2013-05-11T13:18:51Z</time>
      </trkpt>
      <trkpt lat="40.530217" lon="-5.103100">
        <ele>2268.0</ele>
        <time>2013-05-11T13:18:52Z</time>
      </trkpt>
      <trkpt lat="40.530200" lon="-5.102967">
        <ele>2267.0</ele>
        <time>2013-05-11T13:18:53Z</time>
      </trkpt>
      <trkpt lat="40.530200" lon="-5.102833">
        <ele>2266.0</ele>
        <time>2013-05-11T13:18:54Z</time>
      </trkpt>
      <trkpt lat="40.530200" lon="-5.102700">
        <ele>2264.0</ele>
        <time>2013-05-11T13:18:55Z</time>
      </trkpt>
      <trkpt lat="40.530200" lon="-5.102550">
        <ele>2263.0</ele>
        <time>2013-05-11T13:18:56Z</time>
      </trkpt>
      <trkpt lat="40.530200" lon="-5.102400">
        <ele>2262.0</ele>
        <time>2013-05-11T13:18:57Z</time>
      </trkpt>
      <trkpt lat="40.530200" lon="-5.102233">
        <ele>2262.0</ele>
        <time>2013-05-11T13:18:58Z</time>
      </trkpt>
      <trkpt lat="40.530200" lon="-5.102083">
        <ele>2262.0</ele>
        <time>2013-05-11T13:18:59Z</time>
      </trkpt>
      <trkpt lat="40.530200" lon="-5.101933">
        <ele>2261.0</ele>
        <time>2013-05-11T13:19:00Z</time>
      </trkpt>
      <trkpt lat="40.530200" lon="-5.101783">
        <ele>2261.0</ele>
        <time>2013-05-11T13:19:01Z</time>
      </trkpt>
      <trkpt lat="40.530200" lon="-5.101650">
        <ele>2262.0</ele>
        <time>2013-05-11T13:19:02Z</time>
      </trkpt>
      <trkpt lat="40.530200" lon="-5.101500">
        <ele>2262.0</ele>
        <time>2013-05-11T13:19:03Z</time>
      </trkpt>
      <trkpt lat="40.530200" lon="-5.101350">
        <ele>2262.0</ele>
        <time>2013-05-11T13:19:04Z</time>
      </trkpt>
      <trkpt lat="40.530183" lon="-5.101217">
        <ele>2262.0</ele>
        <time>2013-05-11T13:19:05Z</time>
      </trkpt>
      <trkpt lat="40.530167" lon="-5.101067">
        <ele>2263.0</ele>
        <time>2013-05-11T13:19:06Z</time>
      </trkpt>
      <trkpt lat="40.530150" lon="-5.100933">
        <ele>2263.0</ele>
        <time>2013-05-11T13:19:07Z</time>
      </trkpt>
      <trkpt lat="40.530150" lon="-5.100800">
        <ele>2263.0</ele>
        <time>2013-05-11T13:19:08Z</time>
      </trkpt>
      <trkpt lat="40.530133" lon="-5.100667">
        <ele>2262.0</ele>
        <time>2013-05-11T13:19:09Z</time>
      </trkpt>
      <trkpt lat="40.530133" lon="-5.100517">
        <ele>2261.0</ele>
        <time>2013-05-11T13:19:10Z</time>
      </trkpt>
      <trkpt lat="40.530133" lon="-5.100367">
        <ele>2260.0</ele>
        <time>2013-05-11T13:19:11Z</time>
      </trkpt>
      <trkpt lat="40.530117" lon="-5.100200">
        <ele>2260.0</ele>
        <time>2013-05-11T13:19:12Z</time>
      </trkpt>
      <trkpt lat="40.530133" lon="-5.100050">
        <ele>2260.0</ele>
        <time>2013-05-11T13:19:13Z</time>
      </trkpt>
      <trkpt lat="40.530133" lon="-5.099883">
        <ele>2260.0</ele>
        <time>2013-05-11T13:19:14Z</time>
      </trkpt>
      <trkpt lat="40.530133" lon="-5.099717">
        <ele>2260.0</ele>
        <time>2013-05-11T13:19:15Z</time>
      </trkpt>
      <trkpt lat="40.530133" lon="-5.099550">
        <ele>2260.0</ele>
        <time>2013-05-11T13:19:16Z</time>
      </trkpt>
      <trkpt lat="40.530133" lon="-5.099400">
        <ele>2261.0</ele>
        <time>2013-05-11T13:19:17Z</time>
      </trkpt>
      <trkpt lat="40.530150" lon="-5.099250">
        <ele>2262.0</ele>
        <time>2013-05-11T13:19:18Z</time>
      </trkpt>
      <trkpt lat="40.530150" lon="-5.099117">
        <ele>2262.0</ele>
        <time>2013-05-11T13:19:19Z</time>
      </trkpt>
      <trkpt lat="40.530183" lon="-5.098967">
        <ele>2263.0</ele>
        <time>2013-05-11T13:19:20Z</time>
      </trkpt>
      <trkpt lat="40.530183" lon="-5.098833">
        <ele>2263.0</ele>
        <time>2013-05-11T13:19:21Z</time>
      </trkpt>
      <trkpt lat="40.530200" lon="-5.098683">
        <ele>2263.0</ele>
        <time>2013-05-11T13:19:22Z</time>
      </trkpt>
      <trkpt lat="40.530200" lon="-5.098550">
        <ele>2263.0</ele>
        <time>2013-05-11T13:19:23Z</time>
      </trkpt>
      <trkpt lat="40.530200" lon="-5.098417">
        <ele>2262.0</ele>
        <time>2013-05-11T13:19:24Z</time>
      </trkpt>
      <trkpt lat="40.530217" lon="-5.098283">
        <ele>2262.0</ele>
        <time>2013-05-11T13:19:25Z</time>
      </trkpt>
      <trkpt lat="40.530217" lon="-5.098133">
        <ele>2260.0</ele>
        <time>2013-05-11T13:19:26Z</time>
      </trkpt>
      <trkpt lat="40.530217" lon="-5.098000">
        <ele>2259.0</ele>
        <time>2013-05-11T13:19:27Z</time>
      </trkpt>
      <trkpt lat="40.530233" lon="-5.097850">
        <ele>2257.0</ele>
        <time>2013-05-11T13:19:28Z</time>
      </trkpt>
      <trkpt lat="40.530233" lon="-5.097717">
        <ele>2255.0</ele>
        <time>2013-05-11T13:19:29Z</time>
      </trkpt>
      <trkpt lat="40.530250" lon="-5.097567">
        <ele>2252.0</ele>
        <time>2013-05-11T13:19:30Z</time>
      </trkpt>
      <trkpt lat="40.530250" lon="-5.097417">
        <ele>2251.0</ele>
        <time>2013-05-11T13:19:31Z</time>
      </trkpt>
      <trkpt lat="40.530233" lon="-5.097267">
        <ele>2248.0</ele>
        <time>2013-05-11T13:19:32Z</time>
      </trkpt>
      <trkpt lat="40.530233" lon="-5.097133">
        <ele>2246.0</ele>
        <time>2013-05-11T13:19:33Z</time>
      </trkpt>
      <trkpt lat="40.530250" lon="-5.096983">
        <ele>2243.0</ele>
        <time>2013-05-11T13:19:34Z</time>
      </trkpt>
      <trkpt lat="40.530267" lon="-5.096833">
        <ele>2241.0</ele>
        <time>2013-05-11T13:19:35Z</time>
      </trkpt>
      <trkpt lat="40.530283" lon="-5.096683">
        <ele>2240.0</ele>
        <time>2013-05-11T13:19:36Z</time>
      </trkpt>
      <trkpt lat="40.530283" lon="-5.096533">
        <ele>2239.0</ele>
        <time>2013-05-11T13:19:37Z</time>
      </trkpt>
      <trkpt lat="40.530283" lon="-5.096400">
        <ele>2239.0</ele>
        <time>2013-05-11T13:19:38Z</time>
      </trkpt>
      <trkpt lat="40.530283" lon="-5.096283">
        <ele>2238.0</ele>
        <time>2013-05-11T13:19:39Z</time>
      </trkpt>
      <trkpt lat="40.530283" lon="-5.096150">
        <ele>2235.0</ele>
        <time>2013-05-11T13:19:40Z</time>
      </trkpt>
      <trkpt lat="40.530283" lon="-5.096017">
        <ele>2233.0</ele>
        <time>2013-05-11T13:19:41Z</time>
      </trkpt>
      <trkpt lat="40.530283" lon="-5.095867">
        <ele>2230.0</ele>
        <time>2013-05-11T13:19:42Z</time>
      </trkpt>
      <trkpt lat="40.530283" lon="-5.095717">
        <ele>2228.0</ele>
        <time>2013-05-11T13:19:43Z</time>
      </trkpt>
      <trkpt lat="40.530267" lon="-5.095550">
        <ele>2227.0</ele>
        <time>2013-05-11T13:19:44Z</time>
      </trkpt>
      <trkpt lat="40.530267" lon="-5.095417">
        <ele>2227.0</ele>
        <time>2013-05-11T13:19:45Z</time>
      </trkpt>
      <trkpt lat="40.530267" lon="-5.095283">
        <ele>2226.0</ele>
        <time>2013-05-11T13:19:46Z</time>
      </trkpt>
      <trkpt lat="40.530267" lon="-5.095150">
        <ele>2224.0</ele>
        <time>2013-05-11T13:19:47Z</time>
      </trkpt>
      <trkpt lat="40.530267" lon="-5.095017">
        <ele>2222.0</ele>
        <time>2013-05-11T13:19:48Z</time>
      </trkpt>
      <trkpt lat="40.530267" lon="-5.094867">
        <ele>2220.0</ele>
        <time>2013-05-11T13:19:49Z</time>
      </trkpt>
      <trkpt lat="40.530267" lon="-5.094717">
        <ele>2220.0</ele>
        <time>2013-05-11T13:19:50Z</time>
      </trkpt>
      <trkpt lat="40.530267" lon="-5.094567">
        <ele>2220.0</ele>
        <time>2013-05-11T13:19:51Z</time>
      </trkpt>
      <trkpt lat="40.530267" lon="-5.094450">
        <ele>2219.0</ele>
        <time>2013-05-11T13:19:52Z</time>
      </trkpt>
      <trkpt lat="40.530250" lon="-5.094317">
        <ele>2217.0</ele>
        <time>2013-05-11T13:19:53Z</time>
      </trkpt>
      <trkpt lat="40.530233" lon="-5.094183">
        <ele>2215.0</ele>
        <time>2013-05-11T13:19:54Z</time>
      </trkpt>
      <trkpt lat="40.530233" lon="-5.094033">
        <ele>2213.0</ele>
        <time>2013-05-11T13:19:55Z</time>
      </trkpt>
      <trkpt lat="40.530217" lon="-5.093900">
        <ele>2211.0</ele>
        <time>2013-05-11T13:19:56Z</time>
      </trkpt>
      <trkpt lat="40.530217" lon="-5.093767">
        <ele>2210.0</ele>
        <time>2013-05-11T13:19:57Z</time>
      </trkpt>
      <trkpt lat="40.530217" lon="-5.093650">
        <ele>2208.0</ele>
        <time>2013-05-11T13:19:58Z</time>
      </trkpt>
      <trkpt lat="40.530233" lon="-5.093517">
        <ele>2206.0</ele>
        <time>2013-05-11T13:19:59Z</time>
      </trkpt>
      <trkpt lat="40.530233" lon="-5.093383">
        <ele>2203.0</ele>
        <time>2013-05-11T13:20:00Z</time>
      </trkpt>
      <trkpt lat="40.530250" lon="-5.093233">
        <ele>2201.0</ele>
        <time>2013-05-11T13:20:01Z</time>
      </trkpt>
      <trkpt lat="40.530267" lon="-5.093083">
        <ele>2200.0</ele>
        <time>2013-05-11T13:20:02Z</time>
      </trkpt>
      <trkpt lat="40.530267" lon="-5.092950">
        <ele>2199.0</ele>
        <time>2013-05-11T13:20:03Z</time>
      </trkpt>
      <trkpt lat="40.530267" lon="-5.092817">
        <ele>2199.0</ele>
        <time>2013-05-11T13:20:04Z</time>
      </trkpt>
      <trkpt lat="40.530267" lon="-5.092683">
        <ele>2198.0</ele>
        <time>2013-05-11T13:20:05Z</time>
      </trkpt>
      <trkpt lat="40.530283" lon="-5.092550">
        <ele>2196.0</ele>
        <time>2013-05-11T13:20:06Z</time>
      </trkpt>
      <trkpt lat="40.530283" lon="-5.092417">
        <ele>2193.0</ele>
        <time>2013-05-11T13:20:07Z</time>
      </trkpt>
      <trkpt lat="40.530300" lon="-5.092267">
        <ele>2190.0</ele>
        <time>2013-05-11T13:20:08Z</time>
      </trkpt>
      <trkpt lat="40.530317" lon="-5.092117">
        <ele>2189.0</ele>
        <time>2013-05-11T13:20:09Z</time>
      </trkpt>
      <trkpt lat="40.530317" lon="-5.091983">
        <ele>2188.0</ele>
        <time>2013-05-11T13:20:10Z</time>
      </trkpt>
      <trkpt lat="40.530333" lon="-5.091850">
        <ele>2187.0</ele>
        <time>2013-05-11T13:20:11Z</time>
      </trkpt>
      <trkpt lat="40.530317" lon="-5.091733">
        <ele>2185.0</ele>
        <time>2013-05-11T13:20:12Z</time>
      </trkpt>
      <trkpt lat="40.530317" lon="-5.091600">
        <ele>2183.0</ele>
        <time>2013-05-11T13:20:13Z</time>
      </trkpt>
      <trkpt lat="40.530333" lon="-5.091467">
        <ele>2180.0</ele>
        <time>2013-05-11T13:20:14Z</time>
      </trkpt>
      <trkpt lat="40.530333" lon="-5.091333">
        <ele>2178.0</ele>
        <time>2013-05-11T13:20:15Z</time>
      </trkpt>
      <trkpt lat="40.530350" lon="-5.091217">
        <ele>2176.0</ele>
        <time>2013-05-11T13:20:16Z</time>
      </trkpt>
      <trkpt lat="40.530350" lon="-5.091083">
        <ele>2174.0</ele>
        <time>2013-05-11T13:20:17Z</time>
      </trkpt>
      <trkpt lat="40.530350" lon="-5.090967">
        <ele>2172.0</ele>
        <time>2013-05-11T13:20:18Z</time>
      </trkpt>
      <trkpt lat="40.530350" lon="-5.090833">
        <ele>2170.0</ele>
        <time>2013-05-11T13:20:19Z</time>
      </trkpt>
      <trkpt lat="40.530350" lon="-5.090717">
        <ele>2168.0</ele>
        <time>2013-05-11T13:20:20Z</time>
      </trkpt>
      <trkpt lat="40.530367" lon="-5.090583">
        <ele>2166.0</ele>
        <time>2013-05-11T13:20:21Z</time>
      </trkpt>
      <trkpt lat="40.530367" lon="-5.090467">
        <ele>2163.0</ele>
        <time>2013-05-11T13:20:22Z</time>
      </trkpt>
      <trkpt lat="40.530367" lon="-5.090333">
        <ele>2161.0</ele>
        <time>2013-05-11T13:20:23Z</time>
      </trkpt>
      <trkpt lat="40.530367" lon="-5.090217">
        <ele>2159.0</ele>
        <time>2013-05-11T13:20:24Z</time>
      </trkpt>
      <trkpt lat="40.530367" lon="-5.090083">
        <ele>2156.0</ele>
        <time>2013-05-11T13:20:25Z</time>
      </trkpt>
      <trkpt lat="40.530383" lon="-5.089950">
        <ele>2153.0</ele>
        <time>2013-05-11T13:20:26Z</time>
      </trkpt>
      <trkpt lat="40.530383" lon="-5.089817">
        <ele>2150.0</ele>
        <time>2013-05-11T13:20:27Z</time>
      </trkpt>
      <trkpt lat="40.530400" lon="-5.089683">
        <ele>2148.0</ele>
        <time>2013-05-11T13:20:28Z</time>
      </trkpt>
      <trkpt lat="40.530400" lon="-5.089550">
        <ele>2145.0</ele>
        <time>2013-05-11T13:20:29Z</time>
      </trkpt>
      <trkpt lat="40.530400" lon="-5.089433">
        <ele>2143.0</ele>
        <time>2013-05-11T13:20:30Z</time>
      </trkpt>
      <trkpt lat="40.530400" lon="-5.089300">
        <ele>2139.0</ele>
        <time>2013-05-11T13:20:31Z</time>
      </trkpt>
      <trkpt lat="40.530417" lon="-5.089150">
        <ele>2136.0</ele>
        <time>2013-05-11T13:20:32Z</time>
      </trkpt>
      <trkpt lat="40.530417" lon="-5.089017">
        <ele>2134.0</ele>
        <time>2013-05-11T13:20:33Z</time>
      </trkpt>
      <trkpt lat="40.530417" lon="-5.088883">
        <ele>2131.0</ele>
        <time>2013-05-11T13:20:34Z</time>
      </trkpt>
      <trkpt lat="40.530400" lon="-5.088767">
        <ele>2129.0</ele>
        <time>2013-05-11T13:20:35Z</time>
      </trkpt>
      <trkpt lat="40.530400" lon="-5.088633">
        <ele>2127.0</ele>
        <time>2013-05-11T13:20:36Z</time>
      </trkpt>
      <trkpt lat="40.530383" lon="-5.088500">
        <ele>2124.0</ele>
        <time>2013-05-11T13:20:37Z</time>
      </trkpt>
      <trkpt lat="40.530383" lon="-5.088350">
        <ele>2122.0</ele>
        <time>2013-05-11T13:20:38Z</time>
      </trkpt>
      <trkpt lat="40.530383" lon="-5.088217">
        <ele>2121.0</ele>
        <time>2013-05-11T13:20:39Z</time>
      </trkpt>
      <trkpt lat="40.530367" lon="-5.088083">
        <ele>2120.0</ele>
        <time>2013-05-11T13:20:40Z</time>
      </trkpt>
      <trkpt lat="40.530350" lon="-5.087950">
        <ele>2119.0</ele>
        <time>2013-05-11T13:20:41Z</time>
      </trkpt>
      <trkpt lat="40.530350" lon="-5.087817">
        <ele>2118.0</ele>
        <time>2013-05-11T13:20:42Z</time>
      </trkpt>
      <trkpt lat="40.530350" lon="-5.087683">
        <ele>2116.0</ele>
        <time>2013-05-11T13:20:43Z</time>
      </trkpt>
      <trkpt lat="40.530350" lon="-5.087550">
        <ele>2114.0</ele>
        <time>2013-05-11T13:20:44Z</time>
      </trkpt>
      <trkpt lat="40.530333" lon="-5.087417">
        <ele>2113.0</ele>
        <time>2013-05-11T13:20:45Z</time>
      </trkpt>
      <trkpt lat="40.530333" lon="-5.087283">
        <ele>2112.0</ele>
        <time>2013-05-11T13:20:46Z</time>
      </trkpt>
      <trkpt lat="40.530317" lon="-5.087150">
        <ele>2111.0</ele>
        <time>2013-05-11T13:20:47Z</time>
      </trkpt>
      <trkpt lat="40.530300" lon="-5.087017">
        <ele>2111.0</ele>
        <time>2013-05-11T13:20:48Z</time>
      </trkpt>
      <trkpt lat="40.530283" lon="-5.086883">
        <ele>2110.0</ele>
        <time>2013-05-11T13:20:49Z</time>
      </trkpt>
      <trkpt lat="40.530267" lon="-5.086750">
        <ele>2109.0</ele>
        <time>2013-05-11T13:20:50Z</time>
      </trkpt>
      <trkpt lat="40.530267" lon="-5.086600">
        <ele>2108.0</ele>
        <time>2013-05-11T13:20:51Z</time>
      </trkpt>
      <trkpt lat="40.530250" lon="-5.086467">
        <ele>2109.0</ele>
        <time>2013-05-11T13:20:52Z</time>
      </trkpt>
      <trkpt lat="40.530250" lon="-5.086333">
        <ele>2110.0</ele>
        <time>2013-05-11T13:20:53Z</time>
      </trkpt>
      <trkpt lat="40.530250" lon="-5.086217">
        <ele>2111.0</ele>
        <time>2013-05-11T13:20:54Z</time>
      </trkpt>
      <trkpt lat="40.530233" lon="-5.086100">
        <ele>2111.0</ele>
        <time>2013-05-11T13:20:55Z</time>
      </trkpt>
      <trkpt lat="40.530233" lon="-5.085967">
        <ele>2111.0</ele>
        <time>2013-05-11T13:20:56Z</time>
      </trkpt>
      <trkpt lat="40.530217" lon="-5.085833">
        <ele>2111.0</ele>
        <time>2013-05-11T13:20:57Z</time>
      </trkpt>
      <trkpt lat="40.530217" lon="-5.085683">
        <ele>2112.0</ele>
        <time>2013-05-11T13:20:58Z</time>
      </trkpt>
      <trkpt lat="40.530200" lon="-5.085550">
        <ele>2115.0</ele>
        <time>2013-05-11T13:20:59Z</time>
      </trkpt>
      <trkpt lat="40.530200" lon="-5.085433">
        <ele>2117.0</ele>
        <time>2013-05-11T13:21:00Z</time>
      </trkpt>
      <trkpt lat="40.530217" lon="-5.085317">
        <ele>2119.0</ele>
        <time>2013-05-11T13:21:01Z</time>
      </trkpt>
      <trkpt lat="40.530233" lon="-5.085217">
        <ele>2121.0</ele>
        <time>2013-05-11T13:21:02Z</time>
      </trkpt>
      <trkpt lat="40.530267" lon="-5.085133">
        <ele>2121.0</ele>
        <time>2013-05-11T13:21:03Z</time>
      </trkpt>
      <trkpt lat="40.530283" lon="-5.085050">
        <ele>2121.0</ele>
        <time>2013-05-11T13:21:04Z</time>
      </trkpt>
      <trkpt lat="40.530300" lon="-5.084967">
        <ele>2120.0</ele>
        <time>2013-05-11T13:21:05Z</time>
      </trkpt>
      <trkpt lat="40.530333" lon="-5.084867">
        <ele>2118.0</ele>
        <time>2013-05-11T13:21:06Z</time>
      </trkpt>
      <trkpt lat="40.530350" lon="-5.084750">
        <ele>2116.0</ele>
        <time>2013-05-11T13:21:07Z</time>
      </trkpt>
      <trkpt lat="40.530367" lon="-5.084617">
        <ele>2115.0</ele>
        <time>2013-05-11T13:21:08Z</time>
      </trkpt>
      <trkpt lat="40.530333" lon="-5.084467">
        <ele>2114.0</ele>
        <time>2013-05-11T13:21:09Z</time>
      </trkpt>
      <trkpt lat="40.530300" lon="-5.084317">
        <ele>2114.0</ele>
        <time>2013-05-11T13:21:10Z</time>
      </trkpt>
      <trkpt lat="40.530267" lon="-5.084183">
        <ele>2115.0</ele>
        <time>2013-05-11T13:21:11Z</time>
      </trkpt>
      <trkpt lat="40.530233" lon="-5.084067">
        <ele>2115.0</ele>
        <time>2013-05-11T13:21:12Z</time>
      </trkpt>
      <trkpt lat="40.530200" lon="-5.083950">
        <ele>2116.0</ele>
        <time>2013-05-11T13:21:13Z</time>
      </trkpt>
      <trkpt lat="40.530167" lon="-5.083817">
        <ele>2115.0</ele>
        <time>2013-05-11T13:21:14Z</time>
      </trkpt>
      <trkpt lat="40.530117" lon="-5.083700">
        <ele>2114.0</ele>
        <time>2013-05-11T13:21:15Z</time>
      </trkpt>
      <trkpt lat="40.530067" lon="-5.083583">
        <ele>2113.0</ele>
        <time>2013-05-11T13:21:16Z</time>
      </trkpt>
      <trkpt lat="40.530000" lon="-5.083483">
        <ele>2112.0</ele>
        <time>2013-05-11T13:21:17Z</time>
      </trkpt>
      <trkpt lat="40.529933" lon="-5.083367">
        <ele>2112.0</ele>
        <time>2013-05-11T13:21:18Z</time>
      </trkpt>
      <trkpt lat="40.529883" lon="-5.083267">
        <ele>2111.0</ele>
        <time>2013-05-11T13:21:19Z</time>
      </trkpt>
      <trkpt lat="40.529817" lon="-5.083183">
        <ele>2109.0</ele>
        <time>2013-05-11T13:21:20Z</time>
      </trkpt>
      <trkpt lat="40.529733" lon="-5.083083">
        <ele>2108.0</ele>
        <time>2013-05-11T13:21:21Z</time>
      </trkpt>
      <trkpt lat="40.529650" lon="-5.083017">
        <ele>2106.0</ele>
        <time>2013-05-11T13:21:22Z</time>
      </trkpt>
      <trkpt lat="40.529550" lon="-5.082950">
        <ele>2104.0</ele>
        <time>2013-05-11T13:21:23Z</time>
      </trkpt>
      <trkpt lat="40.529450" lon="-5.082900">
        <ele>2103.0</ele>
        <time>2013-05-11T13:21:24Z</time>
      </trkpt>
      <trkpt lat="40.529367" lon="-5.082850">
        <ele>2102.0</ele>
        <time>2013-05-11T13:21:25Z</time>
      </trkpt>
      <trkpt lat="40.529267" lon="-5.082783">
        <ele>2100.0</ele>
        <time>2013-05-11T13:21:26Z</time>
      </trkpt>
      <trkpt lat="40.529200" lon="-5.082700">
        <ele>2098.0</ele>
        <time>2013-05-11T13:21:27Z</time>
      </trkpt>
      <trkpt lat="40.529133" lon="-5.082600">
        <ele>2097.0</ele>
        <time>2013-05-11T13:21:28Z</time>
      </trkpt>
      <trkpt lat="40.529067" lon="-5.082500">
        <ele>2095.0</ele>
        <time>2013-05-11T13:21:29Z</time>
      </trkpt>
      <trkpt lat="40.529000" lon="-5.082383">
        <ele>2093.0</ele>
        <time>2013-05-11T13:21:30Z</time>
      </trkpt>
      <trkpt lat="40.528967" lon="-5.082267">
        <ele>2091.0</ele>
        <time>2013-05-11T13:21:31Z</time>
      </trkpt>
      <trkpt lat="40.528933" lon="-5.082150">
        <ele>2089.0</ele>
        <time>2013-05-11T13:21:32Z</time>
      </trkpt>
      <trkpt lat="40.528917" lon="-5.082017">
        <ele>2086.0</ele>
        <time>2013-05-11T13:21:33Z</time>
      </trkpt>
      <trkpt lat="40.528900" lon="-5.081883">
        <ele>2084.0</ele>
        <time>2013-05-11T13:21:34Z</time>
      </trkpt>
      <trkpt lat="40.528917" lon="-5.081750">
        <ele>2083.0</ele>
        <time>2013-05-11T13:21:35Z</time>
      </trkpt>
      <trkpt lat="40.528917" lon="-5.081617">
        <ele>2082.0</ele>
        <time>2013-05-11T13:21:36Z</time>
      </trkpt>
      <trkpt lat="40.528917" lon="-5.081467">
        <ele>2080.0</ele>
        <time>2013-05-11T13:21:37Z</time>
      </trkpt>
      <trkpt lat="40.528933" lon="-5.081333">
        <ele>2079.0</ele>
        <time>2013-05-11T13:21:38Z</time>
      </trkpt>
      <trkpt lat="40.528933" lon="-5.081200">
        <ele>2078.0</ele>
        <time>2013-05-11T13:21:39Z</time>
      </trkpt>
      <trkpt lat="40.528950" lon="-5.081050">
        <ele>2075.0</ele>
        <time>2013-05-11T13:21:40Z</time>
      </trkpt>
      <trkpt lat="40.528950" lon="-5.080917">
        <ele>2073.0</ele>
        <time>2013-05-11T13:21:41Z</time>
      </trkpt>
      <trkpt lat="40.528967" lon="-5.080750">
        <ele>2071.0</ele>
        <time>2013-05-11T13:21:42Z</time>
      </trkpt>
      <trkpt lat="40.528983" lon="-5.080583">
        <ele>2070.0</ele>
        <time>2013-05-11T13:21:43Z</time>
      </trkpt>
      <trkpt lat="40.529017" lon="-5.080450">
        <ele>2071.0</ele>
        <time>2013-05-11T13:21:44Z</time>
      </trkpt>
      <trkpt lat="40.529050" lon="-5.080333">
        <ele>2073.0</ele>
        <time>2013-05-11T13:21:45Z</time>
      </trkpt>
      <trkpt lat="40.529100" lon="-5.080233">
        <ele>2074.0</ele>
        <time>2013-05-11T13:21:46Z</time>
      </trkpt>
      <trkpt lat="40.529133" lon="-5.080133">
        <ele>2074.0</ele>
        <time>2013-05-11T13:21:47Z</time>
      </trkpt>
      <trkpt lat="40.529167" lon="-5.080033">
        <ele>2073.0</ele>
        <time>2013-05-11T13:21:48Z</time>
      </trkpt>
      <trkpt lat="40.529217" lon="-5.079917">
        <ele>2071.0</ele>
        <time>2013-05-11T13:21:49Z</time>
      </trkpt>
      <trkpt lat="40.529267" lon="-5.079783">
        <ele>2070.0</ele>
        <time>2013-05-11T13:21:50Z</time>
      </trkpt>
      <trkpt lat="40.529317" lon="-5.079667">
        <ele>2070.0</ele>
        <time>2013-05-11T13:21:51Z</time>
      </trkpt>
      <trkpt lat="40.529367" lon="-5.079550">
        <ele>2069.0</ele>
        <time>2013-05-11T13:21:52Z</time>
      </trkpt>
      <trkpt lat="40.529417" lon="-5.079433">
        <ele>2069.0</ele>
        <time>2013-05-11T13:21:53Z</time>
      </trkpt>
      <trkpt lat="40.529450" lon="-5.079317">
        <ele>2068.0</ele>
        <time>2013-05-11T13:21:54Z</time>
      </trkpt>
      <trkpt lat="40.529483" lon="-5.079167">
        <ele>2067.0</ele>
        <time>2013-05-11T13:21:55Z</time>
      </trkpt>
      <trkpt lat="40.529517" lon="-5.079033">
        <ele>2066.0</ele>
        <time>2013-05-11T13:21:56Z</time>
      </trkpt>
      <trkpt lat="40.529533" lon="-5.078883">
        <ele>2066.0</ele>
        <time>2013-05-11T13:21:57Z</time>
      </trkpt>
      <trkpt lat="40.529550" lon="-5.078750">
        <ele>2066.0</ele>
        <time>2013-05-11T13:21:58Z</time>
      </trkpt>
      <trkpt lat="40.529583" lon="-5.078633">
        <ele>2066.0</ele>
        <time>2013-05-11T13:21:59Z</time>
      </trkpt>
      <trkpt lat="40.529617" lon="-5.078517">
        <ele>2064.0</ele>
        <time>2013-05-11T13:22:00Z</time>
      </trkpt>
      <trkpt lat="40.529633" lon="-5.078367">
        <ele>2062.0</ele>
        <time>2013-05-11T13:22:01Z</time>
      </trkpt>
      <trkpt lat="40.529650" lon="-5.078217">
        <ele>2061.0</ele>
        <time>2013-05-11T13:22:02Z</time>
      </trkpt>
      <trkpt lat="40.529667" lon="-5.078067">
        <ele>2060.0</ele>
        <time>2013-05-11T13:22:03Z</time>
      </trkpt>
      <trkpt lat="40.529683" lon="-5.077917">
        <ele>2060.0</ele>
        <time>2013-05-11T13:22:04Z</time>
      </trkpt>
      <trkpt lat="40.529700" lon="-5.077783">
        <ele>2060.0</ele>
        <time>2013-05-11T13:22:05Z</time>
      </trkpt>
      <trkpt lat="40.529717" lon="-5.077667">
        <ele>2059.0</ele>
        <time>2013-05-11T13:22:06Z</time>
      </trkpt>
      <trkpt lat="40.529717" lon="-5.077533">
        <ele>2057.0</ele>
        <time>2013-05-11T13:22:07Z</time>
      </trkpt>
      <trkpt lat="40.529750" lon="-5.077383">
        <ele>2056.0</ele>
        <time>2013-05-11T13:22:08Z</time>
      </trkpt>
      <trkpt lat="40.529767" lon="-5.077250">
        <ele>2054.0</ele>
        <time>2013-05-11T13:22:09Z</time>
      </trkpt>
      <trkpt lat="40.529800" lon="-5.077100">
        <ele>2054.0</ele>
        <time>2013-05-11T13:22:10Z</time>
      </trkpt>
      <trkpt lat="40.529833" lon="-5.076950">
        <ele>2053.0</ele>
        <time>2013-05-11T13:22:11Z</time>
      </trkpt>
      <trkpt lat="40.529850" lon="-5.076817">
        <ele>2053.0</ele>
        <time>2013-05-11T13:22:12Z</time>
      </trkpt>
      <trkpt lat="40.529883" lon="-5.076683">
        <ele>2052.0</ele>
        <time>2013-05-11T13:22:13Z</time>
      </trkpt>
      <trkpt lat="40.529900" lon="-5.076550">
        <ele>2052.0</ele>
        <time>2013-05-11T13:22:14Z</time>
      </trkpt>
      <trkpt lat="40.529933" lon="-5.076417">
        <ele>2051.0</ele>
        <time>2013-05-11T13:22:15Z</time>
      </trkpt>
      <trkpt lat="40.529950" lon="-5.076283">
        <ele>2051.0</ele>
        <time>2013-05-11T13:22:16Z</time>
      </trkpt>
      <trkpt lat="40.529983" lon="-5.076150">
        <ele>2050.0</ele>
        <time>2013-05-11T13:22:17Z</time>
      </trkpt>
      <trkpt lat="40.530000" lon="-5.076017">
        <ele>2048.0</ele>
        <time>2013-05-11T13:22:18Z</time>
      </trkpt>
      <trkpt lat="40.530033" lon="-5.075883">
        <ele>2047.0</ele>
        <time>2013-05-11T13:22:19Z</time>
      </trkpt>
      <trkpt lat="40.530067" lon="-5.075750">
        <ele>2046.0</ele>
        <time>2013-05-11T13:22:20Z</time>
      </trkpt>
      <trkpt lat="40.530083" lon="-5.075617">
        <ele>2045.0</ele>
        <time>2013-05-11T13:22:21Z</time>
      </trkpt>
      <trkpt lat="40.530100" lon="-5.075500">
        <ele>2043.0</ele>
        <time>2013-05-11T13:22:22Z</time>
      </trkpt>
      <trkpt lat="40.530117" lon="-5.075367">
        <ele>2041.0</ele>
        <time>2013-05-11T13:22:23Z</time>
      </trkpt>
      <trkpt lat="40.530133" lon="-5.075233">
        <ele>2039.0</ele>
        <time>2013-05-11T13:22:24Z</time>
      </trkpt>
      <trkpt lat="40.530150" lon="-5.075083">
        <ele>2037.0</ele>
        <time>2013-05-11T13:22:25Z</time>
      </trkpt>
      <trkpt lat="40.530167" lon="-5.074950">
        <ele>2036.0</ele>
        <time>2013-05-11T13:22:26Z</time>
      </trkpt>
      <trkpt lat="40.530183" lon="-5.074817">
        <ele>2034.0</ele>
        <time>2013-05-11T13:22:27Z</time>
      </trkpt>
      <trkpt lat="40.530200" lon="-5.074683">
        <ele>2033.0</ele>
        <time>2013-05-11T13:22:28Z</time>
      </trkpt>
      <trkpt lat="40.530217" lon="-5.074533">
        <ele>2031.0</ele>
        <time>2013-05-11T13:22:29Z</time>
      </trkpt>
      <trkpt lat="40.530250" lon="-5.074400">
        <ele>2029.0</ele>
        <time>2013-05-11T13:22:30Z</time>
      </trkpt>
      <trkpt lat="40.530267" lon="-5.074250">
        <ele>2028.0</ele>
        <time>2013-05-11T13:22:31Z</time>
      </trkpt>
      <trkpt lat="40.530283" lon="-5.074100">
        <ele>2027.0</ele>
        <time>2013-05-11T13:22:32Z</time>
      </trkpt>
      <trkpt lat="40.530317" lon="-5.073950">
        <ele>2026.0</ele>
        <time>2013-05-11T13:22:33Z</time>
      </trkpt>
      <trkpt lat="40.530350" lon="-5.073817">
        <ele>2025.0</ele>
        <time>2013-05-11T13:22:34Z</time>
      </trkpt>
      <trkpt lat="40.530367" lon="-5.073667">
        <ele>2024.0</ele>
        <time>2013-05-11T13:22:35Z</time>
      </trkpt>
      <trkpt lat="40.530383" lon="-5.073517">
        <ele>2024.0</ele>
        <time>2013-05-11T13:22:36Z</time>
      </trkpt>
      <trkpt lat="40.530400" lon="-5.073383">
        <ele>2023.0</ele>
        <time>2013-05-11T13:22:37Z</time>
      </trkpt>
      <trkpt lat="40.530433" lon="-5.073233">
        <ele>2022.0</ele>
        <time>2013-05-11T13:22:38Z</time>
      </trkpt>
      <trkpt lat="40.530450" lon="-5.073100">
        <ele>2020.0</ele>
        <time>2013-05-11T13:22:39Z</time>
      </trkpt>
      <trkpt lat="40.530467" lon="-5.072950">
        <ele>2019.0</ele>
        <time>2013-05-11T13:22:40Z</time>
      </trkpt>
      <trkpt lat="40.530483" lon="-5.072817">
        <ele>2018.0</ele>
        <time>2013-05-11T13:22:41Z</time>
      </trkpt>
      <trkpt lat="40.530500" lon="-5.072667">
        <ele>2016.0</ele>
        <time>2013-05-11T13:22:42Z</time>
      </trkpt>
      <trkpt lat="40.530533" lon="-5.072550">
        <ele>2014.0</ele>
        <time>2013-05-11T13:22:43Z</time>
      </trkpt>
      <trkpt lat="40.530583" lon="-5.072417">
        <ele>2012.0</ele>
        <time>2013-05-11T13:22:44Z</time>
      </trkpt>
      <trkpt lat="40.530600" lon="-5.072267">
        <ele>2009.0</ele>
        <time>2013-05-11T13:22:45Z</time>
      </trkpt>
      <trkpt lat="40.530633" lon="-5.072117">
        <ele>2007.0</ele>
        <time>2013-05-11T13:22:46Z</time>
      </trkpt>
      <trkpt lat="40.530667" lon="-5.071967">
        <ele>2004.0</ele>
        <time>2013-05-11T13:22:47Z</time>
      </trkpt>
      <trkpt lat="40.530700" lon="-5.071817">
        <ele>2002.0</ele>
        <time>2013-05-11T13:22:48Z</time>
      </trkpt>
      <trkpt lat="40.530733" lon="-5.071667">
        <ele>1999.0</ele>
        <time>2013-05-11T13:22:49Z</time>
      </trkpt>
      <trkpt lat="40.530767" lon="-5.071517">
        <ele>1997.0</ele>
        <time>2013-05-11T13:22:50Z</time>
      </trkpt>
      <trkpt lat="40.530800" lon="-5.071367">
        <ele>1995.0</ele>
        <time>2013-05-11T13:22:51Z</time>
      </trkpt>
      <trkpt lat="40.530833" lon="-5.071217">
        <ele>1994.0</ele>
        <time>2013-05-11T13:22:52Z</time>
      </trkpt>
      <trkpt lat="40.530867" lon="-5.071067">
        <ele>1992.0</ele>
        <time>2013-05-11T13:22:53Z</time>
      </trkpt>
      <trkpt lat="40.530900" lon="-5.070917">
        <ele>1990.0</ele>
        <time>2013-05-11T13:22:54Z</time>
      </trkpt>
      <trkpt lat="40.530950" lon="-5.070767">
        <ele>1988.0</ele>
        <time>2013-05-11T13:22:55Z</time>
      </trkpt>
      <trkpt lat="40.530983" lon="-5.070633">
        <ele>1987.0</ele>
        <time>2013-05-11T13:22:56Z</time>
      </trkpt>
      <trkpt lat="40.531000" lon="-5.070483">
        <ele>1986.0</ele>
        <time>2013-05-11T13:22:57Z</time>
      </trkpt>
      <trkpt lat="40.531033" lon="-5.070350">
        <ele>1985.0</ele>
        <time>2013-05-11T13:22:58Z</time>
      </trkpt>
      <trkpt lat="40.531067" lon="-5.070217">
        <ele>1983.0</ele>
        <time>2013-05-11T13:22:59Z</time>
      </trkpt>
      <trkpt lat="40.531100" lon="-5.070067">
        <ele>1982.0</ele>
        <time>2013-05-11T13:23:00Z</time>
      </trkpt>
      <trkpt lat="40.531117" lon="-5.069917">
        <ele>1982.0</ele>
        <time>2013-05-11T13:23:01Z</time>
      </trkpt>
      <trkpt lat="40.531150" lon="-5.069783">
        <ele>1981.0</ele>
        <time>2013-05-11T13:23:02Z</time>
      </trkpt>
      <trkpt lat="40.531167" lon="-5.069650">
        <ele>1979.0</ele>
        <time>2013-05-11T13:23:03Z</time>
      </trkpt>
      <trkpt lat="40.531200" lon="-5.069517">
        <ele>1977.0</ele>
        <time>2013-05-11T13:23:04Z</time>
      </trkpt>
      <trkpt lat="40.531217" lon="-5.069350">
        <ele>1975.0</ele>
        <time>2013-05-11T13:23:05Z</time>
      </trkpt>
      <trkpt lat="40.531233" lon="-5.069200">
        <ele>1973.0</ele>
        <time>2013-05-11T13:23:06Z</time>
      </trkpt>
      <trkpt lat="40.531250" lon="-5.069050">
        <ele>1972.0</ele>
        <time>2013-05-11T13:23:07Z</time>
      </trkpt>
      <trkpt lat="40.531283" lon="-5.068917">
        <ele>1971.0</ele>
        <time>2013-05-11T13:23:08Z</time>
      </trkpt>
      <trkpt lat="40.531300" lon="-5.068767">
        <ele>1969.0</ele>
        <time>2013-05-11T13:23:09Z</time>
      </trkpt>
      <trkpt lat="40.531317" lon="-5.068633">
        <ele>1968.0</ele>
        <time>2013-05-11T13:23:10Z</time>
      </trkpt>
      <trkpt lat="40.531333" lon="-5.068483">
        <ele>1966.0</ele>
        <time>2013-05-11T13:23:11Z</time>
      </trkpt>
      <trkpt lat="40.531367" lon="-5.068333">
        <ele>1965.0</ele>
        <time>2013-05-11T13:23:12Z</time>
      </trkpt>
      <trkpt lat="40.531383" lon="-5.068200">
        <ele>1964.0</ele>
        <time>2013-05-11T13:23:13Z</time>
      </trkpt>
      <trkpt lat="40.531417" lon="-5.068067">
        <ele>1963.0</ele>
        <time>2013-05-11T13:23:14Z</time>
      </trkpt>
      <trkpt lat="40.531450" lon="-5.067933">
        <ele>1962.0</ele>
        <time>2013-05-11T13:23:15Z</time>
      </trkpt>
      <trkpt lat="40.531467" lon="-5.067800">
        <ele>1960.0</ele>
        <time>2013-05-11T13:23:16Z</time>
      </trkpt>
      <trkpt lat="40.531483" lon="-5.067650">
        <ele>1957.0</ele>
        <time>2013-05-11T13:23:17Z</time>
      </trkpt>
      <trkpt lat="40.531517" lon="-5.067517">
        <ele>1955.0</ele>
        <time>2013-05-11T13:23:18Z</time>
      </trkpt>
      <trkpt lat="40.531533" lon="-5.067367">
        <ele>1953.0</ele>
        <time>2013-05-11T13:23:19Z</time>
      </trkpt>
      <trkpt lat="40.531567" lon="-5.067233">
        <ele>1951.0</ele>
        <time>2013-05-11T13:23:20Z</time>
      </trkpt>
      <trkpt lat="40.531600" lon="-5.067100">
        <ele>1950.0</ele>
        <time>2013-05-11T13:23:21Z</time>
      </trkpt>
      <trkpt lat="40.531600" lon="-5.066967">
        <ele>1948.0</ele>
        <time>2013-05-11T13:23:22Z</time>
      </trkpt>
      <trkpt lat="40.531617" lon="-5.066833">
        <ele>1946.0</ele>
        <time>2013-05-11T13:23:23Z</time>
      </trkpt>
      <trkpt lat="40.531633" lon="-5.066717">
        <ele>1943.0</ele>
        <time>2013-05-11T13:23:24Z</time>
      </trkpt>
      <trkpt lat="40.531650" lon="-5.066583">
        <ele>1941.0</ele>
        <time>2013-05-11T13:23:25Z</time>
      </trkpt>
      <trkpt lat="40.531667" lon="-5.066467">
        <ele>1939.0</ele>
        <time>2013-05-11T13:23:26Z</time>
      </trkpt>
      <trkpt lat="40.531667" lon="-5.066333">
        <ele>1938.0</ele>
        <time>2013-05-11T13:23:27Z</time>
      </trkpt>
      <trkpt lat="40.531650" lon="-5.066200">
        <ele>1936.0</ele>
        <time>2013-05-11T13:23:28Z</time>
      </trkpt>
      <trkpt lat="40.531650" lon="-5.066083">
        <ele>1934.0</ele>
        <time>2013-05-11T13:23:29Z</time>
      </trkpt>
      <trkpt lat="40.531667" lon="-5.065950">
        <ele>1932.0</ele>
        <time>2013-05-11T13:23:30Z</time>
      </trkpt>
      <trkpt lat="40.531667" lon="-5.065817">
        <ele>1930.0</ele>
        <time>2013-05-11T13:23:31Z</time>
      </trkpt>
      <trkpt lat="40.531650" lon="-5.065683">
        <ele>1928.0</ele>
        <time>2013-05-11T13:23:32Z</time>
      </trkpt>
      <trkpt lat="40.531650" lon="-5.065550">
        <ele>1925.0</ele>
        <time>2013-05-11T13:23:33Z</time>
      </trkpt>
      <trkpt lat="40.531650" lon="-5.065400">
        <ele>1923.0</ele>
        <time>2013-05-11T13:23:34Z</time>
      </trkpt>
      <trkpt lat="40.531650" lon="-5.065267">
        <ele>1922.0</ele>
        <time>2013-05-11T13:23:35Z</time>
      </trkpt>
      <trkpt lat="40.531650" lon="-5.065117">
        <ele>1922.0</ele>
        <time>2013-05-11T13:23:36Z</time>
      </trkpt>
      <trkpt lat="40.531633" lon="-5.064983">
        <ele>1922.0</ele>
        <time>2013-05-11T13:23:37Z</time>
      </trkpt>
      <trkpt lat="40.531633" lon="-5.064867">
        <ele>1921.0</ele>
        <time>2013-05-11T13:23:38Z</time>
      </trkpt>
      <trkpt lat="40.531633" lon="-5.064717">
        <ele>1920.0</ele>
        <time>2013-05-11T13:23:39Z</time>
      </trkpt>
      <trkpt lat="40.531650" lon="-5.064583">
        <ele>1919.0</ele>
        <time>2013-05-11T13:23:40Z</time>
      </trkpt>
      <trkpt lat="40.531650" lon="-5.064450">
        <ele>1918.0</ele>
        <time>2013-05-11T13:23:41Z</time>
      </trkpt>
      <trkpt lat="40.531667" lon="-5.064300">
        <ele>1918.0</ele>
        <time>2013-05-11T13:23:42Z</time>
      </trkpt>
      <trkpt lat="40.531667" lon="-5.064167">
        <ele>1917.0</ele>
        <time>2013-05-11T13:23:43Z</time>
      </trkpt>
      <trkpt lat="40.531667" lon="-5.064017">
        <ele>1917.0</ele>
        <time>2013-05-11T13:23:44Z</time>
      </trkpt>
      <trkpt lat="40.531667" lon="-5.063867">
        <ele>1916.0</ele>
        <time>2013-05-11T13:23:45Z</time>
      </trkpt>
      <trkpt lat="40.531667" lon="-5.063733">
        <ele>1915.0</ele>
        <time>2013-05-11T13:23:46Z</time>
      </trkpt>
      <trkpt lat="40.531667" lon="-5.063567">
        <ele>1914.0</ele>
        <time>2013-05-11T13:23:47Z</time>
      </trkpt>
      <trkpt lat="40.531667" lon="-5.063417">
        <ele>1914.0</ele>
        <time>2013-05-11T13:23:48Z</time>
      </trkpt>
      <trkpt lat="40.531683" lon="-5.063267">
        <ele>1915.0</ele>
        <time>2013-05-11T13:23:49Z</time>
      </trkpt>
      <trkpt lat="40.531683" lon="-5.063117">
        <ele>1916.0</ele>
        <time>2013-05-11T13:23:50Z</time>
      </trkpt>
      <trkpt lat="40.531683" lon="-5.062983">
        <ele>1916.0</ele>
        <time>2013-05-11T13:23:51Z</time>
      </trkpt>
      <trkpt lat="40.531683" lon="-5.062850">
        <ele>1916.0</ele>
        <time>2013-05-11T13:23:52Z</time>
      </trkpt>
      <trkpt lat="40.531683" lon="-5.062717">
        <ele>1916.0</ele>
        <time>2013-05-11T13:23:53Z</time>
      </trkpt>
      <trkpt lat="40.531700" lon="-5.062583">
        <ele>1915.0</ele>
        <time>2013-05-11T13:23:54Z</time>
      </trkpt>
      <trkpt lat="40.531700" lon="-5.062450">
        <ele>1914.0</ele>
        <time>2013-05-11T13:23:55Z</time>
      </trkpt>
      <trkpt lat="40.531717" lon="-5.062333">
        <ele>1912.0</ele>
        <time>2013-05-11T13:23:56Z</time>
      </trkpt>
      <trkpt lat="40.531733" lon="-5.062200">
        <ele>1910.0</ele>
        <time>2013-05-11T13:23:57Z</time>
      </trkpt>
      <trkpt lat="40.531767" lon="-5.062067">
        <ele>1908.0</ele>
        <time>2013-05-11T13:23:58Z</time>
      </trkpt>
      <trkpt lat="40.531783" lon="-5.061950">
        <ele>1907.0</ele>
        <time>2013-05-11T13:23:59Z</time>
      </trkpt>
      <trkpt lat="40.531817" lon="-5.061817">
        <ele>1905.0</ele>
        <time>2013-05-11T13:24:00Z</time>
      </trkpt>
      <trkpt lat="40.531833" lon="-5.061683">
        <ele>1903.0</ele>
        <time>2013-05-11T13:24:01Z</time>
      </trkpt>
      <trkpt lat="40.531850" lon="-5.061550">
        <ele>1902.0</ele>
        <time>2013-05-11T13:24:02Z</time>
      </trkpt>
      <trkpt lat="40.531867" lon="-5.061417">
        <ele>1899.0</ele>
        <time>2013-05-11T13:24:03Z</time>
      </trkpt>
      <trkpt lat="40.531883" lon="-5.061283">
        <ele>1897.0</ele>
        <time>2013-05-11T13:24:04Z</time>
      </trkpt>
      <trkpt lat="40.531917" lon="-5.061150">
        <ele>1894.0</ele>
        <time>2013-05-11T13:24:05Z</time>
      </trkpt>
      <trkpt lat="40.531933" lon="-5.061017">
        <ele>1891.0</ele>
        <time>2013-05-11T13:24:06Z</time>
      </trkpt>
      <trkpt lat="40.531967" lon="-5.060867">
        <ele>1889.0</ele>
        <time>2013-05-11T13:24:07Z</time>
      </trkpt>
      <trkpt lat="40.531983" lon="-5.060733">
        <ele>1887.0</ele>
        <time>2013-05-11T13:24:08Z</time>
      </trkpt>
      <trkpt lat="40.532017" lon="-5.060583">
        <ele>1885.0</ele>
        <time>2013-05-11T13:24:09Z</time>
      </trkpt>
      <trkpt lat="40.532033" lon="-5.060450">
        <ele>1883.0</ele>
        <time>2013-05-11T13:24:10Z</time>
      </trkpt>
      <trkpt lat="40.532067" lon="-5.060300">
        <ele>1881.0</ele>
        <time>2013-05-11T13:24:11Z</time>
      </trkpt>
      <trkpt lat="40.532083" lon="-5.060167">
        <ele>1879.0</ele>
        <time>2013-05-11T13:24:12Z</time>
      </trkpt>
      <trkpt lat="40.532100" lon="-5.060017">
        <ele>1878.0</ele>
        <time>2013-05-11T13:24:13Z</time>
      </trkpt>
      <trkpt lat="40.532117" lon="-5.059883">
        <ele>1877.0</ele>
        <time>2013-05-11T13:24:14Z</time>
      </trkpt>
      <trkpt lat="40.532133" lon="-5.059733">
        <ele>1875.0</ele>
        <time>2013-05-11T13:24:15Z</time>
      </trkpt>
      <trkpt lat="40.532150" lon="-5.059600">
        <ele>1874.0</ele>
        <time>2013-05-11T13:24:16Z</time>
      </trkpt>
      <trkpt lat="40.532167" lon="-5.059450">
        <ele>1873.0</ele>
        <time>2013-05-11T13:24:17Z</time>
      </trkpt>
      <trkpt lat="40.532183" lon="-5.059317">
        <ele>1873.0</ele>
        <time>2013-05-11T13:24:18Z</time>
      </trkpt>
      <trkpt lat="40.532200" lon="-5.059200">
        <ele>1872.0</ele>
        <time>2013-05-11T13:24:19Z</time>
      </trkpt>
      <trkpt lat="40.532217" lon="-5.059067">
        <ele>1871.0</ele>
        <time>2013-05-11T13:24:20Z</time>
      </trkpt>
      <trkpt lat="40.532233" lon="-5.058933">
        <ele>1869.0</ele>
        <time>2013-05-11T13:24:21Z</time>
      </trkpt>
      <trkpt lat="40.532250" lon="-5.058800">
        <ele>1867.0</ele>
        <time>2013-05-11T13:24:22Z</time>
      </trkpt>
      <trkpt lat="40.532283" lon="-5.058667">
        <ele>1865.0</ele>
        <time>2013-05-11T13:24:23Z</time>
      </trkpt>
      <trkpt lat="40.532300" lon="-5.058550">
        <ele>1864.0</ele>
        <time>2013-05-11T13:24:24Z</time>
      </trkpt>
      <trkpt lat="40.532317" lon="-5.058417">
        <ele>1861.0</ele>
        <time>2013-05-11T13:24:25Z</time>
      </trkpt>
      <trkpt lat="40.532333" lon="-5.058283">
        <ele>1859.0</ele>
        <time>2013-05-11T13:24:26Z</time>
      </trkpt>
      <trkpt lat="40.532333" lon="-5.058150">
        <ele>1856.0</ele>
        <time>2013-05-11T13:24:27Z</time>
      </trkpt>
      <trkpt lat="40.532333" lon="-5.058017">
        <ele>1855.0</ele>
        <time>2013-05-11T13:24:28Z</time>
      </trkpt>
      <trkpt lat="40.532350" lon="-5.057900">
        <ele>1855.0</ele>
        <time>2013-05-11T13:24:29Z</time>
      </trkpt>
      <trkpt lat="40.532350" lon="-5.057800">
        <ele>1855.0</ele>
        <time>2013-05-11T13:24:30Z</time>
      </trkpt>
      <trkpt lat="40.532367" lon="-5.057717">
        <ele>1853.0</ele>
        <time>2013-05-11T13:24:31Z</time>
      </trkpt>
      <trkpt lat="40.532383" lon="-5.057617">
        <ele>1851.0</ele>
        <time>2013-05-11T13:24:32Z</time>
      </trkpt>
      <trkpt lat="40.532417" lon="-5.057500">
        <ele>1848.0</ele>
        <time>2013-05-11T13:24:33Z</time>
      </trkpt>
      <trkpt lat="40.532433" lon="-5.057383">
        <ele>1846.0</ele>
        <time>2013-05-11T13:24:34Z</time>
      </trkpt>
      <trkpt lat="40.532450" lon="-5.057267">
        <ele>1844.0</ele>
        <time>2013-05-11T13:24:35Z</time>
      </trkpt>
      <trkpt lat="40.532467" lon="-5.057150">
        <ele>1841.0</ele>
        <time>2013-05-11T13:24:36Z</time>
      </trkpt>
      <trkpt lat="40.532483" lon="-5.057017">
        <ele>1839.0</ele>
        <time>2013-05-11T13:24:37Z</time>
      </trkpt>
      <trkpt lat="40.532500" lon="-5.056900">
        <ele>1836.0</ele>
        <time>2013-05-11T13:24:38Z</time>
      </trkpt>
      <trkpt lat="40.532517" lon="-5.056783">
        <ele>1833.0</ele>
        <time>2013-05-11T13:24:39Z</time>
      </trkpt>
      <trkpt lat="40.532533" lon="-5.056650">
        <ele>1830.0</ele>
        <time>2013-05-11T13:24:40Z</time>
      </trkpt>
      <trkpt lat="40.532550" lon="-5.056550">
        <ele>1827.0</ele>
        <time>2013-05-11T13:24:41Z</time>
      </trkpt>
      <trkpt lat="40.532567" lon="-5.056433">
        <ele>1823.0</ele>
        <time>2013-05-11T13:24:42Z</time>
      </trkpt>
      <trkpt lat="40.532583" lon="-5.056317">
        <ele>1819.0</ele>
        <time>2013-05-11T13:24:43Z</time>
      </trkpt>
      <trkpt lat="40.532617" lon="-5.056183">
        <ele>1815.0</ele>
        <time>2013-05-11T13:24:44Z</time>
      </trkpt>
      <trkpt lat="40.532633" lon="-5.056067">
        <ele>1811.0</ele>
        <time>2013-05-11T13:24:45Z</time>
      </trkpt>
      <trkpt lat="40.532650" lon="-5.055933">
        <ele>1808.0</ele>
        <time>2013-05-11T13:24:46Z</time>
      </trkpt>
      <trkpt lat="40.532667" lon="-5.055817">
        <ele>1805.0</ele>
        <time>2013-05-11T13:24:47Z</time>
      </trkpt>
      <trkpt lat="40.532683" lon="-5.055700">
        <ele>1803.0</ele>
        <time>2013-05-11T13:24:48Z</time>
      </trkpt>
      <trkpt lat="40.532683" lon="-5.055583">
        <ele>1800.0</ele>
        <time>2013-05-11T13:24:49Z</time>
      </trkpt>
      <trkpt lat="40.532700" lon="-5.055483">
        <ele>1797.0</ele>
        <time>2013-05-11T13:24:50Z</time>
      </trkpt>
      <trkpt lat="40.532700" lon="-5.055367">
        <ele>1794.0</ele>
        <time>2013-05-11T13:24:51Z</time>
      </trkpt>
      <trkpt lat="40.532717" lon="-5.055250">
        <ele>1791.0</ele>
        <time>2013-05-11T13:24:52Z</time>
      </trkpt>
      <trkpt lat="40.532733" lon="-5.055117">
        <ele>1787.0</ele>
        <time>2013-05-11T13:24:53Z</time>
      </trkpt>
      <trkpt lat="40.532750" lon="-5.054983">
        <ele>1784.0</ele>
        <time>2013-05-11T13:24:54Z</time>
      </trkpt>
      <trkpt lat="40.532767" lon="-5.054850">
        <ele>1782.0</ele>
        <time>2013-05-11T13:24:55Z</time>
      </trkpt>
      <trkpt lat="40.532783" lon="-5.054750">
        <ele>1781.0</ele>
        <time>2013-05-11T13:24:56Z</time>
      </trkpt>
      <trkpt lat="40.532800" lon="-5.054633">
        <ele>1779.0</ele>
        <time>2013-05-11T13:24:57Z</time>
      </trkpt>
      <trkpt lat="40.532817" lon="-5.054533">
        <ele>1776.0</ele>
        <time>2013-05-11T13:24:58Z</time>
      </trkpt>
      <trkpt lat="40.532833" lon="-5.054433">
        <ele>1773.0</ele>
        <time>2013-05-11T13:24:59Z</time>
      </trkpt>
      <trkpt lat="40.532867" lon="-5.054333">
        <ele>1770.0</ele>
        <time>2013-05-11T13:25:00Z</time>
      </trkpt>
      <trkpt lat="40.532900" lon="-5.054217">
        <ele>1767.0</ele>
        <time>2013-05-11T13:25:01Z</time>
      </trkpt>
      <trkpt lat="40.532917" lon="-5.054100">
        <ele>1764.0</ele>
        <time>2013-05-11T13:25:02Z</time>
      </trkpt>
      <trkpt lat="40.532933" lon="-5.054000">
        <ele>1760.0</ele>
        <time>2013-05-11T13:25:03Z</time>
      </trkpt>
      <trkpt lat="40.532967" lon="-5.053883">
        <ele>1757.0</ele>
        <time>2013-05-11T13:25:04Z</time>
      </trkpt>
      <trkpt lat="40.533000" lon="-5.053767">
        <ele>1753.0</ele>
        <time>2013-05-11T13:25:05Z</time>
      </trkpt>
      <trkpt lat="40.533017" lon="-5.053650">
        <ele>1750.0</ele>
        <time>2013-05-11T13:25:06Z</time>
      </trkpt>
      <trkpt lat="40.533050" lon="-5.053533">
        <ele>1747.0</ele>
        <time>2013-05-11T13:25:07Z</time>
      </trkpt>
      <trkpt lat="40.533067" lon="-5.053433">
        <ele>1744.0</ele>
        <time>2013-05-11T13:25:08Z</time>
      </trkpt>
      <trkpt lat="40.533100" lon="-5.053317">
        <ele>1742.0</ele>
        <time>2013-05-11T13:25:09Z</time>
      </trkpt>
      <trkpt lat="40.533133" lon="-5.053183">
        <ele>1739.0</ele>
        <time>2013-05-11T13:25:10Z</time>
      </trkpt>
      <trkpt lat="40.533150" lon="-5.053067">
        <ele>1736.0</ele>
        <time>2013-05-11T13:25:11Z</time>
      </trkpt>
      <trkpt lat="40.533183" lon="-5.052933">
        <ele>1733.0</ele>
        <time>2013-05-11T13:25:12Z</time>
      </trkpt>
      <trkpt lat="40.533200" lon="-5.052817">
        <ele>1730.0</ele>
        <time>2013-05-11T13:25:13Z</time>
      </trkpt>
      <trkpt lat="40.533217" lon="-5.052683">
        <ele>1728.0</ele>
        <time>2013-05-11T13:25:14Z</time>
      </trkpt>
      <trkpt lat="40.533250" lon="-5.052567">
        <ele>1726.0</ele>
        <time>2013-05-11T13:25:15Z</time>
      </trkpt>
      <trkpt lat="40.533267" lon="-5.052467">
        <ele>1723.0</ele>
        <time>2013-05-11T13:25:16Z</time>
      </trkpt>
      <trkpt lat="40.533300" lon="-5.052350">
        <ele>1721.0</ele>
        <time>2013-05-11T13:25:17Z</time>
      </trkpt>
      <trkpt lat="40.533317" lon="-5.052233">
        <ele>1719.0</ele>
        <time>2013-05-11T13:25:18Z</time>
      </trkpt>
      <trkpt lat="40.533333" lon="-5.052117">
        <ele>1716.0</ele>
        <time>2013-05-11T13:25:19Z</time>
      </trkpt>
      <trkpt lat="40.533350" lon="-5.052000">
        <ele>1714.0</ele>
        <time>2013-05-11T13:25:20Z</time>
      </trkpt>
      <trkpt lat="40.533383" lon="-5.051867">
        <ele>1711.0</ele>
        <time>2013-05-11T13:25:21Z</time>
      </trkpt>
      <trkpt lat="40.533400" lon="-5.051750">
        <ele>1708.0</ele>
        <time>2013-05-11T13:25:22Z</time>
      </trkpt>
      <trkpt lat="40.533433" lon="-5.051633">
        <ele>1706.0</ele>
        <time>2013-05-11T13:25:23Z</time>
      </trkpt>
      <trkpt lat="40.533450" lon="-5.051517">
        <ele>1705.0</ele>
        <time>2013-05-11T13:25:24Z</time>
      </trkpt>
      <trkpt lat="40.533467" lon="-5.051400">
        <ele>1703.0</ele>
        <time>2013-05-11T13:25:25Z</time>
      </trkpt>
      <trkpt lat="40.533483" lon="-5.051283">
        <ele>1702.0</ele>
        <time>2013-05-11T13:25:26Z</time>
      </trkpt>
      <trkpt lat="40.533500" lon="-5.051167">
        <ele>1700.0</ele>
        <time>2013-05-11T13:25:27Z</time>
      </trkpt>
      <trkpt lat="40.533517" lon="-5.051067">
        <ele>1698.0</ele>
        <time>2013-05-11T13:25:28Z</time>
      </trkpt>
      <trkpt lat="40.533533" lon="-5.050950">
        <ele>1696.0</ele>
        <time>2013-05-11T13:25:29Z</time>
      </trkpt>
      <trkpt lat="40.533550" lon="-5.050833">
        <ele>1694.0</ele>
        <time>2013-05-11T13:25:30Z</time>
      </trkpt>
      <trkpt lat="40.533567" lon="-5.050733">
        <ele>1692.0</ele>
        <time>2013-05-11T13:25:31Z</time>
      </trkpt>
      <trkpt lat="40.533583" lon="-5.050633">
        <ele>1690.0</ele>
        <time>2013-05-11T13:25:32Z</time>
      </trkpt>
      <trkpt lat="40.533600" lon="-5.050517">
        <ele>1687.0</ele>
        <time>2013-05-11T13:25:33Z</time>
      </trkpt>
      <trkpt lat="40.533633" lon="-5.050400">
        <ele>1683.0</ele>
        <time>2013-05-11T13:25:34Z</time>
      </trkpt>
      <trkpt lat="40.533667" lon="-5.050267">
        <ele>1681.0</ele>
        <time>2013-05-11T13:25:35Z</time>
      </trkpt>
      <trkpt lat="40.533700" lon="-5.050133">
        <ele>1680.0</ele>
        <time>2013-05-11T13:25:36Z</time>
      </trkpt>
      <trkpt lat="40.533717" lon="-5.050000">
        <ele>1680.0</ele>
        <time>2013-05-11T13:25:37Z</time>
      </trkpt>
      <trkpt lat="40.533750" lon="-5.049883">
        <ele>1680.0</ele>
        <time>2013-05-11T13:25:38Z</time>
      </trkpt>
      <trkpt lat="40.533767" lon="-5.049783">
        <ele>1680.0</ele>
        <time>2013-05-11T13:25:39Z</time>
      </trkpt>
      <trkpt lat="40.533783" lon="-5.049667">
        <ele>1679.0</ele>
        <time>2013-05-11T13:25:40Z</time>
      </trkpt>
      <trkpt lat="40.533817" lon="-5.049567">
        <ele>1678.0</ele>
        <time>2013-05-11T13:25:41Z</time>
      </trkpt>
      <trkpt lat="40.533833" lon="-5.049467">
        <ele>1676.0</ele>
        <time>2013-05-11T13:25:42Z</time>
      </trkpt>
      <trkpt lat="40.533867" lon="-5.049350">
        <ele>1676.0</ele>
        <time>2013-05-11T13:25:43Z</time>
      </trkpt>
      <trkpt lat="40.533883" lon="-5.049233">
        <ele>1676.0</ele>
        <time>2013-05-11T13:25:44Z</time>
      </trkpt>
      <trkpt lat="40.533883" lon="-5.049150">
        <ele>1676.0</ele>
        <time>2013-05-11T13:25:45Z</time>
      </trkpt>
      <trkpt lat="40.533900" lon="-5.049050">
        <ele>1675.0</ele>
        <time>2013-05-11T13:25:46Z</time>
      </trkpt>
      <trkpt lat="40.533933" lon="-5.048967">
        <ele>1674.0</ele>
        <time>2013-05-11T13:25:47Z</time>
      </trkpt>
      <trkpt lat="40.533950" lon="-5.048883">
        <ele>1673.0</ele>
        <time>2013-05-11T13:25:48Z</time>
      </trkpt>
      <trkpt lat="40.533967" lon="-5.048783">
        <ele>1672.0</ele>
        <time>2013-05-11T13:25:49Z</time>
      </trkpt>
      <trkpt lat="40.533983" lon="-5.048683">
        <ele>1671.0</ele>
        <time>2013-05-11T13:25:50Z</time>
      </trkpt>
      <trkpt lat="40.534017" lon="-5.048600">
        <ele>1670.0</ele>
        <time>2013-05-11T13:25:51Z</time>
      </trkpt>
      <trkpt lat="40.534033" lon="-5.048517">
        <ele>1669.0</ele>
        <time>2013-05-11T13:25:52Z</time>
      </trkpt>
      <trkpt lat="40.534050" lon="-5.048433">
        <ele>1668.0</ele>
        <time>2013-05-11T13:25:53Z</time>
      </trkpt>
      <trkpt lat="40.534067" lon="-5.048367">
        <ele>1666.0</ele>
        <time>2013-05-11T13:25:54Z</time>
      </trkpt>
      <trkpt lat="40.534083" lon="-5.048283">
        <ele>1664.0</ele>
        <time>2013-05-11T13:25:55Z</time>
      </trkpt>
      <trkpt lat="40.534117" lon="-5.048200">
        <ele>1662.0</ele>
        <time>2013-05-11T13:25:56Z</time>
      </trkpt>
      <trkpt lat="40.534150" lon="-5.048117">
        <ele>1660.0</ele>
        <time>2013-05-11T13:25:57Z</time>
      </trkpt>
      <trkpt lat="40.534167" lon="-5.048017">
        <ele>1658.0</ele>
        <time>2013-05-11T13:25:58Z</time>
      </trkpt>
      <trkpt lat="40.534183" lon="-5.047917">
        <ele>1656.0</ele>
        <time>2013-05-11T13:25:59Z</time>
      </trkpt>
      <trkpt lat="40.534200" lon="-5.047833">
        <ele>1653.0</ele>
        <time>2013-05-11T13:26:00Z</time>
      </trkpt>
      <trkpt lat="40.534217" lon="-5.047717">
        <ele>1651.0</ele>
        <time>2013-05-11T13:26:01Z</time>
      </trkpt>
      <trkpt lat="40.534233" lon="-5.047617">
        <ele>1648.0</ele>
        <time>2013-05-11T13:26:02Z</time>
      </trkpt>
      <trkpt lat="40.534250" lon="-5.047500">
        <ele>1645.0</ele>
        <time>2013-05-11T13:26:03Z</time>
      </trkpt>
      <trkpt lat="40.534267" lon="-5.047400">
        <ele>1643.0</ele>
        <time>2013-05-11T13:26:04Z</time>
      </trkpt>
      <trkpt lat="40.534283" lon="-5.047283">
        <ele>1642.0</ele>
        <time>2013-05-11T13:26:05Z</time>
      </trkpt>
      <trkpt lat="40.534283" lon="-5.047183">
        <ele>1641.0</ele>
        <time>2013-05-11T13:26:06Z</time>
      </trkpt>
      <trkpt lat="40.534300" lon="-5.047083">
        <ele>1640.0</ele>
        <time>2013-05-11T13:26:07Z</time>
      </trkpt>
      <trkpt lat="40.534300" lon="-5.046983">
        <ele>1640.0</ele>
        <time>2013-05-11T13:26:08Z</time>
      </trkpt>
      <trkpt lat="40.534300" lon="-5.046867">
        <ele>1640.0</ele>
        <time>2013-05-11T13:26:09Z</time>
      </trkpt>
      <trkpt lat="40.534300" lon="-5.046767">
        <ele>1639.0</ele>
        <time>2013-05-11T13:26:10Z</time>
      </trkpt>
      <trkpt lat="40.534300" lon="-5.046650">
        <ele>1638.0</ele>
        <time>2013-05-11T13:26:11Z</time>
      </trkpt>
      <trkpt lat="40.534300" lon="-5.046550">
        <ele>1637.0</ele>
        <time>2013-05-11T13:26:12Z</time>
      </trkpt>
      <trkpt lat="40.534300" lon="-5.046433">
        <ele>1637.0</ele>
        <time>2013-05-11T13:26:13Z</time>
      </trkpt>
      <trkpt lat="40.534333" lon="-5.046333">
        <ele>1637.0</ele>
        <time>2013-05-11T13:26:14Z</time>
      </trkpt>
      <trkpt lat="40.534350" lon="-5.046233">
        <ele>1638.0</ele>
        <time>2013-05-11T13:26:15Z</time>
      </trkpt>
      <trkpt lat="40.534367" lon="-5.046133">
        <ele>1639.0</ele>
        <time>2013-05-11T13:26:16Z</time>
      </trkpt>
      <trkpt lat="40.534367" lon="-5.046033">
        <ele>1641.0</ele>
        <time>2013-05-11T13:26:17Z</time>
      </trkpt>
      <trkpt lat="40.534367" lon="-5.045950">
        <ele>1642.0</ele>
        <time>2013-05-11T13:26:18Z</time>
      </trkpt>
      <trkpt lat="40.534383" lon="-5.045867">
        <ele>1643.0</ele>
        <time>2013-05-11T13:26:19Z</time>
      </trkpt>
      <trkpt lat="40.534383" lon="-5.045767">
        <ele>1644.0</ele>
        <time>2013-05-11T13:26:20Z</time>
      </trkpt>
      <trkpt lat="40.534367" lon="-5.045683">
        <ele>1644.0</ele>
        <time>2013-05-11T13:26:21Z</time>
      </trkpt>
      <trkpt lat="40.534350" lon="-5.045583">
        <ele>1644.0</ele>
        <time>2013-05-11T13:26:22Z</time>
      </trkpt>
      <trkpt lat="40.534283" lon="-5.045483">
        <ele>1644.0</ele>
        <time>2013-05-11T13:26:23Z</time>
      </trkpt>
      <trkpt lat="40.534233" lon="-5.045367">
        <ele>1643.0</ele>
        <time>2013-05-11T13:26:24Z</time>
      </trkpt>
      <trkpt lat="40.534167" lon="-5.045267">
        <ele>1642.0</ele>
        <time>2013-05-11T13:26:25Z</time>
      </trkpt>
      <trkpt lat="40.534133" lon="-5.045133">
        <ele>1643.0</ele>
        <time>2013-05-11T13:26:26Z</time>
      </trkpt>
      <trkpt lat="40.534100" lon="-5.045000">
        <ele>1645.0</ele>
        <time>2013-05-11T13:26:27Z</time>
      </trkpt>
      <trkpt lat="40.534100" lon="-5.044883">
        <ele>1648.0</ele>
        <time>2013-05-11T13:26:28Z</time>
      </trkpt>
      <trkpt lat="40.534100" lon="-5.044800">
        <ele>1650.0</ele>
        <time>2013-05-11T13:26:29Z</time>
      </trkpt>
      <trkpt lat="40.534117" lon="-5.044717">
        <ele>1653.0</ele>
        <time>2013-05-11T13:26:30Z</time>
      </trkpt>
      <trkpt lat="40.534133" lon="-5.044650">
        <ele>1655.0</ele>
        <time>2013-05-11T13:26:31Z</time>
      </trkpt>
      <trkpt lat="40.534167" lon="-5.044600">
        <ele>1656.0</ele>
        <time>2013-05-11T13:26:32Z</time>
      </trkpt>
      <trkpt lat="40.534217" lon="-5.044550">
        <ele>1657.0</ele>
        <time>2013-05-11T13:26:33Z</time>
      </trkpt>
      <trkpt lat="40.534267" lon="-5.044533">
        <ele>1658.0</ele>
        <time>2013-05-11T13:26:34Z</time>
      </trkpt>
      <trkpt lat="40.534300" lon="-5.044550">
        <ele>1659.0</ele>
        <time>2013-05-11T13:26:35Z</time>
      </trkpt>
      <trkpt lat="40.534333" lon="-5.044583">
        <ele>1660.0</ele>
        <time>2013-05-11T13:26:36Z</time>
      </trkpt>
      <trkpt lat="40.534367" lon="-5.044617">
        <ele>1662.0</ele>
        <time>2013-05-11T13:26:37Z</time>
      </trkpt>
      <trkpt lat="40.534383" lon="-5.044650">
        <ele>1663.0</ele>
        <time>2013-05-11T13:26:38Z</time>
      </trkpt>
      <trkpt lat="40.534417" lon="-5.044700">
        <ele>1663.0</ele>
        <time>2013-05-11T13:26:39Z</time>
      </trkpt>
      <trkpt lat="40.534433" lon="-5.044767">
        <ele>1663.0</ele>
        <time>2013-05-11T13:26:40Z</time>
      </trkpt>
      <trkpt lat="40.534433" lon="-5.044867">
        <ele>1662.0</ele>
        <time>2013-05-11T13:26:41Z</time>
      </trkpt>
      <trkpt lat="40.534433" lon="-5.044967">
        <ele>1661.0</ele>
        <time>2013-05-11T13:26:42Z</time>
      </trkpt>
      <trkpt lat="40.534417" lon="-5.045083">
        <ele>1661.0</ele>
        <time>2013-05-11T13:26:43Z</time>
      </trkpt>
      <trkpt lat="40.534400" lon="-5.045200">
        <ele>1662.0</ele>
        <time>2013-05-11T13:26:44Z</time>
      </trkpt>
      <trkpt lat="40.534350" lon="-5.045300">
        <ele>1663.0</ele>
        <time>2013-05-11T13:26:45Z</time>
      </trkpt>
      <trkpt lat="40.534283" lon="-5.045383">
        <ele>1664.0</ele>
        <time>2013-05-11T13:26:46Z</time>
      </trkpt>
      <trkpt lat="40.534200" lon="-5.045467">
        <ele>1665.0</ele>
        <time>2013-05-11T13:26:47Z</time>
      </trkpt>
      <trkpt lat="40.534117" lon="-5.045550">
        <ele>1665.0</ele>
        <time>2013-05-11T13:26:48Z</time>
      </trkpt>
      <trkpt lat="40.534017" lon="-5.045617">
        <ele>1666.0</ele>
        <time>2013-05-11T13:26:49Z</time>
      </trkpt>
      <trkpt lat="40.533917" lon="-5.045667">
        <ele>1666.0</ele>
        <time>2013-05-11T13:26:50Z</time>
      </trkpt>
      <trkpt lat="40.533800" lon="-5.045700">
        <ele>1665.0</ele>
        <time>2013-05-11T13:26:51Z</time>
      </trkpt>
      <trkpt lat="40.533683" lon="-5.045683">
        <ele>1665.0</ele>
        <time>2013-05-11T13:26:52Z</time>
      </trkpt>
      <trkpt lat="40.533550" lon="-5.045667">
        <ele>1665.0</ele>
        <time>2013-05-11T13:26:53Z</time>
      </trkpt>
      <trkpt lat="40.533450" lon="-5.045600">
        <ele>1665.0</ele>
        <time>2013-05-11T13:26:54Z</time>
      </trkpt>
      <trkpt lat="40.533350" lon="-5.045533">
        <ele>1664.0</ele>
        <time>2013-05-11T13:26:55Z</time>
      </trkpt>
      <trkpt lat="40.533267" lon="-5.045433">
        <ele>1664.0</ele>
        <time>2013-05-11T13:26:56Z</time>
      </trkpt>
      <trkpt lat="40.533200" lon="-5.045333">
        <ele>1664.0</ele>
        <time>2013-05-11T13:26:57Z</time>
      </trkpt>
      <trkpt lat="40.533150" lon="-5.045217">
        <ele>1664.0</ele>
        <time>2013-05-11T13:26:58Z</time>
      </trkpt>
      <trkpt lat="40.533133" lon="-5.045100">
        <ele>1665.0</ele>
        <time>2013-05-11T13:26:59Z</time>
      </trkpt>
      <trkpt lat="40.533117" lon="-5.044983">
        <ele>1665.0</ele>
        <time>2013-05-11T13:27:00Z</time>
      </trkpt>
      <trkpt lat="40.533117" lon="-5.044867">
        <ele>1666.0</ele>
        <time>2013-05-11T13:27:01Z</time>
      </trkpt>
      <trkpt lat="40.533100" lon="-5.044767">
        <ele>1668.0</ele>
        <time>2013-05-11T13:27:02Z</time>
      </trkpt>
      <trkpt lat="40.533100" lon="-5.044650">
        <ele>1668.0</ele>
        <time>2013-05-11T13:27:03Z</time>
      </trkpt>
      <trkpt lat="40.533083" lon="-5.044533">
        <ele>1669.0</ele>
        <time>2013-05-11T13:27:04Z</time>
      </trkpt>
      <trkpt lat="40.533083" lon="-5.044417">
        <ele>1669.0</ele>
        <time>2013-05-11T13:27:05Z</time>
      </trkpt>
      <trkpt lat="40.533100" lon="-5.044300">
        <ele>1671.0</ele>
        <time>2013-05-11T13:27:06Z</time>
      </trkpt>
      <trkpt lat="40.533100" lon="-5.044183">
        <ele>1672.0</ele>
        <time>2013-05-11T13:27:07Z</time>
      </trkpt>
      <trkpt lat="40.533117" lon="-5.044050">
        <ele>1673.0</ele>
        <time>2013-05-11T13:27:08Z</time>
      </trkpt>
      <trkpt lat="40.533133" lon="-5.043917">
        <ele>1675.0</ele>
        <time>2013-05-11T13:27:09Z</time>
      </trkpt>
      <trkpt lat="40.533150" lon="-5.043800">
        <ele>1677.0</ele>
        <time>2013-05-11T13:27:10Z</time>
      </trkpt>
      <trkpt lat="40.533167" lon="-5.043700">
        <ele>1679.0</ele>
        <time>2013-05-11T13:27:11Z</time>
      </trkpt>
      <trkpt lat="40.533200" lon="-5.043600">
        <ele>1681.0</ele>
        <time>2013-05-11T13:27:12Z</time>
      </trkpt>
      <trkpt lat="40.533250" lon="-5.043533">
        <ele>1683.0</ele>
        <time>2013-05-11T13:27:13Z</time>
      </trkpt>
      <trkpt lat="40.533300" lon="-5.043500">
        <ele>1685.0</ele>
        <time>2013-05-11T13:27:14Z</time>
      </trkpt>
      <trkpt lat="40.533350" lon="-5.043483">
        <ele>1686.0</ele>
        <time>2013-05-11T13:27:15Z</time>
      </trkpt>
      <trkpt lat="40.533417" lon="-5.043500">
        <ele>1686.0</ele>
        <time>2013-05-11T13:27:16Z</time>
      </trkpt>
      <trkpt lat="40.533450" lon="-5.043550">
        <ele>1687.0</ele>
        <time>2013-05-11T13:27:17Z</time>
      </trkpt>
      <trkpt lat="40.533500" lon="-5.043600">
        <ele>1688.0</ele>
        <time>2013-05-11T13:27:18Z</time>
      </trkpt>
      <trkpt lat="40.533533" lon="-5.043650">
        <ele>1690.0</ele>
        <time>2013-05-11T13:27:19Z</time>
      </trkpt>
      <trkpt lat="40.533550" lon="-5.043717">
        <ele>1691.0</ele>
        <time>2013-05-11T13:27:20Z</time>
      </trkpt>
      <trkpt lat="40.533567" lon="-5.043800">
        <ele>1692.0</ele>
        <time>2013-05-11T13:27:21Z</time>
      </trkpt>
      <trkpt lat="40.533567" lon="-5.043883">
        <ele>1692.0</ele>
        <time>2013-05-11T13:27:22Z</time>
      </trkpt>
      <trkpt lat="40.533550" lon="-5.044000">
        <ele>1693.0</ele>
        <time>2013-05-11T13:27:23Z</time>
      </trkpt>
      <trkpt lat="40.533500" lon="-5.044117">
        <ele>1694.0</ele>
        <time>2013-05-11T13:27:24Z</time>
      </trkpt>
      <trkpt lat="40.533450" lon="-5.044217">
        <ele>1696.0</ele>
        <time>2013-05-11T13:27:25Z</time>
      </trkpt>
      <trkpt lat="40.533383" lon="-5.044317">
        <ele>1699.0</ele>
        <time>2013-05-11T13:27:26Z</time>
      </trkpt>
      <trkpt lat="40.533317" lon="-5.044383">
        <ele>1701.0</ele>
        <time>2013-05-11T13:27:27Z</time>
      </trkpt>
      <trkpt lat="40.533233" lon="-5.044433">
        <ele>1702.0</ele>
        <time>2013-05-11T13:27:28Z</time>
      </trkpt>
      <trkpt lat="40.533150" lon="-5.044467">
        <ele>1702.0</ele>
        <time>2013-05-11T13:27:29Z</time>
      </trkpt>
      <trkpt lat="40.533033" lon="-5.044500">
        <ele>1702.0</ele>
        <time>2013-05-11T13:27:30Z</time>
      </trkpt>
      <trkpt lat="40.532917" lon="-5.044500">
        <ele>1702.0</ele>
        <time>2013-05-11T13:27:31Z</time>
      </trkpt>
      <trkpt lat="40.532800" lon="-5.044483">
        <ele>1703.0</ele>
        <time>2013-05-11T13:27:32Z</time>
      </trkpt>
      <trkpt lat="40.532683" lon="-5.044433">
        <ele>1704.0</ele>
        <time>2013-05-11T13:27:33Z</time>
      </trkpt>
      <trkpt lat="40.532583" lon="-5.044333">
        <ele>1706.0</ele>
        <time>2013-05-11T13:27:34Z</time>
      </trkpt>
      <trkpt lat="40.532483" lon="-5.044233">
        <ele>1708.0</ele>
        <time>2013-05-11T13:27:35Z</time>
      </trkpt>
      <trkpt lat="40.532400" lon="-5.044133">
        <ele>1711.0</ele>
        <time>2013-05-11T13:27:36Z</time>
      </trkpt>
      <trkpt lat="40.532333" lon="-5.044050">
        <ele>1713.0</ele>
        <time>2013-05-11T13:27:37Z</time>
      </trkpt>
      <trkpt lat="40.532283" lon="-5.043950">
        <ele>1715.0</ele>
        <time>2013-05-11T13:27:38Z</time>
      </trkpt>
      <trkpt lat="40.532233" lon="-5.043817">
        <ele>1715.0</ele>
        <time>2013-05-11T13:27:39Z</time>
      </trkpt>
      <trkpt lat="40.532183" lon="-5.043683">
        <ele>1716.0</ele>
        <time>2013-05-11T13:27:40Z</time>
      </trkpt>
      <trkpt lat="40.532150" lon="-5.043533">
        <ele>1719.0</ele>
        <time>2013-05-11T13:27:41Z</time>
      </trkpt>
      <trkpt lat="40.532150" lon="-5.043417">
        <ele>1721.0</ele>
        <time>2013-05-11T13:27:42Z</time>
      </trkpt>
      <trkpt lat="40.532150" lon="-5.043317">
        <ele>1724.0</ele>
        <time>2013-05-11T13:27:43Z</time>
      </trkpt>
      <trkpt lat="40.532150" lon="-5.043217">
        <ele>1726.0</ele>
        <time>2013-05-11T13:27:44Z</time>
      </trkpt>
      <trkpt lat="40.532167" lon="-5.043150">
        <ele>1728.0</ele>
        <time>2013-05-11T13:27:45Z</time>
      </trkpt>
      <trkpt lat="40.532183" lon="-5.043067">
        <ele>1730.0</ele>
        <time>2013-05-11T13:27:46Z</time>
      </trkpt>
      <trkpt lat="40.532217" lon="-5.043000">
        <ele>1732.0</ele>
        <time>2013-05-11T13:27:47Z</time>
      </trkpt>
      <trkpt lat="40.532250" lon="-5.042950">
        <ele>1734.0</ele>
        <time>2013-05-11T13:27:48Z</time>
      </trkpt>
      <trkpt lat="40.532283" lon="-5.042917">
        <ele>1736.0</ele>
        <time>2013-05-11T13:27:49Z</time>
      </trkpt>
      <trkpt lat="40.532317" lon="-5.042900">
        <ele>1738.0</ele>
        <time>2013-05-11T13:27:50Z</time>
      </trkpt>
      <trkpt lat="40.532367" lon="-5.042883">
        <ele>1738.0</ele>
        <time>2013-05-11T13:27:51Z</time>
      </trkpt>
      <trkpt lat="40.532417" lon="-5.042900">
        <ele>1736.0</ele>
        <time>2013-05-11T13:27:52Z</time>
      </trkpt>
      <trkpt lat="40.532467" lon="-5.042950">
        <ele>1735.0</ele>
        <time>2013-05-11T13:27:53Z</time>
      </trkpt>
      <trkpt lat="40.532500" lon="-5.043033">
        <ele>1736.0</ele>
        <time>2013-05-11T13:27:54Z</time>
      </trkpt>
      <trkpt lat="40.532517" lon="-5.043133">
        <ele>1737.0</ele>
        <time>2013-05-11T13:27:55Z</time>
      </trkpt>
      <trkpt lat="40.532500" lon="-5.043233">
        <ele>1738.0</ele>
        <time>2013-05-11T13:27:56Z</time>
      </trkpt>
      <trkpt lat="40.532483" lon="-5.043317">
        <ele>1739.0</ele>
        <time>2013-05-11T13:27:57Z</time>
      </trkpt>
      <trkpt lat="40.532467" lon="-5.043417">
        <ele>1739.0</ele>
        <time>2013-05-11T13:27:58Z</time>
      </trkpt>
      <trkpt lat="40.532433" lon="-5.043533">
        <ele>1739.0</ele>
        <time>2013-05-11T13:27:59Z</time>
      </trkpt>
      <trkpt lat="40.532383" lon="-5.043650">
        <ele>1741.0</ele>
        <time>2013-05-11T13:28:00Z</time>
      </trkpt>
      <trkpt lat="40.532300" lon="-5.043750">
        <ele>1743.0</ele>
        <time>2013-05-11T13:28:01Z</time>
      </trkpt>
      <trkpt lat="40.532233" lon="-5.043833">
        <ele>1746.0</ele>
        <time>2013-05-11T13:28:02Z</time>
      </trkpt>
      <trkpt lat="40.532150" lon="-5.043917">
        <ele>1749.0</ele>
        <time>2013-05-11T13:28:03Z</time>
      </trkpt>
      <trkpt lat="40.532067" lon="-5.043983">
        <ele>1750.0</ele>
        <time>2013-05-11T13:28:04Z</time>
      </trkpt>
      <trkpt lat="40.531983" lon="-5.044033">
        <ele>1751.0</ele>
        <time>2013-05-11T13:28:05Z</time>
      </trkpt>
      <trkpt lat="40.531867" lon="-5.044100">
        <ele>1752.0</ele>
        <time>2013-05-11T13:28:06Z</time>
      </trkpt>
      <trkpt lat="40.531750" lon="-5.044133">
        <ele>1752.0</ele>
        <time>2013-05-11T13:28:07Z</time>
      </trkpt>
      <trkpt lat="40.531617" lon="-5.044117">
        <ele>1754.0</ele>
        <time>2013-05-11T13:28:08Z</time>
      </trkpt>
      <trkpt lat="40.531483" lon="-5.044067">
        <ele>1756.0</ele>
        <time>2013-05-11T13:28:09Z</time>
      </trkpt>
      <trkpt lat="40.531383" lon="-5.043983">
        <ele>1759.0</ele>
        <time>2013-05-11T13:28:10Z</time>
      </trkpt>
      <trkpt lat="40.531300" lon="-5.043900">
        <ele>1763.0</ele>
        <time>2013-05-11T13:28:11Z</time>
      </trkpt>
      <trkpt lat="40.531217" lon="-5.043817">
        <ele>1765.0</ele>
        <time>2013-05-11T13:28:12Z</time>
      </trkpt>
      <trkpt lat="40.531167" lon="-5.043700">
        <ele>1766.0</ele>
        <time>2013-05-11T13:28:13Z</time>
      </trkpt>
      <trkpt lat="40.531117" lon="-5.043583">
        <ele>1767.0</ele>
        <time>2013-05-11T13:28:14Z</time>
      </trkpt>
      <trkpt lat="40.531100" lon="-5.043450">
        <ele>1769.0</ele>
        <time>2013-05-11T13:28:15Z</time>
      </trkpt>
      <trkpt lat="40.531100" lon="-5.043317">
        <ele>1770.0</ele>
        <time>2013-05-11T13:28:16Z</time>
      </trkpt>
      <trkpt lat="40.531117" lon="-5.043200">
        <ele>1773.0</ele>
        <time>2013-05-11T13:28:17Z</time>
      </trkpt>
      <trkpt lat="40.531133" lon="-5.043083">
        <ele>1775.0</ele>
        <time>2013-05-11T13:28:18Z</time>
      </trkpt>
      <trkpt lat="40.531150" lon="-5.043000">
        <ele>1778.0</ele>
        <time>2013-05-11T13:28:19Z</time>
      </trkpt>
      <trkpt lat="40.531183" lon="-5.042933">
        <ele>1780.0</ele>
        <time>2013-05-11T13:28:20Z</time>
      </trkpt>
      <trkpt lat="40.531217" lon="-5.042883">
        <ele>1782.0</ele>
        <time>2013-05-11T13:28:21Z</time>
      </trkpt>
      <trkpt lat="40.531267" lon="-5.042867">
        <ele>1784.0</ele>
        <time>2013-05-11T13:28:22Z</time>
      </trkpt>
      <trkpt lat="40.531317" lon="-5.042850">
        <ele>1787.0</ele>
        <time>2013-05-11T13:28:23Z</time>
      </trkpt>
      <trkpt lat="40.531367" lon="-5.042867">
        <ele>1790.0</ele>
        <time>2013-05-11T13:28:24Z</time>
      </trkpt>
      <trkpt lat="40.531400" lon="-5.042917">
        <ele>1792.0</ele>
        <time>2013-05-11T13:28:25Z</time>
      </trkpt>
      <trkpt lat="40.531417" lon="-5.042967">
        <ele>1793.0</ele>
        <time>2013-05-11T13:28:26Z</time>
      </trkpt>
      <trkpt lat="40.531450" lon="-5.043050">
        <ele>1793.0</ele>
        <time>2013-05-11T13:28:27Z</time>
      </trkpt>
      <trkpt lat="40.531467" lon="-5.043117">
        <ele>1793.0</ele>
        <time>2013-05-11T13:28:28Z</time>
      </trkpt>
      <trkpt lat="40.531483" lon="-5.043217">
        <ele>1794.0</ele>
        <time>2013-05-11T13:28:29Z</time>
      </trkpt>
      <trkpt lat="40.531467" lon="-5.043333">
        <ele>1794.0</ele>
        <time>2013-05-11T13:28:30Z</time>
      </trkpt>
      <trkpt lat="40.531400" lon="-5.043450">
        <ele>1795.0</ele>
        <time>2013-05-11T13:28:31Z</time>
      </trkpt>
      <trkpt lat="40.531300" lon="-5.043550">
        <ele>1795.0</ele>
        <time>2013-05-11T13:28:32Z</time>
      </trkpt>
      <trkpt lat="40.531167" lon="-5.043600">
        <ele>1797.0</ele>
        <time>2013-05-11T13:28:33Z</time>
      </trkpt>
      <trkpt lat="40.531050" lon="-5.043633">
        <ele>1800.0</ele>
        <time>2013-05-11T13:28:34Z</time>
      </trkpt>
      <trkpt lat="40.530950" lon="-5.043667">
        <ele>1803.0</ele>
        <time>2013-05-11T13:28:35Z</time>
      </trkpt>
      <trkpt lat="40.530850" lon="-5.043700">
        <ele>1806.0</ele>
        <time>2013-05-11T13:28:36Z</time>
      </trkpt>
      <trkpt lat="40.530733" lon="-5.043700">
        <ele>1808.0</ele>
        <time>2013-05-11T13:28:37Z</time>
      </trkpt>
      <trkpt lat="40.530633" lon="-5.043700">
        <ele>1808.0</ele>
        <time>2013-05-11T13:28:38Z</time>
      </trkpt>
      <trkpt lat="40.530517" lon="-5.043650">
        <ele>1809.0</ele>
        <time>2013-05-11T13:28:39Z</time>
      </trkpt>
      <trkpt lat="40.530400" lon="-5.043583">
        <ele>1810.0</ele>
        <time>2013-05-11T13:28:40Z</time>
      </trkpt>
      <trkpt lat="40.530300" lon="-5.043500">
        <ele>1811.0</ele>
        <time>2013-05-11T13:28:41Z</time>
      </trkpt>
      <trkpt lat="40.530217" lon="-5.043383">
        <ele>1813.0</ele>
        <time>2013-05-11T13:28:42Z</time>
      </trkpt>
      <trkpt lat="40.530150" lon="-5.043283">
        <ele>1815.0</ele>
        <time>2013-05-11T13:28:43Z</time>
      </trkpt>
      <trkpt lat="40.530100" lon="-5.043183">
        <ele>1817.0</ele>
        <time>2013-05-11T13:28:44Z</time>
      </trkpt>
      <trkpt lat="40.530050" lon="-5.043083">
        <ele>1818.0</ele>
        <time>2013-05-11T13:28:45Z</time>
      </trkpt>
      <trkpt lat="40.530017" lon="-5.042950">
        <ele>1819.0</ele>
        <time>2013-05-11T13:28:46Z</time>
      </trkpt>
      <trkpt lat="40.530000" lon="-5.042800">
        <ele>1820.0</ele>
        <time>2013-05-11T13:28:47Z</time>
      </trkpt>
      <trkpt lat="40.530017" lon="-5.042667">
        <ele>1823.0</ele>
        <time>2013-05-11T13:28:48Z</time>
      </trkpt>
      <trkpt lat="40.530033" lon="-5.042567">
        <ele>1827.0</ele>
        <time>2013-05-11T13:28:49Z</time>
      </trkpt>
      <trkpt lat="40.530067" lon="-5.042517">
        <ele>1830.0</ele>
        <time>2013-05-11T13:28:50Z</time>
      </trkpt>
      <trkpt lat="40.530100" lon="-5.042467">
        <ele>1832.0</ele>
        <time>2013-05-11T13:28:51Z</time>
      </trkpt>
      <trkpt lat="40.530117" lon="-5.042417">
        <ele>1833.0</ele>
        <time>2013-05-11T13:28:52Z</time>
      </trkpt>
      <trkpt lat="40.530167" lon="-5.042367">
        <ele>1833.0</ele>
        <time>2013-05-11T13:28:53Z</time>
      </trkpt>
      <trkpt lat="40.530233" lon="-5.042333">
        <ele>1834.0</ele>
        <time>2013-05-11T13:28:54Z</time>
      </trkpt>
      <trkpt lat="40.530300" lon="-5.042333">
        <ele>1836.0</ele>
        <time>2013-05-11T13:28:55Z</time>
      </trkpt>
      <trkpt lat="40.530367" lon="-5.042367">
        <ele>1839.0</ele>
        <time>2013-05-11T13:28:56Z</time>
      </trkpt>
      <trkpt lat="40.530400" lon="-5.042417">
        <ele>1843.0</ele>
        <time>2013-05-11T13:28:57Z</time>
      </trkpt>
      <trkpt lat="40.530417" lon="-5.042467">
        <ele>1846.0</ele>
        <time>2013-05-11T13:28:58Z</time>
      </trkpt>
      <trkpt lat="40.530433" lon="-5.042533">
        <ele>1846.0</ele>
        <time>2013-05-11T13:28:59Z</time>
      </trkpt>
      <trkpt lat="40.530450" lon="-5.042617">
        <ele>1846.0</ele>
        <time>2013-05-11T13:29:00Z</time>
      </trkpt>
      <trkpt lat="40.530467" lon="-5.042700">
        <ele>1845.0</ele>
        <time>2013-05-11T13:29:01Z</time>
      </trkpt>
      <trkpt lat="40.530450" lon="-5.042817">
        <ele>1844.0</ele>
        <time>2013-05-11T13:29:02Z</time>
      </trkpt>
      <trkpt lat="40.530417" lon="-5.042933">
        <ele>1843.0</ele>
        <time>2013-05-11T13:29:03Z</time>
      </trkpt>
      <trkpt lat="40.530333" lon="-5.043050">
        <ele>1843.0</ele>
        <time>2013-05-11T13:29:04Z</time>
      </trkpt>
      <trkpt lat="40.530233" lon="-5.043150">
        <ele>1844.0</ele>
        <time>2013-05-11T13:29:05Z</time>
      </trkpt>
      <trkpt lat="40.530133" lon="-5.043217">
        <ele>1846.0</ele>
        <time>2013-05-11T13:29:06Z</time>
      </trkpt>
      <trkpt lat="40.530017" lon="-5.043267">
        <ele>1847.0</ele>
        <time>2013-05-11T13:29:07Z</time>
      </trkpt>
      <trkpt lat="40.529900" lon="-5.043283">
        <ele>1848.0</ele>
        <time>2013-05-11T13:29:08Z</time>
      </trkpt>
      <trkpt lat="40.529767" lon="-5.043283">
        <ele>1848.0</ele>
        <time>2013-05-11T13:29:09Z</time>
      </trkpt>
      <trkpt lat="40.529633" lon="-5.043250">
        <ele>1849.0</ele>
        <time>2013-05-11T13:29:10Z</time>
      </trkpt>
      <trkpt lat="40.529500" lon="-5.043200">
        <ele>1850.0</ele>
        <time>2013-05-11T13:29:11Z</time>
      </trkpt>
      <trkpt lat="40.529367" lon="-5.043133">
        <ele>1852.0</ele>
        <time>2013-05-11T13:29:12Z</time>
      </trkpt>
      <trkpt lat="40.529267" lon="-5.043033">
        <ele>1854.0</ele>
        <time>2013-05-11T13:29:13Z</time>
      </trkpt>
      <trkpt lat="40.529183" lon="-5.042933">
        <ele>1857.0</ele>
        <time>2013-05-11T13:29:14Z</time>
      </trkpt>
      <trkpt lat="40.529117" lon="-5.042833">
        <ele>1859.0</ele>
        <time>2013-05-11T13:29:15Z</time>
      </trkpt>
      <trkpt lat="40.529050" lon="-5.042700">
        <ele>1861.0</ele>
        <time>2013-05-11T13:29:16Z</time>
      </trkpt>
      <trkpt lat="40.528983" lon="-5.042567">
        <ele>1863.0</ele>
        <time>2013-05-11T13:29:17Z</time>
      </trkpt>
      <trkpt lat="40.528933" lon="-5.042433">
        <ele>1865.0</ele>
        <time>2013-05-11T13:29:18Z</time>
      </trkpt>
      <trkpt lat="40.528900" lon="-5.042300">
        <ele>1869.0</ele>
        <time>2013-05-11T13:29:19Z</time>
      </trkpt>
      <trkpt lat="40.528900" lon="-5.042183">
        <ele>1872.0</ele>
        <time>2013-05-11T13:29:20Z</time>
      </trkpt>
      <trkpt lat="40.528900" lon="-5.042100">
        <ele>1874.0</ele>
        <time>2013-05-11T13:29:21Z</time>
      </trkpt>
      <trkpt lat="40.528917" lon="-5.042017">
        <ele>1876.0</ele>
        <time>2013-05-11T13:29:22Z</time>
      </trkpt>
      <trkpt lat="40.528933" lon="-5.041900">
        <ele>1876.0</ele>
        <time>2013-05-11T13:29:23Z</time>
      </trkpt>
      <trkpt lat="40.528933" lon="-5.041767">
        <ele>1876.0</ele>
        <time>2013-05-11T13:29:24Z</time>
      </trkpt>
      <trkpt lat="40.528967" lon="-5.041633">
        <ele>1879.0</ele>
        <time>2013-05-11T13:29:25Z</time>
      </trkpt>
      <trkpt lat="40.529017" lon="-5.041567">
        <ele>1881.0</ele>
        <time>2013-05-11T13:29:26Z</time>
      </trkpt>
      <trkpt lat="40.529067" lon="-5.041533">
        <ele>1882.0</ele>
        <time>2013-05-11T13:29:27Z</time>
      </trkpt>
      <trkpt lat="40.529133" lon="-5.041550">
        <ele>1884.0</ele>
        <time>2013-05-11T13:29:28Z</time>
      </trkpt>
      <trkpt lat="40.529200" lon="-5.041567">
        <ele>1886.0</ele>
        <time>2013-05-11T13:29:29Z</time>
      </trkpt>
      <trkpt lat="40.529250" lon="-5.041583">
        <ele>1890.0</ele>
        <time>2013-05-11T13:29:30Z</time>
      </trkpt>
      <trkpt lat="40.529283" lon="-5.041600">
        <ele>1893.0</ele>
        <time>2013-05-11T13:29:31Z</time>
      </trkpt>
      <trkpt lat="40.529317" lon="-5.041650">
        <ele>1895.0</ele>
        <time>2013-05-11T13:29:32Z</time>
      </trkpt>
      <trkpt lat="40.529350" lon="-5.041733">
        <ele>1896.0</ele>
        <time>2013-05-11T13:29:33Z</time>
      </trkpt>
      <trkpt lat="40.529350" lon="-5.041817">
        <ele>1898.0</ele>
        <time>2013-05-11T13:29:34Z</time>
      </trkpt>
      <trkpt lat="40.529350" lon="-5.041900">
        <ele>1901.0</ele>
        <time>2013-05-11T13:29:35Z</time>
      </trkpt>
      <trkpt lat="40.529333" lon="-5.042000">
        <ele>1903.0</ele>
        <time>2013-05-11T13:29:36Z</time>
      </trkpt>
      <trkpt lat="40.529283" lon="-5.042100">
        <ele>1904.0</ele>
        <time>2013-05-11T13:29:37Z</time>
      </trkpt>
      <trkpt lat="40.529217" lon="-5.042200">
        <ele>1905.0</ele>
        <time>2013-05-11T13:29:38Z</time>
      </trkpt>
      <trkpt lat="40.529133" lon="-5.042300">
        <ele>1906.0</ele>
        <time>2013-05-11T13:29:39Z</time>
      </trkpt>
      <trkpt lat="40.529017" lon="-5.042367">
        <ele>1908.0</ele>
        <time>2013-05-11T13:29:40Z</time>
      </trkpt>
      <trkpt lat="40.528900" lon="-5.042417">
        <ele>1910.0</ele>
        <time>2013-05-11T13:29:41Z</time>
      </trkpt>
      <trkpt lat="40.528783" lon="-5.042433">
        <ele>1911.0</ele>
        <time>2013-05-11T13:29:42Z</time>
      </trkpt>
      <trkpt lat="40.528667" lon="-5.042417">
        <ele>1912.0</ele>
        <time>2013-05-11T13:29:43Z</time>
      </trkpt>
      <trkpt lat="40.528550" lon="-5.042400">
        <ele>1912.0</ele>
        <time>2013-05-11T13:29:44Z</time>
      </trkpt>
      <trkpt lat="40.528433" lon="-5.042367">
        <ele>1912.0</ele>
        <time>2013-05-11T13:29:45Z</time>
      </trkpt>
      <trkpt lat="40.528317" lon="-5.042300">
        <ele>1913.0</ele>
        <time>2013-05-11T13:29:46Z</time>
      </trkpt>
      <trkpt lat="40.528200" lon="-5.042200">
        <ele>1914.0</ele>
        <time>2013-05-11T13:29:47Z</time>
      </trkpt>
      <trkpt lat="40.528133" lon="-5.042083">
        <ele>1916.0</ele>
        <time>2013-05-11T13:29:48Z</time>
      </trkpt>
      <trkpt lat="40.528067" lon="-5.041950">
        <ele>1918.0</ele>
        <time>2013-05-11T13:29:49Z</time>
      </trkpt>
      <trkpt lat="40.528033" lon="-5.041833">
        <ele>1920.0</ele>
        <time>2013-05-11T13:29:50Z</time>
      </trkpt>
      <trkpt lat="40.528017" lon="-5.041717">
        <ele>1921.0</ele>
        <time>2013-05-11T13:29:51Z</time>
      </trkpt>
      <trkpt lat="40.528017" lon="-5.041617">
        <ele>1922.0</ele>
        <time>2013-05-11T13:29:52Z</time>
      </trkpt>
      <trkpt lat="40.528050" lon="-5.041533">
        <ele>1922.0</ele>
        <time>2013-05-11T13:29:53Z</time>
      </trkpt>
      <trkpt lat="40.528083" lon="-5.041433">
        <ele>1922.0</ele>
        <time>2013-05-11T13:29:54Z</time>
      </trkpt>
      <trkpt lat="40.528150" lon="-5.041350">
        <ele>1922.0</ele>
        <time>2013-05-11T13:29:55Z</time>
      </trkpt>
      <trkpt lat="40.528233" lon="-5.041317">
        <ele>1924.0</ele>
        <time>2013-05-11T13:29:56Z</time>
      </trkpt>
      <trkpt lat="40.528283" lon="-5.041300">
        <ele>1927.0</ele>
        <time>2013-05-11T13:29:57Z</time>
      </trkpt>
      <trkpt lat="40.528333" lon="-5.041300">
        <ele>1930.0</ele>
        <time>2013-05-11T13:29:58Z</time>
      </trkpt>
      <trkpt lat="40.528383" lon="-5.041317">
        <ele>1933.0</ele>
        <time>2013-05-11T13:29:59Z</time>
      </trkpt>
      <trkpt lat="40.528433" lon="-5.041350">
        <ele>1935.0</ele>
        <time>2013-05-11T13:30:00Z</time>
      </trkpt>
      <trkpt lat="40.528467" lon="-5.041383">
        <ele>1938.0</ele>
        <time>2013-05-11T13:30:01Z</time>
      </trkpt>
      <trkpt lat="40.528500" lon="-5.041450">
        <ele>1940.0</ele>
        <time>2013-05-11T13:30:02Z</time>
      </trkpt>
      <trkpt lat="40.528517" lon="-5.041517">
        <ele>1943.0</ele>
        <time>2013-05-11T13:30:03Z</time>
      </trkpt>
      <trkpt lat="40.528500" lon="-5.041617">
        <ele>1945.0</ele>
        <time>2013-05-11T13:30:04Z</time>
      </trkpt>
      <trkpt lat="40.528483" lon="-5.041700">
        <ele>1947.0</ele>
        <time>2013-05-11T13:30:05Z</time>
      </trkpt>
      <trkpt lat="40.528450" lon="-5.041800">
        <ele>1950.0</ele>
        <time>2013-05-11T13:30:06Z</time>
      </trkpt>
      <trkpt lat="40.528400" lon="-5.041883">
        <ele>1953.0</ele>
        <time>2013-05-11T13:30:07Z</time>
      </trkpt>
      <trkpt lat="40.528333" lon="-5.041950">
        <ele>1955.0</ele>
        <time>2013-05-11T13:30:08Z</time>
      </trkpt>
      <trkpt lat="40.528267" lon="-5.042017">
        <ele>1957.0</ele>
        <time>2013-05-11T13:30:09Z</time>
      </trkpt>
      <trkpt lat="40.528167" lon="-5.042067">
        <ele>1958.0</ele>
        <time>2013-05-11T13:30:10Z</time>
      </trkpt>
      <trkpt lat="40.528050" lon="-5.042100">
        <ele>1959.0</ele>
        <time>2013-05-11T13:30:11Z</time>
      </trkpt>
      <trkpt lat="40.527917" lon="-5.042133">
        <ele>1961.0</ele>
        <time>2013-05-11T13:30:12Z</time>
      </trkpt>
      <trkpt lat="40.527783" lon="-5.042133">
        <ele>1964.0</ele>
        <time>2013-05-11T13:30:13Z</time>
      </trkpt>
      <trkpt lat="40.527667" lon="-5.042133">
        <ele>1967.0</ele>
        <time>2013-05-11T13:30:14Z</time>
      </trkpt>
      <trkpt lat="40.527550" lon="-5.042117">
        <ele>1970.0</ele>
        <time>2013-05-11T13:30:15Z</time>
      </trkpt>
      <trkpt lat="40.527433" lon="-5.042083">
        <ele>1971.0</ele>
        <time>2013-05-11T13:30:16Z</time>
      </trkpt>
      <trkpt lat="40.527317" lon="-5.042017">
        <ele>1972.0</ele>
        <time>2013-05-11T13:30:17Z</time>
      </trkpt>
      <trkpt lat="40.527183" lon="-5.041950">
        <ele>1973.0</ele>
        <time>2013-05-11T13:30:18Z</time>
      </trkpt>
      <trkpt lat="40.527067" lon="-5.041850">
        <ele>1976.0</ele>
        <time>2013-05-11T13:30:19Z</time>
      </trkpt>
      <trkpt lat="40.526983" lon="-5.041767">
        <ele>1978.0</ele>
        <time>2013-05-11T13:30:20Z</time>
      </trkpt>
      <trkpt lat="40.526917" lon="-5.041650">
        <ele>1979.0</ele>
        <time>2013-05-11T13:30:21Z</time>
      </trkpt>
      <trkpt lat="40.526867" lon="-5.041533">
        <ele>1980.0</ele>
        <time>2013-05-11T13:30:22Z</time>
      </trkpt>
      <trkpt lat="40.526833" lon="-5.041383">
        <ele>1980.0</ele>
        <time>2013-05-11T13:30:23Z</time>
      </trkpt>
      <trkpt lat="40.526817" lon="-5.041233">
        <ele>1980.0</ele>
        <time>2013-05-11T13:30:24Z</time>
      </trkpt>
      <trkpt lat="40.526817" lon="-5.041100">
        <ele>1981.0</ele>
        <time>2013-05-11T13:30:25Z</time>
      </trkpt>
      <trkpt lat="40.526817" lon="-5.040983">
        <ele>1984.0</ele>
        <time>2013-05-11T13:30:26Z</time>
      </trkpt>
      <trkpt lat="40.526833" lon="-5.040867">
        <ele>1987.0</ele>
        <time>2013-05-11T13:30:27Z</time>
      </trkpt>
      <trkpt lat="40.526867" lon="-5.040767">
        <ele>1989.0</ele>
        <time>2013-05-11T13:30:28Z</time>
      </trkpt>
      <trkpt lat="40.526900" lon="-5.040700">
        <ele>1991.0</ele>
        <time>2013-05-11T13:30:29Z</time>
      </trkpt>
      <trkpt lat="40.526950" lon="-5.040650">
        <ele>1992.0</ele>
        <time>2013-05-11T13:30:30Z</time>
      </trkpt>
      <trkpt lat="40.527000" lon="-5.040600">
        <ele>1992.0</ele>
        <time>2013-05-11T13:30:31Z</time>
      </trkpt>
      <trkpt lat="40.527067" lon="-5.040567">
        <ele>1993.0</ele>
        <time>2013-05-11T13:30:32Z</time>
      </trkpt>
      <trkpt lat="40.527150" lon="-5.040567">
        <ele>1996.0</ele>
        <time>2013-05-11T13:30:33Z</time>
      </trkpt>
      <trkpt lat="40.527233" lon="-5.040583">
        <ele>1999.0</ele>
        <time>2013-05-11T13:30:34Z</time>
      </trkpt>
      <trkpt lat="40.527283" lon="-5.040617">
        <ele>2004.0</ele>
        <time>2013-05-11T13:30:35Z</time>
      </trkpt>
      <trkpt lat="40.527333" lon="-5.040650">
        <ele>2009.0</ele>
        <time>2013-05-11T13:30:36Z</time>
      </trkpt>
      <trkpt lat="40.527383" lon="-5.040667">
        <ele>2013.0</ele>
        <time>2013-05-11T13:30:37Z</time>
      </trkpt>
      <trkpt lat="40.527417" lon="-5.040683">
        <ele>2015.0</ele>
        <time>2013-05-11T13:30:38Z</time>
      </trkpt>
      <trkpt lat="40.527450" lon="-5.040733">
        <ele>2017.0</ele>
        <time>2013-05-11T13:30:39Z</time>
      </trkpt>
      <trkpt lat="40.527467" lon="-5.040817">
        <ele>2018.0</ele>
        <time>2013-05-11T13:30:40Z</time>
      </trkpt>
      <trkpt lat="40.527467" lon="-5.040933">
        <ele>2020.0</ele>
        <time>2013-05-11T13:30:41Z</time>
      </trkpt>
      <trkpt lat="40.527450" lon="-5.041033">
        <ele>2024.0</ele>
        <time>2013-05-11T13:30:42Z</time>
      </trkpt>
      <trkpt lat="40.527400" lon="-5.041117">
        <ele>2028.0</ele>
        <time>2013-05-11T13:30:43Z</time>
      </trkpt>
      <trkpt lat="40.527367" lon="-5.041183">
        <ele>2031.0</ele>
        <time>2013-05-11T13:30:44Z</time>
      </trkpt>
      <trkpt lat="40.527317" lon="-5.041250">
        <ele>2033.0</ele>
        <time>2013-05-11T13:30:45Z</time>
      </trkpt>
      <trkpt lat="40.527250" lon="-5.041333">
        <ele>2034.0</ele>
        <time>2013-05-11T13:30:46Z</time>
      </trkpt>
      <trkpt lat="40.527183" lon="-5.041433">
        <ele>2035.0</ele>
        <time>2013-05-11T13:30:47Z</time>
      </trkpt>
      <trkpt lat="40.527083" lon="-5.041500">
        <ele>2037.0</ele>
        <time>2013-05-11T13:30:48Z</time>
      </trkpt>
      <trkpt lat="40.526967" lon="-5.041550">
        <ele>2040.0</ele>
        <time>2013-05-11T13:30:49Z</time>
      </trkpt>
      <trkpt lat="40.526850" lon="-5.041583">
        <ele>2043.0</ele>
        <time>2013-05-11T13:30:50Z</time>
      </trkpt>
      <trkpt lat="40.526733" lon="-5.041567">
        <ele>2047.0</ele>
        <time>2013-05-11T13:30:51Z</time>
      </trkpt>
      <trkpt lat="40.526617" lon="-5.041550">
        <ele>2051.0</ele>
        <time>2013-05-11T13:30:52Z</time>
      </trkpt>
      <trkpt lat="40.526517" lon="-5.041517">
        <ele>2054.0</ele>
        <time>2013-05-11T13:30:53Z</time>
      </trkpt>
      <trkpt lat="40.526417" lon="-5.041467">
        <ele>2057.0</ele>
        <time>2013-05-11T13:30:54Z</time>
      </trkpt>
      <trkpt lat="40.526317" lon="-5.041383">
        <ele>2059.0</ele>
        <time>2013-05-11T13:30:55Z</time>
      </trkpt>
      <trkpt lat="40.526250" lon="-5.041283">
        <ele>2061.0</ele>
        <time>2013-05-11T13:30:56Z</time>
      </trkpt>
      <trkpt lat="40.526183" lon="-5.041167">
        <ele>2064.0</ele>
        <time>2013-05-11T13:30:57Z</time>
      </trkpt>
      <trkpt lat="40.526133" lon="-5.041033">
        <ele>2066.0</ele>
        <time>2013-05-11T13:30:58Z</time>
      </trkpt>
      <trkpt lat="40.526083" lon="-5.040917">
        <ele>2069.0</ele>
        <time>2013-05-11T13:30:59Z</time>
      </trkpt>
      <trkpt lat="40.526050" lon="-5.040783">
        <ele>2072.0</ele>
        <time>2013-05-11T13:31:00Z</time>
      </trkpt>
      <trkpt lat="40.526033" lon="-5.040667">
        <ele>2073.0</ele>
        <time>2013-05-11T13:31:01Z</time>
      </trkpt>
      <trkpt lat="40.526050" lon="-5.040550">
        <ele>2074.0</ele>
        <time>2013-05-11T13:31:02Z</time>
      </trkpt>
      <trkpt lat="40.526067" lon="-5.040450">
        <ele>2075.0</ele>
        <time>2013-05-11T13:31:03Z</time>
      </trkpt>
      <trkpt lat="40.526100" lon="-5.040350">
        <ele>2076.0</ele>
        <time>2013-05-11T13:31:04Z</time>
      </trkpt>
      <trkpt lat="40.526150" lon="-5.040267">
        <ele>2078.0</ele>
        <time>2013-05-11T13:31:05Z</time>
      </trkpt>
      <trkpt lat="40.526200" lon="-5.040217">
        <ele>2080.0</ele>
        <time>2013-05-11T13:31:06Z</time>
      </trkpt>
      <trkpt lat="40.526250" lon="-5.040217">
        <ele>2081.0</ele>
        <time>2013-05-11T13:31:07Z</time>
      </trkpt>
      <trkpt lat="40.526300" lon="-5.040233">
        <ele>2083.0</ele>
        <time>2013-05-11T13:31:08Z</time>
      </trkpt>
      <trkpt lat="40.526367" lon="-5.040250">
        <ele>2086.0</ele>
        <time>2013-05-11T13:31:09Z</time>
      </trkpt>
      <trkpt lat="40.526417" lon="-5.040267">
        <ele>2089.0</ele>
        <time>2013-05-11T13:31:10Z</time>
      </trkpt>
      <trkpt lat="40.526483" lon="-5.040317">
        <ele>2094.0</ele>
        <time>2013-05-11T13:31:11Z</time>
      </trkpt>
      <trkpt lat="40.526517" lon="-5.040367">
        <ele>2100.0</ele>
        <time>2013-05-11T13:31:12Z</time>
      </trkpt>
      <trkpt lat="40.526517" lon="-5.040433">
        <ele>2104.0</ele>
        <time>2013-05-11T13:31:13Z</time>
      </trkpt>
      <trkpt lat="40.526533" lon="-5.040517">
        <ele>2107.0</ele>
        <time>2013-05-11T13:31:14Z</time>
      </trkpt>
      <trkpt lat="40.526533" lon="-5.040583">
        <ele>2109.0</ele>
        <time>2013-05-11T13:31:15Z</time>
      </trkpt>
      <trkpt lat="40.526533" lon="-5.040683">
        <ele>2111.0</ele>
        <time>2013-05-11T13:31:16Z</time>
      </trkpt>
      <trkpt lat="40.526517" lon="-5.040800">
        <ele>2112.0</ele>
        <time>2013-05-11T13:31:17Z</time>
      </trkpt>
      <trkpt lat="40.526450" lon="-5.040933">
        <ele>2114.0</ele>
        <time>2013-05-11T13:31:18Z</time>
      </trkpt>
      <trkpt lat="40.526383" lon="-5.041033">
        <ele>2117.0</ele>
        <time>2013-05-11T13:31:19Z</time>
      </trkpt>
      <trkpt lat="40.526300" lon="-5.041133">
        <ele>2121.0</ele>
        <time>2013-05-11T13:31:20Z</time>
      </trkpt>
      <trkpt lat="40.526200" lon="-5.041200">
        <ele>2125.0</ele>
        <time>2013-05-11T13:31:21Z</time>
      </trkpt>
      <trkpt lat="40.526100" lon="-5.041250">
        <ele>2127.0</ele>
        <time>2013-05-11T13:31:22Z</time>
      </trkpt>
      <trkpt lat="40.525983" lon="-5.041283">
        <ele>2129.0</ele>
        <time>2013-05-11T13:31:23Z</time>
      </trkpt>
      <trkpt lat="40.525833" lon="-5.041283">
        <ele>2130.0</ele>
        <time>2013-05-11T13:31:24Z</time>
      </trkpt>
      <trkpt lat="40.525700" lon="-5.041267">
        <ele>2133.0</ele>
        <time>2013-05-11T13:31:25Z</time>
      </trkpt>
      <trkpt lat="40.525567" lon="-5.041200">
        <ele>2137.0</ele>
        <time>2013-05-11T13:31:26Z</time>
      </trkpt>
      <trkpt lat="40.525467" lon="-5.041100">
        <ele>2141.0</ele>
        <time>2013-05-11T13:31:27Z</time>
      </trkpt>
      <trkpt lat="40.525400" lon="-5.041017">
        <ele>2145.0</ele>
        <time>2013-05-11T13:31:28Z</time>
      </trkpt>
      <trkpt lat="40.525333" lon="-5.040933">
        <ele>2147.0</ele>
        <time>2013-05-11T13:31:29Z</time>
      </trkpt>
      <trkpt lat="40.525267" lon="-5.040833">
        <ele>2150.0</ele>
        <time>2013-05-11T13:31:30Z</time>
      </trkpt>
      <trkpt lat="40.525217" lon="-5.040717">
        <ele>2151.0</ele>
        <time>2013-05-11T13:31:31Z</time>
      </trkpt>
      <trkpt lat="40.525183" lon="-5.040583">
        <ele>2153.0</ele>
        <time>2013-05-11T13:31:32Z</time>
      </trkpt>
      <trkpt lat="40.525167" lon="-5.040433">
        <ele>2155.0</ele>
        <time>2013-05-11T13:31:33Z</time>
      </trkpt>
      <trkpt lat="40.525183" lon="-5.040300">
        <ele>2157.0</ele>
        <time>2013-05-11T13:31:34Z</time>
      </trkpt>
      <trkpt lat="40.525217" lon="-5.040200">
        <ele>2159.0</ele>
        <time>2013-05-11T13:31:35Z</time>
      </trkpt>
      <trkpt lat="40.525267" lon="-5.040150">
        <ele>2160.0</ele>
        <time>2013-05-11T13:31:36Z</time>
      </trkpt>
      <trkpt lat="40.525317" lon="-5.040100">
        <ele>2161.0</ele>
        <time>2013-05-11T13:31:37Z</time>
      </trkpt>
      <trkpt lat="40.525400" lon="-5.040050">
        <ele>2163.0</ele>
        <time>2013-05-11T13:31:38Z</time>
      </trkpt>
      <trkpt lat="40.525483" lon="-5.040000">
        <ele>2168.0</ele>
        <time>2013-05-11T13:31:39Z</time>
      </trkpt>
      <trkpt lat="40.525550" lon="-5.039983">
        <ele>2175.0</ele>
        <time>2013-05-11T13:31:40Z</time>
      </trkpt>
      <trkpt lat="40.525600" lon="-5.040000">
        <ele>2180.0</ele>
        <time>2013-05-11T13:31:41Z</time>
      </trkpt>
      <trkpt lat="40.525633" lon="-5.040033">
        <ele>2185.0</ele>
        <time>2013-05-11T13:31:42Z</time>
      </trkpt>
      <trkpt lat="40.525667" lon="-5.040083">
        <ele>2189.0</ele>
        <time>2013-05-11T13:31:43Z</time>
      </trkpt>
      <trkpt lat="40.525700" lon="-5.040150">
        <ele>2192.0</ele>
        <time>2013-05-11T13:31:44Z</time>
      </trkpt>
      <trkpt lat="40.525733" lon="-5.040217">
        <ele>2195.0</ele>
        <time>2013-05-11T13:31:45Z</time>
      </trkpt>
      <trkpt lat="40.525750" lon="-5.040300">
        <ele>2198.0</ele>
        <time>2013-05-11T13:31:46Z</time>
      </trkpt>
      <trkpt lat="40.525750" lon="-5.040417">
        <ele>2201.0</ele>
        <time>2013-05-11T13:31:47Z</time>
      </trkpt>
      <trkpt lat="40.525700" lon="-5.040550">
        <ele>2204.0</ele>
        <time>2013-05-11T13:31:48Z</time>
      </trkpt>
      <trkpt lat="40.525650" lon="-5.040667">
        <ele>2209.0</ele>
        <time>2013-05-11T13:31:49Z</time>
      </trkpt>
      <trkpt lat="40.525600" lon="-5.040750">
        <ele>2215.0</ele>
        <time>2013-05-11T13:31:50Z</time>
      </trkpt>
      <trkpt lat="40.525533" lon="-5.040817">
        <ele>2219.0</ele>
        <time>2013-05-11T13:31:51Z</time>
      </trkpt>
      <trkpt lat="40.525467" lon="-5.040883">
        <ele>2222.0</ele>
        <time>2013-05-11T13:31:52Z</time>
      </trkpt>
      <trkpt lat="40.525367" lon="-5.040933">
        <ele>2223.0</ele>
        <time>2013-05-11T13:31:53Z</time>
      </trkpt>
      <trkpt lat="40.525250" lon="-5.040983">
        <ele>2225.0</ele>
        <time>2013-05-11T13:31:54Z</time>
      </trkpt>
      <trkpt lat="40.525117" lon="-5.041000">
        <ele>2228.0</ele>
        <time>2013-05-11T13:31:55Z</time>
      </trkpt>
      <trkpt lat="40.525000" lon="-5.040983">
        <ele>2230.0</ele>
        <time>2013-05-11T13:31:56Z</time>
      </trkpt>
      <trkpt lat="40.524900" lon="-5.040933">
        <ele>2233.0</ele>
        <time>2013-05-11T13:31:57Z</time>
      </trkpt>
      <trkpt lat="40.524817" lon="-5.040867">
        <ele>2235.0</ele>
        <time>2013-05-11T13:31:58Z</time>
      </trkpt>
      <trkpt lat="40.524717" lon="-5.040783">
        <ele>2237.0</ele>
        <time>2013-05-11T13:31:59Z</time>
      </trkpt>
      <trkpt lat="40.524650" lon="-5.040700">
        <ele>2240.0</ele>
        <time>2013-05-11T13:32:00Z</time>
      </trkpt>
      <trkpt lat="40.524583" lon="-5.040583">
        <ele>2243.0</ele>
        <time>2013-05-11T13:32:01Z</time>
      </trkpt>
      <trkpt lat="40.524550" lon="-5.040450">
        <ele>2246.0</ele>
        <time>2013-05-11T13:32:02Z</time>
      </trkpt>
      <trkpt lat="40.524533" lon="-5.040333">
        <ele>2250.0</ele>
        <time>2013-05-11T13:32:03Z</time>
      </trkpt>
      <trkpt lat="40.524517" lon="-5.040233">
        <ele>2254.0</ele>
        <time>2013-05-11T13:32:04Z</time>
      </trkpt>
      <trkpt lat="40.524517" lon="-5.040133">
        <ele>2257.0</ele>
        <time>2013-05-11T13:32:05Z</time>
      </trkpt>
      <trkpt lat="40.524533" lon="-5.040017">
        <ele>2259.0</ele>
        <time>2013-05-11T13:32:06Z</time>
      </trkpt>
      <trkpt lat="40.524550" lon="-5.039933">
        <ele>2260.0</ele>
        <time>2013-05-11T13:32:07Z</time>
      </trkpt>
      <trkpt lat="40.524600" lon="-5.039833">
        <ele>2263.0</ele>
        <time>2013-05-11T13:32:08Z</time>
      </trkpt>
      <trkpt lat="40.524650" lon="-5.039767">
        <ele>2267.0</ele>
        <time>2013-05-11T13:32:09Z</time>
      </trkpt>
      <trkpt lat="40.524700" lon="-5.039717">
        <ele>2272.0</ele>
        <time>2013-05-11T13:32:10Z</time>
      </trkpt>
      <trkpt lat="40.524750" lon="-5.039667">
        <ele>2276.0</ele>
        <time>2013-05-11T13:32:11Z</time>
      </trkpt>
      <trkpt lat="40.524783" lon="-5.039650">
        <ele>2281.0</ele>
        <time>2013-05-11T13:32:12Z</time>
      </trkpt>
      <trkpt lat="40.524833" lon="-5.039633">
        <ele>2284.0</ele>
        <time>2013-05-11T13:32:13Z</time>
      </trkpt>
      <trkpt lat="40.524867" lon="-5.039633">
        <ele>2287.0</ele>
        <time>2013-05-11T13:32:14Z</time>
      </trkpt>
      <trkpt lat="40.524917" lon="-5.039650">
        <ele>2289.0</ele>
        <time>2013-05-11T13:32:15Z</time>
      </trkpt>
      <trkpt lat="40.524967" lon="-5.039683">
        <ele>2293.0</ele>
        <time>2013-05-11T13:32:16Z</time>
      </trkpt>
      <trkpt lat="40.525017" lon="-5.039733">
        <ele>2296.0</ele>
        <time>2013-05-11T13:32:17Z</time>
      </trkpt>
      <trkpt lat="40.525050" lon="-5.039800">
        <ele>2300.0</ele>
        <time>2013-05-11T13:32:18Z</time>
      </trkpt>
      <trkpt lat="40.525067" lon="-5.039867">
        <ele>2303.0</ele>
        <time>2013-05-11T13:32:19Z</time>
      </trkpt>
      <trkpt lat="40.525067" lon="-5.039967">
        <ele>2305.0</ele>
        <time>2013-05-11T13:32:20Z</time>
      </trkpt>
      <trkpt lat="40.525050" lon="-5.040050">
        <ele>2307.0</ele>
        <time>2013-05-11T13:32:21Z</time>
      </trkpt>
      <trkpt lat="40.525033" lon="-5.040150">
        <ele>2309.0</ele>
        <time>2013-05-11T13:32:22Z</time>
      </trkpt>
      <trkpt lat="40.525017" lon="-5.040250">
        <ele>2311.0</ele>
        <time>2013-05-11T13:32:23Z</time>
      </trkpt>
      <trkpt lat="40.524983" lon="-5.040367">
        <ele>2313.0</ele>
        <time>2013-05-11T13:32:24Z</time>
      </trkpt>
      <trkpt lat="40.524933" lon="-5.040467">
        <ele>2316.0</ele>
        <time>2013-05-11T13:32:25Z</time>
      </trkpt>
      <trkpt lat="40.524850" lon="-5.040550">
        <ele>2320.0</ele>
        <time>2013-05-11T13:32:26Z</time>
      </trkpt>
      <trkpt lat="40.524783" lon="-5.040633">
        <ele>2323.0</ele>
        <time>2013-05-11T13:32:27Z</time>
      </trkpt>
      <trkpt lat="40.524683" lon="-5.040683">
        <ele>2327.0</ele>
        <time>2013-05-11T13:32:28Z</time>
      </trkpt>
      <trkpt lat="40.524567" lon="-5.040717">
        <ele>2331.0</ele>
        <time>2013-05-11T13:32:29Z</time>
      </trkpt>
      <trkpt lat="40.524467" lon="-5.040717">
        <ele>2334.0</ele>
        <time>2013-05-11T13:32:30Z</time>
      </trkpt>
      <trkpt lat="40.524367" lon="-5.040683">
        <ele>2338.0</ele>
        <time>2013-05-11T13:32:31Z</time>
      </trkpt>
      <trkpt lat="40.524283" lon="-5.040617">
        <ele>2341.0</ele>
        <time>2013-05-11T13:32:32Z</time>
      </trkpt>
      <trkpt lat="40.524200" lon="-5.040550">
        <ele>2344.0</ele>
        <time>2013-05-11T13:32:33Z</time>
      </trkpt>
      <trkpt lat="40.524133" lon="-5.040467">
        <ele>2346.0</ele>
        <time>2013-05-11T13:32:34Z</time>
      </trkpt>
      <trkpt lat="40.524067" lon="-5.040367">
        <ele>2347.0</ele>
        <time>2013-05-11T13:32:35Z</time>
      </trkpt>
      <trkpt lat="40.524017" lon="-5.040233">
        <ele>2349.0</ele>
        <time>2013-05-11T13:32:36Z</time>
      </trkpt>
      <trkpt lat="40.524000" lon="-5.040100">
        <ele>2352.0</ele>
        <time>2013-05-11T13:32:37Z</time>
      </trkpt>
      <trkpt lat="40.524000" lon="-5.039967">
        <ele>2356.0</ele>
        <time>2013-05-11T13:32:38Z</time>
      </trkpt>
      <trkpt lat="40.524017" lon="-5.039867">
        <ele>2361.0</ele>
        <time>2013-05-11T13:32:39Z</time>
      </trkpt>
      <trkpt lat="40.524033" lon="-5.039783">
        <ele>2365.0</ele>
        <time>2013-05-11T13:32:40Z</time>
      </trkpt>
      <trkpt lat="40.524067" lon="-5.039700">
        <ele>2369.0</ele>
        <time>2013-05-11T13:32:41Z</time>
      </trkpt>
      <trkpt lat="40.524100" lon="-5.039633">
        <ele>2372.0</ele>
        <time>2013-05-11T13:32:42Z</time>
      </trkpt>
      <trkpt lat="40.524150" lon="-5.039567">
        <ele>2374.0</ele>
        <time>2013-05-11T13:32:43Z</time>
      </trkpt>
      <trkpt lat="40.524217" lon="-5.039500">
        <ele>2377.0</ele>
        <time>2013-05-11T13:32:44Z</time>
      </trkpt>
      <trkpt lat="40.524283" lon="-5.039467">
        <ele>2382.0</ele>
        <time>2013-05-11T13:32:45Z</time>
      </trkpt>
      <trkpt lat="40.524350" lon="-5.039467">
        <ele>2386.0</ele>
        <time>2013-05-11T13:32:46Z</time>
      </trkpt>
      <trkpt lat="40.524383" lon="-5.039483">
        <ele>2389.0</ele>
        <time>2013-05-11T13:32:47Z</time>
      </trkpt>
      <trkpt lat="40.524433" lon="-5.039517">
        <ele>2391.0</ele>
        <time>2013-05-11T13:32:48Z</time>
      </trkpt>
      <trkpt lat="40.524483" lon="-5.039583">
        <ele>2392.0</ele>
        <time>2013-05-11T13:32:49Z</time>
      </trkpt>
      <trkpt lat="40.524517" lon="-5.039650">
        <ele>2394.0</ele>
        <time>2013-05-11T13:32:50Z</time>
      </trkpt>
      <trkpt lat="40.524550" lon="-5.039750">
        <ele>2396.0</ele>
        <time>2013-05-11T13:32:51Z</time>
      </trkpt>
      <trkpt lat="40.524550" lon="-5.039850">
        <ele>2398.0</ele>
        <time>2013-05-11T13:32:52Z</time>
      </trkpt>
      <trkpt lat="40.524533" lon="-5.039967">
        <ele>2399.0</ele>
        <time>2013-05-11T13:32:53Z</time>
      </trkpt>
      <trkpt lat="40.524517" lon="-5.040067">
        <ele>2401.0</ele>
        <time>2013-05-11T13:32:54Z</time>
      </trkpt>
      <trkpt lat="40.524450" lon="-5.040167">
        <ele>2403.0</ele>
        <time>2013-05-11T13:32:55Z</time>
      </trkpt>
      <trkpt lat="40.524383" lon="-5.040250">
        <ele>2404.0</ele>
        <time>2013-05-11T13:32:56Z</time>
      </trkpt>
      <trkpt lat="40.524300" lon="-5.040333">
        <ele>2406.0</ele>
        <time>2013-05-11T13:32:57Z</time>
      </trkpt>
      <trkpt lat="40.524217" lon="-5.040400">
        <ele>2409.0</ele>
        <time>2013-05-11T13:32:58Z</time>
      </trkpt>
      <trkpt lat="40.524117" lon="-5.040450">
        <ele>2412.0</ele>
        <time>2013-05-11T13:32:59Z</time>
      </trkpt>
      <trkpt lat="40.524000" lon="-5.040467">
        <ele>2416.0</ele>
        <time>2013-05-11T13:33:00Z</time>
      </trkpt>
      <trkpt lat="40.523883" lon="-5.040467">
        <ele>2419.0</ele>
        <time>2013-05-11T13:33:01Z</time>
      </trkpt>
      <trkpt lat="40.523800" lon="-5.040417">
        <ele>2422.0</ele>
        <time>2013-05-11T13:33:02Z</time>
      </trkpt>
      <trkpt lat="40.523717" lon="-5.040350">
        <ele>2425.0</ele>
        <time>2013-05-11T13:33:03Z</time>
      </trkpt>
      <trkpt lat="40.523633" lon="-5.040250">
        <ele>2427.0</ele>
        <time>2013-05-11T13:33:04Z</time>
      </trkpt>
      <trkpt lat="40.523583" lon="-5.040150">
        <ele>2430.0</ele>
        <time>2013-05-11T13:33:05Z</time>
      </trkpt>
      <trkpt lat="40.523533" lon="-5.040033">
        <ele>2433.0</ele>
        <time>2013-05-11T13:33:06Z</time>
      </trkpt>
      <trkpt lat="40.523517" lon="-5.039900">
        <ele>2435.0</ele>
        <time>2013-05-11T13:33:07Z</time>
      </trkpt>
      <trkpt lat="40.523533" lon="-5.039783">
        <ele>2437.0</ele>
        <time>2013-05-11T13:33:08Z</time>
      </trkpt>
      <trkpt lat="40.523550" lon="-5.039650">
        <ele>2439.0</ele>
        <time>2013-05-11T13:33:09Z</time>
      </trkpt>
      <trkpt lat="40.523600" lon="-5.039533">
        <ele>2443.0</ele>
        <time>2013-05-11T13:33:10Z</time>
      </trkpt>
      <trkpt lat="40.523650" lon="-5.039433">
        <ele>2447.0</ele>
        <time>2013-05-11T13:33:11Z</time>
      </trkpt>
      <trkpt lat="40.523683" lon="-5.039350">
        <ele>2452.0</ele>
        <time>2013-05-11T13:33:12Z</time>
      </trkpt>
      <trkpt lat="40.523717" lon="-5.039300">
        <ele>2456.0</ele>
        <time>2013-05-11T13:33:13Z</time>
      </trkpt>
      <trkpt lat="40.523767" lon="-5.039250">
        <ele>2458.0</ele>
        <time>2013-05-11T13:33:14Z</time>
      </trkpt>
      <trkpt lat="40.523817" lon="-5.039217">
        <ele>2459.0</ele>
        <time>2013-05-11T13:33:15Z</time>
      </trkpt>
      <trkpt lat="40.523900" lon="-5.039200">
        <ele>2460.0</ele>
        <time>2013-05-11T13:33:16Z</time>
      </trkpt>
      <trkpt lat="40.523967" lon="-5.039200">
        <ele>2462.0</ele>
        <time>2013-05-11T13:33:17Z</time>
      </trkpt>
      <trkpt lat="40.524033" lon="-5.039233">
        <ele>2464.0</ele>
        <time>2013-05-11T13:33:18Z</time>
      </trkpt>
      <trkpt lat="40.524083" lon="-5.039300">
        <ele>2467.0</ele>
        <time>2013-05-11T13:33:19Z</time>
      </trkpt>
      <trkpt lat="40.524117" lon="-5.039367">
        <ele>2469.0</ele>
        <time>2013-05-11T13:33:20Z</time>
      </trkpt>
      <trkpt lat="40.524133" lon="-5.039467">
        <ele>2470.0</ele>
        <time>2013-05-11T13:33:21Z</time>
      </trkpt>
      <trkpt lat="40.524150" lon="-5.039550">
        <ele>2471.0</ele>
        <time>2013-05-11T13:33:22Z</time>
      </trkpt>
      <trkpt lat="40.524150" lon="-5.039650">
        <ele>2471.0</ele>
        <time>2013-05-11T13:33:23Z</time>
      </trkpt>
      <trkpt lat="40.524133" lon="-5.039767">
        <ele>2471.0</ele>
        <time>2013-05-11T13:33:24Z</time>
      </trkpt>
      <trkpt lat="40.524100" lon="-5.039883">
        <ele>2471.0</ele>
        <time>2013-05-11T13:33:25Z</time>
      </trkpt>
      <trkpt lat="40.524033" lon="-5.040000">
        <ele>2472.0</ele>
        <time>2013-05-11T13:33:26Z</time>
      </trkpt>
      <trkpt lat="40.523933" lon="-5.040100">
        <ele>2474.0</ele>
        <time>2013-05-11T13:33:27Z</time>
      </trkpt>
      <trkpt lat="40.523850" lon="-5.040167">
        <ele>2476.0</ele>
        <time>2013-05-11T13:33:28Z</time>
      </trkpt>
      <trkpt lat="40.523750" lon="-5.040200">
        <ele>2479.0</ele>
        <time>2013-05-11T13:33:29Z</time>
      </trkpt>
      <trkpt lat="40.523667" lon="-5.040217">
        <ele>2481.0</ele>
        <time>2013-05-11T13:33:30Z</time>
      </trkpt>
      <trkpt lat="40.523567" lon="-5.040233">
        <ele>2483.0</ele>
        <time>2013-05-11T13:33:31Z</time>
      </trkpt>
      <trkpt lat="40.523450" lon="-5.040217">
        <ele>2484.0</ele>
        <time>2013-05-11T13:33:32Z</time>
      </trkpt>
      <trkpt lat="40.523350" lon="-5.040167">
        <ele>2486.0</ele>
        <time>2013-05-11T13:33:33Z</time>
      </trkpt>
      <trkpt lat="40.523233" lon="-5.040100">
        <ele>2488.0</ele>
        <time>2013-05-11T13:33:34Z</time>
      </trkpt>
      <trkpt lat="40.523150" lon="-5.040017">
        <ele>2490.0</ele>
        <time>2013-05-11T13:33:35Z</time>
      </trkpt>
      <trkpt lat="40.523067" lon="-5.039933">
        <ele>2494.0</ele>
        <time>2013-05-11T13:33:36Z</time>
      </trkpt>
      <trkpt lat="40.523000" lon="-5.039833">
        <ele>2496.0</ele>
        <time>2013-05-11T13:33:37Z</time>
      </trkpt>
      <trkpt lat="40.522933" lon="-5.039717">
        <ele>2499.0</ele>
        <time>2013-05-11T13:33:38Z</time>
      </trkpt>
      <trkpt lat="40.522900" lon="-5.039583">
        <ele>2500.0</ele>
        <time>2013-05-11T13:33:39Z</time>
      </trkpt>
      <trkpt lat="40.522867" lon="-5.039433">
        <ele>2502.0</ele>
        <time>2013-05-11T13:33:40Z</time>
      </trkpt>
      <trkpt lat="40.522850" lon="-5.039283">
        <ele>2505.0</ele>
        <time>2013-05-11T13:33:41Z</time>
      </trkpt>
      <trkpt lat="40.522850" lon="-5.039150">
        <ele>2509.0</ele>
        <time>2013-05-11T13:33:42Z</time>
      </trkpt>
      <trkpt lat="40.522867" lon="-5.039033">
        <ele>2512.0</ele>
        <time>2013-05-11T13:33:43Z</time>
      </trkpt>
      <trkpt lat="40.522867" lon="-5.038917">
        <ele>2515.0</ele>
        <time>2013-05-11T13:33:44Z</time>
      </trkpt>
      <trkpt lat="40.522883" lon="-5.038800">
        <ele>2518.0</ele>
        <time>2013-05-11T13:33:45Z</time>
      </trkpt>
      <trkpt lat="40.522917" lon="-5.038700">
        <ele>2521.0</ele>
        <time>2013-05-11T13:33:46Z</time>
      </trkpt>
      <trkpt lat="40.522950" lon="-5.038583">
        <ele>2522.0</ele>
        <time>2013-05-11T13:33:47Z</time>
      </trkpt>
      <trkpt lat="40.522983" lon="-5.038467">
        <ele>2523.0</ele>
        <time>2013-05-11T13:33:48Z</time>
      </trkpt>
      <trkpt lat="40.523033" lon="-5.038383">
        <ele>2525.0</ele>
        <time>2013-05-11T13:33:49Z</time>
      </trkpt>
      <trkpt lat="40.523100" lon="-5.038333">
        <ele>2527.0</ele>
        <time>2013-05-11T13:33:50Z</time>
      </trkpt>
      <trkpt lat="40.523150" lon="-5.038300">
        <ele>2529.0</ele>
        <time>2013-05-11T13:33:51Z</time>
      </trkpt>
      <trkpt lat="40.523200" lon="-5.038283">
        <ele>2530.0</ele>
        <time>2013-05-11T13:33:52Z</time>
      </trkpt>
      <trkpt lat="40.523233" lon="-5.038283">
        <ele>2531.0</ele>
        <time>2013-05-11T13:33:53Z</time>
      </trkpt>
      <trkpt lat="40.523300" lon="-5.038283">
        <ele>2531.0</ele>
        <time>2013-05-11T13:33:54Z</time>
      </trkpt>
      <trkpt lat="40.523350" lon="-5.038317">
        <ele>2530.0</ele>
        <time>2013-05-11T13:33:55Z</time>
      </trkpt>
      <trkpt lat="40.523400" lon="-5.038383">
        <ele>2530.0</ele>
        <time>2013-05-11T13:33:56Z</time>
      </trkpt>
      <trkpt lat="40.523417" lon="-5.038467">
        <ele>2530.0</ele>
        <time>2013-05-11T13:33:57Z</time>
      </trkpt>
      <trkpt lat="40.523417" lon="-5.038550">
        <ele>2530.0</ele>
        <time>2013-05-11T13:33:58Z</time>
      </trkpt>
      <trkpt lat="40.523400" lon="-5.038650">
        <ele>2531.0</ele>
        <time>2013-05-11T13:33:59Z</time>
      </trkpt>
      <trkpt lat="40.523367" lon="-5.038750">
        <ele>2531.0</ele>
        <time>2013-05-11T13:34:00Z</time>
      </trkpt>
      <trkpt lat="40.523333" lon="-5.038850">
        <ele>2531.0</ele>
        <time>2013-05-11T13:34:01Z</time>
      </trkpt>
      <trkpt lat="40.523283" lon="-5.038950">
        <ele>2531.0</ele>
        <time>2013-05-11T13:34:02Z</time>
      </trkpt>
      <trkpt lat="40.523217" lon="-5.039050">
        <ele>2531.0</ele>
        <time>2013-05-11T13:34:03Z</time>
      </trkpt>
      <trkpt lat="40.523117" lon="-5.039133">
        <ele>2532.0</ele>
        <time>2013-05-11T13:34:04Z</time>
      </trkpt>
      <trkpt lat="40.523017" lon="-5.039183">
        <ele>2533.0</ele>
        <time>2013-05-11T13:34:05Z</time>
      </trkpt>
      <trkpt lat="40.522917" lon="-5.039200">
        <ele>2535.0</ele>
        <time>2013-05-11T13:34:06Z</time>
      </trkpt>
      <trkpt lat="40.522800" lon="-5.039183">
        <ele>2536.0</ele>
        <time>2013-05-11T13:34:07Z</time>
      </trkpt>
      <trkpt lat="40.522683" lon="-5.039150">
        <ele>2537.0</ele>
        <time>2013-05-11T13:34:08Z</time>
      </trkpt>
      <trkpt lat="40.522583" lon="-5.039083">
        <ele>2538.0</ele>
        <time>2013-05-11T13:34:09Z</time>
      </trkpt>
      <trkpt lat="40.522467" lon="-5.039017">
        <ele>2539.0</ele>
        <time>2013-05-11T13:34:10Z</time>
      </trkpt>
      <trkpt lat="40.522367" lon="-5.038917">
        <ele>2541.0</ele>
        <time>2013-05-11T13:34:11Z</time>
      </trkpt>
      <trkpt lat="40.522283" lon="-5.038783">
        <ele>2543.0</ele>
        <time>2013-05-11T13:34:12Z</time>
      </trkpt>
      <trkpt lat="40.522200" lon="-5.038667">
        <ele>2545.0</ele>
        <time>2013-05-11T13:34:13Z</time>
      </trkpt>
      <trkpt lat="40.522133" lon="-5.038533">
        <ele>2547.0</ele>
        <time>2013-05-11T13:34:14Z</time>
      </trkpt>
      <trkpt lat="40.522050" lon="-5.038433">
        <ele>2550.0</ele>
        <time>2013-05-11T13:34:15Z</time>
      </trkpt>
      <trkpt lat="40.521967" lon="-5.038317">
        <ele>2552.0</ele>
        <time>2013-05-11T13:34:16Z</time>
      </trkpt>
      <trkpt lat="40.521900" lon="-5.038200">
        <ele>2554.0</ele>
        <time>2013-05-11T13:34:17Z</time>
      </trkpt>
      <trkpt lat="40.521867" lon="-5.038050">
        <ele>2555.0</ele>
        <time>2013-05-11T13:34:18Z</time>
      </trkpt>
      <trkpt lat="40.521833" lon="-5.037900">
        <ele>2557.0</ele>
        <time>2013-05-11T13:34:19Z</time>
      </trkpt>
      <trkpt lat="40.521817" lon="-5.037750">
        <ele>2560.0</ele>
        <time>2013-05-11T13:34:20Z</time>
      </trkpt>
      <trkpt lat="40.521817" lon="-5.037633">
        <ele>2563.0</ele>
        <time>2013-05-11T13:34:21Z</time>
      </trkpt>
      <trkpt lat="40.521800" lon="-5.037517">
        <ele>2565.0</ele>
        <time>2013-05-11T13:34:22Z</time>
      </trkpt>
      <trkpt lat="40.521817" lon="-5.037417">
        <ele>2566.0</ele>
        <time>2013-05-11T13:34:23Z</time>
      </trkpt>
      <trkpt lat="40.521833" lon="-5.037317">
        <ele>2567.0</ele>
        <time>2013-05-11T13:34:24Z</time>
      </trkpt>
      <trkpt lat="40.521850" lon="-5.037217">
        <ele>2566.0</ele>
        <time>2013-05-11T13:34:25Z</time>
      </trkpt>
      <trkpt lat="40.521900" lon="-5.037150">
        <ele>2566.0</ele>
        <time>2013-05-11T13:34:26Z</time>
      </trkpt>
      <trkpt lat="40.521950" lon="-5.037100">
        <ele>2566.0</ele>
        <time>2013-05-11T13:34:27Z</time>
      </trkpt>
      <trkpt lat="40.522000" lon="-5.037067">
        <ele>2566.0</ele>
        <time>2013-05-11T13:34:28Z</time>
      </trkpt>
      <trkpt lat="40.522050" lon="-5.037050">
        <ele>2565.0</ele>
        <time>2013-05-11T13:34:29Z</time>
      </trkpt>
      <trkpt lat="40.522117" lon="-5.037000">
        <ele>2564.0</ele>
        <time>2013-05-11T13:34:30Z</time>
      </trkpt>
      <trkpt lat="40.522167" lon="-5.036950">
        <ele>2562.0</ele>
        <time>2013-05-11T13:34:31Z</time>
      </trkpt>
      <trkpt lat="40.522233" lon="-5.036867">
        <ele>2560.0</ele>
        <time>2013-05-11T13:34:32Z</time>
      </trkpt>
      <trkpt lat="40.522283" lon="-5.036767">
        <ele>2560.0</ele>
        <time>2013-05-11T13:34:33Z</time>
      </trkpt>
      <trkpt lat="40.522333" lon="-5.036683">
        <ele>2560.0</ele>
        <time>2013-05-11T13:34:34Z</time>
      </trkpt>
      <trkpt lat="40.522367" lon="-5.036583">
        <ele>2559.0</ele>
        <time>2013-05-11T13:34:35Z</time>
      </trkpt>
      <trkpt lat="40.522383" lon="-5.036483">
        <ele>2558.0</ele>
        <time>2013-05-11T13:34:36Z</time>
      </trkpt>
      <trkpt lat="40.522400" lon="-5.036367">
        <ele>2556.0</ele>
        <time>2013-05-11T13:34:37Z</time>
      </trkpt>
      <trkpt lat="40.522433" lon="-5.036233">
        <ele>2554.0</ele>
        <time>2013-05-11T13:34:38Z</time>
      </trkpt>
      <trkpt lat="40.522450" lon="-5.036117">
        <ele>2553.0</ele>
        <time>2013-05-11T13:34:39Z</time>
      </trkpt>
      <trkpt lat="40.522467" lon="-5.036000">
        <ele>2553.0</ele>
        <time>2013-05-11T13:34:40Z</time>
      </trkpt>
      <trkpt lat="40.522483" lon="-5.035867">
        <ele>2553.0</ele>
        <time>2013-05-11T13:34:41Z</time>
      </trkpt>
      <trkpt lat="40.522483" lon="-5.035733">
        <ele>2553.0</ele>
        <time>2013-05-11T13:34:42Z</time>
      </trkpt>
      <trkpt lat="40.522467" lon="-5.035600">
        <ele>2553.0</ele>
        <time>2013-05-11T13:34:43Z</time>
      </trkpt>
      <trkpt lat="40.522467" lon="-5.035467">
        <ele>2552.0</ele>
        <time>2013-05-11T13:34:44Z</time>
      </trkpt>
      <trkpt lat="40.522450" lon="-5.035333">
        <ele>2552.0</ele>
        <time>2013-05-11T13:34:45Z</time>
      </trkpt>
      <trkpt lat="40.522450" lon="-5.035200">
        <ele>2552.0</ele>
        <time>2013-05-11T13:34:46Z</time>
      </trkpt>
      <trkpt lat="40.522450" lon="-5.035067">
        <ele>2551.0</ele>
        <time>2013-05-11T13:34:47Z</time>
      </trkpt>
      <trkpt lat="40.522433" lon="-5.034917">
        <ele>2551.0</ele>
        <time>2013-05-11T13:34:48Z</time>
      </trkpt>
      <trkpt lat="40.522417" lon="-5.034783">
        <ele>2551.0</ele>
        <time>2013-05-11T13:34:49Z</time>
      </trkpt>
      <trkpt lat="40.522400" lon="-5.034650">
        <ele>2551.0</ele>
        <time>2013-05-11T13:34:50Z</time>
      </trkpt>
      <trkpt lat="40.522383" lon="-5.034517">
        <ele>2550.0</ele>
        <time>2013-05-11T13:34:51Z</time>
      </trkpt>
      <trkpt lat="40.522383" lon="-5.034367">
        <ele>2549.0</ele>
        <time>2013-05-11T13:34:52Z</time>
      </trkpt>
      <trkpt lat="40.522383" lon="-5.034233">
        <ele>2549.0</ele>
        <time>2013-05-11T13:34:53Z</time>
      </trkpt>
      <trkpt lat="40.522383" lon="-5.034100">
        <ele>2548.0</ele>
        <time>2013-05-11T13:34:54Z</time>
      </trkpt>
      <trkpt lat="40.522383" lon="-5.033967">
        <ele>2548.0</ele>
        <time>2013-05-11T13:34:55Z</time>
      </trkpt>
      <trkpt lat="40.522367" lon="-5.033850">
        <ele>2548.0</ele>
        <time>2013-05-11T13:34:56Z</time>
      </trkpt>
      <trkpt lat="40.522350" lon="-5.033733">
        <ele>2548.0</ele>
        <time>2013-05-11T13:34:57Z</time>
      </trkpt>
      <trkpt lat="40.522350" lon="-5.033617">
        <ele>2547.0</ele>
        <time>2013-05-11T13:34:58Z</time>
      </trkpt>
      <trkpt lat="40.522350" lon="-5.033483">
        <ele>2545.0</ele>
        <time>2013-05-11T13:34:59Z</time>
      </trkpt>
      <trkpt lat="40.522350" lon="-5.033350">
        <ele>2543.0</ele>
        <time>2013-05-11T13:35:00Z</time>
      </trkpt>
      <trkpt lat="40.522350" lon="-5.033200">
        <ele>2543.0</ele>
        <time>2013-05-11T13:35:01Z</time>
      </trkpt>
      <trkpt lat="40.522350" lon="-5.033067">
        <ele>2544.0</ele>
        <time>2013-05-11T13:35:02Z</time>
      </trkpt>
      <trkpt lat="40.522350" lon="-5.032933">
        <ele>2545.0</ele>
        <time>2013-05-11T13:35:03Z</time>
      </trkpt>
      <trkpt lat="40.522350" lon="-5.032817">
        <ele>2546.0</ele>
        <time>2013-05-11T13:35:04Z</time>
      </trkpt>
      <trkpt lat="40.522350" lon="-5.032700">
        <ele>2546.0</ele>
        <time>2013-05-11T13:35:05Z</time>
      </trkpt>
      <trkpt lat="40.522367" lon="-5.032583">
        <ele>2547.0</ele>
        <time>2013-05-11T13:35:06Z</time>
      </trkpt>
      <trkpt lat="40.522367" lon="-5.032483">
        <ele>2547.0</ele>
        <time>2013-05-11T13:35:07Z</time>
      </trkpt>
      <trkpt lat="40.522367" lon="-5.032383">
        <ele>2547.0</ele>
        <time>2013-05-11T13:35:08Z</time>
      </trkpt>
      <trkpt lat="40.522383" lon="-5.032267">
        <ele>2546.0</ele>
        <time>2013-05-11T13:35:09Z</time>
      </trkpt>
      <trkpt lat="40.522400" lon="-5.032167">
        <ele>2545.0</ele>
        <time>2013-05-11T13:35:10Z</time>
      </trkpt>
      <trkpt lat="40.522417" lon="-5.032050">
        <ele>2544.0</ele>
        <time>2013-05-11T13:35:11Z</time>
      </trkpt>
      <trkpt lat="40.522417" lon="-5.031933">
        <ele>2542.0</ele>
        <time>2013-05-11T13:35:12Z</time>
      </trkpt>
      <trkpt lat="40.522433" lon="-5.031817">
        <ele>2542.0</ele>
        <time>2013-05-11T13:35:13Z</time>
      </trkpt>
      <trkpt lat="40.522450" lon="-5.031700">
        <ele>2541.0</ele>
        <time>2013-05-11T13:35:14Z</time>
      </trkpt>
      <trkpt lat="40.522450" lon="-5.031583">
        <ele>2540.0</ele>
        <time>2013-05-11T13:35:15Z</time>
      </trkpt>
      <trkpt lat="40.522450" lon="-5.031467">
        <ele>2539.0</ele>
        <time>2013-05-11T13:35:16Z</time>
      </trkpt>
      <trkpt lat="40.522450" lon="-5.031350">
        <ele>2537.0</ele>
        <time>2013-05-11T13:35:17Z</time>
      </trkpt>
      <trkpt lat="40.522450" lon="-5.031200">
        <ele>2536.0</ele>
        <time>2013-05-11T13:35:18Z</time>
      </trkpt>
      <trkpt lat="40.522467" lon="-5.031083">
        <ele>2535.0</ele>
        <time>2013-05-11T13:35:19Z</time>
      </trkpt>
      <trkpt lat="40.522483" lon="-5.030967">
        <ele>2536.0</ele>
        <time>2013-05-11T13:35:20Z</time>
      </trkpt>
      <trkpt lat="40.522500" lon="-5.030867">
        <ele>2537.0</ele>
        <time>2013-05-11T13:35:21Z</time>
      </trkpt>
      <trkpt lat="40.522500" lon="-5.030767">
        <ele>2536.0</ele>
        <time>2013-05-11T13:35:22Z</time>
      </trkpt>
      <trkpt lat="40.522500" lon="-5.030667">
        <ele>2535.0</ele>
        <time>2013-05-11T13:35:23Z</time>
      </trkpt>
      <trkpt lat="40.522517" lon="-5.030550">
        <ele>2532.0</ele>
        <time>2013-05-11T13:35:24Z</time>
      </trkpt>
      <trkpt lat="40.522533" lon="-5.030417">
        <ele>2529.0</ele>
        <time>2013-05-11T13:35:25Z</time>
      </trkpt>
      <trkpt lat="40.522550" lon="-5.030300">
        <ele>2527.0</ele>
        <time>2013-05-11T13:35:26Z</time>
      </trkpt>
      <trkpt lat="40.522567" lon="-5.030200">
        <ele>2526.0</ele>
        <time>2013-05-11T13:35:27Z</time>
      </trkpt>
      <trkpt lat="40.522583" lon="-5.030083">
        <ele>2526.0</ele>
        <time>2013-05-11T13:35:28Z</time>
      </trkpt>
      <trkpt lat="40.522600" lon="-5.029983">
        <ele>2524.0</ele>
        <time>2013-05-11T13:35:29Z</time>
      </trkpt>
      <trkpt lat="40.522617" lon="-5.029867">
        <ele>2523.0</ele>
        <time>2013-05-11T13:35:30Z</time>
      </trkpt>
      <trkpt lat="40.522617" lon="-5.029750">
        <ele>2522.0</ele>
        <time>2013-05-11T13:35:31Z</time>
      </trkpt>
      <trkpt lat="40.522633" lon="-5.029633">
        <ele>2521.0</ele>
        <time>2013-05-11T13:35:32Z</time>
      </trkpt>
      <trkpt lat="40.522650" lon="-5.029517">
        <ele>2521.0</ele>
        <time>2013-05-11T13:35:33Z</time>
      </trkpt>
      <trkpt lat="40.522650" lon="-5.029417">
        <ele>2520.0</ele>
        <time>2013-05-11T13:35:34Z</time>
      </trkpt>
      <trkpt lat="40.522650" lon="-5.029317">
        <ele>2519.0</ele>
        <time>2013-05-11T13:35:35Z</time>
      </trkpt>
      <trkpt lat="40.522667" lon="-5.029200">
        <ele>2517.0</ele>
        <time>2013-05-11T13:35:36Z</time>
      </trkpt>
      <trkpt lat="40.522683" lon="-5.029083">
        <ele>2515.0</ele>
        <time>2013-05-11T13:35:37Z</time>
      </trkpt>
      <trkpt lat="40.522700" lon="-5.028967">
        <ele>2514.0</ele>
        <time>2013-05-11T13:35:38Z</time>
      </trkpt>
      <trkpt lat="40.522700" lon="-5.028867">
        <ele>2514.0</ele>
        <time>2013-05-11T13:35:39Z</time>
      </trkpt>
      <trkpt lat="40.522717" lon="-5.028767">
        <ele>2513.0</ele>
        <time>2013-05-11T13:35:40Z</time>
      </trkpt>
      <trkpt lat="40.522717" lon="-5.028667">
        <ele>2512.0</ele>
        <time>2013-05-11T13:35:41Z</time>
      </trkpt>
      <trkpt lat="40.522717" lon="-5.028550">
        <ele>2509.0</ele>
        <time>2013-05-11T13:35:42Z</time>
      </trkpt>
      <trkpt lat="40.522717" lon="-5.028433">
        <ele>2506.0</ele>
        <time>2013-05-11T13:35:43Z</time>
      </trkpt>
      <trkpt lat="40.522733" lon="-5.028317">
        <ele>2504.0</ele>
        <time>2013-05-11T13:35:44Z</time>
      </trkpt>
      <trkpt lat="40.522733" lon="-5.028200">
        <ele>2501.0</ele>
        <time>2013-05-11T13:35:45Z</time>
      </trkpt>
      <trkpt lat="40.522733" lon="-5.028083">
        <ele>2500.0</ele>
        <time>2013-05-11T13:35:46Z</time>
      </trkpt>
      <trkpt lat="40.522733" lon="-5.027967">
        <ele>2498.0</ele>
        <time>2013-05-11T13:35:47Z</time>
      </trkpt>
      <trkpt lat="40.522733" lon="-5.027850">
        <ele>2497.0</ele>
        <time>2013-05-11T13:35:48Z</time>
      </trkpt>
      <trkpt lat="40.522750" lon="-5.027733">
        <ele>2496.0</ele>
        <time>2013-05-11T13:35:49Z</time>
      </trkpt>
      <trkpt lat="40.522750" lon="-5.027633">
        <ele>2495.0</ele>
        <time>2013-05-11T13:35:50Z</time>
      </trkpt>
      <trkpt lat="40.522767" lon="-5.027517">
        <ele>2494.0</ele>
        <time>2013-05-11T13:35:51Z</time>
      </trkpt>
      <trkpt lat="40.522767" lon="-5.027400">
        <ele>2494.0</ele>
        <time>2013-05-11T13:35:52Z</time>
      </trkpt>
      <trkpt lat="40.522750" lon="-5.027300">
        <ele>2494.0</ele>
        <time>2013-05-11T13:35:53Z</time>
      </trkpt>
      <trkpt lat="40.522750" lon="-5.027200">
        <ele>2494.0</ele>
        <time>2013-05-11T13:35:54Z</time>
      </trkpt>
      <trkpt lat="40.522750" lon="-5.027100">
        <ele>2493.0</ele>
        <time>2013-05-11T13:35:55Z</time>
      </trkpt>
      <trkpt lat="40.522750" lon="-5.027000">
        <ele>2492.0</ele>
        <time>2013-05-11T13:35:56Z</time>
      </trkpt>
      <trkpt lat="40.522733" lon="-5.026867">
        <ele>2490.0</ele>
        <time>2013-05-11T13:35:57Z</time>
      </trkpt>
      <trkpt lat="40.522733" lon="-5.026750">
        <ele>2490.0</ele>
        <time>2013-05-11T13:35:58Z</time>
      </trkpt>
      <trkpt lat="40.522733" lon="-5.026633">
        <ele>2490.0</ele>
        <time>2013-05-11T13:35:59Z</time>
      </trkpt>
      <trkpt lat="40.522717" lon="-5.026517">
        <ele>2490.0</ele>
        <time>2013-05-11T13:36:00Z</time>
      </trkpt>
      <trkpt lat="40.522717" lon="-5.026400">
        <ele>2489.0</ele>
        <time>2013-05-11T13:36:01Z</time>
      </trkpt>
      <trkpt lat="40.522700" lon="-5.026283">
        <ele>2489.0</ele>
        <time>2013-05-11T13:36:02Z</time>
      </trkpt>
      <trkpt lat="40.522683" lon="-5.026167">
        <ele>2488.0</ele>
        <time>2013-05-11T13:36:03Z</time>
      </trkpt>
      <trkpt lat="40.522683" lon="-5.026050">
        <ele>2488.0</ele>
        <time>2013-05-11T13:36:04Z</time>
      </trkpt>
      <trkpt lat="40.522667" lon="-5.025933">
        <ele>2488.0</ele>
        <time>2013-05-11T13:36:05Z</time>
      </trkpt>
      <trkpt lat="40.522667" lon="-5.025817">
        <ele>2487.0</ele>
        <time>2013-05-11T13:36:06Z</time>
      </trkpt>
      <trkpt lat="40.522667" lon="-5.025700">
        <ele>2487.0</ele>
        <time>2013-05-11T13:36:07Z</time>
      </trkpt>
      <trkpt lat="40.522667" lon="-5.025600">
        <ele>2486.0</ele>
        <time>2013-05-11T13:36:08Z</time>
      </trkpt>
      <trkpt lat="40.522667" lon="-5.025500">
        <ele>2484.0</ele>
        <time>2013-05-11T13:36:09Z</time>
      </trkpt>
      <trkpt lat="40.522667" lon="-5.025383">
        <ele>2482.0</ele>
        <time>2013-05-11T13:36:10Z</time>
      </trkpt>
      <trkpt lat="40.522683" lon="-5.025267">
        <ele>2480.0</ele>
        <time>2013-05-11T13:36:11Z</time>
      </trkpt>
      <trkpt lat="40.522700" lon="-5.025150">
        <ele>2478.0</ele>
        <time>2013-05-11T13:36:12Z</time>
      </trkpt>
      <trkpt lat="40.522717" lon="-5.025017">
        <ele>2476.0</ele>
        <time>2013-05-11T13:36:13Z</time>
      </trkpt>
      <trkpt lat="40.522717" lon="-5.024900">
        <ele>2474.0</ele>
        <time>2013-05-11T13:36:14Z</time>
      </trkpt>
      <trkpt lat="40.522733" lon="-5.024767">
        <ele>2473.0</ele>
        <time>2013-05-11T13:36:15Z</time>
      </trkpt>
      <trkpt lat="40.522733" lon="-5.024617">
        <ele>2472.0</ele>
        <time>2013-05-11T13:36:16Z</time>
      </trkpt>
      <trkpt lat="40.522733" lon="-5.024483">
        <ele>2471.0</ele>
        <time>2013-05-11T13:36:17Z</time>
      </trkpt>
      <trkpt lat="40.522767" lon="-5.024350">
        <ele>2470.0</ele>
        <time>2013-05-11T13:36:18Z</time>
      </trkpt>
      <trkpt lat="40.522783" lon="-5.024233">
        <ele>2470.0</ele>
        <time>2013-05-11T13:36:19Z</time>
      </trkpt>
      <trkpt lat="40.522800" lon="-5.024100">
        <ele>2470.0</ele>
        <time>2013-05-11T13:36:20Z</time>
      </trkpt>
      <trkpt lat="40.522800" lon="-5.023983">
        <ele>2471.0</ele>
        <time>2013-05-11T13:36:21Z</time>
      </trkpt>
      <trkpt lat="40.522800" lon="-5.023867">
        <ele>2471.0</ele>
        <time>2013-05-11T13:36:22Z</time>
      </trkpt>
      <trkpt lat="40.522800" lon="-5.023750">
        <ele>2470.0</ele>
        <time>2013-05-11T13:36:23Z</time>
      </trkpt>
      <trkpt lat="40.522817" lon="-5.023617">
        <ele>2469.0</ele>
        <time>2013-05-11T13:36:24Z</time>
      </trkpt>
      <trkpt lat="40.522817" lon="-5.023500">
        <ele>2467.0</ele>
        <time>2013-05-11T13:36:25Z</time>
      </trkpt>
      <trkpt lat="40.522817" lon="-5.023350">
        <ele>2466.0</ele>
        <time>2013-05-11T13:36:26Z</time>
      </trkpt>
      <trkpt lat="40.522800" lon="-5.023217">
        <ele>2466.0</ele>
        <time>2013-05-11T13:36:27Z</time>
      </trkpt>
      <trkpt lat="40.522783" lon="-5.023083">
        <ele>2467.0</ele>
        <time>2013-05-11T13:36:28Z</time>
      </trkpt>
      <trkpt lat="40.522783" lon="-5.022967">
        <ele>2467.0</ele>
        <time>2013-05-11T13:36:29Z</time>
      </trkpt>
      <trkpt lat="40.522767" lon="-5.022850">
        <ele>2466.0</ele>
        <time>2013-05-11T13:36:30Z</time>
      </trkpt>
      <trkpt lat="40.522767" lon="-5.022717">
        <ele>2465.0</ele>
        <time>2013-05-11T13:36:31Z</time>
      </trkpt>
      <trkpt lat="40.522750" lon="-5.022567">
        <ele>2463.0</ele>
        <time>2013-05-11T13:36:32Z</time>
      </trkpt>
      <trkpt lat="40.522750" lon="-5.022417">
        <ele>2462.0</ele>
        <time>2013-05-11T13:36:33Z</time>
      </trkpt>
      <trkpt lat="40.522750" lon="-5.022283">
        <ele>2462.0</ele>
        <time>2013-05-11T13:36:34Z</time>
      </trkpt>
      <trkpt lat="40.522733" lon="-5.022150">
        <ele>2461.0</ele>
        <time>2013-05-11T13:36:35Z</time>
      </trkpt>
      <trkpt lat="40.522733" lon="-5.022000">
        <ele>2461.0</ele>
        <time>2013-05-11T13:36:36Z</time>
      </trkpt>
      <trkpt lat="40.522717" lon="-5.021867">
        <ele>2459.0</ele>
        <time>2013-05-11T13:36:37Z</time>
      </trkpt>
      <trkpt lat="40.522717" lon="-5.021717">
        <ele>2458.0</ele>
        <time>2013-05-11T13:36:38Z</time>
      </trkpt>
      <trkpt lat="40.522700" lon="-5.021583">
        <ele>2458.0</ele>
        <time>2013-05-11T13:36:39Z</time>
      </trkpt>
      <trkpt lat="40.522700" lon="-5.021450">
        <ele>2457.0</ele>
        <time>2013-05-11T13:36:40Z</time>
      </trkpt>
      <trkpt lat="40.522700" lon="-5.021317">
        <ele>2456.0</ele>
        <time>2013-05-11T13:36:41Z</time>
      </trkpt>
      <trkpt lat="40.522683" lon="-5.021183">
        <ele>2453.0</ele>
        <time>2013-05-11T13:36:42Z</time>
      </trkpt>
      <trkpt lat="40.522700" lon="-5.021050">
        <ele>2451.0</ele>
        <time>2013-05-11T13:36:43Z</time>
      </trkpt>
      <trkpt lat="40.522700" lon="-5.020900">
        <ele>2450.0</ele>
        <time>2013-05-11T13:36:44Z</time>
      </trkpt>
      <trkpt lat="40.522700" lon="-5.020750">
        <ele>2449.0</ele>
        <time>2013-05-11T13:36:45Z</time>
      </trkpt>
      <trkpt lat="40.522700" lon="-5.020617">
        <ele>2449.0</ele>
        <time>2013-05-11T13:36:46Z</time>
      </trkpt>
      <trkpt lat="40.522683" lon="-5.020500">
        <ele>2449.0</ele>
        <time>2013-05-11T13:36:47Z</time>
      </trkpt>
      <trkpt lat="40.522683" lon="-5.020383">
        <ele>2448.0</ele>
        <time>2013-05-11T13:36:48Z</time>
      </trkpt>
      <trkpt lat="40.522683" lon="-5.020250">
        <ele>2446.0</ele>
        <time>2013-05-11T13:36:49Z</time>
      </trkpt>
      <trkpt lat="40.522683" lon="-5.020100">
        <ele>2444.0</ele>
        <time>2013-05-11T13:36:50Z</time>
      </trkpt>
      <trkpt lat="40.522683" lon="-5.019950">
        <ele>2442.0</ele>
        <time>2013-05-11T13:36:51Z</time>
      </trkpt>
      <trkpt lat="40.522700" lon="-5.019817">
        <ele>2440.0</ele>
        <time>2013-05-11T13:36:52Z</time>
      </trkpt>
      <trkpt lat="40.522700" lon="-5.019667">
        <ele>2439.0</ele>
        <time>2013-05-11T13:36:53Z</time>
      </trkpt>
      <trkpt lat="40.522717" lon="-5.019533">
        <ele>2438.0</ele>
        <time>2013-05-11T13:36:54Z</time>
      </trkpt>
      <trkpt lat="40.522733" lon="-5.019417">
        <ele>2437.0</ele>
        <time>2013-05-11T13:36:55Z</time>
      </trkpt>
      <trkpt lat="40.522750" lon="-5.019283">
        <ele>2436.0</ele>
        <time>2013-05-11T13:36:56Z</time>
      </trkpt>
      <trkpt lat="40.522750" lon="-5.019133">
        <ele>2434.0</ele>
        <time>2013-05-11T13:36:57Z</time>
      </trkpt>
      <trkpt lat="40.522767" lon="-5.019000">
        <ele>2432.0</ele>
        <time>2013-05-11T13:36:58Z</time>
      </trkpt>
      <trkpt lat="40.522783" lon="-5.018867">
        <ele>2431.0</ele>
        <time>2013-05-11T13:36:59Z</time>
      </trkpt>
      <trkpt lat="40.522800" lon="-5.018750">
        <ele>2429.0</ele>
        <time>2013-05-11T13:37:00Z</time>
      </trkpt>
      <trkpt lat="40.522817" lon="-5.018617">
        <ele>2427.0</ele>
        <time>2013-05-11T13:37:01Z</time>
      </trkpt>
      <trkpt lat="40.522817" lon="-5.018467">
        <ele>2426.0</ele>
        <time>2013-05-11T13:37:02Z</time>
      </trkpt>
      <trkpt lat="40.522833" lon="-5.018333">
        <ele>2424.0</ele>
        <time>2013-05-11T13:37:03Z</time>
      </trkpt>
      <trkpt lat="40.522850" lon="-5.018200">
        <ele>2423.0</ele>
        <time>2013-05-11T13:37:04Z</time>
      </trkpt>
      <trkpt lat="40.522850" lon="-5.018083">
        <ele>2422.0</ele>
        <time>2013-05-11T13:37:05Z</time>
      </trkpt>
      <trkpt lat="40.522867" lon="-5.017950">
        <ele>2419.0</ele>
        <time>2013-05-11T13:37:06Z</time>
      </trkpt>
      <trkpt lat="40.522883" lon="-5.017817">
        <ele>2416.0</ele>
        <time>2013-05-11T13:37:07Z</time>
      </trkpt>
      <trkpt lat="40.522883" lon="-5.017650">
        <ele>2412.0</ele>
        <time>2013-05-11T13:37:08Z</time>
      </trkpt>
      <trkpt lat="40.522867" lon="-5.017483">
        <ele>2409.0</ele>
        <time>2013-05-11T13:37:09Z</time>
      </trkpt>
      <trkpt lat="40.522867" lon="-5.017317">
        <ele>2408.0</ele>
        <time>2013-05-11T13:37:10Z</time>
      </trkpt>
      <trkpt lat="40.522867" lon="-5.017183">
        <ele>2408.0</ele>
        <time>2013-05-11T13:37:11Z</time>
      </trkpt>
      <trkpt lat="40.522850" lon="-5.017050">
        <ele>2407.0</ele>
        <time>2013-05-11T13:37:12Z</time>
      </trkpt>
      <trkpt lat="40.522850" lon="-5.016917">
        <ele>2405.0</ele>
        <time>2013-05-11T13:37:13Z</time>
      </trkpt>
      <trkpt lat="40.522833" lon="-5.016783">
        <ele>2402.0</ele>
        <time>2013-05-11T13:37:14Z</time>
      </trkpt>
      <trkpt lat="40.522817" lon="-5.016617">
        <ele>2398.0</ele>
        <time>2013-05-11T13:37:15Z</time>
      </trkpt>
      <trkpt lat="40.522800" lon="-5.016450">
        <ele>2395.0</ele>
        <time>2013-05-11T13:37:16Z</time>
      </trkpt>
      <trkpt lat="40.522800" lon="-5.016300">
        <ele>2394.0</ele>
        <time>2013-05-11T13:37:17Z</time>
      </trkpt>
      <trkpt lat="40.522800" lon="-5.016150">
        <ele>2392.0</ele>
        <time>2013-05-11T13:37:18Z</time>
      </trkpt>
      <trkpt lat="40.522800" lon="-5.016000">
        <ele>2390.0</ele>
        <time>2013-05-11T13:37:19Z</time>
      </trkpt>
      <trkpt lat="40.522800" lon="-5.015867">
        <ele>2386.0</ele>
        <time>2013-05-11T13:37:20Z</time>
      </trkpt>
      <trkpt lat="40.522817" lon="-5.015700">
        <ele>2382.0</ele>
        <time>2013-05-11T13:37:21Z</time>
      </trkpt>
      <trkpt lat="40.522817" lon="-5.015533">
        <ele>2377.0</ele>
        <time>2013-05-11T13:37:22Z</time>
      </trkpt>
      <trkpt lat="40.522833" lon="-5.015367">
        <ele>2374.0</ele>
        <time>2013-05-11T13:37:23Z</time>
      </trkpt>
      <trkpt lat="40.522850" lon="-5.015200">
        <ele>2371.0</ele>
        <time>2013-05-11T13:37:24Z</time>
      </trkpt>
      <trkpt lat="40.522883" lon="-5.015050">
        <ele>2369.0</ele>
        <time>2013-05-11T13:37:25Z</time>
      </trkpt>
      <trkpt lat="40.522900" lon="-5.014900">
        <ele>2366.0</ele>
        <time>2013-05-11T13:37:26Z</time>
      </trkpt>
      <trkpt lat="40.522917" lon="-5.014750">
        <ele>2364.0</ele>
        <time>2013-05-11T13:37:27Z</time>
      </trkpt>
      <trkpt lat="40.522933" lon="-5.014600">
        <ele>2362.0</ele>
        <time>2013-05-11T13:37:28Z</time>
      </trkpt>
      <trkpt lat="40.522967" lon="-5.014450">
        <ele>2359.0</ele>
        <time>2013-05-11T13:37:29Z</time>
      </trkpt>
      <trkpt lat="40.523000" lon="-5.014317">
        <ele>2357.0</ele>
        <time>2013-05-11T13:37:30Z</time>
      </trkpt>
      <trkpt lat="40.523017" lon="-5.014167">
        <ele>2355.0</ele>
        <time>2013-05-11T13:37:31Z</time>
      </trkpt>
      <trkpt lat="40.523033" lon="-5.014033">
        <ele>2353.0</ele>
        <time>2013-05-11T13:37:32Z</time>
      </trkpt>
      <trkpt lat="40.523050" lon="-5.013900">
        <ele>2351.0</ele>
        <time>2013-05-11T13:37:33Z</time>
      </trkpt>
      <trkpt lat="40.523067" lon="-5.013750">
        <ele>2348.0</ele>
        <time>2013-05-11T13:37:34Z</time>
      </trkpt>
      <trkpt lat="40.523083" lon="-5.013617">
        <ele>2345.0</ele>
        <time>2013-05-11T13:37:35Z</time>
      </trkpt>
      <trkpt lat="40.523117" lon="-5.013450">
        <ele>2342.0</ele>
        <time>2013-05-11T13:37:36Z</time>
      </trkpt>
      <trkpt lat="40.523117" lon="-5.013317">
        <ele>2341.0</ele>
        <time>2013-05-11T13:37:37Z</time>
      </trkpt>
      <trkpt lat="40.523133" lon="-5.013167">
        <ele>2339.0</ele>
        <time>2013-05-11T13:37:38Z</time>
      </trkpt>
      <trkpt lat="40.523150" lon="-5.013033">
        <ele>2337.0</ele>
        <time>2013-05-11T13:37:39Z</time>
      </trkpt>
      <trkpt lat="40.523167" lon="-5.012883">
        <ele>2335.0</ele>
        <time>2013-05-11T13:37:40Z</time>
      </trkpt>
      <trkpt lat="40.523183" lon="-5.012733">
        <ele>2332.0</ele>
        <time>2013-05-11T13:37:41Z</time>
      </trkpt>
      <trkpt lat="40.523200" lon="-5.012583">
        <ele>2330.0</ele>
        <time>2013-05-11T13:37:42Z</time>
      </trkpt>
      <trkpt lat="40.523233" lon="-5.012450">
        <ele>2329.0</ele>
        <time>2013-05-11T13:37:43Z</time>
      </trkpt>
      <trkpt lat="40.523250" lon="-5.012317">
        <ele>2327.0</ele>
        <time>2013-05-11T13:37:44Z</time>
      </trkpt>
      <trkpt lat="40.523267" lon="-5.012183">
        <ele>2325.0</ele>
        <time>2013-05-11T13:37:45Z</time>
      </trkpt>
      <trkpt lat="40.523300" lon="-5.012033">
        <ele>2322.0</ele>
        <time>2013-05-11T13:37:46Z</time>
      </trkpt>
      <trkpt lat="40.523317" lon="-5.011900">
        <ele>2319.0</ele>
        <time>2013-05-11T13:37:47Z</time>
      </trkpt>
      <trkpt lat="40.523333" lon="-5.011750">
        <ele>2317.0</ele>
        <time>2013-05-11T13:37:48Z</time>
      </trkpt>
      <trkpt lat="40.523367" lon="-5.011617">
        <ele>2315.0</ele>
        <time>2013-05-11T13:37:49Z</time>
      </trkpt>
      <trkpt lat="40.523383" lon="-5.011483">
        <ele>2313.0</ele>
        <time>2013-05-11T13:37:50Z</time>
      </trkpt>
      <trkpt lat="40.523417" lon="-5.011350">
        <ele>2310.0</ele>
        <time>2013-05-11T13:37:51Z</time>
      </trkpt>
      <trkpt lat="40.523433" lon="-5.011217">
        <ele>2307.0</ele>
        <time>2013-05-11T13:37:52Z</time>
      </trkpt>
      <trkpt lat="40.523450" lon="-5.011083">
        <ele>2304.0</ele>
        <time>2013-05-11T13:37:53Z</time>
      </trkpt>
      <trkpt lat="40.523483" lon="-5.010933">
        <ele>2301.0</ele>
        <time>2013-05-11T13:37:54Z</time>
      </trkpt>
      <trkpt lat="40.523500" lon="-5.010800">
        <ele>2298.0</ele>
        <time>2013-05-11T13:37:55Z</time>
      </trkpt>
      <trkpt lat="40.523533" lon="-5.010683">
        <ele>2296.0</ele>
        <time>2013-05-11T13:37:56Z</time>
      </trkpt>
      <trkpt lat="40.523550" lon="-5.010550">
        <ele>2293.0</ele>
        <time>2013-05-11T13:37:57Z</time>
      </trkpt>
      <trkpt lat="40.523583" lon="-5.010433">
        <ele>2289.0</ele>
        <time>2013-05-11T13:37:58Z</time>
      </trkpt>
      <trkpt lat="40.523600" lon="-5.010300">
        <ele>2285.0</ele>
        <time>2013-05-11T13:37:59Z</time>
      </trkpt>
      <trkpt lat="40.523633" lon="-5.010167">
        <ele>2281.0</ele>
        <time>2013-05-11T13:38:00Z</time>
      </trkpt>
      <trkpt lat="40.523667" lon="-5.010017">
        <ele>2277.0</ele>
        <time>2013-05-11T13:38:01Z</time>
      </trkpt>
      <trkpt lat="40.523700" lon="-5.009883">
        <ele>2274.0</ele>
        <time>2013-05-11T13:38:02Z</time>
      </trkpt>
      <trkpt lat="40.523717" lon="-5.009750">
        <ele>2273.0</ele>
        <time>2013-05-11T13:38:03Z</time>
      </trkpt>
      <trkpt lat="40.523750" lon="-5.009633">
        <ele>2271.0</ele>
        <time>2013-05-11T13:38:04Z</time>
      </trkpt>
      <trkpt lat="40.523767" lon="-5.009517">
        <ele>2268.0</ele>
        <time>2013-05-11T13:38:05Z</time>
      </trkpt>
      <trkpt lat="40.523783" lon="-5.009400">
        <ele>2266.0</ele>
        <time>2013-05-11T13:38:06Z</time>
      </trkpt>
      <trkpt lat="40.523817" lon="-5.009267">
        <ele>2263.0</ele>
        <time>2013-05-11T13:38:07Z</time>
      </trkpt>
      <trkpt lat="40.523833" lon="-5.009150">
        <ele>2260.0</ele>
        <time>2013-05-11T13:38:08Z</time>
      </trkpt>
      <trkpt lat="40.523850" lon="-5.009017">
        <ele>2257.0</ele>
        <time>2013-05-11T13:38:09Z</time>
      </trkpt>
      <trkpt lat="40.523867" lon="-5.008883">
        <ele>2254.0</ele>
        <time>2013-05-11T13:38:10Z</time>
      </trkpt>
      <trkpt lat="40.523883" lon="-5.008767">
        <ele>2251.0</ele>
        <time>2013-05-11T13:38:11Z</time>
      </trkpt>
      <trkpt lat="40.523883" lon="-5.008633">
        <ele>2248.0</ele>
        <time>2013-05-11T13:38:12Z</time>
      </trkpt>
      <trkpt lat="40.523900" lon="-5.008483">
        <ele>2246.0</ele>
        <time>2013-05-11T13:38:13Z</time>
      </trkpt>
      <trkpt lat="40.523900" lon="-5.008350">
        <ele>2243.0</ele>
        <time>2013-05-11T13:38:14Z</time>
      </trkpt>
      <trkpt lat="40.523917" lon="-5.008200">
        <ele>2241.0</ele>
        <time>2013-05-11T13:38:15Z</time>
      </trkpt>
      <trkpt lat="40.523917" lon="-5.008067">
        <ele>2240.0</ele>
        <time>2013-05-11T13:38:16Z</time>
      </trkpt>
      <trkpt lat="40.523933" lon="-5.007933">
        <ele>2238.0</ele>
        <time>2013-05-11T13:38:17Z</time>
      </trkpt>
      <trkpt lat="40.523950" lon="-5.007800">
        <ele>2235.0</ele>
        <time>2013-05-11T13:38:18Z</time>
      </trkpt>
      <trkpt lat="40.523950" lon="-5.007667">
        <ele>2232.0</ele>
        <time>2013-05-11T13:38:19Z</time>
      </trkpt>
      <trkpt lat="40.523950" lon="-5.007500">
        <ele>2227.0</ele>
        <time>2013-05-11T13:38:20Z</time>
      </trkpt>
      <trkpt lat="40.523967" lon="-5.007333">
        <ele>2223.0</ele>
        <time>2013-05-11T13:38:21Z</time>
      </trkpt>
      <trkpt lat="40.523983" lon="-5.007167">
        <ele>2222.0</ele>
        <time>2013-05-11T13:38:22Z</time>
      </trkpt>
      <trkpt lat="40.524000" lon="-5.007033">
        <ele>2221.0</ele>
        <time>2013-05-11T13:38:23Z</time>
      </trkpt>
      <trkpt lat="40.524017" lon="-5.006900">
        <ele>2219.0</ele>
        <time>2013-05-11T13:38:24Z</time>
      </trkpt>
      <trkpt lat="40.524033" lon="-5.006783">
        <ele>2216.0</ele>
        <time>2013-05-11T13:38:25Z</time>
      </trkpt>
      <trkpt lat="40.524050" lon="-5.006633">
        <ele>2213.0</ele>
        <time>2013-05-11T13:38:26Z</time>
      </trkpt>
      <trkpt lat="40.524083" lon="-5.006483">
        <ele>2208.0</ele>
        <time>2013-05-11T13:38:27Z</time>
      </trkpt>
      <trkpt lat="40.524100" lon="-5.006317">
        <ele>2205.0</ele>
        <time>2013-05-11T13:38:28Z</time>
      </trkpt>
      <trkpt lat="40.524117" lon="-5.006167">
        <ele>2204.0</ele>
        <time>2013-05-11T13:38:29Z</time>
      </trkpt>
      <trkpt lat="40.524133" lon="-5.006033">
        <ele>2203.0</ele>
        <time>2013-05-11T13:38:30Z</time>
      </trkpt>
      <trkpt lat="40.524133" lon="-5.005900">
        <ele>2201.0</ele>
        <time>2013-05-11T13:38:31Z</time>
      </trkpt>
      <trkpt lat="40.524150" lon="-5.005783">
        <ele>2199.0</ele>
        <time>2013-05-11T13:38:32Z</time>
      </trkpt>
      <trkpt lat="40.524167" lon="-5.005633">
        <ele>2196.0</ele>
        <time>2013-05-11T13:38:33Z</time>
      </trkpt>
      <trkpt lat="40.524167" lon="-5.005483">
        <ele>2193.0</ele>
        <time>2013-05-11T13:38:34Z</time>
      </trkpt>
      <trkpt lat="40.524183" lon="-5.005333">
        <ele>2191.0</ele>
        <time>2013-05-11T13:38:35Z</time>
      </trkpt>
      <trkpt lat="40.524200" lon="-5.005183">
        <ele>2189.0</ele>
        <time>2013-05-11T13:38:36Z</time>
      </trkpt>
      <trkpt lat="40.524217" lon="-5.005050">
        <ele>2188.0</ele>
        <time>2013-05-11T13:38:37Z</time>
      </trkpt>
      <trkpt lat="40.524233" lon="-5.004900">
        <ele>2186.0</ele>
        <time>2013-05-11T13:38:38Z</time>
      </trkpt>
      <trkpt lat="40.524250" lon="-5.004750">
        <ele>2184.0</ele>
        <time>2013-05-11T13:38:39Z</time>
      </trkpt>
      <trkpt lat="40.524267" lon="-5.004600">
        <ele>2181.0</ele>
        <time>2013-05-11T13:38:40Z</time>
      </trkpt>
      <trkpt lat="40.524283" lon="-5.004450">
        <ele>2179.0</ele>
        <time>2013-05-11T13:38:41Z</time>
      </trkpt>
      <trkpt lat="40.524317" lon="-5.004300">
        <ele>2177.0</ele>
        <time>2013-05-11T13:38:42Z</time>
      </trkpt>
      <trkpt lat="40.524333" lon="-5.004150">
        <ele>2176.0</ele>
        <time>2013-05-11T13:38:43Z</time>
      </trkpt>
      <trkpt lat="40.524350" lon="-5.004017">
        <ele>2173.0</ele>
        <time>2013-05-11T13:38:44Z</time>
      </trkpt>
      <trkpt lat="40.524367" lon="-5.003883">
        <ele>2171.0</ele>
        <time>2013-05-11T13:38:45Z</time>
      </trkpt>
      <trkpt lat="40.524400" lon="-5.003750">
        <ele>2168.0</ele>
        <time>2013-05-11T13:38:46Z</time>
      </trkpt>
      <trkpt lat="40.524417" lon="-5.003600">
        <ele>2165.0</ele>
        <time>2013-05-11T13:38:47Z</time>
      </trkpt>
      <trkpt lat="40.524450" lon="-5.003467">
        <ele>2162.0</ele>
        <time>2013-05-11T13:38:48Z</time>
      </trkpt>
      <trkpt lat="40.524483" lon="-5.003317">
        <ele>2160.0</ele>
        <time>2013-05-11T13:38:49Z</time>
      </trkpt>
      <trkpt lat="40.524500" lon="-5.003183">
        <ele>2158.0</ele>
        <time>2013-05-11T13:38:50Z</time>
      </trkpt>
      <trkpt lat="40.524533" lon="-5.003050">
        <ele>2157.0</ele>
        <time>2013-05-11T13:38:51Z</time>
      </trkpt>
      <trkpt lat="40.524550" lon="-5.002900">
        <ele>2154.0</ele>
        <time>2013-05-11T13:38:52Z</time>
      </trkpt>
      <trkpt lat="40.524583" lon="-5.002767">
        <ele>2151.0</ele>
        <time>2013-05-11T13:38:53Z</time>
      </trkpt>
      <trkpt lat="40.524600" lon="-5.002617">
        <ele>2148.0</ele>
        <time>2013-05-11T13:38:54Z</time>
      </trkpt>
      <trkpt lat="40.524617" lon="-5.002450">
        <ele>2146.0</ele>
        <time>2013-05-11T13:38:55Z</time>
      </trkpt>
      <trkpt lat="40.524633" lon="-5.002300">
        <ele>2145.0</ele>
        <time>2013-05-11T13:38:56Z</time>
      </trkpt>
      <trkpt lat="40.524667" lon="-5.002150">
        <ele>2144.0</ele>
        <time>2013-05-11T13:38:57Z</time>
      </trkpt>
      <trkpt lat="40.524683" lon="-5.002017">
        <ele>2143.0</ele>
        <time>2013-05-11T13:38:58Z</time>
      </trkpt>
      <trkpt lat="40.524717" lon="-5.001867">
        <ele>2142.0</ele>
        <time>2013-05-11T13:38:59Z</time>
      </trkpt>
      <trkpt lat="40.524733" lon="-5.001717">
        <ele>2140.0</ele>
        <time>2013-05-11T13:39:00Z</time>
      </trkpt>
      <trkpt lat="40.524750" lon="-5.001567">
        <ele>2138.0</ele>
        <time>2013-05-11T13:39:01Z</time>
      </trkpt>
      <trkpt lat="40.524767" lon="-5.001417">
        <ele>2137.0</ele>
        <time>2013-05-11T13:39:02Z</time>
      </trkpt>
      <trkpt lat="40.524783" lon="-5.001267">
        <ele>2135.0</ele>
        <time>2013-05-11T13:39:03Z</time>
      </trkpt>
      <trkpt lat="40.524800" lon="-5.001117">
        <ele>2134.0</ele>
        <time>2013-05-11T13:39:04Z</time>
      </trkpt>
      <trkpt lat="40.524817" lon="-5.000983">
        <ele>2134.0</ele>
        <time>2013-05-11T13:39:05Z</time>
      </trkpt>
      <trkpt lat="40.524833" lon="-5.000833">
        <ele>2133.0</ele>
        <time>2013-05-11T13:39:06Z</time>
      </trkpt>
      <trkpt lat="40.524850" lon="-5.000700">
        <ele>2132.0</ele>
        <time>2013-05-11T13:39:07Z</time>
      </trkpt>
      <trkpt lat="40.524867" lon="-5.000567">
        <ele>2130.0</ele>
        <time>2013-05-11T13:39:08Z</time>
      </trkpt>
      <trkpt lat="40.524900" lon="-5.000433">
        <ele>2128.0</ele>
        <time>2013-05-11T13:39:09Z</time>
      </trkpt>
      <trkpt lat="40.524917" lon="-5.000283">
        <ele>2126.0</ele>
        <time>2013-05-11T13:39:10Z</time>
      </trkpt>
      <trkpt lat="40.524933" lon="-5.000133">
        <ele>2124.0</ele>
        <time>2013-05-11T13:39:11Z</time>
      </trkpt>
      <trkpt lat="40.524967" lon="-5.000000">
        <ele>2122.0</ele>
        <time>2013-05-11T13:39:12Z</time>
      </trkpt>
      <trkpt lat="40.524983" lon="-4.999867">
        <ele>2120.0</ele>
        <time>2013-05-11T13:39:13Z</time>
      </trkpt>
      <trkpt lat="40.525000" lon="-4.999733">
        <ele>2118.0</ele>
        <time>2013-05-11T13:39:14Z</time>
      </trkpt>
      <trkpt lat="40.525017" lon="-4.999600">
        <ele>2115.0</ele>
        <time>2013-05-11T13:39:15Z</time>
      </trkpt>
      <trkpt lat="40.525050" lon="-4.999467">
        <ele>2113.0</ele>
        <time>2013-05-11T13:39:16Z</time>
      </trkpt>
      <trkpt lat="40.525083" lon="-4.999333">
        <ele>2111.0</ele>
        <time>2013-05-11T13:39:17Z</time>
      </trkpt>
      <trkpt lat="40.525117" lon="-4.999200">
        <ele>2109.0</ele>
        <time>2013-05-11T13:39:18Z</time>
      </trkpt>
      <trkpt lat="40.525133" lon="-4.999067">
        <ele>2108.0</ele>
        <time>2013-05-11T13:39:19Z</time>
      </trkpt>
      <trkpt lat="40.525167" lon="-4.998950">
        <ele>2106.0</ele>
        <time>2013-05-11T13:39:20Z</time>
      </trkpt>
      <trkpt lat="40.525183" lon="-4.998817">
        <ele>2105.0</ele>
        <time>2013-05-11T13:39:21Z</time>
      </trkpt>
      <trkpt lat="40.525200" lon="-4.998700">
        <ele>2104.0</ele>
        <time>2013-05-11T13:39:22Z</time>
      </trkpt>
      <trkpt lat="40.525233" lon="-4.998567">
        <ele>2103.0</ele>
        <time>2013-05-11T13:39:23Z</time>
      </trkpt>
      <trkpt lat="40.525250" lon="-4.998450">
        <ele>2102.0</ele>
        <time>2013-05-11T13:39:24Z</time>
      </trkpt>
      <trkpt lat="40.525267" lon="-4.998333">
        <ele>2100.0</ele>
        <time>2013-05-11T13:39:25Z</time>
      </trkpt>
      <trkpt lat="40.525300" lon="-4.998200">
        <ele>2098.0</ele>
        <time>2013-05-11T13:39:26Z</time>
      </trkpt>
      <trkpt lat="40.525317" lon="-4.998083">
        <ele>2097.0</ele>
        <time>2013-05-11T13:39:27Z</time>
      </trkpt>
      <trkpt lat="40.525333" lon="-4.997950">
        <ele>2096.0</ele>
        <time>2013-05-11T13:39:28Z</time>
      </trkpt>
      <trkpt lat="40.525367" lon="-4.997833">
        <ele>2095.0</ele>
        <time>2013-05-11T13:39:29Z</time>
      </trkpt>
      <trkpt lat="40.525383" lon="-4.997717">
        <ele>2093.0</ele>
        <time>2013-05-11T13:39:30Z</time>
      </trkpt>
      <trkpt lat="40.525417" lon="-4.997600">
        <ele>2092.0</ele>
        <time>2013-05-11T13:39:31Z</time>
      </trkpt>
      <trkpt lat="40.525433" lon="-4.997467">
        <ele>2090.0</ele>
        <time>2013-05-11T13:39:32Z</time>
      </trkpt>
      <trkpt lat="40.525450" lon="-4.997333">
        <ele>2089.0</ele>
        <time>2013-05-11T13:39:33Z</time>
      </trkpt>
      <trkpt lat="40.525467" lon="-4.997200">
        <ele>2087.0</ele>
        <time>2013-05-11T13:39:34Z</time>
      </trkpt>
      <trkpt lat="40.525483" lon="-4.997067">
        <ele>2087.0</ele>
        <time>2013-05-11T13:39:35Z</time>
      </trkpt>
      <trkpt lat="40.525500" lon="-4.996950">
        <ele>2087.0</ele>
        <time>2013-05-11T13:39:36Z</time>
      </trkpt>
      <trkpt lat="40.525517" lon="-4.996833">
        <ele>2086.0</ele>
        <time>2013-05-11T13:39:37Z</time>
      </trkpt>
      <trkpt lat="40.525533" lon="-4.996717">
        <ele>2086.0</ele>
        <time>2013-05-11T13:39:38Z</time>
      </trkpt>
      <trkpt lat="40.525550" lon="-4.996583">
        <ele>2085.0</ele>
        <time>2013-05-11T13:39:39Z</time>
      </trkpt>
      <trkpt lat="40.525567" lon="-4.996450">
        <ele>2084.0</ele>
        <time>2013-05-11T13:39:40Z</time>
      </trkpt>
      <trkpt lat="40.525583" lon="-4.996317">
        <ele>2084.0</ele>
        <time>2013-05-11T13:39:41Z</time>
      </trkpt>
      <trkpt lat="40.525600" lon="-4.996200">
        <ele>2085.0</ele>
        <time>2013-05-11T13:39:42Z</time>
      </trkpt>
      <trkpt lat="40.525617" lon="-4.996067">
        <ele>2085.0</ele>
        <time>2013-05-11T13:39:43Z</time>
      </trkpt>
      <trkpt lat="40.525633" lon="-4.995950">
        <ele>2084.0</ele>
        <time>2013-05-11T13:39:44Z</time>
      </trkpt>
      <trkpt lat="40.525650" lon="-4.995833">
        <ele>2083.0</ele>
        <time>2013-05-11T13:39:45Z</time>
      </trkpt>
      <trkpt lat="40.525667" lon="-4.995700">
        <ele>2082.0</ele>
        <time>2013-05-11T13:39:46Z</time>
      </trkpt>
      <trkpt lat="40.525683" lon="-4.995567">
        <ele>2081.0</ele>
        <time>2013-05-11T13:39:47Z</time>
      </trkpt>
      <trkpt lat="40.525700" lon="-4.995433">
        <ele>2080.0</ele>
        <time>2013-05-11T13:39:48Z</time>
      </trkpt>
      <trkpt lat="40.525717" lon="-4.995300">
        <ele>2080.0</ele>
        <time>2013-05-11T13:39:49Z</time>
      </trkpt>
      <trkpt lat="40.525750" lon="-4.995183">
        <ele>2080.0</ele>
        <time>2013-05-11T13:39:50Z</time>
      </trkpt>
      <trkpt lat="40.525767" lon="-4.995050">
        <ele>2080.0</ele>
        <time>2013-05-11T13:39:51Z</time>
      </trkpt>
      <trkpt lat="40.525800" lon="-4.994933">
        <ele>2080.0</ele>
        <time>2013-05-11T13:39:52Z</time>
      </trkpt>
      <trkpt lat="40.525817" lon="-4.994800">
        <ele>2080.0</ele>
        <time>2013-05-11T13:39:53Z</time>
      </trkpt>
      <trkpt lat="40.525850" lon="-4.994667">
        <ele>2081.0</ele>
        <time>2013-05-11T13:39:54Z</time>
      </trkpt>
      <trkpt lat="40.525883" lon="-4.994550">
        <ele>2081.0</ele>
        <time>2013-05-11T13:39:55Z</time>
      </trkpt>
      <trkpt lat="40.525917" lon="-4.994417">
        <ele>2080.0</ele>
        <time>2013-05-11T13:39:56Z</time>
      </trkpt>
      <trkpt lat="40.525950" lon="-4.994283">
        <ele>2080.0</ele>
        <time>2013-05-11T13:39:57Z</time>
      </trkpt>
      <trkpt lat="40.525983" lon="-4.994150">
        <ele>2079.0</ele>
        <time>2013-05-11T13:39:58Z</time>
      </trkpt>
      <trkpt lat="40.526000" lon="-4.994017">
        <ele>2079.0</ele>
        <time>2013-05-11T13:39:59Z</time>
      </trkpt>
      <trkpt lat="40.526017" lon="-4.993883">
        <ele>2078.0</ele>
        <time>2013-05-11T13:40:00Z</time>
      </trkpt>
      <trkpt lat="40.526033" lon="-4.993767">
        <ele>2076.0</ele>
        <time>2013-05-11T13:40:01Z</time>
      </trkpt>
      <trkpt lat="40.526050" lon="-4.993650">
        <ele>2073.0</ele>
        <time>2013-05-11T13:40:02Z</time>
      </trkpt>
      <trkpt lat="40.526067" lon="-4.993500">
        <ele>2071.0</ele>
        <time>2013-05-11T13:40:03Z</time>
      </trkpt>
      <trkpt lat="40.526067" lon="-4.993350">
        <ele>2068.0</ele>
        <time>2013-05-11T13:40:04Z</time>
      </trkpt>
      <trkpt lat="40.526067" lon="-4.993200">
        <ele>2066.0</ele>
        <time>2013-05-11T13:40:05Z</time>
      </trkpt>
      <trkpt lat="40.526067" lon="-4.993050">
        <ele>2065.0</ele>
        <time>2013-05-11T13:40:06Z</time>
      </trkpt>
      <trkpt lat="40.526083" lon="-4.992917">
        <ele>2064.0</ele>
        <time>2013-05-11T13:40:07Z</time>
      </trkpt>
      <trkpt lat="40.526100" lon="-4.992767">
        <ele>2062.0</ele>
        <time>2013-05-11T13:40:08Z</time>
      </trkpt>
      <trkpt lat="40.526133" lon="-4.992633">
        <ele>2060.0</ele>
        <time>2013-05-11T13:40:09Z</time>
      </trkpt>
      <trkpt lat="40.526167" lon="-4.992483">
        <ele>2058.0</ele>
        <time>2013-05-11T13:40:10Z</time>
      </trkpt>
      <trkpt lat="40.526200" lon="-4.992333">
        <ele>2056.0</ele>
        <time>2013-05-11T13:40:11Z</time>
      </trkpt>
      <trkpt lat="40.526233" lon="-4.992183">
        <ele>2055.0</ele>
        <time>2013-05-11T13:40:12Z</time>
      </trkpt>
      <trkpt lat="40.526250" lon="-4.992033">
        <ele>2053.0</ele>
        <time>2013-05-11T13:40:13Z</time>
      </trkpt>
      <trkpt lat="40.526283" lon="-4.991883">
        <ele>2052.0</ele>
        <time>2013-05-11T13:40:14Z</time>
      </trkpt>
      <trkpt lat="40.526317" lon="-4.991733">
        <ele>2051.0</ele>
        <time>2013-05-11T13:40:15Z</time>
      </trkpt>
      <trkpt lat="40.526333" lon="-4.991600">
        <ele>2050.0</ele>
        <time>2013-05-11T13:40:16Z</time>
      </trkpt>
      <trkpt lat="40.526367" lon="-4.991467">
        <ele>2049.0</ele>
        <time>2013-05-11T13:40:17Z</time>
      </trkpt>
      <trkpt lat="40.526400" lon="-4.991333">
        <ele>2048.0</ele>
        <time>2013-05-11T13:40:18Z</time>
      </trkpt>
      <trkpt lat="40.526433" lon="-4.991200">
        <ele>2047.0</ele>
        <time>2013-05-11T13:40:19Z</time>
      </trkpt>
      <trkpt lat="40.526467" lon="-4.991050">
        <ele>2046.0</ele>
        <time>2013-05-11T13:40:20Z</time>
      </trkpt>
      <trkpt lat="40.526500" lon="-4.990917">
        <ele>2045.0</ele>
        <time>2013-05-11T13:40:21Z</time>
      </trkpt>
      <trkpt lat="40.526533" lon="-4.990783">
        <ele>2044.0</ele>
        <time>2013-05-11T13:40:22Z</time>
      </trkpt>
      <trkpt lat="40.526567" lon="-4.990650">
        <ele>2043.0</ele>
        <time>2013-05-11T13:40:23Z</time>
      </trkpt>
      <trkpt lat="40.526600" lon="-4.990517">
        <ele>2043.0</ele>
        <time>2013-05-11T13:40:24Z</time>
      </trkpt>
      <trkpt lat="40.526650" lon="-4.990383">
        <ele>2042.0</ele>
        <time>2013-05-11T13:40:25Z</time>
      </trkpt>
      <trkpt lat="40.526683" lon="-4.990250">
        <ele>2042.0</ele>
        <time>2013-05-11T13:40:26Z</time>
      </trkpt>
      <trkpt lat="40.526700" lon="-4.990117">
        <ele>2043.0</ele>
        <time>2013-05-11T13:40:27Z</time>
      </trkpt>
      <trkpt lat="40.526733" lon="-4.989983">
        <ele>2043.0</ele>
        <time>2013-05-11T13:40:28Z</time>
      </trkpt>
      <trkpt lat="40.526750" lon="-4.989867">
        <ele>2044.0</ele>
        <time>2013-05-11T13:40:29Z</time>
      </trkpt>
      <trkpt lat="40.526783" lon="-4.989750">
        <ele>2044.0</ele>
        <time>2013-05-11T13:40:30Z</time>
      </trkpt>
      <trkpt lat="40.526800" lon="-4.989633">
        <ele>2044.0</ele>
        <time>2013-05-11T13:40:31Z</time>
      </trkpt>
      <trkpt lat="40.526833" lon="-4.989517">
        <ele>2043.0</ele>
        <time>2013-05-11T13:40:32Z</time>
      </trkpt>
      <trkpt lat="40.526883" lon="-4.989417">
        <ele>2042.0</ele>
        <time>2013-05-11T13:40:33Z</time>
      </trkpt>
      <trkpt lat="40.526900" lon="-4.989300">
        <ele>2042.0</ele>
        <time>2013-05-11T13:40:34Z</time>
      </trkpt>
      <trkpt lat="40.526933" lon="-4.989200">
        <ele>2041.0</ele>
        <time>2013-05-11T13:40:35Z</time>
      </trkpt>
      <trkpt lat="40.526950" lon="-4.989083">
        <ele>2040.0</ele>
        <time>2013-05-11T13:40:36Z</time>
      </trkpt>
      <trkpt lat="40.526967" lon="-4.988983">
        <ele>2038.0</ele>
        <time>2013-05-11T13:40:37Z</time>
      </trkpt>
      <trkpt lat="40.526983" lon="-4.988867">
        <ele>2037.0</ele>
        <time>2013-05-11T13:40:38Z</time>
      </trkpt>
      <trkpt lat="40.527000" lon="-4.988767">
        <ele>2035.0</ele>
        <time>2013-05-11T13:40:39Z</time>
      </trkpt>
      <trkpt lat="40.527017" lon="-4.988650">
        <ele>2033.0</ele>
        <time>2013-05-11T13:40:40Z</time>
      </trkpt>
      <trkpt lat="40.527050" lon="-4.988533">
        <ele>2031.0</ele>
        <time>2013-05-11T13:40:41Z</time>
      </trkpt>
      <trkpt lat="40.527067" lon="-4.988417">
        <ele>2030.0</ele>
        <time>2013-05-11T13:40:42Z</time>
      </trkpt>
      <trkpt lat="40.527083" lon="-4.988300">
        <ele>2027.0</ele>
        <time>2013-05-11T13:40:43Z</time>
      </trkpt>
      <trkpt lat="40.527117" lon="-4.988200">
        <ele>2025.0</ele>
        <time>2013-05-11T13:40:44Z</time>
      </trkpt>
      <trkpt lat="40.527133" lon="-4.988067">
        <ele>2021.0</ele>
        <time>2013-05-11T13:40:45Z</time>
      </trkpt>
      <trkpt lat="40.527150" lon="-4.987950">
        <ele>2018.0</ele>
        <time>2013-05-11T13:40:46Z</time>
      </trkpt>
      <trkpt lat="40.527183" lon="-4.987817">
        <ele>2016.0</ele>
        <time>2013-05-11T13:40:47Z</time>
      </trkpt>
      <trkpt lat="40.527217" lon="-4.987700">
        <ele>2013.0</ele>
        <time>2013-05-11T13:40:48Z</time>
      </trkpt>
      <trkpt lat="40.527250" lon="-4.987583">
        <ele>2011.0</ele>
        <time>2013-05-11T13:40:49Z</time>
      </trkpt>
      <trkpt lat="40.527283" lon="-4.987483">
        <ele>2008.0</ele>
        <time>2013-05-11T13:40:50Z</time>
      </trkpt>
      <trkpt lat="40.527317" lon="-4.987367">
        <ele>2005.0</ele>
        <time>2013-05-11T13:40:51Z</time>
      </trkpt>
      <trkpt lat="40.527350" lon="-4.987250">
        <ele>2002.0</ele>
        <time>2013-05-11T13:40:52Z</time>
      </trkpt>
      <trkpt lat="40.527383" lon="-4.987117">
        <ele>1999.0</ele>
        <time>2013-05-11T13:40:53Z</time>
      </trkpt>
      <trkpt lat="40.527400" lon="-4.987000">
        <ele>1996.0</ele>
        <time>2013-05-11T13:40:54Z</time>
      </trkpt>
      <trkpt lat="40.527433" lon="-4.986883">
        <ele>1994.0</ele>
        <time>2013-05-11T13:40:55Z</time>
      </trkpt>
      <trkpt lat="40.527450" lon="-4.986767">
        <ele>1991.0</ele>
        <time>2013-05-11T13:40:56Z</time>
      </trkpt>
      <trkpt lat="40.527483" lon="-4.986650">
        <ele>1989.0</ele>
        <time>2013-05-11T13:40:57Z</time>
      </trkpt>
      <trkpt lat="40.527517" lon="-4.986533">
        <ele>1986.0</ele>
        <time>2013-05-11T13:40:58Z</time>
      </trkpt>
      <trkpt lat="40.527550" lon="-4.986417">
        <ele>1984.0</ele>
        <time>2013-05-11T13:40:59Z</time>
      </trkpt>
      <trkpt lat="40.527567" lon="-4.986300">
        <ele>1983.0</ele>
        <time>2013-05-11T13:41:00Z</time>
      </trkpt>
      <trkpt lat="40.527583" lon="-4.986200">
        <ele>1981.0</ele>
        <time>2013-05-11T13:41:01Z</time>
      </trkpt>
      <trkpt lat="40.527617" lon="-4.986100">
        <ele>1979.0</ele>
        <time>2013-05-11T13:41:02Z</time>
      </trkpt>
      <trkpt lat="40.527650" lon="-4.986000">
        <ele>1975.0</ele>
        <time>2013-05-11T13:41:03Z</time>
      </trkpt>
      <trkpt lat="40.527683" lon="-4.985883">
        <ele>1971.0</ele>
        <time>2013-05-11T13:41:04Z</time>
      </trkpt>
      <trkpt lat="40.527717" lon="-4.985750">
        <ele>1968.0</ele>
        <time>2013-05-11T13:41:05Z</time>
      </trkpt>
      <trkpt lat="40.527733" lon="-4.985633">
        <ele>1966.0</ele>
        <time>2013-05-11T13:41:06Z</time>
      </trkpt>
      <trkpt lat="40.527767" lon="-4.985500">
        <ele>1965.0</ele>
        <time>2013-05-11T13:41:07Z</time>
      </trkpt>
      <trkpt lat="40.527783" lon="-4.985367">
        <ele>1965.0</ele>
        <time>2013-05-11T13:41:08Z</time>
      </trkpt>
      <trkpt lat="40.527817" lon="-4.985250">
        <ele>1966.0</ele>
        <time>2013-05-11T13:41:09Z</time>
      </trkpt>
      <trkpt lat="40.527850" lon="-4.985150">
        <ele>1967.0</ele>
        <time>2013-05-11T13:41:10Z</time>
      </trkpt>
      <trkpt lat="40.527883" lon="-4.985050">
        <ele>1967.0</ele>
        <time>2013-05-11T13:41:11Z</time>
      </trkpt>
      <trkpt lat="40.527917" lon="-4.984950">
        <ele>1967.0</ele>
        <time>2013-05-11T13:41:12Z</time>
      </trkpt>
      <trkpt lat="40.527933" lon="-4.984850">
        <ele>1967.0</ele>
        <time>2013-05-11T13:41:13Z</time>
      </trkpt>
      <trkpt lat="40.527950" lon="-4.984750">
        <ele>1966.0</ele>
        <time>2013-05-11T13:41:14Z</time>
      </trkpt>
      <trkpt lat="40.527950" lon="-4.984650">
        <ele>1964.0</ele>
        <time>2013-05-11T13:41:15Z</time>
      </trkpt>
      <trkpt lat="40.527950" lon="-4.984533">
        <ele>1963.0</ele>
        <time>2013-05-11T13:41:16Z</time>
      </trkpt>
      <trkpt lat="40.527950" lon="-4.984433">
        <ele>1960.0</ele>
        <time>2013-05-11T13:41:17Z</time>
      </trkpt>
      <trkpt lat="40.527967" lon="-4.984317">
        <ele>1958.0</ele>
        <time>2013-05-11T13:41:18Z</time>
      </trkpt>
      <trkpt lat="40.527983" lon="-4.984200">
        <ele>1955.0</ele>
        <time>2013-05-11T13:41:19Z</time>
      </trkpt>
      <trkpt lat="40.527983" lon="-4.984083">
        <ele>1953.0</ele>
        <time>2013-05-11T13:41:20Z</time>
      </trkpt>
      <trkpt lat="40.528000" lon="-4.983950">
        <ele>1951.0</ele>
        <time>2013-05-11T13:41:21Z</time>
      </trkpt>
      <trkpt lat="40.528000" lon="-4.983833">
        <ele>1950.0</ele>
        <time>2013-05-11T13:41:22Z</time>
      </trkpt>
      <trkpt lat="40.528017" lon="-4.983717">
        <ele>1948.0</ele>
        <time>2013-05-11T13:41:23Z</time>
      </trkpt>
      <trkpt lat="40.528050" lon="-4.983617">
        <ele>1947.0</ele>
        <time>2013-05-11T13:41:24Z</time>
      </trkpt>
      <trkpt lat="40.528083" lon="-4.983500">
        <ele>1945.0</ele>
        <time>2013-05-11T13:41:25Z</time>
      </trkpt>
      <trkpt lat="40.528100" lon="-4.983367">
        <ele>1944.0</ele>
        <time>2013-05-11T13:41:26Z</time>
      </trkpt>
      <trkpt lat="40.528133" lon="-4.983250">
        <ele>1943.0</ele>
        <time>2013-05-11T13:41:27Z</time>
      </trkpt>
      <trkpt lat="40.528150" lon="-4.983117">
        <ele>1943.0</ele>
        <time>2013-05-11T13:41:28Z</time>
      </trkpt>
      <trkpt lat="40.528167" lon="-4.983017">
        <ele>1943.0</ele>
        <time>2013-05-11T13:41:29Z</time>
      </trkpt>
      <trkpt lat="40.528200" lon="-4.982900">
        <ele>1942.0</ele>
        <time>2013-05-11T13:41:30Z</time>
      </trkpt>
      <trkpt lat="40.528233" lon="-4.982800">
        <ele>1940.0</ele>
        <time>2013-05-11T13:41:31Z</time>
      </trkpt>
      <trkpt lat="40.528267" lon="-4.982683">
        <ele>1939.0</ele>
        <time>2013-05-11T13:41:32Z</time>
      </trkpt>
      <trkpt lat="40.528317" lon="-4.982567">
        <ele>1937.0</ele>
        <time>2013-05-11T13:41:33Z</time>
      </trkpt>
      <trkpt lat="40.528350" lon="-4.982467">
        <ele>1937.0</ele>
        <time>2013-05-11T13:41:34Z</time>
      </trkpt>
      <trkpt lat="40.528400" lon="-4.982367">
        <ele>1937.0</ele>
        <time>2013-05-11T13:41:35Z</time>
      </trkpt>
      <trkpt lat="40.528433" lon="-4.982283">
        <ele>1937.0</ele>
        <time>2013-05-11T13:41:36Z</time>
      </trkpt>
      <trkpt lat="40.528483" lon="-4.982217">
        <ele>1936.0</ele>
        <time>2013-05-11T13:41:37Z</time>
      </trkpt>
      <trkpt lat="40.528550" lon="-4.982150">
        <ele>1934.0</ele>
        <time>2013-05-11T13:41:38Z</time>
      </trkpt>
      <trkpt lat="40.528617" lon="-4.982083">
        <ele>1932.0</ele>
        <time>2013-05-11T13:41:39Z</time>
      </trkpt>
      <trkpt lat="40.528700" lon="-4.982017">
        <ele>1931.0</ele>
        <time>2013-05-11T13:41:40Z</time>
      </trkpt>
      <trkpt lat="40.528767" lon="-4.981950">
        <ele>1930.0</ele>
        <time>2013-05-11T13:41:41Z</time>
      </trkpt>
      <trkpt lat="40.528817" lon="-4.981867">
        <ele>1930.0</ele>
        <time>2013-05-11T13:41:42Z</time>
      </trkpt>
      <trkpt lat="40.528850" lon="-4.981767">
        <ele>1929.0</ele>
        <time>2013-05-11T13:41:43Z</time>
      </trkpt>
      <trkpt lat="40.528883" lon="-4.981650">
        <ele>1928.0</ele>
        <time>2013-05-11T13:41:44Z</time>
      </trkpt>
      <trkpt lat="40.528917" lon="-4.981550">
        <ele>1927.0</ele>
        <time>2013-05-11T13:41:45Z</time>
      </trkpt>
      <trkpt lat="40.528950" lon="-4.981433">
        <ele>1926.0</ele>
        <time>2013-05-11T13:41:46Z</time>
      </trkpt>
      <trkpt lat="40.528983" lon="-4.981333">
        <ele>1924.0</ele>
        <time>2013-05-11T13:41:47Z</time>
      </trkpt>
      <trkpt lat="40.528983" lon="-4.981200">
        <ele>1922.0</ele>
        <time>2013-05-11T13:41:48Z</time>
      </trkpt>
      <trkpt lat="40.529000" lon="-4.981083">
        <ele>1920.0</ele>
        <time>2013-05-11T13:41:49Z</time>
      </trkpt>
      <trkpt lat="40.529000" lon="-4.980967">
        <ele>1918.0</ele>
        <time>2013-05-11T13:41:50Z</time>
      </trkpt>
      <trkpt lat="40.529017" lon="-4.980833">
        <ele>1916.0</ele>
        <time>2013-05-11T13:41:51Z</time>
      </trkpt>
      <trkpt lat="40.529017" lon="-4.980717">
        <ele>1915.0</ele>
        <time>2013-05-11T13:41:52Z</time>
      </trkpt>
      <trkpt lat="40.529017" lon="-4.980600">
        <ele>1913.0</ele>
        <time>2013-05-11T13:41:53Z</time>
      </trkpt>
      <trkpt lat="40.529017" lon="-4.980483">
        <ele>1911.0</ele>
        <time>2013-05-11T13:41:54Z</time>
      </trkpt>
      <trkpt lat="40.529017" lon="-4.980350">
        <ele>1908.0</ele>
        <time>2013-05-11T13:41:55Z</time>
      </trkpt>
      <trkpt lat="40.529017" lon="-4.980233">
        <ele>1905.0</ele>
        <time>2013-05-11T13:41:56Z</time>
      </trkpt>
      <trkpt lat="40.529033" lon="-4.980100">
        <ele>1902.0</ele>
        <time>2013-05-11T13:41:57Z</time>
      </trkpt>
      <trkpt lat="40.529033" lon="-4.979967">
        <ele>1900.0</ele>
        <time>2013-05-11T13:41:58Z</time>
      </trkpt>
      <trkpt lat="40.529033" lon="-4.979850">
        <ele>1898.0</ele>
        <time>2013-05-11T13:41:59Z</time>
      </trkpt>
      <trkpt lat="40.529033" lon="-4.979733">
        <ele>1896.0</ele>
        <time>2013-05-11T13:42:00Z</time>
      </trkpt>
      <trkpt lat="40.529050" lon="-4.979617">
        <ele>1892.0</ele>
        <time>2013-05-11T13:42:01Z</time>
      </trkpt>
      <trkpt lat="40.529067" lon="-4.979500">
        <ele>1889.0</ele>
        <time>2013-05-11T13:42:02Z</time>
      </trkpt>
      <trkpt lat="40.529083" lon="-4.979367">
        <ele>1885.0</ele>
        <time>2013-05-11T13:42:03Z</time>
      </trkpt>
      <trkpt lat="40.529100" lon="-4.979217">
        <ele>1882.0</ele>
        <time>2013-05-11T13:42:04Z</time>
      </trkpt>
      <trkpt lat="40.529100" lon="-4.979083">
        <ele>1880.0</ele>
        <time>2013-05-11T13:42:05Z</time>
      </trkpt>
      <trkpt lat="40.529117" lon="-4.978950">
        <ele>1878.0</ele>
        <time>2013-05-11T13:42:06Z</time>
      </trkpt>
      <trkpt lat="40.529133" lon="-4.978833">
        <ele>1875.0</ele>
        <time>2013-05-11T13:42:07Z</time>
      </trkpt>
      <trkpt lat="40.529150" lon="-4.978700">
        <ele>1873.0</ele>
        <time>2013-05-11T13:42:08Z</time>
      </trkpt>
      <trkpt lat="40.529167" lon="-4.978567">
        <ele>1870.0</ele>
        <time>2013-05-11T13:42:09Z</time>
      </trkpt>
      <trkpt lat="40.529167" lon="-4.978433">
        <ele>1868.0</ele>
        <time>2013-05-11T13:42:10Z</time>
      </trkpt>
      <trkpt lat="40.529183" lon="-4.978300">
        <ele>1865.0</ele>
        <time>2013-05-11T13:42:11Z</time>
      </trkpt>
      <trkpt lat="40.529183" lon="-4.978167">
        <ele>1863.0</ele>
        <time>2013-05-11T13:42:12Z</time>
      </trkpt>
      <trkpt lat="40.529200" lon="-4.978017">
        <ele>1860.0</ele>
        <time>2013-05-11T13:42:13Z</time>
      </trkpt>
      <trkpt lat="40.529217" lon="-4.977883">
        <ele>1858.0</ele>
        <time>2013-05-11T13:42:14Z</time>
      </trkpt>
      <trkpt lat="40.529233" lon="-4.977750">
        <ele>1856.0</ele>
        <time>2013-05-11T13:42:15Z</time>
      </trkpt>
      <trkpt lat="40.529233" lon="-4.977617">
        <ele>1854.0</ele>
        <time>2013-05-11T13:42:16Z</time>
      </trkpt>
      <trkpt lat="40.529250" lon="-4.977467">
        <ele>1852.0</ele>
        <time>2013-05-11T13:42:17Z</time>
      </trkpt>
      <trkpt lat="40.529250" lon="-4.977333">
        <ele>1849.0</ele>
        <time>2013-05-11T13:42:18Z</time>
      </trkpt>
      <trkpt lat="40.529267" lon="-4.977200">
        <ele>1848.0</ele>
        <time>2013-05-11T13:42:19Z</time>
      </trkpt>
      <trkpt lat="40.529283" lon="-4.977050">
        <ele>1846.0</ele>
        <time>2013-05-11T13:42:20Z</time>
      </trkpt>
      <trkpt lat="40.529300" lon="-4.976917">
        <ele>1846.0</ele>
        <time>2013-05-11T13:42:21Z</time>
      </trkpt>
      <trkpt lat="40.529300" lon="-4.976783">
        <ele>1845.0</ele>
        <time>2013-05-11T13:42:22Z</time>
      </trkpt>
      <trkpt lat="40.529317" lon="-4.976650">
        <ele>1844.0</ele>
        <time>2013-05-11T13:42:23Z</time>
      </trkpt>
      <trkpt lat="40.529333" lon="-4.976533">
        <ele>1843.0</ele>
        <time>2013-05-11T13:42:24Z</time>
      </trkpt>
      <trkpt lat="40.529350" lon="-4.976400">
        <ele>1843.0</ele>
        <time>2013-05-11T13:42:25Z</time>
      </trkpt>
      <trkpt lat="40.529367" lon="-4.976283">
        <ele>1842.0</ele>
        <time>2013-05-11T13:42:26Z</time>
      </trkpt>
      <trkpt lat="40.529383" lon="-4.976150">
        <ele>1842.0</ele>
        <time>2013-05-11T13:42:27Z</time>
      </trkpt>
      <trkpt lat="40.529400" lon="-4.976017">
        <ele>1842.0</ele>
        <time>2013-05-11T13:42:28Z</time>
      </trkpt>
      <trkpt lat="40.529400" lon="-4.975900">
        <ele>1843.0</ele>
        <time>2013-05-11T13:42:29Z</time>
      </trkpt>
      <trkpt lat="40.529417" lon="-4.975783">
        <ele>1843.0</ele>
        <time>2013-05-11T13:42:30Z</time>
      </trkpt>
      <trkpt lat="40.529417" lon="-4.975667">
        <ele>1842.0</ele>
        <time>2013-05-11T13:42:31Z</time>
      </trkpt>
      <trkpt lat="40.529417" lon="-4.975550">
        <ele>1841.0</ele>
        <time>2013-05-11T13:42:32Z</time>
      </trkpt>
      <trkpt lat="40.529400" lon="-4.975417">
        <ele>1840.0</ele>
        <time>2013-05-11T13:42:33Z</time>
      </trkpt>
      <trkpt lat="40.529400" lon="-4.975300">
        <ele>1839.0</ele>
        <time>2013-05-11T13:42:34Z</time>
      </trkpt>
      <trkpt lat="40.529400" lon="-4.975167">
        <ele>1839.0</ele>
        <time>2013-05-11T13:42:35Z</time>
      </trkpt>
      <trkpt lat="40.529400" lon="-4.975050">
        <ele>1838.0</ele>
        <time>2013-05-11T13:42:36Z</time>
      </trkpt>
      <trkpt lat="40.529400" lon="-4.974917">
        <ele>1838.0</ele>
        <time>2013-05-11T13:42:37Z</time>
      </trkpt>
      <trkpt lat="40.529400" lon="-4.974783">
        <ele>1838.0</ele>
        <time>2013-05-11T13:42:38Z</time>
      </trkpt>
      <trkpt lat="40.529417" lon="-4.974667">
        <ele>1838.0</ele>
        <time>2013-05-11T13:42:39Z</time>
      </trkpt>
      <trkpt lat="40.529417" lon="-4.974550">
        <ele>1838.0</ele>
        <time>2013-05-11T13:42:40Z</time>
      </trkpt>
      <trkpt lat="40.529433" lon="-4.974433">
        <ele>1837.0</ele>
        <time>2013-05-11T13:42:41Z</time>
      </trkpt>
      <trkpt lat="40.529433" lon="-4.974300">
        <ele>1835.0</ele>
        <time>2013-05-11T13:42:42Z</time>
      </trkpt>
      <trkpt lat="40.529433" lon="-4.974167">
        <ele>1833.0</ele>
        <time>2013-05-11T13:42:43Z</time>
      </trkpt>
      <trkpt lat="40.529450" lon="-4.974033">
        <ele>1833.0</ele>
        <time>2013-05-11T13:42:44Z</time>
      </trkpt>
      <trkpt lat="40.529467" lon="-4.973917">
        <ele>1833.0</ele>
        <time>2013-05-11T13:42:45Z</time>
      </trkpt>
      <trkpt lat="40.529467" lon="-4.973800">
        <ele>1833.0</ele>
        <time>2013-05-11T13:42:46Z</time>
      </trkpt>
      <trkpt lat="40.529467" lon="-4.973700">
        <ele>1832.0</ele>
        <time>2013-05-11T13:42:47Z</time>
      </trkpt>
      <trkpt lat="40.529467" lon="-4.973567">
        <ele>1831.0</ele>
        <time>2013-05-11T13:42:48Z</time>
      </trkpt>
      <trkpt lat="40.529467" lon="-4.973450">
        <ele>1830.0</ele>
        <time>2013-05-11T13:42:49Z</time>
      </trkpt>
      <trkpt lat="40.529467" lon="-4.973317">
        <ele>1830.0</ele>
        <time>2013-05-11T13:42:50Z</time>
      </trkpt>
      <trkpt lat="40.529467" lon="-4.973200">
        <ele>1830.0</ele>
        <time>2013-05-11T13:42:51Z</time>
      </trkpt>
      <trkpt lat="40.529467" lon="-4.973083">
        <ele>1830.0</ele>
        <time>2013-05-11T13:42:52Z</time>
      </trkpt>
      <trkpt lat="40.529467" lon="-4.972950">
        <ele>1831.0</ele>
        <time>2013-05-11T13:42:53Z</time>
      </trkpt>
      <trkpt lat="40.529467" lon="-4.972833">
        <ele>1831.0</ele>
        <time>2013-05-11T13:42:54Z</time>
      </trkpt>
      <trkpt lat="40.529467" lon="-4.972700">
        <ele>1831.0</ele>
        <time>2013-05-11T13:42:55Z</time>
      </trkpt>
      <trkpt lat="40.529467" lon="-4.972583">
        <ele>1831.0</ele>
        <time>2013-05-11T13:42:56Z</time>
      </trkpt>
      <trkpt lat="40.529467" lon="-4.972433">
        <ele>1831.0</ele>
        <time>2013-05-11T13:42:57Z</time>
      </trkpt>
      <trkpt lat="40.529467" lon="-4.972300">
        <ele>1831.0</ele>
        <time>2013-05-11T13:42:58Z</time>
      </trkpt>
      <trkpt lat="40.529450" lon="-4.972150">
        <ele>1832.0</ele>
        <time>2013-05-11T13:42:59Z</time>
      </trkpt>
      <trkpt lat="40.529450" lon="-4.972033">
        <ele>1833.0</ele>
        <time>2013-05-11T13:43:00Z</time>
      </trkpt>
      <trkpt lat="40.529450" lon="-4.971917">
        <ele>1834.0</ele>
        <time>2013-05-11T13:43:01Z</time>
      </trkpt>
      <trkpt lat="40.529450" lon="-4.971800">
        <ele>1837.0</ele>
        <time>2013-05-11T13:43:02Z</time>
      </trkpt>
      <trkpt lat="40.529450" lon="-4.971683">
        <ele>1839.0</ele>
        <time>2013-05-11T13:43:03Z</time>
      </trkpt>
      <trkpt lat="40.529433" lon="-4.971583">
        <ele>1842.0</ele>
        <time>2013-05-11T13:43:04Z</time>
      </trkpt>
      <trkpt lat="40.529433" lon="-4.971500">
        <ele>1845.0</ele>
        <time>2013-05-11T13:43:05Z</time>
      </trkpt>
      <trkpt lat="40.529433" lon="-4.971417">
        <ele>1848.0</ele>
        <time>2013-05-11T13:43:06Z</time>
      </trkpt>
      <trkpt lat="40.529433" lon="-4.971333">
        <ele>1850.0</ele>
        <time>2013-05-11T13:43:07Z</time>
      </trkpt>
      <trkpt lat="40.529417" lon="-4.971233">
        <ele>1851.0</ele>
        <time>2013-05-11T13:43:08Z</time>
      </trkpt>
      <trkpt lat="40.529367" lon="-4.971117">
        <ele>1851.0</ele>
        <time>2013-05-11T13:43:09Z</time>
      </trkpt>
      <trkpt lat="40.529300" lon="-4.971017">
        <ele>1852.0</ele>
        <time>2013-05-11T13:43:10Z</time>
      </trkpt>
      <trkpt lat="40.529233" lon="-4.970900">
        <ele>1855.0</ele>
        <time>2013-05-11T13:43:11Z</time>
      </trkpt>
      <trkpt lat="40.529167" lon="-4.970817">
        <ele>1858.0</ele>
        <time>2013-05-11T13:43:12Z</time>
      </trkpt>
      <trkpt lat="40.529083" lon="-4.970750">
        <ele>1861.0</ele>
        <time>2013-05-11T13:43:13Z</time>
      </trkpt>
      <trkpt lat="40.529017" lon="-4.970717">
        <ele>1862.0</ele>
        <time>2013-05-11T13:43:14Z</time>
      </trkpt>
      <trkpt lat="40.528917" lon="-4.970683">
        <ele>1862.0</ele>
        <time>2013-05-11T13:43:15Z</time>
      </trkpt>
      <trkpt lat="40.528817" lon="-4.970667">
        <ele>1861.0</ele>
        <time>2013-05-11T13:43:16Z</time>
      </trkpt>
      <trkpt lat="40.528700" lon="-4.970650">
        <ele>1861.0</ele>
        <time>2013-05-11T13:43:17Z</time>
      </trkpt>
      <trkpt lat="40.528600" lon="-4.970683">
        <ele>1863.0</ele>
        <time>2013-05-11T13:43:18Z</time>
      </trkpt>
      <trkpt lat="40.528517" lon="-4.970750">
        <ele>1864.0</ele>
        <time>2013-05-11T13:43:19Z</time>
      </trkpt>
      <trkpt lat="40.528450" lon="-4.970850">
        <ele>1864.0</ele>
        <time>2013-05-11T13:43:20Z</time>
      </trkpt>
      <trkpt lat="40.528433" lon="-4.970950">
        <ele>1866.0</ele>
        <time>2013-05-11T13:43:21Z</time>
      </trkpt>
      <trkpt lat="40.528433" lon="-4.971050">
        <ele>1869.0</ele>
        <time>2013-05-11T13:43:22Z</time>
      </trkpt>
      <trkpt lat="40.528417" lon="-4.971100">
        <ele>1873.0</ele>
        <time>2013-05-11T13:43:23Z</time>
      </trkpt>
      <trkpt lat="40.528417" lon="-4.971150">
        <ele>1875.0</ele>
        <time>2013-05-11T13:43:24Z</time>
      </trkpt>
      <trkpt lat="40.528417" lon="-4.971183">
        <ele>1875.0</ele>
        <time>2013-05-11T13:43:25Z</time>
      </trkpt>
      <trkpt lat="40.528450" lon="-4.971217">
        <ele>1874.0</ele>
        <time>2013-05-11T13:43:26Z</time>
      </trkpt>
      <trkpt lat="40.528483" lon="-4.971283">
        <ele>1872.0</ele>
        <time>2013-05-11T13:43:27Z</time>
      </trkpt>
      <trkpt lat="40.528567" lon="-4.971317">
        <ele>1872.0</ele>
        <time>2013-05-11T13:43:28Z</time>
      </trkpt>
      <trkpt lat="40.528633" lon="-4.971333">
        <ele>1874.0</ele>
        <time>2013-05-11T13:43:29Z</time>
      </trkpt>
      <trkpt lat="40.528700" lon="-4.971317">
        <ele>1877.0</ele>
        <time>2013-05-11T13:43:30Z</time>
      </trkpt>
      <trkpt lat="40.528750" lon="-4.971300">
        <ele>1880.0</ele>
        <time>2013-05-11T13:43:31Z</time>
      </trkpt>
      <trkpt lat="40.528783" lon="-4.971267">
        <ele>1882.0</ele>
        <time>2013-05-11T13:43:32Z</time>
      </trkpt>
      <trkpt lat="40.528833" lon="-4.971233">
        <ele>1884.0</ele>
        <time>2013-05-11T13:43:33Z</time>
      </trkpt>
      <trkpt lat="40.528883" lon="-4.971183">
        <ele>1885.0</ele>
        <time>2013-05-11T13:43:34Z</time>
      </trkpt>
      <trkpt lat="40.528933" lon="-4.971117">
        <ele>1885.0</ele>
        <time>2013-05-11T13:43:35Z</time>
      </trkpt>
      <trkpt lat="40.528983" lon="-4.971033">
        <ele>1887.0</ele>
        <time>2013-05-11T13:43:36Z</time>
      </trkpt>
      <trkpt lat="40.529033" lon="-4.970967">
        <ele>1890.0</ele>
        <time>2013-05-11T13:43:37Z</time>
      </trkpt>
      <trkpt lat="40.529067" lon="-4.970883">
        <ele>1894.0</ele>
        <time>2013-05-11T13:43:38Z</time>
      </trkpt>
      <trkpt lat="40.529100" lon="-4.970817">
        <ele>1896.0</ele>
        <time>2013-05-11T13:43:39Z</time>
      </trkpt>
      <trkpt lat="40.529133" lon="-4.970733">
        <ele>1898.0</ele>
        <time>2013-05-11T13:43:40Z</time>
      </trkpt>
      <trkpt lat="40.529133" lon="-4.970633">
        <ele>1899.0</ele>
        <time>2013-05-11T13:43:41Z</time>
      </trkpt>
      <trkpt lat="40.529133" lon="-4.970517">
        <ele>1900.0</ele>
        <time>2013-05-11T13:43:42Z</time>
      </trkpt>
      <trkpt lat="40.529117" lon="-4.970400">
        <ele>1902.0</ele>
        <time>2013-05-11T13:43:43Z</time>
      </trkpt>
      <trkpt lat="40.529100" lon="-4.970283">
        <ele>1904.0</ele>
        <time>2013-05-11T13:43:44Z</time>
      </trkpt>
      <trkpt lat="40.529083" lon="-4.970183">
        <ele>1906.0</ele>
        <time>2013-05-11T13:43:45Z</time>
      </trkpt>
      <trkpt lat="40.529067" lon="-4.970083">
        <ele>1907.0</ele>
        <time>2013-05-11T13:43:46Z</time>
      </trkpt>
      <trkpt lat="40.529017" lon="-4.969983">
        <ele>1908.0</ele>
        <time>2013-05-11T13:43:47Z</time>
      </trkpt>
      <trkpt lat="40.528967" lon="-4.969900">
        <ele>1909.0</ele>
        <time>2013-05-11T13:43:48Z</time>
      </trkpt>
      <trkpt lat="40.528883" lon="-4.969817">
        <ele>1911.0</ele>
        <time>2013-05-11T13:43:49Z</time>
      </trkpt>
      <trkpt lat="40.528800" lon="-4.969767">
        <ele>1914.0</ele>
        <time>2013-05-11T13:43:50Z</time>
      </trkpt>
      <trkpt lat="40.528717" lon="-4.969717">
        <ele>1917.0</ele>
        <time>2013-05-11T13:43:51Z</time>
      </trkpt>
      <trkpt lat="40.528633" lon="-4.969683">
        <ele>1919.0</ele>
        <time>2013-05-11T13:43:52Z</time>
      </trkpt>
      <trkpt lat="40.528550" lon="-4.969667">
        <ele>1922.0</ele>
        <time>2013-05-11T13:43:53Z</time>
      </trkpt>
      <trkpt lat="40.528450" lon="-4.969683">
        <ele>1924.0</ele>
        <time>2013-05-11T13:43:54Z</time>
      </trkpt>
      <trkpt lat="40.528367" lon="-4.969733">
        <ele>1925.0</ele>
        <time>2013-05-11T13:43:55Z</time>
      </trkpt>
      <trkpt lat="40.528283" lon="-4.969817">
        <ele>1927.0</ele>
        <time>2013-05-11T13:43:56Z</time>
      </trkpt>
      <trkpt lat="40.528217" lon="-4.969917">
        <ele>1930.0</ele>
        <time>2013-05-11T13:43:57Z</time>
      </trkpt>
      <trkpt lat="40.528167" lon="-4.970000">
        <ele>1933.0</ele>
        <time>2013-05-11T13:43:58Z</time>
      </trkpt>
      <trkpt lat="40.528117" lon="-4.970083">
        <ele>1937.0</ele>
        <time>2013-05-11T13:43:59Z</time>
      </trkpt>
      <trkpt lat="40.528083" lon="-4.970167">
        <ele>1939.0</ele>
        <time>2013-05-11T13:44:00Z</time>
      </trkpt>
      <trkpt lat="40.528050" lon="-4.970283">
        <ele>1940.0</ele>
        <time>2013-05-11T13:44:01Z</time>
      </trkpt>
      <trkpt lat="40.528033" lon="-4.970400">
        <ele>1943.0</ele>
        <time>2013-05-11T13:44:02Z</time>
      </trkpt>
      <trkpt lat="40.528033" lon="-4.970500">
        <ele>1946.0</ele>
        <time>2013-05-11T13:44:03Z</time>
      </trkpt>
      <trkpt lat="40.528050" lon="-4.970583">
        <ele>1949.0</ele>
        <time>2013-05-11T13:44:04Z</time>
      </trkpt>
      <trkpt lat="40.528067" lon="-4.970633">
        <ele>1951.0</ele>
        <time>2013-05-11T13:44:05Z</time>
      </trkpt>
      <trkpt lat="40.528100" lon="-4.970683">
        <ele>1952.0</ele>
        <time>2013-05-11T13:44:06Z</time>
      </trkpt>
      <trkpt lat="40.528150" lon="-4.970717">
        <ele>1952.0</ele>
        <time>2013-05-11T13:44:07Z</time>
      </trkpt>
      <trkpt lat="40.528217" lon="-4.970750">
        <ele>1953.0</ele>
        <time>2013-05-11T13:44:08Z</time>
      </trkpt>
      <trkpt lat="40.528283" lon="-4.970750">
        <ele>1955.0</ele>
        <time>2013-05-11T13:44:09Z</time>
      </trkpt>
      <trkpt lat="40.528350" lon="-4.970733">
        <ele>1958.0</ele>
        <time>2013-05-11T13:44:10Z</time>
      </trkpt>
      <trkpt lat="40.528400" lon="-4.970683">
        <ele>1960.0</ele>
        <time>2013-05-11T13:44:11Z</time>
      </trkpt>
      <trkpt lat="40.528467" lon="-4.970617">
        <ele>1962.0</ele>
        <time>2013-05-11T13:44:12Z</time>
      </trkpt>
      <trkpt lat="40.528517" lon="-4.970550">
        <ele>1964.0</ele>
        <time>2013-05-11T13:44:13Z</time>
      </trkpt>
      <trkpt lat="40.528567" lon="-4.970483">
        <ele>1967.0</ele>
        <time>2013-05-11T13:44:14Z</time>
      </trkpt>
      <trkpt lat="40.528600" lon="-4.970400">
        <ele>1970.0</ele>
        <time>2013-05-11T13:44:15Z</time>
      </trkpt>
      <trkpt lat="40.528617" lon="-4.970300">
        <ele>1971.0</ele>
        <time>2013-05-11T13:44:16Z</time>
      </trkpt>
      <trkpt lat="40.528600" lon="-4.970183">
        <ele>1972.0</ele>
        <time>2013-05-11T13:44:17Z</time>
      </trkpt>
      <trkpt lat="40.528583" lon="-4.970067">
        <ele>1974.0</ele>
        <time>2013-05-11T13:44:18Z</time>
      </trkpt>
      <trkpt lat="40.528550" lon="-4.969967">
        <ele>1977.0</ele>
        <time>2013-05-11T13:44:19Z</time>
      </trkpt>
      <trkpt lat="40.528500" lon="-4.969867">
        <ele>1980.0</ele>
        <time>2013-05-11T13:44:20Z</time>
      </trkpt>
      <trkpt lat="40.528450" lon="-4.969800">
        <ele>1982.0</ele>
        <time>2013-05-11T13:44:21Z</time>
      </trkpt>
      <trkpt lat="40.528367" lon="-4.969733">
        <ele>1984.0</ele>
        <time>2013-05-11T13:44:22Z</time>
      </trkpt>
      <trkpt lat="40.528283" lon="-4.969683">
        <ele>1986.0</ele>
        <time>2013-05-11T13:44:23Z</time>
      </trkpt>
      <trkpt lat="40.528167" lon="-4.969667">
        <ele>1988.0</ele>
        <time>2013-05-11T13:44:24Z</time>
      </trkpt>
      <trkpt lat="40.528067" lon="-4.969667">
        <ele>1992.0</ele>
        <time>2013-05-11T13:44:25Z</time>
      </trkpt>
      <trkpt lat="40.527967" lon="-4.969700">
        <ele>1996.0</ele>
        <time>2013-05-11T13:44:26Z</time>
      </trkpt>
      <trkpt lat="40.527900" lon="-4.969750">
        <ele>2000.0</ele>
        <time>2013-05-11T13:44:27Z</time>
      </trkpt>
      <trkpt lat="40.527817" lon="-4.969800">
        <ele>2003.0</ele>
        <time>2013-05-11T13:44:28Z</time>
      </trkpt>
      <trkpt lat="40.527750" lon="-4.969867">
        <ele>2004.0</ele>
        <time>2013-05-11T13:44:29Z</time>
      </trkpt>
      <trkpt lat="40.527700" lon="-4.969967">
        <ele>2006.0</ele>
        <time>2013-05-11T13:44:30Z</time>
      </trkpt>
      <trkpt lat="40.527650" lon="-4.970067">
        <ele>2007.0</ele>
        <time>2013-05-11T13:44:31Z</time>
      </trkpt>
      <trkpt lat="40.527650" lon="-4.970200">
        <ele>2008.0</ele>
        <time>2013-05-11T13:44:32Z</time>
      </trkpt>
      <trkpt lat="40.527667" lon="-4.970317">
        <ele>2010.0</ele>
        <time>2013-05-11T13:44:33Z</time>
      </trkpt>
      <trkpt lat="40.527717" lon="-4.970417">
        <ele>2012.0</ele>
        <time>2013-05-11T13:44:34Z</time>
      </trkpt>
      <trkpt lat="40.527767" lon="-4.970500">
        <ele>2015.0</ele>
        <time>2013-05-11T13:44:35Z</time>
      </trkpt>
      <trkpt lat="40.527833" lon="-4.970567">
        <ele>2018.0</ele>
        <time>2013-05-11T13:44:36Z</time>
      </trkpt>
      <trkpt lat="40.527883" lon="-4.970617">
        <ele>2020.0</ele>
        <time>2013-05-11T13:44:37Z</time>
      </trkpt>
      <trkpt lat="40.527933" lon="-4.970667">
        <ele>2021.0</ele>
        <time>2013-05-11T13:44:38Z</time>
      </trkpt>
      <trkpt lat="40.528017" lon="-4.970683">
        <ele>2022.0</ele>
        <time>2013-05-11T13:44:39Z</time>
      </trkpt>
      <trkpt lat="40.528083" lon="-4.970667">
        <ele>2023.0</ele>
        <time>2013-05-11T13:44:40Z</time>
      </trkpt>
      <trkpt lat="40.528150" lon="-4.970617">
        <ele>2025.0</ele>
        <time>2013-05-11T13:44:41Z</time>
      </trkpt>
      <trkpt lat="40.528217" lon="-4.970533">
        <ele>2027.0</ele>
        <time>2013-05-11T13:44:42Z</time>
      </trkpt>
      <trkpt lat="40.528250" lon="-4.970450">
        <ele>2029.0</ele>
        <time>2013-05-11T13:44:43Z</time>
      </trkpt>
      <trkpt lat="40.528283" lon="-4.970333">
        <ele>2031.0</ele>
        <time>2013-05-11T13:44:44Z</time>
      </trkpt>
      <trkpt lat="40.528283" lon="-4.970217">
        <ele>2032.0</ele>
        <time>2013-05-11T13:44:45Z</time>
      </trkpt>
      <trkpt lat="40.528250" lon="-4.970100">
        <ele>2033.0</ele>
        <time>2013-05-11T13:44:46Z</time>
      </trkpt>
      <trkpt lat="40.528217" lon="-4.969983">
        <ele>2035.0</ele>
        <time>2013-05-11T13:44:47Z</time>
      </trkpt>
      <trkpt lat="40.528167" lon="-4.969883">
        <ele>2037.0</ele>
        <time>2013-05-11T13:44:48Z</time>
      </trkpt>
      <trkpt lat="40.528100" lon="-4.969800">
        <ele>2040.0</ele>
        <time>2013-05-11T13:44:49Z</time>
      </trkpt>
      <trkpt lat="40.528050" lon="-4.969717">
        <ele>2042.0</ele>
        <time>2013-05-11T13:44:50Z</time>
      </trkpt>
      <trkpt lat="40.527967" lon="-4.969650">
        <ele>2044.0</ele>
        <time>2013-05-11T13:44:51Z</time>
      </trkpt>
      <trkpt lat="40.527883" lon="-4.969600">
        <ele>2046.0</ele>
        <time>2013-05-11T13:44:52Z</time>
      </trkpt>
      <trkpt lat="40.527783" lon="-4.969567">
        <ele>2049.0</ele>
        <time>2013-05-11T13:44:53Z</time>
      </trkpt>
      <trkpt lat="40.527683" lon="-4.969550">
        <ele>2052.0</ele>
        <time>2013-05-11T13:44:54Z</time>
      </trkpt>
      <trkpt lat="40.527600" lon="-4.969583">
        <ele>2056.0</ele>
        <time>2013-05-11T13:44:55Z</time>
      </trkpt>
      <trkpt lat="40.527533" lon="-4.969617">
        <ele>2060.0</ele>
        <time>2013-05-11T13:44:56Z</time>
      </trkpt>
      <trkpt lat="40.527467" lon="-4.969683">
        <ele>2062.0</ele>
        <time>2013-05-11T13:44:57Z</time>
      </trkpt>
      <trkpt lat="40.527417" lon="-4.969783">
        <ele>2064.0</ele>
        <time>2013-05-11T13:44:58Z</time>
      </trkpt>
      <trkpt lat="40.527367" lon="-4.969900">
        <ele>2066.0</ele>
        <time>2013-05-11T13:44:59Z</time>
      </trkpt>
      <trkpt lat="40.527350" lon="-4.970017">
        <ele>2068.0</ele>
        <time>2013-05-11T13:45:00Z</time>
      </trkpt>
      <trkpt lat="40.527367" lon="-4.970133">
        <ele>2070.0</ele>
        <time>2013-05-11T13:45:01Z</time>
      </trkpt>
      <trkpt lat="40.527400" lon="-4.970233">
        <ele>2072.0</ele>
        <time>2013-05-11T13:45:02Z</time>
      </trkpt>
      <trkpt lat="40.527450" lon="-4.970317">
        <ele>2074.0</ele>
        <time>2013-05-11T13:45:03Z</time>
      </trkpt>
      <trkpt lat="40.527517" lon="-4.970383">
        <ele>2076.0</ele>
        <time>2013-05-11T13:45:04Z</time>
      </trkpt>
      <trkpt lat="40.527583" lon="-4.970450">
        <ele>2079.0</ele>
        <time>2013-05-11T13:45:05Z</time>
      </trkpt>
      <trkpt lat="40.527650" lon="-4.970483">
        <ele>2081.0</ele>
        <time>2013-05-11T13:45:06Z</time>
      </trkpt>
      <trkpt lat="40.527717" lon="-4.970500">
        <ele>2083.0</ele>
        <time>2013-05-11T13:45:07Z</time>
      </trkpt>
      <trkpt lat="40.527783" lon="-4.970483">
        <ele>2084.0</ele>
        <time>2013-05-11T13:45:08Z</time>
      </trkpt>
      <trkpt lat="40.527867" lon="-4.970433">
        <ele>2085.0</ele>
        <time>2013-05-11T13:45:09Z</time>
      </trkpt>
      <trkpt lat="40.527917" lon="-4.970367">
        <ele>2086.0</ele>
        <time>2013-05-11T13:45:10Z</time>
      </trkpt>
      <trkpt lat="40.527967" lon="-4.970267">
        <ele>2087.0</ele>
        <time>2013-05-11T13:45:11Z</time>
      </trkpt>
      <trkpt lat="40.528000" lon="-4.970167">
        <ele>2088.0</ele>
        <time>2013-05-11T13:45:12Z</time>
      </trkpt>
      <trkpt lat="40.528017" lon="-4.970050">
        <ele>2091.0</ele>
        <time>2013-05-11T13:45:13Z</time>
      </trkpt>
      <trkpt lat="40.528017" lon="-4.969933">
        <ele>2093.0</ele>
        <time>2013-05-11T13:45:14Z</time>
      </trkpt>
      <trkpt lat="40.528000" lon="-4.969817">
        <ele>2096.0</ele>
        <time>2013-05-11T13:45:15Z</time>
      </trkpt>
      <trkpt lat="40.527983" lon="-4.969717">
        <ele>2098.0</ele>
        <time>2013-05-11T13:45:16Z</time>
      </trkpt>
      <trkpt lat="40.527950" lon="-4.969617">
        <ele>2100.0</ele>
        <time>2013-05-11T13:45:17Z</time>
      </trkpt>
      <trkpt lat="40.527900" lon="-4.969517">
        <ele>2102.0</ele>
        <time>2013-05-11T13:45:18Z</time>
      </trkpt>
      <trkpt lat="40.527833" lon="-4.969417">
        <ele>2103.0</ele>
        <time>2013-05-11T13:45:19Z</time>
      </trkpt>
      <trkpt lat="40.527767" lon="-4.969333">
        <ele>2105.0</ele>
        <time>2013-05-11T13:45:20Z</time>
      </trkpt>
      <trkpt lat="40.527683" lon="-4.969267">
        <ele>2108.0</ele>
        <time>2013-05-11T13:45:21Z</time>
      </trkpt>
      <trkpt lat="40.527600" lon="-4.969250">
        <ele>2111.0</ele>
        <time>2013-05-11T13:45:22Z</time>
      </trkpt>
      <trkpt lat="40.527517" lon="-4.969250">
        <ele>2113.0</ele>
        <time>2013-05-11T13:45:23Z</time>
      </trkpt>
      <trkpt lat="40.527433" lon="-4.969283">
        <ele>2114.0</ele>
        <time>2013-05-11T13:45:24Z</time>
      </trkpt>
      <trkpt lat="40.527350" lon="-4.969333">
        <ele>2115.0</ele>
        <time>2013-05-11T13:45:25Z</time>
      </trkpt>
      <trkpt lat="40.527267" lon="-4.969383">
        <ele>2118.0</ele>
        <time>2013-05-11T13:45:26Z</time>
      </trkpt>
      <trkpt lat="40.527200" lon="-4.969467">
        <ele>2121.0</ele>
        <time>2013-05-11T13:45:27Z</time>
      </trkpt>
      <trkpt lat="40.527150" lon="-4.969550">
        <ele>2124.0</ele>
        <time>2013-05-11T13:45:28Z</time>
      </trkpt>
      <trkpt lat="40.527117" lon="-4.969650">
        <ele>2126.0</ele>
        <time>2013-05-11T13:45:29Z</time>
      </trkpt>
      <trkpt lat="40.527133" lon="-4.969750">
        <ele>2128.0</ele>
        <time>2013-05-11T13:45:30Z</time>
      </trkpt>
      <trkpt lat="40.527150" lon="-4.969833">
        <ele>2129.0</ele>
        <time>2013-05-11T13:45:31Z</time>
      </trkpt>
      <trkpt lat="40.527183" lon="-4.969917">
        <ele>2131.0</ele>
        <time>2013-05-11T13:45:32Z</time>
      </trkpt>
      <trkpt lat="40.527233" lon="-4.969983">
        <ele>2133.0</ele>
        <time>2013-05-11T13:45:33Z</time>
      </trkpt>
      <trkpt lat="40.527300" lon="-4.970017">
        <ele>2135.0</ele>
        <time>2013-05-11T13:45:34Z</time>
      </trkpt>
      <trkpt lat="40.527383" lon="-4.970017">
        <ele>2136.0</ele>
        <time>2013-05-11T13:45:35Z</time>
      </trkpt>
      <trkpt lat="40.527450" lon="-4.969983">
        <ele>2138.0</ele>
        <time>2013-05-11T13:45:36Z</time>
      </trkpt>
      <trkpt lat="40.527517" lon="-4.969933">
        <ele>2140.0</ele>
        <time>2013-05-11T13:45:37Z</time>
      </trkpt>
      <trkpt lat="40.527583" lon="-4.969850">
        <ele>2143.0</ele>
        <time>2013-05-11T13:45:38Z</time>
      </trkpt>
      <trkpt lat="40.527633" lon="-4.969783">
        <ele>2146.0</ele>
        <time>2013-05-11T13:45:39Z</time>
      </trkpt>
      <trkpt lat="40.527667" lon="-4.969700">
        <ele>2148.0</ele>
        <time>2013-05-11T13:45:40Z</time>
      </trkpt>
      <trkpt lat="40.527700" lon="-4.969617">
        <ele>2150.0</ele>
        <time>2013-05-11T13:45:41Z</time>
      </trkpt>
      <trkpt lat="40.527700" lon="-4.969500">
        <ele>2150.0</ele>
        <time>2013-05-11T13:45:42Z</time>
      </trkpt>
      <trkpt lat="40.527717" lon="-4.969367">
        <ele>2152.0</ele>
        <time>2013-05-11T13:45:43Z</time>
      </trkpt>
      <trkpt lat="40.527717" lon="-4.969250">
        <ele>2154.0</ele>
        <time>2013-05-11T13:45:44Z</time>
      </trkpt>
      <trkpt lat="40.527683" lon="-4.969133">
        <ele>2156.0</ele>
        <time>2013-05-11T13:45:45Z</time>
      </trkpt>
      <trkpt lat="40.527650" lon="-4.969033">
        <ele>2158.0</ele>
        <time>2013-05-11T13:45:46Z</time>
      </trkpt>
      <trkpt lat="40.527600" lon="-4.968950">
        <ele>2159.0</ele>
        <time>2013-05-11T13:45:47Z</time>
      </trkpt>
      <trkpt lat="40.527517" lon="-4.968883">
        <ele>2160.0</ele>
        <time>2013-05-11T13:45:48Z</time>
      </trkpt>
      <trkpt lat="40.527433" lon="-4.968833">
        <ele>2161.0</ele>
        <time>2013-05-11T13:45:49Z</time>
      </trkpt>
      <trkpt lat="40.527333" lon="-4.968800">
        <ele>2163.0</ele>
        <time>2013-05-11T13:45:50Z</time>
      </trkpt>
      <trkpt lat="40.527250" lon="-4.968800">
        <ele>2166.0</ele>
        <time>2013-05-11T13:45:51Z</time>
      </trkpt>
      <trkpt lat="40.527150" lon="-4.968817">
        <ele>2168.0</ele>
        <time>2013-05-11T13:45:52Z</time>
      </trkpt>
      <trkpt lat="40.527067" lon="-4.968867">
        <ele>2171.0</ele>
        <time>2013-05-11T13:45:53Z</time>
      </trkpt>
      <trkpt lat="40.527000" lon="-4.968933">
        <ele>2173.0</ele>
        <time>2013-05-11T13:45:54Z</time>
      </trkpt>
      <trkpt lat="40.526933" lon="-4.969017">
        <ele>2175.0</ele>
        <time>2013-05-11T13:45:55Z</time>
      </trkpt>
      <trkpt lat="40.526900" lon="-4.969133">
        <ele>2177.0</ele>
        <time>2013-05-11T13:45:56Z</time>
      </trkpt>
      <trkpt lat="40.526867" lon="-4.969233">
        <ele>2179.0</ele>
        <time>2013-05-11T13:45:57Z</time>
      </trkpt>
      <trkpt lat="40.526867" lon="-4.969350">
        <ele>2181.0</ele>
        <time>2013-05-11T13:45:58Z</time>
      </trkpt>
      <trkpt lat="40.526883" lon="-4.969450">
        <ele>2182.0</ele>
        <time>2013-05-11T13:45:59Z</time>
      </trkpt>
      <trkpt lat="40.526917" lon="-4.969533">
        <ele>2183.0</ele>
        <time>2013-05-11T13:46:00Z</time>
      </trkpt>
      <trkpt lat="40.526983" lon="-4.969600">
        <ele>2184.0</ele>
        <time>2013-05-11T13:46:01Z</time>
      </trkpt>
      <trkpt lat="40.527033" lon="-4.969633">
        <ele>2186.0</ele>
        <time>2013-05-11T13:46:02Z</time>
      </trkpt>
      <trkpt lat="40.527100" lon="-4.969667">
        <ele>2188.0</ele>
        <time>2013-05-11T13:46:03Z</time>
      </trkpt>
      <trkpt lat="40.527167" lon="-4.969667">
        <ele>2189.0</ele>
        <time>2013-05-11T13:46:04Z</time>
      </trkpt>
      <trkpt lat="40.527233" lon="-4.969650">
        <ele>2191.0</ele>
        <time>2013-05-11T13:46:05Z</time>
      </trkpt>
      <trkpt lat="40.527300" lon="-4.969583">
        <ele>2192.0</ele>
        <time>2013-05-11T13:46:06Z</time>
      </trkpt>
      <trkpt lat="40.527350" lon="-4.969517">
        <ele>2193.0</ele>
        <time>2013-05-11T13:46:07Z</time>
      </trkpt>
      <trkpt lat="40.527400" lon="-4.969433">
        <ele>2194.0</ele>
        <time>2013-05-11T13:46:08Z</time>
      </trkpt>
      <trkpt lat="40.527433" lon="-4.969333">
        <ele>2195.0</ele>
        <time>2013-05-11T13:46:09Z</time>
      </trkpt>
      <trkpt lat="40.527450" lon="-4.969233">
        <ele>2196.0</ele>
        <time>2013-05-11T13:46:10Z</time>
      </trkpt>
      <trkpt lat="40.527467" lon="-4.969133">
        <ele>2197.0</ele>
        <time>2013-05-11T13:46:11Z</time>
      </trkpt>
      <trkpt lat="40.527450" lon="-4.969017">
        <ele>2198.0</ele>
        <time>2013-05-11T13:46:12Z</time>
      </trkpt>
      <trkpt lat="40.527417" lon="-4.968900">
        <ele>2199.0</ele>
        <time>2013-05-11T13:46:13Z</time>
      </trkpt>
      <trkpt lat="40.527367" lon="-4.968800">
        <ele>2200.0</ele>
        <time>2013-05-11T13:46:14Z</time>
      </trkpt>
      <trkpt lat="40.527300" lon="-4.968700">
        <ele>2201.0</ele>
        <time>2013-05-11T13:46:15Z</time>
      </trkpt>
      <trkpt lat="40.527250" lon="-4.968617">
        <ele>2202.0</ele>
        <time>2013-05-11T13:46:16Z</time>
      </trkpt>
      <trkpt lat="40.527183" lon="-4.968533">
        <ele>2203.0</ele>
        <time>2013-05-11T13:46:17Z</time>
      </trkpt>
      <trkpt lat="40.527100" lon="-4.968467">
        <ele>2205.0</ele>
        <time>2013-05-11T13:46:18Z</time>
      </trkpt>
      <trkpt lat="40.527000" lon="-4.968417">
        <ele>2207.0</ele>
        <time>2013-05-11T13:46:19Z</time>
      </trkpt>
      <trkpt lat="40.526900" lon="-4.968383">
        <ele>2209.0</ele>
        <time>2013-05-11T13:46:20Z</time>
      </trkpt>
      <trkpt lat="40.526767" lon="-4.968383">
        <ele>2212.0</ele>
        <time>2013-05-11T13:46:21Z</time>
      </trkpt>
      <trkpt lat="40.526650" lon="-4.968383">
        <ele>2216.0</ele>
        <time>2013-05-11T13:46:22Z</time>
      </trkpt>
      <trkpt lat="40.526550" lon="-4.968400">
        <ele>2221.0</ele>
        <time>2013-05-11T13:46:23Z</time>
      </trkpt>
      <trkpt lat="40.526433" lon="-4.968417">
        <ele>2226.0</ele>
        <time>2013-05-11T13:46:24Z</time>
      </trkpt>
      <trkpt lat="40.526350" lon="-4.968433">
        <ele>2231.0</ele>
        <time>2013-05-11T13:46:25Z</time>
      </trkpt>
      <trkpt lat="40.526250" lon="-4.968467">
        <ele>2235.0</ele>
        <time>2013-05-11T13:46:26Z</time>
      </trkpt>
      <trkpt lat="40.526167" lon="-4.968533">
        <ele>2239.0</ele>
        <time>2013-05-11T13:46:27Z</time>
      </trkpt>
      <trkpt lat="40.526100" lon="-4.968617">
        <ele>2243.0</ele>
        <time>2013-05-11T13:46:28Z</time>
      </trkpt>
      <trkpt lat="40.526050" lon="-4.968717">
        <ele>2246.0</ele>
        <time>2013-05-11T13:46:29Z</time>
      </trkpt>
      <trkpt lat="40.526033" lon="-4.968833">
        <ele>2249.0</ele>
        <time>2013-05-11T13:46:30Z</time>
      </trkpt>
      <trkpt lat="40.526050" lon="-4.968933">
        <ele>2253.0</ele>
        <time>2013-05-11T13:46:31Z</time>
      </trkpt>
      <trkpt lat="40.526067" lon="-4.969017">
        <ele>2255.0</ele>
        <time>2013-05-11T13:46:32Z</time>
      </trkpt>
      <trkpt lat="40.526100" lon="-4.969083">
        <ele>2256.0</ele>
        <time>2013-05-11T13:46:33Z</time>
      </trkpt>
      <trkpt lat="40.526133" lon="-4.969133">
        <ele>2257.0</ele>
        <time>2013-05-11T13:46:34Z</time>
      </trkpt>
      <trkpt lat="40.526200" lon="-4.969167">
        <ele>2257.0</ele>
        <time>2013-05-11T13:46:35Z</time>
      </trkpt>
      <trkpt lat="40.526267" lon="-4.969217">
        <ele>2257.0</ele>
        <time>2013-05-11T13:46:36Z</time>
      </trkpt>
      <trkpt lat="40.526333" lon="-4.969200">
        <ele>2259.0</ele>
        <time>2013-05-11T13:46:37Z</time>
      </trkpt>
      <trkpt lat="40.526417" lon="-4.969150">
        <ele>2259.0</ele>
        <time>2013-05-11T13:46:38Z</time>
      </trkpt>
      <trkpt lat="40.526467" lon="-4.969067">
        <ele>2260.0</ele>
        <time>2013-05-11T13:46:39Z</time>
      </trkpt>
      <trkpt lat="40.526517" lon="-4.968967">
        <ele>2261.0</ele>
        <time>2013-05-11T13:46:40Z</time>
      </trkpt>
      <trkpt lat="40.526567" lon="-4.968867">
        <ele>2263.0</ele>
        <time>2013-05-11T13:46:41Z</time>
      </trkpt>
      <trkpt lat="40.526600" lon="-4.968767">
        <ele>2265.0</ele>
        <time>2013-05-11T13:46:42Z</time>
      </trkpt>
      <trkpt lat="40.526600" lon="-4.968667">
        <ele>2266.0</ele>
        <time>2013-05-11T13:46:43Z</time>
      </trkpt>
      <trkpt lat="40.526617" lon="-4.968550">
        <ele>2267.0</ele>
        <time>2013-05-11T13:46:44Z</time>
      </trkpt>
      <trkpt lat="40.526600" lon="-4.968433">
        <ele>2269.0</ele>
        <time>2013-05-11T13:46:45Z</time>
      </trkpt>
      <trkpt lat="40.526583" lon="-4.968317">
        <ele>2272.0</ele>
        <time>2013-05-11T13:46:46Z</time>
      </trkpt>
      <trkpt lat="40.526550" lon="-4.968200">
        <ele>2276.0</ele>
        <time>2013-05-11T13:46:47Z</time>
      </trkpt>
      <trkpt lat="40.526500" lon="-4.968083">
        <ele>2280.0</ele>
        <time>2013-05-11T13:46:48Z</time>
      </trkpt>
      <trkpt lat="40.526450" lon="-4.968000">
        <ele>2283.0</ele>
        <time>2013-05-11T13:46:49Z</time>
      </trkpt>
      <trkpt lat="40.526383" lon="-4.967917">
        <ele>2286.0</ele>
        <time>2013-05-11T13:46:50Z</time>
      </trkpt>
      <trkpt lat="40.526300" lon="-4.967833">
        <ele>2289.0</ele>
        <time>2013-05-11T13:46:51Z</time>
      </trkpt>
      <trkpt lat="40.526200" lon="-4.967767">
        <ele>2291.0</ele>
        <time>2013-05-11T13:46:52Z</time>
      </trkpt>
      <trkpt lat="40.526100" lon="-4.967717">
        <ele>2293.0</ele>
        <time>2013-05-11T13:46:53Z</time>
      </trkpt>
      <trkpt lat="40.525983" lon="-4.967700">
        <ele>2296.0</ele>
        <time>2013-05-11T13:46:54Z</time>
      </trkpt>
      <trkpt lat="40.525867" lon="-4.967733">
        <ele>2298.0</ele>
        <time>2013-05-11T13:46:55Z</time>
      </trkpt>
      <trkpt lat="40.525767" lon="-4.967783">
        <ele>2302.0</ele>
        <time>2013-05-11T13:46:56Z</time>
      </trkpt>
      <trkpt lat="40.525667" lon="-4.967850">
        <ele>2306.0</ele>
        <time>2013-05-11T13:46:57Z</time>
      </trkpt>
      <trkpt lat="40.525600" lon="-4.967917">
        <ele>2310.0</ele>
        <time>2013-05-11T13:46:58Z</time>
      </trkpt>
      <trkpt lat="40.525550" lon="-4.968000">
        <ele>2313.0</ele>
        <time>2013-05-11T13:46:59Z</time>
      </trkpt>
      <trkpt lat="40.525517" lon="-4.968100">
        <ele>2316.0</ele>
        <time>2013-05-11T13:47:00Z</time>
      </trkpt>
      <trkpt lat="40.525517" lon="-4.968217">
        <ele>2318.0</ele>
        <time>2013-05-11T13:47:01Z</time>
      </trkpt>
      <trkpt lat="40.525533" lon="-4.968333">
        <ele>2322.0</ele>
        <time>2013-05-11T13:47:02Z</time>
      </trkpt>
      <trkpt lat="40.525567" lon="-4.968417">
        <ele>2326.0</ele>
        <time>2013-05-11T13:47:03Z</time>
      </trkpt>
      <trkpt lat="40.525600" lon="-4.968483">
        <ele>2331.0</ele>
        <time>2013-05-11T13:47:04Z</time>
      </trkpt>
      <trkpt lat="40.525650" lon="-4.968500">
        <ele>2335.0</ele>
        <time>2013-05-11T13:47:05Z</time>
      </trkpt>
      <trkpt lat="40.525700" lon="-4.968500">
        <ele>2338.0</ele>
        <time>2013-05-11T13:47:06Z</time>
      </trkpt>
      <trkpt lat="40.525750" lon="-4.968483">
        <ele>2339.0</ele>
        <time>2013-05-11T13:47:07Z</time>
      </trkpt>
      <trkpt lat="40.525800" lon="-4.968467">
        <ele>2341.0</ele>
        <time>2013-05-11T13:47:08Z</time>
      </trkpt>
      <trkpt lat="40.525867" lon="-4.968400">
        <ele>2342.0</ele>
        <time>2013-05-11T13:47:09Z</time>
      </trkpt>
      <trkpt lat="40.525933" lon="-4.968317">
        <ele>2343.0</ele>
        <time>2013-05-11T13:47:10Z</time>
      </trkpt>
      <trkpt lat="40.525967" lon="-4.968183">
        <ele>2344.0</ele>
        <time>2013-05-11T13:47:11Z</time>
      </trkpt>
      <trkpt lat="40.526000" lon="-4.968050">
        <ele>2347.0</ele>
        <time>2013-05-11T13:47:12Z</time>
      </trkpt>
      <trkpt lat="40.526033" lon="-4.967917">
        <ele>2351.0</ele>
        <time>2013-05-11T13:47:13Z</time>
      </trkpt>
      <trkpt lat="40.526033" lon="-4.967783">
        <ele>2355.0</ele>
        <time>2013-05-11T13:47:14Z</time>
      </trkpt>
      <trkpt lat="40.526017" lon="-4.967667">
        <ele>2359.0</ele>
        <time>2013-05-11T13:47:15Z</time>
      </trkpt>
      <trkpt lat="40.525983" lon="-4.967567">
        <ele>2361.0</ele>
        <time>2013-05-11T13:47:16Z</time>
      </trkpt>
      <trkpt lat="40.525933" lon="-4.967450">
        <ele>2364.0</ele>
        <time>2013-05-11T13:47:17Z</time>
      </trkpt>
      <trkpt lat="40.525883" lon="-4.967350">
        <ele>2366.0</ele>
        <time>2013-05-11T13:47:18Z</time>
      </trkpt>
      <trkpt lat="40.525800" lon="-4.967267">
        <ele>2369.0</ele>
        <time>2013-05-11T13:47:19Z</time>
      </trkpt>
      <trkpt lat="40.525717" lon="-4.967200">
        <ele>2372.0</ele>
        <time>2013-05-11T13:47:20Z</time>
      </trkpt>
      <trkpt lat="40.525617" lon="-4.967150">
        <ele>2375.0</ele>
        <time>2013-05-11T13:47:21Z</time>
      </trkpt>
      <trkpt lat="40.525500" lon="-4.967133">
        <ele>2378.0</ele>
        <time>2013-05-11T13:47:22Z</time>
      </trkpt>
      <trkpt lat="40.525400" lon="-4.967150">
        <ele>2381.0</ele>
        <time>2013-05-11T13:47:23Z</time>
      </trkpt>
      <trkpt lat="40.525300" lon="-4.967200">
        <ele>2384.0</ele>
        <time>2013-05-11T13:47:24Z</time>
      </trkpt>
      <trkpt lat="40.525217" lon="-4.967267">
        <ele>2387.0</ele>
        <time>2013-05-11T13:47:25Z</time>
      </trkpt>
      <trkpt lat="40.525167" lon="-4.967350">
        <ele>2389.0</ele>
        <time>2013-05-11T13:47:26Z</time>
      </trkpt>
      <trkpt lat="40.525133" lon="-4.967450">
        <ele>2390.0</ele>
        <time>2013-05-11T13:47:27Z</time>
      </trkpt>
      <trkpt lat="40.525100" lon="-4.967550">
        <ele>2392.0</ele>
        <time>2013-05-11T13:47:28Z</time>
      </trkpt>
      <trkpt lat="40.525100" lon="-4.967667">
        <ele>2393.0</ele>
        <time>2013-05-11T13:47:29Z</time>
      </trkpt>
      <trkpt lat="40.525117" lon="-4.967767">
        <ele>2395.0</ele>
        <time>2013-05-11T13:47:30Z</time>
      </trkpt>
      <trkpt lat="40.525167" lon="-4.967867">
        <ele>2398.0</ele>
        <time>2013-05-11T13:47:31Z</time>
      </trkpt>
      <trkpt lat="40.525250" lon="-4.967917">
        <ele>2400.0</ele>
        <time>2013-05-11T13:47:32Z</time>
      </trkpt>
      <trkpt lat="40.525333" lon="-4.967933">
        <ele>2403.0</ele>
        <time>2013-05-11T13:47:33Z</time>
      </trkpt>
      <trkpt lat="40.525400" lon="-4.967933">
        <ele>2407.0</ele>
        <time>2013-05-11T13:47:34Z</time>
      </trkpt>
      <trkpt lat="40.525450" lon="-4.967933">
        <ele>2410.0</ele>
        <time>2013-05-11T13:47:35Z</time>
      </trkpt>
      <trkpt lat="40.525517" lon="-4.967917">
        <ele>2412.0</ele>
        <time>2013-05-11T13:47:36Z</time>
      </trkpt>
      <trkpt lat="40.525583" lon="-4.967883">
        <ele>2413.0</ele>
        <time>2013-05-11T13:47:37Z</time>
      </trkpt>
      <trkpt lat="40.525650" lon="-4.967833">
        <ele>2413.0</ele>
        <time>2013-05-11T13:47:38Z</time>
      </trkpt>
      <trkpt lat="40.525733" lon="-4.967750">
        <ele>2415.0</ele>
        <time>2013-05-11T13:47:39Z</time>
      </trkpt>
      <trkpt lat="40.525800" lon="-4.967667">
        <ele>2417.0</ele>
        <time>2013-05-11T13:47:40Z</time>
      </trkpt>
      <trkpt lat="40.525850" lon="-4.967583">
        <ele>2420.0</ele>
        <time>2013-05-11T13:47:41Z</time>
      </trkpt>
      <trkpt lat="40.525900" lon="-4.967483">
        <ele>2422.0</ele>
        <time>2013-05-11T13:47:42Z</time>
      </trkpt>
      <trkpt lat="40.525933" lon="-4.967400">
        <ele>2424.0</ele>
        <time>2013-05-11T13:47:43Z</time>
      </trkpt>
      <trkpt lat="40.525967" lon="-4.967300">
        <ele>2426.0</ele>
        <time>2013-05-11T13:47:44Z</time>
      </trkpt>
      <trkpt lat="40.525983" lon="-4.967183">
        <ele>2427.0</ele>
        <time>2013-05-11T13:47:45Z</time>
      </trkpt>
      <trkpt lat="40.526000" lon="-4.967050">
        <ele>2429.0</ele>
        <time>2013-05-11T13:47:46Z</time>
      </trkpt>
      <trkpt lat="40.526000" lon="-4.966917">
        <ele>2431.0</ele>
        <time>2013-05-11T13:47:47Z</time>
      </trkpt>
      <trkpt lat="40.525983" lon="-4.966783">
        <ele>2434.0</ele>
        <time>2013-05-11T13:47:48Z</time>
      </trkpt>
      <trkpt lat="40.525950" lon="-4.966667">
        <ele>2437.0</ele>
        <time>2013-05-11T13:47:49Z</time>
      </trkpt>
      <trkpt lat="40.525917" lon="-4.966550">
        <ele>2440.0</ele>
        <time>2013-05-11T13:47:50Z</time>
      </trkpt>
      <trkpt lat="40.525883" lon="-4.966450">
        <ele>2444.0</ele>
        <time>2013-05-11T13:47:51Z</time>
      </trkpt>
      <trkpt lat="40.525850" lon="-4.966350">
        <ele>2447.0</ele>
        <time>2013-05-11T13:47:52Z</time>
      </trkpt>
      <trkpt lat="40.525833" lon="-4.966233">
        <ele>2450.0</ele>
        <time>2013-05-11T13:47:53Z</time>
      </trkpt>
      <trkpt lat="40.525783" lon="-4.966133">
        <ele>2452.0</ele>
        <time>2013-05-11T13:47:54Z</time>
      </trkpt>
      <trkpt lat="40.525733" lon="-4.966033">
        <ele>2454.0</ele>
        <time>2013-05-11T13:47:55Z</time>
      </trkpt>
      <trkpt lat="40.525667" lon="-4.965950">
        <ele>2457.0</ele>
        <time>2013-05-11T13:47:56Z</time>
      </trkpt>
      <trkpt lat="40.525600" lon="-4.965867">
        <ele>2460.0</ele>
        <time>2013-05-11T13:47:57Z</time>
      </trkpt>
      <trkpt lat="40.525517" lon="-4.965783">
        <ele>2463.0</ele>
        <time>2013-05-11T13:47:58Z</time>
      </trkpt>
      <trkpt lat="40.525450" lon="-4.965733">
        <ele>2466.0</ele>
        <time>2013-05-11T13:47:59Z</time>
      </trkpt>
      <trkpt lat="40.525367" lon="-4.965683">
        <ele>2469.0</ele>
        <time>2013-05-11T13:48:00Z</time>
      </trkpt>
      <trkpt lat="40.525267" lon="-4.965650">
        <ele>2471.0</ele>
        <time>2013-05-11T13:48:01Z</time>
      </trkpt>
      <trkpt lat="40.525167" lon="-4.965617">
        <ele>2473.0</ele>
        <time>2013-05-11T13:48:02Z</time>
      </trkpt>
      <trkpt lat="40.525050" lon="-4.965617">
        <ele>2475.0</ele>
        <time>2013-05-11T13:48:03Z</time>
      </trkpt>
      <trkpt lat="40.524933" lon="-4.965633">
        <ele>2477.0</ele>
        <time>2013-05-11T13:48:04Z</time>
      </trkpt>
      <trkpt lat="40.524833" lon="-4.965700">
        <ele>2479.0</ele>
        <time>2013-05-11T13:48:05Z</time>
      </trkpt>
      <trkpt lat="40.524750" lon="-4.965767">
        <ele>2481.0</ele>
        <time>2013-05-11T13:48:06Z</time>
      </trkpt>
      <trkpt lat="40.524700" lon="-4.965867">
        <ele>2483.0</ele>
        <time>2013-05-11T13:48:07Z</time>
      </trkpt>
      <trkpt lat="40.524650" lon="-4.965950">
        <ele>2485.0</ele>
        <time>2013-05-11T13:48:08Z</time>
      </trkpt>
      <trkpt lat="40.524633" lon="-4.966050">
        <ele>2486.0</ele>
        <time>2013-05-11T13:48:09Z</time>
      </trkpt>
      <trkpt lat="40.524617" lon="-4.966150">
        <ele>2487.0</ele>
        <time>2013-05-11T13:48:10Z</time>
      </trkpt>
      <trkpt lat="40.524633" lon="-4.966267">
        <ele>2488.0</ele>
        <time>2013-05-11T13:48:11Z</time>
      </trkpt>
      <trkpt lat="40.524667" lon="-4.966367">
        <ele>2490.0</ele>
        <time>2013-05-11T13:48:12Z</time>
      </trkpt>
      <trkpt lat="40.524717" lon="-4.966433">
        <ele>2492.0</ele>
        <time>2013-05-11T13:48:13Z</time>
      </trkpt>
      <trkpt lat="40.524800" lon="-4.966467">
        <ele>2494.0</ele>
        <time>2013-05-11T13:48:14Z</time>
      </trkpt>
      <trkpt lat="40.524867" lon="-4.966467">
        <ele>2497.0</ele>
        <time>2013-05-11T13:48:15Z</time>
      </trkpt>
      <trkpt lat="40.524950" lon="-4.966467">
        <ele>2500.0</ele>
        <time>2013-05-11T13:48:16Z</time>
      </trkpt>
      <trkpt lat="40.525000" lon="-4.966450">
        <ele>2503.0</ele>
        <time>2013-05-11T13:48:17Z</time>
      </trkpt>
      <trkpt lat="40.525067" lon="-4.966417">
        <ele>2505.0</ele>
        <time>2013-05-11T13:48:18Z</time>
      </trkpt>
      <trkpt lat="40.525117" lon="-4.966367">
        <ele>2506.0</ele>
        <time>2013-05-11T13:48:19Z</time>
      </trkpt>
      <trkpt lat="40.525183" lon="-4.966283">
        <ele>2507.0</ele>
        <time>2013-05-11T13:48:20Z</time>
      </trkpt>
      <trkpt lat="40.525233" lon="-4.966167">
        <ele>2508.0</ele>
        <time>2013-05-11T13:48:21Z</time>
      </trkpt>
      <trkpt lat="40.525267" lon="-4.966050">
        <ele>2510.0</ele>
        <time>2013-05-11T13:48:22Z</time>
      </trkpt>
      <trkpt lat="40.525283" lon="-4.965950">
        <ele>2514.0</ele>
        <time>2013-05-11T13:48:23Z</time>
      </trkpt>
      <trkpt lat="40.525283" lon="-4.965850">
        <ele>2517.0</ele>
        <time>2013-05-11T13:48:24Z</time>
      </trkpt>
      <trkpt lat="40.525283" lon="-4.965733">
        <ele>2520.0</ele>
        <time>2013-05-11T13:48:25Z</time>
      </trkpt>
      <trkpt lat="40.525267" lon="-4.965633">
        <ele>2522.0</ele>
        <time>2013-05-11T13:48:26Z</time>
      </trkpt>
      <trkpt lat="40.525233" lon="-4.965517">
        <ele>2524.0</ele>
        <time>2013-05-11T13:48:27Z</time>
      </trkpt>
      <trkpt lat="40.525200" lon="-4.965417">
        <ele>2526.0</ele>
        <time>2013-05-11T13:48:28Z</time>
      </trkpt>
      <trkpt lat="40.525133" lon="-4.965317">
        <ele>2529.0</ele>
        <time>2013-05-11T13:48:29Z</time>
      </trkpt>
      <trkpt lat="40.525067" lon="-4.965233">
        <ele>2531.0</ele>
        <time>2013-05-11T13:48:30Z</time>
      </trkpt>
      <trkpt lat="40.524983" lon="-4.965167">
        <ele>2532.0</ele>
        <time>2013-05-11T13:48:31Z</time>
      </trkpt>
      <trkpt lat="40.524883" lon="-4.965083">
        <ele>2534.0</ele>
        <time>2013-05-11T13:48:32Z</time>
      </trkpt>
      <trkpt lat="40.524800" lon="-4.965017">
        <ele>2537.0</ele>
        <time>2013-05-11T13:48:33Z</time>
      </trkpt>
      <trkpt lat="40.524700" lon="-4.964967">
        <ele>2540.0</ele>
        <time>2013-05-11T13:48:34Z</time>
      </trkpt>
      <trkpt lat="40.524600" lon="-4.964950">
        <ele>2543.0</ele>
        <time>2013-05-11T13:48:35Z</time>
      </trkpt>
      <trkpt lat="40.524500" lon="-4.964983">
        <ele>2545.0</ele>
        <time>2013-05-11T13:48:36Z</time>
      </trkpt>
      <trkpt lat="40.524383" lon="-4.965017">
        <ele>2545.0</ele>
        <time>2013-05-11T13:48:37Z</time>
      </trkpt>
      <trkpt lat="40.524283" lon="-4.965083">
        <ele>2546.0</ele>
        <time>2013-05-11T13:48:38Z</time>
      </trkpt>
      <trkpt lat="40.524200" lon="-4.965167">
        <ele>2548.0</ele>
        <time>2013-05-11T13:48:39Z</time>
      </trkpt>
      <trkpt lat="40.524133" lon="-4.965267">
        <ele>2550.0</ele>
        <time>2013-05-11T13:48:40Z</time>
      </trkpt>
      <trkpt lat="40.524117" lon="-4.965417">
        <ele>2551.0</ele>
        <time>2013-05-11T13:48:41Z</time>
      </trkpt>
      <trkpt lat="40.524117" lon="-4.965550">
        <ele>2553.0</ele>
        <time>2013-05-11T13:48:42Z</time>
      </trkpt>
      <trkpt lat="40.524133" lon="-4.965667">
        <ele>2555.0</ele>
        <time>2013-05-11T13:48:43Z</time>
      </trkpt>
      <trkpt lat="40.524167" lon="-4.965750">
        <ele>2557.0</ele>
        <time>2013-05-11T13:48:44Z</time>
      </trkpt>
      <trkpt lat="40.524200" lon="-4.965833">
        <ele>2557.0</ele>
        <time>2013-05-11T13:48:45Z</time>
      </trkpt>
      <trkpt lat="40.524267" lon="-4.965900">
        <ele>2558.0</ele>
        <time>2013-05-11T13:48:46Z</time>
      </trkpt>
      <trkpt lat="40.524333" lon="-4.965967">
        <ele>2558.0</ele>
        <time>2013-05-11T13:48:47Z</time>
      </trkpt>
      <trkpt lat="40.524400" lon="-4.966000">
        <ele>2560.0</ele>
        <time>2013-05-11T13:48:48Z</time>
      </trkpt>
      <trkpt lat="40.524500" lon="-4.966000">
        <ele>2562.0</ele>
        <time>2013-05-11T13:48:49Z</time>
      </trkpt>
      <trkpt lat="40.524567" lon="-4.965967">
        <ele>2565.0</ele>
        <time>2013-05-11T13:48:50Z</time>
      </trkpt>
      <trkpt lat="40.524633" lon="-4.965933">
        <ele>2567.0</ele>
        <time>2013-05-11T13:48:51Z</time>
      </trkpt>
      <trkpt lat="40.524700" lon="-4.965883">
        <ele>2569.0</ele>
        <time>2013-05-11T13:48:52Z</time>
      </trkpt>
      <trkpt lat="40.524767" lon="-4.965833">
        <ele>2571.0</ele>
        <time>2013-05-11T13:48:53Z</time>
      </trkpt>
      <trkpt lat="40.524833" lon="-4.965767">
        <ele>2573.0</ele>
        <time>2013-05-11T13:48:54Z</time>
      </trkpt>
      <trkpt lat="40.524900" lon="-4.965683">
        <ele>2575.0</ele>
        <time>2013-05-11T13:48:55Z</time>
      </trkpt>
      <trkpt lat="40.524950" lon="-4.965583">
        <ele>2578.0</ele>
        <time>2013-05-11T13:48:56Z</time>
      </trkpt>
      <trkpt lat="40.524983" lon="-4.965500">
        <ele>2582.0</ele>
        <time>2013-05-11T13:48:57Z</time>
      </trkpt>
      <trkpt lat="40.525017" lon="-4.965400">
        <ele>2585.0</ele>
        <time>2013-05-11T13:48:58Z</time>
      </trkpt>
      <trkpt lat="40.525050" lon="-4.965317">
        <ele>2588.0</ele>
        <time>2013-05-11T13:48:59Z</time>
      </trkpt>
      <trkpt lat="40.525083" lon="-4.965200">
        <ele>2589.0</ele>
        <time>2013-05-11T13:49:00Z</time>
      </trkpt>
      <trkpt lat="40.525133" lon="-4.965083">
        <ele>2591.0</ele>
        <time>2013-05-11T13:49:01Z</time>
      </trkpt>
      <trkpt lat="40.525150" lon="-4.964950">
        <ele>2594.0</ele>
        <time>2013-05-11T13:49:02Z</time>
      </trkpt>
      <trkpt lat="40.525183" lon="-4.964850">
        <ele>2598.0</ele>
        <time>2013-05-11T13:49:03Z</time>
      </trkpt>
      <trkpt lat="40.525217" lon="-4.964750">
        <ele>2601.0</ele>
        <time>2013-05-11T13:49:04Z</time>
      </trkpt>
      <trkpt lat="40.525250" lon="-4.964667">
        <ele>2604.0</ele>
        <time>2013-05-11T13:49:05Z</time>
      </trkpt>
      <trkpt lat="40.525283" lon="-4.964583">
        <ele>2605.0</ele>
        <time>2013-05-11T13:49:06Z</time>
      </trkpt>
      <trkpt lat="40.525317" lon="-4.964500">
        <ele>2606.0</ele>
        <time>2013-05-11T13:49:07Z</time>
      </trkpt>
      <trkpt lat="40.525333" lon="-4.964417">
        <ele>2606.0</ele>
        <time>2013-05-11T13:49:08Z</time>
      </trkpt>
      <trkpt lat="40.525350" lon="-4.964317">
        <ele>2606.0</ele>
        <time>2013-05-11T13:49:09Z</time>
      </trkpt>
      <trkpt lat="40.525367" lon="-4.964233">
        <ele>2606.0</ele>
        <time>2013-05-11T13:49:10Z</time>
      </trkpt>
      <trkpt lat="40.525400" lon="-4.964150">
        <ele>2605.0</ele>
        <time>2013-05-11T13:49:11Z</time>
      </trkpt>
      <trkpt lat="40.525433" lon="-4.964067">
        <ele>2605.0</ele>
        <time>2013-05-11T13:49:12Z</time>
      </trkpt>
      <trkpt lat="40.525467" lon="-4.963983">
        <ele>2605.0</ele>
        <time>2013-05-11T13:49:13Z</time>
      </trkpt>
      <trkpt lat="40.525483" lon="-4.963883">
        <ele>2605.0</ele>
        <time>2013-05-11T13:49:14Z</time>
      </trkpt>
      <trkpt lat="40.525500" lon="-4.963800">
        <ele>2604.0</ele>
        <time>2013-05-11T13:49:15Z</time>
      </trkpt>
      <trkpt lat="40.525517" lon="-4.963717">
        <ele>2604.0</ele>
        <time>2013-05-11T13:49:16Z</time>
      </trkpt>
      <trkpt lat="40.525550" lon="-4.963633">
        <ele>2603.0</ele>
        <time>2013-05-11T13:49:17Z</time>
      </trkpt>
      <trkpt lat="40.525583" lon="-4.963550">
        <ele>2603.0</ele>
        <time>2013-05-11T13:49:18Z</time>
      </trkpt>
      <trkpt lat="40.525600" lon="-4.963450">
        <ele>2602.0</ele>
        <time>2013-05-11T13:49:19Z</time>
      </trkpt>
      <trkpt lat="40.525617" lon="-4.963367">
        <ele>2601.0</ele>
        <time>2013-05-11T13:49:20Z</time>
      </trkpt>
      <trkpt lat="40.525633" lon="-4.963267">
        <ele>2601.0</ele>
        <time>2013-05-11T13:49:21Z</time>
      </trkpt>
      <trkpt lat="40.525650" lon="-4.963183">
        <ele>2600.0</ele>
        <time>2013-05-11T13:49:22Z</time>
      </trkpt>
      <trkpt lat="40.525667" lon="-4.963083">
        <ele>2600.0</ele>
        <time>2013-05-11T13:49:23Z</time>
      </trkpt>
      <trkpt lat="40.525667" lon="-4.963000">
        <ele>2599.0</ele>
        <time>2013-05-11T13:49:24Z</time>
      </trkpt>
      <trkpt lat="40.525683" lon="-4.962900">
        <ele>2599.0</ele>
        <time>2013-05-11T13:49:25Z</time>
      </trkpt>
      <trkpt lat="40.525700" lon="-4.962817">
        <ele>2598.0</ele>
        <time>2013-05-11T13:49:26Z</time>
      </trkpt>
      <trkpt lat="40.525700" lon="-4.962717">
        <ele>2598.0</ele>
        <time>2013-05-11T13:49:27Z</time>
      </trkpt>
      <trkpt lat="40.525700" lon="-4.962633">
        <ele>2598.0</ele>
        <time>2013-05-11T13:49:28Z</time>
      </trkpt>
      <trkpt lat="40.525700" lon="-4.962550">
        <ele>2597.0</ele>
        <time>2013-05-11T13:49:29Z</time>
      </trkpt>
      <trkpt lat="40.525717" lon="-4.962467">
        <ele>2596.0</ele>
        <time>2013-05-11T13:49:30Z</time>
      </trkpt>
      <trkpt lat="40.525733" lon="-4.962383">
        <ele>2594.0</ele>
        <time>2013-05-11T13:49:31Z</time>
      </trkpt>
      <trkpt lat="40.525750" lon="-4.962283">
        <ele>2594.0</ele>
        <time>2013-05-11T13:49:32Z</time>
      </trkpt>
      <trkpt lat="40.525767" lon="-4.962217">
        <ele>2594.0</ele>
        <time>2013-05-11T13:49:33Z</time>
      </trkpt>
      <trkpt lat="40.525767" lon="-4.962133">
        <ele>2594.0</ele>
        <time>2013-05-11T13:49:34Z</time>
      </trkpt>
      <trkpt lat="40.525767" lon="-4.962067">
        <ele>2593.0</ele>
        <time>2013-05-11T13:49:35Z</time>
      </trkpt>
      <trkpt lat="40.525767" lon="-4.962000">
        <ele>2591.0</ele>
        <time>2013-05-11T13:49:36Z</time>
      </trkpt>
      <trkpt lat="40.525783" lon="-4.961917">
        <ele>2589.0</ele>
        <time>2013-05-11T13:49:37Z</time>
      </trkpt>
      <trkpt lat="40.525800" lon="-4.961833">
        <ele>2587.0</ele>
        <time>2013-05-11T13:49:38Z</time>
      </trkpt>
      <trkpt lat="40.525800" lon="-4.961733">
        <ele>2587.0</ele>
        <time>2013-05-11T13:49:39Z</time>
      </trkpt>
      <trkpt lat="40.525800" lon="-4.961650">
        <ele>2588.0</ele>
        <time>2013-05-11T13:49:40Z</time>
      </trkpt>
      <trkpt lat="40.525800" lon="-4.961583">
        <ele>2588.0</ele>
        <time>2013-05-11T13:49:41Z</time>
      </trkpt>
      <trkpt lat="40.525783" lon="-4.961500">
        <ele>2587.0</ele>
        <time>2013-05-11T13:49:42Z</time>
      </trkpt>
      <trkpt lat="40.525783" lon="-4.961417">
        <ele>2586.0</ele>
        <time>2013-05-11T13:49:43Z</time>
      </trkpt>
      <trkpt lat="40.525783" lon="-4.961317">
        <ele>2584.0</ele>
        <time>2013-05-11T13:49:44Z</time>
      </trkpt>
      <trkpt lat="40.525783" lon="-4.961217">
        <ele>2582.0</ele>
        <time>2013-05-11T13:49:45Z</time>
      </trkpt>
      <trkpt lat="40.525783" lon="-4.961117">
        <ele>2581.0</ele>
        <time>2013-05-11T13:49:46Z</time>
      </trkpt>
      <trkpt lat="40.525783" lon="-4.961017">
        <ele>2579.0</ele>
        <time>2013-05-11T13:49:47Z</time>
      </trkpt>
      <trkpt lat="40.525800" lon="-4.960933">
        <ele>2577.0</ele>
        <time>2013-05-11T13:49:48Z</time>
      </trkpt>
      <trkpt lat="40.525817" lon="-4.960850">
        <ele>2575.0</ele>
        <time>2013-05-11T13:49:49Z</time>
      </trkpt>
      <trkpt lat="40.525833" lon="-4.960767">
        <ele>2574.0</ele>
        <time>2013-05-11T13:49:50Z</time>
      </trkpt>
      <trkpt lat="40.525833" lon="-4.960700">
        <ele>2573.0</ele>
        <time>2013-05-11T13:49:51Z</time>
      </trkpt>
      <trkpt lat="40.525817" lon="-4.960617">
        <ele>2570.0</ele>
        <time>2013-05-11T13:49:52Z</time>
      </trkpt>
      <trkpt lat="40.525783" lon="-4.960550">
        <ele>2567.0</ele>
        <time>2013-05-11T13:49:53Z</time>
      </trkpt>
      <trkpt lat="40.525767" lon="-4.960450">
        <ele>2565.0</ele>
        <time>2013-05-11T13:49:54Z</time>
      </trkpt>
      <trkpt lat="40.525750" lon="-4.960367">
        <ele>2564.0</ele>
        <time>2013-05-11T13:49:55Z</time>
      </trkpt>
      <trkpt lat="40.525750" lon="-4.960267">
        <ele>2562.0</ele>
        <time>2013-05-11T13:49:56Z</time>
      </trkpt>
      <trkpt lat="40.525750" lon="-4.960183">
        <ele>2561.0</ele>
        <time>2013-05-11T13:49:57Z</time>
      </trkpt>
      <trkpt lat="40.525750" lon="-4.960100">
        <ele>2560.0</ele>
        <time>2013-05-11T13:49:58Z</time>
      </trkpt>
      <trkpt lat="40.525750" lon="-4.960000">
        <ele>2560.0</ele>
        <time>2013-05-11T13:49:59Z</time>
      </trkpt>
      <trkpt lat="40.525750" lon="-4.959900">
        <ele>2560.0</ele>
        <time>2013-05-11T13:50:00Z</time>
      </trkpt>
      <trkpt lat="40.525750" lon="-4.959800">
        <ele>2562.0</ele>
        <time>2013-05-11T13:50:01Z</time>
      </trkpt>
      <trkpt lat="40.525750" lon="-4.959717">
        <ele>2565.0</ele>
        <time>2013-05-11T13:50:02Z</time>
      </trkpt>
      <trkpt lat="40.525750" lon="-4.959633">
        <ele>2567.0</ele>
        <time>2013-05-11T13:50:03Z</time>
      </trkpt>
      <trkpt lat="40.525750" lon="-4.959550">
        <ele>2567.0</ele>
        <time>2013-05-11T13:50:04Z</time>
      </trkpt>
      <trkpt lat="40.525750" lon="-4.959450">
        <ele>2567.0</ele>
        <time>2013-05-11T13:50:05Z</time>
      </trkpt>
      <trkpt lat="40.525750" lon="-4.959367">
        <ele>2567.0</ele>
        <time>2013-05-11T13:50:06Z</time>
      </trkpt>
      <trkpt lat="40.525750" lon="-4.959267">
        <ele>2566.0</ele>
        <time>2013-05-11T13:50:07Z</time>
      </trkpt>
      <trkpt lat="40.525750" lon="-4.959183">
        <ele>2566.0</ele>
        <time>2013-05-11T13:50:08Z</time>
      </trkpt>
      <trkpt lat="40.525767" lon="-4.959067">
        <ele>2566.0</ele>
        <time>2013-05-11T13:50:09Z</time>
      </trkpt>
      <trkpt lat="40.525783" lon="-4.958967">
        <ele>2567.0</ele>
        <time>2013-05-11T13:50:10Z</time>
      </trkpt>
      <trkpt lat="40.525800" lon="-4.958867">
        <ele>2569.0</ele>
        <time>2013-05-11T13:50:11Z</time>
      </trkpt>
      <trkpt lat="40.525817" lon="-4.958767">
        <ele>2571.0</ele>
        <time>2013-05-11T13:50:12Z</time>
      </trkpt>
      <trkpt lat="40.525833" lon="-4.958700">
        <ele>2572.0</ele>
        <time>2013-05-11T13:50:13Z</time>
      </trkpt>
      <trkpt lat="40.525850" lon="-4.958633">
        <ele>2571.0</ele>
        <time>2013-05-11T13:50:14Z</time>
      </trkpt>
      <trkpt lat="40.525867" lon="-4.958567">
        <ele>2570.0</ele>
        <time>2013-05-11T13:50:15Z</time>
      </trkpt>
      <trkpt lat="40.525883" lon="-4.958483">
        <ele>2567.0</ele>
        <time>2013-05-11T13:50:16Z</time>
      </trkpt>
      <trkpt lat="40.525917" lon="-4.958383">
        <ele>2565.0</ele>
        <time>2013-05-11T13:50:17Z</time>
      </trkpt>
      <trkpt lat="40.525967" lon="-4.958300">
        <ele>2565.0</ele>
        <time>2013-05-11T13:50:18Z</time>
      </trkpt>
      <trkpt lat="40.526017" lon="-4.958250">
        <ele>2566.0</ele>
        <time>2013-05-11T13:50:19Z</time>
      </trkpt>
      <trkpt lat="40.526067" lon="-4.958183">
        <ele>2566.0</ele>
        <time>2013-05-11T13:50:20Z</time>
      </trkpt>
      <trkpt lat="40.526100" lon="-4.958133">
        <ele>2565.0</ele>
        <time>2013-05-11T13:50:21Z</time>
      </trkpt>
      <trkpt lat="40.526133" lon="-4.958067">
        <ele>2563.0</ele>
        <time>2013-05-11T13:50:22Z</time>
      </trkpt>
      <trkpt lat="40.526167" lon="-4.957983">
        <ele>2560.0</ele>
        <time>2013-05-11T13:50:23Z</time>
      </trkpt>
      <trkpt lat="40.526200" lon="-4.957900">
        <ele>2558.0</ele>
        <time>2013-05-11T13:50:24Z</time>
      </trkpt>
      <trkpt lat="40.526233" lon="-4.957817">
        <ele>2557.0</ele>
        <time>2013-05-11T13:50:25Z</time>
      </trkpt>
      <trkpt lat="40.526267" lon="-4.957750">
        <ele>2555.0</ele>
        <time>2013-05-11T13:50:26Z</time>
      </trkpt>
      <trkpt lat="40.526300" lon="-4.957667">
        <ele>2554.0</ele>
        <time>2013-05-11T13:50:27Z</time>
      </trkpt>
      <trkpt lat="40.526317" lon="-4.957583">
        <ele>2550.0</ele>
        <time>2013-05-11T13:50:28Z</time>
      </trkpt>
      <trkpt lat="40.526350" lon="-4.957483">
        <ele>2547.0</ele>
        <time>2013-05-11T13:50:29Z</time>
      </trkpt>
      <trkpt lat="40.526400" lon="-4.957383">
        <ele>2544.0</ele>
        <time>2013-05-11T13:50:30Z</time>
      </trkpt>
      <trkpt lat="40.526433" lon="-4.957283">
        <ele>2543.0</ele>
        <time>2013-05-11T13:50:31Z</time>
      </trkpt>
      <trkpt lat="40.526467" lon="-4.957183">
        <ele>2542.0</ele>
        <time>2013-05-11T13:50:32Z</time>
      </trkpt>
      <trkpt lat="40.526467" lon="-4.957100">
        <ele>2542.0</ele>
        <time>2013-05-11T13:50:33Z</time>
      </trkpt>
      <trkpt lat="40.526467" lon="-4.957017">
        <ele>2540.0</ele>
        <time>2013-05-11T13:50:34Z</time>
      </trkpt>
      <trkpt lat="40.526483" lon="-4.956950">
        <ele>2538.0</ele>
        <time>2013-05-11T13:50:35Z</time>
      </trkpt>
      <trkpt lat="40.526500" lon="-4.956867">
        <ele>2535.0</ele>
        <time>2013-05-11T13:50:36Z</time>
      </trkpt>
      <trkpt lat="40.526533" lon="-4.956800">
        <ele>2533.0</ele>
        <time>2013-05-11T13:50:37Z</time>
      </trkpt>
      <trkpt lat="40.526567" lon="-4.956717">
        <ele>2531.0</ele>
        <time>2013-05-11T13:50:38Z</time>
      </trkpt>
      <trkpt lat="40.526583" lon="-4.956633">
        <ele>2529.0</ele>
        <time>2013-05-11T13:50:39Z</time>
      </trkpt>
      <trkpt lat="40.526600" lon="-4.956550">
        <ele>2527.0</ele>
        <time>2013-05-11T13:50:40Z</time>
      </trkpt>
      <trkpt lat="40.526617" lon="-4.956467">
        <ele>2525.0</ele>
        <time>2013-05-11T13:50:41Z</time>
      </trkpt>
      <trkpt lat="40.526633" lon="-4.956383">
        <ele>2522.0</ele>
        <time>2013-05-11T13:50:42Z</time>
      </trkpt>
      <trkpt lat="40.526667" lon="-4.956283">
        <ele>2520.0</ele>
        <time>2013-05-11T13:50:43Z</time>
      </trkpt>
      <trkpt lat="40.526683" lon="-4.956183">
        <ele>2518.0</ele>
        <time>2013-05-11T13:50:44Z</time>
      </trkpt>
      <trkpt lat="40.526717" lon="-4.956083">
        <ele>2516.0</ele>
        <time>2013-05-11T13:50:45Z</time>
      </trkpt>
      <trkpt lat="40.526733" lon="-4.955983">
        <ele>2514.0</ele>
        <time>2013-05-11T13:50:46Z</time>
      </trkpt>
      <trkpt lat="40.526750" lon="-4.955900">
        <ele>2512.0</ele>
        <time>2013-05-11T13:50:47Z</time>
      </trkpt>
      <trkpt lat="40.526767" lon="-4.955800">
        <ele>2511.0</ele>
        <time>2013-05-11T13:50:48Z</time>
      </trkpt>
      <trkpt lat="40.526783" lon="-4.955717">
        <ele>2509.0</ele>
        <time>2013-05-11T13:50:49Z</time>
      </trkpt>
      <trkpt lat="40.526800" lon="-4.955633">
        <ele>2508.0</ele>
        <time>2013-05-11T13:50:50Z</time>
      </trkpt>
      <trkpt lat="40.526800" lon="-4.955567">
        <ele>2506.0</ele>
        <time>2013-05-11T13:50:51Z</time>
      </trkpt>
      <trkpt lat="40.526800" lon="-4.955467">
        <ele>2503.0</ele>
        <time>2013-05-11T13:50:52Z</time>
      </trkpt>
      <trkpt lat="40.526800" lon="-4.955367">
        <ele>2501.0</ele>
        <time>2013-05-11T13:50:53Z</time>
      </trkpt>
      <trkpt lat="40.526817" lon="-4.955267">
        <ele>2499.0</ele>
        <time>2013-05-11T13:50:54Z</time>
      </trkpt>
      <trkpt lat="40.526817" lon="-4.955183">
        <ele>2499.0</ele>
        <time>2013-05-11T13:50:55Z</time>
      </trkpt>
      <trkpt lat="40.526833" lon="-4.955083">
        <ele>2499.0</ele>
        <time>2013-05-11T13:50:56Z</time>
      </trkpt>
      <trkpt lat="40.526817" lon="-4.954967">
        <ele>2499.0</ele>
        <time>2013-05-11T13:50:57Z</time>
      </trkpt>
      <trkpt lat="40.526817" lon="-4.954850">
        <ele>2499.0</ele>
        <time>2013-05-11T13:50:58Z</time>
      </trkpt>
      <trkpt lat="40.526800" lon="-4.954717">
        <ele>2500.0</ele>
        <time>2013-05-11T13:50:59Z</time>
      </trkpt>
      <trkpt lat="40.526800" lon="-4.954600">
        <ele>2502.0</ele>
        <time>2013-05-11T13:51:00Z</time>
      </trkpt>
      <trkpt lat="40.526800" lon="-4.954483">
        <ele>2503.0</ele>
        <time>2013-05-11T13:51:01Z</time>
      </trkpt>
      <trkpt lat="40.526783" lon="-4.954383">
        <ele>2504.0</ele>
        <time>2013-05-11T13:51:02Z</time>
      </trkpt>
      <trkpt lat="40.526767" lon="-4.954267">
        <ele>2504.0</ele>
        <time>2013-05-11T13:51:03Z</time>
      </trkpt>
      <trkpt lat="40.526733" lon="-4.954133">
        <ele>2504.0</ele>
        <time>2013-05-11T13:51:04Z</time>
      </trkpt>
      <trkpt lat="40.526717" lon="-4.954017">
        <ele>2504.0</ele>
        <time>2013-05-11T13:51:05Z</time>
      </trkpt>
      <trkpt lat="40.526700" lon="-4.953883">
        <ele>2504.0</ele>
        <time>2013-05-11T13:51:06Z</time>
      </trkpt>
      <trkpt lat="40.526700" lon="-4.953767">
        <ele>2505.0</ele>
        <time>2013-05-11T13:51:07Z</time>
      </trkpt>
      <trkpt lat="40.526700" lon="-4.953650">
        <ele>2505.0</ele>
        <time>2013-05-11T13:51:08Z</time>
      </trkpt>
      <trkpt lat="40.526700" lon="-4.953533">
        <ele>2506.0</ele>
        <time>2013-05-11T13:51:09Z</time>
      </trkpt>
      <trkpt lat="40.526683" lon="-4.953417">
        <ele>2507.0</ele>
        <time>2013-05-11T13:51:10Z</time>
      </trkpt>
      <trkpt lat="40.526683" lon="-4.953283">
        <ele>2507.0</ele>
        <time>2013-05-11T13:51:11Z</time>
      </trkpt>
      <trkpt lat="40.526700" lon="-4.953167">
        <ele>2508.0</ele>
        <time>2013-05-11T13:51:12Z</time>
      </trkpt>
      <trkpt lat="40.526700" lon="-4.953050">
        <ele>2509.0</ele>
        <time>2013-05-11T13:51:13Z</time>
      </trkpt>
      <trkpt lat="40.526717" lon="-4.952917">
        <ele>2511.0</ele>
        <time>2013-05-11T13:51:14Z</time>
      </trkpt>
      <trkpt lat="40.526717" lon="-4.952783">
        <ele>2512.0</ele>
        <time>2013-05-11T13:51:15Z</time>
      </trkpt>
      <trkpt lat="40.526717" lon="-4.952650">
        <ele>2513.0</ele>
        <time>2013-05-11T13:51:16Z</time>
      </trkpt>
      <trkpt lat="40.526717" lon="-4.952517">
        <ele>2515.0</ele>
        <time>2013-05-11T13:51:17Z</time>
      </trkpt>
      <trkpt lat="40.526717" lon="-4.952383">
        <ele>2516.0</ele>
        <time>2013-05-11T13:51:18Z</time>
      </trkpt>
      <trkpt lat="40.526717" lon="-4.952250">
        <ele>2518.0</ele>
        <time>2013-05-11T13:51:19Z</time>
      </trkpt>
      <trkpt lat="40.526717" lon="-4.952100">
        <ele>2518.0</ele>
        <time>2013-05-11T13:51:20Z</time>
      </trkpt>
      <trkpt lat="40.526733" lon="-4.951967">
        <ele>2519.0</ele>
        <time>2013-05-11T13:51:21Z</time>
      </trkpt>
      <trkpt lat="40.526733" lon="-4.951817">
        <ele>2520.0</ele>
        <time>2013-05-11T13:51:22Z</time>
      </trkpt>
      <trkpt lat="40.526750" lon="-4.951683">
        <ele>2521.0</ele>
        <time>2013-05-11T13:51:23Z</time>
      </trkpt>
      <trkpt lat="40.526783" lon="-4.951550">
        <ele>2522.0</ele>
        <time>2013-05-11T13:51:24Z</time>
      </trkpt>
      <trkpt lat="40.526800" lon="-4.951417">
        <ele>2523.0</ele>
        <time>2013-05-11T13:51:25Z</time>
      </trkpt>
      <trkpt lat="40.526800" lon="-4.951283">
        <ele>2525.0</ele>
        <time>2013-05-11T13:51:26Z</time>
      </trkpt>
      <trkpt lat="40.526817" lon="-4.951183">
        <ele>2527.0</ele>
        <time>2013-05-11T13:51:27Z</time>
      </trkpt>
      <trkpt lat="40.526800" lon="-4.951100">
        <ele>2527.0</ele>
        <time>2013-05-11T13:51:28Z</time>
      </trkpt>
      <trkpt lat="40.526800" lon="-4.951017">
        <ele>2526.0</ele>
        <time>2013-05-11T13:51:29Z</time>
      </trkpt>
      <trkpt lat="40.526817" lon="-4.950917">
        <ele>2523.0</ele>
        <time>2013-05-11T13:51:30Z</time>
      </trkpt>
      <trkpt lat="40.526817" lon="-4.950800">
        <ele>2519.0</ele>
        <time>2013-05-11T13:51:31Z</time>
      </trkpt>
      <trkpt lat="40.526833" lon="-4.950667">
        <ele>2516.0</ele>
        <time>2013-05-11T13:51:32Z</time>
      </trkpt>
      <trkpt lat="40.526850" lon="-4.950517">
        <ele>2514.0</ele>
        <time>2013-05-11T13:51:33Z</time>
      </trkpt>
      <trkpt lat="40.526850" lon="-4.950367">
        <ele>2514.0</ele>
        <time>2013-05-11T13:51:34Z</time>
      </trkpt>
      <trkpt lat="40.526850" lon="-4.950217">
        <ele>2515.0</ele>
        <time>2013-05-11T13:51:35Z</time>
      </trkpt>
      <trkpt lat="40.526833" lon="-4.950100">
        <ele>2516.0</ele>
        <time>2013-05-11T13:51:36Z</time>
      </trkpt>
      <trkpt lat="40.526833" lon="-4.949967">
        <ele>2516.0</ele>
        <time>2013-05-11T13:51:37Z</time>
      </trkpt>
      <trkpt lat="40.526817" lon="-4.949833">
        <ele>2516.0</ele>
        <time>2013-05-11T13:51:38Z</time>
      </trkpt>
      <trkpt lat="40.526817" lon="-4.949683">
        <ele>2516.0</ele>
        <time>2013-05-11T13:51:39Z</time>
      </trkpt>
      <trkpt lat="40.526800" lon="-4.949550">
        <ele>2516.0</ele>
        <time>2013-05-11T13:51:40Z</time>
      </trkpt>
      <trkpt lat="40.526783" lon="-4.949400">
        <ele>2516.0</ele>
        <time>2013-05-11T13:51:41Z</time>
      </trkpt>
      <trkpt lat="40.526767" lon="-4.949267">
        <ele>2516.0</ele>
        <time>2013-05-11T13:51:42Z</time>
      </trkpt>
      <trkpt lat="40.526733" lon="-4.949150">
        <ele>2517.0</ele>
        <time>2013-05-11T13:51:43Z</time>
      </trkpt>
      <trkpt lat="40.526717" lon="-4.949033">
        <ele>2517.0</ele>
        <time>2013-05-11T13:51:44Z</time>
      </trkpt>
      <trkpt lat="40.526717" lon="-4.948917">
        <ele>2516.0</ele>
        <time>2013-05-11T13:51:45Z</time>
      </trkpt>
      <trkpt lat="40.526700" lon="-4.948783">
        <ele>2514.0</ele>
        <time>2013-05-11T13:51:46Z</time>
      </trkpt>
      <trkpt lat="40.526700" lon="-4.948650">
        <ele>2513.0</ele>
        <time>2013-05-11T13:51:47Z</time>
      </trkpt>
      <trkpt lat="40.526700" lon="-4.948517">
        <ele>2512.0</ele>
        <time>2013-05-11T13:51:48Z</time>
      </trkpt>
      <trkpt lat="40.526700" lon="-4.948383">
        <ele>2512.0</ele>
        <time>2013-05-11T13:51:49Z</time>
      </trkpt>
      <trkpt lat="40.526717" lon="-4.948267">
        <ele>2512.0</ele>
        <time>2013-05-11T13:51:50Z</time>
      </trkpt>
      <trkpt lat="40.526733" lon="-4.948150">
        <ele>2511.0</ele>
        <time>2013-05-11T13:51:51Z</time>
      </trkpt>
      <trkpt lat="40.526750" lon="-4.948017">
        <ele>2509.0</ele>
        <time>2013-05-11T13:51:52Z</time>
      </trkpt>
      <trkpt lat="40.526767" lon="-4.947900">
        <ele>2507.0</ele>
        <time>2013-05-11T13:51:53Z</time>
      </trkpt>
      <trkpt lat="40.526800" lon="-4.947767">
        <ele>2506.0</ele>
        <time>2013-05-11T13:51:54Z</time>
      </trkpt>
      <trkpt lat="40.526833" lon="-4.947617">
        <ele>2505.0</ele>
        <time>2013-05-11T13:51:55Z</time>
      </trkpt>
      <trkpt lat="40.526850" lon="-4.947483">
        <ele>2505.0</ele>
        <time>2013-05-11T13:51:56Z</time>
      </trkpt>
      <trkpt lat="40.526867" lon="-4.947367">
        <ele>2505.0</ele>
        <time>2013-05-11T13:51:57Z</time>
      </trkpt>
      <trkpt lat="40.526883" lon="-4.947233">
        <ele>2503.0</ele>
        <time>2013-05-11T13:51:58Z</time>
      </trkpt>
      <trkpt lat="40.526917" lon="-4.947133">
        <ele>2499.0</ele>
        <time>2013-05-11T13:51:59Z</time>
      </trkpt>
      <trkpt lat="40.526933" lon="-4.947000">
        <ele>2496.0</ele>
        <time>2013-05-11T13:52:00Z</time>
      </trkpt>
      <trkpt lat="40.526983" lon="-4.946883">
        <ele>2492.0</ele>
        <time>2013-05-11T13:52:01Z</time>
      </trkpt>
      <trkpt lat="40.527017" lon="-4.946750">
        <ele>2490.0</ele>
        <time>2013-05-11T13:52:02Z</time>
      </trkpt>
      <trkpt lat="40.527067" lon="-4.946617">
        <ele>2488.0</ele>
        <time>2013-05-11T13:52:03Z</time>
      </trkpt>
      <trkpt lat="40.527100" lon="-4.946500">
        <ele>2486.0</ele>
        <time>2013-05-11T13:52:04Z</time>
      </trkpt>
      <trkpt lat="40.527133" lon="-4.946383">
        <ele>2484.0</ele>
        <time>2013-05-11T13:52:05Z</time>
      </trkpt>
      <trkpt lat="40.527183" lon="-4.946267">
        <ele>2483.0</ele>
        <time>2013-05-11T13:52:06Z</time>
      </trkpt>
      <trkpt lat="40.527217" lon="-4.946150">
        <ele>2480.0</ele>
        <time>2013-05-11T13:52:07Z</time>
      </trkpt>
      <trkpt lat="40.527267" lon="-4.946033">
        <ele>2477.0</ele>
        <time>2013-05-11T13:52:08Z</time>
      </trkpt>
      <trkpt lat="40.527300" lon="-4.945900">
        <ele>2474.0</ele>
        <time>2013-05-11T13:52:09Z</time>
      </trkpt>
      <trkpt lat="40.527350" lon="-4.945783">
        <ele>2472.0</ele>
        <time>2013-05-11T13:52:10Z</time>
      </trkpt>
      <trkpt lat="40.527400" lon="-4.945683">
        <ele>2469.0</ele>
        <time>2013-05-11T13:52:11Z</time>
      </trkpt>
      <trkpt lat="40.527467" lon="-4.945600">
        <ele>2466.0</ele>
        <time>2013-05-11T13:52:12Z</time>
      </trkpt>
      <trkpt lat="40.527517" lon="-4.945500">
        <ele>2461.0</ele>
        <time>2013-05-11T13:52:13Z</time>
      </trkpt>
      <trkpt lat="40.527550" lon="-4.945383">
        <ele>2456.0</ele>
        <time>2013-05-11T13:52:14Z</time>
      </trkpt>
      <trkpt lat="40.527600" lon="-4.945233">
        <ele>2451.0</ele>
        <time>2013-05-11T13:52:15Z</time>
      </trkpt>
      <trkpt lat="40.527617" lon="-4.945083">
        <ele>2447.0</ele>
        <time>2013-05-11T13:52:16Z</time>
      </trkpt>
      <trkpt lat="40.527650" lon="-4.944917">
        <ele>2445.0</ele>
        <time>2013-05-11T13:52:17Z</time>
      </trkpt>
      <trkpt lat="40.527667" lon="-4.944800">
        <ele>2445.0</ele>
        <time>2013-05-11T13:52:18Z</time>
      </trkpt>
      <trkpt lat="40.527700" lon="-4.944683">
        <ele>2444.0</ele>
        <time>2013-05-11T13:52:19Z</time>
      </trkpt>
      <trkpt lat="40.527733" lon="-4.944583">
        <ele>2442.0</ele>
        <time>2013-05-11T13:52:20Z</time>
      </trkpt>
      <trkpt lat="40.527767" lon="-4.944450">
        <ele>2439.0</ele>
        <time>2013-05-11T13:52:21Z</time>
      </trkpt>
      <trkpt lat="40.527800" lon="-4.944317">
        <ele>2437.0</ele>
        <time>2013-05-11T13:52:22Z</time>
      </trkpt>
      <trkpt lat="40.527833" lon="-4.944167">
        <ele>2435.0</ele>
        <time>2013-05-11T13:52:23Z</time>
      </trkpt>
      <trkpt lat="40.527867" lon="-4.944050">
        <ele>2434.0</ele>
        <time>2013-05-11T13:52:24Z</time>
      </trkpt>
      <trkpt lat="40.527900" lon="-4.943933">
        <ele>2433.0</ele>
        <time>2013-05-11T13:52:25Z</time>
      </trkpt>
      <trkpt lat="40.527933" lon="-4.943833">
        <ele>2431.0</ele>
        <time>2013-05-11T13:52:26Z</time>
      </trkpt>
      <trkpt lat="40.527967" lon="-4.943717">
        <ele>2427.0</ele>
        <time>2013-05-11T13:52:27Z</time>
      </trkpt>
      <trkpt lat="40.528000" lon="-4.943583">
        <ele>2424.0</ele>
        <time>2013-05-11T13:52:28Z</time>
      </trkpt>
      <trkpt lat="40.528033" lon="-4.943433">
        <ele>2421.0</ele>
        <time>2013-05-11T13:52:29Z</time>
      </trkpt>
      <trkpt lat="40.528067" lon="-4.943300">
        <ele>2421.0</ele>
        <time>2013-05-11T13:52:30Z</time>
      </trkpt>
      <trkpt lat="40.528100" lon="-4.943200">
        <ele>2420.0</ele>
        <time>2013-05-11T13:52:31Z</time>
      </trkpt>
      <trkpt lat="40.528133" lon="-4.943100">
        <ele>2419.0</ele>
        <time>2013-05-11T13:52:32Z</time>
      </trkpt>
      <trkpt lat="40.528167" lon="-4.942983">
        <ele>2417.0</ele>
        <time>2013-05-11T13:52:33Z</time>
      </trkpt>
      <trkpt lat="40.528200" lon="-4.942883">
        <ele>2414.0</ele>
        <time>2013-05-11T13:52:34Z</time>
      </trkpt>
      <trkpt lat="40.528250" lon="-4.942750">
        <ele>2411.0</ele>
        <time>2013-05-11T13:52:35Z</time>
      </trkpt>
      <trkpt lat="40.528300" lon="-4.942633">
        <ele>2410.0</ele>
        <time>2013-05-11T13:52:36Z</time>
      </trkpt>
      <trkpt lat="40.528333" lon="-4.942517">
        <ele>2409.0</ele>
        <time>2013-05-11T13:52:37Z</time>
      </trkpt>
      <trkpt lat="40.528350" lon="-4.942417">
        <ele>2409.0</ele>
        <time>2013-05-11T13:52:38Z</time>
      </trkpt>
      <trkpt lat="40.528383" lon="-4.942317">
        <ele>2408.0</ele>
        <time>2013-05-11T13:52:39Z</time>
      </trkpt>
      <trkpt lat="40.528400" lon="-4.942200">
        <ele>2406.0</ele>
        <time>2013-05-11T13:52:40Z</time>
      </trkpt>
      <trkpt lat="40.528433" lon="-4.942100">
        <ele>2404.0</ele>
        <time>2013-05-11T13:52:41Z</time>
      </trkpt>
      <trkpt lat="40.528450" lon="-4.941983">
        <ele>2402.0</ele>
        <time>2013-05-11T13:52:42Z</time>
      </trkpt>
      <trkpt lat="40.528467" lon="-4.941883">
        <ele>2400.0</ele>
        <time>2013-05-11T13:52:43Z</time>
      </trkpt>
      <trkpt lat="40.528483" lon="-4.941767">
        <ele>2398.0</ele>
        <time>2013-05-11T13:52:44Z</time>
      </trkpt>
      <trkpt lat="40.528500" lon="-4.941650">
        <ele>2396.0</ele>
        <time>2013-05-11T13:52:45Z</time>
      </trkpt>
      <trkpt lat="40.528533" lon="-4.941533">
        <ele>2395.0</ele>
        <time>2013-05-11T13:52:46Z</time>
      </trkpt>
      <trkpt lat="40.528550" lon="-4.941417">
        <ele>2393.0</ele>
        <time>2013-05-11T13:52:47Z</time>
      </trkpt>
      <trkpt lat="40.528567" lon="-4.941300">
        <ele>2392.0</ele>
        <time>2013-05-11T13:52:48Z</time>
      </trkpt>
      <trkpt lat="40.528583" lon="-4.941183">
        <ele>2391.0</ele>
        <time>2013-05-11T13:52:49Z</time>
      </trkpt>
      <trkpt lat="40.528583" lon="-4.941067">
        <ele>2390.0</ele>
        <time>2013-05-11T13:52:50Z</time>
      </trkpt>
      <trkpt lat="40.528600" lon="-4.940950">
        <ele>2389.0</ele>
        <time>2013-05-11T13:52:51Z</time>
      </trkpt>
      <trkpt lat="40.528633" lon="-4.940833">
        <ele>2387.0</ele>
        <time>2013-05-11T13:52:52Z</time>
      </trkpt>
      <trkpt lat="40.528650" lon="-4.940717">
        <ele>2387.0</ele>
        <time>2013-05-11T13:52:53Z</time>
      </trkpt>
      <trkpt lat="40.528683" lon="-4.940617">
        <ele>2386.0</ele>
        <time>2013-05-11T13:52:54Z</time>
      </trkpt>
      <trkpt lat="40.528717" lon="-4.940500">
        <ele>2384.0</ele>
        <time>2013-05-11T13:52:55Z</time>
      </trkpt>
      <trkpt lat="40.528733" lon="-4.940383">
        <ele>2382.0</ele>
        <time>2013-05-11T13:52:56Z</time>
      </trkpt>
      <trkpt lat="40.528767" lon="-4.940250">
        <ele>2381.0</ele>
        <time>2013-05-11T13:52:57Z</time>
      </trkpt>
      <trkpt lat="40.528800" lon="-4.940117">
        <ele>2381.0</ele>
        <time>2013-05-11T13:52:58Z</time>
      </trkpt>
      <trkpt lat="40.528833" lon="-4.940000">
        <ele>2381.0</ele>
        <time>2013-05-11T13:52:59Z</time>
      </trkpt>
      <trkpt lat="40.528850" lon="-4.939883">
        <ele>2382.0</ele>
        <time>2013-05-11T13:53:00Z</time>
      </trkpt>
      <trkpt lat="40.528883" lon="-4.939783">
        <ele>2382.0</ele>
        <time>2013-05-11T13:53:01Z</time>
      </trkpt>
      <trkpt lat="40.528900" lon="-4.939683">
        <ele>2381.0</ele>
        <time>2013-05-11T13:53:02Z</time>
      </trkpt>
      <trkpt lat="40.528933" lon="-4.939583">
        <ele>2378.0</ele>
        <time>2013-05-11T13:53:03Z</time>
      </trkpt>
      <trkpt lat="40.528967" lon="-4.939467">
        <ele>2376.0</ele>
        <time>2013-05-11T13:53:04Z</time>
      </trkpt>
      <trkpt lat="40.529000" lon="-4.939383">
        <ele>2375.0</ele>
        <time>2013-05-11T13:53:05Z</time>
      </trkpt>
      <trkpt lat="40.529033" lon="-4.939283">
        <ele>2373.0</ele>
        <time>2013-05-11T13:53:06Z</time>
      </trkpt>
      <trkpt lat="40.529067" lon="-4.939183">
        <ele>2372.0</ele>
        <time>2013-05-11T13:53:07Z</time>
      </trkpt>
      <trkpt lat="40.529083" lon="-4.939100">
        <ele>2371.0</ele>
        <time>2013-05-11T13:53:08Z</time>
      </trkpt>
      <trkpt lat="40.529117" lon="-4.939017">
        <ele>2370.0</ele>
        <time>2013-05-11T13:53:09Z</time>
      </trkpt>
      <trkpt lat="40.529167" lon="-4.938933">
        <ele>2368.0</ele>
        <time>2013-05-11T13:53:10Z</time>
      </trkpt>
      <trkpt lat="40.529200" lon="-4.938833">
        <ele>2366.0</ele>
        <time>2013-05-11T13:53:11Z</time>
      </trkpt>
      <trkpt lat="40.529233" lon="-4.938750">
        <ele>2365.0</ele>
        <time>2013-05-11T13:53:12Z</time>
      </trkpt>
      <trkpt lat="40.529250" lon="-4.938650">
        <ele>2363.0</ele>
        <time>2013-05-11T13:53:13Z</time>
      </trkpt>
      <trkpt lat="40.529283" lon="-4.938567">
        <ele>2361.0</ele>
        <time>2013-05-11T13:53:14Z</time>
      </trkpt>
      <trkpt lat="40.529317" lon="-4.938483">
        <ele>2358.0</ele>
        <time>2013-05-11T13:53:15Z</time>
      </trkpt>
      <trkpt lat="40.529333" lon="-4.938383">
        <ele>2356.0</ele>
        <time>2013-05-11T13:53:16Z</time>
      </trkpt>
      <trkpt lat="40.529367" lon="-4.938283">
        <ele>2353.0</ele>
        <time>2013-05-11T13:53:17Z</time>
      </trkpt>
      <trkpt lat="40.529383" lon="-4.938167">
        <ele>2350.0</ele>
        <time>2013-05-11T13:53:18Z</time>
      </trkpt>
      <trkpt lat="40.529417" lon="-4.938083">
        <ele>2349.0</ele>
        <time>2013-05-11T13:53:19Z</time>
      </trkpt>
      <trkpt lat="40.529433" lon="-4.937983">
        <ele>2347.0</ele>
        <time>2013-05-11T13:53:20Z</time>
      </trkpt>
      <trkpt lat="40.529467" lon="-4.937900">
        <ele>2346.0</ele>
        <time>2013-05-11T13:53:21Z</time>
      </trkpt>
      <trkpt lat="40.529483" lon="-4.937817">
        <ele>2343.0</ele>
        <time>2013-05-11T13:53:22Z</time>
      </trkpt>
      <trkpt lat="40.529517" lon="-4.937717">
        <ele>2340.0</ele>
        <time>2013-05-11T13:53:23Z</time>
      </trkpt>
      <trkpt lat="40.529533" lon="-4.937633">
        <ele>2337.0</ele>
        <time>2013-05-11T13:53:24Z</time>
      </trkpt>
      <trkpt lat="40.529567" lon="-4.937533">
        <ele>2334.0</ele>
        <time>2013-05-11T13:53:25Z</time>
      </trkpt>
      <trkpt lat="40.529600" lon="-4.937433">
        <ele>2332.0</ele>
        <time>2013-05-11T13:53:26Z</time>
      </trkpt>
      <trkpt lat="40.529617" lon="-4.937333">
        <ele>2329.0</ele>
        <time>2013-05-11T13:53:27Z</time>
      </trkpt>
      <trkpt lat="40.529650" lon="-4.937233">
        <ele>2327.0</ele>
        <time>2013-05-11T13:53:28Z</time>
      </trkpt>
      <trkpt lat="40.529667" lon="-4.937133">
        <ele>2324.0</ele>
        <time>2013-05-11T13:53:29Z</time>
      </trkpt>
      <trkpt lat="40.529700" lon="-4.937033">
        <ele>2322.0</ele>
        <time>2013-05-11T13:53:30Z</time>
      </trkpt>
      <trkpt lat="40.529750" lon="-4.936933">
        <ele>2319.0</ele>
        <time>2013-05-11T13:53:31Z</time>
      </trkpt>
      <trkpt lat="40.529783" lon="-4.936833">
        <ele>2317.0</ele>
        <time>2013-05-11T13:53:32Z</time>
      </trkpt>
      <trkpt lat="40.529800" lon="-4.936717">
        <ele>2314.0</ele>
        <time>2013-05-11T13:53:33Z</time>
      </trkpt>
      <trkpt lat="40.529800" lon="-4.936617">
        <ele>2312.0</ele>
        <time>2013-05-11T13:53:34Z</time>
      </trkpt>
      <trkpt lat="40.529817" lon="-4.936517">
        <ele>2312.0</ele>
        <time>2013-05-11T13:53:35Z</time>
      </trkpt>
      <trkpt lat="40.529833" lon="-4.936400">
        <ele>2312.0</ele>
        <time>2013-05-11T13:53:36Z</time>
      </trkpt>
      <trkpt lat="40.529850" lon="-4.936317">
        <ele>2314.0</ele>
        <time>2013-05-11T13:53:37Z</time>
      </trkpt>
      <trkpt lat="40.529867" lon="-4.936250">
        <ele>2315.0</ele>
        <time>2013-05-11T13:53:38Z</time>
      </trkpt>
      <trkpt lat="40.529883" lon="-4.936183">
        <ele>2314.0</ele>
        <time>2013-05-11T13:53:39Z</time>
      </trkpt>
      <trkpt lat="40.529900" lon="-4.936117">
        <ele>2313.0</ele>
        <time>2013-05-11T13:53:40Z</time>
      </trkpt>
      <trkpt lat="40.529933" lon="-4.936033">
        <ele>2312.0</ele>
        <time>2013-05-11T13:53:41Z</time>
      </trkpt>
      <trkpt lat="40.529967" lon="-4.935950">
        <ele>2310.0</ele>
        <time>2013-05-11T13:53:42Z</time>
      </trkpt>
      <trkpt lat="40.530000" lon="-4.935850">
        <ele>2310.0</ele>
        <time>2013-05-11T13:53:43Z</time>
      </trkpt>
      <trkpt lat="40.530033" lon="-4.935767">
        <ele>2310.0</ele>
        <time>2013-05-11T13:53:44Z</time>
      </trkpt>
      <trkpt lat="40.530067" lon="-4.935683">
        <ele>2310.0</ele>
        <time>2013-05-11T13:53:45Z</time>
      </trkpt>
      <trkpt lat="40.530100" lon="-4.935600">
        <ele>2310.0</ele>
        <time>2013-05-11T13:53:46Z</time>
      </trkpt>
      <trkpt lat="40.530133" lon="-4.935517">
        <ele>2308.0</ele>
        <time>2013-05-11T13:53:47Z</time>
      </trkpt>
      <trkpt lat="40.530167" lon="-4.935433">
        <ele>2306.0</ele>
        <time>2013-05-11T13:53:48Z</time>
      </trkpt>
      <trkpt lat="40.530200" lon="-4.935333">
        <ele>2305.0</ele>
        <time>2013-05-11T13:53:49Z</time>
      </trkpt>
      <trkpt lat="40.530250" lon="-4.935233">
        <ele>2304.0</ele>
        <time>2013-05-11T13:53:50Z</time>
      </trkpt>
      <trkpt lat="40.530283" lon="-4.935133">
        <ele>2303.0</ele>
        <time>2013-05-11T13:53:51Z</time>
      </trkpt>
      <trkpt lat="40.530317" lon="-4.935033">
        <ele>2302.0</ele>
        <time>2013-05-11T13:53:52Z</time>
      </trkpt>
      <trkpt lat="40.530367" lon="-4.934950">
        <ele>2301.0</ele>
        <time>2013-05-11T13:53:53Z</time>
      </trkpt>
      <trkpt lat="40.530400" lon="-4.934867">
        <ele>2299.0</ele>
        <time>2013-05-11T13:53:54Z</time>
      </trkpt>
      <trkpt lat="40.530433" lon="-4.934767">
        <ele>2296.0</ele>
        <time>2013-05-11T13:53:55Z</time>
      </trkpt>
      <trkpt lat="40.530467" lon="-4.934667">
        <ele>2293.0</ele>
        <time>2013-05-11T13:53:56Z</time>
      </trkpt>
      <trkpt lat="40.530517" lon="-4.934533">
        <ele>2291.0</ele>
        <time>2013-05-11T13:53:57Z</time>
      </trkpt>
      <trkpt lat="40.530567" lon="-4.934417">
        <ele>2289.0</ele>
        <time>2013-05-11T13:53:58Z</time>
      </trkpt>
      <trkpt lat="40.530633" lon="-4.934300">
        <ele>2288.0</ele>
        <time>2013-05-11T13:53:59Z</time>
      </trkpt>
      <trkpt lat="40.530667" lon="-4.934200">
        <ele>2288.0</ele>
        <time>2013-05-11T13:54:00Z</time>
      </trkpt>
      <trkpt lat="40.530717" lon="-4.934083">
        <ele>2287.0</ele>
        <time>2013-05-11T13:54:01Z</time>
      </trkpt>
      <trkpt lat="40.530750" lon="-4.933967">
        <ele>2284.0</ele>
        <time>2013-05-11T13:54:02Z</time>
      </trkpt>
      <trkpt lat="40.530800" lon="-4.933850">
        <ele>2282.0</ele>
        <time>2013-05-11T13:54:03Z</time>
      </trkpt>
      <trkpt lat="40.530850" lon="-4.933717">
        <ele>2279.0</ele>
        <time>2013-05-11T13:54:04Z</time>
      </trkpt>
      <trkpt lat="40.530900" lon="-4.933600">
        <ele>2277.0</ele>
        <time>2013-05-11T13:54:05Z</time>
      </trkpt>
      <trkpt lat="40.530950" lon="-4.933483">
        <ele>2275.0</ele>
        <time>2013-05-11T13:54:06Z</time>
      </trkpt>
      <trkpt lat="40.531000" lon="-4.933367">
        <ele>2273.0</ele>
        <time>2013-05-11T13:54:07Z</time>
      </trkpt>
      <trkpt lat="40.531050" lon="-4.933233">
        <ele>2270.0</ele>
        <time>2013-05-11T13:54:08Z</time>
      </trkpt>
      <trkpt lat="40.531117" lon="-4.933117">
        <ele>2269.0</ele>
        <time>2013-05-11T13:54:09Z</time>
      </trkpt>
      <trkpt lat="40.531167" lon="-4.932967">
        <ele>2268.0</ele>
        <time>2013-05-11T13:54:10Z</time>
      </trkpt>
      <trkpt lat="40.531200" lon="-4.932833">
        <ele>2269.0</ele>
        <time>2013-05-11T13:54:11Z</time>
      </trkpt>
      <trkpt lat="40.531233" lon="-4.932700">
        <ele>2270.0</ele>
        <time>2013-05-11T13:54:12Z</time>
      </trkpt>
      <trkpt lat="40.531267" lon="-4.932583">
        <ele>2271.0</ele>
        <time>2013-05-11T13:54:13Z</time>
      </trkpt>
      <trkpt lat="40.531300" lon="-4.932467">
        <ele>2272.0</ele>
        <time>2013-05-11T13:54:14Z</time>
      </trkpt>
      <trkpt lat="40.531317" lon="-4.932367">
        <ele>2271.0</ele>
        <time>2013-05-11T13:54:15Z</time>
      </trkpt>
      <trkpt lat="40.531350" lon="-4.932233">
        <ele>2270.0</ele>
        <time>2013-05-11T13:54:16Z</time>
      </trkpt>
      <trkpt lat="40.531367" lon="-4.932100">
        <ele>2269.0</ele>
        <time>2013-05-11T13:54:17Z</time>
      </trkpt>
      <trkpt lat="40.531383" lon="-4.931967">
        <ele>2267.0</ele>
        <time>2013-05-11T13:54:18Z</time>
      </trkpt>
      <trkpt lat="40.531417" lon="-4.931833">
        <ele>2266.0</ele>
        <time>2013-05-11T13:54:19Z</time>
      </trkpt>
      <trkpt lat="40.531467" lon="-4.931700">
        <ele>2266.0</ele>
        <time>2013-05-11T13:54:20Z</time>
      </trkpt>
      <trkpt lat="40.531517" lon="-4.931550">
        <ele>2268.0</ele>
        <time>2013-05-11T13:54:21Z</time>
      </trkpt>
      <trkpt lat="40.531550" lon="-4.931433">
        <ele>2269.0</ele>
        <time>2013-05-11T13:54:22Z</time>
      </trkpt>
      <trkpt lat="40.531583" lon="-4.931317">
        <ele>2272.0</ele>
        <time>2013-05-11T13:54:23Z</time>
      </trkpt>
      <trkpt lat="40.531633" lon="-4.931217">
        <ele>2273.0</ele>
        <time>2013-05-11T13:54:24Z</time>
      </trkpt>
      <trkpt lat="40.531667" lon="-4.931117">
        <ele>2274.0</ele>
        <time>2013-05-11T13:54:25Z</time>
      </trkpt>
      <trkpt lat="40.531733" lon="-4.931033">
        <ele>2274.0</ele>
        <time>2013-05-11T13:54:26Z</time>
      </trkpt>
      <trkpt lat="40.531817" lon="-4.930950">
        <ele>2273.0</ele>
        <time>2013-05-11T13:54:27Z</time>
      </trkpt>
      <trkpt lat="40.531900" lon="-4.930867">
        <ele>2273.0</ele>
        <time>2013-05-11T13:54:28Z</time>
      </trkpt>
      <trkpt lat="40.531967" lon="-4.930767">
        <ele>2273.0</ele>
        <time>2013-05-11T13:54:29Z</time>
      </trkpt>
      <trkpt lat="40.532033" lon="-4.930667">
        <ele>2273.0</ele>
        <time>2013-05-11T13:54:30Z</time>
      </trkpt>
      <trkpt lat="40.532100" lon="-4.930567">
        <ele>2274.0</ele>
        <time>2013-05-11T13:54:31Z</time>
      </trkpt>
      <trkpt lat="40.532167" lon="-4.930483">
        <ele>2274.0</ele>
        <time>2013-05-11T13:54:32Z</time>
      </trkpt>
      <trkpt lat="40.532217" lon="-4.930367">
        <ele>2273.0</ele>
        <time>2013-05-11T13:54:33Z</time>
      </trkpt>
      <trkpt lat="40.532283" lon="-4.930250">
        <ele>2272.0</ele>
        <time>2013-05-11T13:54:34Z</time>
      </trkpt>
      <trkpt lat="40.532317" lon="-4.930133">
        <ele>2271.0</ele>
        <time>2013-05-11T13:54:35Z</time>
      </trkpt>
      <trkpt lat="40.532367" lon="-4.930000">
        <ele>2271.0</ele>
        <time>2013-05-11T13:54:36Z</time>
      </trkpt>
      <trkpt lat="40.532417" lon="-4.929883">
        <ele>2271.0</ele>
        <time>2013-05-11T13:54:37Z</time>
      </trkpt>
      <trkpt lat="40.532467" lon="-4.929750">
        <ele>2270.0</ele>
        <time>2013-05-11T13:54:38Z</time>
      </trkpt>
      <trkpt lat="40.532517" lon="-4.929633">
        <ele>2269.0</ele>
        <time>2013-05-11T13:54:39Z</time>
      </trkpt>
      <trkpt lat="40.532567" lon="-4.929483">
        <ele>2267.0</ele>
        <time>2013-05-11T13:54:40Z</time>
      </trkpt>
      <trkpt lat="40.532617" lon="-4.929350">
        <ele>2266.0</ele>
        <time>2013-05-11T13:54:41Z</time>
      </trkpt>
      <trkpt lat="40.532683" lon="-4.929233">
        <ele>2266.0</ele>
        <time>2013-05-11T13:54:42Z</time>
      </trkpt>
      <trkpt lat="40.532767" lon="-4.929117">
        <ele>2265.0</ele>
        <time>2013-05-11T13:54:43Z</time>
      </trkpt>
      <trkpt lat="40.532817" lon="-4.929000">
        <ele>2263.0</ele>
        <time>2013-05-11T13:54:44Z</time>
      </trkpt>
      <trkpt lat="40.532883" lon="-4.928883">
        <ele>2260.0</ele>
        <time>2013-05-11T13:54:45Z</time>
      </trkpt>
      <trkpt lat="40.532917" lon="-4.928767">
        <ele>2258.0</ele>
        <time>2013-05-11T13:54:46Z</time>
      </trkpt>
      <trkpt lat="40.532983" lon="-4.928633">
        <ele>2255.0</ele>
        <time>2013-05-11T13:54:47Z</time>
      </trkpt>
      <trkpt lat="40.533033" lon="-4.928517">
        <ele>2252.0</ele>
        <time>2013-05-11T13:54:48Z</time>
      </trkpt>
      <trkpt lat="40.533100" lon="-4.928400">
        <ele>2250.0</ele>
        <time>2013-05-11T13:54:49Z</time>
      </trkpt>
      <trkpt lat="40.533150" lon="-4.928283">
        <ele>2248.0</ele>
        <time>2013-05-11T13:54:50Z</time>
      </trkpt>
      <trkpt lat="40.533200" lon="-4.928150">
        <ele>2245.0</ele>
        <time>2013-05-11T13:54:51Z</time>
      </trkpt>
      <trkpt lat="40.533233" lon="-4.928017">
        <ele>2243.0</ele>
        <time>2013-05-11T13:54:52Z</time>
      </trkpt>
      <trkpt lat="40.533267" lon="-4.927883">
        <ele>2240.0</ele>
        <time>2013-05-11T13:54:53Z</time>
      </trkpt>
      <trkpt lat="40.533317" lon="-4.927750">
        <ele>2238.0</ele>
        <time>2013-05-11T13:54:54Z</time>
      </trkpt>
      <trkpt lat="40.533350" lon="-4.927600">
        <ele>2236.0</ele>
        <time>2013-05-11T13:54:55Z</time>
      </trkpt>
      <trkpt lat="40.533383" lon="-4.927450">
        <ele>2235.0</ele>
        <time>2013-05-11T13:54:56Z</time>
      </trkpt>
      <trkpt lat="40.533400" lon="-4.927300">
        <ele>2234.0</ele>
        <time>2013-05-11T13:54:57Z</time>
      </trkpt>
      <trkpt lat="40.533417" lon="-4.927133">
        <ele>2234.0</ele>
        <time>2013-05-11T13:54:58Z</time>
      </trkpt>
      <trkpt lat="40.533450" lon="-4.927000">
        <ele>2236.0</ele>
        <time>2013-05-11T13:54:59Z</time>
      </trkpt>
      <trkpt lat="40.533467" lon="-4.926867">
        <ele>2238.0</ele>
        <time>2013-05-11T13:55:00Z</time>
      </trkpt>
      <trkpt lat="40.533467" lon="-4.926767">
        <ele>2238.0</ele>
        <time>2013-05-11T13:55:01Z</time>
      </trkpt>
      <trkpt lat="40.533467" lon="-4.926650">
        <ele>2237.0</ele>
        <time>2013-05-11T13:55:02Z</time>
      </trkpt>
      <trkpt lat="40.533467" lon="-4.926533">
        <ele>2235.0</ele>
        <time>2013-05-11T13:55:03Z</time>
      </trkpt>
      <trkpt lat="40.533467" lon="-4.926417">
        <ele>2233.0</ele>
        <time>2013-05-11T13:55:04Z</time>
      </trkpt>
      <trkpt lat="40.533500" lon="-4.926267">
        <ele>2230.0</ele>
        <time>2013-05-11T13:55:05Z</time>
      </trkpt>
      <trkpt lat="40.533533" lon="-4.926133">
        <ele>2229.0</ele>
        <time>2013-05-11T13:55:06Z</time>
      </trkpt>
      <trkpt lat="40.533567" lon="-4.926000">
        <ele>2228.0</ele>
        <time>2013-05-11T13:55:07Z</time>
      </trkpt>
      <trkpt lat="40.533583" lon="-4.925883">
        <ele>2228.0</ele>
        <time>2013-05-11T13:55:08Z</time>
      </trkpt>
      <trkpt lat="40.533583" lon="-4.925767">
        <ele>2228.0</ele>
        <time>2013-05-11T13:55:09Z</time>
      </trkpt>
      <trkpt lat="40.533600" lon="-4.925667">
        <ele>2227.0</ele>
        <time>2013-05-11T13:55:10Z</time>
      </trkpt>
      <trkpt lat="40.533633" lon="-4.925550">
        <ele>2226.0</ele>
        <time>2013-05-11T13:55:11Z</time>
      </trkpt>
      <trkpt lat="40.533650" lon="-4.925417">
        <ele>2224.0</ele>
        <time>2013-05-11T13:55:12Z</time>
      </trkpt>
      <trkpt lat="40.533683" lon="-4.925283">
        <ele>2223.0</ele>
        <time>2013-05-11T13:55:13Z</time>
      </trkpt>
      <trkpt lat="40.533683" lon="-4.925150">
        <ele>2222.0</ele>
        <time>2013-05-11T13:55:14Z</time>
      </trkpt>
      <trkpt lat="40.533700" lon="-4.925017">
        <ele>2222.0</ele>
        <time>2013-05-11T13:55:15Z</time>
      </trkpt>
      <trkpt lat="40.533717" lon="-4.924883">
        <ele>2222.0</ele>
        <time>2013-05-11T13:55:16Z</time>
      </trkpt>
      <trkpt lat="40.533750" lon="-4.924767">
        <ele>2223.0</ele>
        <time>2013-05-11T13:55:17Z</time>
      </trkpt>
      <trkpt lat="40.533767" lon="-4.924650">
        <ele>2222.0</ele>
        <time>2013-05-11T13:55:18Z</time>
      </trkpt>
      <trkpt lat="40.533767" lon="-4.924533">
        <ele>2221.0</ele>
        <time>2013-05-11T13:55:19Z</time>
      </trkpt>
      <trkpt lat="40.533783" lon="-4.924400">
        <ele>2220.0</ele>
        <time>2013-05-11T13:55:20Z</time>
      </trkpt>
      <trkpt lat="40.533800" lon="-4.924250">
        <ele>2219.0</ele>
        <time>2013-05-11T13:55:21Z</time>
      </trkpt>
      <trkpt lat="40.533833" lon="-4.924117">
        <ele>2220.0</ele>
        <time>2013-05-11T13:55:22Z</time>
      </trkpt>
      <trkpt lat="40.533867" lon="-4.924000">
        <ele>2222.0</ele>
        <time>2013-05-11T13:55:23Z</time>
      </trkpt>
      <trkpt lat="40.533883" lon="-4.923883">
        <ele>2223.0</ele>
        <time>2013-05-11T13:55:24Z</time>
      </trkpt>
      <trkpt lat="40.533900" lon="-4.923783">
        <ele>2223.0</ele>
        <time>2013-05-11T13:55:25Z</time>
      </trkpt>
      <trkpt lat="40.533917" lon="-4.923667">
        <ele>2222.0</ele>
        <time>2013-05-11T13:55:26Z</time>
      </trkpt>
      <trkpt lat="40.533933" lon="-4.923533">
        <ele>2220.0</ele>
        <time>2013-05-11T13:55:27Z</time>
      </trkpt>
      <trkpt lat="40.533950" lon="-4.923400">
        <ele>2218.0</ele>
        <time>2013-05-11T13:55:28Z</time>
      </trkpt>
      <trkpt lat="40.533983" lon="-4.923267">
        <ele>2217.0</ele>
        <time>2013-05-11T13:55:29Z</time>
      </trkpt>
      <trkpt lat="40.534017" lon="-4.923133">
        <ele>2216.0</ele>
        <time>2013-05-11T13:55:30Z</time>
      </trkpt>
      <trkpt lat="40.534050" lon="-4.923000">
        <ele>2216.0</ele>
        <time>2013-05-11T13:55:31Z</time>
      </trkpt>
      <trkpt lat="40.534067" lon="-4.922883">
        <ele>2215.0</ele>
        <time>2013-05-11T13:55:32Z</time>
      </trkpt>
      <trkpt lat="40.534100" lon="-4.922750">
        <ele>2215.0</ele>
        <time>2013-05-11T13:55:33Z</time>
      </trkpt>
      <trkpt lat="40.534117" lon="-4.922633">
        <ele>2214.0</ele>
        <time>2013-05-11T13:55:34Z</time>
      </trkpt>
      <trkpt lat="40.534150" lon="-4.922500">
        <ele>2213.0</ele>
        <time>2013-05-11T13:55:35Z</time>
      </trkpt>
      <trkpt lat="40.534167" lon="-4.922383">
        <ele>2211.0</ele>
        <time>2013-05-11T13:55:36Z</time>
      </trkpt>
      <trkpt lat="40.534183" lon="-4.922233">
        <ele>2209.0</ele>
        <time>2013-05-11T13:55:37Z</time>
      </trkpt>
      <trkpt lat="40.534200" lon="-4.922100">
        <ele>2208.0</ele>
        <time>2013-05-11T13:55:38Z</time>
      </trkpt>
      <trkpt lat="40.534217" lon="-4.921967">
        <ele>2207.0</ele>
        <time>2013-05-11T13:55:39Z</time>
      </trkpt>
      <trkpt lat="40.534233" lon="-4.921850">
        <ele>2206.0</ele>
        <time>2013-05-11T13:55:40Z</time>
      </trkpt>
      <trkpt lat="40.534250" lon="-4.921717">
        <ele>2205.0</ele>
        <time>2013-05-11T13:55:41Z</time>
      </trkpt>
      <trkpt lat="40.534267" lon="-4.921583">
        <ele>2204.0</ele>
        <time>2013-05-11T13:55:42Z</time>
      </trkpt>
      <trkpt lat="40.534283" lon="-4.921467">
        <ele>2203.0</ele>
        <time>2013-05-11T13:55:43Z</time>
      </trkpt>
      <trkpt lat="40.534300" lon="-4.921333">
        <ele>2202.0</ele>
        <time>2013-05-11T13:55:44Z</time>
      </trkpt>
      <trkpt lat="40.534317" lon="-4.921200">
        <ele>2201.0</ele>
        <time>2013-05-11T13:55:45Z</time>
      </trkpt>
      <trkpt lat="40.534333" lon="-4.921067">
        <ele>2201.0</ele>
        <time>2013-05-11T13:55:46Z</time>
      </trkpt>
      <trkpt lat="40.534350" lon="-4.920950">
        <ele>2201.0</ele>
        <time>2013-05-11T13:55:47Z</time>
      </trkpt>
      <trkpt lat="40.534350" lon="-4.920817">
        <ele>2200.0</ele>
        <time>2013-05-11T13:55:48Z</time>
      </trkpt>
      <trkpt lat="40.534367" lon="-4.920683">
        <ele>2199.0</ele>
        <time>2013-05-11T13:55:49Z</time>
      </trkpt>
      <trkpt lat="40.534367" lon="-4.920567">
        <ele>2199.0</ele>
        <time>2013-05-11T13:55:50Z</time>
      </trkpt>
      <trkpt lat="40.534367" lon="-4.920433">
        <ele>2198.0</ele>
        <time>2013-05-11T13:55:51Z</time>
      </trkpt>
      <trkpt lat="40.534367" lon="-4.920300">
        <ele>2198.0</ele>
        <time>2013-05-11T13:55:52Z</time>
      </trkpt>
      <trkpt lat="40.534350" lon="-4.920167">
        <ele>2198.0</ele>
        <time>2013-05-11T13:55:53Z</time>
      </trkpt>
      <trkpt lat="40.534350" lon="-4.920033">
        <ele>2197.0</ele>
        <time>2013-05-11T13:55:54Z</time>
      </trkpt>
      <trkpt lat="40.534350" lon="-4.919900">
        <ele>2197.0</ele>
        <time>2013-05-11T13:55:55Z</time>
      </trkpt>
      <trkpt lat="40.534333" lon="-4.919767">
        <ele>2197.0</ele>
        <time>2013-05-11T13:55:56Z</time>
      </trkpt>
      <trkpt lat="40.534317" lon="-4.919633">
        <ele>2197.0</ele>
        <time>2013-05-11T13:55:57Z</time>
      </trkpt>
      <trkpt lat="40.534300" lon="-4.919500">
        <ele>2197.0</ele>
        <time>2013-05-11T13:55:58Z</time>
      </trkpt>
      <trkpt lat="40.534283" lon="-4.919383">
        <ele>2196.0</ele>
        <time>2013-05-11T13:55:59Z</time>
      </trkpt>
      <trkpt lat="40.534267" lon="-4.919250">
        <ele>2195.0</ele>
        <time>2013-05-11T13:56:00Z</time>
      </trkpt>
      <trkpt lat="40.534250" lon="-4.919117">
        <ele>2195.0</ele>
        <time>2013-05-11T13:56:01Z</time>
      </trkpt>
      <trkpt lat="40.534233" lon="-4.918983">
        <ele>2194.0</ele>
        <time>2013-05-11T13:56:02Z</time>
      </trkpt>
      <trkpt lat="40.534217" lon="-4.918850">
        <ele>2194.0</ele>
        <time>2013-05-11T13:56:03Z</time>
      </trkpt>
      <trkpt lat="40.534217" lon="-4.918717">
        <ele>2195.0</ele>
        <time>2013-05-11T13:56:04Z</time>
      </trkpt>
      <trkpt lat="40.534200" lon="-4.918600">
        <ele>2195.0</ele>
        <time>2013-05-11T13:56:05Z</time>
      </trkpt>
      <trkpt lat="40.534183" lon="-4.918483">
        <ele>2195.0</ele>
        <time>2013-05-11T13:56:06Z</time>
      </trkpt>
      <trkpt lat="40.534167" lon="-4.918367">
        <ele>2196.0</ele>
        <time>2013-05-11T13:56:07Z</time>
      </trkpt>
      <trkpt lat="40.534167" lon="-4.918250">
        <ele>2196.0</ele>
        <time>2013-05-11T13:56:08Z</time>
      </trkpt>
      <trkpt lat="40.534167" lon="-4.918150">
        <ele>2197.0</ele>
        <time>2013-05-11T13:56:09Z</time>
      </trkpt>
      <trkpt lat="40.534150" lon="-4.918050">
        <ele>2198.0</ele>
        <time>2013-05-11T13:56:10Z</time>
      </trkpt>
      <trkpt lat="40.534133" lon="-4.917950">
        <ele>2198.0</ele>
        <time>2013-05-11T13:56:11Z</time>
      </trkpt>
      <trkpt lat="40.534083" lon="-4.917850">
        <ele>2198.0</ele>
        <time>2013-05-11T13:56:12Z</time>
      </trkpt>
      <trkpt lat="40.534033" lon="-4.917750">
        <ele>2199.0</ele>
        <time>2013-05-11T13:56:13Z</time>
      </trkpt>
      <trkpt lat="40.533983" lon="-4.917667">
        <ele>2199.0</ele>
        <time>2013-05-11T13:56:14Z</time>
      </trkpt>
      <trkpt lat="40.533950" lon="-4.917567">
        <ele>2200.0</ele>
        <time>2013-05-11T13:56:15Z</time>
      </trkpt>
      <trkpt lat="40.533900" lon="-4.917483">
        <ele>2200.0</ele>
        <time>2013-05-11T13:56:16Z</time>
      </trkpt>
      <trkpt lat="40.533833" lon="-4.917400">
        <ele>2200.0</ele>
        <time>2013-05-11T13:56:17Z</time>
      </trkpt>
      <trkpt lat="40.533767" lon="-4.917317">
        <ele>2200.0</ele>
        <time>2013-05-11T13:56:18Z</time>
      </trkpt>
      <trkpt lat="40.533683" lon="-4.917233">
        <ele>2201.0</ele>
        <time>2013-05-11T13:56:19Z</time>
      </trkpt>
      <trkpt lat="40.533633" lon="-4.917150">
        <ele>2201.0</ele>
        <time>2013-05-11T13:56:20Z</time>
      </trkpt>
      <trkpt lat="40.533583" lon="-4.917067">
        <ele>2201.0</ele>
        <time>2013-05-11T13:56:21Z</time>
      </trkpt>
      <trkpt lat="40.533550" lon="-4.916967">
        <ele>2201.0</ele>
        <time>2013-05-11T13:56:22Z</time>
      </trkpt>
      <trkpt lat="40.533517" lon="-4.916867">
        <ele>2202.0</ele>
        <time>2013-05-11T13:56:23Z</time>
      </trkpt>
      <trkpt lat="40.533483" lon="-4.916767">
        <ele>2203.0</ele>
        <time>2013-05-11T13:56:24Z</time>
      </trkpt>
      <trkpt lat="40.533467" lon="-4.916683">
        <ele>2204.0</ele>
        <time>2013-05-11T13:56:25Z</time>
      </trkpt>
      <trkpt lat="40.533467" lon="-4.916600">
        <ele>2205.0</ele>
        <time>2013-05-11T13:56:26Z</time>
      </trkpt>
      <trkpt lat="40.533467" lon="-4.916500">
        <ele>2205.0</ele>
        <time>2013-05-11T13:56:27Z</time>
      </trkpt>
      <trkpt lat="40.533467" lon="-4.916417">
        <ele>2205.0</ele>
        <time>2013-05-11T13:56:28Z</time>
      </trkpt>
      <trkpt lat="40.533483" lon="-4.916333">
        <ele>2206.0</ele>
        <time>2013-05-11T13:56:29Z</time>
      </trkpt>
      <trkpt lat="40.533483" lon="-4.916250">
        <ele>2206.0</ele>
        <time>2013-05-11T13:56:30Z</time>
      </trkpt>
      <trkpt lat="40.533517" lon="-4.916167">
        <ele>2207.0</ele>
        <time>2013-05-11T13:56:31Z</time>
      </trkpt>
      <trkpt lat="40.533533" lon="-4.916100">
        <ele>2208.0</ele>
        <time>2013-05-11T13:56:32Z</time>
      </trkpt>
      <trkpt lat="40.533550" lon="-4.916033">
        <ele>2209.0</ele>
        <time>2013-05-11T13:56:33Z</time>
      </trkpt>
      <trkpt lat="40.533583" lon="-4.915967">
        <ele>2210.0</ele>
        <time>2013-05-11T13:56:34Z</time>
      </trkpt>
      <trkpt lat="40.533633" lon="-4.915917">
        <ele>2210.0</ele>
        <time>2013-05-11T13:56:35Z</time>
      </trkpt>
      <trkpt lat="40.533683" lon="-4.915883">
        <ele>2210.0</ele>
        <time>2013-05-11T13:56:36Z</time>
      </trkpt>
      <trkpt lat="40.533733" lon="-4.915833">
        <ele>2211.0</ele>
        <time>2013-05-11T13:56:37Z</time>
      </trkpt>
      <trkpt lat="40.533783" lon="-4.915817">
        <ele>2212.0</ele>
        <time>2013-05-11T13:56:38Z</time>
      </trkpt>
      <trkpt lat="40.533850" lon="-4.915800">
        <ele>2213.0</ele>
        <time>2013-05-11T13:56:39Z</time>
      </trkpt>
      <trkpt lat="40.533900" lon="-4.915783">
        <ele>2214.0</ele>
        <time>2013-05-11T13:56:40Z</time>
      </trkpt>
      <trkpt lat="40.533950" lon="-4.915800">
        <ele>2214.0</ele>
        <time>2013-05-11T13:56:41Z</time>
      </trkpt>
      <trkpt lat="40.534000" lon="-4.915817">
        <ele>2214.0</ele>
        <time>2013-05-11T13:56:42Z</time>
      </trkpt>
      <trkpt lat="40.534067" lon="-4.915833">
        <ele>2214.0</ele>
        <time>2013-05-11T13:56:43Z</time>
      </trkpt>
      <trkpt lat="40.534117" lon="-4.915883">
        <ele>2213.0</ele>
        <time>2013-05-11T13:56:44Z</time>
      </trkpt>
      <trkpt lat="40.534183" lon="-4.915933">
        <ele>2214.0</ele>
        <time>2013-05-11T13:56:45Z</time>
      </trkpt>
      <trkpt lat="40.534233" lon="-4.915983">
        <ele>2214.0</ele>
        <time>2013-05-11T13:56:46Z</time>
      </trkpt>
      <trkpt lat="40.534267" lon="-4.916067">
        <ele>2215.0</ele>
        <time>2013-05-11T13:56:47Z</time>
      </trkpt>
      <trkpt lat="40.534300" lon="-4.916150">
        <ele>2214.0</ele>
        <time>2013-05-11T13:56:48Z</time>
      </trkpt>
      <trkpt lat="40.534333" lon="-4.916250">
        <ele>2214.0</ele>
        <time>2013-05-11T13:56:49Z</time>
      </trkpt>
      <trkpt lat="40.534367" lon="-4.916350">
        <ele>2214.0</ele>
        <time>2013-05-11T13:56:50Z</time>
      </trkpt>
      <trkpt lat="40.534383" lon="-4.916467">
        <ele>2214.0</ele>
        <time>2013-05-11T13:56:51Z</time>
      </trkpt>
      <trkpt lat="40.534400" lon="-4.916567">
        <ele>2214.0</ele>
        <time>2013-05-11T13:56:52Z</time>
      </trkpt>
      <trkpt lat="40.534383" lon="-4.916700">
        <ele>2213.0</ele>
        <time>2013-05-11T13:56:53Z</time>
      </trkpt>
      <trkpt lat="40.534350" lon="-4.916833">
        <ele>2212.0</ele>
        <time>2013-05-11T13:56:54Z</time>
      </trkpt>
      <trkpt lat="40.534283" lon="-4.916950">
        <ele>2211.0</ele>
        <time>2013-05-11T13:56:55Z</time>
      </trkpt>
      <trkpt lat="40.534200" lon="-4.917050">
        <ele>2211.0</ele>
        <time>2013-05-11T13:56:56Z</time>
      </trkpt>
      <trkpt lat="40.534100" lon="-4.917133">
        <ele>2211.0</ele>
        <time>2013-05-11T13:56:57Z</time>
      </trkpt>
      <trkpt lat="40.534000" lon="-4.917183">
        <ele>2212.0</ele>
        <time>2013-05-11T13:56:58Z</time>
      </trkpt>
      <trkpt lat="40.533900" lon="-4.917200">
        <ele>2213.0</ele>
        <time>2013-05-11T13:56:59Z</time>
      </trkpt>
      <trkpt lat="40.533800" lon="-4.917200">
        <ele>2213.0</ele>
        <time>2013-05-11T13:57:00Z</time>
      </trkpt>
      <trkpt lat="40.533700" lon="-4.917167">
        <ele>2214.0</ele>
        <time>2013-05-11T13:57:01Z</time>
      </trkpt>
      <trkpt lat="40.533633" lon="-4.917117">
        <ele>2214.0</ele>
        <time>2013-05-11T13:57:02Z</time>
      </trkpt>
      <trkpt lat="40.533550" lon="-4.917033">
        <ele>2213.0</ele>
        <time>2013-05-11T13:57:03Z</time>
      </trkpt>
      <trkpt lat="40.533500" lon="-4.916950">
        <ele>2213.0</ele>
        <time>2013-05-11T13:57:04Z</time>
      </trkpt>
      <trkpt lat="40.533467" lon="-4.916867">
        <ele>2213.0</ele>
        <time>2013-05-11T13:57:05Z</time>
      </trkpt>
      <trkpt lat="40.533450" lon="-4.916783">
        <ele>2213.0</ele>
        <time>2013-05-11T13:57:06Z</time>
      </trkpt>
      <trkpt lat="40.533433" lon="-4.916683">
        <ele>2213.0</ele>
        <time>2013-05-11T13:57:07Z</time>
      </trkpt>
      <trkpt lat="40.533433" lon="-4.916600">
        <ele>2213.0</ele>
        <time>2013-05-11T13:57:08Z</time>
      </trkpt>
      <trkpt lat="40.533433" lon="-4.916500">
        <ele>2213.0</ele>
        <time>2013-05-11T13:57:09Z</time>
      </trkpt>
      <trkpt lat="40.533433" lon="-4.916400">
        <ele>2213.0</ele>
        <time>2013-05-11T13:57:10Z</time>
      </trkpt>
      <trkpt lat="40.533433" lon="-4.916300">
        <ele>2213.0</ele>
        <time>2013-05-11T13:57:11Z</time>
      </trkpt>
      <trkpt lat="40.533433" lon="-4.916200">
        <ele>2213.0</ele>
        <time>2013-05-11T13:57:12Z</time>
      </trkpt>
      <trkpt lat="40.533433" lon="-4.916100">
        <ele>2212.0</ele>
        <time>2013-05-11T13:57:13Z</time>
      </trkpt>
      <trkpt lat="40.533450" lon="-4.915983">
        <ele>2211.0</ele>
        <time>2013-05-11T13:57:14Z</time>
      </trkpt>
      <trkpt lat="40.533450" lon="-4.915883">
        <ele>2211.0</ele>
        <time>2013-05-11T13:57:15Z</time>
      </trkpt>
      <trkpt lat="40.533450" lon="-4.915767">
        <ele>2210.0</ele>
        <time>2013-05-11T13:57:16Z</time>
      </trkpt>
      <trkpt lat="40.533450" lon="-4.915650">
        <ele>2211.0</ele>
        <time>2013-05-11T13:57:17Z</time>
      </trkpt>
      <trkpt lat="40.533433" lon="-4.915533">
        <ele>2213.0</ele>
        <time>2013-05-11T13:57:18Z</time>
      </trkpt>
      <trkpt lat="40.533433" lon="-4.915433">
        <ele>2215.0</ele>
        <time>2013-05-11T13:57:19Z</time>
      </trkpt>
      <trkpt lat="40.533417" lon="-4.915333">
        <ele>2216.0</ele>
        <time>2013-05-11T13:57:20Z</time>
      </trkpt>
      <trkpt lat="40.533400" lon="-4.915233">
        <ele>2217.0</ele>
        <time>2013-05-11T13:57:21Z</time>
      </trkpt>
      <trkpt lat="40.533383" lon="-4.915150">
        <ele>2218.0</ele>
        <time>2013-05-11T13:57:22Z</time>
      </trkpt>
      <trkpt lat="40.533367" lon="-4.915067">
        <ele>2220.0</ele>
        <time>2013-05-11T13:57:23Z</time>
      </trkpt>
      <trkpt lat="40.533367" lon="-4.914983">
        <ele>2222.0</ele>
        <time>2013-05-11T13:57:24Z</time>
      </trkpt>
      <trkpt lat="40.533400" lon="-4.914917">
        <ele>2222.0</ele>
        <time>2013-05-11T13:57:25Z</time>
      </trkpt>
      <trkpt lat="40.533433" lon="-4.914867">
        <ele>2223.0</ele>
        <time>2013-05-11T13:57:26Z</time>
      </trkpt>
      <trkpt lat="40.533483" lon="-4.914833">
        <ele>2224.0</ele>
        <time>2013-05-11T13:57:27Z</time>
      </trkpt>
      <trkpt lat="40.533533" lon="-4.914817">
        <ele>2226.0</ele>
        <time>2013-05-11T13:57:28Z</time>
      </trkpt>
      <trkpt lat="40.533583" lon="-4.914817">
        <ele>2227.0</ele>
        <time>2013-05-11T13:57:29Z</time>
      </trkpt>
      <trkpt lat="40.533633" lon="-4.914833">
        <ele>2228.0</ele>
        <time>2013-05-11T13:57:30Z</time>
      </trkpt>
      <trkpt lat="40.533700" lon="-4.914867">
        <ele>2228.0</ele>
        <time>2013-05-11T13:57:31Z</time>
      </trkpt>
      <trkpt lat="40.533750" lon="-4.914917">
        <ele>2228.0</ele>
        <time>2013-05-11T13:57:32Z</time>
      </trkpt>
      <trkpt lat="40.533817" lon="-4.914983">
        <ele>2229.0</ele>
        <time>2013-05-11T13:57:33Z</time>
      </trkpt>
      <trkpt lat="40.533850" lon="-4.915083">
        <ele>2230.0</ele>
        <time>2013-05-11T13:57:34Z</time>
      </trkpt>
      <trkpt lat="40.533883" lon="-4.915200">
        <ele>2231.0</ele>
        <time>2013-05-11T13:57:35Z</time>
      </trkpt>
      <trkpt lat="40.533900" lon="-4.915317">
        <ele>2232.0</ele>
        <time>2013-05-11T13:57:36Z</time>
      </trkpt>
      <trkpt lat="40.533883" lon="-4.915433">
        <ele>2234.0</ele>
        <time>2013-05-11T13:57:37Z</time>
      </trkpt>
      <trkpt lat="40.533867" lon="-4.915550">
        <ele>2235.0</ele>
        <time>2013-05-11T13:57:38Z</time>
      </trkpt>
      <trkpt lat="40.533833" lon="-4.915667">
        <ele>2235.0</ele>
        <time>2013-05-11T13:57:39Z</time>
      </trkpt>
      <trkpt lat="40.533783" lon="-4.915800">
        <ele>2234.0</ele>
        <time>2013-05-11T13:57:40Z</time>
      </trkpt>
      <trkpt lat="40.533733" lon="-4.915917">
        <ele>2234.0</ele>
        <time>2013-05-11T13:57:41Z</time>
      </trkpt>
      <trkpt lat="40.533650" lon="-4.916033">
        <ele>2235.0</ele>
        <time>2013-05-11T13:57:42Z</time>
      </trkpt>
      <trkpt lat="40.533567" lon="-4.916117">
        <ele>2236.0</ele>
        <time>2013-05-11T13:57:43Z</time>
      </trkpt>
      <trkpt lat="40.533467" lon="-4.916167">
        <ele>2237.0</ele>
        <time>2013-05-11T13:57:44Z</time>
      </trkpt>
      <trkpt lat="40.533350" lon="-4.916200">
        <ele>2237.0</ele>
        <time>2013-05-11T13:57:45Z</time>
      </trkpt>
      <trkpt lat="40.533250" lon="-4.916200">
        <ele>2238.0</ele>
        <time>2013-05-11T13:57:46Z</time>
      </trkpt>
      <trkpt lat="40.533133" lon="-4.916183">
        <ele>2238.0</ele>
        <time>2013-05-11T13:57:47Z</time>
      </trkpt>
      <trkpt lat="40.533017" lon="-4.916117">
        <ele>2238.0</ele>
        <time>2013-05-11T13:57:48Z</time>
      </trkpt>
      <trkpt lat="40.532933" lon="-4.916017">
        <ele>2239.0</ele>
        <time>2013-05-11T13:57:49Z</time>
      </trkpt>
      <trkpt lat="40.532867" lon="-4.915917">
        <ele>2240.0</ele>
        <time>2013-05-11T13:57:50Z</time>
      </trkpt>
      <trkpt lat="40.532817" lon="-4.915817">
        <ele>2242.0</ele>
        <time>2013-05-11T13:57:51Z</time>
      </trkpt>
      <trkpt lat="40.532800" lon="-4.915717">
        <ele>2243.0</ele>
        <time>2013-05-11T13:57:52Z</time>
      </trkpt>
      <trkpt lat="40.532767" lon="-4.915633">
        <ele>2245.0</ele>
        <time>2013-05-11T13:57:53Z</time>
      </trkpt>
      <trkpt lat="40.532767" lon="-4.915550">
        <ele>2245.0</ele>
        <time>2013-05-11T13:57:54Z</time>
      </trkpt>
      <trkpt lat="40.532783" lon="-4.915467">
        <ele>2246.0</ele>
        <time>2013-05-11T13:57:55Z</time>
      </trkpt>
      <trkpt lat="40.532800" lon="-4.915383">
        <ele>2247.0</ele>
        <time>2013-05-11T13:57:56Z</time>
      </trkpt>
      <trkpt lat="40.532833" lon="-4.915317">
        <ele>2249.0</ele>
        <time>2013-05-11T13:57:57Z</time>
      </trkpt>
      <trkpt lat="40.532883" lon="-4.915267">
        <ele>2252.0</ele>
        <time>2013-05-11T13:57:58Z</time>
      </trkpt>
      <trkpt lat="40.532917" lon="-4.915233">
        <ele>2254.0</ele>
        <time>2013-05-11T13:57:59Z</time>
      </trkpt>
      <trkpt lat="40.532967" lon="-4.915217">
        <ele>2256.0</ele>
        <time>2013-05-11T13:58:00Z</time>
      </trkpt>
      <trkpt lat="40.533017" lon="-4.915183">
        <ele>2257.0</ele>
        <time>2013-05-11T13:58:01Z</time>
      </trkpt>
      <trkpt lat="40.533067" lon="-4.915167">
        <ele>2259.0</ele>
        <time>2013-05-11T13:58:02Z</time>
      </trkpt>
      <trkpt lat="40.533133" lon="-4.915167">
        <ele>2260.0</ele>
        <time>2013-05-11T13:58:03Z</time>
      </trkpt>
      <trkpt lat="40.533200" lon="-4.915200">
        <ele>2261.0</ele>
        <time>2013-05-11T13:58:04Z</time>
      </trkpt>
      <trkpt lat="40.533267" lon="-4.915283">
        <ele>2262.0</ele>
        <time>2013-05-11T13:58:05Z</time>
      </trkpt>
      <trkpt lat="40.533317" lon="-4.915367">
        <ele>2263.0</ele>
        <time>2013-05-11T13:58:06Z</time>
      </trkpt>
      <trkpt lat="40.533350" lon="-4.915467">
        <ele>2264.0</ele>
        <time>2013-05-11T13:58:07Z</time>
      </trkpt>
      <trkpt lat="40.533367" lon="-4.915567">
        <ele>2265.0</ele>
        <time>2013-05-11T13:58:08Z</time>
      </trkpt>
      <trkpt lat="40.533383" lon="-4.915667">
        <ele>2266.0</ele>
        <time>2013-05-11T13:58:09Z</time>
      </trkpt>
      <trkpt lat="40.533383" lon="-4.915783">
        <ele>2266.0</ele>
        <time>2013-05-11T13:58:10Z</time>
      </trkpt>
      <trkpt lat="40.533383" lon="-4.915917">
        <ele>2265.0</ele>
        <time>2013-05-11T13:58:11Z</time>
      </trkpt>
      <trkpt lat="40.533350" lon="-4.916067">
        <ele>2266.0</ele>
        <time>2013-05-11T13:58:12Z</time>
      </trkpt>
      <trkpt lat="40.533300" lon="-4.916183">
        <ele>2269.0</ele>
        <time>2013-05-11T13:58:13Z</time>
      </trkpt>
      <trkpt lat="40.533233" lon="-4.916267">
        <ele>2271.0</ele>
        <time>2013-05-11T13:58:14Z</time>
      </trkpt>
      <trkpt lat="40.533150" lon="-4.916317">
        <ele>2273.0</ele>
        <time>2013-05-11T13:58:15Z</time>
      </trkpt>
      <trkpt lat="40.533067" lon="-4.916350">
        <ele>2274.0</ele>
        <time>2013-05-11T13:58:16Z</time>
      </trkpt>
      <trkpt lat="40.532983" lon="-4.916383">
        <ele>2274.0</ele>
        <time>2013-05-11T13:58:17Z</time>
      </trkpt>
      <trkpt lat="40.532883" lon="-4.916400">
        <ele>2273.0</ele>
        <time>2013-05-11T13:58:18Z</time>
      </trkpt>
      <trkpt lat="40.532767" lon="-4.916417">
        <ele>2272.0</ele>
        <time>2013-05-11T13:58:19Z</time>
      </trkpt>
      <trkpt lat="40.532650" lon="-4.916383">
        <ele>2271.0</ele>
        <time>2013-05-11T13:58:20Z</time>
      </trkpt>
      <trkpt lat="40.532550" lon="-4.916333">
        <ele>2271.0</ele>
        <time>2013-05-11T13:58:21Z</time>
      </trkpt>
      <trkpt lat="40.532467" lon="-4.916250">
        <ele>2272.0</ele>
        <time>2013-05-11T13:58:22Z</time>
      </trkpt>
      <trkpt lat="40.532400" lon="-4.916183">
        <ele>2273.0</ele>
        <time>2013-05-11T13:58:23Z</time>
      </trkpt>
      <trkpt lat="40.532333" lon="-4.916117">
        <ele>2274.0</ele>
        <time>2013-05-11T13:58:24Z</time>
      </trkpt>
      <trkpt lat="40.532300" lon="-4.916033">
        <ele>2274.0</ele>
        <time>2013-05-11T13:58:25Z</time>
      </trkpt>
      <trkpt lat="40.532250" lon="-4.915933">
        <ele>2273.0</ele>
        <time>2013-05-11T13:58:26Z</time>
      </trkpt>
      <trkpt lat="40.532233" lon="-4.915817">
        <ele>2272.0</ele>
        <time>2013-05-11T13:58:27Z</time>
      </trkpt>
      <trkpt lat="40.532233" lon="-4.915700">
        <ele>2272.0</ele>
        <time>2013-05-11T13:58:28Z</time>
      </trkpt>
      <trkpt lat="40.532250" lon="-4.915600">
        <ele>2274.0</ele>
        <time>2013-05-11T13:58:29Z</time>
      </trkpt>
      <trkpt lat="40.532283" lon="-4.915517">
        <ele>2276.0</ele>
        <time>2013-05-11T13:58:30Z</time>
      </trkpt>
      <trkpt lat="40.532300" lon="-4.915450">
        <ele>2278.0</ele>
        <time>2013-05-11T13:58:31Z</time>
      </trkpt>
      <trkpt lat="40.532317" lon="-4.915367">
        <ele>2280.0</ele>
        <time>2013-05-11T13:58:32Z</time>
      </trkpt>
      <trkpt lat="40.532333" lon="-4.915283">
        <ele>2281.0</ele>
        <time>2013-05-11T13:58:33Z</time>
      </trkpt>
      <trkpt lat="40.532383" lon="-4.915217">
        <ele>2282.0</ele>
        <time>2013-05-11T13:58:34Z</time>
      </trkpt>
      <trkpt lat="40.532433" lon="-4.915167">
        <ele>2283.0</ele>
        <time>2013-05-11T13:58:35Z</time>
      </trkpt>
      <trkpt lat="40.532500" lon="-4.915133">
        <ele>2285.0</ele>
        <time>2013-05-11T13:58:36Z</time>
      </trkpt>
      <trkpt lat="40.532567" lon="-4.915133">
        <ele>2287.0</ele>
        <time>2013-05-11T13:58:37Z</time>
      </trkpt>
      <trkpt lat="40.532633" lon="-4.915117">
        <ele>2288.0</ele>
        <time>2013-05-11T13:58:38Z</time>
      </trkpt>
      <trkpt lat="40.532700" lon="-4.915133">
        <ele>2290.0</ele>
        <time>2013-05-11T13:58:39Z</time>
      </trkpt>
      <trkpt lat="40.532767" lon="-4.915150">
        <ele>2292.0</ele>
        <time>2013-05-11T13:58:40Z</time>
      </trkpt>
      <trkpt lat="40.532817" lon="-4.915183">
        <ele>2294.0</ele>
        <time>2013-05-11T13:58:41Z</time>
      </trkpt>
      <trkpt lat="40.532867" lon="-4.915217">
        <ele>2295.0</ele>
        <time>2013-05-11T13:58:42Z</time>
      </trkpt>
      <trkpt lat="40.532917" lon="-4.915283">
        <ele>2296.0</ele>
        <time>2013-05-11T13:58:43Z</time>
      </trkpt>
      <trkpt lat="40.532983" lon="-4.915350">
        <ele>2296.0</ele>
        <time>2013-05-11T13:58:44Z</time>
      </trkpt>
      <trkpt lat="40.533033" lon="-4.915433">
        <ele>2296.0</ele>
        <time>2013-05-11T13:58:45Z</time>
      </trkpt>
      <trkpt lat="40.533083" lon="-4.915533">
        <ele>2296.0</ele>
        <time>2013-05-11T13:58:46Z</time>
      </trkpt>
      <trkpt lat="40.533117" lon="-4.915667">
        <ele>2297.0</ele>
        <time>2013-05-11T13:58:47Z</time>
      </trkpt>
      <trkpt lat="40.533117" lon="-4.915800">
        <ele>2299.0</ele>
        <time>2013-05-11T13:58:48Z</time>
      </trkpt>
      <trkpt lat="40.533117" lon="-4.915933">
        <ele>2300.0</ele>
        <time>2013-05-11T13:58:49Z</time>
      </trkpt>
      <trkpt lat="40.533083" lon="-4.916050">
        <ele>2301.0</ele>
        <time>2013-05-11T13:58:50Z</time>
      </trkpt>
      <trkpt lat="40.533050" lon="-4.916150">
        <ele>2302.0</ele>
        <time>2013-05-11T13:58:51Z</time>
      </trkpt>
      <trkpt lat="40.532983" lon="-4.916267">
        <ele>2302.0</ele>
        <time>2013-05-11T13:58:52Z</time>
      </trkpt>
      <trkpt lat="40.532917" lon="-4.916367">
        <ele>2302.0</ele>
        <time>2013-05-11T13:58:53Z</time>
      </trkpt>
      <trkpt lat="40.532833" lon="-4.916467">
        <ele>2302.0</ele>
        <time>2013-05-11T13:58:54Z</time>
      </trkpt>
      <trkpt lat="40.532750" lon="-4.916533">
        <ele>2304.0</ele>
        <time>2013-05-11T13:58:55Z</time>
      </trkpt>
      <trkpt lat="40.532650" lon="-4.916583">
        <ele>2305.0</ele>
        <time>2013-05-11T13:58:56Z</time>
      </trkpt>
      <trkpt lat="40.532550" lon="-4.916600">
        <ele>2305.0</ele>
        <time>2013-05-11T13:58:57Z</time>
      </trkpt>
      <trkpt lat="40.532450" lon="-4.916583">
        <ele>2306.0</ele>
        <time>2013-05-11T13:58:58Z</time>
      </trkpt>
      <trkpt lat="40.532333" lon="-4.916567">
        <ele>2307.0</ele>
        <time>2013-05-11T13:58:59Z</time>
      </trkpt>
      <trkpt lat="40.532233" lon="-4.916517">
        <ele>2307.0</ele>
        <time>2013-05-11T13:59:00Z</time>
      </trkpt>
      <trkpt lat="40.532150" lon="-4.916433">
        <ele>2308.0</ele>
        <time>2013-05-11T13:59:01Z</time>
      </trkpt>
      <trkpt lat="40.532067" lon="-4.916350">
        <ele>2308.0</ele>
        <time>2013-05-11T13:59:02Z</time>
      </trkpt>
      <trkpt lat="40.531983" lon="-4.916233">
        <ele>2309.0</ele>
        <time>2013-05-11T13:59:03Z</time>
      </trkpt>
      <trkpt lat="40.531933" lon="-4.916117">
        <ele>2310.0</ele>
        <time>2013-05-11T13:59:04Z</time>
      </trkpt>
      <trkpt lat="40.531900" lon="-4.916000">
        <ele>2312.0</ele>
        <time>2013-05-11T13:59:05Z</time>
      </trkpt>
      <trkpt lat="40.531883" lon="-4.915883">
        <ele>2313.0</ele>
        <time>2013-05-11T13:59:06Z</time>
      </trkpt>
      <trkpt lat="40.531883" lon="-4.915767">
        <ele>2314.0</ele>
        <time>2013-05-11T13:59:07Z</time>
      </trkpt>
      <trkpt lat="40.531900" lon="-4.915667">
        <ele>2315.0</ele>
        <time>2013-05-11T13:59:08Z</time>
      </trkpt>
      <trkpt lat="40.531900" lon="-4.915567">
        <ele>2315.0</ele>
        <time>2013-05-11T13:59:09Z</time>
      </trkpt>
      <trkpt lat="40.531917" lon="-4.915483">
        <ele>2316.0</ele>
        <time>2013-05-11T13:59:10Z</time>
      </trkpt>
      <trkpt lat="40.531950" lon="-4.915383">
        <ele>2317.0</ele>
        <time>2013-05-11T13:59:11Z</time>
      </trkpt>
      <trkpt lat="40.531983" lon="-4.915300">
        <ele>2319.0</ele>
        <time>2013-05-11T13:59:12Z</time>
      </trkpt>
      <trkpt lat="40.532033" lon="-4.915250">
        <ele>2321.0</ele>
        <time>2013-05-11T13:59:13Z</time>
      </trkpt>
      <trkpt lat="40.532067" lon="-4.915200">
        <ele>2323.0</ele>
        <time>2013-05-11T13:59:14Z</time>
      </trkpt>
      <trkpt lat="40.532117" lon="-4.915183">
        <ele>2324.0</ele>
        <time>2013-05-11T13:59:15Z</time>
      </trkpt>
      <trkpt lat="40.532167" lon="-4.915150">
        <ele>2325.0</ele>
        <time>2013-05-11T13:59:16Z</time>
      </trkpt>
      <trkpt lat="40.532233" lon="-4.915133">
        <ele>2325.0</ele>
        <time>2013-05-11T13:59:17Z</time>
      </trkpt>
      <trkpt lat="40.532300" lon="-4.915133">
        <ele>2326.0</ele>
        <time>2013-05-11T13:59:18Z</time>
      </trkpt>
      <trkpt lat="40.532367" lon="-4.915167">
        <ele>2328.0</ele>
        <time>2013-05-11T13:59:19Z</time>
      </trkpt>
      <trkpt lat="40.532417" lon="-4.915217">
        <ele>2329.0</ele>
        <time>2013-05-11T13:59:20Z</time>
      </trkpt>
      <trkpt lat="40.532467" lon="-4.915283">
        <ele>2329.0</ele>
        <time>2013-05-11T13:59:21Z</time>
      </trkpt>
      <trkpt lat="40.532517" lon="-4.915350">
        <ele>2330.0</ele>
        <time>2013-05-11T13:59:22Z</time>
      </trkpt>
      <trkpt lat="40.532550" lon="-4.915433">
        <ele>2330.0</ele>
        <time>2013-05-11T13:59:23Z</time>
      </trkpt>
      <trkpt lat="40.532583" lon="-4.915517">
        <ele>2330.0</ele>
        <time>2013-05-11T13:59:24Z</time>
      </trkpt>
      <trkpt lat="40.532617" lon="-4.915633">
        <ele>2329.0</ele>
        <time>2013-05-11T13:59:25Z</time>
      </trkpt>
      <trkpt lat="40.532617" lon="-4.915767">
        <ele>2329.0</ele>
        <time>2013-05-11T13:59:26Z</time>
      </trkpt>
      <trkpt lat="40.532617" lon="-4.915917">
        <ele>2329.0</ele>
        <time>2013-05-11T13:59:27Z</time>
      </trkpt>
      <trkpt lat="40.532600" lon="-4.916050">
        <ele>2330.0</ele>
        <time>2013-05-11T13:59:28Z</time>
      </trkpt>
      <trkpt lat="40.532567" lon="-4.916183">
        <ele>2332.0</ele>
        <time>2013-05-11T13:59:29Z</time>
      </trkpt>
      <trkpt lat="40.532517" lon="-4.916300">
        <ele>2333.0</ele>
        <time>2013-05-11T13:59:30Z</time>
      </trkpt>
      <trkpt lat="40.532450" lon="-4.916400">
        <ele>2334.0</ele>
        <time>2013-05-11T13:59:31Z</time>
      </trkpt>
      <trkpt lat="40.532383" lon="-4.916500">
        <ele>2335.0</ele>
        <time>2013-05-11T13:59:32Z</time>
      </trkpt>
      <trkpt lat="40.532300" lon="-4.916583">
        <ele>2335.0</ele>
        <time>2013-05-11T13:59:33Z</time>
      </trkpt>
      <trkpt lat="40.532200" lon="-4.916633">
        <ele>2336.0</ele>
        <time>2013-05-11T13:59:34Z</time>
      </trkpt>
      <trkpt lat="40.532100" lon="-4.916633">
        <ele>2337.0</ele>
        <time>2013-05-11T13:59:35Z</time>
      </trkpt>
      <trkpt lat="40.532017" lon="-4.916617">
        <ele>2338.0</ele>
        <time>2013-05-11T13:59:36Z</time>
      </trkpt>
      <trkpt lat="40.531933" lon="-4.916583">
        <ele>2338.0</ele>
        <time>2013-05-11T13:59:37Z</time>
      </trkpt>
      <trkpt lat="40.531850" lon="-4.916533">
        <ele>2337.0</ele>
        <time>2013-05-11T13:59:38Z</time>
      </trkpt>
      <trkpt lat="40.531750" lon="-4.916467">
        <ele>2336.0</ele>
        <time>2013-05-11T13:59:39Z</time>
      </trkpt>
      <trkpt lat="40.531667" lon="-4.916350">
        <ele>2336.0</ele>
        <time>2013-05-11T13:59:40Z</time>
      </trkpt>
      <trkpt lat="40.531617" lon="-4.916233">
        <ele>2338.0</ele>
        <time>2013-05-11T13:59:41Z</time>
      </trkpt>
      <trkpt lat="40.531583" lon="-4.916133">
        <ele>2340.0</ele>
        <time>2013-05-11T13:59:42Z</time>
      </trkpt>
      <trkpt lat="40.531567" lon="-4.916033">
        <ele>2342.0</ele>
        <time>2013-05-11T13:59:43Z</time>
      </trkpt>
      <trkpt lat="40.531550" lon="-4.915933">
        <ele>2342.0</ele>
        <time>2013-05-11T13:59:44Z</time>
      </trkpt>
      <trkpt lat="40.531533" lon="-4.915817">
        <ele>2342.0</ele>
        <time>2013-05-11T13:59:45Z</time>
      </trkpt>
      <trkpt lat="40.531533" lon="-4.915700">
        <ele>2342.0</ele>
        <time>2013-05-11T13:59:46Z</time>
      </trkpt>
      <trkpt lat="40.531550" lon="-4.915583">
        <ele>2343.0</ele>
        <time>2013-05-11T13:59:47Z</time>
      </trkpt>
      <trkpt lat="40.531567" lon="-4.915483">
        <ele>2345.0</ele>
        <time>2013-05-11T13:59:48Z</time>
      </trkpt>
      <trkpt lat="40.531600" lon="-4.915417">
        <ele>2347.0</ele>
        <time>2013-05-11T13:59:49Z</time>
      </trkpt>
      <trkpt lat="40.531617" lon="-4.915350">
        <ele>2348.0</ele>
        <time>2013-05-11T13:59:50Z</time>
      </trkpt>
      <trkpt lat="40.531650" lon="-4.915267">
        <ele>2347.0</ele>
        <time>2013-05-11T13:59:51Z</time>
      </trkpt>
      <trkpt lat="40.531700" lon="-4.915183">
        <ele>2346.0</ele>
        <time>2013-05-11T13:59:52Z</time>
      </trkpt>
      <trkpt lat="40.531750" lon="-4.915117">
        <ele>2347.0</ele>
        <time>2013-05-11T13:59:53Z</time>
      </trkpt>
      <trkpt lat="40.531833" lon="-4.915083">
        <ele>2348.0</ele>
        <time>2013-05-11T13:59:54Z</time>
      </trkpt>
      <trkpt lat="40.531900" lon="-4.915067">
        <ele>2350.0</ele>
        <time>2013-05-11T13:59:55Z</time>
      </trkpt>
      <trkpt lat="40.531950" lon="-4.915067">
        <ele>2352.0</ele>
        <time>2013-05-11T13:59:56Z</time>
      </trkpt>
      <trkpt lat="40.532017" lon="-4.915067">
        <ele>2353.0</ele>
        <time>2013-05-11T13:59:57Z</time>
      </trkpt>
      <trkpt lat="40.532100" lon="-4.915067">
        <ele>2353.0</ele>
        <time>2013-05-11T13:59:58Z</time>
      </trkpt>
      <trkpt lat="40.532183" lon="-4.915083">
        <ele>2355.0</ele>
        <time>2013-05-11T13:59:59Z</time>
      </trkpt>
      <trkpt lat="40.532250" lon="-4.915133">
        <ele>2356.0</ele>
        <time>2013-05-11T14:00:00Z</time>
      </trkpt>
      <trkpt lat="40.532317" lon="-4.915200">
        <ele>2359.0</ele>
        <time>2013-05-11T14:00:01Z</time>
      </trkpt>
      <trkpt lat="40.532367" lon="-4.915300">
        <ele>2360.0</ele>
        <time>2013-05-11T14:00:02Z</time>
      </trkpt>
      <trkpt lat="40.532400" lon="-4.915383">
        <ele>2361.0</ele>
        <time>2013-05-11T14:00:03Z</time>
      </trkpt>
      <trkpt lat="40.532417" lon="-4.915483">
        <ele>2361.0</ele>
        <time>2013-05-11T14:00:04Z</time>
      </trkpt>
      <trkpt lat="40.532450" lon="-4.915600">
        <ele>2360.0</ele>
        <time>2013-05-11T14:00:05Z</time>
      </trkpt>
      <trkpt lat="40.532467" lon="-4.915733">
        <ele>2360.0</ele>
        <time>2013-05-11T14:00:06Z</time>
      </trkpt>
      <trkpt lat="40.532467" lon="-4.915867">
        <ele>2359.0</ele>
        <time>2013-05-11T14:00:07Z</time>
      </trkpt>
      <trkpt lat="40.532450" lon="-4.916000">
        <ele>2359.0</ele>
        <time>2013-05-11T14:00:08Z</time>
      </trkpt>
      <trkpt lat="40.532383" lon="-4.916133">
        <ele>2359.0</ele>
        <time>2013-05-11T14:00:09Z</time>
      </trkpt>
      <trkpt lat="40.532317" lon="-4.916250">
        <ele>2360.0</ele>
        <time>2013-05-11T14:00:10Z</time>
      </trkpt>
      <trkpt lat="40.532233" lon="-4.916333">
        <ele>2361.0</ele>
        <time>2013-05-11T14:00:11Z</time>
      </trkpt>
      <trkpt lat="40.532150" lon="-4.916400">
        <ele>2362.0</ele>
        <time>2013-05-11T14:00:12Z</time>
      </trkpt>
      <trkpt lat="40.532067" lon="-4.916450">
        <ele>2362.0</ele>
        <time>2013-05-11T14:00:13Z</time>
      </trkpt>
      <trkpt lat="40.531967" lon="-4.916483">
        <ele>2362.0</ele>
        <time>2013-05-11T14:00:14Z</time>
      </trkpt>
      <trkpt lat="40.531867" lon="-4.916500">
        <ele>2360.0</ele>
        <time>2013-05-11T14:00:15Z</time>
      </trkpt>
      <trkpt lat="40.531767" lon="-4.916500">
        <ele>2360.0</ele>
        <time>2013-05-11T14:00:16Z</time>
      </trkpt>
      <trkpt lat="40.531667" lon="-4.916450">
        <ele>2360.0</ele>
        <time>2013-05-11T14:00:17Z</time>
      </trkpt>
      <trkpt lat="40.531600" lon="-4.916383">
        <ele>2360.0</ele>
        <time>2013-05-11T14:00:18Z</time>
      </trkpt>
      <trkpt lat="40.531550" lon="-4.916283">
        <ele>2360.0</ele>
        <time>2013-05-11T14:00:19Z</time>
      </trkpt>
      <trkpt lat="40.531500" lon="-4.916200">
        <ele>2359.0</ele>
        <time>2013-05-11T14:00:20Z</time>
      </trkpt>
      <trkpt lat="40.531467" lon="-4.916100">
        <ele>2358.0</ele>
        <time>2013-05-11T14:00:21Z</time>
      </trkpt>
      <trkpt lat="40.531433" lon="-4.915983">
        <ele>2358.0</ele>
        <time>2013-05-11T14:00:22Z</time>
      </trkpt>
      <trkpt lat="40.531417" lon="-4.915867">
        <ele>2357.0</ele>
        <time>2013-05-11T14:00:23Z</time>
      </trkpt>
      <trkpt lat="40.531417" lon="-4.915767">
        <ele>2358.0</ele>
        <time>2013-05-11T14:00:24Z</time>
      </trkpt>
      <trkpt lat="40.531417" lon="-4.915650">
        <ele>2358.0</ele>
        <time>2013-05-11T14:00:25Z</time>
      </trkpt>
      <trkpt lat="40.531417" lon="-4.915550">
        <ele>2359.0</ele>
        <time>2013-05-11T14:00:26Z</time>
      </trkpt>
      <trkpt lat="40.531433" lon="-4.915450">
        <ele>2360.0</ele>
        <time>2013-05-11T14:00:27Z</time>
      </trkpt>
      <trkpt lat="40.531450" lon="-4.915333">
        <ele>2360.0</ele>
        <time>2013-05-11T14:00:28Z</time>
      </trkpt>
      <trkpt lat="40.531467" lon="-4.915233">
        <ele>2361.0</ele>
        <time>2013-05-11T14:00:29Z</time>
      </trkpt>
      <trkpt lat="40.531500" lon="-4.915117">
        <ele>2363.0</ele>
        <time>2013-05-11T14:00:30Z</time>
      </trkpt>
      <trkpt lat="40.531533" lon="-4.915017">
        <ele>2365.0</ele>
        <time>2013-05-11T14:00:31Z</time>
      </trkpt>
      <trkpt lat="40.531550" lon="-4.914917">
        <ele>2367.0</ele>
        <time>2013-05-11T14:00:32Z</time>
      </trkpt>
      <trkpt lat="40.531583" lon="-4.914833">
        <ele>2369.0</ele>
        <time>2013-05-11T14:00:33Z</time>
      </trkpt>
      <trkpt lat="40.531600" lon="-4.914733">
        <ele>2371.0</ele>
        <time>2013-05-11T14:00:34Z</time>
      </trkpt>
      <trkpt lat="40.531633" lon="-4.914650">
        <ele>2372.0</ele>
        <time>2013-05-11T14:00:35Z</time>
      </trkpt>
      <trkpt lat="40.531667" lon="-4.914567">
        <ele>2374.0</ele>
        <time>2013-05-11T14:00:36Z</time>
      </trkpt>
      <trkpt lat="40.531717" lon="-4.914483">
        <ele>2375.0</ele>
        <time>2013-05-11T14:00:37Z</time>
      </trkpt>
      <trkpt lat="40.531767" lon="-4.914417">
        <ele>2377.0</ele>
        <time>2013-05-11T14:00:38Z</time>
      </trkpt>
      <trkpt lat="40.531833" lon="-4.914367">
        <ele>2379.0</ele>
        <time>2013-05-11T14:00:39Z</time>
      </trkpt>
      <trkpt lat="40.531900" lon="-4.914350">
        <ele>2380.0</ele>
        <time>2013-05-11T14:00:40Z</time>
      </trkpt>
      <trkpt lat="40.531967" lon="-4.914333">
        <ele>2381.0</ele>
        <time>2013-05-11T14:00:41Z</time>
      </trkpt>
      <trkpt lat="40.532033" lon="-4.914333">
        <ele>2382.0</ele>
        <time>2013-05-11T14:00:42Z</time>
      </trkpt>
      <trkpt lat="40.532100" lon="-4.914367">
        <ele>2382.0</ele>
        <time>2013-05-11T14:00:43Z</time>
      </trkpt>
      <trkpt lat="40.532167" lon="-4.914417">
        <ele>2382.0</ele>
        <time>2013-05-11T14:00:44Z</time>
      </trkpt>
      <trkpt lat="40.532233" lon="-4.914483">
        <ele>2382.0</ele>
        <time>2013-05-11T14:00:45Z</time>
      </trkpt>
      <trkpt lat="40.532283" lon="-4.914567">
        <ele>2381.0</ele>
        <time>2013-05-11T14:00:46Z</time>
      </trkpt>
      <trkpt lat="40.532350" lon="-4.914650">
        <ele>2381.0</ele>
        <time>2013-05-11T14:00:47Z</time>
      </trkpt>
      <trkpt lat="40.532383" lon="-4.914767">
        <ele>2382.0</ele>
        <time>2013-05-11T14:00:48Z</time>
      </trkpt>
      <trkpt lat="40.532417" lon="-4.914883">
        <ele>2383.0</ele>
        <time>2013-05-11T14:00:49Z</time>
      </trkpt>
      <trkpt lat="40.532433" lon="-4.915017">
        <ele>2383.0</ele>
        <time>2013-05-11T14:00:50Z</time>
      </trkpt>
      <trkpt lat="40.532433" lon="-4.915150">
        <ele>2382.0</ele>
        <time>2013-05-11T14:00:51Z</time>
      </trkpt>
      <trkpt lat="40.532417" lon="-4.915283">
        <ele>2382.0</ele>
        <time>2013-05-11T14:00:52Z</time>
      </trkpt>
      <trkpt lat="40.532383" lon="-4.915433">
        <ele>2382.0</ele>
        <time>2013-05-11T14:00:53Z</time>
      </trkpt>
      <trkpt lat="40.532333" lon="-4.915550">
        <ele>2381.0</ele>
        <time>2013-05-11T14:00:54Z</time>
      </trkpt>
      <trkpt lat="40.532267" lon="-4.915667">
        <ele>2381.0</ele>
        <time>2013-05-11T14:00:55Z</time>
      </trkpt>
      <trkpt lat="40.532167" lon="-4.915750">
        <ele>2381.0</ele>
        <time>2013-05-11T14:00:56Z</time>
      </trkpt>
      <trkpt lat="40.532083" lon="-4.915800">
        <ele>2380.0</ele>
        <time>2013-05-11T14:00:57Z</time>
      </trkpt>
      <trkpt lat="40.531983" lon="-4.915833">
        <ele>2380.0</ele>
        <time>2013-05-11T14:00:58Z</time>
      </trkpt>
      <trkpt lat="40.531883" lon="-4.915833">
        <ele>2380.0</ele>
        <time>2013-05-11T14:00:59Z</time>
      </trkpt>
      <trkpt lat="40.531783" lon="-4.915783">
        <ele>2380.0</ele>
        <time>2013-05-11T14:01:00Z</time>
      </trkpt>
      <trkpt lat="40.531700" lon="-4.915717">
        <ele>2380.0</ele>
        <time>2013-05-11T14:01:01Z</time>
      </trkpt>
      <trkpt lat="40.531633" lon="-4.915633">
        <ele>2381.0</ele>
        <time>2013-05-11T14:01:02Z</time>
      </trkpt>
      <trkpt lat="40.531583" lon="-4.915550">
        <ele>2382.0</ele>
        <time>2013-05-11T14:01:03Z</time>
      </trkpt>
      <trkpt lat="40.531550" lon="-4.915467">
        <ele>2384.0</ele>
        <time>2013-05-11T14:01:04Z</time>
      </trkpt>
      <trkpt lat="40.531517" lon="-4.915367">
        <ele>2384.0</ele>
        <time>2013-05-11T14:01:05Z</time>
      </trkpt>
      <trkpt lat="40.531500" lon="-4.915250">
        <ele>2385.0</ele>
        <time>2013-05-11T14:01:06Z</time>
      </trkpt>
      <trkpt lat="40.531500" lon="-4.915133">
        <ele>2385.0</ele>
        <time>2013-05-11T14:01:07Z</time>
      </trkpt>
      <trkpt lat="40.531517" lon="-4.915033">
        <ele>2387.0</ele>
        <time>2013-05-11T14:01:08Z</time>
      </trkpt>
      <trkpt lat="40.531550" lon="-4.914933">
        <ele>2389.0</ele>
        <time>2013-05-11T14:01:09Z</time>
      </trkpt>
      <trkpt lat="40.531583" lon="-4.914850">
        <ele>2390.0</ele>
        <time>2013-05-11T14:01:10Z</time>
      </trkpt>
      <trkpt lat="40.531600" lon="-4.914767">
        <ele>2390.0</ele>
        <time>2013-05-11T14:01:11Z</time>
      </trkpt>
      <trkpt lat="40.531633" lon="-4.914667">
        <ele>2390.0</ele>
        <time>2013-05-11T14:01:12Z</time>
      </trkpt>
      <trkpt lat="40.531683" lon="-4.914567">
        <ele>2390.0</ele>
        <time>2013-05-11T14:01:13Z</time>
      </trkpt>
      <trkpt lat="40.531733" lon="-4.914483">
        <ele>2390.0</ele>
        <time>2013-05-11T14:01:14Z</time>
      </trkpt>
      <trkpt lat="40.531800" lon="-4.914400">
        <ele>2391.0</ele>
        <time>2013-05-11T14:01:15Z</time>
      </trkpt>
      <trkpt lat="40.531867" lon="-4.914333">
        <ele>2393.0</ele>
        <time>2013-05-11T14:01:16Z</time>
      </trkpt>
      <trkpt lat="40.531917" lon="-4.914283">
        <ele>2394.0</ele>
        <time>2013-05-11T14:01:17Z</time>
      </trkpt>
      <trkpt lat="40.531983" lon="-4.914217">
        <ele>2395.0</ele>
        <time>2013-05-11T14:01:18Z</time>
      </trkpt>
      <trkpt lat="40.532033" lon="-4.914150">
        <ele>2396.0</ele>
        <time>2013-05-11T14:01:19Z</time>
      </trkpt>
      <trkpt lat="40.532083" lon="-4.914083">
        <ele>2396.0</ele>
        <time>2013-05-11T14:01:20Z</time>
      </trkpt>
      <trkpt lat="40.532150" lon="-4.914017">
        <ele>2397.0</ele>
        <time>2013-05-11T14:01:21Z</time>
      </trkpt>
      <trkpt lat="40.532217" lon="-4.913950">
        <ele>2398.0</ele>
        <time>2013-05-11T14:01:22Z</time>
      </trkpt>
      <trkpt lat="40.532283" lon="-4.913900">
        <ele>2399.0</ele>
        <time>2013-05-11T14:01:23Z</time>
      </trkpt>
      <trkpt lat="40.532367" lon="-4.913867">
        <ele>2400.0</ele>
        <time>2013-05-11T14:01:24Z</time>
      </trkpt>
      <trkpt lat="40.532433" lon="-4.913817">
        <ele>2401.0</ele>
        <time>2013-05-11T14:01:25Z</time>
      </trkpt>
      <trkpt lat="40.532500" lon="-4.913750">
        <ele>2402.0</ele>
        <time>2013-05-11T14:01:26Z</time>
      </trkpt>
      <trkpt lat="40.532550" lon="-4.913683">
        <ele>2403.0</ele>
        <time>2013-05-11T14:01:27Z</time>
      </trkpt>
      <trkpt lat="40.532583" lon="-4.913600">
        <ele>2404.0</ele>
        <time>2013-05-11T14:01:28Z</time>
      </trkpt>
      <trkpt lat="40.532600" lon="-4.913533">
        <ele>2405.0</ele>
        <time>2013-05-11T14:01:29Z</time>
      </trkpt>
      <trkpt lat="40.532633" lon="-4.913450">
        <ele>2405.0</ele>
        <time>2013-05-11T14:01:30Z</time>
      </trkpt>
      <trkpt lat="40.532633" lon="-4.913367">
        <ele>2405.0</ele>
        <time>2013-05-11T14:01:31Z</time>
      </trkpt>
      <trkpt lat="40.532633" lon="-4.913267">
        <ele>2405.0</ele>
        <time>2013-05-11T14:01:32Z</time>
      </trkpt>
      <trkpt lat="40.532617" lon="-4.913150">
        <ele>2405.0</ele>
        <time>2013-05-11T14:01:33Z</time>
      </trkpt>
      <trkpt lat="40.532600" lon="-4.913050">
        <ele>2406.0</ele>
        <time>2013-05-11T14:01:34Z</time>
      </trkpt>
      <trkpt lat="40.532567" lon="-4.912967">
        <ele>2406.0</ele>
        <time>2013-05-11T14:01:35Z</time>
      </trkpt>
      <trkpt lat="40.532517" lon="-4.912900">
        <ele>2406.0</ele>
        <time>2013-05-11T14:01:36Z</time>
      </trkpt>
      <trkpt lat="40.532467" lon="-4.912817">
        <ele>2405.0</ele>
        <time>2013-05-11T14:01:37Z</time>
      </trkpt>
      <trkpt lat="40.532417" lon="-4.912717">
        <ele>2403.0</ele>
        <time>2013-05-11T14:01:38Z</time>
      </trkpt>
      <trkpt lat="40.532367" lon="-4.912600">
        <ele>2402.0</ele>
        <time>2013-05-11T14:01:39Z</time>
      </trkpt>
      <trkpt lat="40.532350" lon="-4.912483">
        <ele>2403.0</ele>
        <time>2013-05-11T14:01:40Z</time>
      </trkpt>
      <trkpt lat="40.532333" lon="-4.912383">
        <ele>2404.0</ele>
        <time>2013-05-11T14:01:41Z</time>
      </trkpt>
      <trkpt lat="40.532317" lon="-4.912300">
        <ele>2405.0</ele>
        <time>2013-05-11T14:01:42Z</time>
      </trkpt>
      <trkpt lat="40.532300" lon="-4.912217">
        <ele>2405.0</ele>
        <time>2013-05-11T14:01:43Z</time>
      </trkpt>
      <trkpt lat="40.532300" lon="-4.912117">
        <ele>2404.0</ele>
        <time>2013-05-11T14:01:44Z</time>
      </trkpt>
      <trkpt lat="40.532300" lon="-4.912017">
        <ele>2403.0</ele>
        <time>2013-05-11T14:01:45Z</time>
      </trkpt>
      <trkpt lat="40.532300" lon="-4.911900">
        <ele>2403.0</ele>
        <time>2013-05-11T14:01:46Z</time>
      </trkpt>
      <trkpt lat="40.532317" lon="-4.911800">
        <ele>2403.0</ele>
        <time>2013-05-11T14:01:47Z</time>
      </trkpt>
      <trkpt lat="40.532317" lon="-4.911717">
        <ele>2403.0</ele>
        <time>2013-05-11T14:01:48Z</time>
      </trkpt>
      <trkpt lat="40.532317" lon="-4.911633">
        <ele>2402.0</ele>
        <time>2013-05-11T14:01:49Z</time>
      </trkpt>
      <trkpt lat="40.532317" lon="-4.911533">
        <ele>2401.0</ele>
        <time>2013-05-11T14:01:50Z</time>
      </trkpt>
      <trkpt lat="40.532317" lon="-4.911433">
        <ele>2399.0</ele>
        <time>2013-05-11T14:01:51Z</time>
      </trkpt>
      <trkpt lat="40.532333" lon="-4.911317">
        <ele>2397.0</ele>
        <time>2013-05-11T14:01:52Z</time>
      </trkpt>
      <trkpt lat="40.532333" lon="-4.911200">
        <ele>2396.0</ele>
        <time>2013-05-11T14:01:53Z</time>
      </trkpt>
      <trkpt lat="40.532317" lon="-4.911083">
        <ele>2396.0</ele>
        <time>2013-05-11T14:01:54Z</time>
      </trkpt>
      <trkpt lat="40.532317" lon="-4.910983">
        <ele>2396.0</ele>
        <time>2013-05-11T14:01:55Z</time>
      </trkpt>
      <trkpt lat="40.532317" lon="-4.910900">
        <ele>2396.0</ele>
        <time>2013-05-11T14:01:56Z</time>
      </trkpt>
      <trkpt lat="40.532317" lon="-4.910800">
        <ele>2396.0</ele>
        <time>2013-05-11T14:01:57Z</time>
      </trkpt>
      <trkpt lat="40.532317" lon="-4.910700">
        <ele>2395.0</ele>
        <time>2013-05-11T14:01:58Z</time>
      </trkpt>
      <trkpt lat="40.532317" lon="-4.910600">
        <ele>2394.0</ele>
        <time>2013-05-11T14:01:59Z</time>
      </trkpt>
      <trkpt lat="40.532317" lon="-4.910483">
        <ele>2394.0</ele>
        <time>2013-05-11T14:02:00Z</time>
      </trkpt>
      <trkpt lat="40.532317" lon="-4.910383">
        <ele>2393.0</ele>
        <time>2013-05-11T14:02:01Z</time>
      </trkpt>
      <trkpt lat="40.532317" lon="-4.910283">
        <ele>2393.0</ele>
        <time>2013-05-11T14:02:02Z</time>
      </trkpt>
      <trkpt lat="40.532317" lon="-4.910167">
        <ele>2392.0</ele>
        <time>2013-05-11T14:02:03Z</time>
      </trkpt>
      <trkpt lat="40.532317" lon="-4.910067">
        <ele>2392.0</ele>
        <time>2013-05-11T14:02:04Z</time>
      </trkpt>
      <trkpt lat="40.532317" lon="-4.909950">
        <ele>2393.0</ele>
        <time>2013-05-11T14:02:05Z</time>
      </trkpt>
      <trkpt lat="40.532300" lon="-4.909850">
        <ele>2394.0</ele>
        <time>2013-05-11T14:02:06Z</time>
      </trkpt>
      <trkpt lat="40.532300" lon="-4.909750">
        <ele>2394.0</ele>
        <time>2013-05-11T14:02:07Z</time>
      </trkpt>
      <trkpt lat="40.532283" lon="-4.909650">
        <ele>2395.0</ele>
        <time>2013-05-11T14:02:08Z</time>
      </trkpt>
      <trkpt lat="40.532300" lon="-4.909550">
        <ele>2395.0</ele>
        <time>2013-05-11T14:02:09Z</time>
      </trkpt>
      <trkpt lat="40.532300" lon="-4.909450">
        <ele>2395.0</ele>
        <time>2013-05-11T14:02:10Z</time>
      </trkpt>
      <trkpt lat="40.532300" lon="-4.909350">
        <ele>2396.0</ele>
        <time>2013-05-11T14:02:11Z</time>
      </trkpt>
      <trkpt lat="40.532317" lon="-4.909233">
        <ele>2396.0</ele>
        <time>2013-05-11T14:02:12Z</time>
      </trkpt>
      <trkpt lat="40.532317" lon="-4.909133">
        <ele>2397.0</ele>
        <time>2013-05-11T14:02:13Z</time>
      </trkpt>
      <trkpt lat="40.532317" lon="-4.909033">
        <ele>2398.0</ele>
        <time>2013-05-11T14:02:14Z</time>
      </trkpt>
      <trkpt lat="40.532333" lon="-4.908933">
        <ele>2398.0</ele>
        <time>2013-05-11T14:02:15Z</time>
      </trkpt>
      <trkpt lat="40.532333" lon="-4.908817">
        <ele>2399.0</ele>
        <time>2013-05-11T14:02:16Z</time>
      </trkpt>
      <trkpt lat="40.532333" lon="-4.908700">
        <ele>2400.0</ele>
        <time>2013-05-11T14:02:17Z</time>
      </trkpt>
      <trkpt lat="40.532350" lon="-4.908583">
        <ele>2402.0</ele>
        <time>2013-05-11T14:02:18Z</time>
      </trkpt>
      <trkpt lat="40.532350" lon="-4.908467">
        <ele>2403.0</ele>
        <time>2013-05-11T14:02:19Z</time>
      </trkpt>
      <trkpt lat="40.532350" lon="-4.908367">
        <ele>2405.0</ele>
        <time>2013-05-11T14:02:20Z</time>
      </trkpt>
      <trkpt lat="40.532350" lon="-4.908267">
        <ele>2406.0</ele>
        <time>2013-05-11T14:02:21Z</time>
      </trkpt>
      <trkpt lat="40.532367" lon="-4.908183">
        <ele>2406.0</ele>
        <time>2013-05-11T14:02:22Z</time>
      </trkpt>
      <trkpt lat="40.532383" lon="-4.908100">
        <ele>2406.0</ele>
        <time>2013-05-11T14:02:23Z</time>
      </trkpt>
      <trkpt lat="40.532417" lon="-4.908017">
        <ele>2405.0</ele>
        <time>2013-05-11T14:02:24Z</time>
      </trkpt>
      <trkpt lat="40.532483" lon="-4.907950">
        <ele>2404.0</ele>
        <time>2013-05-11T14:02:25Z</time>
      </trkpt>
      <trkpt lat="40.532533" lon="-4.907900">
        <ele>2403.0</ele>
        <time>2013-05-11T14:02:26Z</time>
      </trkpt>
      <trkpt lat="40.532600" lon="-4.907850">
        <ele>2403.0</ele>
        <time>2013-05-11T14:02:27Z</time>
      </trkpt>
      <trkpt lat="40.532650" lon="-4.907783">
        <ele>2402.0</ele>
        <time>2013-05-11T14:02:28Z</time>
      </trkpt>
      <trkpt lat="40.532683" lon="-4.907700">
        <ele>2400.0</ele>
        <time>2013-05-11T14:02:29Z</time>
      </trkpt>
      <trkpt lat="40.532700" lon="-4.907600">
        <ele>2398.0</ele>
        <time>2013-05-11T14:02:30Z</time>
      </trkpt>
      <trkpt lat="40.532717" lon="-4.907483">
        <ele>2397.0</ele>
        <time>2013-05-11T14:02:31Z</time>
      </trkpt>
      <trkpt lat="40.532717" lon="-4.907367">
        <ele>2396.0</ele>
        <time>2013-05-11T14:02:32Z</time>
      </trkpt>
      <trkpt lat="40.532717" lon="-4.907250">
        <ele>2396.0</ele>
        <time>2013-05-11T14:02:33Z</time>
      </trkpt>
      <trkpt lat="40.532733" lon="-4.907150">
        <ele>2396.0</ele>
        <time>2013-05-11T14:02:34Z</time>
      </trkpt>
      <trkpt lat="40.532733" lon="-4.907050">
        <ele>2396.0</ele>
        <time>2013-05-11T14:02:35Z</time>
      </trkpt>
      <trkpt lat="40.532750" lon="-4.906967">
        <ele>2395.0</ele>
        <time>2013-05-11T14:02:36Z</time>
      </trkpt>
      <trkpt lat="40.532767" lon="-4.906867">
        <ele>2393.0</ele>
        <time>2013-05-11T14:02:37Z</time>
      </trkpt>
      <trkpt lat="40.532767" lon="-4.906750">
        <ele>2391.0</ele>
        <time>2013-05-11T14:02:38Z</time>
      </trkpt>
      <trkpt lat="40.532783" lon="-4.906650">
        <ele>2389.0</ele>
        <time>2013-05-11T14:02:39Z</time>
      </trkpt>
      <trkpt lat="40.532767" lon="-4.906550">
        <ele>2388.0</ele>
        <time>2013-05-11T14:02:40Z</time>
      </trkpt>
      <trkpt lat="40.532767" lon="-4.906433">
        <ele>2387.0</ele>
        <time>2013-05-11T14:02:41Z</time>
      </trkpt>
      <trkpt lat="40.532750" lon="-4.906333">
        <ele>2384.0</ele>
        <time>2013-05-11T14:02:42Z</time>
      </trkpt>
      <trkpt lat="40.532717" lon="-4.906217">
        <ele>2382.0</ele>
        <time>2013-05-11T14:02:43Z</time>
      </trkpt>
      <trkpt lat="40.532700" lon="-4.906100">
        <ele>2380.0</ele>
        <time>2013-05-11T14:02:44Z</time>
      </trkpt>
      <trkpt lat="40.532683" lon="-4.905983">
        <ele>2379.0</ele>
        <time>2013-05-11T14:02:45Z</time>
      </trkpt>
      <trkpt lat="40.532667" lon="-4.905867">
        <ele>2378.0</ele>
        <time>2013-05-11T14:02:46Z</time>
      </trkpt>
      <trkpt lat="40.532650" lon="-4.905767">
        <ele>2377.0</ele>
        <time>2013-05-11T14:02:47Z</time>
      </trkpt>
      <trkpt lat="40.532617" lon="-4.905650">
        <ele>2375.0</ele>
        <time>2013-05-11T14:02:48Z</time>
      </trkpt>
      <trkpt lat="40.532600" lon="-4.905533">
        <ele>2374.0</ele>
        <time>2013-05-11T14:02:49Z</time>
      </trkpt>
      <trkpt lat="40.532567" lon="-4.905417">
        <ele>2373.0</ele>
        <time>2013-05-11T14:02:50Z</time>
      </trkpt>
      <trkpt lat="40.532550" lon="-4.905317">
        <ele>2373.0</ele>
        <time>2013-05-11T14:02:51Z</time>
      </trkpt>
      <trkpt lat="40.532550" lon="-4.905217">
        <ele>2373.0</ele>
        <time>2013-05-11T14:02:52Z</time>
      </trkpt>
      <trkpt lat="40.532533" lon="-4.905133">
        <ele>2371.0</ele>
        <time>2013-05-11T14:02:53Z</time>
      </trkpt>
      <trkpt lat="40.532533" lon="-4.905033">
        <ele>2370.0</ele>
        <time>2013-05-11T14:02:54Z</time>
      </trkpt>
      <trkpt lat="40.532533" lon="-4.904933">
        <ele>2368.0</ele>
        <time>2013-05-11T14:02:55Z</time>
      </trkpt>
      <trkpt lat="40.532533" lon="-4.904817">
        <ele>2366.0</ele>
        <time>2013-05-11T14:02:56Z</time>
      </trkpt>
      <trkpt lat="40.532550" lon="-4.904717">
        <ele>2365.0</ele>
        <time>2013-05-11T14:02:57Z</time>
      </trkpt>
      <trkpt lat="40.532550" lon="-4.904600">
        <ele>2364.0</ele>
        <time>2013-05-11T14:02:58Z</time>
      </trkpt>
      <trkpt lat="40.532567" lon="-4.904483">
        <ele>2364.0</ele>
        <time>2013-05-11T14:02:59Z</time>
      </trkpt>
      <trkpt lat="40.532567" lon="-4.904383">
        <ele>2363.0</ele>
        <time>2013-05-11T14:03:00Z</time>
      </trkpt>
      <trkpt lat="40.532567" lon="-4.904283">
        <ele>2362.0</ele>
        <time>2013-05-11T14:03:01Z</time>
      </trkpt>
      <trkpt lat="40.532567" lon="-4.904167">
        <ele>2361.0</ele>
        <time>2013-05-11T14:03:02Z</time>
      </trkpt>
      <trkpt lat="40.532567" lon="-4.904050">
        <ele>2361.0</ele>
        <time>2013-05-11T14:03:03Z</time>
      </trkpt>
      <trkpt lat="40.532550" lon="-4.903933">
        <ele>2360.0</ele>
        <time>2013-05-11T14:03:04Z</time>
      </trkpt>
      <trkpt lat="40.532533" lon="-4.903833">
        <ele>2360.0</ele>
        <time>2013-05-11T14:03:05Z</time>
      </trkpt>
      <trkpt lat="40.532517" lon="-4.903717">
        <ele>2359.0</ele>
        <time>2013-05-11T14:03:06Z</time>
      </trkpt>
      <trkpt lat="40.532517" lon="-4.903600">
        <ele>2359.0</ele>
        <time>2013-05-11T14:03:07Z</time>
      </trkpt>
      <trkpt lat="40.532500" lon="-4.903500">
        <ele>2359.0</ele>
        <time>2013-05-11T14:03:08Z</time>
      </trkpt>
      <trkpt lat="40.532483" lon="-4.903400">
        <ele>2358.0</ele>
        <time>2013-05-11T14:03:09Z</time>
      </trkpt>
      <trkpt lat="40.532483" lon="-4.903283">
        <ele>2357.0</ele>
        <time>2013-05-11T14:03:10Z</time>
      </trkpt>
      <trkpt lat="40.532467" lon="-4.903167">
        <ele>2356.0</ele>
        <time>2013-05-11T14:03:11Z</time>
      </trkpt>
      <trkpt lat="40.532467" lon="-4.903050">
        <ele>2354.0</ele>
        <time>2013-05-11T14:03:12Z</time>
      </trkpt>
      <trkpt lat="40.532467" lon="-4.902933">
        <ele>2353.0</ele>
        <time>2013-05-11T14:03:13Z</time>
      </trkpt>
      <trkpt lat="40.532467" lon="-4.902800">
        <ele>2353.0</ele>
        <time>2013-05-11T14:03:14Z</time>
      </trkpt>
      <trkpt lat="40.532450" lon="-4.902683">
        <ele>2353.0</ele>
        <time>2013-05-11T14:03:15Z</time>
      </trkpt>
      <trkpt lat="40.532450" lon="-4.902567">
        <ele>2353.0</ele>
        <time>2013-05-11T14:03:16Z</time>
      </trkpt>
      <trkpt lat="40.532450" lon="-4.902467">
        <ele>2352.0</ele>
        <time>2013-05-11T14:03:17Z</time>
      </trkpt>
      <trkpt lat="40.532433" lon="-4.902350">
        <ele>2351.0</ele>
        <time>2013-05-11T14:03:18Z</time>
      </trkpt>
      <trkpt lat="40.532433" lon="-4.902233">
        <ele>2349.0</ele>
        <time>2013-05-11T14:03:19Z</time>
      </trkpt>
      <trkpt lat="40.532433" lon="-4.902117">
        <ele>2348.0</ele>
        <time>2013-05-11T14:03:20Z</time>
      </trkpt>
      <trkpt lat="40.532433" lon="-4.901983">
        <ele>2347.0</ele>
        <time>2013-05-11T14:03:21Z</time>
      </trkpt>
      <trkpt lat="40.532433" lon="-4.901867">
        <ele>2347.0</ele>
        <time>2013-05-11T14:03:22Z</time>
      </trkpt>
      <trkpt lat="40.532433" lon="-4.901750">
        <ele>2346.0</ele>
        <time>2013-05-11T14:03:23Z</time>
      </trkpt>
      <trkpt lat="40.532433" lon="-4.901633">
        <ele>2345.0</ele>
        <time>2013-05-11T14:03:24Z</time>
      </trkpt>
      <trkpt lat="40.532417" lon="-4.901517">
        <ele>2344.0</ele>
        <time>2013-05-11T14:03:25Z</time>
      </trkpt>
      <trkpt lat="40.532400" lon="-4.901383">
        <ele>2343.0</ele>
        <time>2013-05-11T14:03:26Z</time>
      </trkpt>
      <trkpt lat="40.532383" lon="-4.901267">
        <ele>2342.0</ele>
        <time>2013-05-11T14:03:27Z</time>
      </trkpt>
      <trkpt lat="40.532367" lon="-4.901133">
        <ele>2340.0</ele>
        <time>2013-05-11T14:03:28Z</time>
      </trkpt>
      <trkpt lat="40.532350" lon="-4.901017">
        <ele>2339.0</ele>
        <time>2013-05-11T14:03:29Z</time>
      </trkpt>
      <trkpt lat="40.532333" lon="-4.900883">
        <ele>2338.0</ele>
        <time>2013-05-11T14:03:30Z</time>
      </trkpt>
      <trkpt lat="40.532317" lon="-4.900767">
        <ele>2337.0</ele>
        <time>2013-05-11T14:03:31Z</time>
      </trkpt>
      <trkpt lat="40.532283" lon="-4.900633">
        <ele>2336.0</ele>
        <time>2013-05-11T14:03:32Z</time>
      </trkpt>
      <trkpt lat="40.532267" lon="-4.900500">
        <ele>2334.0</ele>
        <time>2013-05-11T14:03:33Z</time>
      </trkpt>
      <trkpt lat="40.532267" lon="-4.900383">
        <ele>2333.0</ele>
        <time>2013-05-11T14:03:34Z</time>
      </trkpt>
      <trkpt lat="40.532250" lon="-4.900250">
        <ele>2332.0</ele>
        <time>2013-05-11T14:03:35Z</time>
      </trkpt>
      <trkpt lat="40.532250" lon="-4.900117">
        <ele>2331.0</ele>
        <time>2013-05-11T14:03:36Z</time>
      </trkpt>
      <trkpt lat="40.532233" lon="-4.899983">
        <ele>2330.0</ele>
        <time>2013-05-11T14:03:37Z</time>
      </trkpt>
      <trkpt lat="40.532233" lon="-4.899867">
        <ele>2329.0</ele>
        <time>2013-05-11T14:03:38Z</time>
      </trkpt>
      <trkpt lat="40.532217" lon="-4.899733">
        <ele>2327.0</ele>
        <time>2013-05-11T14:03:39Z</time>
      </trkpt>
      <trkpt lat="40.532217" lon="-4.899617">
        <ele>2326.0</ele>
        <time>2013-05-11T14:03:40Z</time>
      </trkpt>
      <trkpt lat="40.532200" lon="-4.899483">
        <ele>2324.0</ele>
        <time>2013-05-11T14:03:41Z</time>
      </trkpt>
      <trkpt lat="40.532200" lon="-4.899350">
        <ele>2323.0</ele>
        <time>2013-05-11T14:03:42Z</time>
      </trkpt>
      <trkpt lat="40.532200" lon="-4.899233">
        <ele>2323.0</ele>
        <time>2013-05-11T14:03:43Z</time>
      </trkpt>
      <trkpt lat="40.532200" lon="-4.899117">
        <ele>2322.0</ele>
        <time>2013-05-11T14:03:44Z</time>
      </trkpt>
      <trkpt lat="40.532183" lon="-4.899000">
        <ele>2320.0</ele>
        <time>2013-05-11T14:03:45Z</time>
      </trkpt>
      <trkpt lat="40.532183" lon="-4.898867">
        <ele>2319.0</ele>
        <time>2013-05-11T14:03:46Z</time>
      </trkpt>
      <trkpt lat="40.532167" lon="-4.898750">
        <ele>2317.0</ele>
        <time>2013-05-11T14:03:47Z</time>
      </trkpt>
      <trkpt lat="40.532167" lon="-4.898617">
        <ele>2316.0</ele>
        <time>2013-05-11T14:03:48Z</time>
      </trkpt>
      <trkpt lat="40.532167" lon="-4.898483">
        <ele>2315.0</ele>
        <time>2013-05-11T14:03:49Z</time>
      </trkpt>
      <trkpt lat="40.532167" lon="-4.898367">
        <ele>2314.0</ele>
        <time>2013-05-11T14:03:50Z</time>
      </trkpt>
      <trkpt lat="40.532167" lon="-4.898250">
        <ele>2312.0</ele>
        <time>2013-05-11T14:03:51Z</time>
      </trkpt>
      <trkpt lat="40.532167" lon="-4.898117">
        <ele>2311.0</ele>
        <time>2013-05-11T14:03:52Z</time>
      </trkpt>
      <trkpt lat="40.532167" lon="-4.897983">
        <ele>2309.0</ele>
        <time>2013-05-11T14:03:53Z</time>
      </trkpt>
      <trkpt lat="40.532167" lon="-4.897850">
        <ele>2308.0</ele>
        <time>2013-05-11T14:03:54Z</time>
      </trkpt>
      <trkpt lat="40.532183" lon="-4.897717">
        <ele>2307.0</ele>
        <time>2013-05-11T14:03:55Z</time>
      </trkpt>
      <trkpt lat="40.532183" lon="-4.897600">
        <ele>2307.0</ele>
        <time>2013-05-11T14:03:56Z</time>
      </trkpt>
      <trkpt lat="40.532183" lon="-4.897467">
        <ele>2307.0</ele>
        <time>2013-05-11T14:03:57Z</time>
      </trkpt>
      <trkpt lat="40.532200" lon="-4.897350">
        <ele>2306.0</ele>
        <time>2013-05-11T14:03:58Z</time>
      </trkpt>
      <trkpt lat="40.532200" lon="-4.897233">
        <ele>2304.0</ele>
        <time>2013-05-11T14:03:59Z</time>
      </trkpt>
      <trkpt lat="40.532200" lon="-4.897100">
        <ele>2303.0</ele>
        <time>2013-05-11T14:04:00Z</time>
      </trkpt>
      <trkpt lat="40.532217" lon="-4.896983">
        <ele>2301.0</ele>
        <time>2013-05-11T14:04:01Z</time>
      </trkpt>
      <trkpt lat="40.532217" lon="-4.896850">
        <ele>2300.0</ele>
        <time>2013-05-11T14:04:02Z</time>
      </trkpt>
      <trkpt lat="40.532233" lon="-4.896733">
        <ele>2299.0</ele>
        <time>2013-05-11T14:04:03Z</time>
      </trkpt>
      <trkpt lat="40.532233" lon="-4.896617">
        <ele>2298.0</ele>
        <time>2013-05-11T14:04:04Z</time>
      </trkpt>
      <trkpt lat="40.532250" lon="-4.896500">
        <ele>2296.0</ele>
        <time>2013-05-11T14:04:05Z</time>
      </trkpt>
      <trkpt lat="40.532250" lon="-4.896367">
        <ele>2295.0</ele>
        <time>2013-05-11T14:04:06Z</time>
      </trkpt>
      <trkpt lat="40.532267" lon="-4.896250">
        <ele>2293.0</ele>
        <time>2013-05-11T14:04:07Z</time>
      </trkpt>
      <trkpt lat="40.532267" lon="-4.896117">
        <ele>2291.0</ele>
        <time>2013-05-11T14:04:08Z</time>
      </trkpt>
      <trkpt lat="40.532283" lon="-4.895983">
        <ele>2290.0</ele>
        <time>2013-05-11T14:04:09Z</time>
      </trkpt>
      <trkpt lat="40.532283" lon="-4.895867">
        <ele>2289.0</ele>
        <time>2013-05-11T14:04:10Z</time>
      </trkpt>
      <trkpt lat="40.532283" lon="-4.895733">
        <ele>2287.0</ele>
        <time>2013-05-11T14:04:11Z</time>
      </trkpt>
      <trkpt lat="40.532300" lon="-4.895617">
        <ele>2285.0</ele>
        <time>2013-05-11T14:04:12Z</time>
      </trkpt>
      <trkpt lat="40.532300" lon="-4.895467">
        <ele>2283.0</ele>
        <time>2013-05-11T14:04:13Z</time>
      </trkpt>
      <trkpt lat="40.532300" lon="-4.895333">
        <ele>2282.0</ele>
        <time>2013-05-11T14:04:14Z</time>
      </trkpt>
      <trkpt lat="40.532300" lon="-4.895200">
        <ele>2281.0</ele>
        <time>2013-05-11T14:04:15Z</time>
      </trkpt>
      <trkpt lat="40.532317" lon="-4.895067">
        <ele>2280.0</ele>
        <time>2013-05-11T14:04:16Z</time>
      </trkpt>
      <trkpt lat="40.532317" lon="-4.894933">
        <ele>2279.0</ele>
        <time>2013-05-11T14:04:17Z</time>
      </trkpt>
      <trkpt lat="40.532317" lon="-4.894817">
        <ele>2278.0</ele>
        <time>2013-05-11T14:04:18Z</time>
      </trkpt>
      <trkpt lat="40.532317" lon="-4.894683">
        <ele>2277.0</ele>
        <time>2013-05-11T14:04:19Z</time>
      </trkpt>
      <trkpt lat="40.532317" lon="-4.894550">
        <ele>2275.0</ele>
        <time>2013-05-11T14:04:20Z</time>
      </trkpt>
      <trkpt lat="40.532317" lon="-4.894417">
        <ele>2274.0</ele>
        <time>2013-05-11T14:04:21Z</time>
      </trkpt>
      <trkpt lat="40.532317" lon="-4.894300">
        <ele>2273.0</ele>
        <time>2013-05-11T14:04:22Z</time>
      </trkpt>
      <trkpt lat="40.532317" lon="-4.894167">
        <ele>2273.0</ele>
        <time>2013-05-11T14:04:23Z</time>
      </trkpt>
      <trkpt lat="40.532333" lon="-4.894050">
        <ele>2272.0</ele>
        <time>2013-05-11T14:04:24Z</time>
      </trkpt>
      <trkpt lat="40.532333" lon="-4.893933">
        <ele>2271.0</ele>
        <time>2013-05-11T14:04:25Z</time>
      </trkpt>
      <trkpt lat="40.532333" lon="-4.893817">
        <ele>2270.0</ele>
        <time>2013-05-11T14:04:26Z</time>
      </trkpt>
      <trkpt lat="40.532350" lon="-4.893683">
        <ele>2269.0</ele>
        <time>2013-05-11T14:04:27Z</time>
      </trkpt>
      <trkpt lat="40.532350" lon="-4.893567">
        <ele>2269.0</ele>
        <time>2013-05-11T14:04:28Z</time>
      </trkpt>
      <trkpt lat="40.532367" lon="-4.893450">
        <ele>2268.0</ele>
        <time>2013-05-11T14:04:29Z</time>
      </trkpt>
      <trkpt lat="40.532367" lon="-4.893333">
        <ele>2267.0</ele>
        <time>2013-05-11T14:04:30Z</time>
      </trkpt>
      <trkpt lat="40.532383" lon="-4.893233">
        <ele>2265.0</ele>
        <time>2013-05-11T14:04:31Z</time>
      </trkpt>
      <trkpt lat="40.532383" lon="-4.893100">
        <ele>2264.0</ele>
        <time>2013-05-11T14:04:32Z</time>
      </trkpt>
      <trkpt lat="40.532400" lon="-4.892967">
        <ele>2262.0</ele>
        <time>2013-05-11T14:04:33Z</time>
      </trkpt>
      <trkpt lat="40.532400" lon="-4.892850">
        <ele>2261.0</ele>
        <time>2013-05-11T14:04:34Z</time>
      </trkpt>
      <trkpt lat="40.532400" lon="-4.892717">
        <ele>2261.0</ele>
        <time>2013-05-11T14:04:35Z</time>
      </trkpt>
      <trkpt lat="40.532417" lon="-4.892600">
        <ele>2261.0</ele>
        <time>2013-05-11T14:04:36Z</time>
      </trkpt>
      <trkpt lat="40.532417" lon="-4.892483">
        <ele>2260.0</ele>
        <time>2013-05-11T14:04:37Z</time>
      </trkpt>
      <trkpt lat="40.532433" lon="-4.892367">
        <ele>2258.0</ele>
        <time>2013-05-11T14:04:38Z</time>
      </trkpt>
      <trkpt lat="40.532450" lon="-4.892250">
        <ele>2257.0</ele>
        <time>2013-05-11T14:04:39Z</time>
      </trkpt>
      <trkpt lat="40.532467" lon="-4.892117">
        <ele>2256.0</ele>
        <time>2013-05-11T14:04:40Z</time>
      </trkpt>
      <trkpt lat="40.532483" lon="-4.892000">
        <ele>2255.0</ele>
        <time>2013-05-11T14:04:41Z</time>
      </trkpt>
      <trkpt lat="40.532500" lon="-4.891867">
        <ele>2254.0</ele>
        <time>2013-05-11T14:04:42Z</time>
      </trkpt>
      <trkpt lat="40.532517" lon="-4.891750">
        <ele>2253.0</ele>
        <time>2013-05-11T14:04:43Z</time>
      </trkpt>
      <trkpt lat="40.532533" lon="-4.891617">
        <ele>2252.0</ele>
        <time>2013-05-11T14:04:44Z</time>
      </trkpt>
      <trkpt lat="40.532550" lon="-4.891500">
        <ele>2251.0</ele>
        <time>2013-05-11T14:04:45Z</time>
      </trkpt>
      <trkpt lat="40.532550" lon="-4.891383">
        <ele>2250.0</ele>
        <time>2013-05-11T14:04:46Z</time>
      </trkpt>
      <trkpt lat="40.532550" lon="-4.891267">
        <ele>2248.0</ele>
        <time>2013-05-11T14:04:47Z</time>
      </trkpt>
      <trkpt lat="40.532550" lon="-4.891150">
        <ele>2245.0</ele>
        <time>2013-05-11T14:04:48Z</time>
      </trkpt>
      <trkpt lat="40.532567" lon="-4.891017">
        <ele>2242.0</ele>
        <time>2013-05-11T14:04:49Z</time>
      </trkpt>
      <trkpt lat="40.532583" lon="-4.890900">
        <ele>2239.0</ele>
        <time>2013-05-11T14:04:50Z</time>
      </trkpt>
      <trkpt lat="40.532583" lon="-4.890767">
        <ele>2238.0</ele>
        <time>2013-05-11T14:04:51Z</time>
      </trkpt>
      <trkpt lat="40.532600" lon="-4.890650">
        <ele>2236.0</ele>
        <time>2013-05-11T14:04:52Z</time>
      </trkpt>
      <trkpt lat="40.532600" lon="-4.890533">
        <ele>2234.0</ele>
        <time>2013-05-11T14:04:53Z</time>
      </trkpt>
      <trkpt lat="40.532600" lon="-4.890417">
        <ele>2232.0</ele>
        <time>2013-05-11T14:04:54Z</time>
      </trkpt>
      <trkpt lat="40.532600" lon="-4.890300">
        <ele>2229.0</ele>
        <time>2013-05-11T14:04:55Z</time>
      </trkpt>
      <trkpt lat="40.532600" lon="-4.890183">
        <ele>2226.0</ele>
        <time>2013-05-11T14:04:56Z</time>
      </trkpt>
      <trkpt lat="40.532600" lon="-4.890067">
        <ele>2224.0</ele>
        <time>2013-05-11T14:04:57Z</time>
      </trkpt>
      <trkpt lat="40.532600" lon="-4.889950">
        <ele>2221.0</ele>
        <time>2013-05-11T14:04:58Z</time>
      </trkpt>
      <trkpt lat="40.532600" lon="-4.889817">
        <ele>2219.0</ele>
        <time>2013-05-11T14:04:59Z</time>
      </trkpt>
      <trkpt lat="40.532617" lon="-4.889700">
        <ele>2218.0</ele>
        <time>2013-05-11T14:05:00Z</time>
      </trkpt>
      <trkpt lat="40.532617" lon="-4.889600">
        <ele>2216.0</ele>
        <time>2013-05-11T14:05:01Z</time>
      </trkpt>
      <trkpt lat="40.532633" lon="-4.889500">
        <ele>2215.0</ele>
        <time>2013-05-11T14:05:02Z</time>
      </trkpt>
      <trkpt lat="40.532650" lon="-4.889383">
        <ele>2213.0</ele>
        <time>2013-05-11T14:05:03Z</time>
      </trkpt>
      <trkpt lat="40.532617" lon="-4.889250">
        <ele>2212.0</ele>
        <time>2013-05-11T14:05:04Z</time>
      </trkpt>
      <trkpt lat="40.532583" lon="-4.889133">
        <ele>2211.0</ele>
        <time>2013-05-11T14:05:05Z</time>
      </trkpt>
      <trkpt lat="40.532550" lon="-4.889017">
        <ele>2212.0</ele>
        <time>2013-05-11T14:05:06Z</time>
      </trkpt>
      <trkpt lat="40.532500" lon="-4.888917">
        <ele>2212.0</ele>
        <time>2013-05-11T14:05:07Z</time>
      </trkpt>
      <trkpt lat="40.532483" lon="-4.888800">
        <ele>2212.0</ele>
        <time>2013-05-11T14:05:08Z</time>
      </trkpt>
      <trkpt lat="40.532467" lon="-4.888683">
        <ele>2211.0</ele>
        <time>2013-05-11T14:05:09Z</time>
      </trkpt>
      <trkpt lat="40.532450" lon="-4.888567">
        <ele>2211.0</ele>
        <time>2013-05-11T14:05:10Z</time>
      </trkpt>
      <trkpt lat="40.532417" lon="-4.888450">
        <ele>2212.0</ele>
        <time>2013-05-11T14:05:11Z</time>
      </trkpt>
      <trkpt lat="40.532400" lon="-4.888333">
        <ele>2212.0</ele>
        <time>2013-05-11T14:05:12Z</time>
      </trkpt>
      <trkpt lat="40.532383" lon="-4.888200">
        <ele>2212.0</ele>
        <time>2013-05-11T14:05:13Z</time>
      </trkpt>
      <trkpt lat="40.532383" lon="-4.888067">
        <ele>2213.0</ele>
        <time>2013-05-11T14:05:14Z</time>
      </trkpt>
      <trkpt lat="40.532350" lon="-4.887917">
        <ele>2215.0</ele>
        <time>2013-05-11T14:05:15Z</time>
      </trkpt>
      <trkpt lat="40.532333" lon="-4.887767">
        <ele>2217.0</ele>
        <time>2013-05-11T14:05:16Z</time>
      </trkpt>
      <trkpt lat="40.532317" lon="-4.887633">
        <ele>2221.0</ele>
        <time>2013-05-11T14:05:17Z</time>
      </trkpt>
      <trkpt lat="40.532300" lon="-4.887500">
        <ele>2224.0</ele>
        <time>2013-05-11T14:05:18Z</time>
      </trkpt>
      <trkpt lat="40.532283" lon="-4.887367">
        <ele>2228.0</ele>
        <time>2013-05-11T14:05:19Z</time>
      </trkpt>
      <trkpt lat="40.532250" lon="-4.887250">
        <ele>2231.0</ele>
        <time>2013-05-11T14:05:20Z</time>
      </trkpt>
      <trkpt lat="40.532200" lon="-4.887133">
        <ele>2234.0</ele>
        <time>2013-05-11T14:05:21Z</time>
      </trkpt>
      <trkpt lat="40.532117" lon="-4.887033">
        <ele>2236.0</ele>
        <time>2013-05-11T14:05:22Z</time>
      </trkpt>
      <trkpt lat="40.532000" lon="-4.886933">
        <ele>2238.0</ele>
        <time>2013-05-11T14:05:23Z</time>
      </trkpt>
      <trkpt lat="40.531867" lon="-4.886883">
        <ele>2241.0</ele>
        <time>2013-05-11T14:05:24Z</time>
      </trkpt>
      <trkpt lat="40.531733" lon="-4.886867">
        <ele>2243.0</ele>
        <time>2013-05-11T14:05:25Z</time>
      </trkpt>
      <trkpt lat="40.531600" lon="-4.886900">
        <ele>2246.0</ele>
        <time>2013-05-11T14:05:26Z</time>
      </trkpt>
      <trkpt lat="40.531500" lon="-4.886967">
        <ele>2250.0</ele>
        <time>2013-05-11T14:05:27Z</time>
      </trkpt>
      <trkpt lat="40.531433" lon="-4.887033">
        <ele>2253.0</ele>
        <time>2013-05-11T14:05:28Z</time>
      </trkpt>
      <trkpt lat="40.531350" lon="-4.887117">
        <ele>2256.0</ele>
        <time>2013-05-11T14:05:29Z</time>
      </trkpt>
      <trkpt lat="40.531300" lon="-4.887200">
        <ele>2257.0</ele>
        <time>2013-05-11T14:05:30Z</time>
      </trkpt>
      <trkpt lat="40.531267" lon="-4.887300">
        <ele>2257.0</ele>
        <time>2013-05-11T14:05:31Z</time>
      </trkpt>
      <trkpt lat="40.531267" lon="-4.887400">
        <ele>2258.0</ele>
        <time>2013-05-11T14:05:32Z</time>
      </trkpt>
      <trkpt lat="40.531283" lon="-4.887517">
        <ele>2258.0</ele>
        <time>2013-05-11T14:05:33Z</time>
      </trkpt>
      <trkpt lat="40.531333" lon="-4.887600">
        <ele>2261.0</ele>
        <time>2013-05-11T14:05:34Z</time>
      </trkpt>
      <trkpt lat="40.531383" lon="-4.887650">
        <ele>2263.0</ele>
        <time>2013-05-11T14:05:35Z</time>
      </trkpt>
      <trkpt lat="40.531450" lon="-4.887683">
        <ele>2265.0</ele>
        <time>2013-05-11T14:05:36Z</time>
      </trkpt>
      <trkpt lat="40.531500" lon="-4.887667">
        <ele>2266.0</ele>
        <time>2013-05-11T14:05:37Z</time>
      </trkpt>
      <trkpt lat="40.531567" lon="-4.887650">
        <ele>2267.0</ele>
        <time>2013-05-11T14:05:38Z</time>
      </trkpt>
      <trkpt lat="40.531650" lon="-4.887583">
        <ele>2268.0</ele>
        <time>2013-05-11T14:05:39Z</time>
      </trkpt>
      <trkpt lat="40.531700" lon="-4.887500">
        <ele>2271.0</ele>
        <time>2013-05-11T14:05:40Z</time>
      </trkpt>
      <trkpt lat="40.531750" lon="-4.887417">
        <ele>2274.0</ele>
        <time>2013-05-11T14:05:41Z</time>
      </trkpt>
      <trkpt lat="40.531783" lon="-4.887317">
        <ele>2277.0</ele>
        <time>2013-05-11T14:05:42Z</time>
      </trkpt>
      <trkpt lat="40.531817" lon="-4.887217">
        <ele>2280.0</ele>
        <time>2013-05-11T14:05:43Z</time>
      </trkpt>
      <trkpt lat="40.531850" lon="-4.887117">
        <ele>2283.0</ele>
        <time>2013-05-11T14:05:44Z</time>
      </trkpt>
      <trkpt lat="40.531850" lon="-4.887000">
        <ele>2285.0</ele>
        <time>2013-05-11T14:05:45Z</time>
      </trkpt>
      <trkpt lat="40.531850" lon="-4.886867">
        <ele>2287.0</ele>
        <time>2013-05-11T14:05:46Z</time>
      </trkpt>
      <trkpt lat="40.531817" lon="-4.886750">
        <ele>2289.0</ele>
        <time>2013-05-11T14:05:47Z</time>
      </trkpt>
      <trkpt lat="40.531783" lon="-4.886633">
        <ele>2291.0</ele>
        <time>2013-05-11T14:05:48Z</time>
      </trkpt>
      <trkpt lat="40.531733" lon="-4.886533">
        <ele>2294.0</ele>
        <time>2013-05-11T14:05:49Z</time>
      </trkpt>
      <trkpt lat="40.531667" lon="-4.886433">
        <ele>2296.0</ele>
        <time>2013-05-11T14:05:50Z</time>
      </trkpt>
      <trkpt lat="40.531583" lon="-4.886350">
        <ele>2296.0</ele>
        <time>2013-05-11T14:05:51Z</time>
      </trkpt>
      <trkpt lat="40.531483" lon="-4.886267">
        <ele>2297.0</ele>
        <time>2013-05-11T14:05:52Z</time>
      </trkpt>
      <trkpt lat="40.531383" lon="-4.886217">
        <ele>2298.0</ele>
        <time>2013-05-11T14:05:53Z</time>
      </trkpt>
      <trkpt lat="40.531250" lon="-4.886183">
        <ele>2299.0</ele>
        <time>2013-05-11T14:05:54Z</time>
      </trkpt>
      <trkpt lat="40.531133" lon="-4.886183">
        <ele>2301.0</ele>
        <time>2013-05-11T14:05:55Z</time>
      </trkpt>
      <trkpt lat="40.531017" lon="-4.886183">
        <ele>2302.0</ele>
        <time>2013-05-11T14:05:56Z</time>
      </trkpt>
      <trkpt lat="40.530883" lon="-4.886217">
        <ele>2303.0</ele>
        <time>2013-05-11T14:05:57Z</time>
      </trkpt>
      <trkpt lat="40.530767" lon="-4.886267">
        <ele>2305.0</ele>
        <time>2013-05-11T14:05:58Z</time>
      </trkpt>
      <trkpt lat="40.530667" lon="-4.886333">
        <ele>2306.0</ele>
        <time>2013-05-11T14:05:59Z</time>
      </trkpt>
      <trkpt lat="40.530583" lon="-4.886433">
        <ele>2308.0</ele>
        <time>2013-05-11T14:06:00Z</time>
      </trkpt>
      <trkpt lat="40.530517" lon="-4.886533">
        <ele>2309.0</ele>
        <time>2013-05-11T14:06:01Z</time>
      </trkpt>
      <trkpt lat="40.530483" lon="-4.886650">
        <ele>2311.0</ele>
        <time>2013-05-11T14:06:02Z</time>
      </trkpt>
      <trkpt lat="40.530467" lon="-4.886750">
        <ele>2314.0</ele>
        <time>2013-05-11T14:06:03Z</time>
      </trkpt>
      <trkpt lat="40.530483" lon="-4.886833">
        <ele>2316.0</ele>
        <time>2013-05-11T14:06:04Z</time>
      </trkpt>
      <trkpt lat="40.530500" lon="-4.886900">
        <ele>2318.0</ele>
        <time>2013-05-11T14:06:05Z</time>
      </trkpt>
      <trkpt lat="40.530533" lon="-4.886967">
        <ele>2319.0</ele>
        <time>2013-05-11T14:06:06Z</time>
      </trkpt>
      <trkpt lat="40.530583" lon="-4.887017">
        <ele>2319.0</ele>
        <time>2013-05-11T14:06:07Z</time>
      </trkpt>
      <trkpt lat="40.530650" lon="-4.887083">
        <ele>2319.0</ele>
        <time>2013-05-11T14:06:08Z</time>
      </trkpt>
      <trkpt lat="40.530717" lon="-4.887100">
        <ele>2322.0</ele>
        <time>2013-05-11T14:06:09Z</time>
      </trkpt>
      <trkpt lat="40.530783" lon="-4.887067">
        <ele>2324.0</ele>
        <time>2013-05-11T14:06:10Z</time>
      </trkpt>
      <trkpt lat="40.530850" lon="-4.887000">
        <ele>2327.0</ele>
        <time>2013-05-11T14:06:11Z</time>
      </trkpt>
      <trkpt lat="40.530883" lon="-4.886917">
        <ele>2329.0</ele>
        <time>2013-05-11T14:06:12Z</time>
      </trkpt>
      <trkpt lat="40.530933" lon="-4.886833">
        <ele>2332.0</ele>
        <time>2013-05-11T14:06:13Z</time>
      </trkpt>
      <trkpt lat="40.530967" lon="-4.886767">
        <ele>2335.0</ele>
        <time>2013-05-11T14:06:14Z</time>
      </trkpt>
      <trkpt lat="40.530983" lon="-4.886700">
        <ele>2337.0</ele>
        <time>2013-05-11T14:06:15Z</time>
      </trkpt>
      <trkpt lat="40.530983" lon="-4.886617">
        <ele>2337.0</ele>
        <time>2013-05-11T14:06:16Z</time>
      </trkpt>
      <trkpt lat="40.530950" lon="-4.886500">
        <ele>2337.0</ele>
        <time>2013-05-11T14:06:17Z</time>
      </trkpt>
      <trkpt lat="40.530900" lon="-4.886367">
        <ele>2336.0</ele>
        <time>2013-05-11T14:06:18Z</time>
      </trkpt>
      <trkpt lat="40.530833" lon="-4.886250">
        <ele>2337.0</ele>
        <time>2013-05-11T14:06:19Z</time>
      </trkpt>
      <trkpt lat="40.530750" lon="-4.886167">
        <ele>2339.0</ele>
        <time>2013-05-11T14:06:20Z</time>
      </trkpt>
      <trkpt lat="40.530650" lon="-4.886100">
        <ele>2340.0</ele>
        <time>2013-05-11T14:06:21Z</time>
      </trkpt>
      <trkpt lat="40.530550" lon="-4.886050">
        <ele>2341.0</ele>
        <time>2013-05-11T14:06:22Z</time>
      </trkpt>
      <trkpt lat="40.530433" lon="-4.886033">
        <ele>2342.0</ele>
        <time>2013-05-11T14:06:23Z</time>
      </trkpt>
      <trkpt lat="40.530317" lon="-4.886033">
        <ele>2342.0</ele>
        <time>2013-05-11T14:06:24Z</time>
      </trkpt>
      <trkpt lat="40.530200" lon="-4.886083">
        <ele>2343.0</ele>
        <time>2013-05-11T14:06:25Z</time>
      </trkpt>
      <trkpt lat="40.530100" lon="-4.886150">
        <ele>2344.0</ele>
        <time>2013-05-11T14:06:26Z</time>
      </trkpt>
      <trkpt lat="40.530017" lon="-4.886250">
        <ele>2345.0</ele>
        <time>2013-05-11T14:06:27Z</time>
      </trkpt>
      <trkpt lat="40.529967" lon="-4.886350">
        <ele>2347.0</ele>
        <time>2013-05-11T14:06:28Z</time>
      </trkpt>
      <trkpt lat="40.529933" lon="-4.886450">
        <ele>2350.0</ele>
        <time>2013-05-11T14:06:29Z</time>
      </trkpt>
      <trkpt lat="40.529917" lon="-4.886533">
        <ele>2351.0</ele>
        <time>2013-05-11T14:06:30Z</time>
      </trkpt>
      <trkpt lat="40.529917" lon="-4.886617">
        <ele>2351.0</ele>
        <time>2013-05-11T14:06:31Z</time>
      </trkpt>
      <trkpt lat="40.529933" lon="-4.886700">
        <ele>2351.0</ele>
        <time>2013-05-11T14:06:32Z</time>
      </trkpt>
      <trkpt lat="40.529983" lon="-4.886783">
        <ele>2352.0</ele>
        <time>2013-05-11T14:06:33Z</time>
      </trkpt>
      <trkpt lat="40.530067" lon="-4.886833">
        <ele>2353.0</ele>
        <time>2013-05-11T14:06:34Z</time>
      </trkpt>
      <trkpt lat="40.530133" lon="-4.886817">
        <ele>2354.0</ele>
        <time>2013-05-11T14:06:35Z</time>
      </trkpt>
      <trkpt lat="40.530200" lon="-4.886800">
        <ele>2357.0</ele>
        <time>2013-05-11T14:06:36Z</time>
      </trkpt>
      <trkpt lat="40.530250" lon="-4.886767">
        <ele>2359.0</ele>
        <time>2013-05-11T14:06:37Z</time>
      </trkpt>
      <trkpt lat="40.530317" lon="-4.886733">
        <ele>2360.0</ele>
        <time>2013-05-11T14:06:38Z</time>
      </trkpt>
      <trkpt lat="40.530367" lon="-4.886683">
        <ele>2361.0</ele>
        <time>2013-05-11T14:06:39Z</time>
      </trkpt>
      <trkpt lat="40.530417" lon="-4.886617">
        <ele>2362.0</ele>
        <time>2013-05-11T14:06:40Z</time>
      </trkpt>
      <trkpt lat="40.530467" lon="-4.886517">
        <ele>2361.0</ele>
        <time>2013-05-11T14:06:41Z</time>
      </trkpt>
      <trkpt lat="40.530500" lon="-4.886400">
        <ele>2361.0</ele>
        <time>2013-05-11T14:06:42Z</time>
      </trkpt>
      <trkpt lat="40.530500" lon="-4.886267">
        <ele>2363.0</ele>
        <time>2013-05-11T14:06:43Z</time>
      </trkpt>
      <trkpt lat="40.530483" lon="-4.886150">
        <ele>2365.0</ele>
        <time>2013-05-11T14:06:44Z</time>
      </trkpt>
      <trkpt lat="40.530450" lon="-4.886033">
        <ele>2366.0</ele>
        <time>2013-05-11T14:06:45Z</time>
      </trkpt>
      <trkpt lat="40.530400" lon="-4.885933">
        <ele>2367.0</ele>
        <time>2013-05-11T14:06:46Z</time>
      </trkpt>
      <trkpt lat="40.530333" lon="-4.885850">
        <ele>2368.0</ele>
        <time>2013-05-11T14:06:47Z</time>
      </trkpt>
      <trkpt lat="40.530250" lon="-4.885767">
        <ele>2368.0</ele>
        <time>2013-05-11T14:06:48Z</time>
      </trkpt>
      <trkpt lat="40.530150" lon="-4.885717">
        <ele>2368.0</ele>
        <time>2013-05-11T14:06:49Z</time>
      </trkpt>
      <trkpt lat="40.530033" lon="-4.885700">
        <ele>2368.0</ele>
        <time>2013-05-11T14:06:50Z</time>
      </trkpt>
      <trkpt lat="40.529917" lon="-4.885700">
        <ele>2368.0</ele>
        <time>2013-05-11T14:06:51Z</time>
      </trkpt>
      <trkpt lat="40.529800" lon="-4.885750">
        <ele>2369.0</ele>
        <time>2013-05-11T14:06:52Z</time>
      </trkpt>
      <trkpt lat="40.529700" lon="-4.885817">
        <ele>2370.0</ele>
        <time>2013-05-11T14:06:53Z</time>
      </trkpt>
      <trkpt lat="40.529633" lon="-4.885917">
        <ele>2370.0</ele>
        <time>2013-05-11T14:06:54Z</time>
      </trkpt>
      <trkpt lat="40.529567" lon="-4.886017">
        <ele>2370.0</ele>
        <time>2013-05-11T14:06:55Z</time>
      </trkpt>
      <trkpt lat="40.529533" lon="-4.886133">
        <ele>2370.0</ele>
        <time>2013-05-11T14:06:56Z</time>
      </trkpt>
      <trkpt lat="40.529500" lon="-4.886250">
        <ele>2370.0</ele>
        <time>2013-05-11T14:06:57Z</time>
      </trkpt>
      <trkpt lat="40.529500" lon="-4.886367">
        <ele>2370.0</ele>
        <time>2013-05-11T14:06:58Z</time>
      </trkpt>
      <trkpt lat="40.529517" lon="-4.886467">
        <ele>2372.0</ele>
        <time>2013-05-11T14:06:59Z</time>
      </trkpt>
      <trkpt lat="40.529533" lon="-4.886550">
        <ele>2373.0</ele>
        <time>2013-05-11T14:07:00Z</time>
      </trkpt>
      <trkpt lat="40.529583" lon="-4.886617">
        <ele>2374.0</ele>
        <time>2013-05-11T14:07:01Z</time>
      </trkpt>
      <trkpt lat="40.529633" lon="-4.886667">
        <ele>2375.0</ele>
        <time>2013-05-11T14:07:02Z</time>
      </trkpt>
      <trkpt lat="40.529683" lon="-4.886683">
        <ele>2376.0</ele>
        <time>2013-05-11T14:07:03Z</time>
      </trkpt>
      <trkpt lat="40.529750" lon="-4.886683">
        <ele>2376.0</ele>
        <time>2013-05-11T14:07:04Z</time>
      </trkpt>
      <trkpt lat="40.529817" lon="-4.886667">
        <ele>2377.0</ele>
        <time>2013-05-11T14:07:05Z</time>
      </trkpt>
      <trkpt lat="40.529883" lon="-4.886617">
        <ele>2378.0</ele>
        <time>2013-05-11T14:07:06Z</time>
      </trkpt>
      <trkpt lat="40.529950" lon="-4.886567">
        <ele>2381.0</ele>
        <time>2013-05-11T14:07:07Z</time>
      </trkpt>
      <trkpt lat="40.530000" lon="-4.886500">
        <ele>2383.0</ele>
        <time>2013-05-11T14:07:08Z</time>
      </trkpt>
      <trkpt lat="40.530050" lon="-4.886433">
        <ele>2385.0</ele>
        <time>2013-05-11T14:07:09Z</time>
      </trkpt>
      <trkpt lat="40.530067" lon="-4.886350">
        <ele>2386.0</ele>
        <time>2013-05-11T14:07:10Z</time>
      </trkpt>
      <trkpt lat="40.530067" lon="-4.886250">
        <ele>2387.0</ele>
        <time>2013-05-11T14:07:11Z</time>
      </trkpt>
      <trkpt lat="40.530067" lon="-4.886133">
        <ele>2386.0</ele>
        <time>2013-05-11T14:07:12Z</time>
      </trkpt>
      <trkpt lat="40.530067" lon="-4.886017">
        <ele>2386.0</ele>
        <time>2013-05-11T14:07:13Z</time>
      </trkpt>
      <trkpt lat="40.530033" lon="-4.885883">
        <ele>2386.0</ele>
        <time>2013-05-11T14:07:14Z</time>
      </trkpt>
      <trkpt lat="40.530000" lon="-4.885767">
        <ele>2387.0</ele>
        <time>2013-05-11T14:07:15Z</time>
      </trkpt>
      <trkpt lat="40.529933" lon="-4.885633">
        <ele>2388.0</ele>
        <time>2013-05-11T14:07:16Z</time>
      </trkpt>
      <trkpt lat="40.529850" lon="-4.885517">
        <ele>2389.0</ele>
        <time>2013-05-11T14:07:17Z</time>
      </trkpt>
      <trkpt lat="40.529750" lon="-4.885417">
        <ele>2391.0</ele>
        <time>2013-05-11T14:07:18Z</time>
      </trkpt>
      <trkpt lat="40.529650" lon="-4.885333">
        <ele>2393.0</ele>
        <time>2013-05-11T14:07:19Z</time>
      </trkpt>
      <trkpt lat="40.529550" lon="-4.885283">
        <ele>2396.0</ele>
        <time>2013-05-11T14:07:20Z</time>
      </trkpt>
      <trkpt lat="40.529450" lon="-4.885250">
        <ele>2397.0</ele>
        <time>2013-05-11T14:07:21Z</time>
      </trkpt>
      <trkpt lat="40.529333" lon="-4.885217">
        <ele>2398.0</ele>
        <time>2013-05-11T14:07:22Z</time>
      </trkpt>
      <trkpt lat="40.529233" lon="-4.885233">
        <ele>2399.0</ele>
        <time>2013-05-11T14:07:23Z</time>
      </trkpt>
      <trkpt lat="40.529100" lon="-4.885283">
        <ele>2398.0</ele>
        <time>2013-05-11T14:07:24Z</time>
      </trkpt>
      <trkpt lat="40.529000" lon="-4.885367">
        <ele>2398.0</ele>
        <time>2013-05-11T14:07:25Z</time>
      </trkpt>
      <trkpt lat="40.528933" lon="-4.885483">
        <ele>2400.0</ele>
        <time>2013-05-11T14:07:26Z</time>
      </trkpt>
      <trkpt lat="40.528883" lon="-4.885583">
        <ele>2402.0</ele>
        <time>2013-05-11T14:07:27Z</time>
      </trkpt>
      <trkpt lat="40.528867" lon="-4.885683">
        <ele>2404.0</ele>
        <time>2013-05-11T14:07:28Z</time>
      </trkpt>
      <trkpt lat="40.528850" lon="-4.885767">
        <ele>2405.0</ele>
        <time>2013-05-11T14:07:29Z</time>
      </trkpt>
      <trkpt lat="40.528833" lon="-4.885867">
        <ele>2405.0</ele>
        <time>2013-05-11T14:07:30Z</time>
      </trkpt>
      <trkpt lat="40.528850" lon="-4.885967">
        <ele>2405.0</ele>
        <time>2013-05-11T14:07:31Z</time>
      </trkpt>
      <trkpt lat="40.528867" lon="-4.886083">
        <ele>2405.0</ele>
        <time>2013-05-11T14:07:32Z</time>
      </trkpt>
      <trkpt lat="40.528900" lon="-4.886150">
        <ele>2408.0</ele>
        <time>2013-05-11T14:07:33Z</time>
      </trkpt>
      <trkpt lat="40.528967" lon="-4.886167">
        <ele>2409.0</ele>
        <time>2013-05-11T14:07:34Z</time>
      </trkpt>
      <trkpt lat="40.529017" lon="-4.886167">
        <ele>2410.0</ele>
        <time>2013-05-11T14:07:35Z</time>
      </trkpt>
      <trkpt lat="40.529083" lon="-4.886150">
        <ele>2411.0</ele>
        <time>2013-05-11T14:07:36Z</time>
      </trkpt>
      <trkpt lat="40.529133" lon="-4.886100">
        <ele>2412.0</ele>
        <time>2013-05-11T14:07:37Z</time>
      </trkpt>
      <trkpt lat="40.529183" lon="-4.886033">
        <ele>2413.0</ele>
        <time>2013-05-11T14:07:38Z</time>
      </trkpt>
      <trkpt lat="40.529217" lon="-4.885950">
        <ele>2414.0</ele>
        <time>2013-05-11T14:07:39Z</time>
      </trkpt>
      <trkpt lat="40.529250" lon="-4.885833">
        <ele>2415.0</ele>
        <time>2013-05-11T14:07:40Z</time>
      </trkpt>
      <trkpt lat="40.529250" lon="-4.885717">
        <ele>2417.0</ele>
        <time>2013-05-11T14:07:41Z</time>
      </trkpt>
      <trkpt lat="40.529250" lon="-4.885617">
        <ele>2418.0</ele>
        <time>2013-05-11T14:07:42Z</time>
      </trkpt>
      <trkpt lat="40.529233" lon="-4.885483">
        <ele>2418.0</ele>
        <time>2013-05-11T14:07:43Z</time>
      </trkpt>
      <trkpt lat="40.529200" lon="-4.885350">
        <ele>2418.0</ele>
        <time>2013-05-11T14:07:44Z</time>
      </trkpt>
      <trkpt lat="40.529150" lon="-4.885217">
        <ele>2418.0</ele>
        <time>2013-05-11T14:07:45Z</time>
      </trkpt>
      <trkpt lat="40.529083" lon="-4.885083">
        <ele>2419.0</ele>
        <time>2013-05-11T14:07:46Z</time>
      </trkpt>
      <trkpt lat="40.528983" lon="-4.884983">
        <ele>2421.0</ele>
        <time>2013-05-11T14:07:47Z</time>
      </trkpt>
      <trkpt lat="40.528867" lon="-4.884900">
        <ele>2423.0</ele>
        <time>2013-05-11T14:07:48Z</time>
      </trkpt>
      <trkpt lat="40.528767" lon="-4.884850">
        <ele>2426.0</ele>
        <time>2013-05-11T14:07:49Z</time>
      </trkpt>
      <trkpt lat="40.528650" lon="-4.884817">
        <ele>2427.0</ele>
        <time>2013-05-11T14:07:50Z</time>
      </trkpt>
      <trkpt lat="40.528533" lon="-4.884800">
        <ele>2429.0</ele>
        <time>2013-05-11T14:07:51Z</time>
      </trkpt>
      <trkpt lat="40.528433" lon="-4.884817">
        <ele>2430.0</ele>
        <time>2013-05-11T14:07:52Z</time>
      </trkpt>
      <trkpt lat="40.528317" lon="-4.884867">
        <ele>2430.0</ele>
        <time>2013-05-11T14:07:53Z</time>
      </trkpt>
      <trkpt lat="40.528233" lon="-4.884967">
        <ele>2429.0</ele>
        <time>2013-05-11T14:07:54Z</time>
      </trkpt>
      <trkpt lat="40.528167" lon="-4.885083">
        <ele>2430.0</ele>
        <time>2013-05-11T14:07:55Z</time>
      </trkpt>
      <trkpt lat="40.528150" lon="-4.885183">
        <ele>2430.0</ele>
        <time>2013-05-11T14:07:56Z</time>
      </trkpt>
      <trkpt lat="40.528150" lon="-4.885300">
        <ele>2431.0</ele>
        <time>2013-05-11T14:07:57Z</time>
      </trkpt>
      <trkpt lat="40.528167" lon="-4.885383">
        <ele>2432.0</ele>
        <time>2013-05-11T14:07:58Z</time>
      </trkpt>
      <trkpt lat="40.528183" lon="-4.885450">
        <ele>2433.0</ele>
        <time>2013-05-11T14:07:59Z</time>
      </trkpt>
      <trkpt lat="40.528233" lon="-4.885483">
        <ele>2433.0</ele>
        <time>2013-05-11T14:08:00Z</time>
      </trkpt>
      <trkpt lat="40.528283" lon="-4.885533">
        <ele>2434.0</ele>
        <time>2013-05-11T14:08:01Z</time>
      </trkpt>
      <trkpt lat="40.528333" lon="-4.885550">
        <ele>2434.0</ele>
        <time>2013-05-11T14:08:02Z</time>
      </trkpt>
      <trkpt lat="40.528400" lon="-4.885533">
        <ele>2434.0</ele>
        <time>2013-05-11T14:08:03Z</time>
      </trkpt>
      <trkpt lat="40.528467" lon="-4.885483">
        <ele>2434.0</ele>
        <time>2013-05-11T14:08:04Z</time>
      </trkpt>
      <trkpt lat="40.528517" lon="-4.885417">
        <ele>2435.0</ele>
        <time>2013-05-11T14:08:05Z</time>
      </trkpt>
      <trkpt lat="40.528550" lon="-4.885333">
        <ele>2436.0</ele>
        <time>2013-05-11T14:08:06Z</time>
      </trkpt>
      <trkpt lat="40.528583" lon="-4.885233">
        <ele>2437.0</ele>
        <time>2013-05-11T14:08:07Z</time>
      </trkpt>
      <trkpt lat="40.528617" lon="-4.885133">
        <ele>2438.0</ele>
        <time>2013-05-11T14:08:08Z</time>
      </trkpt>
      <trkpt lat="40.528633" lon="-4.885033">
        <ele>2438.0</ele>
        <time>2013-05-11T14:08:09Z</time>
      </trkpt>
      <trkpt lat="40.528650" lon="-4.884917">
        <ele>2438.0</ele>
        <time>2013-05-11T14:08:10Z</time>
      </trkpt>
      <trkpt lat="40.528650" lon="-4.884783">
        <ele>2438.0</ele>
        <time>2013-05-11T14:08:11Z</time>
      </trkpt>
      <trkpt lat="40.528633" lon="-4.884650">
        <ele>2440.0</ele>
        <time>2013-05-11T14:08:12Z</time>
      </trkpt>
      <trkpt lat="40.528617" lon="-4.884533">
        <ele>2441.0</ele>
        <time>2013-05-11T14:08:13Z</time>
      </trkpt>
      <trkpt lat="40.528583" lon="-4.884400">
        <ele>2443.0</ele>
        <time>2013-05-11T14:08:14Z</time>
      </trkpt>
      <trkpt lat="40.528533" lon="-4.884283">
        <ele>2444.0</ele>
        <time>2013-05-11T14:08:15Z</time>
      </trkpt>
      <trkpt lat="40.528483" lon="-4.884167">
        <ele>2445.0</ele>
        <time>2013-05-11T14:08:16Z</time>
      </trkpt>
      <trkpt lat="40.528417" lon="-4.884067">
        <ele>2445.0</ele>
        <time>2013-05-11T14:08:17Z</time>
      </trkpt>
      <trkpt lat="40.528333" lon="-4.883983">
        <ele>2445.0</ele>
        <time>2013-05-11T14:08:18Z</time>
      </trkpt>
      <trkpt lat="40.528233" lon="-4.883900">
        <ele>2444.0</ele>
        <time>2013-05-11T14:08:19Z</time>
      </trkpt>
      <trkpt lat="40.528117" lon="-4.883833">
        <ele>2443.0</ele>
        <time>2013-05-11T14:08:20Z</time>
      </trkpt>
      <trkpt lat="40.528017" lon="-4.883800">
        <ele>2442.0</ele>
        <time>2013-05-11T14:08:21Z</time>
      </trkpt>
      <trkpt lat="40.527900" lon="-4.883783">
        <ele>2442.0</ele>
        <time>2013-05-11T14:08:22Z</time>
      </trkpt>
      <trkpt lat="40.527783" lon="-4.883800">
        <ele>2442.0</ele>
        <time>2013-05-11T14:08:23Z</time>
      </trkpt>
      <trkpt lat="40.527683" lon="-4.883817">
        <ele>2442.0</ele>
        <time>2013-05-11T14:08:24Z</time>
      </trkpt>
      <trkpt lat="40.527600" lon="-4.883867">
        <ele>2441.0</ele>
        <time>2013-05-11T14:08:25Z</time>
      </trkpt>
      <trkpt lat="40.527517" lon="-4.883950">
        <ele>2441.0</ele>
        <time>2013-05-11T14:08:26Z</time>
      </trkpt>
      <trkpt lat="40.527467" lon="-4.884050">
        <ele>2440.0</ele>
        <time>2013-05-11T14:08:27Z</time>
      </trkpt>
      <trkpt lat="40.527433" lon="-4.884150">
        <ele>2440.0</ele>
        <time>2013-05-11T14:08:28Z</time>
      </trkpt>
      <trkpt lat="40.527433" lon="-4.884250">
        <ele>2440.0</ele>
        <time>2013-05-11T14:08:29Z</time>
      </trkpt>
      <trkpt lat="40.527467" lon="-4.884333">
        <ele>2442.0</ele>
        <time>2013-05-11T14:08:30Z</time>
      </trkpt>
      <trkpt lat="40.527483" lon="-4.884383">
        <ele>2443.0</ele>
        <time>2013-05-11T14:08:31Z</time>
      </trkpt>
      <trkpt lat="40.527517" lon="-4.884417">
        <ele>2445.0</ele>
        <time>2013-05-11T14:08:32Z</time>
      </trkpt>
      <trkpt lat="40.527567" lon="-4.884450">
        <ele>2445.0</ele>
        <time>2013-05-11T14:08:33Z</time>
      </trkpt>
      <trkpt lat="40.527600" lon="-4.884450">
        <ele>2445.0</ele>
        <time>2013-05-11T14:08:34Z</time>
      </trkpt>
      <trkpt lat="40.527667" lon="-4.884433">
        <ele>2444.0</ele>
        <time>2013-05-11T14:08:35Z</time>
      </trkpt>
      <trkpt lat="40.527717" lon="-4.884383">
        <ele>2443.0</ele>
        <time>2013-05-11T14:08:36Z</time>
      </trkpt>
      <trkpt lat="40.527783" lon="-4.884333">
        <ele>2444.0</ele>
        <time>2013-05-11T14:08:37Z</time>
      </trkpt>
      <trkpt lat="40.527833" lon="-4.884283">
        <ele>2446.0</ele>
        <time>2013-05-11T14:08:38Z</time>
      </trkpt>
      <trkpt lat="40.527867" lon="-4.884250">
        <ele>2447.0</ele>
        <time>2013-05-11T14:08:39Z</time>
      </trkpt>
      <trkpt lat="40.527917" lon="-4.884217">
        <ele>2448.0</ele>
        <time>2013-05-11T14:08:40Z</time>
      </trkpt>
      <trkpt lat="40.527950" lon="-4.884167">
        <ele>2447.0</ele>
        <time>2013-05-11T14:08:41Z</time>
      </trkpt>
      <trkpt lat="40.527983" lon="-4.884083">
        <ele>2446.0</ele>
        <time>2013-05-11T14:08:42Z</time>
      </trkpt>
      <trkpt lat="40.528033" lon="-4.884000">
        <ele>2445.0</ele>
        <time>2013-05-11T14:08:43Z</time>
      </trkpt>
      <trkpt lat="40.528083" lon="-4.883900">
        <ele>2445.0</ele>
        <time>2013-05-11T14:08:44Z</time>
      </trkpt>
      <trkpt lat="40.528117" lon="-4.883817">
        <ele>2445.0</ele>
        <time>2013-05-11T14:08:45Z</time>
      </trkpt>
      <trkpt lat="40.528150" lon="-4.883733">
        <ele>2446.0</ele>
        <time>2013-05-11T14:08:46Z</time>
      </trkpt>
      <trkpt lat="40.528183" lon="-4.883650">
        <ele>2445.0</ele>
        <time>2013-05-11T14:08:47Z</time>
      </trkpt>
      <trkpt lat="40.528200" lon="-4.883567">
        <ele>2445.0</ele>
        <time>2013-05-11T14:08:48Z</time>
      </trkpt>
      <trkpt lat="40.528233" lon="-4.883467">
        <ele>2444.0</ele>
        <time>2013-05-11T14:08:49Z</time>
      </trkpt>
      <trkpt lat="40.528267" lon="-4.883383">
        <ele>2443.0</ele>
        <time>2013-05-11T14:08:50Z</time>
      </trkpt>
      <trkpt lat="40.528300" lon="-4.883283">
        <ele>2442.0</ele>
        <time>2013-05-11T14:08:51Z</time>
      </trkpt>
      <trkpt lat="40.528333" lon="-4.883200">
        <ele>2441.0</ele>
        <time>2013-05-11T14:08:52Z</time>
      </trkpt>
      <trkpt lat="40.528367" lon="-4.883117">
        <ele>2439.0</ele>
        <time>2013-05-11T14:08:53Z</time>
      </trkpt>
      <trkpt lat="40.528417" lon="-4.883033">
        <ele>2437.0</ele>
        <time>2013-05-11T14:08:54Z</time>
      </trkpt>
      <trkpt lat="40.528467" lon="-4.882933">
        <ele>2435.0</ele>
        <time>2013-05-11T14:08:55Z</time>
      </trkpt>
      <trkpt lat="40.528517" lon="-4.882850">
        <ele>2434.0</ele>
        <time>2013-05-11T14:08:56Z</time>
      </trkpt>
      <trkpt lat="40.528583" lon="-4.882767">
        <ele>2434.0</ele>
        <time>2013-05-11T14:08:57Z</time>
      </trkpt>
      <trkpt lat="40.528633" lon="-4.882700">
        <ele>2434.0</ele>
        <time>2013-05-11T14:08:58Z</time>
      </trkpt>
      <trkpt lat="40.528683" lon="-4.882650">
        <ele>2433.0</ele>
        <time>2013-05-11T14:08:59Z</time>
      </trkpt>
      <trkpt lat="40.528733" lon="-4.882583">
        <ele>2432.0</ele>
        <time>2013-05-11T14:09:00Z</time>
      </trkpt>
      <trkpt lat="40.528783" lon="-4.882500">
        <ele>2430.0</ele>
        <time>2013-05-11T14:09:01Z</time>
      </trkpt>
      <trkpt lat="40.528850" lon="-4.882400">
        <ele>2430.0</ele>
        <time>2013-05-11T14:09:02Z</time>
      </trkpt>
      <trkpt lat="40.528917" lon="-4.882300">
        <ele>2431.0</ele>
        <time>2013-05-11T14:09:03Z</time>
      </trkpt>
      <trkpt lat="40.528983" lon="-4.882217">
        <ele>2433.0</ele>
        <time>2013-05-11T14:09:04Z</time>
      </trkpt>
      <trkpt lat="40.529033" lon="-4.882133">
        <ele>2435.0</ele>
        <time>2013-05-11T14:09:05Z</time>
      </trkpt>
      <trkpt lat="40.529067" lon="-4.882050">
        <ele>2436.0</ele>
        <time>2013-05-11T14:09:06Z</time>
      </trkpt>
      <trkpt lat="40.529117" lon="-4.881967">
        <ele>2436.0</ele>
        <time>2013-05-11T14:09:07Z</time>
      </trkpt>
      <trkpt lat="40.529167" lon="-4.881867">
        <ele>2435.0</ele>
        <time>2013-05-11T14:09:08Z</time>
      </trkpt>
      <trkpt lat="40.529217" lon="-4.881767">
        <ele>2435.0</ele>
        <time>2013-05-11T14:09:09Z</time>
      </trkpt>
      <trkpt lat="40.529267" lon="-4.881683">
        <ele>2434.0</ele>
        <time>2013-05-11T14:09:10Z</time>
      </trkpt>
      <trkpt lat="40.529317" lon="-4.881600">
        <ele>2435.0</ele>
        <time>2013-05-11T14:09:11Z</time>
      </trkpt>
      <trkpt lat="40.529350" lon="-4.881517">
        <ele>2434.0</ele>
        <time>2013-05-11T14:09:12Z</time>
      </trkpt>
      <trkpt lat="40.529400" lon="-4.881433">
        <ele>2434.0</ele>
        <time>2013-05-11T14:09:13Z</time>
      </trkpt>
      <trkpt lat="40.529433" lon="-4.881333">
        <ele>2433.0</ele>
        <time>2013-05-11T14:09:14Z</time>
      </trkpt>
      <trkpt lat="40.529467" lon="-4.881233">
        <ele>2433.0</ele>
        <time>2013-05-11T14:09:15Z</time>
      </trkpt>
      <trkpt lat="40.529517" lon="-4.881150">
        <ele>2431.0</ele>
        <time>2013-05-11T14:09:16Z</time>
      </trkpt>
      <trkpt lat="40.529550" lon="-4.881050">
        <ele>2431.0</ele>
        <time>2013-05-11T14:09:17Z</time>
      </trkpt>
      <trkpt lat="40.529600" lon="-4.880950">
        <ele>2430.0</ele>
        <time>2013-05-11T14:09:18Z</time>
      </trkpt>
      <trkpt lat="40.529650" lon="-4.880833">
        <ele>2430.0</ele>
        <time>2013-05-11T14:09:19Z</time>
      </trkpt>
      <trkpt lat="40.529683" lon="-4.880717">
        <ele>2430.0</ele>
        <time>2013-05-11T14:09:20Z</time>
      </trkpt>
      <trkpt lat="40.529733" lon="-4.880583">
        <ele>2431.0</ele>
        <time>2013-05-11T14:09:21Z</time>
      </trkpt>
      <trkpt lat="40.529783" lon="-4.880467">
        <ele>2433.0</ele>
        <time>2013-05-11T14:09:22Z</time>
      </trkpt>
      <trkpt lat="40.529833" lon="-4.880367">
        <ele>2434.0</ele>
        <time>2013-05-11T14:09:23Z</time>
      </trkpt>
      <trkpt lat="40.529883" lon="-4.880283">
        <ele>2434.0</ele>
        <time>2013-05-11T14:09:24Z</time>
      </trkpt>
      <trkpt lat="40.529917" lon="-4.880167">
        <ele>2433.0</ele>
        <time>2013-05-11T14:09:25Z</time>
      </trkpt>
      <trkpt lat="40.529967" lon="-4.880050">
        <ele>2432.0</ele>
        <time>2013-05-11T14:09:26Z</time>
      </trkpt>
      <trkpt lat="40.530017" lon="-4.879933">
        <ele>2431.0</ele>
        <time>2013-05-11T14:09:27Z</time>
      </trkpt>
      <trkpt lat="40.530067" lon="-4.879817">
        <ele>2431.0</ele>
        <time>2013-05-11T14:09:28Z</time>
      </trkpt>
      <trkpt lat="40.530100" lon="-4.879700">
        <ele>2432.0</ele>
        <time>2013-05-11T14:09:29Z</time>
      </trkpt>
      <trkpt lat="40.530133" lon="-4.879600">
        <ele>2434.0</ele>
        <time>2013-05-11T14:09:30Z</time>
      </trkpt>
      <trkpt lat="40.530150" lon="-4.879500">
        <ele>2436.0</ele>
        <time>2013-05-11T14:09:31Z</time>
      </trkpt>
      <trkpt lat="40.530167" lon="-4.879400">
        <ele>2437.0</ele>
        <time>2013-05-11T14:09:32Z</time>
      </trkpt>
      <trkpt lat="40.530167" lon="-4.879283">
        <ele>2438.0</ele>
        <time>2013-05-11T14:09:33Z</time>
      </trkpt>
      <trkpt lat="40.530167" lon="-4.879150">
        <ele>2439.0</ele>
        <time>2013-05-11T14:09:34Z</time>
      </trkpt>
      <trkpt lat="40.530167" lon="-4.879017">
        <ele>2440.0</ele>
        <time>2013-05-11T14:09:35Z</time>
      </trkpt>
      <trkpt lat="40.530150" lon="-4.878883">
        <ele>2442.0</ele>
        <time>2013-05-11T14:09:36Z</time>
      </trkpt>
      <trkpt lat="40.530100" lon="-4.878767">
        <ele>2443.0</ele>
        <time>2013-05-11T14:09:37Z</time>
      </trkpt>
      <trkpt lat="40.530050" lon="-4.878650">
        <ele>2443.0</ele>
        <time>2013-05-11T14:09:38Z</time>
      </trkpt>
      <trkpt lat="40.529967" lon="-4.878533">
        <ele>2442.0</ele>
        <time>2013-05-11T14:09:39Z</time>
      </trkpt>
      <trkpt lat="40.529867" lon="-4.878433">
        <ele>2441.0</ele>
        <time>2013-05-11T14:09:40Z</time>
      </trkpt>
      <trkpt lat="40.529750" lon="-4.878350">
        <ele>2439.0</ele>
        <time>2013-05-11T14:09:41Z</time>
      </trkpt>
      <trkpt lat="40.529617" lon="-4.878317">
        <ele>2439.0</ele>
        <time>2013-05-11T14:09:42Z</time>
      </trkpt>
      <trkpt lat="40.529483" lon="-4.878333">
        <ele>2439.0</ele>
        <time>2013-05-11T14:09:43Z</time>
      </trkpt>
      <trkpt lat="40.529383" lon="-4.878400">
        <ele>2440.0</ele>
        <time>2013-05-11T14:09:44Z</time>
      </trkpt>
      <trkpt lat="40.529300" lon="-4.878500">
        <ele>2441.0</ele>
        <time>2013-05-11T14:09:45Z</time>
      </trkpt>
      <trkpt lat="40.529233" lon="-4.878567">
        <ele>2444.0</ele>
        <time>2013-05-11T14:09:46Z</time>
      </trkpt>
      <trkpt lat="40.529183" lon="-4.878650">
        <ele>2445.0</ele>
        <time>2013-05-11T14:09:47Z</time>
      </trkpt>
      <trkpt lat="40.529150" lon="-4.878717">
        <ele>2444.0</ele>
        <time>2013-05-11T14:09:48Z</time>
      </trkpt>
      <trkpt lat="40.529133" lon="-4.878800">
        <ele>2442.0</ele>
        <time>2013-05-11T14:09:49Z</time>
      </trkpt>
      <trkpt lat="40.529133" lon="-4.878900">
        <ele>2439.0</ele>
        <time>2013-05-11T14:09:50Z</time>
      </trkpt>
      <trkpt lat="40.529150" lon="-4.879000">
        <ele>2436.0</ele>
        <time>2013-05-11T14:09:51Z</time>
      </trkpt>
      <trkpt lat="40.529200" lon="-4.879083">
        <ele>2434.0</ele>
        <time>2013-05-11T14:09:52Z</time>
      </trkpt>
      <trkpt lat="40.529250" lon="-4.879150">
        <ele>2432.0</ele>
        <time>2013-05-11T14:09:53Z</time>
      </trkpt>
      <trkpt lat="40.529317" lon="-4.879200">
        <ele>2431.0</ele>
        <time>2013-05-11T14:09:54Z</time>
      </trkpt>
      <trkpt lat="40.529367" lon="-4.879267">
        <ele>2431.0</ele>
        <time>2013-05-11T14:09:55Z</time>
      </trkpt>
      <trkpt lat="40.529400" lon="-4.879317">
        <ele>2430.0</ele>
        <time>2013-05-11T14:09:56Z</time>
      </trkpt>
      <trkpt lat="40.529450" lon="-4.879367">
        <ele>2429.0</ele>
        <time>2013-05-11T14:09:57Z</time>
      </trkpt>
      <trkpt lat="40.529500" lon="-4.879417">
        <ele>2428.0</ele>
        <time>2013-05-11T14:09:58Z</time>
      </trkpt>
      <trkpt lat="40.529550" lon="-4.879467">
        <ele>2427.0</ele>
        <time>2013-05-11T14:09:59Z</time>
      </trkpt>
      <trkpt lat="40.529617" lon="-4.879483">
        <ele>2427.0</ele>
        <time>2013-05-11T14:10:00Z</time>
      </trkpt>
      <trkpt lat="40.529683" lon="-4.879483">
        <ele>2427.0</ele>
        <time>2013-05-11T14:10:01Z</time>
      </trkpt>
      <trkpt lat="40.529750" lon="-4.879450">
        <ele>2427.0</ele>
        <time>2013-05-11T14:10:02Z</time>
      </trkpt>
      <trkpt lat="40.529817" lon="-4.879433">
        <ele>2427.0</ele>
        <time>2013-05-11T14:10:03Z</time>
      </trkpt>
      <trkpt lat="40.529867" lon="-4.879400">
        <ele>2426.0</ele>
        <time>2013-05-11T14:10:04Z</time>
      </trkpt>
      <trkpt lat="40.529917" lon="-4.879367">
        <ele>2425.0</ele>
        <time>2013-05-11T14:10:05Z</time>
      </trkpt>
      <trkpt lat="40.529983" lon="-4.879300">
        <ele>2423.0</ele>
        <time>2013-05-11T14:10:06Z</time>
      </trkpt>
      <trkpt lat="40.530033" lon="-4.879250">
        <ele>2422.0</ele>
        <time>2013-05-11T14:10:07Z</time>
      </trkpt>
      <trkpt lat="40.530083" lon="-4.879183">
        <ele>2421.0</ele>
        <time>2013-05-11T14:10:08Z</time>
      </trkpt>
      <trkpt lat="40.530150" lon="-4.879117">
        <ele>2420.0</ele>
        <time>2013-05-11T14:10:09Z</time>
      </trkpt>
      <trkpt lat="40.530200" lon="-4.879050">
        <ele>2419.0</ele>
        <time>2013-05-11T14:10:10Z</time>
      </trkpt>
      <trkpt lat="40.530267" lon="-4.878983">
        <ele>2418.0</ele>
        <time>2013-05-11T14:10:11Z</time>
      </trkpt>
      <trkpt lat="40.530317" lon="-4.878933">
        <ele>2417.0</ele>
        <time>2013-05-11T14:10:12Z</time>
      </trkpt>
      <trkpt lat="40.530367" lon="-4.878867">
        <ele>2417.0</ele>
        <time>2013-05-11T14:10:13Z</time>
      </trkpt>
      <trkpt lat="40.530417" lon="-4.878800">
        <ele>2416.0</ele>
        <time>2013-05-11T14:10:14Z</time>
      </trkpt>
      <trkpt lat="40.530467" lon="-4.878717">
        <ele>2416.0</ele>
        <time>2013-05-11T14:10:15Z</time>
      </trkpt>
      <trkpt lat="40.530517" lon="-4.878650">
        <ele>2416.0</ele>
        <time>2013-05-11T14:10:16Z</time>
      </trkpt>
      <trkpt lat="40.530567" lon="-4.878583">
        <ele>2417.0</ele>
        <time>2013-05-11T14:10:17Z</time>
      </trkpt>
      <trkpt lat="40.530617" lon="-4.878517">
        <ele>2417.0</ele>
        <time>2013-05-11T14:10:18Z</time>
      </trkpt>
      <trkpt lat="40.530667" lon="-4.878450">
        <ele>2417.0</ele>
        <time>2013-05-11T14:10:19Z</time>
      </trkpt>
      <trkpt lat="40.530700" lon="-4.878367">
        <ele>2417.0</ele>
        <time>2013-05-11T14:10:20Z</time>
      </trkpt>
      <trkpt lat="40.530750" lon="-4.878267">
        <ele>2418.0</ele>
        <time>2013-05-11T14:10:21Z</time>
      </trkpt>
      <trkpt lat="40.530783" lon="-4.878167">
        <ele>2419.0</ele>
        <time>2013-05-11T14:10:22Z</time>
      </trkpt>
      <trkpt lat="40.530833" lon="-4.878067">
        <ele>2420.0</ele>
        <time>2013-05-11T14:10:23Z</time>
      </trkpt>
      <trkpt lat="40.530867" lon="-4.877967">
        <ele>2421.0</ele>
        <time>2013-05-11T14:10:24Z</time>
      </trkpt>
      <trkpt lat="40.530900" lon="-4.877850">
        <ele>2422.0</ele>
        <time>2013-05-11T14:10:25Z</time>
      </trkpt>
      <trkpt lat="40.530933" lon="-4.877750">
        <ele>2423.0</ele>
        <time>2013-05-11T14:10:26Z</time>
      </trkpt>
      <trkpt lat="40.530983" lon="-4.877650">
        <ele>2423.0</ele>
        <time>2013-05-11T14:10:27Z</time>
      </trkpt>
      <trkpt lat="40.531033" lon="-4.877550">
        <ele>2424.0</ele>
        <time>2013-05-11T14:10:28Z</time>
      </trkpt>
      <trkpt lat="40.531083" lon="-4.877433">
        <ele>2424.0</ele>
        <time>2013-05-11T14:10:29Z</time>
      </trkpt>
      <trkpt lat="40.531133" lon="-4.877333">
        <ele>2425.0</ele>
        <time>2013-05-11T14:10:30Z</time>
      </trkpt>
      <trkpt lat="40.531183" lon="-4.877217">
        <ele>2426.0</ele>
        <time>2013-05-11T14:10:31Z</time>
      </trkpt>
      <trkpt lat="40.531217" lon="-4.877100">
        <ele>2426.0</ele>
        <time>2013-05-11T14:10:32Z</time>
      </trkpt>
      <trkpt lat="40.531250" lon="-4.876967">
        <ele>2426.0</ele>
        <time>2013-05-11T14:10:33Z</time>
      </trkpt>
      <trkpt lat="40.531300" lon="-4.876850">
        <ele>2426.0</ele>
        <time>2013-05-11T14:10:34Z</time>
      </trkpt>
      <trkpt lat="40.531350" lon="-4.876733">
        <ele>2425.0</ele>
        <time>2013-05-11T14:10:35Z</time>
      </trkpt>
      <trkpt lat="40.531383" lon="-4.876617">
        <ele>2424.0</ele>
        <time>2013-05-11T14:10:36Z</time>
      </trkpt>
      <trkpt lat="40.531433" lon="-4.876467">
        <ele>2423.0</ele>
        <time>2013-05-11T14:10:37Z</time>
      </trkpt>
      <trkpt lat="40.531467" lon="-4.876333">
        <ele>2422.0</ele>
        <time>2013-05-11T14:10:38Z</time>
      </trkpt>
      <trkpt lat="40.531500" lon="-4.876183">
        <ele>2421.0</ele>
        <time>2013-05-11T14:10:39Z</time>
      </trkpt>
      <trkpt lat="40.531533" lon="-4.876067">
        <ele>2420.0</ele>
        <time>2013-05-11T14:10:40Z</time>
      </trkpt>
      <trkpt lat="40.531583" lon="-4.875967">
        <ele>2419.0</ele>
        <time>2013-05-11T14:10:41Z</time>
      </trkpt>
      <trkpt lat="40.531633" lon="-4.875867">
        <ele>2418.0</ele>
        <time>2013-05-11T14:10:42Z</time>
      </trkpt>
      <trkpt lat="40.531683" lon="-4.875750">
        <ele>2417.0</ele>
        <time>2013-05-11T14:10:43Z</time>
      </trkpt>
      <trkpt lat="40.531717" lon="-4.875617">
        <ele>2415.0</ele>
        <time>2013-05-11T14:10:44Z</time>
      </trkpt>
      <trkpt lat="40.531750" lon="-4.875467">
        <ele>2413.0</ele>
        <time>2013-05-11T14:10:45Z</time>
      </trkpt>
      <trkpt lat="40.531800" lon="-4.875333">
        <ele>2413.0</ele>
        <time>2013-05-11T14:10:46Z</time>
      </trkpt>
      <trkpt lat="40.531833" lon="-4.875217">
        <ele>2413.0</ele>
        <time>2013-05-11T14:10:47Z</time>
      </trkpt>
      <trkpt lat="40.531867" lon="-4.875083">
        <ele>2412.0</ele>
        <time>2013-05-11T14:10:48Z</time>
      </trkpt>
      <trkpt lat="40.531900" lon="-4.874950">
        <ele>2411.0</ele>
        <time>2013-05-11T14:10:49Z</time>
      </trkpt>
      <trkpt lat="40.531933" lon="-4.874817">
        <ele>2410.0</ele>
        <time>2013-05-11T14:10:50Z</time>
      </trkpt>
      <trkpt lat="40.531983" lon="-4.874683">
        <ele>2410.0</ele>
        <time>2013-05-11T14:10:51Z</time>
      </trkpt>
      <trkpt lat="40.532000" lon="-4.874550">
        <ele>2409.0</ele>
        <time>2013-05-11T14:10:52Z</time>
      </trkpt>
      <trkpt lat="40.532000" lon="-4.874417">
        <ele>2409.0</ele>
        <time>2013-05-11T14:10:53Z</time>
      </trkpt>
      <trkpt lat="40.532017" lon="-4.874283">
        <ele>2408.0</ele>
        <time>2013-05-11T14:10:54Z</time>
      </trkpt>
      <trkpt lat="40.532050" lon="-4.874150">
        <ele>2406.0</ele>
        <time>2013-05-11T14:10:55Z</time>
      </trkpt>
      <trkpt lat="40.532083" lon="-4.874017">
        <ele>2404.0</ele>
        <time>2013-05-11T14:10:56Z</time>
      </trkpt>
      <trkpt lat="40.532117" lon="-4.873883">
        <ele>2404.0</ele>
        <time>2013-05-11T14:10:57Z</time>
      </trkpt>
      <trkpt lat="40.532150" lon="-4.873750">
        <ele>2404.0</ele>
        <time>2013-05-11T14:10:58Z</time>
      </trkpt>
      <trkpt lat="40.532183" lon="-4.873633">
        <ele>2405.0</ele>
        <time>2013-05-11T14:10:59Z</time>
      </trkpt>
      <trkpt lat="40.532217" lon="-4.873517">
        <ele>2406.0</ele>
        <time>2013-05-11T14:11:00Z</time>
      </trkpt>
      <trkpt lat="40.532233" lon="-4.873383">
        <ele>2406.0</ele>
        <time>2013-05-11T14:11:01Z</time>
      </trkpt>
      <trkpt lat="40.532267" lon="-4.873233">
        <ele>2406.0</ele>
        <time>2013-05-11T14:11:02Z</time>
      </trkpt>
      <trkpt lat="40.532283" lon="-4.873083">
        <ele>2406.0</ele>
        <time>2013-05-11T14:11:03Z</time>
      </trkpt>
      <trkpt lat="40.532300" lon="-4.872933">
        <ele>2407.0</ele>
        <time>2013-05-11T14:11:04Z</time>
      </trkpt>
      <trkpt lat="40.532317" lon="-4.872800">
        <ele>2408.0</ele>
        <time>2013-05-11T14:11:05Z</time>
      </trkpt>
      <trkpt lat="40.532333" lon="-4.872683">
        <ele>2407.0</ele>
        <time>2013-05-11T14:11:06Z</time>
      </trkpt>
      <trkpt lat="40.532350" lon="-4.872550">
        <ele>2404.0</ele>
        <time>2013-05-11T14:11:07Z</time>
      </trkpt>
      <trkpt lat="40.532367" lon="-4.872417">
        <ele>2401.0</ele>
        <time>2013-05-11T14:11:08Z</time>
      </trkpt>
      <trkpt lat="40.532400" lon="-4.872267">
        <ele>2398.0</ele>
        <time>2013-05-11T14:11:09Z</time>
      </trkpt>
      <trkpt lat="40.532433" lon="-4.872117">
        <ele>2396.0</ele>
        <time>2013-05-11T14:11:10Z</time>
      </trkpt>
      <trkpt lat="40.532450" lon="-4.872000">
        <ele>2395.0</ele>
        <time>2013-05-11T14:11:11Z</time>
      </trkpt>
      <trkpt lat="40.532483" lon="-4.871900">
        <ele>2393.0</ele>
        <time>2013-05-11T14:11:12Z</time>
      </trkpt>
      <trkpt lat="40.532500" lon="-4.871800">
        <ele>2390.0</ele>
        <time>2013-05-11T14:11:13Z</time>
      </trkpt>
      <trkpt lat="40.532517" lon="-4.871683">
        <ele>2386.0</ele>
        <time>2013-05-11T14:11:14Z</time>
      </trkpt>
      <trkpt lat="40.532567" lon="-4.871550">
        <ele>2382.0</ele>
        <time>2013-05-11T14:11:15Z</time>
      </trkpt>
      <trkpt lat="40.532617" lon="-4.871417">
        <ele>2379.0</ele>
        <time>2013-05-11T14:11:16Z</time>
      </trkpt>
      <trkpt lat="40.532667" lon="-4.871283">
        <ele>2377.0</ele>
        <time>2013-05-11T14:11:17Z</time>
      </trkpt>
      <trkpt lat="40.532700" lon="-4.871167">
        <ele>2376.0</ele>
        <time>2013-05-11T14:11:18Z</time>
      </trkpt>
      <trkpt lat="40.532733" lon="-4.871050">
        <ele>2374.0</ele>
        <time>2013-05-11T14:11:19Z</time>
      </trkpt>
      <trkpt lat="40.532767" lon="-4.870950">
        <ele>2372.0</ele>
        <time>2013-05-11T14:11:20Z</time>
      </trkpt>
      <trkpt lat="40.532817" lon="-4.870850">
        <ele>2369.0</ele>
        <time>2013-05-11T14:11:21Z</time>
      </trkpt>
      <trkpt lat="40.532867" lon="-4.870733">
        <ele>2365.0</ele>
        <time>2013-05-11T14:11:22Z</time>
      </trkpt>
      <trkpt lat="40.532900" lon="-4.870617">
        <ele>2363.0</ele>
        <time>2013-05-11T14:11:23Z</time>
      </trkpt>
      <trkpt lat="40.532950" lon="-4.870500">
        <ele>2362.0</ele>
        <time>2013-05-11T14:11:24Z</time>
      </trkpt>
      <trkpt lat="40.532983" lon="-4.870400">
        <ele>2362.0</ele>
        <time>2013-05-11T14:11:25Z</time>
      </trkpt>
      <trkpt lat="40.533000" lon="-4.870300">
        <ele>2362.0</ele>
        <time>2013-05-11T14:11:26Z</time>
      </trkpt>
      <trkpt lat="40.533033" lon="-4.870217">
        <ele>2360.0</ele>
        <time>2013-05-11T14:11:27Z</time>
      </trkpt>
      <trkpt lat="40.533067" lon="-4.870117">
        <ele>2359.0</ele>
        <time>2013-05-11T14:11:28Z</time>
      </trkpt>
      <trkpt lat="40.533100" lon="-4.870000">
        <ele>2356.0</ele>
        <time>2013-05-11T14:11:29Z</time>
      </trkpt>
      <trkpt lat="40.533150" lon="-4.869867">
        <ele>2355.0</ele>
        <time>2013-05-11T14:11:30Z</time>
      </trkpt>
      <trkpt lat="40.533183" lon="-4.869733">
        <ele>2354.0</ele>
        <time>2013-05-11T14:11:31Z</time>
      </trkpt>
      <trkpt lat="40.533217" lon="-4.869617">
        <ele>2354.0</ele>
        <time>2013-05-11T14:11:32Z</time>
      </trkpt>
      <trkpt lat="40.533250" lon="-4.869517">
        <ele>2354.0</ele>
        <time>2013-05-11T14:11:33Z</time>
      </trkpt>
      <trkpt lat="40.533283" lon="-4.869417">
        <ele>2354.0</ele>
        <time>2013-05-11T14:11:34Z</time>
      </trkpt>
      <trkpt lat="40.533317" lon="-4.869317">
        <ele>2352.0</ele>
        <time>2013-05-11T14:11:35Z</time>
      </trkpt>
      <trkpt lat="40.533350" lon="-4.869200">
        <ele>2351.0</ele>
        <time>2013-05-11T14:11:36Z</time>
      </trkpt>
      <trkpt lat="40.533383" lon="-4.869100">
        <ele>2349.0</ele>
        <time>2013-05-11T14:11:37Z</time>
      </trkpt>
      <trkpt lat="40.533433" lon="-4.869000">
        <ele>2348.0</ele>
        <time>2013-05-11T14:11:38Z</time>
      </trkpt>
      <trkpt lat="40.533483" lon="-4.868900">
        <ele>2346.0</ele>
        <time>2013-05-11T14:11:39Z</time>
      </trkpt>
      <trkpt lat="40.533550" lon="-4.868817">
        <ele>2346.0</ele>
        <time>2013-05-11T14:11:40Z</time>
      </trkpt>
      <trkpt lat="40.533600" lon="-4.868717">
        <ele>2344.0</ele>
        <time>2013-05-11T14:11:41Z</time>
      </trkpt>
      <trkpt lat="40.533633" lon="-4.868617">
        <ele>2342.0</ele>
        <time>2013-05-11T14:11:42Z</time>
      </trkpt>
      <trkpt lat="40.533667" lon="-4.868500">
        <ele>2340.0</ele>
        <time>2013-05-11T14:11:43Z</time>
      </trkpt>
      <trkpt lat="40.533700" lon="-4.868383">
        <ele>2337.0</ele>
        <time>2013-05-11T14:11:44Z</time>
      </trkpt>
      <trkpt lat="40.533750" lon="-4.868283">
        <ele>2335.0</ele>
        <time>2013-05-11T14:11:45Z</time>
      </trkpt>
      <trkpt lat="40.533783" lon="-4.868167">
        <ele>2334.0</ele>
        <time>2013-05-11T14:11:46Z</time>
      </trkpt>
      <trkpt lat="40.533817" lon="-4.868067">
        <ele>2333.0</ele>
        <time>2013-05-11T14:11:47Z</time>
      </trkpt>
      <trkpt lat="40.533850" lon="-4.867967">
        <ele>2332.0</ele>
        <time>2013-05-11T14:11:48Z</time>
      </trkpt>
      <trkpt lat="40.533883" lon="-4.867850">
        <ele>2331.0</ele>
        <time>2013-05-11T14:11:49Z</time>
      </trkpt>
      <trkpt lat="40.533900" lon="-4.867717">
        <ele>2331.0</ele>
        <time>2013-05-11T14:11:50Z</time>
      </trkpt>
      <trkpt lat="40.533917" lon="-4.867600">
        <ele>2332.0</ele>
        <time>2013-05-11T14:11:51Z</time>
      </trkpt>
      <trkpt lat="40.533933" lon="-4.867500">
        <ele>2333.0</ele>
        <time>2013-05-11T14:11:52Z</time>
      </trkpt>
      <trkpt lat="40.533933" lon="-4.867417">
        <ele>2334.0</ele>
        <time>2013-05-11T14:11:53Z</time>
      </trkpt>
      <trkpt lat="40.533933" lon="-4.867333">
        <ele>2334.0</ele>
        <time>2013-05-11T14:11:54Z</time>
      </trkpt>
      <trkpt lat="40.533917" lon="-4.867233">
        <ele>2334.0</ele>
        <time>2013-05-11T14:11:55Z</time>
      </trkpt>
      <trkpt lat="40.533917" lon="-4.867150">
        <ele>2333.0</ele>
        <time>2013-05-11T14:11:56Z</time>
      </trkpt>
      <trkpt lat="40.533933" lon="-4.867050">
        <ele>2332.0</ele>
        <time>2013-05-11T14:11:57Z</time>
      </trkpt>
      <trkpt lat="40.533950" lon="-4.866950">
        <ele>2330.0</ele>
        <time>2013-05-11T14:11:58Z</time>
      </trkpt>
      <trkpt lat="40.533967" lon="-4.866850">
        <ele>2329.0</ele>
        <time>2013-05-11T14:11:59Z</time>
      </trkpt>
      <trkpt lat="40.533983" lon="-4.866750">
        <ele>2328.0</ele>
        <time>2013-05-11T14:12:00Z</time>
      </trkpt>
      <trkpt lat="40.533983" lon="-4.866633">
        <ele>2327.0</ele>
        <time>2013-05-11T14:12:01Z</time>
      </trkpt>
      <trkpt lat="40.533983" lon="-4.866517">
        <ele>2327.0</ele>
        <time>2013-05-11T14:12:02Z</time>
      </trkpt>
      <trkpt lat="40.533983" lon="-4.866417">
        <ele>2327.0</ele>
        <time>2013-05-11T14:12:03Z</time>
      </trkpt>
      <trkpt lat="40.533983" lon="-4.866300">
        <ele>2326.0</ele>
        <time>2013-05-11T14:12:04Z</time>
      </trkpt>
      <trkpt lat="40.533967" lon="-4.866183">
        <ele>2325.0</ele>
        <time>2013-05-11T14:12:05Z</time>
      </trkpt>
      <trkpt lat="40.533967" lon="-4.866067">
        <ele>2324.0</ele>
        <time>2013-05-11T14:12:06Z</time>
      </trkpt>
      <trkpt lat="40.533967" lon="-4.865950">
        <ele>2324.0</ele>
        <time>2013-05-11T14:12:07Z</time>
      </trkpt>
      <trkpt lat="40.533967" lon="-4.865833">
        <ele>2323.0</ele>
        <time>2013-05-11T14:12:08Z</time>
      </trkpt>
      <trkpt lat="40.533967" lon="-4.865733">
        <ele>2322.0</ele>
        <time>2013-05-11T14:12:09Z</time>
      </trkpt>
      <trkpt lat="40.533967" lon="-4.865633">
        <ele>2321.0</ele>
        <time>2013-05-11T14:12:10Z</time>
      </trkpt>
      <trkpt lat="40.533983" lon="-4.865533">
        <ele>2319.0</ele>
        <time>2013-05-11T14:12:11Z</time>
      </trkpt>
      <trkpt lat="40.533983" lon="-4.865417">
        <ele>2317.0</ele>
        <time>2013-05-11T14:12:12Z</time>
      </trkpt>
      <trkpt lat="40.534000" lon="-4.865300">
        <ele>2315.0</ele>
        <time>2013-05-11T14:12:13Z</time>
      </trkpt>
      <trkpt lat="40.534017" lon="-4.865183">
        <ele>2313.0</ele>
        <time>2013-05-11T14:12:14Z</time>
      </trkpt>
      <trkpt lat="40.534050" lon="-4.865067">
        <ele>2312.0</ele>
        <time>2013-05-11T14:12:15Z</time>
      </trkpt>
      <trkpt lat="40.534050" lon="-4.864967">
        <ele>2311.0</ele>
        <time>2013-05-11T14:12:16Z</time>
      </trkpt>
      <trkpt lat="40.534083" lon="-4.864867">
        <ele>2309.0</ele>
        <time>2013-05-11T14:12:17Z</time>
      </trkpt>
      <trkpt lat="40.534100" lon="-4.864783">
        <ele>2307.0</ele>
        <time>2013-05-11T14:12:18Z</time>
      </trkpt>
      <trkpt lat="40.534117" lon="-4.864683">
        <ele>2306.0</ele>
        <time>2013-05-11T14:12:19Z</time>
      </trkpt>
      <trkpt lat="40.534150" lon="-4.864600">
        <ele>2304.0</ele>
        <time>2013-05-11T14:12:20Z</time>
      </trkpt>
      <trkpt lat="40.534200" lon="-4.864533">
        <ele>2304.0</ele>
        <time>2013-05-11T14:12:21Z</time>
      </trkpt>
      <trkpt lat="40.534233" lon="-4.864467">
        <ele>2303.0</ele>
        <time>2013-05-11T14:12:22Z</time>
      </trkpt>
      <trkpt lat="40.534267" lon="-4.864400">
        <ele>2301.0</ele>
        <time>2013-05-11T14:12:23Z</time>
      </trkpt>
      <trkpt lat="40.534300" lon="-4.864333">
        <ele>2300.0</ele>
        <time>2013-05-11T14:12:24Z</time>
      </trkpt>
      <trkpt lat="40.534333" lon="-4.864267">
        <ele>2297.0</ele>
        <time>2013-05-11T14:12:25Z</time>
      </trkpt>
      <trkpt lat="40.534383" lon="-4.864200">
        <ele>2295.0</ele>
        <time>2013-05-11T14:12:26Z</time>
      </trkpt>
      <trkpt lat="40.534417" lon="-4.864117">
        <ele>2293.0</ele>
        <time>2013-05-11T14:12:27Z</time>
      </trkpt>
      <trkpt lat="40.534450" lon="-4.864050">
        <ele>2291.0</ele>
        <time>2013-05-11T14:12:28Z</time>
      </trkpt>
      <trkpt lat="40.534483" lon="-4.863983">
        <ele>2288.0</ele>
        <time>2013-05-11T14:12:29Z</time>
      </trkpt>
      <trkpt lat="40.534517" lon="-4.863900">
        <ele>2286.0</ele>
        <time>2013-05-11T14:12:30Z</time>
      </trkpt>
      <trkpt lat="40.534550" lon="-4.863833">
        <ele>2284.0</ele>
        <time>2013-05-11T14:12:31Z</time>
      </trkpt>
      <trkpt lat="40.534583" lon="-4.863767">
        <ele>2282.0</ele>
        <time>2013-05-11T14:12:32Z</time>
      </trkpt>
      <trkpt lat="40.534633" lon="-4.863700">
        <ele>2280.0</ele>
        <time>2013-05-11T14:12:33Z</time>
      </trkpt>
      <trkpt lat="40.534667" lon="-4.863650">
        <ele>2279.0</ele>
        <time>2013-05-11T14:12:34Z</time>
      </trkpt>
      <trkpt lat="40.534717" lon="-4.863583">
        <ele>2277.0</ele>
        <time>2013-05-11T14:12:35Z</time>
      </trkpt>
      <trkpt lat="40.534750" lon="-4.863500">
        <ele>2275.0</ele>
        <time>2013-05-11T14:12:36Z</time>
      </trkpt>
      <trkpt lat="40.534783" lon="-4.863433">
        <ele>2273.0</ele>
        <time>2013-05-11T14:12:37Z</time>
      </trkpt>
      <trkpt lat="40.534817" lon="-4.863367">
        <ele>2271.0</ele>
        <time>2013-05-11T14:12:38Z</time>
      </trkpt>
      <trkpt lat="40.534850" lon="-4.863300">
        <ele>2268.0</ele>
        <time>2013-05-11T14:12:39Z</time>
      </trkpt>
      <trkpt lat="40.534900" lon="-4.863233">
        <ele>2265.0</ele>
        <time>2013-05-11T14:12:40Z</time>
      </trkpt>
      <trkpt lat="40.534950" lon="-4.863150">
        <ele>2262.0</ele>
        <time>2013-05-11T14:12:41Z</time>
      </trkpt>
      <trkpt lat="40.534983" lon="-4.863083">
        <ele>2260.0</ele>
        <time>2013-05-11T14:12:42Z</time>
      </trkpt>
      <trkpt lat="40.535033" lon="-4.862983">
        <ele>2257.0</ele>
        <time>2013-05-11T14:12:43Z</time>
      </trkpt>
      <trkpt lat="40.535067" lon="-4.862900">
        <ele>2254.0</ele>
        <time>2013-05-11T14:12:44Z</time>
      </trkpt>
      <trkpt lat="40.535100" lon="-4.862817">
        <ele>2252.0</ele>
        <time>2013-05-11T14:12:45Z</time>
      </trkpt>
      <trkpt lat="40.535133" lon="-4.862717">
        <ele>2249.0</ele>
        <time>2013-05-11T14:12:46Z</time>
      </trkpt>
      <trkpt lat="40.535167" lon="-4.862617">
        <ele>2246.0</ele>
        <time>2013-05-11T14:12:47Z</time>
      </trkpt>
      <trkpt lat="40.535183" lon="-4.862517">
        <ele>2243.0</ele>
        <time>2013-05-11T14:12:48Z</time>
      </trkpt>
      <trkpt lat="40.535217" lon="-4.862417">
        <ele>2241.0</ele>
        <time>2013-05-11T14:12:49Z</time>
      </trkpt>
      <trkpt lat="40.535267" lon="-4.862333">
        <ele>2239.0</ele>
        <time>2013-05-11T14:12:50Z</time>
      </trkpt>
      <trkpt lat="40.535300" lon="-4.862267">
        <ele>2238.0</ele>
        <time>2013-05-11T14:12:51Z</time>
      </trkpt>
      <trkpt lat="40.535333" lon="-4.862200">
        <ele>2236.0</ele>
        <time>2013-05-11T14:12:52Z</time>
      </trkpt>
      <trkpt lat="40.535383" lon="-4.862150">
        <ele>2234.0</ele>
        <time>2013-05-11T14:12:53Z</time>
      </trkpt>
      <trkpt lat="40.535417" lon="-4.862083">
        <ele>2231.0</ele>
        <time>2013-05-11T14:12:54Z</time>
      </trkpt>
      <trkpt lat="40.535467" lon="-4.862017">
        <ele>2227.0</ele>
        <time>2013-05-11T14:12:55Z</time>
      </trkpt>
      <trkpt lat="40.535533" lon="-4.861933">
        <ele>2223.0</ele>
        <time>2013-05-11T14:12:56Z</time>
      </trkpt>
      <trkpt lat="40.535600" lon="-4.861850">
        <ele>2222.0</ele>
        <time>2013-05-11T14:12:57Z</time>
      </trkpt>
      <trkpt lat="40.535650" lon="-4.861783">
        <ele>2222.0</ele>
        <time>2013-05-11T14:12:58Z</time>
      </trkpt>
      <trkpt lat="40.535700" lon="-4.861700">
        <ele>2222.0</ele>
        <time>2013-05-11T14:12:59Z</time>
      </trkpt>
      <trkpt lat="40.535750" lon="-4.861650">
        <ele>2221.0</ele>
        <time>2013-05-11T14:13:00Z</time>
      </trkpt>
      <trkpt lat="40.535800" lon="-4.861583">
        <ele>2219.0</ele>
        <time>2013-05-11T14:13:01Z</time>
      </trkpt>
      <trkpt lat="40.535850" lon="-4.861500">
        <ele>2217.0</ele>
        <time>2013-05-11T14:13:02Z</time>
      </trkpt>
      <trkpt lat="40.535883" lon="-4.861417">
        <ele>2215.0</ele>
        <time>2013-05-11T14:13:03Z</time>
      </trkpt>
      <trkpt lat="40.535933" lon="-4.861317">
        <ele>2213.0</ele>
        <time>2013-05-11T14:13:04Z</time>
      </trkpt>
      <trkpt lat="40.535967" lon="-4.861217">
        <ele>2213.0</ele>
        <time>2013-05-11T14:13:05Z</time>
      </trkpt>
      <trkpt lat="40.536017" lon="-4.861150">
        <ele>2211.0</ele>
        <time>2013-05-11T14:13:06Z</time>
      </trkpt>
      <trkpt lat="40.536050" lon="-4.861083">
        <ele>2209.0</ele>
        <time>2013-05-11T14:13:07Z</time>
      </trkpt>
      <trkpt lat="40.536100" lon="-4.861000">
        <ele>2207.0</ele>
        <time>2013-05-11T14:13:08Z</time>
      </trkpt>
      <trkpt lat="40.536150" lon="-4.860900">
        <ele>2204.0</ele>
        <time>2013-05-11T14:13:09Z</time>
      </trkpt>
      <trkpt lat="40.536200" lon="-4.860783">
        <ele>2203.0</ele>
        <time>2013-05-11T14:13:10Z</time>
      </trkpt>
      <trkpt lat="40.536250" lon="-4.860683">
        <ele>2202.0</ele>
        <time>2013-05-11T14:13:11Z</time>
      </trkpt>
      <trkpt lat="40.536283" lon="-4.860600">
        <ele>2202.0</ele>
        <time>2013-05-11T14:13:12Z</time>
      </trkpt>
      <trkpt lat="40.536333" lon="-4.860517">
        <ele>2201.0</ele>
        <time>2013-05-11T14:13:13Z</time>
      </trkpt>
      <trkpt lat="40.536367" lon="-4.860433">
        <ele>2198.0</ele>
        <time>2013-05-11T14:13:14Z</time>
      </trkpt>
      <trkpt lat="40.536417" lon="-4.860350">
        <ele>2196.0</ele>
        <time>2013-05-11T14:13:15Z</time>
      </trkpt>
      <trkpt lat="40.536467" lon="-4.860267">
        <ele>2193.0</ele>
        <time>2013-05-11T14:13:16Z</time>
      </trkpt>
      <trkpt lat="40.536517" lon="-4.860183">
        <ele>2191.0</ele>
        <time>2013-05-11T14:13:17Z</time>
      </trkpt>
      <trkpt lat="40.536567" lon="-4.860100">
        <ele>2190.0</ele>
        <time>2013-05-11T14:13:18Z</time>
      </trkpt>
      <trkpt lat="40.536600" lon="-4.860050">
        <ele>2188.0</ele>
        <time>2013-05-11T14:13:19Z</time>
      </trkpt>
      <trkpt lat="40.536633" lon="-4.859983">
        <ele>2186.0</ele>
        <time>2013-05-11T14:13:20Z</time>
      </trkpt>
      <trkpt lat="40.536683" lon="-4.859917">
        <ele>2184.0</ele>
        <time>2013-05-11T14:13:21Z</time>
      </trkpt>
      <trkpt lat="40.536733" lon="-4.859850">
        <ele>2180.0</ele>
        <time>2013-05-11T14:13:22Z</time>
      </trkpt>
      <trkpt lat="40.536783" lon="-4.859783">
        <ele>2177.0</ele>
        <time>2013-05-11T14:13:23Z</time>
      </trkpt>
      <trkpt lat="40.536833" lon="-4.859700">
        <ele>2175.0</ele>
        <time>2013-05-11T14:13:24Z</time>
      </trkpt>
      <trkpt lat="40.536883" lon="-4.859617">
        <ele>2174.0</ele>
        <time>2013-05-11T14:13:25Z</time>
      </trkpt>
      <trkpt lat="40.536950" lon="-4.859550">
        <ele>2173.0</ele>
        <time>2013-05-11T14:13:26Z</time>
      </trkpt>
      <trkpt lat="40.536983" lon="-4.859467">
        <ele>2172.0</ele>
        <time>2013-05-11T14:13:27Z</time>
      </trkpt>
      <trkpt lat="40.537033" lon="-4.859383">
        <ele>2172.0</ele>
        <time>2013-05-11T14:13:28Z</time>
      </trkpt>
      <trkpt lat="40.537067" lon="-4.859300">
        <ele>2170.0</ele>
        <time>2013-05-11T14:13:29Z</time>
      </trkpt>
      <trkpt lat="40.537117" lon="-4.859217">
        <ele>2168.0</ele>
        <time>2013-05-11T14:13:30Z</time>
      </trkpt>
      <trkpt lat="40.537167" lon="-4.859133">
        <ele>2165.0</ele>
        <time>2013-05-11T14:13:31Z</time>
      </trkpt>
      <trkpt lat="40.537233" lon="-4.859033">
        <ele>2162.0</ele>
        <time>2013-05-11T14:13:32Z</time>
      </trkpt>
      <trkpt lat="40.537300" lon="-4.858933">
        <ele>2159.0</ele>
        <time>2013-05-11T14:13:33Z</time>
      </trkpt>
      <trkpt lat="40.537367" lon="-4.858833">
        <ele>2157.0</ele>
        <time>2013-05-11T14:13:34Z</time>
      </trkpt>
      <trkpt lat="40.537450" lon="-4.858717">
        <ele>2155.0</ele>
        <time>2013-05-11T14:13:35Z</time>
      </trkpt>
      <trkpt lat="40.537533" lon="-4.858583">
        <ele>2158.0</ele>
        <time>2013-05-11T14:13:36Z</time>
      </trkpt>
      <trkpt lat="40.537583" lon="-4.858483">
        <ele>2162.0</ele>
        <time>2013-05-11T14:13:37Z</time>
      </trkpt>
      <trkpt lat="40.537617" lon="-4.858400">
        <ele>2166.0</ele>
        <time>2013-05-11T14:13:38Z</time>
      </trkpt>
      <trkpt lat="40.537633" lon="-4.858333">
        <ele>2168.0</ele>
        <time>2013-05-11T14:13:39Z</time>
      </trkpt>
      <trkpt lat="40.537650" lon="-4.858267">
        <ele>2168.0</ele>
        <time>2013-05-11T14:13:40Z</time>
      </trkpt>
      <trkpt lat="40.537683" lon="-4.858183">
        <ele>2167.0</ele>
        <time>2013-05-11T14:13:41Z</time>
      </trkpt>
      <trkpt lat="40.537717" lon="-4.858067">
        <ele>2165.0</ele>
        <time>2013-05-11T14:13:42Z</time>
      </trkpt>
      <trkpt lat="40.537750" lon="-4.857950">
        <ele>2163.0</ele>
        <time>2013-05-11T14:13:43Z</time>
      </trkpt>
      <trkpt lat="40.537783" lon="-4.857817">
        <ele>2162.0</ele>
        <time>2013-05-11T14:13:44Z</time>
      </trkpt>
      <trkpt lat="40.537817" lon="-4.857700">
        <ele>2162.0</ele>
        <time>2013-05-11T14:13:45Z</time>
      </trkpt>
      <trkpt lat="40.537850" lon="-4.857583">
        <ele>2161.0</ele>
        <time>2013-05-11T14:13:46Z</time>
      </trkpt>
      <trkpt lat="40.537883" lon="-4.857483">
        <ele>2160.0</ele>
        <time>2013-05-11T14:13:47Z</time>
      </trkpt>
      <trkpt lat="40.537933" lon="-4.857367">
        <ele>2159.0</ele>
        <time>2013-05-11T14:13:48Z</time>
      </trkpt>
      <trkpt lat="40.537967" lon="-4.857267">
        <ele>2159.0</ele>
        <time>2013-05-11T14:13:49Z</time>
      </trkpt>
      <trkpt lat="40.538017" lon="-4.857150">
        <ele>2159.0</ele>
        <time>2013-05-11T14:13:50Z</time>
      </trkpt>
      <trkpt lat="40.538050" lon="-4.857050">
        <ele>2160.0</ele>
        <time>2013-05-11T14:13:51Z</time>
      </trkpt>
      <trkpt lat="40.538100" lon="-4.856950">
        <ele>2160.0</ele>
        <time>2013-05-11T14:13:52Z</time>
      </trkpt>
      <trkpt lat="40.538133" lon="-4.856867">
        <ele>2160.0</ele>
        <time>2013-05-11T14:13:53Z</time>
      </trkpt>
      <trkpt lat="40.538183" lon="-4.856767">
        <ele>2159.0</ele>
        <time>2013-05-11T14:13:54Z</time>
      </trkpt>
      <trkpt lat="40.538217" lon="-4.856667">
        <ele>2159.0</ele>
        <time>2013-05-11T14:13:55Z</time>
      </trkpt>
      <trkpt lat="40.538250" lon="-4.856567">
        <ele>2159.0</ele>
        <time>2013-05-11T14:13:56Z</time>
      </trkpt>
      <trkpt lat="40.538267" lon="-4.856467">
        <ele>2159.0</ele>
        <time>2013-05-11T14:13:57Z</time>
      </trkpt>
      <trkpt lat="40.538300" lon="-4.856383">
        <ele>2157.0</ele>
        <time>2013-05-11T14:13:58Z</time>
      </trkpt>
      <trkpt lat="40.538333" lon="-4.856283">
        <ele>2155.0</ele>
        <time>2013-05-11T14:13:59Z</time>
      </trkpt>
      <trkpt lat="40.538383" lon="-4.856183">
        <ele>2155.0</ele>
        <time>2013-05-11T14:14:00Z</time>
      </trkpt>
      <trkpt lat="40.538417" lon="-4.856067">
        <ele>2154.0</ele>
        <time>2013-05-11T14:14:01Z</time>
      </trkpt>
      <trkpt lat="40.538433" lon="-4.855950">
        <ele>2154.0</ele>
        <time>2013-05-11T14:14:02Z</time>
      </trkpt>
      <trkpt lat="40.538450" lon="-4.855817">
        <ele>2153.0</ele>
        <time>2013-05-11T14:14:03Z</time>
      </trkpt>
      <trkpt lat="40.538467" lon="-4.855667">
        <ele>2153.0</ele>
        <time>2013-05-11T14:14:04Z</time>
      </trkpt>
      <trkpt lat="40.538467" lon="-4.855533">
        <ele>2153.0</ele>
        <time>2013-05-11T14:14:05Z</time>
      </trkpt>
      <trkpt lat="40.538467" lon="-4.855400">
        <ele>2154.0</ele>
        <time>2013-05-11T14:14:06Z</time>
      </trkpt>
      <trkpt lat="40.538450" lon="-4.855267">
        <ele>2154.0</ele>
        <time>2013-05-11T14:14:07Z</time>
      </trkpt>
      <trkpt lat="40.538433" lon="-4.855133">
        <ele>2153.0</ele>
        <time>2013-05-11T14:14:08Z</time>
      </trkpt>
      <trkpt lat="40.538400" lon="-4.854983">
        <ele>2152.0</ele>
        <time>2013-05-11T14:14:09Z</time>
      </trkpt>
      <trkpt lat="40.538383" lon="-4.854833">
        <ele>2151.0</ele>
        <time>2013-05-11T14:14:10Z</time>
      </trkpt>
      <trkpt lat="40.538367" lon="-4.854683">
        <ele>2151.0</ele>
        <time>2013-05-11T14:14:11Z</time>
      </trkpt>
      <trkpt lat="40.538350" lon="-4.854533">
        <ele>2151.0</ele>
        <time>2013-05-11T14:14:12Z</time>
      </trkpt>
      <trkpt lat="40.538317" lon="-4.854400">
        <ele>2150.0</ele>
        <time>2013-05-11T14:14:13Z</time>
      </trkpt>
      <trkpt lat="40.538317" lon="-4.854267">
        <ele>2149.0</ele>
        <time>2013-05-11T14:14:14Z</time>
      </trkpt>
      <trkpt lat="40.538300" lon="-4.854133">
        <ele>2148.0</ele>
        <time>2013-05-11T14:14:15Z</time>
      </trkpt>
      <trkpt lat="40.538283" lon="-4.854000">
        <ele>2146.0</ele>
        <time>2013-05-11T14:14:16Z</time>
      </trkpt>
      <trkpt lat="40.538283" lon="-4.853850">
        <ele>2145.0</ele>
        <time>2013-05-11T14:14:17Z</time>
      </trkpt>
      <trkpt lat="40.538283" lon="-4.853700">
        <ele>2143.0</ele>
        <time>2013-05-11T14:14:18Z</time>
      </trkpt>
      <trkpt lat="40.538283" lon="-4.853550">
        <ele>2142.0</ele>
        <time>2013-05-11T14:14:19Z</time>
      </trkpt>
      <trkpt lat="40.538283" lon="-4.853417">
        <ele>2140.0</ele>
        <time>2013-05-11T14:14:20Z</time>
      </trkpt>
      <trkpt lat="40.538300" lon="-4.853283">
        <ele>2139.0</ele>
        <time>2013-05-11T14:14:21Z</time>
      </trkpt>
      <trkpt lat="40.538333" lon="-4.853167">
        <ele>2137.0</ele>
        <time>2013-05-11T14:14:22Z</time>
      </trkpt>
      <trkpt lat="40.538367" lon="-4.853050">
        <ele>2135.0</ele>
        <time>2013-05-11T14:14:23Z</time>
      </trkpt>
      <trkpt lat="40.538400" lon="-4.852933">
        <ele>2133.0</ele>
        <time>2013-05-11T14:14:24Z</time>
      </trkpt>
      <trkpt lat="40.538433" lon="-4.852817">
        <ele>2131.0</ele>
        <time>2013-05-11T14:14:25Z</time>
      </trkpt>
      <trkpt lat="40.538467" lon="-4.852700">
        <ele>2129.0</ele>
        <time>2013-05-11T14:14:26Z</time>
      </trkpt>
      <trkpt lat="40.538500" lon="-4.852567">
        <ele>2127.0</ele>
        <time>2013-05-11T14:14:27Z</time>
      </trkpt>
      <trkpt lat="40.538533" lon="-4.852433">
        <ele>2125.0</ele>
        <time>2013-05-11T14:14:28Z</time>
      </trkpt>
      <trkpt lat="40.538567" lon="-4.852317">
        <ele>2123.0</ele>
        <time>2013-05-11T14:14:29Z</time>
      </trkpt>
      <trkpt lat="40.538600" lon="-4.852200">
        <ele>2122.0</ele>
        <time>2013-05-11T14:14:30Z</time>
      </trkpt>
      <trkpt lat="40.538617" lon="-4.852083">
        <ele>2120.0</ele>
        <time>2013-05-11T14:14:31Z</time>
      </trkpt>
      <trkpt lat="40.538650" lon="-4.851967">
        <ele>2118.0</ele>
        <time>2013-05-11T14:14:32Z</time>
      </trkpt>
      <trkpt lat="40.538667" lon="-4.851833">
        <ele>2116.0</ele>
        <time>2013-05-11T14:14:33Z</time>
      </trkpt>
      <trkpt lat="40.538700" lon="-4.851717">
        <ele>2114.0</ele>
        <time>2013-05-11T14:14:34Z</time>
      </trkpt>
      <trkpt lat="40.538717" lon="-4.851583">
        <ele>2113.0</ele>
        <time>2013-05-11T14:14:35Z</time>
      </trkpt>
      <trkpt lat="40.538717" lon="-4.851467">
        <ele>2111.0</ele>
        <time>2013-05-11T14:14:36Z</time>
      </trkpt>
      <trkpt lat="40.538700" lon="-4.851333">
        <ele>2109.0</ele>
        <time>2013-05-11T14:14:37Z</time>
      </trkpt>
      <trkpt lat="40.538667" lon="-4.851217">
        <ele>2106.0</ele>
        <time>2013-05-11T14:14:38Z</time>
      </trkpt>
      <trkpt lat="40.538633" lon="-4.851083">
        <ele>2103.0</ele>
        <time>2013-05-11T14:14:39Z</time>
      </trkpt>
      <trkpt lat="40.538600" lon="-4.850950">
        <ele>2101.0</ele>
        <time>2013-05-11T14:14:40Z</time>
      </trkpt>
      <trkpt lat="40.538583" lon="-4.850817">
        <ele>2099.0</ele>
        <time>2013-05-11T14:14:41Z</time>
      </trkpt>
      <trkpt lat="40.538583" lon="-4.850667">
        <ele>2098.0</ele>
        <time>2013-05-11T14:14:42Z</time>
      </trkpt>
      <trkpt lat="40.538583" lon="-4.850533">
        <ele>2097.0</ele>
        <time>2013-05-11T14:14:43Z</time>
      </trkpt>
      <trkpt lat="40.538583" lon="-4.850400">
        <ele>2097.0</ele>
        <time>2013-05-11T14:14:44Z</time>
      </trkpt>
      <trkpt lat="40.538583" lon="-4.850267">
        <ele>2097.0</ele>
        <time>2013-05-11T14:14:45Z</time>
      </trkpt>
      <trkpt lat="40.538600" lon="-4.850150">
        <ele>2097.0</ele>
        <time>2013-05-11T14:14:46Z</time>
      </trkpt>
      <trkpt lat="40.538600" lon="-4.850033">
        <ele>2097.0</ele>
        <time>2013-05-11T14:14:47Z</time>
      </trkpt>
      <trkpt lat="40.538617" lon="-4.849933">
        <ele>2096.0</ele>
        <time>2013-05-11T14:14:48Z</time>
      </trkpt>
      <trkpt lat="40.538633" lon="-4.849817">
        <ele>2095.0</ele>
        <time>2013-05-11T14:14:49Z</time>
      </trkpt>
      <trkpt lat="40.538667" lon="-4.849717">
        <ele>2094.0</ele>
        <time>2013-05-11T14:14:50Z</time>
      </trkpt>
      <trkpt lat="40.538683" lon="-4.849633">
        <ele>2093.0</ele>
        <time>2013-05-11T14:14:51Z</time>
      </trkpt>
      <trkpt lat="40.538700" lon="-4.849517">
        <ele>2092.0</ele>
        <time>2013-05-11T14:14:52Z</time>
      </trkpt>
      <trkpt lat="40.538733" lon="-4.849417">
        <ele>2089.0</ele>
        <time>2013-05-11T14:14:53Z</time>
      </trkpt>
      <trkpt lat="40.538750" lon="-4.849300">
        <ele>2087.0</ele>
        <time>2013-05-11T14:14:54Z</time>
      </trkpt>
      <trkpt lat="40.538767" lon="-4.849183">
        <ele>2086.0</ele>
        <time>2013-05-11T14:14:55Z</time>
      </trkpt>
      <trkpt lat="40.538817" lon="-4.849067">
        <ele>2084.0</ele>
        <time>2013-05-11T14:14:56Z</time>
      </trkpt>
      <trkpt lat="40.538850" lon="-4.848950">
        <ele>2083.0</ele>
        <time>2013-05-11T14:14:57Z</time>
      </trkpt>
      <trkpt lat="40.538883" lon="-4.848850">
        <ele>2082.0</ele>
        <time>2013-05-11T14:14:58Z</time>
      </trkpt>
      <trkpt lat="40.538917" lon="-4.848717">
        <ele>2081.0</ele>
        <time>2013-05-11T14:14:59Z</time>
      </trkpt>
      <trkpt lat="40.538933" lon="-4.848600">
        <ele>2080.0</ele>
        <time>2013-05-11T14:15:00Z</time>
      </trkpt>
      <trkpt lat="40.538967" lon="-4.848467">
        <ele>2079.0</ele>
        <time>2013-05-11T14:15:01Z</time>
      </trkpt>
      <trkpt lat="40.539000" lon="-4.848350">
        <ele>2078.0</ele>
        <time>2013-05-11T14:15:02Z</time>
      </trkpt>
      <trkpt lat="40.539033" lon="-4.848233">
        <ele>2077.0</ele>
        <time>2013-05-11T14:15:03Z</time>
      </trkpt>
      <trkpt lat="40.539067" lon="-4.848117">
        <ele>2075.0</ele>
        <time>2013-05-11T14:15:04Z</time>
      </trkpt>
      <trkpt lat="40.539083" lon="-4.848000">
        <ele>2072.0</ele>
        <time>2013-05-11T14:15:05Z</time>
      </trkpt>
      <trkpt lat="40.539100" lon="-4.847883">
        <ele>2070.0</ele>
        <time>2013-05-11T14:15:06Z</time>
      </trkpt>
      <trkpt lat="40.539133" lon="-4.847767">
        <ele>2066.0</ele>
        <time>2013-05-11T14:15:07Z</time>
      </trkpt>
      <trkpt lat="40.539167" lon="-4.847633">
        <ele>2063.0</ele>
        <time>2013-05-11T14:15:08Z</time>
      </trkpt>
      <trkpt lat="40.539183" lon="-4.847517">
        <ele>2062.0</ele>
        <time>2013-05-11T14:15:09Z</time>
      </trkpt>
      <trkpt lat="40.539217" lon="-4.847417">
        <ele>2061.0</ele>
        <time>2013-05-11T14:15:10Z</time>
      </trkpt>
      <trkpt lat="40.539233" lon="-4.847333">
        <ele>2059.0</ele>
        <time>2013-05-11T14:15:11Z</time>
      </trkpt>
      <trkpt lat="40.539267" lon="-4.847250">
        <ele>2057.0</ele>
        <time>2013-05-11T14:15:12Z</time>
      </trkpt>
      <trkpt lat="40.539300" lon="-4.847150">
        <ele>2054.0</ele>
        <time>2013-05-11T14:15:13Z</time>
      </trkpt>
      <trkpt lat="40.539350" lon="-4.847050">
        <ele>2051.0</ele>
        <time>2013-05-11T14:15:14Z</time>
      </trkpt>
      <trkpt lat="40.539383" lon="-4.846950">
        <ele>2048.0</ele>
        <time>2013-05-11T14:15:15Z</time>
      </trkpt>
      <trkpt lat="40.539433" lon="-4.846850">
        <ele>2047.0</ele>
        <time>2013-05-11T14:15:16Z</time>
      </trkpt>
      <trkpt lat="40.539467" lon="-4.846750">
        <ele>2046.0</ele>
        <time>2013-05-11T14:15:17Z</time>
      </trkpt>
      <trkpt lat="40.539483" lon="-4.846633">
        <ele>2045.0</ele>
        <time>2013-05-11T14:15:18Z</time>
      </trkpt>
      <trkpt lat="40.539483" lon="-4.846533">
        <ele>2044.0</ele>
        <time>2013-05-11T14:15:19Z</time>
      </trkpt>
      <trkpt lat="40.539483" lon="-4.846433">
        <ele>2043.0</ele>
        <time>2013-05-11T14:15:20Z</time>
      </trkpt>
      <trkpt lat="40.539483" lon="-4.846317">
        <ele>2042.0</ele>
        <time>2013-05-11T14:15:21Z</time>
      </trkpt>
      <trkpt lat="40.539483" lon="-4.846217">
        <ele>2040.0</ele>
        <time>2013-05-11T14:15:22Z</time>
      </trkpt>
      <trkpt lat="40.539467" lon="-4.846100">
        <ele>2038.0</ele>
        <time>2013-05-11T14:15:23Z</time>
      </trkpt>
      <trkpt lat="40.539450" lon="-4.845983">
        <ele>2037.0</ele>
        <time>2013-05-11T14:15:24Z</time>
      </trkpt>
      <trkpt lat="40.539450" lon="-4.845883">
        <ele>2035.0</ele>
        <time>2013-05-11T14:15:25Z</time>
      </trkpt>
      <trkpt lat="40.539450" lon="-4.845767">
        <ele>2033.0</ele>
        <time>2013-05-11T14:15:26Z</time>
      </trkpt>
      <trkpt lat="40.539483" lon="-4.845667">
        <ele>2032.0</ele>
        <time>2013-05-11T14:15:27Z</time>
      </trkpt>
      <trkpt lat="40.539500" lon="-4.845567">
        <ele>2030.0</ele>
        <time>2013-05-11T14:15:28Z</time>
      </trkpt>
      <trkpt lat="40.539533" lon="-4.845467">
        <ele>2029.0</ele>
        <time>2013-05-11T14:15:29Z</time>
      </trkpt>
      <trkpt lat="40.539550" lon="-4.845383">
        <ele>2027.0</ele>
        <time>2013-05-11T14:15:30Z</time>
      </trkpt>
      <trkpt lat="40.539583" lon="-4.845300">
        <ele>2025.0</ele>
        <time>2013-05-11T14:15:31Z</time>
      </trkpt>
      <trkpt lat="40.539617" lon="-4.845217">
        <ele>2023.0</ele>
        <time>2013-05-11T14:15:32Z</time>
      </trkpt>
      <trkpt lat="40.539667" lon="-4.845133">
        <ele>2019.0</ele>
        <time>2013-05-11T14:15:33Z</time>
      </trkpt>
      <trkpt lat="40.539717" lon="-4.845033">
        <ele>2017.0</ele>
        <time>2013-05-11T14:15:34Z</time>
      </trkpt>
      <trkpt lat="40.539767" lon="-4.844950">
        <ele>2016.0</ele>
        <time>2013-05-11T14:15:35Z</time>
      </trkpt>
      <trkpt lat="40.539817" lon="-4.844883">
        <ele>2015.0</ele>
        <time>2013-05-11T14:15:36Z</time>
      </trkpt>
      <trkpt lat="40.539850" lon="-4.844800">
        <ele>2014.0</ele>
        <time>2013-05-11T14:15:37Z</time>
      </trkpt>
      <trkpt lat="40.539900" lon="-4.844717">
        <ele>2011.0</ele>
        <time>2013-05-11T14:15:38Z</time>
      </trkpt>
      <trkpt lat="40.539933" lon="-4.844633">
        <ele>2008.0</ele>
        <time>2013-05-11T14:15:39Z</time>
      </trkpt>
      <trkpt lat="40.539983" lon="-4.844550">
        <ele>2006.0</ele>
        <time>2013-05-11T14:15:40Z</time>
      </trkpt>
      <trkpt lat="40.540033" lon="-4.844467">
        <ele>2003.0</ele>
        <time>2013-05-11T14:15:41Z</time>
      </trkpt>
      <trkpt lat="40.540083" lon="-4.844383">
        <ele>2002.0</ele>
        <time>2013-05-11T14:15:42Z</time>
      </trkpt>
      <trkpt lat="40.540150" lon="-4.844300">
        <ele>2000.0</ele>
        <time>2013-05-11T14:15:43Z</time>
      </trkpt>
      <trkpt lat="40.540200" lon="-4.844200">
        <ele>2000.0</ele>
        <time>2013-05-11T14:15:44Z</time>
      </trkpt>
      <trkpt lat="40.540250" lon="-4.844100">
        <ele>1999.0</ele>
        <time>2013-05-11T14:15:45Z</time>
      </trkpt>
      <trkpt lat="40.540300" lon="-4.844017">
        <ele>1999.0</ele>
        <time>2013-05-11T14:15:46Z</time>
      </trkpt>
      <trkpt lat="40.540350" lon="-4.843917">
        <ele>1998.0</ele>
        <time>2013-05-11T14:15:47Z</time>
      </trkpt>
      <trkpt lat="40.540400" lon="-4.843800">
        <ele>1998.0</ele>
        <time>2013-05-11T14:15:48Z</time>
      </trkpt>
      <trkpt lat="40.540450" lon="-4.843683">
        <ele>1998.0</ele>
        <time>2013-05-11T14:15:49Z</time>
      </trkpt>
      <trkpt lat="40.540483" lon="-4.843567">
        <ele>2000.0</ele>
        <time>2013-05-11T14:15:50Z</time>
      </trkpt>
      <trkpt lat="40.540517" lon="-4.843467">
        <ele>2002.0</ele>
        <time>2013-05-11T14:15:51Z</time>
      </trkpt>
      <trkpt lat="40.540533" lon="-4.843350">
        <ele>2003.0</ele>
        <time>2013-05-11T14:15:52Z</time>
      </trkpt>
      <trkpt lat="40.540517" lon="-4.843233">
        <ele>2003.0</ele>
        <time>2013-05-11T14:15:53Z</time>
      </trkpt>
      <trkpt lat="40.540500" lon="-4.843100">
        <ele>2002.0</ele>
        <time>2013-05-11T14:15:54Z</time>
      </trkpt>
      <trkpt lat="40.540467" lon="-4.842967">
        <ele>2001.0</ele>
        <time>2013-05-11T14:15:55Z</time>
      </trkpt>
      <trkpt lat="40.540433" lon="-4.842817">
        <ele>2000.0</ele>
        <time>2013-05-11T14:15:56Z</time>
      </trkpt>
      <trkpt lat="40.540400" lon="-4.842683">
        <ele>2000.0</ele>
        <time>2013-05-11T14:15:57Z</time>
      </trkpt>
      <trkpt lat="40.540367" lon="-4.842550">
        <ele>2000.0</ele>
        <time>2013-05-11T14:15:58Z</time>
      </trkpt>
      <trkpt lat="40.540317" lon="-4.842417">
        <ele>2000.0</ele>
        <time>2013-05-11T14:15:59Z</time>
      </trkpt>
      <trkpt lat="40.540233" lon="-4.842300">
        <ele>1999.0</ele>
        <time>2013-05-11T14:16:00Z</time>
      </trkpt>
      <trkpt lat="40.540133" lon="-4.842200">
        <ele>1998.0</ele>
        <time>2013-05-11T14:16:01Z</time>
      </trkpt>
      <trkpt lat="40.540033" lon="-4.842117">
        <ele>1998.0</ele>
        <time>2013-05-11T14:16:02Z</time>
      </trkpt>
      <trkpt lat="40.539917" lon="-4.842050">
        <ele>1998.0</ele>
        <time>2013-05-11T14:16:03Z</time>
      </trkpt>
      <trkpt lat="40.539800" lon="-4.842017">
        <ele>1998.0</ele>
        <time>2013-05-11T14:16:04Z</time>
      </trkpt>
      <trkpt lat="40.539667" lon="-4.842000">
        <ele>1998.0</ele>
        <time>2013-05-11T14:16:05Z</time>
      </trkpt>
      <trkpt lat="40.539550" lon="-4.842017">
        <ele>1997.0</ele>
        <time>2013-05-11T14:16:06Z</time>
      </trkpt>
      <trkpt lat="40.539433" lon="-4.842067">
        <ele>1997.0</ele>
        <time>2013-05-11T14:16:07Z</time>
      </trkpt>
      <trkpt lat="40.539333" lon="-4.842133">
        <ele>1996.0</ele>
        <time>2013-05-11T14:16:08Z</time>
      </trkpt>
      <trkpt lat="40.539250" lon="-4.842233">
        <ele>1995.0</ele>
        <time>2013-05-11T14:16:09Z</time>
      </trkpt>
      <trkpt lat="40.539200" lon="-4.842333">
        <ele>1994.0</ele>
        <time>2013-05-11T14:16:10Z</time>
      </trkpt>
      <trkpt lat="40.539167" lon="-4.842433">
        <ele>1994.0</ele>
        <time>2013-05-11T14:16:11Z</time>
      </trkpt>
      <trkpt lat="40.539133" lon="-4.842533">
        <ele>1995.0</ele>
        <time>2013-05-11T14:16:12Z</time>
      </trkpt>
      <trkpt lat="40.539133" lon="-4.842617">
        <ele>1995.0</ele>
        <time>2013-05-11T14:16:13Z</time>
      </trkpt>
      <trkpt lat="40.539133" lon="-4.842683">
        <ele>1995.0</ele>
        <time>2013-05-11T14:16:14Z</time>
      </trkpt>
      <trkpt lat="40.539150" lon="-4.842733">
        <ele>1995.0</ele>
        <time>2013-05-11T14:16:15Z</time>
      </trkpt>
      <trkpt lat="40.539200" lon="-4.842767">
        <ele>1995.0</ele>
        <time>2013-05-11T14:16:16Z</time>
      </trkpt>
      <trkpt lat="40.539233" lon="-4.842783">
        <ele>1995.0</ele>
        <time>2013-05-11T14:16:17Z</time>
      </trkpt>
      <trkpt lat="40.539283" lon="-4.842783">
        <ele>1995.0</ele>
        <time>2013-05-11T14:16:18Z</time>
      </trkpt>
      <trkpt lat="40.539317" lon="-4.842783">
        <ele>1995.0</ele>
        <time>2013-05-11T14:16:19Z</time>
      </trkpt>
      <trkpt lat="40.539367" lon="-4.842750">
        <ele>1995.0</ele>
        <time>2013-05-11T14:16:20Z</time>
      </trkpt>
      <trkpt lat="40.539417" lon="-4.842683">
        <ele>1995.0</ele>
        <time>2013-05-11T14:16:21Z</time>
      </trkpt>
      <trkpt lat="40.539467" lon="-4.842617">
        <ele>1994.0</ele>
        <time>2013-05-11T14:16:22Z</time>
      </trkpt>
      <trkpt lat="40.539517" lon="-4.842550">
        <ele>1994.0</ele>
        <time>2013-05-11T14:16:23Z</time>
      </trkpt>
      <trkpt lat="40.539550" lon="-4.842467">
        <ele>1995.0</ele>
        <time>2013-05-11T14:16:24Z</time>
      </trkpt>
      <trkpt lat="40.539583" lon="-4.842400">
        <ele>1995.0</ele>
        <time>2013-05-11T14:16:25Z</time>
      </trkpt>
      <trkpt lat="40.539600" lon="-4.842333">
        <ele>1996.0</ele>
        <time>2013-05-11T14:16:26Z</time>
      </trkpt>
      <trkpt lat="40.539633" lon="-4.842250">
        <ele>1995.0</ele>
        <time>2013-05-11T14:16:27Z</time>
      </trkpt>
      <trkpt lat="40.539650" lon="-4.842150">
        <ele>1993.0</ele>
        <time>2013-05-11T14:16:28Z</time>
      </trkpt>
      <trkpt lat="40.539683" lon="-4.842050">
        <ele>1992.0</ele>
        <time>2013-05-11T14:16:29Z</time>
      </trkpt>
      <trkpt lat="40.539717" lon="-4.841950">
        <ele>1992.0</ele>
        <time>2013-05-11T14:16:30Z</time>
      </trkpt>
      <trkpt lat="40.539750" lon="-4.841850">
        <ele>1991.0</ele>
        <time>2013-05-11T14:16:31Z</time>
      </trkpt>
      <trkpt lat="40.539783" lon="-4.841767">
        <ele>1990.0</ele>
        <time>2013-05-11T14:16:32Z</time>
      </trkpt>
      <trkpt lat="40.539833" lon="-4.841667">
        <ele>1989.0</ele>
        <time>2013-05-11T14:16:33Z</time>
      </trkpt>
      <trkpt lat="40.539867" lon="-4.841550">
        <ele>1987.0</ele>
        <time>2013-05-11T14:16:34Z</time>
      </trkpt>
      <trkpt lat="40.539917" lon="-4.841450">
        <ele>1987.0</ele>
        <time>2013-05-11T14:16:35Z</time>
      </trkpt>
      <trkpt lat="40.539933" lon="-4.841367">
        <ele>1988.0</ele>
        <time>2013-05-11T14:16:36Z</time>
      </trkpt>
      <trkpt lat="40.539967" lon="-4.841283">
        <ele>1988.0</ele>
        <time>2013-05-11T14:16:37Z</time>
      </trkpt>
      <trkpt lat="40.540000" lon="-4.841200">
        <ele>1987.0</ele>
        <time>2013-05-11T14:16:38Z</time>
      </trkpt>
      <trkpt lat="40.540050" lon="-4.841117">
        <ele>1985.0</ele>
        <time>2013-05-11T14:16:39Z</time>
      </trkpt>
      <trkpt lat="40.540100" lon="-4.841017">
        <ele>1983.0</ele>
        <time>2013-05-11T14:16:40Z</time>
      </trkpt>
      <trkpt lat="40.540133" lon="-4.840917">
        <ele>1983.0</ele>
        <time>2013-05-11T14:16:41Z</time>
      </trkpt>
      <trkpt lat="40.540167" lon="-4.840817">
        <ele>1982.0</ele>
        <time>2013-05-11T14:16:42Z</time>
      </trkpt>
      <trkpt lat="40.540200" lon="-4.840733">
        <ele>1981.0</ele>
        <time>2013-05-11T14:16:43Z</time>
      </trkpt>
      <trkpt lat="40.540217" lon="-4.840633">
        <ele>1979.0</ele>
        <time>2013-05-11T14:16:44Z</time>
      </trkpt>
      <trkpt lat="40.540250" lon="-4.840550">
        <ele>1976.0</ele>
        <time>2013-05-11T14:16:45Z</time>
      </trkpt>
      <trkpt lat="40.540300" lon="-4.840433">
        <ele>1972.0</ele>
        <time>2013-05-11T14:16:46Z</time>
      </trkpt>
      <trkpt lat="40.540317" lon="-4.840300">
        <ele>1969.0</ele>
        <time>2013-05-11T14:16:47Z</time>
      </trkpt>
      <trkpt lat="40.540350" lon="-4.840150">
        <ele>1968.0</ele>
        <time>2013-05-11T14:16:48Z</time>
      </trkpt>
      <trkpt lat="40.540367" lon="-4.840033">
        <ele>1968.0</ele>
        <time>2013-05-11T14:16:49Z</time>
      </trkpt>
      <trkpt lat="40.540383" lon="-4.839917">
        <ele>1967.0</ele>
        <time>2013-05-11T14:16:50Z</time>
      </trkpt>
      <trkpt lat="40.540417" lon="-4.839817">
        <ele>1967.0</ele>
        <time>2013-05-11T14:16:51Z</time>
      </trkpt>
      <trkpt lat="40.540433" lon="-4.839683">
        <ele>1965.0</ele>
        <time>2013-05-11T14:16:52Z</time>
      </trkpt>
      <trkpt lat="40.540483" lon="-4.839567">
        <ele>1964.0</ele>
        <time>2013-05-11T14:16:53Z</time>
      </trkpt>
      <trkpt lat="40.540517" lon="-4.839467">
        <ele>1965.0</ele>
        <time>2013-05-11T14:16:54Z</time>
      </trkpt>
      <trkpt lat="40.540550" lon="-4.839367">
        <ele>1965.0</ele>
        <time>2013-05-11T14:16:55Z</time>
      </trkpt>
      <trkpt lat="40.540583" lon="-4.839250">
        <ele>1965.0</ele>
        <time>2013-05-11T14:16:56Z</time>
      </trkpt>
      <trkpt lat="40.540617" lon="-4.839150">
        <ele>1965.0</ele>
        <time>2013-05-11T14:16:57Z</time>
      </trkpt>
      <trkpt lat="40.540633" lon="-4.839033">
        <ele>1964.0</ele>
        <time>2013-05-11T14:16:58Z</time>
      </trkpt>
      <trkpt lat="40.540667" lon="-4.838917">
        <ele>1963.0</ele>
        <time>2013-05-11T14:16:59Z</time>
      </trkpt>
      <trkpt lat="40.540700" lon="-4.838817">
        <ele>1960.0</ele>
        <time>2013-05-11T14:17:00Z</time>
      </trkpt>
      <trkpt lat="40.540750" lon="-4.838717">
        <ele>1957.0</ele>
        <time>2013-05-11T14:17:01Z</time>
      </trkpt>
      <trkpt lat="40.540800" lon="-4.838617">
        <ele>1955.0</ele>
        <time>2013-05-11T14:17:02Z</time>
      </trkpt>
      <trkpt lat="40.540850" lon="-4.838517">
        <ele>1954.0</ele>
        <time>2013-05-11T14:17:03Z</time>
      </trkpt>
      <trkpt lat="40.540883" lon="-4.838433">
        <ele>1953.0</ele>
        <time>2013-05-11T14:17:04Z</time>
      </trkpt>
      <trkpt lat="40.540917" lon="-4.838350">
        <ele>1951.0</ele>
        <time>2013-05-11T14:17:05Z</time>
      </trkpt>
      <trkpt lat="40.540950" lon="-4.838283">
        <ele>1948.0</ele>
        <time>2013-05-11T14:17:06Z</time>
      </trkpt>
      <trkpt lat="40.541000" lon="-4.838200">
        <ele>1945.0</ele>
        <time>2013-05-11T14:17:07Z</time>
      </trkpt>
      <trkpt lat="40.541050" lon="-4.838117">
        <ele>1941.0</ele>
        <time>2013-05-11T14:17:08Z</time>
      </trkpt>
      <trkpt lat="40.541117" lon="-4.838017">
        <ele>1939.0</ele>
        <time>2013-05-11T14:17:09Z</time>
      </trkpt>
      <trkpt lat="40.541150" lon="-4.837917">
        <ele>1938.0</ele>
        <time>2013-05-11T14:17:10Z</time>
      </trkpt>
      <trkpt lat="40.541183" lon="-4.837800">
        <ele>1937.0</ele>
        <time>2013-05-11T14:17:11Z</time>
      </trkpt>
      <trkpt lat="40.541233" lon="-4.837700">
        <ele>1935.0</ele>
        <time>2013-05-11T14:17:12Z</time>
      </trkpt>
      <trkpt lat="40.541267" lon="-4.837617">
        <ele>1933.0</ele>
        <time>2013-05-11T14:17:13Z</time>
      </trkpt>
      <trkpt lat="40.541317" lon="-4.837517">
        <ele>1930.0</ele>
        <time>2013-05-11T14:17:14Z</time>
      </trkpt>
      <trkpt lat="40.541383" lon="-4.837400">
        <ele>1927.0</ele>
        <time>2013-05-11T14:17:15Z</time>
      </trkpt>
      <trkpt lat="40.541433" lon="-4.837267">
        <ele>1925.0</ele>
        <time>2013-05-11T14:17:16Z</time>
      </trkpt>
      <trkpt lat="40.541483" lon="-4.837167">
        <ele>1925.0</ele>
        <time>2013-05-11T14:17:17Z</time>
      </trkpt>
      <trkpt lat="40.541533" lon="-4.837067">
        <ele>1926.0</ele>
        <time>2013-05-11T14:17:18Z</time>
      </trkpt>
      <trkpt lat="40.541567" lon="-4.837000">
        <ele>1927.0</ele>
        <time>2013-05-11T14:17:19Z</time>
      </trkpt>
      <trkpt lat="40.541617" lon="-4.836917">
        <ele>1927.0</ele>
        <time>2013-05-11T14:17:20Z</time>
      </trkpt>
      <trkpt lat="40.541667" lon="-4.836817">
        <ele>1926.0</ele>
        <time>2013-05-11T14:17:21Z</time>
      </trkpt>
      <trkpt lat="40.541717" lon="-4.836717">
        <ele>1926.0</ele>
        <time>2013-05-11T14:17:22Z</time>
      </trkpt>
      <trkpt lat="40.541767" lon="-4.836617">
        <ele>1927.0</ele>
        <time>2013-05-11T14:17:23Z</time>
      </trkpt>
      <trkpt lat="40.541800" lon="-4.836517">
        <ele>1929.0</ele>
        <time>2013-05-11T14:17:24Z</time>
      </trkpt>
      <trkpt lat="40.541800" lon="-4.836417">
        <ele>1931.0</ele>
        <time>2013-05-11T14:17:25Z</time>
      </trkpt>
      <trkpt lat="40.541800" lon="-4.836283">
        <ele>1932.0</ele>
        <time>2013-05-11T14:17:26Z</time>
      </trkpt>
      <trkpt lat="40.541783" lon="-4.836167">
        <ele>1933.0</ele>
        <time>2013-05-11T14:17:27Z</time>
      </trkpt>
      <trkpt lat="40.541733" lon="-4.836067">
        <ele>1934.0</ele>
        <time>2013-05-11T14:17:28Z</time>
      </trkpt>
      <trkpt lat="40.541683" lon="-4.835967">
        <ele>1934.0</ele>
        <time>2013-05-11T14:17:29Z</time>
      </trkpt>
      <trkpt lat="40.541617" lon="-4.835867">
        <ele>1934.0</ele>
        <time>2013-05-11T14:17:30Z</time>
      </trkpt>
      <trkpt lat="40.541533" lon="-4.835767">
        <ele>1934.0</ele>
        <time>2013-05-11T14:17:31Z</time>
      </trkpt>
      <trkpt lat="40.541417" lon="-4.835700">
        <ele>1934.0</ele>
        <time>2013-05-11T14:17:32Z</time>
      </trkpt>
      <trkpt lat="40.541300" lon="-4.835650">
        <ele>1936.0</ele>
        <time>2013-05-11T14:17:33Z</time>
      </trkpt>
      <trkpt lat="40.541200" lon="-4.835633">
        <ele>1938.0</ele>
        <time>2013-05-11T14:17:34Z</time>
      </trkpt>
      <trkpt lat="40.541100" lon="-4.835617">
        <ele>1940.0</ele>
        <time>2013-05-11T14:17:35Z</time>
      </trkpt>
      <trkpt lat="40.541000" lon="-4.835617">
        <ele>1941.0</ele>
        <time>2013-05-11T14:17:36Z</time>
      </trkpt>
      <trkpt lat="40.540900" lon="-4.835633">
        <ele>1941.0</ele>
        <time>2013-05-11T14:17:37Z</time>
      </trkpt>
      <trkpt lat="40.540817" lon="-4.835667">
        <ele>1941.0</ele>
        <time>2013-05-11T14:17:38Z</time>
      </trkpt>
      <trkpt lat="40.540750" lon="-4.835717">
        <ele>1941.0</ele>
        <time>2013-05-11T14:17:39Z</time>
      </trkpt>
      <trkpt lat="40.540683" lon="-4.835800">
        <ele>1940.0</ele>
        <time>2013-05-11T14:17:40Z</time>
      </trkpt>
      <trkpt lat="40.540633" lon="-4.835883">
        <ele>1940.0</ele>
        <time>2013-05-11T14:17:41Z</time>
      </trkpt>
      <trkpt lat="40.540633" lon="-4.835967">
        <ele>1940.0</ele>
        <time>2013-05-11T14:17:42Z</time>
      </trkpt>
      <trkpt lat="40.540633" lon="-4.836050">
        <ele>1940.0</ele>
        <time>2013-05-11T14:17:43Z</time>
      </trkpt>
      <trkpt lat="40.540683" lon="-4.836117">
        <ele>1940.0</ele>
        <time>2013-05-11T14:17:44Z</time>
      </trkpt>
      <trkpt lat="40.540733" lon="-4.836167">
        <ele>1941.0</ele>
        <time>2013-05-11T14:17:45Z</time>
      </trkpt>
      <trkpt lat="40.540783" lon="-4.836200">
        <ele>1942.0</ele>
        <time>2013-05-11T14:17:46Z</time>
      </trkpt>
      <trkpt lat="40.540833" lon="-4.836217">
        <ele>1943.0</ele>
        <time>2013-05-11T14:17:47Z</time>
      </trkpt>
      <trkpt lat="40.540883" lon="-4.836233">
        <ele>1944.0</ele>
        <time>2013-05-11T14:17:48Z</time>
      </trkpt>
      <trkpt lat="40.540950" lon="-4.836233">
        <ele>1945.0</ele>
        <time>2013-05-11T14:17:49Z</time>
      </trkpt>
      <trkpt lat="40.541017" lon="-4.836200">
        <ele>1945.0</ele>
        <time>2013-05-11T14:17:50Z</time>
      </trkpt>
      <trkpt lat="40.541100" lon="-4.836150">
        <ele>1946.0</ele>
        <time>2013-05-11T14:17:51Z</time>
      </trkpt>
      <trkpt lat="40.541150" lon="-4.836050">
        <ele>1947.0</ele>
        <time>2013-05-11T14:17:52Z</time>
      </trkpt>
      <trkpt lat="40.541200" lon="-4.835967">
        <ele>1948.0</ele>
        <time>2013-05-11T14:17:53Z</time>
      </trkpt>
      <trkpt lat="40.541217" lon="-4.835867">
        <ele>1950.0</ele>
        <time>2013-05-11T14:17:54Z</time>
      </trkpt>
      <trkpt lat="40.541250" lon="-4.835800">
        <ele>1952.0</ele>
        <time>2013-05-11T14:17:55Z</time>
      </trkpt>
      <trkpt lat="40.541250" lon="-4.835700">
        <ele>1952.0</ele>
        <time>2013-05-11T14:17:56Z</time>
      </trkpt>
      <trkpt lat="40.541267" lon="-4.835600">
        <ele>1951.0</ele>
        <time>2013-05-11T14:17:57Z</time>
      </trkpt>
      <trkpt lat="40.541250" lon="-4.835467">
        <ele>1949.0</ele>
        <time>2013-05-11T14:17:58Z</time>
      </trkpt>
      <trkpt lat="40.541217" lon="-4.835333">
        <ele>1950.0</ele>
        <time>2013-05-11T14:17:59Z</time>
      </trkpt>
      <trkpt lat="40.541183" lon="-4.835200">
        <ele>1952.0</ele>
        <time>2013-05-11T14:18:00Z</time>
      </trkpt>
      <trkpt lat="40.541133" lon="-4.835117">
        <ele>1954.0</ele>
        <time>2013-05-11T14:18:01Z</time>
      </trkpt>
      <trkpt lat="40.541067" lon="-4.835033">
        <ele>1955.0</ele>
        <time>2013-05-11T14:18:02Z</time>
      </trkpt>
      <trkpt lat="40.541000" lon="-4.834950">
        <ele>1954.0</ele>
        <time>2013-05-11T14:18:03Z</time>
      </trkpt>
      <trkpt lat="40.540900" lon="-4.834883">
        <ele>1953.0</ele>
        <time>2013-05-11T14:18:04Z</time>
      </trkpt>
      <trkpt lat="40.540783" lon="-4.834833">
        <ele>1952.0</ele>
        <time>2013-05-11T14:18:05Z</time>
      </trkpt>
      <trkpt lat="40.540650" lon="-4.834817">
        <ele>1951.0</ele>
        <time>2013-05-11T14:18:06Z</time>
      </trkpt>
      <trkpt lat="40.540550" lon="-4.834850">
        <ele>1951.0</ele>
        <time>2013-05-11T14:18:07Z</time>
      </trkpt>
      <trkpt lat="40.540450" lon="-4.834917">
        <ele>1951.0</ele>
        <time>2013-05-11T14:18:08Z</time>
      </trkpt>
      <trkpt lat="40.540367" lon="-4.835000">
        <ele>1951.0</ele>
        <time>2013-05-11T14:18:09Z</time>
      </trkpt>
      <trkpt lat="40.540300" lon="-4.835100">
        <ele>1952.0</ele>
        <time>2013-05-11T14:18:10Z</time>
      </trkpt>
      <trkpt lat="40.540267" lon="-4.835200">
        <ele>1953.0</ele>
        <time>2013-05-11T14:18:11Z</time>
      </trkpt>
      <trkpt lat="40.540233" lon="-4.835300">
        <ele>1953.0</ele>
        <time>2013-05-11T14:18:12Z</time>
      </trkpt>
      <trkpt lat="40.540233" lon="-4.835400">
        <ele>1954.0</ele>
        <time>2013-05-11T14:18:13Z</time>
      </trkpt>
      <trkpt lat="40.540250" lon="-4.835483">
        <ele>1954.0</ele>
        <time>2013-05-11T14:18:14Z</time>
      </trkpt>
      <trkpt lat="40.540283" lon="-4.835567">
        <ele>1955.0</ele>
        <time>2013-05-11T14:18:15Z</time>
      </trkpt>
      <trkpt lat="40.540317" lon="-4.835617">
        <ele>1956.0</ele>
        <time>2013-05-11T14:18:16Z</time>
      </trkpt>
      <trkpt lat="40.540367" lon="-4.835650">
        <ele>1956.0</ele>
        <time>2013-05-11T14:18:17Z</time>
      </trkpt>
      <trkpt lat="40.540433" lon="-4.835650">
        <ele>1956.0</ele>
        <time>2013-05-11T14:18:18Z</time>
      </trkpt>
      <trkpt lat="40.540500" lon="-4.835633">
        <ele>1955.0</ele>
        <time>2013-05-11T14:18:19Z</time>
      </trkpt>
      <trkpt lat="40.540567" lon="-4.835600">
        <ele>1956.0</ele>
        <time>2013-05-11T14:18:20Z</time>
      </trkpt>
      <trkpt lat="40.540633" lon="-4.835533">
        <ele>1958.0</ele>
        <time>2013-05-11T14:18:21Z</time>
      </trkpt>
      <trkpt lat="40.540667" lon="-4.835483">
        <ele>1958.0</ele>
        <time>2013-05-11T14:18:22Z</time>
      </trkpt>
      <trkpt lat="40.540700" lon="-4.835400">
        <ele>1958.0</ele>
        <time>2013-05-11T14:18:23Z</time>
      </trkpt>
      <trkpt lat="40.540733" lon="-4.835317">
        <ele>1957.0</ele>
        <time>2013-05-11T14:18:24Z</time>
      </trkpt>
      <trkpt lat="40.540767" lon="-4.835217">
        <ele>1956.0</ele>
        <time>2013-05-11T14:18:25Z</time>
      </trkpt>
      <trkpt lat="40.540783" lon="-4.835100">
        <ele>1956.0</ele>
        <time>2013-05-11T14:18:26Z</time>
      </trkpt>
      <trkpt lat="40.540783" lon="-4.835000">
        <ele>1956.0</ele>
        <time>2013-05-11T14:18:27Z</time>
      </trkpt>
      <trkpt lat="40.540767" lon="-4.834900">
        <ele>1957.0</ele>
        <time>2013-05-11T14:18:28Z</time>
      </trkpt>
      <trkpt lat="40.540750" lon="-4.834800">
        <ele>1956.0</ele>
        <time>2013-05-11T14:18:29Z</time>
      </trkpt>
      <trkpt lat="40.540733" lon="-4.834700">
        <ele>1954.0</ele>
        <time>2013-05-11T14:18:30Z</time>
      </trkpt>
      <trkpt lat="40.540717" lon="-4.834583">
        <ele>1951.0</ele>
        <time>2013-05-11T14:18:31Z</time>
      </trkpt>
      <trkpt lat="40.540683" lon="-4.834450">
        <ele>1949.0</ele>
        <time>2013-05-11T14:18:32Z</time>
      </trkpt>
      <trkpt lat="40.540633" lon="-4.834317">
        <ele>1948.0</ele>
        <time>2013-05-11T14:18:33Z</time>
      </trkpt>
      <trkpt lat="40.540600" lon="-4.834200">
        <ele>1948.0</ele>
        <time>2013-05-11T14:18:34Z</time>
      </trkpt>
      <trkpt lat="40.540567" lon="-4.834083">
        <ele>1948.0</ele>
        <time>2013-05-11T14:18:35Z</time>
      </trkpt>
      <trkpt lat="40.540567" lon="-4.833983">
        <ele>1946.0</ele>
        <time>2013-05-11T14:18:36Z</time>
      </trkpt>
      <trkpt lat="40.540583" lon="-4.833883">
        <ele>1945.0</ele>
        <time>2013-05-11T14:18:37Z</time>
      </trkpt>
      <trkpt lat="40.540600" lon="-4.833783">
        <ele>1943.0</ele>
        <time>2013-05-11T14:18:38Z</time>
      </trkpt>
      <trkpt lat="40.540633" lon="-4.833683">
        <ele>1941.0</ele>
        <time>2013-05-11T14:18:39Z</time>
      </trkpt>
      <trkpt lat="40.540667" lon="-4.833600">
        <ele>1940.0</ele>
        <time>2013-05-11T14:18:40Z</time>
      </trkpt>
      <trkpt lat="40.540700" lon="-4.833500">
        <ele>1938.0</ele>
        <time>2013-05-11T14:18:41Z</time>
      </trkpt>
      <trkpt lat="40.540733" lon="-4.833417">
        <ele>1936.0</ele>
        <time>2013-05-11T14:18:42Z</time>
      </trkpt>
      <trkpt lat="40.540767" lon="-4.833333">
        <ele>1935.0</ele>
        <time>2013-05-11T14:18:43Z</time>
      </trkpt>
      <trkpt lat="40.540800" lon="-4.833250">
        <ele>1932.0</ele>
        <time>2013-05-11T14:18:44Z</time>
      </trkpt>
      <trkpt lat="40.540850" lon="-4.833167">
        <ele>1930.0</ele>
        <time>2013-05-11T14:18:45Z</time>
      </trkpt>
      <trkpt lat="40.540883" lon="-4.833083">
        <ele>1928.0</ele>
        <time>2013-05-11T14:18:46Z</time>
      </trkpt>
      <trkpt lat="40.540933" lon="-4.833000">
        <ele>1926.0</ele>
        <time>2013-05-11T14:18:47Z</time>
      </trkpt>
      <trkpt lat="40.540983" lon="-4.832933">
        <ele>1925.0</ele>
        <time>2013-05-11T14:18:48Z</time>
      </trkpt>
      <trkpt lat="40.541017" lon="-4.832850">
        <ele>1924.0</ele>
        <time>2013-05-11T14:18:49Z</time>
      </trkpt>
      <trkpt lat="40.541067" lon="-4.832767">
        <ele>1924.0</ele>
        <time>2013-05-11T14:18:50Z</time>
      </trkpt>
      <trkpt lat="40.541100" lon="-4.832667">
        <ele>1924.0</ele>
        <time>2013-05-11T14:18:51Z</time>
      </trkpt>
      <trkpt lat="40.541150" lon="-4.832583">
        <ele>1924.0</ele>
        <time>2013-05-11T14:18:52Z</time>
      </trkpt>
      <trkpt lat="40.541183" lon="-4.832517">
        <ele>1924.0</ele>
        <time>2013-05-11T14:18:53Z</time>
      </trkpt>
      <trkpt lat="40.541233" lon="-4.832433">
        <ele>1924.0</ele>
        <time>2013-05-11T14:18:54Z</time>
      </trkpt>
      <trkpt lat="40.541267" lon="-4.832350">
        <ele>1924.0</ele>
        <time>2013-05-11T14:18:55Z</time>
      </trkpt>
      <trkpt lat="40.541300" lon="-4.832267">
        <ele>1924.0</ele>
        <time>2013-05-11T14:18:56Z</time>
      </trkpt>
      <trkpt lat="40.541350" lon="-4.832183">
        <ele>1923.0</ele>
        <time>2013-05-11T14:18:57Z</time>
      </trkpt>
      <trkpt lat="40.541383" lon="-4.832083">
        <ele>1922.0</ele>
        <time>2013-05-11T14:18:58Z</time>
      </trkpt>
      <trkpt lat="40.541417" lon="-4.832000">
        <ele>1921.0</ele>
        <time>2013-05-11T14:18:59Z</time>
      </trkpt>
      <trkpt lat="40.541467" lon="-4.831917">
        <ele>1921.0</ele>
        <time>2013-05-11T14:19:00Z</time>
      </trkpt>
      <trkpt lat="40.541517" lon="-4.831817">
        <ele>1920.0</ele>
        <time>2013-05-11T14:19:01Z</time>
      </trkpt>
      <trkpt lat="40.541550" lon="-4.831733">
        <ele>1919.0</ele>
        <time>2013-05-11T14:19:02Z</time>
      </trkpt>
      <trkpt lat="40.541600" lon="-4.831633">
        <ele>1919.0</ele>
        <time>2013-05-11T14:19:03Z</time>
      </trkpt>
      <trkpt lat="40.541650" lon="-4.831550">
        <ele>1918.0</ele>
        <time>2013-05-11T14:19:04Z</time>
      </trkpt>
      <trkpt lat="40.541683" lon="-4.831450">
        <ele>1917.0</ele>
        <time>2013-05-11T14:19:05Z</time>
      </trkpt>
      <trkpt lat="40.541733" lon="-4.831350">
        <ele>1917.0</ele>
        <time>2013-05-11T14:19:06Z</time>
      </trkpt>
      <trkpt lat="40.541767" lon="-4.831267">
        <ele>1916.0</ele>
        <time>2013-05-11T14:19:07Z</time>
      </trkpt>
      <trkpt lat="40.541817" lon="-4.831183">
        <ele>1914.0</ele>
        <time>2013-05-11T14:19:08Z</time>
      </trkpt>
      <trkpt lat="40.541850" lon="-4.831100">
        <ele>1913.0</ele>
        <time>2013-05-11T14:19:09Z</time>
      </trkpt>
      <trkpt lat="40.541900" lon="-4.831017">
        <ele>1911.0</ele>
        <time>2013-05-11T14:19:10Z</time>
      </trkpt>
      <trkpt lat="40.541933" lon="-4.830933">
        <ele>1910.0</ele>
        <time>2013-05-11T14:19:11Z</time>
      </trkpt>
      <trkpt lat="40.541983" lon="-4.830850">
        <ele>1909.0</ele>
        <time>2013-05-11T14:19:12Z</time>
      </trkpt>
      <trkpt lat="40.542033" lon="-4.830783">
        <ele>1907.0</ele>
        <time>2013-05-11T14:19:13Z</time>
      </trkpt>
      <trkpt lat="40.542083" lon="-4.830733">
        <ele>1905.0</ele>
        <time>2013-05-11T14:19:14Z</time>
      </trkpt>
      <trkpt lat="40.542133" lon="-4.830667">
        <ele>1904.0</ele>
        <time>2013-05-11T14:19:15Z</time>
      </trkpt>
      <trkpt lat="40.542183" lon="-4.830583">
        <ele>1902.0</ele>
        <time>2013-05-11T14:19:16Z</time>
      </trkpt>
      <trkpt lat="40.542233" lon="-4.830517">
        <ele>1901.0</ele>
        <time>2013-05-11T14:19:17Z</time>
      </trkpt>
      <trkpt lat="40.542267" lon="-4.830450">
        <ele>1899.0</ele>
        <time>2013-05-11T14:19:18Z</time>
      </trkpt>
      <trkpt lat="40.542317" lon="-4.830383">
        <ele>1897.0</ele>
        <time>2013-05-11T14:19:19Z</time>
      </trkpt>
      <trkpt lat="40.542350" lon="-4.830300">
        <ele>1895.0</ele>
        <time>2013-05-11T14:19:20Z</time>
      </trkpt>
      <trkpt lat="40.542400" lon="-4.830200">
        <ele>1892.0</ele>
        <time>2013-05-11T14:19:21Z</time>
      </trkpt>
      <trkpt lat="40.542467" lon="-4.830100">
        <ele>1891.0</ele>
        <time>2013-05-11T14:19:22Z</time>
      </trkpt>
      <trkpt lat="40.542517" lon="-4.830033">
        <ele>1891.0</ele>
        <time>2013-05-11T14:19:23Z</time>
      </trkpt>
      <trkpt lat="40.542567" lon="-4.829983">
        <ele>1891.0</ele>
        <time>2013-05-11T14:19:24Z</time>
      </trkpt>
      <trkpt lat="40.542600" lon="-4.829917">
        <ele>1889.0</ele>
        <time>2013-05-11T14:19:25Z</time>
      </trkpt>
      <trkpt lat="40.542650" lon="-4.829850">
        <ele>1886.0</ele>
        <time>2013-05-11T14:19:26Z</time>
      </trkpt>
      <trkpt lat="40.542700" lon="-4.829767">
        <ele>1883.0</ele>
        <time>2013-05-11T14:19:27Z</time>
      </trkpt>
      <trkpt lat="40.542750" lon="-4.829667">
        <ele>1880.0</ele>
        <time>2013-05-11T14:19:28Z</time>
      </trkpt>
      <trkpt lat="40.542817" lon="-4.829583">
        <ele>1878.0</ele>
        <time>2013-05-11T14:19:29Z</time>
      </trkpt>
      <trkpt lat="40.542867" lon="-4.829500">
        <ele>1877.0</ele>
        <time>2013-05-11T14:19:30Z</time>
      </trkpt>
      <trkpt lat="40.542917" lon="-4.829417">
        <ele>1876.0</ele>
        <time>2013-05-11T14:19:31Z</time>
      </trkpt>
      <trkpt lat="40.542967" lon="-4.829333">
        <ele>1876.0</ele>
        <time>2013-05-11T14:19:32Z</time>
      </trkpt>
      <trkpt lat="40.543017" lon="-4.829250">
        <ele>1875.0</ele>
        <time>2013-05-11T14:19:33Z</time>
      </trkpt>
      <trkpt lat="40.543050" lon="-4.829167">
        <ele>1873.0</ele>
        <time>2013-05-11T14:19:34Z</time>
      </trkpt>
      <trkpt lat="40.543100" lon="-4.829067">
        <ele>1870.0</ele>
        <time>2013-05-11T14:19:35Z</time>
      </trkpt>
      <trkpt lat="40.543150" lon="-4.828967">
        <ele>1868.0</ele>
        <time>2013-05-11T14:19:36Z</time>
      </trkpt>
      <trkpt lat="40.543200" lon="-4.828850">
        <ele>1866.0</ele>
        <time>2013-05-11T14:19:37Z</time>
      </trkpt>
      <trkpt lat="40.543233" lon="-4.828750">
        <ele>1864.0</ele>
        <time>2013-05-11T14:19:38Z</time>
      </trkpt>
      <trkpt lat="40.543267" lon="-4.828667">
        <ele>1861.0</ele>
        <time>2013-05-11T14:19:39Z</time>
      </trkpt>
      <trkpt lat="40.543283" lon="-4.828567">
        <ele>1858.0</ele>
        <time>2013-05-11T14:19:40Z</time>
      </trkpt>
      <trkpt lat="40.543317" lon="-4.828467">
        <ele>1854.0</ele>
        <time>2013-05-11T14:19:41Z</time>
      </trkpt>
      <trkpt lat="40.543350" lon="-4.828367">
        <ele>1850.0</ele>
        <time>2013-05-11T14:19:42Z</time>
      </trkpt>
      <trkpt lat="40.543383" lon="-4.828250">
        <ele>1846.0</ele>
        <time>2013-05-11T14:19:43Z</time>
      </trkpt>
      <trkpt lat="40.543417" lon="-4.828150">
        <ele>1843.0</ele>
        <time>2013-05-11T14:19:44Z</time>
      </trkpt>
      <trkpt lat="40.543467" lon="-4.828067">
        <ele>1841.0</ele>
        <time>2013-05-11T14:19:45Z</time>
      </trkpt>
      <trkpt lat="40.543500" lon="-4.827983">
        <ele>1839.0</ele>
        <time>2013-05-11T14:19:46Z</time>
      </trkpt>
      <trkpt lat="40.543550" lon="-4.827900">
        <ele>1837.0</ele>
        <time>2013-05-11T14:19:47Z</time>
      </trkpt>
      <trkpt lat="40.543600" lon="-4.827817">
        <ele>1834.0</ele>
        <time>2013-05-11T14:19:48Z</time>
      </trkpt>
      <trkpt lat="40.543650" lon="-4.827733">
        <ele>1831.0</ele>
        <time>2013-05-11T14:19:49Z</time>
      </trkpt>
      <trkpt lat="40.543700" lon="-4.827650">
        <ele>1829.0</ele>
        <time>2013-05-11T14:19:50Z</time>
      </trkpt>
      <trkpt lat="40.543767" lon="-4.827567">
        <ele>1828.0</ele>
        <time>2013-05-11T14:19:51Z</time>
      </trkpt>
      <trkpt lat="40.543800" lon="-4.827500">
        <ele>1828.0</ele>
        <time>2013-05-11T14:19:52Z</time>
      </trkpt>
      <trkpt lat="40.543833" lon="-4.827433">
        <ele>1826.0</ele>
        <time>2013-05-11T14:19:53Z</time>
      </trkpt>
      <trkpt lat="40.543850" lon="-4.827350">
        <ele>1824.0</ele>
        <time>2013-05-11T14:19:54Z</time>
      </trkpt>
      <trkpt lat="40.543883" lon="-4.827283">
        <ele>1821.0</ele>
        <time>2013-05-11T14:19:55Z</time>
      </trkpt>
      <trkpt lat="40.543933" lon="-4.827183">
        <ele>1818.0</ele>
        <time>2013-05-11T14:19:56Z</time>
      </trkpt>
      <trkpt lat="40.543967" lon="-4.827100">
        <ele>1816.0</ele>
        <time>2013-05-11T14:19:57Z</time>
      </trkpt>
      <trkpt lat="40.544000" lon="-4.827017">
        <ele>1814.0</ele>
        <time>2013-05-11T14:19:58Z</time>
      </trkpt>
      <trkpt lat="40.544033" lon="-4.826917">
        <ele>1813.0</ele>
        <time>2013-05-11T14:19:59Z</time>
      </trkpt>
      <trkpt lat="40.544067" lon="-4.826833">
        <ele>1813.0</ele>
        <time>2013-05-11T14:20:00Z</time>
      </trkpt>
      <trkpt lat="40.544083" lon="-4.826733">
        <ele>1812.0</ele>
        <time>2013-05-11T14:20:01Z</time>
      </trkpt>
      <trkpt lat="40.544117" lon="-4.826650">
        <ele>1811.0</ele>
        <time>2013-05-11T14:20:02Z</time>
      </trkpt>
      <trkpt lat="40.544150" lon="-4.826583">
        <ele>1810.0</ele>
        <time>2013-05-11T14:20:03Z</time>
      </trkpt>
      <trkpt lat="40.544167" lon="-4.826500">
        <ele>1808.0</ele>
        <time>2013-05-11T14:20:04Z</time>
      </trkpt>
      <trkpt lat="40.544200" lon="-4.826433">
        <ele>1806.0</ele>
        <time>2013-05-11T14:20:05Z</time>
      </trkpt>
      <trkpt lat="40.544217" lon="-4.826350">
        <ele>1804.0</ele>
        <time>2013-05-11T14:20:06Z</time>
      </trkpt>
      <trkpt lat="40.544250" lon="-4.826250">
        <ele>1802.0</ele>
        <time>2013-05-11T14:20:07Z</time>
      </trkpt>
      <trkpt lat="40.544267" lon="-4.826167">
        <ele>1800.0</ele>
        <time>2013-05-11T14:20:08Z</time>
      </trkpt>
      <trkpt lat="40.544300" lon="-4.826083">
        <ele>1798.0</ele>
        <time>2013-05-11T14:20:09Z</time>
      </trkpt>
      <trkpt lat="40.544317" lon="-4.825983">
        <ele>1797.0</ele>
        <time>2013-05-11T14:20:10Z</time>
      </trkpt>
      <trkpt lat="40.544333" lon="-4.825900">
        <ele>1796.0</ele>
        <time>2013-05-11T14:20:11Z</time>
      </trkpt>
      <trkpt lat="40.544333" lon="-4.825800">
        <ele>1794.0</ele>
        <time>2013-05-11T14:20:12Z</time>
      </trkpt>
      <trkpt lat="40.544350" lon="-4.825717">
        <ele>1792.0</ele>
        <time>2013-05-11T14:20:13Z</time>
      </trkpt>
      <trkpt lat="40.544367" lon="-4.825617">
        <ele>1790.0</ele>
        <time>2013-05-11T14:20:14Z</time>
      </trkpt>
      <trkpt lat="40.544383" lon="-4.825517">
        <ele>1789.0</ele>
        <time>2013-05-11T14:20:15Z</time>
      </trkpt>
      <trkpt lat="40.544400" lon="-4.825417">
        <ele>1788.0</ele>
        <time>2013-05-11T14:20:16Z</time>
      </trkpt>
      <trkpt lat="40.544400" lon="-4.825317">
        <ele>1786.0</ele>
        <time>2013-05-11T14:20:17Z</time>
      </trkpt>
      <trkpt lat="40.544417" lon="-4.825217">
        <ele>1785.0</ele>
        <time>2013-05-11T14:20:18Z</time>
      </trkpt>
      <trkpt lat="40.544433" lon="-4.825133">
        <ele>1783.0</ele>
        <time>2013-05-11T14:20:19Z</time>
      </trkpt>
      <trkpt lat="40.544450" lon="-4.825033">
        <ele>1781.0</ele>
        <time>2013-05-11T14:20:20Z</time>
      </trkpt>
      <trkpt lat="40.544467" lon="-4.824933">
        <ele>1780.0</ele>
        <time>2013-05-11T14:20:21Z</time>
      </trkpt>
      <trkpt lat="40.544483" lon="-4.824850">
        <ele>1778.0</ele>
        <time>2013-05-11T14:20:22Z</time>
      </trkpt>
      <trkpt lat="40.544500" lon="-4.824750">
        <ele>1776.0</ele>
        <time>2013-05-11T14:20:23Z</time>
      </trkpt>
      <trkpt lat="40.544517" lon="-4.824667">
        <ele>1774.0</ele>
        <time>2013-05-11T14:20:24Z</time>
      </trkpt>
      <trkpt lat="40.544533" lon="-4.824567">
        <ele>1771.0</ele>
        <time>2013-05-11T14:20:25Z</time>
      </trkpt>
      <trkpt lat="40.544567" lon="-4.824483">
        <ele>1769.0</ele>
        <time>2013-05-11T14:20:26Z</time>
      </trkpt>
      <trkpt lat="40.544583" lon="-4.824383">
        <ele>1767.0</ele>
        <time>2013-05-11T14:20:27Z</time>
      </trkpt>
      <trkpt lat="40.544600" lon="-4.824283">
        <ele>1764.0</ele>
        <time>2013-05-11T14:20:28Z</time>
      </trkpt>
      <trkpt lat="40.544633" lon="-4.824200">
        <ele>1762.0</ele>
        <time>2013-05-11T14:20:29Z</time>
      </trkpt>
      <trkpt lat="40.544667" lon="-4.824117">
        <ele>1760.0</ele>
        <time>2013-05-11T14:20:30Z</time>
      </trkpt>
      <trkpt lat="40.544683" lon="-4.824017">
        <ele>1757.0</ele>
        <time>2013-05-11T14:20:31Z</time>
      </trkpt>
      <trkpt lat="40.544700" lon="-4.823917">
        <ele>1755.0</ele>
        <time>2013-05-11T14:20:32Z</time>
      </trkpt>
      <trkpt lat="40.544717" lon="-4.823817">
        <ele>1753.0</ele>
        <time>2013-05-11T14:20:33Z</time>
      </trkpt>
      <trkpt lat="40.544733" lon="-4.823717">
        <ele>1750.0</ele>
        <time>2013-05-11T14:20:34Z</time>
      </trkpt>
      <trkpt lat="40.544767" lon="-4.823617">
        <ele>1748.0</ele>
        <time>2013-05-11T14:20:35Z</time>
      </trkpt>
      <trkpt lat="40.544800" lon="-4.823517">
        <ele>1746.0</ele>
        <time>2013-05-11T14:20:36Z</time>
      </trkpt>
      <trkpt lat="40.544817" lon="-4.823417">
        <ele>1744.0</ele>
        <time>2013-05-11T14:20:37Z</time>
      </trkpt>
      <trkpt lat="40.544850" lon="-4.823317">
        <ele>1742.0</ele>
        <time>2013-05-11T14:20:38Z</time>
      </trkpt>
      <trkpt lat="40.544867" lon="-4.823217">
        <ele>1739.0</ele>
        <time>2013-05-11T14:20:39Z</time>
      </trkpt>
      <trkpt lat="40.544900" lon="-4.823117">
        <ele>1737.0</ele>
        <time>2013-05-11T14:20:40Z</time>
      </trkpt>
      <trkpt lat="40.544933" lon="-4.823017">
        <ele>1734.0</ele>
        <time>2013-05-11T14:20:41Z</time>
      </trkpt>
      <trkpt lat="40.544950" lon="-4.822917">
        <ele>1732.0</ele>
        <time>2013-05-11T14:20:42Z</time>
      </trkpt>
      <trkpt lat="40.544967" lon="-4.822833">
        <ele>1730.0</ele>
        <time>2013-05-11T14:20:43Z</time>
      </trkpt>
      <trkpt lat="40.545000" lon="-4.822733">
        <ele>1729.0</ele>
        <time>2013-05-11T14:20:44Z</time>
      </trkpt>
      <trkpt lat="40.545033" lon="-4.822650">
        <ele>1727.0</ele>
        <time>2013-05-11T14:20:45Z</time>
      </trkpt>
      <trkpt lat="40.545050" lon="-4.822550">
        <ele>1725.0</ele>
        <time>2013-05-11T14:20:46Z</time>
      </trkpt>
      <trkpt lat="40.545067" lon="-4.822467">
        <ele>1723.0</ele>
        <time>2013-05-11T14:20:47Z</time>
      </trkpt>
      <trkpt lat="40.545100" lon="-4.822383">
        <ele>1721.0</ele>
        <time>2013-05-11T14:20:48Z</time>
      </trkpt>
      <trkpt lat="40.545133" lon="-4.822300">
        <ele>1719.0</ele>
        <time>2013-05-11T14:20:49Z</time>
      </trkpt>
      <trkpt lat="40.545150" lon="-4.822217">
        <ele>1716.0</ele>
        <time>2013-05-11T14:20:50Z</time>
      </trkpt>
      <trkpt lat="40.545183" lon="-4.822117">
        <ele>1714.0</ele>
        <time>2013-05-11T14:20:51Z</time>
      </trkpt>
      <trkpt lat="40.545217" lon="-4.822033">
        <ele>1712.0</ele>
        <time>2013-05-11T14:20:52Z</time>
      </trkpt>
      <trkpt lat="40.545250" lon="-4.821950">
        <ele>1710.0</ele>
        <time>2013-05-11T14:20:53Z</time>
      </trkpt>
      <trkpt lat="40.545267" lon="-4.821867">
        <ele>1708.0</ele>
        <time>2013-05-11T14:20:54Z</time>
      </trkpt>
      <trkpt lat="40.545300" lon="-4.821783">
        <ele>1706.0</ele>
        <time>2013-05-11T14:20:55Z</time>
      </trkpt>
      <trkpt lat="40.545333" lon="-4.821700">
        <ele>1703.0</ele>
        <time>2013-05-11T14:20:56Z</time>
      </trkpt>
      <trkpt lat="40.545350" lon="-4.821600">
        <ele>1700.0</ele>
        <time>2013-05-11T14:20:57Z</time>
      </trkpt>
      <trkpt lat="40.545383" lon="-4.821500">
        <ele>1697.0</ele>
        <time>2013-05-11T14:20:58Z</time>
      </trkpt>
      <trkpt lat="40.545417" lon="-4.821400">
        <ele>1695.0</ele>
        <time>2013-05-11T14:20:59Z</time>
      </trkpt>
      <trkpt lat="40.545433" lon="-4.821317">
        <ele>1693.0</ele>
        <time>2013-05-11T14:21:00Z</time>
      </trkpt>
      <trkpt lat="40.545450" lon="-4.821217">
        <ele>1691.0</ele>
        <time>2013-05-11T14:21:01Z</time>
      </trkpt>
      <trkpt lat="40.545467" lon="-4.821133">
        <ele>1689.0</ele>
        <time>2013-05-11T14:21:02Z</time>
      </trkpt>
      <trkpt lat="40.545483" lon="-4.821050">
        <ele>1687.0</ele>
        <time>2013-05-11T14:21:03Z</time>
      </trkpt>
      <trkpt lat="40.545500" lon="-4.820967">
        <ele>1684.0</ele>
        <time>2013-05-11T14:21:04Z</time>
      </trkpt>
      <trkpt lat="40.545533" lon="-4.820867">
        <ele>1681.0</ele>
        <time>2013-05-11T14:21:05Z</time>
      </trkpt>
      <trkpt lat="40.545550" lon="-4.820767">
        <ele>1679.0</ele>
        <time>2013-05-11T14:21:06Z</time>
      </trkpt>
      <trkpt lat="40.545550" lon="-4.820667">
        <ele>1678.0</ele>
        <time>2013-05-11T14:21:07Z</time>
      </trkpt>
      <trkpt lat="40.545567" lon="-4.820567">
        <ele>1676.0</ele>
        <time>2013-05-11T14:21:08Z</time>
      </trkpt>
      <trkpt lat="40.545583" lon="-4.820483">
        <ele>1675.0</ele>
        <time>2013-05-11T14:21:09Z</time>
      </trkpt>
      <trkpt lat="40.545583" lon="-4.820417">
        <ele>1672.0</ele>
        <time>2013-05-11T14:21:10Z</time>
      </trkpt>
      <trkpt lat="40.545600" lon="-4.820333">
        <ele>1669.0</ele>
        <time>2013-05-11T14:21:11Z</time>
      </trkpt>
      <trkpt lat="40.545617" lon="-4.820267">
        <ele>1666.0</ele>
        <time>2013-05-11T14:21:12Z</time>
      </trkpt>
      <trkpt lat="40.545633" lon="-4.820167">
        <ele>1663.0</ele>
        <time>2013-05-11T14:21:13Z</time>
      </trkpt>
      <trkpt lat="40.545650" lon="-4.820083">
        <ele>1660.0</ele>
        <time>2013-05-11T14:21:14Z</time>
      </trkpt>
      <trkpt lat="40.545650" lon="-4.820000">
        <ele>1658.0</ele>
        <time>2013-05-11T14:21:15Z</time>
      </trkpt>
      <trkpt lat="40.545650" lon="-4.819917">
        <ele>1655.0</ele>
        <time>2013-05-11T14:21:16Z</time>
      </trkpt>
      <trkpt lat="40.545683" lon="-4.819833">
        <ele>1651.0</ele>
        <time>2013-05-11T14:21:17Z</time>
      </trkpt>
      <trkpt lat="40.545700" lon="-4.819767">
        <ele>1648.0</ele>
        <time>2013-05-11T14:21:18Z</time>
      </trkpt>
      <trkpt lat="40.545733" lon="-4.819683">
        <ele>1645.0</ele>
        <time>2013-05-11T14:21:19Z</time>
      </trkpt>
      <trkpt lat="40.545750" lon="-4.819600">
        <ele>1642.0</ele>
        <time>2013-05-11T14:21:20Z</time>
      </trkpt>
      <trkpt lat="40.545767" lon="-4.819517">
        <ele>1639.0</ele>
        <time>2013-05-11T14:21:21Z</time>
      </trkpt>
      <trkpt lat="40.545800" lon="-4.819433">
        <ele>1636.0</ele>
        <time>2013-05-11T14:21:22Z</time>
      </trkpt>
      <trkpt lat="40.545833" lon="-4.819367">
        <ele>1633.0</ele>
        <time>2013-05-11T14:21:23Z</time>
      </trkpt>
      <trkpt lat="40.545867" lon="-4.819300">
        <ele>1630.0</ele>
        <time>2013-05-11T14:21:24Z</time>
      </trkpt>
      <trkpt lat="40.545900" lon="-4.819233">
        <ele>1627.0</ele>
        <time>2013-05-11T14:21:25Z</time>
      </trkpt>
      <trkpt lat="40.545933" lon="-4.819167">
        <ele>1624.0</ele>
        <time>2013-05-11T14:21:26Z</time>
      </trkpt>
      <trkpt lat="40.545967" lon="-4.819100">
        <ele>1621.0</ele>
        <time>2013-05-11T14:21:27Z</time>
      </trkpt>
      <trkpt lat="40.546000" lon="-4.819017">
        <ele>1618.0</ele>
        <time>2013-05-11T14:21:28Z</time>
      </trkpt>
      <trkpt lat="40.546050" lon="-4.818933">
        <ele>1615.0</ele>
        <time>2013-05-11T14:21:29Z</time>
      </trkpt>
      <trkpt lat="40.546083" lon="-4.818833">
        <ele>1612.0</ele>
        <time>2013-05-11T14:21:30Z</time>
      </trkpt>
      <trkpt lat="40.546100" lon="-4.818733">
        <ele>1609.0</ele>
        <time>2013-05-11T14:21:31Z</time>
      </trkpt>
      <trkpt lat="40.546117" lon="-4.818600">
        <ele>1606.0</ele>
        <time>2013-05-11T14:21:32Z</time>
      </trkpt>
      <trkpt lat="40.546117" lon="-4.818500">
        <ele>1603.0</ele>
        <time>2013-05-11T14:21:33Z</time>
      </trkpt>
      <trkpt lat="40.546133" lon="-4.818400">
        <ele>1601.0</ele>
        <time>2013-05-11T14:21:34Z</time>
      </trkpt>
      <trkpt lat="40.546133" lon="-4.818300">
        <ele>1597.0</ele>
        <time>2013-05-11T14:21:35Z</time>
      </trkpt>
      <trkpt lat="40.546167" lon="-4.818200">
        <ele>1593.0</ele>
        <time>2013-05-11T14:21:36Z</time>
      </trkpt>
      <trkpt lat="40.546200" lon="-4.818117">
        <ele>1589.0</ele>
        <time>2013-05-11T14:21:37Z</time>
      </trkpt>
      <trkpt lat="40.546233" lon="-4.818033">
        <ele>1586.0</ele>
        <time>2013-05-11T14:21:38Z</time>
      </trkpt>
      <trkpt lat="40.546267" lon="-4.817967">
        <ele>1583.0</ele>
        <time>2013-05-11T14:21:39Z</time>
      </trkpt>
      <trkpt lat="40.546317" lon="-4.817917">
        <ele>1579.0</ele>
        <time>2013-05-11T14:21:40Z</time>
      </trkpt>
      <trkpt lat="40.546367" lon="-4.817883">
        <ele>1575.0</ele>
        <time>2013-05-11T14:21:41Z</time>
      </trkpt>
      <trkpt lat="40.546417" lon="-4.817833">
        <ele>1570.0</ele>
        <time>2013-05-11T14:21:42Z</time>
      </trkpt>
      <trkpt lat="40.546483" lon="-4.817800">
        <ele>1566.0</ele>
        <time>2013-05-11T14:21:43Z</time>
      </trkpt>
      <trkpt lat="40.546550" lon="-4.817750">
        <ele>1562.0</ele>
        <time>2013-05-11T14:21:44Z</time>
      </trkpt>
      <trkpt lat="40.546617" lon="-4.817733">
        <ele>1560.0</ele>
        <time>2013-05-11T14:21:45Z</time>
      </trkpt>
      <trkpt lat="40.546683" lon="-4.817717">
        <ele>1559.0</ele>
        <time>2013-05-11T14:21:46Z</time>
      </trkpt>
      <trkpt lat="40.546750" lon="-4.817700">
        <ele>1559.0</ele>
        <time>2013-05-11T14:21:47Z</time>
      </trkpt>
      <trkpt lat="40.546800" lon="-4.817667">
        <ele>1560.0</ele>
        <time>2013-05-11T14:21:48Z</time>
      </trkpt>
      <trkpt lat="40.546833" lon="-4.817650">
        <ele>1560.0</ele>
        <time>2013-05-11T14:21:49Z</time>
      </trkpt>
      <trkpt lat="40.546883" lon="-4.817650">
        <ele>1560.0</ele>
        <time>2013-05-11T14:21:50Z</time>
      </trkpt>
      <trkpt lat="40.546933" lon="-4.817650">
        <ele>1559.0</ele>
        <time>2013-05-11T14:21:51Z</time>
      </trkpt>
      <trkpt lat="40.546983" lon="-4.817683">
        <ele>1558.0</ele>
        <time>2013-05-11T14:21:52Z</time>
      </trkpt>
      <trkpt lat="40.547050" lon="-4.817700">
        <ele>1557.0</ele>
        <time>2013-05-11T14:21:53Z</time>
      </trkpt>
      <trkpt lat="40.547100" lon="-4.817733">
        <ele>1557.0</ele>
        <time>2013-05-11T14:21:54Z</time>
      </trkpt>
      <trkpt lat="40.547150" lon="-4.817750">
        <ele>1556.0</ele>
        <time>2013-05-11T14:21:55Z</time>
      </trkpt>
      <trkpt lat="40.547183" lon="-4.817783">
        <ele>1555.0</ele>
        <time>2013-05-11T14:21:56Z</time>
      </trkpt>
      <trkpt lat="40.547233" lon="-4.817800">
        <ele>1553.0</ele>
        <time>2013-05-11T14:21:57Z</time>
      </trkpt>
      <trkpt lat="40.547283" lon="-4.817817">
        <ele>1551.0</ele>
        <time>2013-05-11T14:21:58Z</time>
      </trkpt>
      <trkpt lat="40.547333" lon="-4.817850">
        <ele>1548.0</ele>
        <time>2013-05-11T14:21:59Z</time>
      </trkpt>
      <trkpt lat="40.547400" lon="-4.817867">
        <ele>1546.0</ele>
        <time>2013-05-11T14:22:00Z</time>
      </trkpt>
      <trkpt lat="40.547467" lon="-4.817883">
        <ele>1545.0</ele>
        <time>2013-05-11T14:22:01Z</time>
      </trkpt>
      <trkpt lat="40.547517" lon="-4.817917">
        <ele>1544.0</ele>
        <time>2013-05-11T14:22:02Z</time>
      </trkpt>
      <trkpt lat="40.547567" lon="-4.817950">
        <ele>1544.0</ele>
        <time>2013-05-11T14:22:03Z</time>
      </trkpt>
      <trkpt lat="40.547617" lon="-4.817967">
        <ele>1543.0</ele>
        <time>2013-05-11T14:22:04Z</time>
      </trkpt>
      <trkpt lat="40.547683" lon="-4.818000">
        <ele>1543.0</ele>
        <time>2013-05-11T14:22:05Z</time>
      </trkpt>
      <trkpt lat="40.547750" lon="-4.818017">
        <ele>1542.0</ele>
        <time>2013-05-11T14:22:06Z</time>
      </trkpt>
      <trkpt lat="40.547817" lon="-4.818033">
        <ele>1543.0</ele>
        <time>2013-05-11T14:22:07Z</time>
      </trkpt>
      <trkpt lat="40.547867" lon="-4.818050">
        <ele>1543.0</ele>
        <time>2013-05-11T14:22:08Z</time>
      </trkpt>
      <trkpt lat="40.547917" lon="-4.818067">
        <ele>1543.0</ele>
        <time>2013-05-11T14:22:09Z</time>
      </trkpt>
      <trkpt lat="40.547983" lon="-4.818083">
        <ele>1542.0</ele>
        <time>2013-05-11T14:22:10Z</time>
      </trkpt>
      <trkpt lat="40.548050" lon="-4.818100">
        <ele>1540.0</ele>
        <time>2013-05-11T14:22:11Z</time>
      </trkpt>
      <trkpt lat="40.548117" lon="-4.818100">
        <ele>1540.0</ele>
        <time>2013-05-11T14:22:12Z</time>
      </trkpt>
      <trkpt lat="40.548183" lon="-4.818083">
        <ele>1540.0</ele>
        <time>2013-05-11T14:22:13Z</time>
      </trkpt>
      <trkpt lat="40.548250" lon="-4.818083">
        <ele>1541.0</ele>
        <time>2013-05-11T14:22:14Z</time>
      </trkpt>
      <trkpt lat="40.548300" lon="-4.818100">
        <ele>1541.0</ele>
        <time>2013-05-11T14:22:15Z</time>
      </trkpt>
      <trkpt lat="40.548350" lon="-4.818117">
        <ele>1539.0</ele>
        <time>2013-05-11T14:22:16Z</time>
      </trkpt>
      <trkpt lat="40.548400" lon="-4.818117">
        <ele>1537.0</ele>
        <time>2013-05-11T14:22:17Z</time>
      </trkpt>
      <trkpt lat="40.548467" lon="-4.818117">
        <ele>1534.0</ele>
        <time>2013-05-11T14:22:18Z</time>
      </trkpt>
      <trkpt lat="40.548533" lon="-4.818117">
        <ele>1532.0</ele>
        <time>2013-05-11T14:22:19Z</time>
      </trkpt>
      <trkpt lat="40.548600" lon="-4.818117">
        <ele>1531.0</ele>
        <time>2013-05-11T14:22:20Z</time>
      </trkpt>
      <trkpt lat="40.548667" lon="-4.818133">
        <ele>1530.0</ele>
        <time>2013-05-11T14:22:21Z</time>
      </trkpt>
      <trkpt lat="40.548717" lon="-4.818167">
        <ele>1530.0</ele>
        <time>2013-05-11T14:22:22Z</time>
      </trkpt>
      <trkpt lat="40.548750" lon="-4.818200">
        <ele>1530.0</ele>
        <time>2013-05-11T14:22:23Z</time>
      </trkpt>
      <trkpt lat="40.548800" lon="-4.818217">
        <ele>1529.0</ele>
        <time>2013-05-11T14:22:24Z</time>
      </trkpt>
      <trkpt lat="40.548833" lon="-4.818233">
        <ele>1527.0</ele>
        <time>2013-05-11T14:22:25Z</time>
      </trkpt>
      <trkpt lat="40.548883" lon="-4.818250">
        <ele>1525.0</ele>
        <time>2013-05-11T14:22:26Z</time>
      </trkpt>
      <trkpt lat="40.548950" lon="-4.818267">
        <ele>1522.0</ele>
        <time>2013-05-11T14:22:27Z</time>
      </trkpt>
      <trkpt lat="40.549017" lon="-4.818283">
        <ele>1520.0</ele>
        <time>2013-05-11T14:22:28Z</time>
      </trkpt>
      <trkpt lat="40.549067" lon="-4.818317">
        <ele>1518.0</ele>
        <time>2013-05-11T14:22:29Z</time>
      </trkpt>
      <trkpt lat="40.549117" lon="-4.818333">
        <ele>1517.0</ele>
        <time>2013-05-11T14:22:30Z</time>
      </trkpt>
      <trkpt lat="40.549167" lon="-4.818367">
        <ele>1514.0</ele>
        <time>2013-05-11T14:22:31Z</time>
      </trkpt>
      <trkpt lat="40.549233" lon="-4.818367">
        <ele>1512.0</ele>
        <time>2013-05-11T14:22:32Z</time>
      </trkpt>
      <trkpt lat="40.549283" lon="-4.818383">
        <ele>1508.0</ele>
        <time>2013-05-11T14:22:33Z</time>
      </trkpt>
      <trkpt lat="40.549367" lon="-4.818383">
        <ele>1505.0</ele>
        <time>2013-05-11T14:22:34Z</time>
      </trkpt>
      <trkpt lat="40.549450" lon="-4.818417">
        <ele>1504.0</ele>
        <time>2013-05-11T14:22:35Z</time>
      </trkpt>
      <trkpt lat="40.549533" lon="-4.818433">
        <ele>1504.0</ele>
        <time>2013-05-11T14:22:36Z</time>
      </trkpt>
      <trkpt lat="40.549600" lon="-4.818450">
        <ele>1505.0</ele>
        <time>2013-05-11T14:22:37Z</time>
      </trkpt>
      <trkpt lat="40.549650" lon="-4.818450">
        <ele>1506.0</ele>
        <time>2013-05-11T14:22:38Z</time>
      </trkpt>
      <trkpt lat="40.549700" lon="-4.818467">
        <ele>1505.0</ele>
        <time>2013-05-11T14:22:39Z</time>
      </trkpt>
      <trkpt lat="40.549733" lon="-4.818483">
        <ele>1503.0</ele>
        <time>2013-05-11T14:22:40Z</time>
      </trkpt>
      <trkpt lat="40.549783" lon="-4.818483">
        <ele>1500.0</ele>
        <time>2013-05-11T14:22:41Z</time>
      </trkpt>
      <trkpt lat="40.549833" lon="-4.818500">
        <ele>1498.0</ele>
        <time>2013-05-11T14:22:42Z</time>
      </trkpt>
      <trkpt lat="40.549900" lon="-4.818517">
        <ele>1495.0</ele>
        <time>2013-05-11T14:22:43Z</time>
      </trkpt>
      <trkpt lat="40.549950" lon="-4.818533">
        <ele>1492.0</ele>
        <time>2013-05-11T14:22:44Z</time>
      </trkpt>
      <trkpt lat="40.550017" lon="-4.818567">
        <ele>1490.0</ele>
        <time>2013-05-11T14:22:45Z</time>
      </trkpt>
      <trkpt lat="40.550083" lon="-4.818583">
        <ele>1488.0</ele>
        <time>2013-05-11T14:22:46Z</time>
      </trkpt>
      <trkpt lat="40.550150" lon="-4.818600">
        <ele>1487.0</ele>
        <time>2013-05-11T14:22:47Z</time>
      </trkpt>
      <trkpt lat="40.550200" lon="-4.818617">
        <ele>1486.0</ele>
        <time>2013-05-11T14:22:48Z</time>
      </trkpt>
      <trkpt lat="40.550233" lon="-4.818633">
        <ele>1486.0</ele>
        <time>2013-05-11T14:22:49Z</time>
      </trkpt>
      <trkpt lat="40.550267" lon="-4.818683">
        <ele>1484.0</ele>
        <time>2013-05-11T14:22:50Z</time>
      </trkpt>
      <trkpt lat="40.550300" lon="-4.818750">
        <ele>1482.0</ele>
        <time>2013-05-11T14:22:51Z</time>
      </trkpt>
      <trkpt lat="40.550350" lon="-4.818817">
        <ele>1480.0</ele>
        <time>2013-05-11T14:22:52Z</time>
      </trkpt>
      <trkpt lat="40.550400" lon="-4.818867">
        <ele>1480.0</ele>
        <time>2013-05-11T14:22:53Z</time>
      </trkpt>
      <trkpt lat="40.550450" lon="-4.818933">
        <ele>1481.0</ele>
        <time>2013-05-11T14:22:54Z</time>
      </trkpt>
      <trkpt lat="40.550500" lon="-4.818983">
        <ele>1482.0</ele>
        <time>2013-05-11T14:22:55Z</time>
      </trkpt>
      <trkpt lat="40.550517" lon="-4.819033">
        <ele>1482.0</ele>
        <time>2013-05-11T14:22:56Z</time>
      </trkpt>
      <trkpt lat="40.550567" lon="-4.819083">
        <ele>1481.0</ele>
        <time>2013-05-11T14:22:57Z</time>
      </trkpt>
      <trkpt lat="40.550617" lon="-4.819133">
        <ele>1480.0</ele>
        <time>2013-05-11T14:22:58Z</time>
      </trkpt>
      <trkpt lat="40.550667" lon="-4.819183">
        <ele>1479.0</ele>
        <time>2013-05-11T14:22:59Z</time>
      </trkpt>
      <trkpt lat="40.550717" lon="-4.819217">
        <ele>1479.0</ele>
        <time>2013-05-11T14:23:00Z</time>
      </trkpt>
      <trkpt lat="40.550750" lon="-4.819267">
        <ele>1479.0</ele>
        <time>2013-05-11T14:23:01Z</time>
      </trkpt>
      <trkpt lat="40.550800" lon="-4.819300">
        <ele>1478.0</ele>
        <time>2013-05-11T14:23:02Z</time>
      </trkpt>
      <trkpt lat="40.550833" lon="-4.819350">
        <ele>1477.0</ele>
        <time>2013-05-11T14:23:03Z</time>
      </trkpt>
      <trkpt lat="40.550867" lon="-4.819400">
        <ele>1475.0</ele>
        <time>2013-05-11T14:23:04Z</time>
      </trkpt>
      <trkpt lat="40.550900" lon="-4.819450">
        <ele>1474.0</ele>
        <time>2013-05-11T14:23:05Z</time>
      </trkpt>
      <trkpt lat="40.550933" lon="-4.819500">
        <ele>1473.0</ele>
        <time>2013-05-11T14:23:06Z</time>
      </trkpt>
      <trkpt lat="40.550967" lon="-4.819550">
        <ele>1472.0</ele>
        <time>2013-05-11T14:23:07Z</time>
      </trkpt>
      <trkpt lat="40.551017" lon="-4.819600">
        <ele>1470.0</ele>
        <time>2013-05-11T14:23:08Z</time>
      </trkpt>
      <trkpt lat="40.551067" lon="-4.819633">
        <ele>1468.0</ele>
        <time>2013-05-11T14:23:09Z</time>
      </trkpt>
      <trkpt lat="40.551117" lon="-4.819667">
        <ele>1466.0</ele>
        <time>2013-05-11T14:23:10Z</time>
      </trkpt>
      <trkpt lat="40.551167" lon="-4.819700">
        <ele>1465.0</ele>
        <time>2013-05-11T14:23:11Z</time>
      </trkpt>
      <trkpt lat="40.551217" lon="-4.819733">
        <ele>1465.0</ele>
        <time>2013-05-11T14:23:12Z</time>
      </trkpt>
      <trkpt lat="40.551250" lon="-4.819783">
        <ele>1465.0</ele>
        <time>2013-05-11T14:23:13Z</time>
      </trkpt>
      <trkpt lat="40.551283" lon="-4.819833">
        <ele>1465.0</ele>
        <time>2013-05-11T14:23:14Z</time>
      </trkpt>
      <trkpt lat="40.551300" lon="-4.819900">
        <ele>1464.0</ele>
        <time>2013-05-11T14:23:15Z</time>
      </trkpt>
      <trkpt lat="40.551333" lon="-4.819967">
        <ele>1463.0</ele>
        <time>2013-05-11T14:23:16Z</time>
      </trkpt>
      <trkpt lat="40.551383" lon="-4.820033">
        <ele>1461.0</ele>
        <time>2013-05-11T14:23:17Z</time>
      </trkpt>
      <trkpt lat="40.551417" lon="-4.820117">
        <ele>1460.0</ele>
        <time>2013-05-11T14:23:18Z</time>
      </trkpt>
      <trkpt lat="40.551467" lon="-4.820183">
        <ele>1459.0</ele>
        <time>2013-05-11T14:23:19Z</time>
      </trkpt>
      <trkpt lat="40.551500" lon="-4.820250">
        <ele>1459.0</ele>
        <time>2013-05-11T14:23:20Z</time>
      </trkpt>
      <trkpt lat="40.551550" lon="-4.820317">
        <ele>1458.0</ele>
        <time>2013-05-11T14:23:21Z</time>
      </trkpt>
      <trkpt lat="40.551583" lon="-4.820383">
        <ele>1458.0</ele>
        <time>2013-05-11T14:23:22Z</time>
      </trkpt>
      <trkpt lat="40.551617" lon="-4.820433">
        <ele>1457.0</ele>
        <time>2013-05-11T14:23:23Z</time>
      </trkpt>
      <trkpt lat="40.551650" lon="-4.820483">
        <ele>1455.0</ele>
        <time>2013-05-11T14:23:24Z</time>
      </trkpt>
      <trkpt lat="40.551700" lon="-4.820533">
        <ele>1453.0</ele>
        <time>2013-05-11T14:23:25Z</time>
      </trkpt>
      <trkpt lat="40.551767" lon="-4.820567">
        <ele>1452.0</ele>
        <time>2013-05-11T14:23:26Z</time>
      </trkpt>
      <trkpt lat="40.551817" lon="-4.820600">
        <ele>1451.0</ele>
        <time>2013-05-11T14:23:27Z</time>
      </trkpt>
      <trkpt lat="40.551867" lon="-4.820617">
        <ele>1450.0</ele>
        <time>2013-05-11T14:23:28Z</time>
      </trkpt>
      <trkpt lat="40.551933" lon="-4.820617">
        <ele>1449.0</ele>
        <time>2013-05-11T14:23:29Z</time>
      </trkpt>
      <trkpt lat="40.551983" lon="-4.820617">
        <ele>1448.0</ele>
        <time>2013-05-11T14:23:30Z</time>
      </trkpt>
      <trkpt lat="40.552033" lon="-4.820633">
        <ele>1447.0</ele>
        <time>2013-05-11T14:23:31Z</time>
      </trkpt>
      <trkpt lat="40.552083" lon="-4.820633">
        <ele>1445.0</ele>
        <time>2013-05-11T14:23:32Z</time>
      </trkpt>
      <trkpt lat="40.552133" lon="-4.820633">
        <ele>1443.0</ele>
        <time>2013-05-11T14:23:33Z</time>
      </trkpt>
      <trkpt lat="40.552200" lon="-4.820617">
        <ele>1442.0</ele>
        <time>2013-05-11T14:23:34Z</time>
      </trkpt>
      <trkpt lat="40.552250" lon="-4.820617">
        <ele>1440.0</ele>
        <time>2013-05-11T14:23:35Z</time>
      </trkpt>
      <trkpt lat="40.552300" lon="-4.820600">
        <ele>1439.0</ele>
        <time>2013-05-11T14:23:36Z</time>
      </trkpt>
      <trkpt lat="40.552350" lon="-4.820600">
        <ele>1437.0</ele>
        <time>2013-05-11T14:23:37Z</time>
      </trkpt>
      <trkpt lat="40.552400" lon="-4.820600">
        <ele>1436.0</ele>
        <time>2013-05-11T14:23:38Z</time>
      </trkpt>
      <trkpt lat="40.552433" lon="-4.820617">
        <ele>1434.0</ele>
        <time>2013-05-11T14:23:39Z</time>
      </trkpt>
      <trkpt lat="40.552500" lon="-4.820633">
        <ele>1432.0</ele>
        <time>2013-05-11T14:23:40Z</time>
      </trkpt>
      <trkpt lat="40.552550" lon="-4.820667">
        <ele>1431.0</ele>
        <time>2013-05-11T14:23:41Z</time>
      </trkpt>
      <trkpt lat="40.552600" lon="-4.820667">
        <ele>1429.0</ele>
        <time>2013-05-11T14:23:42Z</time>
      </trkpt>
      <trkpt lat="40.552667" lon="-4.820683">
        <ele>1427.0</ele>
        <time>2013-05-11T14:23:43Z</time>
      </trkpt>
      <trkpt lat="40.552717" lon="-4.820683">
        <ele>1426.0</ele>
        <time>2013-05-11T14:23:44Z</time>
      </trkpt>
      <trkpt lat="40.552767" lon="-4.820683">
        <ele>1424.0</ele>
        <time>2013-05-11T14:23:45Z</time>
      </trkpt>
      <trkpt lat="40.552833" lon="-4.820683">
        <ele>1421.0</ele>
        <time>2013-05-11T14:23:46Z</time>
      </trkpt>
      <trkpt lat="40.552883" lon="-4.820683">
        <ele>1419.0</ele>
        <time>2013-05-11T14:23:47Z</time>
      </trkpt>
      <trkpt lat="40.552933" lon="-4.820683">
        <ele>1417.0</ele>
        <time>2013-05-11T14:23:48Z</time>
      </trkpt>
      <trkpt lat="40.553000" lon="-4.820667">
        <ele>1414.0</ele>
        <time>2013-05-11T14:23:49Z</time>
      </trkpt>
      <trkpt lat="40.553050" lon="-4.820667">
        <ele>1412.0</ele>
        <time>2013-05-11T14:23:50Z</time>
      </trkpt>
      <trkpt lat="40.553100" lon="-4.820667">
        <ele>1410.0</ele>
        <time>2013-05-11T14:23:51Z</time>
      </trkpt>
      <trkpt lat="40.553150" lon="-4.820683">
        <ele>1408.0</ele>
        <time>2013-05-11T14:23:52Z</time>
      </trkpt>
      <trkpt lat="40.553200" lon="-4.820683">
        <ele>1405.0</ele>
        <time>2013-05-11T14:23:53Z</time>
      </trkpt>
      <trkpt lat="40.553250" lon="-4.820717">
        <ele>1403.0</ele>
        <time>2013-05-11T14:23:54Z</time>
      </trkpt>
      <trkpt lat="40.553317" lon="-4.820750">
        <ele>1400.0</ele>
        <time>2013-05-11T14:23:55Z</time>
      </trkpt>
      <trkpt lat="40.553367" lon="-4.820800">
        <ele>1397.0</ele>
        <time>2013-05-11T14:23:56Z</time>
      </trkpt>
      <trkpt lat="40.553417" lon="-4.820850">
        <ele>1394.0</ele>
        <time>2013-05-11T14:23:57Z</time>
      </trkpt>
      <trkpt lat="40.553467" lon="-4.820917">
        <ele>1391.0</ele>
        <time>2013-05-11T14:23:58Z</time>
      </trkpt>
      <trkpt lat="40.553517" lon="-4.820967">
        <ele>1388.0</ele>
        <time>2013-05-11T14:23:59Z</time>
      </trkpt>
      <trkpt lat="40.553550" lon="-4.821017">
        <ele>1386.0</ele>
        <time>2013-05-11T14:24:00Z</time>
      </trkpt>
      <trkpt lat="40.553600" lon="-4.821083">
        <ele>1383.0</ele>
        <time>2013-05-11T14:24:01Z</time>
      </trkpt>
      <trkpt lat="40.553650" lon="-4.821150">
        <ele>1380.0</ele>
        <time>2013-05-11T14:24:02Z</time>
      </trkpt>
      <trkpt lat="40.553700" lon="-4.821217">
        <ele>1377.0</ele>
        <time>2013-05-11T14:24:03Z</time>
      </trkpt>
      <trkpt lat="40.553733" lon="-4.821283">
        <ele>1375.0</ele>
        <time>2013-05-11T14:24:04Z</time>
      </trkpt>
      <trkpt lat="40.553783" lon="-4.821367">
        <ele>1373.0</ele>
        <time>2013-05-11T14:24:05Z</time>
      </trkpt>
      <trkpt lat="40.553833" lon="-4.821433">
        <ele>1370.0</ele>
        <time>2013-05-11T14:24:06Z</time>
      </trkpt>
      <trkpt lat="40.553883" lon="-4.821517">
        <ele>1368.0</ele>
        <time>2013-05-11T14:24:07Z</time>
      </trkpt>
      <trkpt lat="40.553917" lon="-4.821600">
        <ele>1366.0</ele>
        <time>2013-05-11T14:24:08Z</time>
      </trkpt>
      <trkpt lat="40.553967" lon="-4.821667">
        <ele>1364.0</ele>
        <time>2013-05-11T14:24:09Z</time>
      </trkpt>
      <trkpt lat="40.554000" lon="-4.821717">
        <ele>1361.0</ele>
        <time>2013-05-11T14:24:10Z</time>
      </trkpt>
      <trkpt lat="40.554050" lon="-4.821783">
        <ele>1358.0</ele>
        <time>2013-05-11T14:24:11Z</time>
      </trkpt>
      <trkpt lat="40.554100" lon="-4.821850">
        <ele>1355.0</ele>
        <time>2013-05-11T14:24:12Z</time>
      </trkpt>
      <trkpt lat="40.554150" lon="-4.821917">
        <ele>1352.0</ele>
        <time>2013-05-11T14:24:13Z</time>
      </trkpt>
      <trkpt lat="40.554200" lon="-4.821983">
        <ele>1350.0</ele>
        <time>2013-05-11T14:24:14Z</time>
      </trkpt>
      <trkpt lat="40.554250" lon="-4.822050">
        <ele>1348.0</ele>
        <time>2013-05-11T14:24:15Z</time>
      </trkpt>
      <trkpt lat="40.554300" lon="-4.822117">
        <ele>1345.0</ele>
        <time>2013-05-11T14:24:16Z</time>
      </trkpt>
      <trkpt lat="40.554350" lon="-4.822183">
        <ele>1343.0</ele>
        <time>2013-05-11T14:24:17Z</time>
      </trkpt>
      <trkpt lat="40.554400" lon="-4.822267">
        <ele>1340.0</ele>
        <time>2013-05-11T14:24:18Z</time>
      </trkpt>
      <trkpt lat="40.554467" lon="-4.822350">
        <ele>1338.0</ele>
        <time>2013-05-11T14:24:19Z</time>
      </trkpt>
      <trkpt lat="40.554517" lon="-4.822417">
        <ele>1337.0</ele>
        <time>2013-05-11T14:24:20Z</time>
      </trkpt>
      <trkpt lat="40.554567" lon="-4.822500">
        <ele>1336.0</ele>
        <time>2013-05-11T14:24:21Z</time>
      </trkpt>
      <trkpt lat="40.554600" lon="-4.822583">
        <ele>1335.0</ele>
        <time>2013-05-11T14:24:22Z</time>
      </trkpt>
      <trkpt lat="40.554650" lon="-4.822667">
        <ele>1334.0</ele>
        <time>2013-05-11T14:24:23Z</time>
      </trkpt>
      <trkpt lat="40.554667" lon="-4.822750">
        <ele>1333.0</ele>
        <time>2013-05-11T14:24:24Z</time>
      </trkpt>
      <trkpt lat="40.554700" lon="-4.822850">
        <ele>1331.0</ele>
        <time>2013-05-11T14:24:25Z</time>
      </trkpt>
      <trkpt lat="40.554733" lon="-4.822950">
        <ele>1330.0</ele>
        <time>2013-05-11T14:24:26Z</time>
      </trkpt>
      <trkpt lat="40.554783" lon="-4.823050">
        <ele>1328.0</ele>
        <time>2013-05-11T14:24:27Z</time>
      </trkpt>
      <trkpt lat="40.554817" lon="-4.823150">
        <ele>1326.0</ele>
        <time>2013-05-11T14:24:28Z</time>
      </trkpt>
      <trkpt lat="40.554850" lon="-4.823250">
        <ele>1326.0</ele>
        <time>2013-05-11T14:24:29Z</time>
      </trkpt>
      <trkpt lat="40.554883" lon="-4.823350">
        <ele>1325.0</ele>
        <time>2013-05-11T14:24:30Z</time>
      </trkpt>
      <trkpt lat="40.554900" lon="-4.823450">
        <ele>1324.0</ele>
        <time>2013-05-11T14:24:31Z</time>
      </trkpt>
      <trkpt lat="40.554917" lon="-4.823550">
        <ele>1324.0</ele>
        <time>2013-05-11T14:24:32Z</time>
      </trkpt>
      <trkpt lat="40.554950" lon="-4.823633">
        <ele>1323.0</ele>
        <time>2013-05-11T14:24:33Z</time>
      </trkpt>
      <trkpt lat="40.554967" lon="-4.823733">
        <ele>1323.0</ele>
        <time>2013-05-11T14:24:34Z</time>
      </trkpt>
      <trkpt lat="40.554983" lon="-4.823833">
        <ele>1322.0</ele>
        <time>2013-05-11T14:24:35Z</time>
      </trkpt>
      <trkpt lat="40.555000" lon="-4.823917">
        <ele>1323.0</ele>
        <time>2013-05-11T14:24:36Z</time>
      </trkpt>
      <trkpt lat="40.555033" lon="-4.824000">
        <ele>1324.0</ele>
        <time>2013-05-11T14:24:37Z</time>
      </trkpt>
      <trkpt lat="40.555067" lon="-4.824050">
        <ele>1326.0</ele>
        <time>2013-05-11T14:24:38Z</time>
      </trkpt>
      <trkpt lat="40.555100" lon="-4.824117">
        <ele>1327.0</ele>
        <time>2013-05-11T14:24:39Z</time>
      </trkpt>
      <trkpt lat="40.555117" lon="-4.824200">
        <ele>1328.0</ele>
        <time>2013-05-11T14:24:40Z</time>
      </trkpt>
      <trkpt lat="40.555117" lon="-4.824317">
        <ele>1328.0</ele>
        <time>2013-05-11T14:24:41Z</time>
      </trkpt>
      <trkpt lat="40.555117" lon="-4.824433">
        <ele>1328.0</ele>
        <time>2013-05-11T14:24:42Z</time>
      </trkpt>
      <trkpt lat="40.555100" lon="-4.824550">
        <ele>1329.0</ele>
        <time>2013-05-11T14:24:43Z</time>
      </trkpt>
      <trkpt lat="40.555067" lon="-4.824667">
        <ele>1330.0</ele>
        <time>2013-05-11T14:24:44Z</time>
      </trkpt>
      <trkpt lat="40.555017" lon="-4.824750">
        <ele>1331.0</ele>
        <time>2013-05-11T14:24:45Z</time>
      </trkpt>
      <trkpt lat="40.554967" lon="-4.824867">
        <ele>1330.0</ele>
        <time>2013-05-11T14:24:46Z</time>
      </trkpt>
      <trkpt lat="40.554900" lon="-4.824967">
        <ele>1329.0</ele>
        <time>2013-05-11T14:24:47Z</time>
      </trkpt>
      <trkpt lat="40.554833" lon="-4.825100">
        <ele>1328.0</ele>
        <time>2013-05-11T14:24:48Z</time>
      </trkpt>
      <trkpt lat="40.554767" lon="-4.825217">
        <ele>1329.0</ele>
        <time>2013-05-11T14:24:49Z</time>
      </trkpt>
      <trkpt lat="40.554700" lon="-4.825333">
        <ele>1330.0</ele>
        <time>2013-05-11T14:24:50Z</time>
      </trkpt>
      <trkpt lat="40.554617" lon="-4.825433">
        <ele>1330.0</ele>
        <time>2013-05-11T14:24:51Z</time>
      </trkpt>
      <trkpt lat="40.554533" lon="-4.825533">
        <ele>1330.0</ele>
        <time>2013-05-11T14:24:52Z</time>
      </trkpt>
      <trkpt lat="40.554450" lon="-4.825633">
        <ele>1331.0</ele>
        <time>2013-05-11T14:24:53Z</time>
      </trkpt>
      <trkpt lat="40.554350" lon="-4.825733">
        <ele>1331.0</ele>
        <time>2013-05-11T14:24:54Z</time>
      </trkpt>
      <trkpt lat="40.554250" lon="-4.825800">
        <ele>1331.0</ele>
        <time>2013-05-11T14:24:55Z</time>
      </trkpt>
      <trkpt lat="40.554133" lon="-4.825850">
        <ele>1331.0</ele>
        <time>2013-05-11T14:24:56Z</time>
      </trkpt>
      <trkpt lat="40.554033" lon="-4.825867">
        <ele>1330.0</ele>
        <time>2013-05-11T14:24:57Z</time>
      </trkpt>
      <trkpt lat="40.553917" lon="-4.825883">
        <ele>1330.0</ele>
        <time>2013-05-11T14:24:58Z</time>
      </trkpt>
      <trkpt lat="40.553817" lon="-4.825867">
        <ele>1330.0</ele>
        <time>2013-05-11T14:24:59Z</time>
      </trkpt>
      <trkpt lat="40.553717" lon="-4.825850">
        <ele>1329.0</ele>
        <time>2013-05-11T14:25:00Z</time>
      </trkpt>
      <trkpt lat="40.553633" lon="-4.825833">
        <ele>1329.0</ele>
        <time>2013-05-11T14:25:01Z</time>
      </trkpt>
      <trkpt lat="40.553567" lon="-4.825783">
        <ele>1327.0</ele>
        <time>2013-05-11T14:25:02Z</time>
      </trkpt>
      <trkpt lat="40.553517" lon="-4.825700">
        <ele>1325.0</ele>
        <time>2013-05-11T14:25:03Z</time>
      </trkpt>
      <trkpt lat="40.553483" lon="-4.825617">
        <ele>1323.0</ele>
        <time>2013-05-11T14:25:04Z</time>
      </trkpt>
      <trkpt lat="40.553467" lon="-4.825533">
        <ele>1322.0</ele>
        <time>2013-05-11T14:25:05Z</time>
      </trkpt>
      <trkpt lat="40.553467" lon="-4.825483">
        <ele>1321.0</ele>
        <time>2013-05-11T14:25:06Z</time>
      </trkpt>
      <trkpt lat="40.553467" lon="-4.825433">
        <ele>1321.0</ele>
        <time>2013-05-11T14:25:07Z</time>
      </trkpt>
      <trkpt lat="40.553483" lon="-4.825400">
        <ele>1320.0</ele>
        <time>2013-05-11T14:25:08Z</time>
      </trkpt>
      <trkpt lat="40.553500" lon="-4.825367">
        <ele>1318.0</ele>
        <time>2013-05-11T14:25:09Z</time>
      </trkpt>
      <trkpt lat="40.553533" lon="-4.825317">
        <ele>1316.0</ele>
        <time>2013-05-11T14:25:10Z</time>
      </trkpt>
      <trkpt lat="40.553600" lon="-4.825283">
        <ele>1314.0</ele>
        <time>2013-05-11T14:25:11Z</time>
      </trkpt>
      <trkpt lat="40.553650" lon="-4.825233">
        <ele>1315.0</ele>
        <time>2013-05-11T14:25:12Z</time>
      </trkpt>
      <trkpt lat="40.553683" lon="-4.825217">
        <ele>1317.0</ele>
        <time>2013-05-11T14:25:13Z</time>
      </trkpt>
      <trkpt lat="40.553700" lon="-4.825200">
        <ele>1319.0</ele>
        <time>2013-05-11T14:25:14Z</time>
      </trkpt>
      <trkpt lat="40.553717" lon="-4.825183">
        <ele>1320.0</ele>
        <time>2013-05-11T14:25:15Z</time>
      </trkpt>
      <trkpt lat="40.553717" lon="-4.825183">
        <ele>1319.0</ele>
        <time>2013-05-11T14:25:16Z</time>
      </trkpt>
      <trkpt lat="40.553750" lon="-4.825167">
        <ele>1317.0</ele>
        <time>2013-05-11T14:25:17Z</time>
      </trkpt>
      <trkpt lat="40.553800" lon="-4.825183">
        <ele>1314.0</ele>
        <time>2013-05-11T14:25:18Z</time>
      </trkpt>
      <trkpt lat="40.553850" lon="-4.825183">
        <ele>1313.0</ele>
        <time>2013-05-11T14:25:19Z</time>
      </trkpt>
      <trkpt lat="40.553900" lon="-4.825200">
        <ele>1313.0</ele>
        <time>2013-05-11T14:25:20Z</time>
      </trkpt>
      <trkpt lat="40.553950" lon="-4.825217">
        <ele>1313.0</ele>
        <time>2013-05-11T14:25:21Z</time>
      </trkpt>
      <trkpt lat="40.553983" lon="-4.825217">
        <ele>1314.0</ele>
        <time>2013-05-11T14:25:22Z</time>
      </trkpt>
      <trkpt lat="40.554017" lon="-4.825217">
        <ele>1315.0</ele>
        <time>2013-05-11T14:25:23Z</time>
      </trkpt>
      <trkpt lat="40.554050" lon="-4.825233">
        <ele>1316.0</ele>
        <time>2013-05-11T14:25:24Z</time>
      </trkpt>
      <trkpt lat="40.554083" lon="-4.825267">
        <ele>1316.0</ele>
        <time>2013-05-11T14:25:25Z</time>
      </trkpt>
      <trkpt lat="40.554133" lon="-4.825283">
        <ele>1317.0</ele>
        <time>2013-05-11T14:25:26Z</time>
      </trkpt>
      <trkpt lat="40.554183" lon="-4.825300">
        <ele>1318.0</ele>
        <time>2013-05-11T14:25:27Z</time>
      </trkpt>
      <trkpt lat="40.554200" lon="-4.825283">
        <ele>1319.0</ele>
        <time>2013-05-11T14:25:28Z</time>
      </trkpt>
      <trkpt lat="40.554233" lon="-4.825283">
        <ele>1320.0</ele>
        <time>2013-05-11T14:25:29Z</time>
      </trkpt>
      <trkpt lat="40.554250" lon="-4.825300">
        <ele>1319.0</ele>
        <time>2013-05-11T14:25:30Z</time>
      </trkpt>
      <trkpt lat="40.554283" lon="-4.825317">
        <ele>1317.0</ele>
        <time>2013-05-11T14:25:31Z</time>
      </trkpt>
      <trkpt lat="40.554333" lon="-4.825350">
        <ele>1315.0</ele>
        <time>2013-05-11T14:25:32Z</time>
      </trkpt>
      <trkpt lat="40.554367" lon="-4.825417">
        <ele>1314.0</ele>
        <time>2013-05-11T14:25:33Z</time>
      </trkpt>
      <trkpt lat="40.554383" lon="-4.825500">
        <ele>1313.0</ele>
        <time>2013-05-11T14:25:34Z</time>
      </trkpt>
      <trkpt lat="40.554400" lon="-4.825600">
        <ele>1312.0</ele>
        <time>2013-05-11T14:25:35Z</time>
      </trkpt>
      <trkpt lat="40.554400" lon="-4.825700">
        <ele>1312.0</ele>
        <time>2013-05-11T14:25:36Z</time>
      </trkpt>
      <trkpt lat="40.554417" lon="-4.825783">
        <ele>1311.0</ele>
        <time>2013-05-11T14:25:37Z</time>
      </trkpt>
      <trkpt lat="40.554417" lon="-4.825883">
        <ele>1311.0</ele>
        <time>2013-05-11T14:25:38Z</time>
      </trkpt>
      <trkpt lat="40.554433" lon="-4.825983">
        <ele>1311.0</ele>
        <time>2013-05-11T14:25:39Z</time>
      </trkpt>
      <trkpt lat="40.554433" lon="-4.826067">
        <ele>1312.0</ele>
        <time>2013-05-11T14:25:40Z</time>
      </trkpt>
      <trkpt lat="40.554433" lon="-4.826150">
        <ele>1312.0</ele>
        <time>2013-05-11T14:25:41Z</time>
      </trkpt>
      <trkpt lat="40.554433" lon="-4.826233">
        <ele>1312.0</ele>
        <time>2013-05-11T14:25:42Z</time>
      </trkpt>
      <trkpt lat="40.554450" lon="-4.826317">
        <ele>1310.0</ele>
        <time>2013-05-11T14:25:43Z</time>
      </trkpt>
      <trkpt lat="40.554450" lon="-4.826400">
        <ele>1309.0</ele>
        <time>2013-05-11T14:25:44Z</time>
      </trkpt>
      <trkpt lat="40.554467" lon="-4.826517">
        <ele>1308.0</ele>
        <time>2013-05-11T14:25:45Z</time>
      </trkpt>
      <trkpt lat="40.554467" lon="-4.826633">
        <ele>1309.0</ele>
        <time>2013-05-11T14:25:46Z</time>
      </trkpt>
      <trkpt lat="40.554483" lon="-4.826733">
        <ele>1310.0</ele>
        <time>2013-05-11T14:25:47Z</time>
      </trkpt>
      <trkpt lat="40.554517" lon="-4.826833">
        <ele>1311.0</ele>
        <time>2013-05-11T14:25:48Z</time>
      </trkpt>
      <trkpt lat="40.554550" lon="-4.826900">
        <ele>1313.0</ele>
        <time>2013-05-11T14:25:49Z</time>
      </trkpt>
      <trkpt lat="40.554600" lon="-4.826950">
        <ele>1315.0</ele>
        <time>2013-05-11T14:25:50Z</time>
      </trkpt>
      <trkpt lat="40.554633" lon="-4.827017">
        <ele>1317.0</ele>
        <time>2013-05-11T14:25:51Z</time>
      </trkpt>
      <trkpt lat="40.554667" lon="-4.827083">
        <ele>1319.0</ele>
        <time>2013-05-11T14:25:52Z</time>
      </trkpt>
      <trkpt lat="40.554700" lon="-4.827117">
        <ele>1319.0</ele>
        <time>2013-05-11T14:25:53Z</time>
      </trkpt>
      <trkpt lat="40.554750" lon="-4.827150">
        <ele>1320.0</ele>
        <time>2013-05-11T14:25:54Z</time>
      </trkpt>
      <trkpt lat="40.554783" lon="-4.827167">
        <ele>1321.0</ele>
        <time>2013-05-11T14:25:55Z</time>
      </trkpt>
      <trkpt lat="40.554833" lon="-4.827200">
        <ele>1323.0</ele>
        <time>2013-05-11T14:25:56Z</time>
      </trkpt>
      <trkpt lat="40.554883" lon="-4.827250">
        <ele>1326.0</ele>
        <time>2013-05-11T14:25:57Z</time>
      </trkpt>
      <trkpt lat="40.554917" lon="-4.827300">
        <ele>1329.0</ele>
        <time>2013-05-11T14:25:58Z</time>
      </trkpt>
      <trkpt lat="40.554933" lon="-4.827350">
        <ele>1331.0</ele>
        <time>2013-05-11T14:25:59Z</time>
      </trkpt>
      <trkpt lat="40.554950" lon="-4.827400">
        <ele>1331.0</ele>
        <time>2013-05-11T14:26:00Z</time>
      </trkpt>
      <trkpt lat="40.554950" lon="-4.827467">
        <ele>1330.0</ele>
        <time>2013-05-11T14:26:01Z</time>
      </trkpt>
      <trkpt lat="40.554950" lon="-4.827567">
        <ele>1329.0</ele>
        <time>2013-05-11T14:26:02Z</time>
      </trkpt>
      <trkpt lat="40.554917" lon="-4.827683">
        <ele>1328.0</ele>
        <time>2013-05-11T14:26:03Z</time>
      </trkpt>
      <trkpt lat="40.554833" lon="-4.827783">
        <ele>1328.0</ele>
        <time>2013-05-11T14:26:04Z</time>
      </trkpt>
      <trkpt lat="40.554750" lon="-4.827850">
        <ele>1330.0</ele>
        <time>2013-05-11T14:26:05Z</time>
      </trkpt>
      <trkpt lat="40.554650" lon="-4.827867">
        <ele>1333.0</ele>
        <time>2013-05-11T14:26:06Z</time>
      </trkpt>
      <trkpt lat="40.554583" lon="-4.827867">
        <ele>1335.0</ele>
        <time>2013-05-11T14:26:07Z</time>
      </trkpt>
      <trkpt lat="40.554500" lon="-4.827867">
        <ele>1336.0</ele>
        <time>2013-05-11T14:26:08Z</time>
      </trkpt>
      <trkpt lat="40.554417" lon="-4.827850">
        <ele>1337.0</ele>
        <time>2013-05-11T14:26:09Z</time>
      </trkpt>
      <trkpt lat="40.554317" lon="-4.827833">
        <ele>1337.0</ele>
        <time>2013-05-11T14:26:10Z</time>
      </trkpt>
      <trkpt lat="40.554217" lon="-4.827800">
        <ele>1337.0</ele>
        <time>2013-05-11T14:26:11Z</time>
      </trkpt>
      <trkpt lat="40.554117" lon="-4.827733">
        <ele>1339.0</ele>
        <time>2013-05-11T14:26:12Z</time>
      </trkpt>
      <trkpt lat="40.554033" lon="-4.827650">
        <ele>1341.0</ele>
        <time>2013-05-11T14:26:13Z</time>
      </trkpt>
      <trkpt lat="40.553967" lon="-4.827583">
        <ele>1343.0</ele>
        <time>2013-05-11T14:26:14Z</time>
      </trkpt>
      <trkpt lat="40.553883" lon="-4.827533">
        <ele>1346.0</ele>
        <time>2013-05-11T14:26:15Z</time>
      </trkpt>
      <trkpt lat="40.553800" lon="-4.827500">
        <ele>1348.0</ele>
        <time>2013-05-11T14:26:16Z</time>
      </trkpt>
      <trkpt lat="40.553700" lon="-4.827450">
        <ele>1350.0</ele>
        <time>2013-05-11T14:26:17Z</time>
      </trkpt>
      <trkpt lat="40.553633" lon="-4.827383">
        <ele>1353.0</ele>
        <time>2013-05-11T14:26:18Z</time>
      </trkpt>
      <trkpt lat="40.553567" lon="-4.827300">
        <ele>1354.0</ele>
        <time>2013-05-11T14:26:19Z</time>
      </trkpt>
      <trkpt lat="40.553517" lon="-4.827217">
        <ele>1356.0</ele>
        <time>2013-05-11T14:26:20Z</time>
      </trkpt>
      <trkpt lat="40.553483" lon="-4.827117">
        <ele>1357.0</ele>
        <time>2013-05-11T14:26:21Z</time>
      </trkpt>
      <trkpt lat="40.553450" lon="-4.827033">
        <ele>1357.0</ele>
        <time>2013-05-11T14:26:22Z</time>
      </trkpt>
      <trkpt lat="40.553433" lon="-4.826950">
        <ele>1358.0</ele>
        <time>2013-05-11T14:26:23Z</time>
      </trkpt>
      <trkpt lat="40.553433" lon="-4.826883">
        <ele>1359.0</ele>
        <time>2013-05-11T14:26:24Z</time>
      </trkpt>
      <trkpt lat="40.553450" lon="-4.826800">
        <ele>1359.0</ele>
        <time>2013-05-11T14:26:25Z</time>
      </trkpt>
      <trkpt lat="40.553467" lon="-4.826750">
        <ele>1360.0</ele>
        <time>2013-05-11T14:26:26Z</time>
      </trkpt>
      <trkpt lat="40.553483" lon="-4.826700">
        <ele>1361.0</ele>
        <time>2013-05-11T14:26:27Z</time>
      </trkpt>
      <trkpt lat="40.553517" lon="-4.826667">
        <ele>1361.0</ele>
        <time>2013-05-11T14:26:28Z</time>
      </trkpt>
      <trkpt lat="40.553567" lon="-4.826633">
        <ele>1361.0</ele>
        <time>2013-05-11T14:26:29Z</time>
      </trkpt>
      <trkpt lat="40.553617" lon="-4.826633">
        <ele>1362.0</ele>
        <time>2013-05-11T14:26:30Z</time>
      </trkpt>
      <trkpt lat="40.553650" lon="-4.826650">
        <ele>1363.0</ele>
        <time>2013-05-11T14:26:31Z</time>
      </trkpt>
      <trkpt lat="40.553683" lon="-4.826650">
        <ele>1364.0</ele>
        <time>2013-05-11T14:26:32Z</time>
      </trkpt>
      <trkpt lat="40.553717" lon="-4.826667">
        <ele>1365.0</ele>
        <time>2013-05-11T14:26:33Z</time>
      </trkpt>
      <trkpt lat="40.553717" lon="-4.826683">
        <ele>1366.0</ele>
        <time>2013-05-11T14:26:34Z</time>
      </trkpt>
      <trkpt lat="40.553717" lon="-4.826717">
        <ele>1366.0</ele>
        <time>2013-05-11T14:26:35Z</time>
      </trkpt>
      <trkpt lat="40.553733" lon="-4.826767">
        <ele>1364.0</ele>
        <time>2013-05-11T14:26:36Z</time>
      </trkpt>
      <trkpt lat="40.553733" lon="-4.826817">
        <ele>1362.0</ele>
        <time>2013-05-11T14:26:37Z</time>
      </trkpt>
      <trkpt lat="40.553750" lon="-4.826883">
        <ele>1361.0</ele>
        <time>2013-05-11T14:26:38Z</time>
      </trkpt>
      <trkpt lat="40.553767" lon="-4.826967">
        <ele>1361.0</ele>
        <time>2013-05-11T14:26:39Z</time>
      </trkpt>
      <trkpt lat="40.553750" lon="-4.827033">
        <ele>1361.0</ele>
        <time>2013-05-11T14:26:40Z</time>
      </trkpt>
      <trkpt lat="40.553733" lon="-4.827117">
        <ele>1360.0</ele>
        <time>2013-05-11T14:26:41Z</time>
      </trkpt>
      <trkpt lat="40.553700" lon="-4.827183">
        <ele>1359.0</ele>
        <time>2013-05-11T14:26:42Z</time>
      </trkpt>
      <trkpt lat="40.553650" lon="-4.827283">
        <ele>1358.0</ele>
        <time>2013-05-11T14:26:43Z</time>
      </trkpt>
      <trkpt lat="40.553600" lon="-4.827383">
        <ele>1358.0</ele>
        <time>2013-05-11T14:26:44Z</time>
      </trkpt>
      <trkpt lat="40.553550" lon="-4.827483">
        <ele>1359.0</ele>
        <time>2013-05-11T14:26:45Z</time>
      </trkpt>
      <trkpt lat="40.553500" lon="-4.827567">
        <ele>1361.0</ele>
        <time>2013-05-11T14:26:46Z</time>
      </trkpt>
      <trkpt lat="40.553450" lon="-4.827650">
        <ele>1363.0</ele>
        <time>2013-05-11T14:26:47Z</time>
      </trkpt>
      <trkpt lat="40.553417" lon="-4.827733">
        <ele>1365.0</ele>
        <time>2013-05-11T14:26:48Z</time>
      </trkpt>
      <trkpt lat="40.553383" lon="-4.827817">
        <ele>1365.0</ele>
        <time>2013-05-11T14:26:49Z</time>
      </trkpt>
      <trkpt lat="40.553400" lon="-4.827917">
        <ele>1366.0</ele>
        <time>2013-05-11T14:26:50Z</time>
      </trkpt>
      <trkpt lat="40.553417" lon="-4.827983">
        <ele>1368.0</ele>
        <time>2013-05-11T14:26:51Z</time>
      </trkpt>
      <trkpt lat="40.553450" lon="-4.828033">
        <ele>1369.0</ele>
        <time>2013-05-11T14:26:52Z</time>
      </trkpt>
      <trkpt lat="40.553483" lon="-4.828067">
        <ele>1370.0</ele>
        <time>2013-05-11T14:26:53Z</time>
      </trkpt>
      <trkpt lat="40.553550" lon="-4.828050">
        <ele>1371.0</ele>
        <time>2013-05-11T14:26:54Z</time>
      </trkpt>
      <trkpt lat="40.553600" lon="-4.828033">
        <ele>1372.0</ele>
        <time>2013-05-11T14:26:55Z</time>
      </trkpt>
      <trkpt lat="40.553650" lon="-4.828000">
        <ele>1374.0</ele>
        <time>2013-05-11T14:26:56Z</time>
      </trkpt>
      <trkpt lat="40.553667" lon="-4.827950">
        <ele>1375.0</ele>
        <time>2013-05-11T14:26:57Z</time>
      </trkpt>
      <trkpt lat="40.553683" lon="-4.827883">
        <ele>1375.0</ele>
        <time>2013-05-11T14:26:58Z</time>
      </trkpt>
      <trkpt lat="40.553700" lon="-4.827783">
        <ele>1374.0</ele>
        <time>2013-05-11T14:26:59Z</time>
      </trkpt>
      <trkpt lat="40.553700" lon="-4.827683">
        <ele>1372.0</ele>
        <time>2013-05-11T14:27:00Z</time>
      </trkpt>
      <trkpt lat="40.553667" lon="-4.827550">
        <ele>1370.0</ele>
        <time>2013-05-11T14:27:01Z</time>
      </trkpt>
      <trkpt lat="40.553617" lon="-4.827433">
        <ele>1369.0</ele>
        <time>2013-05-11T14:27:02Z</time>
      </trkpt>
      <trkpt lat="40.553517" lon="-4.827333">
        <ele>1368.0</ele>
        <time>2013-05-11T14:27:03Z</time>
      </trkpt>
      <trkpt lat="40.553400" lon="-4.827267">
        <ele>1367.0</ele>
        <time>2013-05-11T14:27:04Z</time>
      </trkpt>
      <trkpt lat="40.553283" lon="-4.827250">
        <ele>1367.0</ele>
        <time>2013-05-11T14:27:05Z</time>
      </trkpt>
      <trkpt lat="40.553183" lon="-4.827217">
        <ele>1368.0</ele>
        <time>2013-05-11T14:27:06Z</time>
      </trkpt>
      <trkpt lat="40.553083" lon="-4.827200">
        <ele>1369.0</ele>
        <time>2013-05-11T14:27:07Z</time>
      </trkpt>
      <trkpt lat="40.552983" lon="-4.827217">
        <ele>1368.0</ele>
        <time>2013-05-11T14:27:08Z</time>
      </trkpt>
      <trkpt lat="40.552883" lon="-4.827250">
        <ele>1367.0</ele>
        <time>2013-05-11T14:27:09Z</time>
      </trkpt>
      <trkpt lat="40.552783" lon="-4.827333">
        <ele>1367.0</ele>
        <time>2013-05-11T14:27:10Z</time>
      </trkpt>
      <trkpt lat="40.552717" lon="-4.827433">
        <ele>1368.0</ele>
        <time>2013-05-11T14:27:11Z</time>
      </trkpt>
      <trkpt lat="40.552667" lon="-4.827517">
        <ele>1370.0</ele>
        <time>2013-05-11T14:27:12Z</time>
      </trkpt>
      <trkpt lat="40.552650" lon="-4.827600">
        <ele>1373.0</ele>
        <time>2013-05-11T14:27:13Z</time>
      </trkpt>
      <trkpt lat="40.552617" lon="-4.827667">
        <ele>1374.0</ele>
        <time>2013-05-11T14:27:14Z</time>
      </trkpt>
      <trkpt lat="40.552583" lon="-4.827733">
        <ele>1374.0</ele>
        <time>2013-05-11T14:27:15Z</time>
      </trkpt>
      <trkpt lat="40.552583" lon="-4.827833">
        <ele>1374.0</ele>
        <time>2013-05-11T14:27:16Z</time>
      </trkpt>
      <trkpt lat="40.552583" lon="-4.827933">
        <ele>1372.0</ele>
        <time>2013-05-11T14:27:17Z</time>
      </trkpt>
      <trkpt lat="40.552617" lon="-4.828033">
        <ele>1374.0</ele>
        <time>2013-05-11T14:27:18Z</time>
      </trkpt>
      <trkpt lat="40.552650" lon="-4.828083">
        <ele>1376.0</ele>
        <time>2013-05-11T14:27:19Z</time>
      </trkpt>
      <trkpt lat="40.552683" lon="-4.828100">
        <ele>1379.0</ele>
        <time>2013-05-11T14:27:20Z</time>
      </trkpt>
      <trkpt lat="40.552717" lon="-4.828100">
        <ele>1380.0</ele>
        <time>2013-05-11T14:27:21Z</time>
      </trkpt>
      <trkpt lat="40.552750" lon="-4.828083">
        <ele>1381.0</ele>
        <time>2013-05-11T14:27:22Z</time>
      </trkpt>
      <trkpt lat="40.552800" lon="-4.828067">
        <ele>1381.0</ele>
        <time>2013-05-11T14:27:23Z</time>
      </trkpt>
      <trkpt lat="40.552850" lon="-4.828033">
        <ele>1381.0</ele>
        <time>2013-05-11T14:27:24Z</time>
      </trkpt>
      <trkpt lat="40.552900" lon="-4.827950">
        <ele>1381.0</ele>
        <time>2013-05-11T14:27:25Z</time>
      </trkpt>
      <trkpt lat="40.552933" lon="-4.827867">
        <ele>1382.0</ele>
        <time>2013-05-11T14:27:26Z</time>
      </trkpt>
      <trkpt lat="40.552950" lon="-4.827767">
        <ele>1384.0</ele>
        <time>2013-05-11T14:27:27Z</time>
      </trkpt>
      <trkpt lat="40.552967" lon="-4.827667">
        <ele>1386.0</ele>
        <time>2013-05-11T14:27:28Z</time>
      </trkpt>
      <trkpt lat="40.552967" lon="-4.827583">
        <ele>1387.0</ele>
        <time>2013-05-11T14:27:29Z</time>
      </trkpt>
      <trkpt lat="40.552967" lon="-4.827483">
        <ele>1387.0</ele>
        <time>2013-05-11T14:27:30Z</time>
      </trkpt>
      <trkpt lat="40.552950" lon="-4.827383">
        <ele>1387.0</ele>
        <time>2013-05-11T14:27:31Z</time>
      </trkpt>
      <trkpt lat="40.552933" lon="-4.827267">
        <ele>1386.0</ele>
        <time>2013-05-11T14:27:32Z</time>
      </trkpt>
      <trkpt lat="40.552883" lon="-4.827150">
        <ele>1385.0</ele>
        <time>2013-05-11T14:27:33Z</time>
      </trkpt>
      <trkpt lat="40.552817" lon="-4.827033">
        <ele>1384.0</ele>
        <time>2013-05-11T14:27:34Z</time>
      </trkpt>
      <trkpt lat="40.552733" lon="-4.826933">
        <ele>1384.0</ele>
        <time>2013-05-11T14:27:35Z</time>
      </trkpt>
      <trkpt lat="40.552633" lon="-4.826850">
        <ele>1383.0</ele>
        <time>2013-05-11T14:27:36Z</time>
      </trkpt>
      <trkpt lat="40.552517" lon="-4.826767">
        <ele>1382.0</ele>
        <time>2013-05-11T14:27:37Z</time>
      </trkpt>
      <trkpt lat="40.552383" lon="-4.826750">
        <ele>1381.0</ele>
        <time>2013-05-11T14:27:38Z</time>
      </trkpt>
      <trkpt lat="40.552250" lon="-4.826767">
        <ele>1380.0</ele>
        <time>2013-05-11T14:27:39Z</time>
      </trkpt>
      <trkpt lat="40.552133" lon="-4.826800">
        <ele>1379.0</ele>
        <time>2013-05-11T14:27:40Z</time>
      </trkpt>
      <trkpt lat="40.552017" lon="-4.826850">
        <ele>1378.0</ele>
        <time>2013-05-11T14:27:41Z</time>
      </trkpt>
      <trkpt lat="40.551900" lon="-4.826917">
        <ele>1377.0</ele>
        <time>2013-05-11T14:27:42Z</time>
      </trkpt>
      <trkpt lat="40.551800" lon="-4.827017">
        <ele>1376.0</ele>
        <time>2013-05-11T14:27:43Z</time>
      </trkpt>
      <trkpt lat="40.551700" lon="-4.827133">
        <ele>1375.0</ele>
        <time>2013-05-11T14:27:44Z</time>
      </trkpt>
      <trkpt lat="40.551633" lon="-4.827283">
        <ele>1375.0</ele>
        <time>2013-05-11T14:27:45Z</time>
      </trkpt>
      <trkpt lat="40.551583" lon="-4.827417">
        <ele>1375.0</ele>
        <time>2013-05-11T14:27:46Z</time>
      </trkpt>
      <trkpt lat="40.551567" lon="-4.827567">
        <ele>1375.0</ele>
        <time>2013-05-11T14:27:47Z</time>
      </trkpt>
      <trkpt lat="40.551550" lon="-4.827683">
        <ele>1378.0</ele>
        <time>2013-05-11T14:27:48Z</time>
      </trkpt>
      <trkpt lat="40.551533" lon="-4.827767">
        <ele>1380.0</ele>
        <time>2013-05-11T14:27:49Z</time>
      </trkpt>
      <trkpt lat="40.551533" lon="-4.827850">
        <ele>1382.0</ele>
        <time>2013-05-11T14:27:50Z</time>
      </trkpt>
      <trkpt lat="40.551517" lon="-4.827933">
        <ele>1383.0</ele>
        <time>2013-05-11T14:27:51Z</time>
      </trkpt>
      <trkpt lat="40.551533" lon="-4.828000">
        <ele>1384.0</ele>
        <time>2013-05-11T14:27:52Z</time>
      </trkpt>
      <trkpt lat="40.551550" lon="-4.828050">
        <ele>1383.0</ele>
        <time>2013-05-11T14:27:53Z</time>
      </trkpt>
      <trkpt lat="40.551600" lon="-4.828083">
        <ele>1383.0</ele>
        <time>2013-05-11T14:27:54Z</time>
      </trkpt>
      <trkpt lat="40.551667" lon="-4.828100">
        <ele>1383.0</ele>
        <time>2013-05-11T14:27:55Z</time>
      </trkpt>
      <trkpt lat="40.551717" lon="-4.828100">
        <ele>1385.0</ele>
        <time>2013-05-11T14:27:56Z</time>
      </trkpt>
      <trkpt lat="40.551750" lon="-4.828083">
        <ele>1388.0</ele>
        <time>2013-05-11T14:27:57Z</time>
      </trkpt>
      <trkpt lat="40.551767" lon="-4.828050">
        <ele>1389.0</ele>
        <time>2013-05-11T14:27:58Z</time>
      </trkpt>
      <trkpt lat="40.551783" lon="-4.828000">
        <ele>1389.0</ele>
        <time>2013-05-11T14:27:59Z</time>
      </trkpt>
      <trkpt lat="40.551800" lon="-4.827933">
        <ele>1388.0</ele>
        <time>2013-05-11T14:28:00Z</time>
      </trkpt>
      <trkpt lat="40.551817" lon="-4.827850">
        <ele>1387.0</ele>
        <time>2013-05-11T14:28:01Z</time>
      </trkpt>
      <trkpt lat="40.551817" lon="-4.827733">
        <ele>1386.0</ele>
        <time>2013-05-11T14:28:02Z</time>
      </trkpt>
      <trkpt lat="40.551800" lon="-4.827600">
        <ele>1385.0</ele>
        <time>2013-05-11T14:28:03Z</time>
      </trkpt>
      <trkpt lat="40.551767" lon="-4.827483">
        <ele>1385.0</ele>
        <time>2013-05-11T14:28:04Z</time>
      </trkpt>
      <trkpt lat="40.551733" lon="-4.827367">
        <ele>1385.0</ele>
        <time>2013-05-11T14:28:05Z</time>
      </trkpt>
      <trkpt lat="40.551683" lon="-4.827250">
        <ele>1386.0</ele>
        <time>2013-05-11T14:28:06Z</time>
      </trkpt>
      <trkpt lat="40.551633" lon="-4.827133">
        <ele>1385.0</ele>
        <time>2013-05-11T14:28:07Z</time>
      </trkpt>
      <trkpt lat="40.551567" lon="-4.827000">
        <ele>1385.0</ele>
        <time>2013-05-11T14:28:08Z</time>
      </trkpt>
      <trkpt lat="40.551483" lon="-4.826900">
        <ele>1385.0</ele>
        <time>2013-05-11T14:28:09Z</time>
      </trkpt>
      <trkpt lat="40.551417" lon="-4.826800">
        <ele>1385.0</ele>
        <time>2013-05-11T14:28:10Z</time>
      </trkpt>
      <trkpt lat="40.551317" lon="-4.826733">
        <ele>1385.0</ele>
        <time>2013-05-11T14:28:11Z</time>
      </trkpt>
      <trkpt lat="40.551200" lon="-4.826667">
        <ele>1384.0</ele>
        <time>2013-05-11T14:28:12Z</time>
      </trkpt>
      <trkpt lat="40.551067" lon="-4.826667">
        <ele>1383.0</ele>
        <time>2013-05-11T14:28:13Z</time>
      </trkpt>
      <trkpt lat="40.550933" lon="-4.826700">
        <ele>1384.0</ele>
        <time>2013-05-11T14:28:14Z</time>
      </trkpt>
      <trkpt lat="40.550833" lon="-4.826750">
        <ele>1384.0</ele>
        <time>2013-05-11T14:28:15Z</time>
      </trkpt>
      <trkpt lat="40.550750" lon="-4.826833">
        <ele>1385.0</ele>
        <time>2013-05-11T14:28:16Z</time>
      </trkpt>
      <trkpt lat="40.550650" lon="-4.826900">
        <ele>1384.0</ele>
        <time>2013-05-11T14:28:17Z</time>
      </trkpt>
      <trkpt lat="40.550567" lon="-4.827017">
        <ele>1383.0</ele>
        <time>2013-05-11T14:28:18Z</time>
      </trkpt>
      <trkpt lat="40.550500" lon="-4.827133">
        <ele>1381.0</ele>
        <time>2013-05-11T14:28:19Z</time>
      </trkpt>
      <trkpt lat="40.550450" lon="-4.827267">
        <ele>1378.0</ele>
        <time>2013-05-11T14:28:20Z</time>
      </trkpt>
      <trkpt lat="40.550450" lon="-4.827400">
        <ele>1376.0</ele>
        <time>2013-05-11T14:28:21Z</time>
      </trkpt>
      <trkpt lat="40.550483" lon="-4.827500">
        <ele>1375.0</ele>
        <time>2013-05-11T14:28:22Z</time>
      </trkpt>
      <trkpt lat="40.550517" lon="-4.827567">
        <ele>1375.0</ele>
        <time>2013-05-11T14:28:23Z</time>
      </trkpt>
      <trkpt lat="40.550550" lon="-4.827617">
        <ele>1375.0</ele>
        <time>2013-05-11T14:28:24Z</time>
      </trkpt>
      <trkpt lat="40.550583" lon="-4.827633">
        <ele>1376.0</ele>
        <time>2013-05-11T14:28:25Z</time>
      </trkpt>
      <trkpt lat="40.550600" lon="-4.827650">
        <ele>1376.0</ele>
        <time>2013-05-11T14:28:26Z</time>
      </trkpt>
      <trkpt lat="40.550650" lon="-4.827633">
        <ele>1375.0</ele>
        <time>2013-05-11T14:28:27Z</time>
      </trkpt>
      <trkpt lat="40.550683" lon="-4.827617">
        <ele>1375.0</ele>
        <time>2013-05-11T14:28:28Z</time>
      </trkpt>
      <trkpt lat="40.550717" lon="-4.827583">
        <ele>1376.0</ele>
        <time>2013-05-11T14:28:29Z</time>
      </trkpt>
      <trkpt lat="40.550733" lon="-4.827533">
        <ele>1377.0</ele>
        <time>2013-05-11T14:28:30Z</time>
      </trkpt>
      <trkpt lat="40.550767" lon="-4.827483">
        <ele>1379.0</ele>
        <time>2013-05-11T14:28:31Z</time>
      </trkpt>
      <trkpt lat="40.550783" lon="-4.827417">
        <ele>1379.0</ele>
        <time>2013-05-11T14:28:32Z</time>
      </trkpt>
      <trkpt lat="40.550817" lon="-4.827350">
        <ele>1380.0</ele>
        <time>2013-05-11T14:28:33Z</time>
      </trkpt>
      <trkpt lat="40.550833" lon="-4.827283">
        <ele>1381.0</ele>
        <time>2013-05-11T14:28:34Z</time>
      </trkpt>
      <trkpt lat="40.550850" lon="-4.827167">
        <ele>1381.0</ele>
        <time>2013-05-11T14:28:35Z</time>
      </trkpt>
      <trkpt lat="40.550833" lon="-4.827067">
        <ele>1382.0</ele>
        <time>2013-05-11T14:28:36Z</time>
      </trkpt>
      <trkpt lat="40.550817" lon="-4.826967">
        <ele>1383.0</ele>
        <time>2013-05-11T14:28:37Z</time>
      </trkpt>
      <trkpt lat="40.550800" lon="-4.826867">
        <ele>1383.0</ele>
        <time>2013-05-11T14:28:38Z</time>
      </trkpt>
      <trkpt lat="40.550800" lon="-4.826767">
        <ele>1383.0</ele>
        <time>2013-05-11T14:28:39Z</time>
      </trkpt>
      <trkpt lat="40.550783" lon="-4.826667">
        <ele>1382.0</ele>
        <time>2013-05-11T14:28:40Z</time>
      </trkpt>
      <trkpt lat="40.550767" lon="-4.826533">
        <ele>1380.0</ele>
        <time>2013-05-11T14:28:41Z</time>
      </trkpt>
      <trkpt lat="40.550733" lon="-4.826400">
        <ele>1379.0</ele>
        <time>2013-05-11T14:28:42Z</time>
      </trkpt>
      <trkpt lat="40.550700" lon="-4.826267">
        <ele>1380.0</ele>
        <time>2013-05-11T14:28:43Z</time>
      </trkpt>
      <trkpt lat="40.550667" lon="-4.826150">
        <ele>1380.0</ele>
        <time>2013-05-11T14:28:44Z</time>
      </trkpt>
      <trkpt lat="40.550633" lon="-4.826050">
        <ele>1381.0</ele>
        <time>2013-05-11T14:28:45Z</time>
      </trkpt>
      <trkpt lat="40.550600" lon="-4.825950">
        <ele>1380.0</ele>
        <time>2013-05-11T14:28:46Z</time>
      </trkpt>
      <trkpt lat="40.550550" lon="-4.825833">
        <ele>1379.0</ele>
        <time>2013-05-11T14:28:47Z</time>
      </trkpt>
      <trkpt lat="40.550500" lon="-4.825717">
        <ele>1377.0</ele>
        <time>2013-05-11T14:28:48Z</time>
      </trkpt>
      <trkpt lat="40.550433" lon="-4.825583">
        <ele>1376.0</ele>
        <time>2013-05-11T14:28:49Z</time>
      </trkpt>
      <trkpt lat="40.550367" lon="-4.825467">
        <ele>1376.0</ele>
        <time>2013-05-11T14:28:50Z</time>
      </trkpt>
      <trkpt lat="40.550300" lon="-4.825367">
        <ele>1376.0</ele>
        <time>2013-05-11T14:28:51Z</time>
      </trkpt>
      <trkpt lat="40.550233" lon="-4.825267">
        <ele>1376.0</ele>
        <time>2013-05-11T14:28:52Z</time>
      </trkpt>
      <trkpt lat="40.550150" lon="-4.825183">
        <ele>1375.0</ele>
        <time>2013-05-11T14:28:53Z</time>
      </trkpt>
      <trkpt lat="40.550067" lon="-4.825083">
        <ele>1373.0</ele>
        <time>2013-05-11T14:28:54Z</time>
      </trkpt>
      <trkpt lat="40.549950" lon="-4.825000">
        <ele>1370.0</ele>
        <time>2013-05-11T14:28:55Z</time>
      </trkpt>
      <trkpt lat="40.549833" lon="-4.824917">
        <ele>1369.0</ele>
        <time>2013-05-11T14:28:56Z</time>
      </trkpt>
      <trkpt lat="40.549717" lon="-4.824850">
        <ele>1369.0</ele>
        <time>2013-05-11T14:28:57Z</time>
      </trkpt>
      <trkpt lat="40.549583" lon="-4.824817">
        <ele>1368.0</ele>
        <time>2013-05-11T14:28:58Z</time>
      </trkpt>
      <trkpt lat="40.549467" lon="-4.824800">
        <ele>1368.0</ele>
        <time>2013-05-11T14:28:59Z</time>
      </trkpt>
      <trkpt lat="40.549333" lon="-4.824800">
        <ele>1367.0</ele>
        <time>2013-05-11T14:29:00Z</time>
      </trkpt>
      <trkpt lat="40.549217" lon="-4.824817">
        <ele>1365.0</ele>
        <time>2013-05-11T14:29:01Z</time>
      </trkpt>
      <trkpt lat="40.549083" lon="-4.824867">
        <ele>1364.0</ele>
        <time>2013-05-11T14:29:02Z</time>
      </trkpt>
      <trkpt lat="40.548983" lon="-4.824950">
        <ele>1362.0</ele>
        <time>2013-05-11T14:29:03Z</time>
      </trkpt>
      <trkpt lat="40.548883" lon="-4.825067">
        <ele>1361.0</ele>
        <time>2013-05-11T14:29:04Z</time>
      </trkpt>
      <trkpt lat="40.548833" lon="-4.825183">
        <ele>1360.0</ele>
        <time>2013-05-11T14:29:05Z</time>
      </trkpt>
      <trkpt lat="40.548800" lon="-4.825300">
        <ele>1358.0</ele>
        <time>2013-05-11T14:29:06Z</time>
      </trkpt>
      <trkpt lat="40.548783" lon="-4.825433">
        <ele>1356.0</ele>
        <time>2013-05-11T14:29:07Z</time>
      </trkpt>
      <trkpt lat="40.548800" lon="-4.825533">
        <ele>1355.0</ele>
        <time>2013-05-11T14:29:08Z</time>
      </trkpt>
      <trkpt lat="40.548817" lon="-4.825633">
        <ele>1354.0</ele>
        <time>2013-05-11T14:29:09Z</time>
      </trkpt>
      <trkpt lat="40.548833" lon="-4.825700">
        <ele>1354.0</ele>
        <time>2013-05-11T14:29:10Z</time>
      </trkpt>
      <trkpt lat="40.548867" lon="-4.825733">
        <ele>1354.0</ele>
        <time>2013-05-11T14:29:11Z</time>
      </trkpt>
      <trkpt lat="40.548917" lon="-4.825767">
        <ele>1354.0</ele>
        <time>2013-05-11T14:29:12Z</time>
      </trkpt>
      <trkpt lat="40.548933" lon="-4.825783">
        <ele>1354.0</ele>
        <time>2013-05-11T14:29:13Z</time>
      </trkpt>
      <trkpt lat="40.548967" lon="-4.825800">
        <ele>1354.0</ele>
        <time>2013-05-11T14:29:14Z</time>
      </trkpt>
      <trkpt lat="40.549000" lon="-4.825783">
        <ele>1353.0</ele>
        <time>2013-05-11T14:29:15Z</time>
      </trkpt>
      <trkpt lat="40.549033" lon="-4.825767">
        <ele>1351.0</ele>
        <time>2013-05-11T14:29:16Z</time>
      </trkpt>
      <trkpt lat="40.549067" lon="-4.825750">
        <ele>1350.0</ele>
        <time>2013-05-11T14:29:17Z</time>
      </trkpt>
      <trkpt lat="40.549100" lon="-4.825700">
        <ele>1349.0</ele>
        <time>2013-05-11T14:29:18Z</time>
      </trkpt>
      <trkpt lat="40.549150" lon="-4.825667">
        <ele>1348.0</ele>
        <time>2013-05-11T14:29:19Z</time>
      </trkpt>
      <trkpt lat="40.549183" lon="-4.825617">
        <ele>1348.0</ele>
        <time>2013-05-11T14:29:20Z</time>
      </trkpt>
      <trkpt lat="40.549233" lon="-4.825583">
        <ele>1348.0</ele>
        <time>2013-05-11T14:29:21Z</time>
      </trkpt>
      <trkpt lat="40.549267" lon="-4.825550">
        <ele>1348.0</ele>
        <time>2013-05-11T14:29:22Z</time>
      </trkpt>
      <trkpt lat="40.549300" lon="-4.825517">
        <ele>1349.0</ele>
        <time>2013-05-11T14:29:23Z</time>
      </trkpt>
      <trkpt lat="40.549317" lon="-4.825483">
        <ele>1350.0</ele>
        <time>2013-05-11T14:29:24Z</time>
      </trkpt>
      <trkpt lat="40.549350" lon="-4.825450">
        <ele>1350.0</ele>
        <time>2013-05-11T14:29:25Z</time>
      </trkpt>
      <trkpt lat="40.549367" lon="-4.825433">
        <ele>1349.0</ele>
        <time>2013-05-11T14:29:26Z</time>
      </trkpt>
      <trkpt lat="40.549417" lon="-4.825433">
        <ele>1348.0</ele>
        <time>2013-05-11T14:29:27Z</time>
      </trkpt>
      <trkpt lat="40.549450" lon="-4.825450">
        <ele>1346.0</ele>
        <time>2013-05-11T14:29:28Z</time>
      </trkpt>
      <trkpt lat="40.549483" lon="-4.825467">
        <ele>1346.0</ele>
        <time>2013-05-11T14:29:29Z</time>
      </trkpt>
      <trkpt lat="40.549533" lon="-4.825483">
        <ele>1346.0</ele>
        <time>2013-05-11T14:29:30Z</time>
      </trkpt>
      <trkpt lat="40.549567" lon="-4.825483">
        <ele>1346.0</ele>
        <time>2013-05-11T14:29:31Z</time>
      </trkpt>
      <trkpt lat="40.549617" lon="-4.825450">
        <ele>1346.0</ele>
        <time>2013-05-11T14:29:32Z</time>
      </trkpt>
      <trkpt lat="40.549650" lon="-4.825417">
        <ele>1345.0</ele>
        <time>2013-05-11T14:29:33Z</time>
      </trkpt>
      <trkpt lat="40.549683" lon="-4.825383">
        <ele>1344.0</ele>
        <time>2013-05-11T14:29:34Z</time>
      </trkpt>
      <trkpt lat="40.549717" lon="-4.825367">
        <ele>1343.0</ele>
        <time>2013-05-11T14:29:35Z</time>
      </trkpt>
      <trkpt lat="40.549767" lon="-4.825367">
        <ele>1341.0</ele>
        <time>2013-05-11T14:29:36Z</time>
      </trkpt>
      <trkpt lat="40.549817" lon="-4.825367">
        <ele>1340.0</ele>
        <time>2013-05-11T14:29:37Z</time>
      </trkpt>
      <trkpt lat="40.549867" lon="-4.825350">
        <ele>1339.0</ele>
        <time>2013-05-11T14:29:38Z</time>
      </trkpt>
      <trkpt lat="40.549917" lon="-4.825367">
        <ele>1338.0</ele>
        <time>2013-05-11T14:29:39Z</time>
      </trkpt>
      <trkpt lat="40.549950" lon="-4.825383">
        <ele>1338.0</ele>
        <time>2013-05-11T14:29:40Z</time>
      </trkpt>
      <trkpt lat="40.550000" lon="-4.825417">
        <ele>1338.0</ele>
        <time>2013-05-11T14:29:41Z</time>
      </trkpt>
      <trkpt lat="40.550033" lon="-4.825433">
        <ele>1338.0</ele>
        <time>2013-05-11T14:29:42Z</time>
      </trkpt>
      <trkpt lat="40.550083" lon="-4.825450">
        <ele>1338.0</ele>
        <time>2013-05-11T14:29:43Z</time>
      </trkpt>
      <trkpt lat="40.550133" lon="-4.825467">
        <ele>1338.0</ele>
        <time>2013-05-11T14:29:44Z</time>
      </trkpt>
      <trkpt lat="40.550167" lon="-4.825483">
        <ele>1338.0</ele>
        <time>2013-05-11T14:29:45Z</time>
      </trkpt>
      <trkpt lat="40.550217" lon="-4.825500">
        <ele>1338.0</ele>
        <time>2013-05-11T14:29:46Z</time>
      </trkpt>
      <trkpt lat="40.550267" lon="-4.825517">
        <ele>1337.0</ele>
        <time>2013-05-11T14:29:47Z</time>
      </trkpt>
      <trkpt lat="40.550317" lon="-4.825533">
        <ele>1336.0</ele>
        <time>2013-05-11T14:29:48Z</time>
      </trkpt>
      <trkpt lat="40.550383" lon="-4.825533">
        <ele>1335.0</ele>
        <time>2013-05-11T14:29:49Z</time>
      </trkpt>
      <trkpt lat="40.550450" lon="-4.825550">
        <ele>1336.0</ele>
        <time>2013-05-11T14:29:50Z</time>
      </trkpt>
      <trkpt lat="40.550500" lon="-4.825550">
        <ele>1337.0</ele>
        <time>2013-05-11T14:29:51Z</time>
      </trkpt>
      <trkpt lat="40.550550" lon="-4.825533">
        <ele>1337.0</ele>
        <time>2013-05-11T14:29:52Z</time>
      </trkpt>
      <trkpt lat="40.550600" lon="-4.825533">
        <ele>1336.0</ele>
        <time>2013-05-11T14:29:53Z</time>
      </trkpt>
      <trkpt lat="40.550650" lon="-4.825533">
        <ele>1335.0</ele>
        <time>2013-05-11T14:29:54Z</time>
      </trkpt>
      <trkpt lat="40.550700" lon="-4.825550">
        <ele>1333.0</ele>
        <time>2013-05-11T14:29:55Z</time>
      </trkpt>
      <trkpt lat="40.550750" lon="-4.825567">
        <ele>1332.0</ele>
        <time>2013-05-11T14:29:56Z</time>
      </trkpt>
      <trkpt lat="40.550800" lon="-4.825583">
        <ele>1331.0</ele>
        <time>2013-05-11T14:29:57Z</time>
      </trkpt>
      <trkpt lat="40.550867" lon="-4.825600">
        <ele>1331.0</ele>
        <time>2013-05-11T14:29:58Z</time>
      </trkpt>
      <trkpt lat="40.550917" lon="-4.825633">
        <ele>1330.0</ele>
        <time>2013-05-11T14:29:59Z</time>
      </trkpt>
      <trkpt lat="40.550983" lon="-4.825650">
        <ele>1330.0</ele>
        <time>2013-05-11T14:30:00Z</time>
      </trkpt>
      <trkpt lat="40.551033" lon="-4.825683">
        <ele>1330.0</ele>
        <time>2013-05-11T14:30:01Z</time>
      </trkpt>
      <trkpt lat="40.551100" lon="-4.825700">
        <ele>1330.0</ele>
        <time>2013-05-11T14:30:02Z</time>
      </trkpt>
      <trkpt lat="40.551133" lon="-4.825717">
        <ele>1331.0</ele>
        <time>2013-05-11T14:30:03Z</time>
      </trkpt>
      <trkpt lat="40.551167" lon="-4.825733">
        <ele>1332.0</ele>
        <time>2013-05-11T14:30:04Z</time>
      </trkpt>
      <trkpt lat="40.551200" lon="-4.825750">
        <ele>1332.0</ele>
        <time>2013-05-11T14:30:05Z</time>
      </trkpt>
      <trkpt lat="40.551233" lon="-4.825750">
        <ele>1331.0</ele>
        <time>2013-05-11T14:30:06Z</time>
      </trkpt>
      <trkpt lat="40.551283" lon="-4.825767">
        <ele>1330.0</ele>
        <time>2013-05-11T14:30:07Z</time>
      </trkpt>
      <trkpt lat="40.551333" lon="-4.825767">
        <ele>1329.0</ele>
        <time>2013-05-11T14:30:08Z</time>
      </trkpt>
      <trkpt lat="40.551383" lon="-4.825767">
        <ele>1329.0</ele>
        <time>2013-05-11T14:30:09Z</time>
      </trkpt>
      <trkpt lat="40.551433" lon="-4.825783">
        <ele>1329.0</ele>
        <time>2013-05-11T14:30:10Z</time>
      </trkpt>
      <trkpt lat="40.551483" lon="-4.825783">
        <ele>1330.0</ele>
        <time>2013-05-11T14:30:11Z</time>
      </trkpt>
      <trkpt lat="40.551533" lon="-4.825800">
        <ele>1330.0</ele>
        <time>2013-05-11T14:30:12Z</time>
      </trkpt>
      <trkpt lat="40.551567" lon="-4.825817">
        <ele>1330.0</ele>
        <time>2013-05-11T14:30:13Z</time>
      </trkpt>
      <trkpt lat="40.551600" lon="-4.825817">
        <ele>1329.0</ele>
        <time>2013-05-11T14:30:14Z</time>
      </trkpt>
      <trkpt lat="40.551650" lon="-4.825833">
        <ele>1328.0</ele>
        <time>2013-05-11T14:30:15Z</time>
      </trkpt>
      <trkpt lat="40.551683" lon="-4.825867">
        <ele>1327.0</ele>
        <time>2013-05-11T14:30:16Z</time>
      </trkpt>
      <trkpt lat="40.551717" lon="-4.825900">
        <ele>1326.0</ele>
        <time>2013-05-11T14:30:17Z</time>
      </trkpt>
      <trkpt lat="40.551767" lon="-4.825917">
        <ele>1326.0</ele>
        <time>2013-05-11T14:30:18Z</time>
      </trkpt>
      <trkpt lat="40.551800" lon="-4.825933">
        <ele>1325.0</ele>
        <time>2013-05-11T14:30:19Z</time>
      </trkpt>
      <trkpt lat="40.551833" lon="-4.825950">
        <ele>1323.0</ele>
        <time>2013-05-11T14:30:20Z</time>
      </trkpt>
      <trkpt lat="40.551883" lon="-4.825967">
        <ele>1322.0</ele>
        <time>2013-05-11T14:30:21Z</time>
      </trkpt>
      <trkpt lat="40.551933" lon="-4.826000">
        <ele>1322.0</ele>
        <time>2013-05-11T14:30:22Z</time>
      </trkpt>
      <trkpt lat="40.551983" lon="-4.826017">
        <ele>1322.0</ele>
        <time>2013-05-11T14:30:23Z</time>
      </trkpt>
      <trkpt lat="40.552033" lon="-4.826050">
        <ele>1322.0</ele>
        <time>2013-05-11T14:30:24Z</time>
      </trkpt>
      <trkpt lat="40.552083" lon="-4.826067">
        <ele>1323.0</ele>
        <time>2013-05-11T14:30:25Z</time>
      </trkpt>
      <trkpt lat="40.552133" lon="-4.826083">
        <ele>1323.0</ele>
        <time>2013-05-11T14:30:26Z</time>
      </trkpt>
      <trkpt lat="40.552167" lon="-4.826083">
        <ele>1323.0</ele>
        <time>2013-05-11T14:30:27Z</time>
      </trkpt>
      <trkpt lat="40.552233" lon="-4.826083">
        <ele>1323.0</ele>
        <time>2013-05-11T14:30:28Z</time>
      </trkpt>
      <trkpt lat="40.552283" lon="-4.826100">
        <ele>1324.0</ele>
        <time>2013-05-11T14:30:29Z</time>
      </trkpt>
      <trkpt lat="40.552350" lon="-4.826117">
        <ele>1325.0</ele>
        <time>2013-05-11T14:30:30Z</time>
      </trkpt>
      <trkpt lat="40.552400" lon="-4.826150">
        <ele>1326.0</ele>
        <time>2013-05-11T14:30:31Z</time>
      </trkpt>
      <trkpt lat="40.552433" lon="-4.826167">
        <ele>1327.0</ele>
        <time>2013-05-11T14:30:32Z</time>
      </trkpt>
      <trkpt lat="40.552467" lon="-4.826183">
        <ele>1326.0</ele>
        <time>2013-05-11T14:30:33Z</time>
      </trkpt>
      <trkpt lat="40.552517" lon="-4.826217">
        <ele>1323.0</ele>
        <time>2013-05-11T14:30:34Z</time>
      </trkpt>
      <trkpt lat="40.552550" lon="-4.826233">
        <ele>1321.0</ele>
        <time>2013-05-11T14:30:35Z</time>
      </trkpt>
      <trkpt lat="40.552600" lon="-4.826267">
        <ele>1320.0</ele>
        <time>2013-05-11T14:30:36Z</time>
      </trkpt>
      <trkpt lat="40.552650" lon="-4.826300">
        <ele>1318.0</ele>
        <time>2013-05-11T14:30:37Z</time>
      </trkpt>
      <trkpt lat="40.552683" lon="-4.826317">
        <ele>1317.0</ele>
        <time>2013-05-11T14:30:38Z</time>
      </trkpt>
      <trkpt lat="40.552733" lon="-4.826333">
        <ele>1316.0</ele>
        <time>2013-05-11T14:30:39Z</time>
      </trkpt>
      <trkpt lat="40.552767" lon="-4.826350">
        <ele>1314.0</ele>
        <time>2013-05-11T14:30:40Z</time>
      </trkpt>
      <trkpt lat="40.552817" lon="-4.826383">
        <ele>1312.0</ele>
        <time>2013-05-11T14:30:41Z</time>
      </trkpt>
      <trkpt lat="40.552867" lon="-4.826400">
        <ele>1310.0</ele>
        <time>2013-05-11T14:30:42Z</time>
      </trkpt>
      <trkpt lat="40.552917" lon="-4.826433">
        <ele>1308.0</ele>
        <time>2013-05-11T14:30:43Z</time>
      </trkpt>
      <trkpt lat="40.552967" lon="-4.826467">
        <ele>1306.0</ele>
        <time>2013-05-11T14:30:44Z</time>
      </trkpt>
      <trkpt lat="40.553017" lon="-4.826467">
        <ele>1305.0</ele>
        <time>2013-05-11T14:30:45Z</time>
      </trkpt>
      <trkpt lat="40.553067" lon="-4.826483">
        <ele>1303.0</ele>
        <time>2013-05-11T14:30:46Z</time>
      </trkpt>
      <trkpt lat="40.553117" lon="-4.826500">
        <ele>1302.0</ele>
        <time>2013-05-11T14:30:47Z</time>
      </trkpt>
      <trkpt lat="40.553167" lon="-4.826517">
        <ele>1300.0</ele>
        <time>2013-05-11T14:30:48Z</time>
      </trkpt>
      <trkpt lat="40.553217" lon="-4.826533">
        <ele>1299.0</ele>
        <time>2013-05-11T14:30:49Z</time>
      </trkpt>
      <trkpt lat="40.553250" lon="-4.826550">
        <ele>1297.0</ele>
        <time>2013-05-11T14:30:50Z</time>
      </trkpt>
      <trkpt lat="40.553317" lon="-4.826550">
        <ele>1295.0</ele>
        <time>2013-05-11T14:30:51Z</time>
      </trkpt>
      <trkpt lat="40.553367" lon="-4.826567">
        <ele>1293.0</ele>
        <time>2013-05-11T14:30:52Z</time>
      </trkpt>
      <trkpt lat="40.553417" lon="-4.826600">
        <ele>1293.0</ele>
        <time>2013-05-11T14:30:53Z</time>
      </trkpt>
      <trkpt lat="40.553450" lon="-4.826617">
        <ele>1292.0</ele>
        <time>2013-05-11T14:30:54Z</time>
      </trkpt>
      <trkpt lat="40.553500" lon="-4.826617">
        <ele>1291.0</ele>
        <time>2013-05-11T14:30:55Z</time>
      </trkpt>
      <trkpt lat="40.553550" lon="-4.826617">
        <ele>1289.0</ele>
        <time>2013-05-11T14:30:56Z</time>
      </trkpt>
      <trkpt lat="40.553600" lon="-4.826617">
        <ele>1287.0</ele>
        <time>2013-05-11T14:30:57Z</time>
      </trkpt>
      <trkpt lat="40.553667" lon="-4.826617">
        <ele>1285.0</ele>
        <time>2013-05-11T14:30:58Z</time>
      </trkpt>
      <trkpt lat="40.553717" lon="-4.826617">
        <ele>1285.0</ele>
        <time>2013-05-11T14:30:59Z</time>
      </trkpt>
      <trkpt lat="40.553767" lon="-4.826600">
        <ele>1284.0</ele>
        <time>2013-05-11T14:31:00Z</time>
      </trkpt>
      <trkpt lat="40.553817" lon="-4.826583">
        <ele>1283.0</ele>
        <time>2013-05-11T14:31:01Z</time>
      </trkpt>
      <trkpt lat="40.553867" lon="-4.826567">
        <ele>1281.0</ele>
        <time>2013-05-11T14:31:02Z</time>
      </trkpt>
      <trkpt lat="40.553917" lon="-4.826567">
        <ele>1279.0</ele>
        <time>2013-05-11T14:31:03Z</time>
      </trkpt>
      <trkpt lat="40.553967" lon="-4.826567">
        <ele>1277.0</ele>
        <time>2013-05-11T14:31:04Z</time>
      </trkpt>
      <trkpt lat="40.554017" lon="-4.826583">
        <ele>1276.0</ele>
        <time>2013-05-11T14:31:05Z</time>
      </trkpt>
      <trkpt lat="40.554067" lon="-4.826600">
        <ele>1275.0</ele>
        <time>2013-05-11T14:31:06Z</time>
      </trkpt>
      <trkpt lat="40.554117" lon="-4.826600">
        <ele>1273.0</ele>
        <time>2013-05-11T14:31:07Z</time>
      </trkpt>
      <trkpt lat="40.554183" lon="-4.826600">
        <ele>1271.0</ele>
        <time>2013-05-11T14:31:08Z</time>
      </trkpt>
      <trkpt lat="40.554250" lon="-4.826600">
        <ele>1269.0</ele>
        <time>2013-05-11T14:31:09Z</time>
      </trkpt>
      <trkpt lat="40.554317" lon="-4.826617">
        <ele>1268.0</ele>
        <time>2013-05-11T14:31:10Z</time>
      </trkpt>
      <trkpt lat="40.554367" lon="-4.826633">
        <ele>1267.0</ele>
        <time>2013-05-11T14:31:11Z</time>
      </trkpt>
      <trkpt lat="40.554417" lon="-4.826633">
        <ele>1267.0</ele>
        <time>2013-05-11T14:31:12Z</time>
      </trkpt>
      <trkpt lat="40.554450" lon="-4.826633">
        <ele>1266.0</ele>
        <time>2013-05-11T14:31:13Z</time>
      </trkpt>
      <trkpt lat="40.554483" lon="-4.826650">
        <ele>1263.0</ele>
        <time>2013-05-11T14:31:14Z</time>
      </trkpt>
      <trkpt lat="40.554533" lon="-4.826667">
        <ele>1260.0</ele>
        <time>2013-05-11T14:31:15Z</time>
      </trkpt>
      <trkpt lat="40.554583" lon="-4.826683">
        <ele>1258.0</ele>
        <time>2013-05-11T14:31:16Z</time>
      </trkpt>
      <trkpt lat="40.554633" lon="-4.826717">
        <ele>1255.0</ele>
        <time>2013-05-11T14:31:17Z</time>
      </trkpt>
      <trkpt lat="40.554667" lon="-4.826767">
        <ele>1255.0</ele>
        <time>2013-05-11T14:31:18Z</time>
      </trkpt>
      <trkpt lat="40.554683" lon="-4.826800">
        <ele>1254.0</ele>
        <time>2013-05-11T14:31:19Z</time>
      </trkpt>
      <trkpt lat="40.554717" lon="-4.826833">
        <ele>1253.0</ele>
        <time>2013-05-11T14:31:20Z</time>
      </trkpt>
      <trkpt lat="40.554750" lon="-4.826883">
        <ele>1251.0</ele>
        <time>2013-05-11T14:31:21Z</time>
      </trkpt>
      <trkpt lat="40.554783" lon="-4.826917">
        <ele>1250.0</ele>
        <time>2013-05-11T14:31:22Z</time>
      </trkpt>
      <trkpt lat="40.554833" lon="-4.826933">
        <ele>1250.0</ele>
        <time>2013-05-11T14:31:23Z</time>
      </trkpt>
      <trkpt lat="40.554867" lon="-4.826967">
        <ele>1250.0</ele>
        <time>2013-05-11T14:31:24Z</time>
      </trkpt>
      <trkpt lat="40.554900" lon="-4.826983">
        <ele>1250.0</ele>
        <time>2013-05-11T14:31:25Z</time>
      </trkpt>
      <trkpt lat="40.554933" lon="-4.827017">
        <ele>1249.0</ele>
        <time>2013-05-11T14:31:26Z</time>
      </trkpt>
      <trkpt lat="40.554983" lon="-4.827033">
        <ele>1248.0</ele>
        <time>2013-05-11T14:31:27Z</time>
      </trkpt>
      <trkpt lat="40.555050" lon="-4.827050">
        <ele>1247.0</ele>
        <time>2013-05-11T14:31:28Z</time>
      </trkpt>
      <trkpt lat="40.555100" lon="-4.827050">
        <ele>1247.0</ele>
        <time>2013-05-11T14:31:29Z</time>
      </trkpt>
      <trkpt lat="40.555150" lon="-4.827067">
        <ele>1247.0</ele>
        <time>2013-05-11T14:31:30Z</time>
      </trkpt>
      <trkpt lat="40.555200" lon="-4.827067">
        <ele>1246.0</ele>
        <time>2013-05-11T14:31:31Z</time>
      </trkpt>
      <trkpt lat="40.555233" lon="-4.827050">
        <ele>1245.0</ele>
        <time>2013-05-11T14:31:32Z</time>
      </trkpt>
      <trkpt lat="40.555267" lon="-4.827033">
        <ele>1243.0</ele>
        <time>2013-05-11T14:31:33Z</time>
      </trkpt>
      <trkpt lat="40.555317" lon="-4.827050">
        <ele>1240.0</ele>
        <time>2013-05-11T14:31:34Z</time>
      </trkpt>
      <trkpt lat="40.555367" lon="-4.827067">
        <ele>1236.0</ele>
        <time>2013-05-11T14:31:35Z</time>
      </trkpt>
      <trkpt lat="40.555433" lon="-4.827100">
        <ele>1234.0</ele>
        <time>2013-05-11T14:31:36Z</time>
      </trkpt>
      <trkpt lat="40.555483" lon="-4.827133">
        <ele>1232.0</ele>
        <time>2013-05-11T14:31:37Z</time>
      </trkpt>
      <trkpt lat="40.555533" lon="-4.827133">
        <ele>1231.0</ele>
        <time>2013-05-11T14:31:38Z</time>
      </trkpt>
      <trkpt lat="40.555583" lon="-4.827150">
        <ele>1230.0</ele>
        <time>2013-05-11T14:31:39Z</time>
      </trkpt>
      <trkpt lat="40.555633" lon="-4.827150">
        <ele>1227.0</ele>
        <time>2013-05-11T14:31:40Z</time>
      </trkpt>
      <trkpt lat="40.555667" lon="-4.827167">
        <ele>1224.0</ele>
        <time>2013-05-11T14:31:41Z</time>
      </trkpt>
      <trkpt lat="40.555733" lon="-4.827183">
        <ele>1221.0</ele>
        <time>2013-05-11T14:31:42Z</time>
      </trkpt>
      <trkpt lat="40.555783" lon="-4.827200">
        <ele>1219.0</ele>
        <time>2013-05-11T14:31:43Z</time>
      </trkpt>
      <trkpt lat="40.555833" lon="-4.827200">
        <ele>1218.0</ele>
        <time>2013-05-11T14:31:44Z</time>
      </trkpt>
      <trkpt lat="40.555883" lon="-4.827183">
        <ele>1217.0</ele>
        <time>2013-05-11T14:31:45Z</time>
      </trkpt>
      <trkpt lat="40.555933" lon="-4.827183">
        <ele>1215.0</ele>
        <time>2013-05-11T14:31:46Z</time>
      </trkpt>
      <trkpt lat="40.555983" lon="-4.827183">
        <ele>1214.0</ele>
        <time>2013-05-11T14:31:47Z</time>
      </trkpt>
      <trkpt lat="40.556033" lon="-4.827183">
        <ele>1213.0</ele>
        <time>2013-05-11T14:31:48Z</time>
      </trkpt>
      <trkpt lat="40.556083" lon="-4.827183">
        <ele>1211.0</ele>
        <time>2013-05-11T14:31:49Z</time>
      </trkpt>
      <trkpt lat="40.556133" lon="-4.827167">
        <ele>1208.0</ele>
        <time>2013-05-11T14:31:50Z</time>
      </trkpt>
      <trkpt lat="40.556183" lon="-4.827150">
        <ele>1206.0</ele>
        <time>2013-05-11T14:31:51Z</time>
      </trkpt>
      <trkpt lat="40.556233" lon="-4.827117">
        <ele>1203.0</ele>
        <time>2013-05-11T14:31:52Z</time>
      </trkpt>
      <trkpt lat="40.556283" lon="-4.827083">
        <ele>1200.0</ele>
        <time>2013-05-11T14:31:53Z</time>
      </trkpt>
      <trkpt lat="40.556333" lon="-4.827050">
        <ele>1198.0</ele>
        <time>2013-05-11T14:31:54Z</time>
      </trkpt>
      <trkpt lat="40.556383" lon="-4.827017">
        <ele>1195.0</ele>
        <time>2013-05-11T14:31:55Z</time>
      </trkpt>
      <trkpt lat="40.556433" lon="-4.826967">
        <ele>1193.0</ele>
        <time>2013-05-11T14:31:56Z</time>
      </trkpt>
      <trkpt lat="40.556483" lon="-4.826933">
        <ele>1191.0</ele>
        <time>2013-05-11T14:31:57Z</time>
      </trkpt>
      <trkpt lat="40.556533" lon="-4.826883">
        <ele>1188.0</ele>
        <time>2013-05-11T14:31:58Z</time>
      </trkpt>
      <trkpt lat="40.556583" lon="-4.826867">
        <ele>1186.0</ele>
        <time>2013-05-11T14:31:59Z</time>
      </trkpt>
      <trkpt lat="40.556650" lon="-4.826833">
        <ele>1184.0</ele>
        <time>2013-05-11T14:32:00Z</time>
      </trkpt>
      <trkpt lat="40.556700" lon="-4.826817">
        <ele>1183.0</ele>
        <time>2013-05-11T14:32:01Z</time>
      </trkpt>
      <trkpt lat="40.556767" lon="-4.826800">
        <ele>1182.0</ele>
        <time>2013-05-11T14:32:02Z</time>
      </trkpt>
      <trkpt lat="40.556817" lon="-4.826800">
        <ele>1181.0</ele>
        <time>2013-05-11T14:32:03Z</time>
      </trkpt>
      <trkpt lat="40.556867" lon="-4.826817">
        <ele>1181.0</ele>
        <time>2013-05-11T14:32:04Z</time>
      </trkpt>
      <trkpt lat="40.556917" lon="-4.826817">
        <ele>1180.0</ele>
        <time>2013-05-11T14:32:05Z</time>
      </trkpt>
      <trkpt lat="40.556950" lon="-4.826833">
        <ele>1180.0</ele>
        <time>2013-05-11T14:32:06Z</time>
      </trkpt>
      <trkpt lat="40.556983" lon="-4.826833">
        <ele>1178.0</ele>
        <time>2013-05-11T14:32:07Z</time>
      </trkpt>
      <trkpt lat="40.557033" lon="-4.826867">
        <ele>1176.0</ele>
        <time>2013-05-11T14:32:08Z</time>
      </trkpt>
      <trkpt lat="40.557067" lon="-4.826900">
        <ele>1173.0</ele>
        <time>2013-05-11T14:32:09Z</time>
      </trkpt>
      <trkpt lat="40.557100" lon="-4.826950">
        <ele>1171.0</ele>
        <time>2013-05-11T14:32:10Z</time>
      </trkpt>
      <trkpt lat="40.557117" lon="-4.827033">
        <ele>1169.0</ele>
        <time>2013-05-11T14:32:11Z</time>
      </trkpt>
      <trkpt lat="40.557100" lon="-4.827100">
        <ele>1169.0</ele>
        <time>2013-05-11T14:32:12Z</time>
      </trkpt>
      <trkpt lat="40.557067" lon="-4.827183">
        <ele>1167.0</ele>
        <time>2013-05-11T14:32:13Z</time>
      </trkpt>
      <trkpt lat="40.557017" lon="-4.827250">
        <ele>1165.0</ele>
        <time>2013-05-11T14:32:14Z</time>
      </trkpt>
      <trkpt lat="40.556967" lon="-4.827317">
        <ele>1163.0</ele>
        <time>2013-05-11T14:32:15Z</time>
      </trkpt>
      <trkpt lat="40.556917" lon="-4.827383">
        <ele>1162.0</ele>
        <time>2013-05-11T14:32:16Z</time>
      </trkpt>
      <trkpt lat="40.556850" lon="-4.827467">
        <ele>1160.0</ele>
        <time>2013-05-11T14:32:17Z</time>
      </trkpt>
      <trkpt lat="40.556783" lon="-4.827533">
        <ele>1159.0</ele>
        <time>2013-05-11T14:32:18Z</time>
      </trkpt>
      <trkpt lat="40.556700" lon="-4.827583">
        <ele>1158.0</ele>
        <time>2013-05-11T14:32:19Z</time>
      </trkpt>
      <trkpt lat="40.556617" lon="-4.827633">
        <ele>1157.0</ele>
        <time>2013-05-11T14:32:20Z</time>
      </trkpt>
      <trkpt lat="40.556550" lon="-4.827683">
        <ele>1156.0</ele>
        <time>2013-05-11T14:32:21Z</time>
      </trkpt>
      <trkpt lat="40.556467" lon="-4.827733">
        <ele>1155.0</ele>
        <time>2013-05-11T14:32:22Z</time>
      </trkpt>
      <trkpt lat="40.556383" lon="-4.827783">
        <ele>1154.0</ele>
        <time>2013-05-11T14:32:23Z</time>
      </trkpt>
      <trkpt lat="40.556317" lon="-4.827833">
        <ele>1153.0</ele>
        <time>2013-05-11T14:32:24Z</time>
      </trkpt>
      <trkpt lat="40.556267" lon="-4.827883">
        <ele>1152.0</ele>
        <time>2013-05-11T14:32:25Z</time>
      </trkpt>
      <trkpt lat="40.556233" lon="-4.827950">
        <ele>1150.0</ele>
        <time>2013-05-11T14:32:26Z</time>
      </trkpt>
      <trkpt lat="40.556217" lon="-4.828033">
        <ele>1147.0</ele>
        <time>2013-05-11T14:32:27Z</time>
      </trkpt>
      <trkpt lat="40.556217" lon="-4.828117">
        <ele>1145.0</ele>
        <time>2013-05-11T14:32:28Z</time>
      </trkpt>
      <trkpt lat="40.556250" lon="-4.828183">
        <ele>1144.0</ele>
        <time>2013-05-11T14:32:29Z</time>
      </trkpt>
      <trkpt lat="40.556300" lon="-4.828217">
        <ele>1143.0</ele>
        <time>2013-05-11T14:32:30Z</time>
      </trkpt>
      <trkpt lat="40.556367" lon="-4.828200">
        <ele>1142.0</ele>
        <time>2013-05-11T14:32:31Z</time>
      </trkpt>
      <trkpt lat="40.556433" lon="-4.828133">
        <ele>1140.0</ele>
        <time>2013-05-11T14:32:32Z</time>
      </trkpt>
      <trkpt lat="40.556483" lon="-4.828033">
        <ele>1138.0</ele>
        <time>2013-05-11T14:32:33Z</time>
      </trkpt>
      <trkpt lat="40.556517" lon="-4.827900">
        <ele>1136.0</ele>
        <time>2013-05-11T14:32:34Z</time>
      </trkpt>
      <trkpt lat="40.556533" lon="-4.827800">
        <ele>1136.0</ele>
        <time>2013-05-11T14:32:35Z</time>
      </trkpt>
      <trkpt lat="40.556583" lon="-4.827700">
        <ele>1134.0</ele>
        <time>2013-05-11T14:32:36Z</time>
      </trkpt>
      <trkpt lat="40.556633" lon="-4.827650">
        <ele>1132.0</ele>
        <time>2013-05-11T14:32:37Z</time>
      </trkpt>
      <trkpt lat="40.556700" lon="-4.827633">
        <ele>1130.0</ele>
        <time>2013-05-11T14:32:38Z</time>
      </trkpt>
      <trkpt lat="40.556767" lon="-4.827633">
        <ele>1129.0</ele>
        <time>2013-05-11T14:32:39Z</time>
      </trkpt>
      <trkpt lat="40.556817" lon="-4.827667">
        <ele>1128.0</ele>
        <time>2013-05-11T14:32:40Z</time>
      </trkpt>
      <trkpt lat="40.556850" lon="-4.827683">
        <ele>1127.0</ele>
        <time>2013-05-11T14:32:41Z</time>
      </trkpt>
      <trkpt lat="40.556883" lon="-4.827700">
        <ele>1126.0</ele>
        <time>2013-05-11T14:32:42Z</time>
      </trkpt>
      <trkpt lat="40.556933" lon="-4.827717">
        <ele>1124.0</ele>
        <time>2013-05-11T14:32:43Z</time>
      </trkpt>
      <trkpt lat="40.556983" lon="-4.827733">
        <ele>1122.0</ele>
        <time>2013-05-11T14:32:44Z</time>
      </trkpt>
      <trkpt lat="40.557033" lon="-4.827767">
        <ele>1121.0</ele>
        <time>2013-05-11T14:32:45Z</time>
      </trkpt>
      <trkpt lat="40.557100" lon="-4.827767">
        <ele>1120.0</ele>
        <time>2013-05-11T14:32:46Z</time>
      </trkpt>
      <trkpt lat="40.557150" lon="-4.827767">
        <ele>1118.0</ele>
        <time>2013-05-11T14:32:47Z</time>
      </trkpt>
      <trkpt lat="40.557200" lon="-4.827767">
        <ele>1117.0</ele>
        <time>2013-05-11T14:32:48Z</time>
      </trkpt>
      <trkpt lat="40.557250" lon="-4.827767">
        <ele>1115.0</ele>
        <time>2013-05-11T14:32:49Z</time>
      </trkpt>
      <trkpt lat="40.557300" lon="-4.827750">
        <ele>1113.0</ele>
        <time>2013-05-11T14:32:50Z</time>
      </trkpt>
      <trkpt lat="40.557317" lon="-4.827750">
        <ele>1112.0</ele>
        <time>2013-05-11T14:32:51Z</time>
      </trkpt>
      <trkpt lat="40.557333" lon="-4.827733">
        <ele>1113.0</ele>
        <time>2013-05-11T14:32:52Z</time>
      </trkpt>
      <trkpt lat="40.557333" lon="-4.827717">
        <ele>1112.0</ele>
        <time>2013-05-11T14:32:53Z</time>
      </trkpt>
      <trkpt lat="40.557333" lon="-4.827717">
        <ele>1111.0</ele>
        <time>2013-05-11T14:32:54Z</time>
      </trkpt>
      <trkpt lat="40.557333" lon="-4.827717">
        <ele>1111.0</ele>
        <time>2013-05-11T14:32:55Z</time>
      </trkpt>
      <trkpt lat="40.557333" lon="-4.827717">
        <ele>1111.0</ele>
        <time>2013-05-11T14:32:56Z</time>
      </trkpt>
      <trkpt lat="40.557333" lon="-4.827717">
        <ele>1110.0</ele>
        <time>2013-05-11T14:32:57Z</time>
      </trkpt>
      <trkpt lat="40.557333" lon="-4.827717">
        <ele>1110.0</ele>
        <time>2013-05-11T14:32:58Z</time>
      </trkpt>
      <trkpt lat="40.557317" lon="-4.827717">
        <ele>1110.0</ele>
        <time>2013-05-11T14:32:59Z</time>
      </trkpt>
      <trkpt lat="40.557317" lon="-4.827717">
        <ele>1109.0</ele>
        <time>2013-05-11T14:33:00Z</time>
      </trkpt>
      <trkpt lat="40.557317" lon="-4.827717">
        <ele>1110.0</ele>
        <time>2013-05-11T14:33:01Z</time>
      </trkpt>
      <trkpt lat="40.557317" lon="-4.827717">
        <ele>1110.0</ele>
        <time>2013-05-11T14:33:02Z</time>
      </trkpt>
      <trkpt lat="40.557333" lon="-4.827717">
        <ele>1110.0</ele>
        <time>2013-05-11T14:33:03Z</time>
      </trkpt>
      <trkpt lat="40.557333" lon="-4.827717">
        <ele>1110.0</ele>
        <time>2013-05-11T14:33:04Z</time>
      </trkpt>
      <trkpt lat="40.557333" lon="-4.827717">
        <ele>1110.0</ele>
        <time>2013-05-11T14:33:05Z</time>
      </trkpt>
      <trkpt lat="40.557333" lon="-4.827717">
        <ele>1110.0</ele>
        <time>2013-05-11T14:33:06Z</time>
      </trkpt>
      <trkpt lat="40.557333" lon="-4.827717">
        <ele>1110.0</ele>
        <time>2013-05-11T14:33:07Z</time>
      </trkpt>
      <trkpt lat="40.557333" lon="-4.827717">
        <ele>1110.0</ele>
        <time>2013-05-11T14:33:08Z</time>
      </trkpt>
      <trkpt lat="40.557333" lon="-4.827717">
        <ele>1110.0</ele>
        <time>2013-05-11T14:33:09Z</time>
      </trkpt>
      <trkpt lat="40.557317" lon="-4.827717">
        <ele>1110.0</ele>
        <time>2013-05-11T14:33:10Z</time>
      </trkpt>
      <trkpt lat="40.557317" lon="-4.827717">
        <ele>1110.0</ele>
        <time>2013-05-11T14:33:11Z</time>
      </trkpt>
      <trkpt lat="40.557317" lon="-4.827733">
        <ele>1110.0</ele>
        <time>2013-05-11T14:33:12Z</time>
      </trkpt>
      <trkpt lat="40.557317" lon="-4.827733">
        <ele>1110.0</ele>
        <time>2013-05-11T14:33:13Z</time>
      </trkpt>
      <trkpt lat="40.557317" lon="-4.827733">
        <ele>1109.0</ele>
        <time>2013-05-11T14:33:14Z</time>
      </trkpt>
      <trkpt lat="40.557317" lon="-4.827733">
        <ele>1109.0</ele>
        <time>2013-05-11T14:33:15Z</time>
      </trkpt>
      <trkpt lat="40.557317" lon="-4.827733">
        <ele>1109.0</ele>
        <time>2013-05-11T14:33:16Z</time>
      </trkpt>
      <trkpt lat="40.557333" lon="-4.827733">
        <ele>1109.0</ele>
        <time>2013-05-11T14:33:17Z</time>
      </trkpt>
      <trkpt lat="40.557333" lon="-4.827717">
        <ele>1109.0</ele>
        <time>2013-05-11T14:33:18Z</time>
      </trkpt>
      <trkpt lat="40.557333" lon="-4.827700">
        <ele>1109.0</ele>
        <time>2013-05-11T14:33:19Z</time>
      </trkpt>
      <trkpt lat="40.557333" lon="-4.827683">
        <ele>1108.0</ele>
        <time>2013-05-11T14:33:20Z</time>
      </trkpt>
      <trkpt lat="40.557333" lon="-4.827683">
        <ele>1108.0</ele>
        <time>2013-05-11T14:33:21Z</time>
      </trkpt>
      <trkpt lat="40.557333" lon="-4.827683">
        <ele>1108.0</ele>
        <time>2013-05-11T14:33:22Z</time>
      </trkpt>
      <trkpt lat="40.557333" lon="-4.827667">
        <ele>1108.0</ele>
        <time>2013-05-11T14:33:23Z</time>
      </trkpt>
      <trkpt lat="40.557333" lon="-4.827650">
        <ele>1108.0</ele>
        <time>2013-05-11T14:33:24Z</time>
      </trkpt>
      <trkpt lat="40.557317" lon="-4.827633">
        <ele>1108.0</ele>
        <time>2013-05-11T14:33:25Z</time>
      </trkpt>
      <trkpt lat="40.557317" lon="-4.827617">
        <ele>1108.0</ele>
        <time>2013-05-11T14:33:26Z</time>
      </trkpt>
      <trkpt lat="40.557317" lon="-4.827633">
        <ele>1108.0</ele>
        <time>2013-05-11T14:33:27Z</time>
      </trkpt>
      <trkpt lat="40.557333" lon="-4.827633">
        <ele>1108.0</ele>
        <time>2013-05-11T14:33:28Z</time>
      </trkpt>
      <trkpt lat="40.557333" lon="-4.827633">
        <ele>1109.0</ele>
        <time>2013-05-11T14:33:29Z</time>
      </trkpt>
      <trkpt lat="40.557333" lon="-4.827633">
        <ele>1109.0</ele>
        <time>2013-05-11T14:33:30Z</time>
      </trkpt>
      <trkpt lat="40.557350" lon="-4.827633">
        <ele>1109.0</ele>
        <time>2013-05-11T14:33:31Z</time>
      </trkpt>
      <trkpt lat="40.557350" lon="-4.827633">
        <ele>1109.0</ele>
        <time>2013-05-11T14:33:32Z</time>
      </trkpt>
      <trkpt lat="40.557350" lon="-4.827650">
        <ele>1109.0</ele>
        <time>2013-05-11T14:33:33Z</time>
      </trkpt>
      <trkpt lat="40.557350" lon="-4.827650">
        <ele>1109.0</ele>
        <time>2013-05-11T14:33:34Z</time>
      </trkpt>
      <trkpt lat="40.557350" lon="-4.827650">
        <ele>1109.0</ele>
        <time>2013-05-11T14:33:35Z</time>
      </trkpt>
      <trkpt lat="40.557350" lon="-4.827650">
        <ele>1108.0</ele>
        <time>2013-05-11T14:33:36Z</time>
      </trkpt>
      <trkpt lat="40.557350" lon="-4.827650">
        <ele>1108.0</ele>
        <time>2013-05-11T14:33:37Z</time>
      </trkpt>
      <trkpt lat="40.557350" lon="-4.827650">
        <ele>1108.0</ele>
        <time>2013-05-11T14:33:38Z</time>
      </trkpt>
      <trkpt lat="40.557350" lon="-4.827650">
        <ele>1108.0</ele>
        <time>2013-05-11T14:33:39Z</time>
      </trkpt>
      <trkpt lat="40.557350" lon="-4.827650">
        <ele>1109.0</ele>
        <time>2013-05-11T14:33:40Z</time>
      </trkpt>
      <trkpt lat="40.557350" lon="-4.827650">
        <ele>1109.0</ele>
        <time>2013-05-11T14:33:41Z</time>
      </trkpt>
      <trkpt lat="40.557350" lon="-4.827650">
        <ele>1109.0</ele>
        <time>2013-05-11T14:33:42Z</time>
      </trkpt>
      <trkpt lat="40.557350" lon="-4.827650">
        <ele>1109.0</ele>
        <time>2013-05-11T14:33:43Z</time>
      </trkpt>
      <trkpt lat="40.557350" lon="-4.827650">
        <ele>1109.0</ele>
        <time>2013-05-11T14:33:44Z</time>
      </trkpt>
      <trkpt lat="40.557350" lon="-4.827650">
        <ele>1109.0</ele>
        <time>2013-05-11T14:33:45Z</time>
      </trkpt>
      <trkpt lat="40.557350" lon="-4.827650">
        <ele>1110.0</ele>
        <time>2013-05-11T14:33:46Z</time>
      </trkpt>
      <trkpt lat="40.557350" lon="-4.827650">
        <ele>1110.0</ele>
        <time>2013-05-11T14:33:47Z</time>
      </trkpt>
      <trkpt lat="40.557350" lon="-4.827667">
        <ele>1110.0</ele>
        <time>2013-05-11T14:33:48Z</time>
      </trkpt>
      <trkpt lat="40.557350" lon="-4.827667">
        <ele>1110.0</ele>
        <time>2013-05-11T14:33:49Z</time>
      </trkpt>
      <trkpt lat="40.557350" lon="-4.827667">
        <ele>1110.0</ele>
        <time>2013-05-11T14:33:50Z</time>
      </trkpt>
      <trkpt lat="40.557350" lon="-4.827667">
        <ele>1110.0</ele>
        <time>2013-05-11T14:33:51Z</time>
      </trkpt>
      <trkpt lat="40.557350" lon="-4.827667">
        <ele>1111.0</ele>
        <time>2013-05-11T14:33:52Z</time>
      </trkpt>
      <trkpt lat="40.557350" lon="-4.827650">
        <ele>1111.0</ele>
        <time>2013-05-11T14:33:53Z</time>
      </trkpt>
      <trkpt lat="40.557350" lon="-4.827650">
        <ele>1112.0</ele>
        <time>2013-05-11T14:33:54Z</time>
      </trkpt>
      <trkpt lat="40.557350" lon="-4.827650">
        <ele>1112.0</ele>
        <time>2013-05-11T14:33:55Z</time>
      </trkpt>
      <trkpt lat="40.557350" lon="-4.827650">
        <ele>1112.0</ele>
        <time>2013-05-11T14:33:56Z</time>
      </trkpt>
      <trkpt lat="40.557350" lon="-4.827650">
        <ele>1112.0</ele>
        <time>2013-05-11T14:33:57Z</time>
      </trkpt>
      <trkpt lat="40.557350" lon="-4.827650">
        <ele>1112.0</ele>
        <time>2013-05-11T14:33:58Z</time>
      </trkpt>
      <trkpt lat="40.557350" lon="-4.827650">
        <ele>1113.0</ele>
        <time>2013-05-11T14:33:59Z</time>
      </trkpt>
      <trkpt lat="40.557350" lon="-4.827650">
        <ele>1113.0</ele>
        <time>2013-05-11T14:34:00Z</time>
      </trkpt>
      <trkpt lat="40.557350" lon="-4.827650">
        <ele>1113.0</ele>
        <time>2013-05-11T14:34:01Z</time>
      </trkpt>
      <trkpt lat="40.557350" lon="-4.827650">
        <ele>1113.0</ele>
        <time>2013-05-11T14:34:02Z</time>
      </trkpt>
      <trkpt lat="40.557350" lon="-4.827650">
        <ele>1113.0</ele>
        <time>2013-05-11T14:34:03Z</time>
      </trkpt>
      <trkpt lat="40.557350" lon="-4.827650">
        <ele>1113.0</ele>
        <time>2013-05-11T14:34:04Z</time>
      </trkpt>
      <trkpt lat="40.557350" lon="-4.827650">
        <ele>1113.0</ele>
        <time>2013-05-11T14:34:05Z</time>
      </trkpt>
      <trkpt lat="40.557350" lon="-4.827650">
        <ele>1113.0</ele>
        <time>2013-05-11T14:34:06Z</time>
      </trkpt>
      <trkpt lat="40.557350" lon="-4.827667">
        <ele>1113.0</ele>
        <time>2013-05-11T14:34:07Z</time>
      </trkpt>
      <trkpt lat="40.557350" lon="-4.827650">
        <ele>1113.0</ele>
        <time>2013-05-11T14:34:08Z</time>
      </trkpt>
      <trkpt lat="40.557350" lon="-4.827667">
        <ele>1113.0</ele>
        <time>2013-05-11T14:34:09Z</time>
      </trkpt>
      <trkpt lat="40.557350" lon="-4.827667">
        <ele>1113.0</ele>
        <time>2013-05-11T14:34:10Z</time>
      </trkpt>
      <trkpt lat="40.557350" lon="-4.827667">
        <ele>1112.0</ele>
        <time>2013-05-11T14:34:11Z</time>
      </trkpt>
      <trkpt lat="40.557350" lon="-4.827667">
        <ele>1112.0</ele>
        <time>2013-05-11T14:34:12Z</time>
      </trkpt>
      <trkpt lat="40.557350" lon="-4.827667">
        <ele>1112.0</ele>
        <time>2013-05-11T14:34:13Z</time>
      </trkpt>
      <trkpt lat="40.557350" lon="-4.827667">
        <ele>1112.0</ele>
        <time>2013-05-11T14:34:14Z</time>
      </trkpt>
      <trkpt lat="40.557350" lon="-4.827667">
        <ele>1112.0</ele>
        <time>2013-05-11T14:34:15Z</time>
      </trkpt>
      <trkpt lat="40.557350" lon="-4.827667">
        <ele>1113.0</ele>
        <time>2013-05-11T14:34:16Z</time>
      </trkpt>
      <trkpt lat="40.557350" lon="-4.827667">
        <ele>1113.0</ele>
        <time>2013-05-11T14:34:17Z</time>
      </trkpt>
      <trkpt lat="40.557350" lon="-4.827667">
        <ele>1113.0</ele>
        <time>2013-05-11T14:34:18Z</time>
      </trkpt>
      <trkpt lat="40.557350" lon="-4.827667">
        <ele>1113.0</ele>
        <time>2013-05-11T14:34:19Z</time>
      </trkpt>
      <trkpt lat="40.557350" lon="-4.827667">
        <ele>1113.0</ele>
        <time>2013-05-11T14:34:20Z</time>
      </trkpt>
      <trkpt lat="40.557350" lon="-4.827667">
        <ele>1113.0</ele>
        <time>2013-05-11T14:34:21Z</time>
      </trkpt>
      <trkpt lat="40.557350" lon="-4.827667">
        <ele>1113.0</ele>
        <time>2013-05-11T14:34:22Z</time>
      </trkpt>
      <trkpt lat="40.557350" lon="-4.827667">
        <ele>1113.0</ele>
        <time>2013-05-11T14:34:23Z</time>
      </trkpt>
      <trkpt lat="40.557350" lon="-4.827667">
        <ele>1113.0</ele>
        <time>2013-05-11T14:34:24Z</time>
      </trkpt>
      <trkpt lat="40.557350" lon="-4.827667">
        <ele>1113.0</ele>
        <time>2013-05-11T14:34:25Z</time>
      </trkpt>
      <trkpt lat="40.557350" lon="-4.827667">
        <ele>1113.0</ele>
        <time>2013-05-11T14:34:26Z</time>
      </trkpt>
      <trkpt lat="40.557350" lon="-4.827667">
        <ele>1113.0</ele>
        <time>2013-05-11T14:34:27Z</time>
      </trkpt>
      <trkpt lat="40.557350" lon="-4.827667">
        <ele>1113.0</ele>
        <time>2013-05-11T14:34:28Z</time>
      </trkpt>
      <trkpt lat="40.557350" lon="-4.827667">
        <ele>1113.0</ele>
        <time>2013-05-11T14:34:29Z</time>
      </trkpt>
      <trkpt lat="40.557350" lon="-4.827667">
        <ele>1113.0</ele>
        <time>2013-05-11T14:34:30Z</time>
      </trkpt>
      <trkpt lat="40.557350" lon="-4.827667">
        <ele>1113.0</ele>
        <time>2013-05-11T14:34:31Z</time>
      </trkpt>
      <trkpt lat="40.557350" lon="-4.827667">
        <ele>1113.0</ele>
        <time>2013-05-11T14:34:32Z</time>
      </trkpt>
      <trkpt lat="40.557350" lon="-4.827667">
        <ele>1113.0</ele>
        <time>2013-05-11T14:34:33Z</time>
      </trkpt>
      <trkpt lat="40.557350" lon="-4.827667">
        <ele>1113.0</ele>
        <time>2013-05-11T14:34:34Z</time>
      </trkpt>
      <trkpt lat="40.557350" lon="-4.827667">
        <ele>1113.0</ele>
        <time>2013-05-11T14:34:35Z</time>
      </trkpt>
      <trkpt lat="40.557350" lon="-4.827667">
        <ele>1113.0</ele>
        <time>2013-05-11T14:34:36Z</time>
      </trkpt>
      <trkpt lat="40.557350" lon="-4.827667">
        <ele>1113.0</ele>
        <time>2013-05-11T14:34:37Z</time>
      </trkpt>
      <trkpt lat="40.557367" lon="-4.827650">
        <ele>1113.0</ele>
        <time>2013-05-11T14:34:38Z</time>
      </trkpt>
      <trkpt lat="40.557367" lon="-4.827633">
        <ele>1114.0</ele>
        <time>2013-05-11T14:34:39Z</time>
      </trkpt>
      <trkpt lat="40.557367" lon="-4.827617">
        <ele>1115.0</ele>
        <time>2013-05-11T14:34:40Z</time>
      </trkpt>
      <trkpt lat="40.557367" lon="-4.827617">
        <ele>1115.0</ele>
        <time>2013-05-11T14:34:41Z</time>
      </trkpt>
      <trkpt lat="40.557350" lon="-4.827617">
        <ele>1114.0</ele>
        <time>2013-05-11T14:34:42Z</time>
      </trkpt>
      <trkpt lat="40.557350" lon="-4.827617">
        <ele>1115.0</ele>
        <time>2013-05-11T14:34:43Z</time>
      </trkpt>
      <trkpt lat="40.557367" lon="-4.827617">
        <ele>1115.0</ele>
        <time>2013-05-11T14:34:44Z</time>
      </trkpt>
      <trkpt lat="40.557367" lon="-4.827617">
        <ele>1114.0</ele>
        <time>2013-05-11T14:34:45Z</time>
      </trkpt>
      <trkpt lat="40.557350" lon="-4.827633">
        <ele>1114.0</ele>
        <time>2013-05-11T14:34:46Z</time>
      </trkpt>
      <trkpt lat="40.557350" lon="-4.827633">
        <ele>1113.0</ele>
        <time>2013-05-11T14:34:47Z</time>
      </trkpt>
      <trkpt lat="40.557367" lon="-4.827633">
        <ele>1113.0</ele>
        <time>2013-05-11T14:34:48Z</time>
      </trkpt>
      <trkpt lat="40.557367" lon="-4.827633">
        <ele>1112.0</ele>
        <time>2013-05-11T14:34:49Z</time>
      </trkpt>
      <trkpt lat="40.557367" lon="-4.827633">
        <ele>1112.0</ele>
        <time>2013-05-11T14:34:50Z</time>
      </trkpt>
      <trkpt lat="40.557367" lon="-4.827633">
        <ele>1112.0</ele>
        <time>2013-05-11T14:34:51Z</time>
      </trkpt>
      <trkpt lat="40.557367" lon="-4.827633">
        <ele>1112.0</ele>
        <time>2013-05-11T14:34:52Z</time>
      </trkpt>
      <trkpt lat="40.557350" lon="-4.827650">
        <ele>1112.0</ele>
        <time>2013-05-11T14:34:53Z</time>
      </trkpt>
      <trkpt lat="40.557367" lon="-4.827650">
        <ele>1112.0</ele>
        <time>2013-05-11T14:34:54Z</time>
      </trkpt>
      <trkpt lat="40.557367" lon="-4.827650">
        <ele>1112.0</ele>
        <time>2013-05-11T14:34:55Z</time>
      </trkpt>
      <trkpt lat="40.557367" lon="-4.827650">
        <ele>1112.0</ele>
        <time>2013-05-11T14:34:56Z</time>
      </trkpt>
      <trkpt lat="40.557367" lon="-4.827650">
        <ele>1110.0</ele>
        <time>2013-05-11T14:34:57Z</time>
      </trkpt>
      <trkpt lat="40.557367" lon="-4.827667">
        <ele>1109.0</ele>
        <time>2013-05-11T14:34:58Z</time>
      </trkpt>
      <trkpt lat="40.557367" lon="-4.827667">
        <ele>1109.0</ele>
        <time>2013-05-11T14:34:59Z</time>
      </trkpt>
      <trkpt lat="40.557367" lon="-4.827667">
        <ele>1109.0</ele>
        <time>2013-05-11T14:35:00Z</time>
      </trkpt>
      <trkpt lat="40.557367" lon="-4.827667">
        <ele>1109.0</ele>
        <time>2013-05-11T14:35:01Z</time>
      </trkpt>
      <trkpt lat="40.557367" lon="-4.827667">
        <ele>1109.0</ele>
        <time>2013-05-11T14:35:02Z</time>
      </trkpt>
      <trkpt lat="40.557367" lon="-4.827667">
        <ele>1109.0</ele>
        <time>2013-05-11T14:35:03Z</time>
      </trkpt>
    </trkseg>
  </trk>
</gpx>
